<?xml version='1.0' encoding='UTF-8'?><gpx version="1.1" creator="JPX - https://github.com/jenetics/jpx" xmlns="http://www.topografix.com/GPX/1/1"><trk><trkseg><trkpt lat="43.0643237" lon="12.3109359"><ele>242.00000000000003</ele><time>2026-05-02T07:46:49Z</time></trkpt><trkpt lat="43.0642766" lon="12.3108551"><ele>242.0</ele><time>2026-05-02T07:46:51Z</time></trkpt><trkpt lat="43.0642249" lon="12.3108048"><ele>242.0</ele><time>2026-05-02T07:46:51.999Z</time></trkpt><trkpt lat="43.0641632" lon="12.31075"><ele>242.0</ele><time>2026-05-02T07:46:53Z</time></trkpt><trkpt lat="43.0641162" lon="12.3106845"><ele>242.00000000000003</ele><time>2026-05-02T07:46:54Z</time></trkpt><trkpt lat="43.0640255" lon="12.3105854"><ele>242.0</ele><time>2026-05-02T07:46:56Z</time></trkpt><trkpt lat="43.0639298" lon="12.3104718"><ele>241.83333333333334</ele><time>2026-05-02T07:46:58Z</time></trkpt><trkpt lat="43.0638738" lon="12.3104248"><ele>241.66666666666669</ele><time>2026-05-02T07:46:58.999Z</time></trkpt><trkpt lat="43.0638142" lon="12.3103753"><ele>241.5</ele><time>2026-05-02T07:47:00Z</time></trkpt><trkpt lat="43.0637482" lon="12.3103325"><ele>241.33333333333331</ele><time>2026-05-02T07:47:00.999Z</time></trkpt><trkpt lat="43.0636851" lon="12.3102707"><ele>241.16666666666666</ele><time>2026-05-02T07:47:02Z</time></trkpt><trkpt lat="43.0636162" lon="12.3102219"><ele>241.0</ele><time>2026-05-02T07:47:03Z</time></trkpt><trkpt lat="43.0635413" lon="12.3101606"><ele>240.99999999999997</ele><time>2026-05-02T07:47:04Z</time></trkpt><trkpt lat="43.0634668" lon="12.3101083"><ele>241.0</ele><time>2026-05-02T07:47:05Z</time></trkpt><trkpt lat="43.0633821" lon="12.3100459"><ele>241.0</ele><time>2026-05-02T07:47:06Z</time></trkpt><trkpt lat="43.0633143" lon="12.3099948"><ele>241.0</ele><time>2026-05-02T07:47:07Z</time></trkpt><trkpt lat="43.063243" lon="12.3099427"><ele>240.99999999999997</ele><time>2026-05-02T07:47:07.999Z</time></trkpt><trkpt lat="43.0631667" lon="12.3098962"><ele>241.0</ele><time>2026-05-02T07:47:09Z</time></trkpt><trkpt lat="43.0630943" lon="12.3098466"><ele>241.0</ele><time>2026-05-02T07:47:10Z</time></trkpt><trkpt lat="43.0630183" lon="12.3097934"><ele>241.00000000000003</ele><time>2026-05-02T07:47:11Z</time></trkpt><trkpt lat="43.0629291" lon="12.3097389"><ele>241.00000000000003</ele><time>2026-05-02T07:47:12Z</time></trkpt><trkpt lat="43.0628509" lon="12.3096797"><ele>241.0</ele><time>2026-05-02T07:47:13Z</time></trkpt><trkpt lat="43.0627668" lon="12.3096197"><ele>241.0</ele><time>2026-05-02T07:47:14Z</time></trkpt><trkpt lat="43.0626824" lon="12.3095562"><ele>241.0</ele><time>2026-05-02T07:47:15Z</time></trkpt><trkpt lat="43.0625963" lon="12.3094897"><ele>241.00000000000003</ele><time>2026-05-02T07:47:16Z</time></trkpt><trkpt lat="43.0625093" lon="12.309419"><ele>241.00000000000003</ele><time>2026-05-02T07:47:17Z</time></trkpt><trkpt lat="43.0624186" lon="12.3093543"><ele>241.0</ele><time>2026-05-02T07:47:18Z</time></trkpt><trkpt lat="43.0623303" lon="12.309284"><ele>241.0</ele><time>2026-05-02T07:47:19Z</time></trkpt><trkpt lat="43.0622478" lon="12.30921"><ele>241.20000000000002</ele><time>2026-05-02T07:47:20Z</time></trkpt><trkpt lat="43.0621641" lon="12.3091345"><ele>241.40000000000003</ele><time>2026-05-02T07:47:21Z</time></trkpt><trkpt lat="43.0620809" lon="12.3090529"><ele>241.6</ele><time>2026-05-02T07:47:21.999Z</time></trkpt><trkpt lat="43.0620055" lon="12.3089692"><ele>241.8</ele><time>2026-05-02T07:47:23Z</time></trkpt><trkpt lat="43.0619326" lon="12.3088865"><ele>242.0</ele><time>2026-05-02T07:47:24Z</time></trkpt><trkpt lat="43.061861" lon="12.3087961"><ele>242.16666666666669</ele><time>2026-05-02T07:47:24.999Z</time></trkpt><trkpt lat="43.0617848" lon="12.3087014"><ele>242.33333333333334</ele><time>2026-05-02T07:47:26Z</time></trkpt><trkpt lat="43.0617107" lon="12.3086167"><ele>242.5</ele><time>2026-05-02T07:47:27Z</time></trkpt><trkpt lat="43.0616381" lon="12.3085403"><ele>242.66666666666669</ele><time>2026-05-02T07:47:28Z</time></trkpt><trkpt lat="43.0615703" lon="12.3084738"><ele>242.83333333333334</ele><time>2026-05-02T07:47:29Z</time></trkpt><trkpt lat="43.0615157" lon="12.3084188"><ele>243.0</ele><time>2026-05-02T07:47:30Z</time></trkpt><trkpt lat="43.0614506" lon="12.3083016"><ele>242.83333333333334</ele><time>2026-05-02T07:47:31.999Z</time></trkpt><trkpt lat="43.0614618" lon="12.308165"><ele>242.66666666666669</ele><time>2026-05-02T07:47:34Z</time></trkpt><trkpt lat="43.0614976" lon="12.3080862"><ele>242.5</ele><time>2026-05-02T07:47:35Z</time></trkpt><trkpt lat="43.0615344" lon="12.3080132"><ele>242.33333333333334</ele><time>2026-05-02T07:47:36Z</time></trkpt><trkpt lat="43.0615869" lon="12.307923"><ele>242.16666666666669</ele><time>2026-05-02T07:47:37Z</time></trkpt><trkpt lat="43.0616338" lon="12.3078334"><ele>242.0</ele><time>2026-05-02T07:47:38Z</time></trkpt><trkpt lat="43.0616724" lon="12.3077533"><ele>242.00000000000003</ele><time>2026-05-02T07:47:39Z</time></trkpt><trkpt lat="43.0617197" lon="12.3076727"><ele>242.0</ele><time>2026-05-02T07:47:40Z</time></trkpt><trkpt lat="43.0618191" lon="12.3075618"><ele>242.0</ele><time>2026-05-02T07:47:42Z</time></trkpt><trkpt lat="43.0618762" lon="12.307521"><ele>242.0</ele><time>2026-05-02T07:47:43Z</time></trkpt><trkpt lat="43.0619392" lon="12.3074804"><ele>242.00000000000003</ele><time>2026-05-02T07:47:44Z</time></trkpt><trkpt lat="43.0620091" lon="12.3074475"><ele>242.0</ele><time>2026-05-02T07:47:45Z</time></trkpt><trkpt lat="43.0620733" lon="12.307407"><ele>242.00000000000003</ele><time>2026-05-02T07:47:46Z</time></trkpt><trkpt lat="43.062145" lon="12.3073708"><ele>242.0</ele><time>2026-05-02T07:47:46.999Z</time></trkpt><trkpt lat="43.0622046" lon="12.3073334"><ele>242.0</ele><time>2026-05-02T07:47:48Z</time></trkpt><trkpt lat="43.0622944" lon="12.3072862"><ele>242.0</ele><time>2026-05-02T07:47:50Z</time></trkpt><trkpt lat="43.0623605" lon="12.3072111"><ele>242.00000000000003</ele><time>2026-05-02T07:47:52Z</time></trkpt><trkpt lat="43.0623622" lon="12.3071007"><ele>242.0</ele><time>2026-05-02T07:47:54Z</time></trkpt><trkpt lat="43.06233" lon="12.3069744"><ele>242.16666666666669</ele><time>2026-05-02T07:47:56Z</time></trkpt><trkpt lat="43.0622917" lon="12.306865"><ele>242.33333333333334</ele><time>2026-05-02T07:47:58Z</time></trkpt><trkpt lat="43.0622696" lon="12.3067684"><ele>242.5</ele><time>2026-05-02T07:48:00Z</time></trkpt><trkpt lat="43.062249" lon="12.3066803"><ele>242.66666666666669</ele><time>2026-05-02T07:48:02Z</time></trkpt><trkpt lat="43.0622253" lon="12.3065893"><ele>242.83333333333334</ele><time>2026-05-02T07:48:04Z</time></trkpt><trkpt lat="43.0622042" lon="12.3064829"><ele>243.0</ele><time>2026-05-02T07:48:06.999Z</time></trkpt><trkpt lat="43.0622245" lon="12.3063795"><ele>243.0</ele><time>2026-05-02T07:48:09Z</time></trkpt><trkpt lat="43.0622885" lon="12.3062891"><ele>243.0</ele><time>2026-05-02T07:48:11Z</time></trkpt><trkpt lat="43.0624101" lon="12.3061977"><ele>243.0</ele><time>2026-05-02T07:48:13Z</time></trkpt><trkpt lat="43.0624763" lon="12.3061527"><ele>243.0</ele><time>2026-05-02T07:48:13.999Z</time></trkpt><trkpt lat="43.0625359" lon="12.306091"><ele>243.0</ele><time>2026-05-02T07:48:15Z</time></trkpt><trkpt lat="43.0625799" lon="12.3059991"><ele>242.16666666666666</ele><time>2026-05-02T07:48:16Z</time></trkpt><trkpt lat="43.0626186" lon="12.3058866"><ele>241.33333333333331</ele><time>2026-05-02T07:48:17Z</time></trkpt><trkpt lat="43.0626318" lon="12.3057907"><ele>240.5</ele><time>2026-05-02T07:48:18Z</time></trkpt><trkpt lat="43.0626502" lon="12.3056906"><ele>239.66666666666666</ele><time>2026-05-02T07:48:19Z</time></trkpt><trkpt lat="43.0626792" lon="12.3055947"><ele>238.83333333333331</ele><time>2026-05-02T07:48:20Z</time></trkpt><trkpt lat="43.0627215" lon="12.3055135"><ele>238.0</ele><time>2026-05-02T07:48:21Z</time></trkpt><trkpt lat="43.0627801" lon="12.3054394"><ele>237.83333333333331</ele><time>2026-05-02T07:48:22Z</time></trkpt><trkpt lat="43.0628423" lon="12.3053873"><ele>237.66666666666666</ele><time>2026-05-02T07:48:23Z</time></trkpt><trkpt lat="43.0629079" lon="12.3053507"><ele>237.5</ele><time>2026-05-02T07:48:24Z</time></trkpt><trkpt lat="43.062977" lon="12.3053223"><ele>237.33333333333331</ele><time>2026-05-02T07:48:24.999Z</time></trkpt><trkpt lat="43.0630563" lon="12.3052897"><ele>237.16666666666666</ele><time>2026-05-02T07:48:26Z</time></trkpt><trkpt lat="43.0631372" lon="12.3052564"><ele>237.0</ele><time>2026-05-02T07:48:26.999Z</time></trkpt><trkpt lat="43.0632238" lon="12.305227"><ele>237.16666666666666</ele><time>2026-05-02T07:48:28Z</time></trkpt><trkpt lat="43.0633121" lon="12.305188"><ele>237.33333333333331</ele><time>2026-05-02T07:48:29Z</time></trkpt><trkpt lat="43.0633996" lon="12.3051542"><ele>237.5</ele><time>2026-05-02T07:48:30Z</time></trkpt><trkpt lat="43.0634872" lon="12.3051177"><ele>237.66666666666666</ele><time>2026-05-02T07:48:31Z</time></trkpt><trkpt lat="43.0635685" lon="12.3050789"><ele>237.83333333333331</ele><time>2026-05-02T07:48:32Z</time></trkpt><trkpt lat="43.0636537" lon="12.3050491"><ele>238.0</ele><time>2026-05-02T07:48:32.999Z</time></trkpt><trkpt lat="43.0637427" lon="12.3050192"><ele>237.99999999999997</ele><time>2026-05-02T07:48:33.999Z</time></trkpt><trkpt lat="43.0638234" lon="12.304989"><ele>238.0</ele><time>2026-05-02T07:48:35Z</time></trkpt><trkpt lat="43.0639025" lon="12.3049506"><ele>238.0</ele><time>2026-05-02T07:48:35.999Z</time></trkpt><trkpt lat="43.0639777" lon="12.304912"><ele>238.0</ele><time>2026-05-02T07:48:37Z</time></trkpt><trkpt lat="43.0640536" lon="12.3048605"><ele>237.99999999999997</ele><time>2026-05-02T07:48:38Z</time></trkpt><trkpt lat="43.0641339" lon="12.3047995"><ele>238.0</ele><time>2026-05-02T07:48:39Z</time></trkpt><trkpt lat="43.0642068" lon="12.3047312"><ele>237.66666666666666</ele><time>2026-05-02T07:48:40Z</time></trkpt><trkpt lat="43.064273" lon="12.3046623"><ele>237.33333333333331</ele><time>2026-05-02T07:48:41Z</time></trkpt><trkpt lat="43.0643361" lon="12.304598"><ele>237.0</ele><time>2026-05-02T07:48:42Z</time></trkpt><trkpt lat="43.0644009" lon="12.3045195"><ele>236.66666666666669</ele><time>2026-05-02T07:48:43Z</time></trkpt><trkpt lat="43.064468" lon="12.3044439"><ele>236.33333333333334</ele><time>2026-05-02T07:48:44Z</time></trkpt><trkpt lat="43.0645352" lon="12.3043727"><ele>236.0</ele><time>2026-05-02T07:48:44.999Z</time></trkpt><trkpt lat="43.0646009" lon="12.3043017"><ele>236.0</ele><time>2026-05-02T07:48:46Z</time></trkpt><trkpt lat="43.0646641" lon="12.3042375"><ele>236.0</ele><time>2026-05-02T07:48:47Z</time></trkpt><trkpt lat="43.0647192" lon="12.3041791"><ele>236.0</ele><time>2026-05-02T07:48:48Z</time></trkpt><trkpt lat="43.0647748" lon="12.3041227"><ele>236.0</ele><time>2026-05-02T07:48:49Z</time></trkpt><trkpt lat="43.0648283" lon="12.3040678"><ele>236.0</ele><time>2026-05-02T07:48:49.999Z</time></trkpt><trkpt lat="43.0648807" lon="12.3040101"><ele>236.0</ele><time>2026-05-02T07:48:51Z</time></trkpt><trkpt lat="43.0649368" lon="12.3039652"><ele>236.0</ele><time>2026-05-02T07:48:52Z</time></trkpt><trkpt lat="43.0650072" lon="12.3039255"><ele>236.50000000000003</ele><time>2026-05-02T07:48:54Z</time></trkpt><trkpt lat="43.0650778" lon="12.3039104"><ele>237.0</ele><time>2026-05-02T07:49:04Z</time></trkpt><trkpt lat="43.0651291" lon="12.3038532"><ele>237.5</ele><time>2026-05-02T07:49:07Z</time></trkpt><trkpt lat="43.0651353" lon="12.3037033"><ele>238.0</ele><time>2026-05-02T07:49:09Z</time></trkpt><trkpt lat="43.0651058" lon="12.3036045"><ele>238.50000000000003</ele><time>2026-05-02T07:49:10Z</time></trkpt><trkpt lat="43.0650726" lon="12.303493"><ele>239.0</ele><time>2026-05-02T07:49:11Z</time></trkpt><trkpt lat="43.0650301" lon="12.303385"><ele>239.0</ele><time>2026-05-02T07:49:12Z</time></trkpt><trkpt lat="43.0649781" lon="12.3032682"><ele>238.99999999999997</ele><time>2026-05-02T07:49:12.999Z</time></trkpt><trkpt lat="43.0649305" lon="12.3031488"><ele>238.99999999999997</ele><time>2026-05-02T07:49:14Z</time></trkpt><trkpt lat="43.0648715" lon="12.3030293"><ele>239.0</ele><time>2026-05-02T07:49:14.999Z</time></trkpt><trkpt lat="43.0648166" lon="12.3029193"><ele>239.0</ele><time>2026-05-02T07:49:16Z</time></trkpt><trkpt lat="43.0647632" lon="12.3028018"><ele>239.0</ele><time>2026-05-02T07:49:17Z</time></trkpt><trkpt lat="43.0647044" lon="12.3026861"><ele>238.99999999999997</ele><time>2026-05-02T07:49:18Z</time></trkpt><trkpt lat="43.0646515" lon="12.3025619"><ele>238.99999999999997</ele><time>2026-05-02T07:49:19Z</time></trkpt><trkpt lat="43.0646045" lon="12.3024459"><ele>239.0</ele><time>2026-05-02T07:49:20Z</time></trkpt><trkpt lat="43.0645544" lon="12.3023252"><ele>239.0</ele><time>2026-05-02T07:49:21Z</time></trkpt><trkpt lat="43.0645031" lon="12.3022042"><ele>239.2</ele><time>2026-05-02T07:49:22Z</time></trkpt><trkpt lat="43.0644479" lon="12.3020803"><ele>239.39999999999998</ele><time>2026-05-02T07:49:23Z</time></trkpt><trkpt lat="43.0643925" lon="12.3019558"><ele>239.6</ele><time>2026-05-02T07:49:24Z</time></trkpt><trkpt lat="43.0643433" lon="12.3018292"><ele>239.8</ele><time>2026-05-02T07:49:25Z</time></trkpt><trkpt lat="43.064291" lon="12.3017104"><ele>240.0</ele><time>2026-05-02T07:49:26Z</time></trkpt><trkpt lat="43.0642377" lon="12.3015905"><ele>240.0</ele><time>2026-05-02T07:49:27Z</time></trkpt><trkpt lat="43.0641862" lon="12.3014715"><ele>240.0</ele><time>2026-05-02T07:49:28Z</time></trkpt><trkpt lat="43.0641372" lon="12.3013526"><ele>240.0</ele><time>2026-05-02T07:49:29Z</time></trkpt><trkpt lat="43.0640872" lon="12.3012319"><ele>240.0</ele><time>2026-05-02T07:49:30Z</time></trkpt><trkpt lat="43.0640272" lon="12.3011107"><ele>240.0</ele><time>2026-05-02T07:49:31Z</time></trkpt><trkpt lat="43.0639718" lon="12.3009851"><ele>239.4</ele><time>2026-05-02T07:49:32Z</time></trkpt><trkpt lat="43.0639137" lon="12.3008585"><ele>238.8</ele><time>2026-05-02T07:49:33Z</time></trkpt><trkpt lat="43.0638582" lon="12.3007353"><ele>238.2</ele><time>2026-05-02T07:49:34Z</time></trkpt><trkpt lat="43.0637985" lon="12.3006049"><ele>237.6</ele><time>2026-05-02T07:49:35Z</time></trkpt><trkpt lat="43.0637421" lon="12.3004711"><ele>237.0</ele><time>2026-05-02T07:49:36Z</time></trkpt><trkpt lat="43.063687" lon="12.3003424"><ele>237.0</ele><time>2026-05-02T07:49:37Z</time></trkpt><trkpt lat="43.0636313" lon="12.3002101"><ele>237.0</ele><time>2026-05-02T07:49:37.999Z</time></trkpt><trkpt lat="43.0635719" lon="12.3000816"><ele>237.0</ele><time>2026-05-02T07:49:39Z</time></trkpt><trkpt lat="43.0635184" lon="12.2999517"><ele>237.0</ele><time>2026-05-02T07:49:40Z</time></trkpt><trkpt lat="43.0634594" lon="12.2998284"><ele>237.0</ele><time>2026-05-02T07:49:40.999Z</time></trkpt><trkpt lat="43.0634019" lon="12.2997048"><ele>237.0</ele><time>2026-05-02T07:49:42Z</time></trkpt><trkpt lat="43.0633424" lon="12.2995798"><ele>237.0</ele><time>2026-05-02T07:49:43Z</time></trkpt><trkpt lat="43.0632909" lon="12.2994541"><ele>237.0</ele><time>2026-05-02T07:49:44Z</time></trkpt><trkpt lat="43.0632353" lon="12.2993378"><ele>237.0</ele><time>2026-05-02T07:49:45Z</time></trkpt><trkpt lat="43.0631831" lon="12.2992223"><ele>237.0</ele><time>2026-05-02T07:49:46Z</time></trkpt><trkpt lat="43.0631359" lon="12.2991054"><ele>237.0</ele><time>2026-05-02T07:49:47Z</time></trkpt><trkpt lat="43.0630828" lon="12.2989937"><ele>237.0</ele><time>2026-05-02T07:49:48Z</time></trkpt><trkpt lat="43.0630348" lon="12.298877"><ele>237.0</ele><time>2026-05-02T07:49:49Z</time></trkpt><trkpt lat="43.0629842" lon="12.2987559"><ele>237.0</ele><time>2026-05-02T07:49:50Z</time></trkpt><trkpt lat="43.0629319" lon="12.2986359"><ele>237.0</ele><time>2026-05-02T07:49:51Z</time></trkpt><trkpt lat="43.0628812" lon="12.2985203"><ele>237.2</ele><time>2026-05-02T07:49:51.999Z</time></trkpt><trkpt lat="43.0628321" lon="12.2984122"><ele>237.39999999999998</ele><time>2026-05-02T07:49:53Z</time></trkpt><trkpt lat="43.0627855" lon="12.2983027"><ele>237.60000000000002</ele><time>2026-05-02T07:49:54Z</time></trkpt><trkpt lat="43.062736" lon="12.2981919"><ele>237.8</ele><time>2026-05-02T07:49:55Z</time></trkpt><trkpt lat="43.0626896" lon="12.2980912"><ele>238.0</ele><time>2026-05-02T07:49:56Z</time></trkpt><trkpt lat="43.0626437" lon="12.2979856"><ele>237.99999999999997</ele><time>2026-05-02T07:49:57Z</time></trkpt><trkpt lat="43.0625955" lon="12.2978771"><ele>238.0</ele><time>2026-05-02T07:49:58Z</time></trkpt><trkpt lat="43.0625548" lon="12.297774"><ele>238.0</ele><time>2026-05-02T07:49:59Z</time></trkpt><trkpt lat="43.0625135" lon="12.2976755"><ele>238.0</ele><time>2026-05-02T07:49:59.999Z</time></trkpt><trkpt lat="43.0624725" lon="12.2975751"><ele>237.99999999999997</ele><time>2026-05-02T07:50:01Z</time></trkpt><trkpt lat="43.0624248" lon="12.2974711"><ele>238.0</ele><time>2026-05-02T07:50:02Z</time></trkpt><trkpt lat="43.0623713" lon="12.2973553"><ele>237.8</ele><time>2026-05-02T07:50:03Z</time></trkpt><trkpt lat="43.0623136" lon="12.2972317"><ele>237.60000000000002</ele><time>2026-05-02T07:50:04Z</time></trkpt><trkpt lat="43.0622571" lon="12.2971052"><ele>237.39999999999998</ele><time>2026-05-02T07:50:05Z</time></trkpt><trkpt lat="43.0621984" lon="12.2969812"><ele>237.2</ele><time>2026-05-02T07:50:06Z</time></trkpt><trkpt lat="43.0621467" lon="12.2968588"><ele>237.0</ele><time>2026-05-02T07:50:07Z</time></trkpt><trkpt lat="43.0620952" lon="12.296751"><ele>237.0</ele><time>2026-05-02T07:50:08Z</time></trkpt><trkpt lat="43.062048" lon="12.2966384"><ele>237.0</ele><time>2026-05-02T07:50:09Z</time></trkpt><trkpt lat="43.062003" lon="12.2965311"><ele>237.0</ele><time>2026-05-02T07:50:09.999Z</time></trkpt><trkpt lat="43.0619512" lon="12.2964312"><ele>237.0</ele><time>2026-05-02T07:50:11Z</time></trkpt><trkpt lat="43.0619105" lon="12.2963506"><ele>237.0</ele><time>2026-05-02T07:50:12Z</time></trkpt><trkpt lat="43.0618664" lon="12.2962638"><ele>237.0</ele><time>2026-05-02T07:50:13Z</time></trkpt><trkpt lat="43.0618271" lon="12.2961551"><ele>236.75</ele><time>2026-05-02T07:50:14Z</time></trkpt><trkpt lat="43.0617719" lon="12.2960304"><ele>236.5</ele><time>2026-05-02T07:50:14.999Z</time></trkpt><trkpt lat="43.0617077" lon="12.2958946"><ele>236.25</ele><time>2026-05-02T07:50:16Z</time></trkpt><trkpt lat="43.0616426" lon="12.2957394"><ele>236.0</ele><time>2026-05-02T07:50:16.999Z</time></trkpt><trkpt lat="43.0615754" lon="12.295589"><ele>234.75</ele><time>2026-05-02T07:50:18Z</time></trkpt><trkpt lat="43.0614986" lon="12.2954254"><ele>233.5</ele><time>2026-05-02T07:50:19Z</time></trkpt><trkpt lat="43.0614265" lon="12.2952576"><ele>232.25</ele><time>2026-05-02T07:50:20Z</time></trkpt><trkpt lat="43.0613616" lon="12.295087"><ele>231.0</ele><time>2026-05-02T07:50:21Z</time></trkpt><trkpt lat="43.0612959" lon="12.2949217"><ele>231.0</ele><time>2026-05-02T07:50:22Z</time></trkpt><trkpt lat="43.0612305" lon="12.2947738"><ele>231.0</ele><time>2026-05-02T07:50:23Z</time></trkpt><trkpt lat="43.0611696" lon="12.2946344"><ele>231.0</ele><time>2026-05-02T07:50:24Z</time></trkpt><trkpt lat="43.0611046" lon="12.2945029"><ele>231.0</ele><time>2026-05-02T07:50:25Z</time></trkpt><trkpt lat="43.0610449" lon="12.2943638"><ele>231.0</ele><time>2026-05-02T07:50:25.999Z</time></trkpt><trkpt lat="43.0609787" lon="12.2942078"><ele>231.0</ele><time>2026-05-02T07:50:27Z</time></trkpt><trkpt lat="43.060906" lon="12.294047"><ele>231.0</ele><time>2026-05-02T07:50:28Z</time></trkpt><trkpt lat="43.060827" lon="12.2938816"><ele>231.0</ele><time>2026-05-02T07:50:29Z</time></trkpt><trkpt lat="43.0607468" lon="12.2937132"><ele>229.75</ele><time>2026-05-02T07:50:30Z</time></trkpt><trkpt lat="43.0606712" lon="12.2935407"><ele>228.5</ele><time>2026-05-02T07:50:31Z</time></trkpt><trkpt lat="43.0605941" lon="12.2933667"><ele>227.25</ele><time>2026-05-02T07:50:32Z</time></trkpt><trkpt lat="43.060517" lon="12.2931919"><ele>226.0</ele><time>2026-05-02T07:50:33Z</time></trkpt><trkpt lat="43.0604406" lon="12.293032"><ele>225.75</ele><time>2026-05-02T07:50:33.999Z</time></trkpt><trkpt lat="43.0603748" lon="12.2928681"><ele>225.5</ele><time>2026-05-02T07:50:35Z</time></trkpt><trkpt lat="43.0603167" lon="12.2927268"><ele>225.25</ele><time>2026-05-02T07:50:36Z</time></trkpt><trkpt lat="43.0602701" lon="12.292594"><ele>225.0</ele><time>2026-05-02T07:50:37Z</time></trkpt><trkpt lat="43.0602336" lon="12.2924844"><ele>225.0</ele><time>2026-05-02T07:50:37.999Z</time></trkpt><trkpt lat="43.0602016" lon="12.2923812"><ele>225.0</ele><time>2026-05-02T07:50:39Z</time></trkpt><trkpt lat="43.0601533" lon="12.2922661"><ele>225.0</ele><time>2026-05-02T07:50:40Z</time></trkpt><trkpt lat="43.0600834" lon="12.2921431"><ele>225.0</ele><time>2026-05-02T07:50:41Z</time></trkpt><trkpt lat="43.0600121" lon="12.2920088"><ele>225.0</ele><time>2026-05-02T07:50:42Z</time></trkpt><trkpt lat="43.0599358" lon="12.2918645"><ele>224.75</ele><time>2026-05-02T07:50:43Z</time></trkpt><trkpt lat="43.0598677" lon="12.2916998"><ele>224.5</ele><time>2026-05-02T07:50:43.999Z</time></trkpt><trkpt lat="43.0597951" lon="12.2915321"><ele>224.25</ele><time>2026-05-02T07:50:45Z</time></trkpt><trkpt lat="43.0597213" lon="12.2913506"><ele>224.0</ele><time>2026-05-02T07:50:45.999Z</time></trkpt><trkpt lat="43.0596407" lon="12.2911624"><ele>223.66666666666669</ele><time>2026-05-02T07:50:47Z</time></trkpt><trkpt lat="43.0595558" lon="12.2909745"><ele>223.33333333333331</ele><time>2026-05-02T07:50:47.999Z</time></trkpt><trkpt lat="43.0594779" lon="12.2907998"><ele>223.0</ele><time>2026-05-02T07:50:49Z</time></trkpt><trkpt lat="43.0593991" lon="12.2906369"><ele>222.75</ele><time>2026-05-02T07:50:50Z</time></trkpt><trkpt lat="43.059327" lon="12.2904789"><ele>222.5</ele><time>2026-05-02T07:50:51Z</time></trkpt><trkpt lat="43.0592582" lon="12.290323"><ele>222.25</ele><time>2026-05-02T07:50:52Z</time></trkpt><trkpt lat="43.0592026" lon="12.290175"><ele>222.0</ele><time>2026-05-02T07:50:53Z</time></trkpt><trkpt lat="43.0591359" lon="12.2900337"><ele>221.6</ele><time>2026-05-02T07:50:53.999Z</time></trkpt><trkpt lat="43.059078" lon="12.2898958"><ele>221.2</ele><time>2026-05-02T07:50:54.999Z</time></trkpt><trkpt lat="43.0590202" lon="12.2897614"><ele>220.8</ele><time>2026-05-02T07:50:56Z</time></trkpt><trkpt lat="43.0589762" lon="12.2896411"><ele>220.4</ele><time>2026-05-02T07:50:57Z</time></trkpt><trkpt lat="43.0589403" lon="12.289539"><ele>220.0</ele><time>2026-05-02T07:50:58Z</time></trkpt><trkpt lat="43.0589011" lon="12.2894567"><ele>219.4</ele><time>2026-05-02T07:50:59Z</time></trkpt><trkpt lat="43.0588214" lon="12.2893413"><ele>218.8</ele><time>2026-05-02T07:51:01Z</time></trkpt><trkpt lat="43.05876" lon="12.2893188"><ele>218.2</ele><time>2026-05-02T07:51:02Z</time></trkpt><trkpt lat="43.0586252" lon="12.2893256"><ele>217.6</ele><time>2026-05-02T07:51:04Z</time></trkpt><trkpt lat="43.0585468" lon="12.2893335"><ele>217.0</ele><time>2026-05-02T07:51:05Z</time></trkpt><trkpt lat="43.0584609" lon="12.2893446"><ele>216.99999999999997</ele><time>2026-05-02T07:51:06Z</time></trkpt><trkpt lat="43.0583774" lon="12.2893588"><ele>217.0</ele><time>2026-05-02T07:51:07Z</time></trkpt><trkpt lat="43.0582921" lon="12.2893719"><ele>217.0</ele><time>2026-05-02T07:51:07.999Z</time></trkpt><trkpt lat="43.058217" lon="12.2893895"><ele>217.0</ele><time>2026-05-02T07:51:09Z</time></trkpt><trkpt lat="43.0581455" lon="12.2894092"><ele>216.99999999999997</ele><time>2026-05-02T07:51:10Z</time></trkpt><trkpt lat="43.0580794" lon="12.2894308"><ele>217.0</ele><time>2026-05-02T07:51:11Z</time></trkpt><trkpt lat="43.0580108" lon="12.2894558"><ele>216.6</ele><time>2026-05-02T07:51:12Z</time></trkpt><trkpt lat="43.0579423" lon="12.2894745"><ele>216.2</ele><time>2026-05-02T07:51:13Z</time></trkpt><trkpt lat="43.0578583" lon="12.2895008"><ele>215.8</ele><time>2026-05-02T07:51:14Z</time></trkpt><trkpt lat="43.0577657" lon="12.2895291"><ele>215.4</ele><time>2026-05-02T07:51:15Z</time></trkpt><trkpt lat="43.0576605" lon="12.2895592"><ele>215.0</ele><time>2026-05-02T07:51:16Z</time></trkpt><trkpt lat="43.0575532" lon="12.2895858"><ele>215.0</ele><time>2026-05-02T07:51:17Z</time></trkpt><trkpt lat="43.0574452" lon="12.2896076"><ele>215.0</ele><time>2026-05-02T07:51:18Z</time></trkpt><trkpt lat="43.0573292" lon="12.2896289"><ele>215.0</ele><time>2026-05-02T07:51:19Z</time></trkpt><trkpt lat="43.0572096" lon="12.289647"><ele>215.0</ele><time>2026-05-02T07:51:19.999Z</time></trkpt><trkpt lat="43.0570871" lon="12.2896504"><ele>215.0</ele><time>2026-05-02T07:51:21Z</time></trkpt><trkpt lat="43.0569537" lon="12.2896497"><ele>215.0</ele><time>2026-05-02T07:51:22Z</time></trkpt><trkpt lat="43.0568088" lon="12.2896534"><ele>215.0</ele><time>2026-05-02T07:51:23Z</time></trkpt><trkpt lat="43.0566556" lon="12.2896788"><ele>215.0</ele><time>2026-05-02T07:51:24Z</time></trkpt><trkpt lat="43.0564978" lon="12.2897113"><ele>214.33333333333334</ele><time>2026-05-02T07:51:25Z</time></trkpt><trkpt lat="43.056346" lon="12.2897482"><ele>213.66666666666669</ele><time>2026-05-02T07:51:25.999Z</time></trkpt><trkpt lat="43.0561956" lon="12.2897748"><ele>213.0</ele><time>2026-05-02T07:51:26.999Z</time></trkpt><trkpt lat="43.0560461" lon="12.2897928"><ele>213.0</ele><time>2026-05-02T07:51:28Z</time></trkpt><trkpt lat="43.0558971" lon="12.289836"><ele>213.0</ele><time>2026-05-02T07:51:29Z</time></trkpt><trkpt lat="43.0557573" lon="12.2899014"><ele>213.0</ele><time>2026-05-02T07:51:30Z</time></trkpt><trkpt lat="43.0556239" lon="12.2899791"><ele>213.0</ele><time>2026-05-02T07:51:31Z</time></trkpt><trkpt lat="43.0555065" lon="12.2900823"><ele>214.25</ele><time>2026-05-02T07:51:32Z</time></trkpt><trkpt lat="43.0554046" lon="12.2902191"><ele>215.5</ele><time>2026-05-02T07:51:32.999Z</time></trkpt><trkpt lat="43.0553248" lon="12.290384"><ele>216.75</ele><time>2026-05-02T07:51:34Z</time></trkpt><trkpt lat="43.0552624" lon="12.2905618"><ele>218.0</ele><time>2026-05-02T07:51:35Z</time></trkpt><trkpt lat="43.0552131" lon="12.2907511"><ele>218.5</ele><time>2026-05-02T07:51:35.999Z</time></trkpt><trkpt lat="43.0551798" lon="12.2909415"><ele>219.0</ele><time>2026-05-02T07:51:37Z</time></trkpt><trkpt lat="43.0551457" lon="12.2911272"><ele>219.5</ele><time>2026-05-02T07:51:38Z</time></trkpt><trkpt lat="43.0550928" lon="12.2913124"><ele>220.0</ele><time>2026-05-02T07:51:39Z</time></trkpt><trkpt lat="43.0550061" lon="12.2914803"><ele>221.33333333333331</ele><time>2026-05-02T07:51:40Z</time></trkpt><trkpt lat="43.0549142" lon="12.2916421"><ele>222.66666666666669</ele><time>2026-05-02T07:51:41Z</time></trkpt><trkpt lat="43.0548241" lon="12.291811"><ele>224.0</ele><time>2026-05-02T07:51:42Z</time></trkpt><trkpt lat="43.0547261" lon="12.2919942"><ele>224.0</ele><time>2026-05-02T07:51:43Z</time></trkpt><trkpt lat="43.0546172" lon="12.2921842"><ele>224.0</ele><time>2026-05-02T07:51:44Z</time></trkpt><trkpt lat="43.0545117" lon="12.2923673"><ele>224.0</ele><time>2026-05-02T07:51:45Z</time></trkpt><trkpt lat="43.0544118" lon="12.2925479"><ele>225.0</ele><time>2026-05-02T07:51:46Z</time></trkpt><trkpt lat="43.0543103" lon="12.2927293"><ele>226.0</ele><time>2026-05-02T07:51:47Z</time></trkpt><trkpt lat="43.0542234" lon="12.2929016"><ele>227.0</ele><time>2026-05-02T07:51:48Z</time></trkpt><trkpt lat="43.0541283" lon="12.2930721"><ele>230.33333333333334</ele><time>2026-05-02T07:51:49Z</time></trkpt><trkpt lat="43.0540303" lon="12.2932477"><ele>233.66666666666669</ele><time>2026-05-02T07:51:49.999Z</time></trkpt><trkpt lat="43.0539367" lon="12.2934199"><ele>237.0</ele><time>2026-05-02T07:51:51Z</time></trkpt><trkpt lat="43.0538264" lon="12.2935751"><ele>237.0</ele><time>2026-05-02T07:51:52Z</time></trkpt><trkpt lat="43.0537018" lon="12.2936911"><ele>237.0</ele><time>2026-05-02T07:51:53Z</time></trkpt><trkpt lat="43.0535518" lon="12.2937563"><ele>237.0</ele><time>2026-05-02T07:51:54Z</time></trkpt><trkpt lat="43.0534033" lon="12.2938098"><ele>238.0</ele><time>2026-05-02T07:51:55Z</time></trkpt><trkpt lat="43.0532598" lon="12.2938574"><ele>239.0</ele><time>2026-05-02T07:51:56Z</time></trkpt><trkpt lat="43.0531187" lon="12.2938952"><ele>240.0</ele><time>2026-05-02T07:51:57Z</time></trkpt><trkpt lat="43.0529782" lon="12.2939125"><ele>241.0</ele><time>2026-05-02T07:51:58Z</time></trkpt><trkpt lat="43.0528375" lon="12.2939025"><ele>241.0</ele><time>2026-05-02T07:51:59Z</time></trkpt><trkpt lat="43.0526978" lon="12.2938556"><ele>241.0</ele><time>2026-05-02T07:52:00Z</time></trkpt><trkpt lat="43.0525593" lon="12.2937932"><ele>241.0</ele><time>2026-05-02T07:52:01Z</time></trkpt><trkpt lat="43.0524159" lon="12.2937218"><ele>241.0</ele><time>2026-05-02T07:52:02Z</time></trkpt><trkpt lat="43.052275" lon="12.2936299"><ele>242.0</ele><time>2026-05-02T07:52:03Z</time></trkpt><trkpt lat="43.0521373" lon="12.2935311"><ele>243.0</ele><time>2026-05-02T07:52:04Z</time></trkpt><trkpt lat="43.0519961" lon="12.2934363"><ele>244.0</ele><time>2026-05-02T07:52:04.999Z</time></trkpt><trkpt lat="43.0518547" lon="12.2933323"><ele>244.0</ele><time>2026-05-02T07:52:06Z</time></trkpt><trkpt lat="43.0517119" lon="12.2932394"><ele>244.0</ele><time>2026-05-02T07:52:07Z</time></trkpt><trkpt lat="43.0515814" lon="12.2931601"><ele>244.0</ele><time>2026-05-02T07:52:08Z</time></trkpt><trkpt lat="43.0514652" lon="12.2930792"><ele>244.0</ele><time>2026-05-02T07:52:09Z</time></trkpt><trkpt lat="43.051353" lon="12.2929998"><ele>244.79999999999998</ele><time>2026-05-02T07:52:10Z</time></trkpt><trkpt lat="43.0512487" lon="12.2929279"><ele>245.59999999999997</ele><time>2026-05-02T07:52:11Z</time></trkpt><trkpt lat="43.0511554" lon="12.2928612"><ele>246.4</ele><time>2026-05-02T07:52:12Z</time></trkpt><trkpt lat="43.0510834" lon="12.2927945"><ele>247.2</ele><time>2026-05-02T07:52:13Z</time></trkpt><trkpt lat="43.0510109" lon="12.2927377"><ele>248.0</ele><time>2026-05-02T07:52:13.999Z</time></trkpt><trkpt lat="43.0509433" lon="12.2926816"><ele>248.0</ele><time>2026-05-02T07:52:14.999Z</time></trkpt><trkpt lat="43.0508804" lon="12.2926298"><ele>248.0</ele><time>2026-05-02T07:52:16Z</time></trkpt><trkpt lat="43.0508148" lon="12.2925745"><ele>248.0</ele><time>2026-05-02T07:52:17Z</time></trkpt><trkpt lat="43.0507443" lon="12.2924985"><ele>248.0</ele><time>2026-05-02T07:52:18Z</time></trkpt><trkpt lat="43.0506686" lon="12.2923968"><ele>248.0</ele><time>2026-05-02T07:52:18.999Z</time></trkpt><trkpt lat="43.0505929" lon="12.2922865"><ele>247.5</ele><time>2026-05-02T07:52:20Z</time></trkpt><trkpt lat="43.0505123" lon="12.2921666"><ele>247.0</ele><time>2026-05-02T07:52:21Z</time></trkpt><trkpt lat="43.0504246" lon="12.2920331"><ele>246.5</ele><time>2026-05-02T07:52:22Z</time></trkpt><trkpt lat="43.0503431" lon="12.2919014"><ele>246.0</ele><time>2026-05-02T07:52:23Z</time></trkpt><trkpt lat="43.0502547" lon="12.2917658"><ele>246.0</ele><time>2026-05-02T07:52:23.999Z</time></trkpt><trkpt lat="43.0501683" lon="12.2916356"><ele>246.0</ele><time>2026-05-02T07:52:25Z</time></trkpt><trkpt lat="43.0500844" lon="12.2915148"><ele>246.0</ele><time>2026-05-02T07:52:25.999Z</time></trkpt><trkpt lat="43.0500028" lon="12.2913965"><ele>246.0</ele><time>2026-05-02T07:52:27Z</time></trkpt><trkpt lat="43.0499276" lon="12.2912868"><ele>246.0</ele><time>2026-05-02T07:52:28Z</time></trkpt><trkpt lat="43.0498473" lon="12.2911801"><ele>246.0</ele><time>2026-05-02T07:52:28.999Z</time></trkpt><trkpt lat="43.0497623" lon="12.2910745"><ele>246.0</ele><time>2026-05-02T07:52:29.999Z</time></trkpt><trkpt lat="43.0496587" lon="12.2909924"><ele>246.0</ele><time>2026-05-02T07:52:31Z</time></trkpt><trkpt lat="43.0495443" lon="12.2909328"><ele>246.0</ele><time>2026-05-02T07:52:32Z</time></trkpt><trkpt lat="43.0494141" lon="12.2909047"><ele>246.0</ele><time>2026-05-02T07:52:33Z</time></trkpt><trkpt lat="43.0492825" lon="12.2908888"><ele>246.0</ele><time>2026-05-02T07:52:34Z</time></trkpt><trkpt lat="43.0491213" lon="12.2909147"><ele>246.0</ele><time>2026-05-02T07:52:34.999Z</time></trkpt><trkpt lat="43.0489656" lon="12.2909407"><ele>244.66666666666669</ele><time>2026-05-02T07:52:36Z</time></trkpt><trkpt lat="43.048824" lon="12.2909582"><ele>243.33333333333334</ele><time>2026-05-02T07:52:37Z</time></trkpt><trkpt lat="43.0486741" lon="12.2909837"><ele>242.0</ele><time>2026-05-02T07:52:38Z</time></trkpt><trkpt lat="43.0485126" lon="12.2910113"><ele>242.0</ele><time>2026-05-02T07:52:39Z</time></trkpt><trkpt lat="43.0483495" lon="12.2910371"><ele>242.0</ele><time>2026-05-02T07:52:40Z</time></trkpt><trkpt lat="43.0481877" lon="12.2910608"><ele>242.0</ele><time>2026-05-02T07:52:41Z</time></trkpt><trkpt lat="43.0480252" lon="12.2910859"><ele>239.33333333333334</ele><time>2026-05-02T07:52:42Z</time></trkpt><trkpt lat="43.0478687" lon="12.2911049"><ele>236.66666666666669</ele><time>2026-05-02T07:52:43Z</time></trkpt><trkpt lat="43.0477124" lon="12.291122"><ele>234.0</ele><time>2026-05-02T07:52:44Z</time></trkpt><trkpt lat="43.0475558" lon="12.2911398"><ele>233.0</ele><time>2026-05-02T07:52:45Z</time></trkpt><trkpt lat="43.0473897" lon="12.2911638"><ele>232.0</ele><time>2026-05-02T07:52:46Z</time></trkpt><trkpt lat="43.047226" lon="12.2911907"><ele>231.0</ele><time>2026-05-02T07:52:47Z</time></trkpt><trkpt lat="43.0470622" lon="12.2912145"><ele>231.0</ele><time>2026-05-02T07:52:48Z</time></trkpt><trkpt lat="43.0468965" lon="12.2912456"><ele>231.0</ele><time>2026-05-02T07:52:49Z</time></trkpt><trkpt lat="43.0467285" lon="12.2912726"><ele>231.0</ele><time>2026-05-02T07:52:50Z</time></trkpt><trkpt lat="43.0465667" lon="12.2912871"><ele>231.33333333333331</ele><time>2026-05-02T07:52:51Z</time></trkpt><trkpt lat="43.0464077" lon="12.2912753"><ele>231.66666666666666</ele><time>2026-05-02T07:52:52Z</time></trkpt><trkpt lat="43.0462537" lon="12.2912236"><ele>232.0</ele><time>2026-05-02T07:52:53Z</time></trkpt><trkpt lat="43.046114" lon="12.2911248"><ele>232.0</ele><time>2026-05-02T07:52:54Z</time></trkpt><trkpt lat="43.0459875" lon="12.291"><ele>232.0</ele><time>2026-05-02T07:52:55Z</time></trkpt><trkpt lat="43.0458585" lon="12.2908666"><ele>232.0</ele><time>2026-05-02T07:52:56Z</time></trkpt><trkpt lat="43.0457338" lon="12.2907247"><ele>232.33333333333331</ele><time>2026-05-02T07:52:57Z</time></trkpt><trkpt lat="43.0456036" lon="12.2906022"><ele>232.66666666666669</ele><time>2026-05-02T07:52:57.999Z</time></trkpt><trkpt lat="43.0454757" lon="12.2904826"><ele>233.0</ele><time>2026-05-02T07:52:59Z</time></trkpt><trkpt lat="43.0453418" lon="12.2903638"><ele>233.0</ele><time>2026-05-02T07:52:59.999Z</time></trkpt><trkpt lat="43.0452062" lon="12.290245"><ele>233.0</ele><time>2026-05-02T07:53:01Z</time></trkpt><trkpt lat="43.0450752" lon="12.2901131"><ele>233.0</ele><time>2026-05-02T07:53:01.999Z</time></trkpt><trkpt lat="43.044951" lon="12.28997"><ele>232.0</ele><time>2026-05-02T07:53:02.997Z</time></trkpt><trkpt lat="43.0448283" lon="12.289822"><ele>231.0</ele><time>2026-05-02T07:53:04Z</time></trkpt><trkpt lat="43.0447103" lon="12.2896712"><ele>230.0</ele><time>2026-05-02T07:53:05Z</time></trkpt><trkpt lat="43.0445945" lon="12.2895101"><ele>230.0</ele><time>2026-05-02T07:53:06Z</time></trkpt><trkpt lat="43.0444963" lon="12.289347"><ele>230.0</ele><time>2026-05-02T07:53:07Z</time></trkpt><trkpt lat="43.0443934" lon="12.2891785"><ele>230.0</ele><time>2026-05-02T07:53:08Z</time></trkpt><trkpt lat="43.044293" lon="12.2890124"><ele>230.33333333333334</ele><time>2026-05-02T07:53:09Z</time></trkpt><trkpt lat="43.0441798" lon="12.2888564"><ele>230.66666666666669</ele><time>2026-05-02T07:53:09.999Z</time></trkpt><trkpt lat="43.0440674" lon="12.2886954"><ele>231.0</ele><time>2026-05-02T07:53:11Z</time></trkpt><trkpt lat="43.0439576" lon="12.2885401"><ele>230.33333333333331</ele><time>2026-05-02T07:53:12Z</time></trkpt><trkpt lat="43.0438374" lon="12.2883955"><ele>229.66666666666666</ele><time>2026-05-02T07:53:12.999Z</time></trkpt><trkpt lat="43.0437179" lon="12.2882534"><ele>229.0</ele><time>2026-05-02T07:53:14Z</time></trkpt><trkpt lat="43.0435961" lon="12.2881168"><ele>228.66666666666666</ele><time>2026-05-02T07:53:15Z</time></trkpt><trkpt lat="43.0434645" lon="12.2879998"><ele>228.33333333333331</ele><time>2026-05-02T07:53:16Z</time></trkpt><trkpt lat="43.0433255" lon="12.287903"><ele>228.0</ele><time>2026-05-02T07:53:17Z</time></trkpt><trkpt lat="43.0431828" lon="12.2878181"><ele>228.0</ele><time>2026-05-02T07:53:18Z</time></trkpt><trkpt lat="43.0430391" lon="12.2877399"><ele>228.0</ele><time>2026-05-02T07:53:19Z</time></trkpt><trkpt lat="43.0428937" lon="12.2876493"><ele>228.0</ele><time>2026-05-02T07:53:19.999Z</time></trkpt><trkpt lat="43.0427402" lon="12.2875561"><ele>228.0</ele><time>2026-05-02T07:53:21Z</time></trkpt><trkpt lat="43.0425887" lon="12.287463"><ele>228.0</ele><time>2026-05-02T07:53:21.999Z</time></trkpt><trkpt lat="43.0424463" lon="12.287362"><ele>228.0</ele><time>2026-05-02T07:53:23Z</time></trkpt><trkpt lat="43.0422946" lon="12.2872646"><ele>228.66666666666669</ele><time>2026-05-02T07:53:24Z</time></trkpt><trkpt lat="43.0421411" lon="12.2871623"><ele>229.33333333333334</ele><time>2026-05-02T07:53:25Z</time></trkpt><trkpt lat="43.0419946" lon="12.2870508"><ele>230.0</ele><time>2026-05-02T07:53:26Z</time></trkpt><trkpt lat="43.041856" lon="12.2869277"><ele>230.0</ele><time>2026-05-02T07:53:26.999Z</time></trkpt><trkpt lat="43.0417158" lon="12.286802"><ele>230.0</ele><time>2026-05-02T07:53:28Z</time></trkpt><trkpt lat="43.0415813" lon="12.2866652"><ele>230.0</ele><time>2026-05-02T07:53:29Z</time></trkpt><trkpt lat="43.041455" lon="12.2865097"><ele>229.0</ele><time>2026-05-02T07:53:29.999Z</time></trkpt><trkpt lat="43.0413346" lon="12.2863446"><ele>228.0</ele><time>2026-05-02T07:53:31Z</time></trkpt><trkpt lat="43.0412203" lon="12.286161"><ele>227.0</ele><time>2026-05-02T07:53:32Z</time></trkpt><trkpt lat="43.0410974" lon="12.28598"><ele>227.0</ele><time>2026-05-02T07:53:33Z</time></trkpt><trkpt lat="43.0409762" lon="12.2857928"><ele>227.0</ele><time>2026-05-02T07:53:34Z</time></trkpt><trkpt lat="43.0408569" lon="12.2856063"><ele>227.0</ele><time>2026-05-02T07:53:35Z</time></trkpt><trkpt lat="43.0407396" lon="12.2854199"><ele>228.33333333333334</ele><time>2026-05-02T07:53:36Z</time></trkpt><trkpt lat="43.0406183" lon="12.2852363"><ele>229.66666666666669</ele><time>2026-05-02T07:53:37Z</time></trkpt><trkpt lat="43.0404972" lon="12.2850519"><ele>231.0</ele><time>2026-05-02T07:53:38Z</time></trkpt><trkpt lat="43.0403796" lon="12.2848736"><ele>233.0</ele><time>2026-05-02T07:53:38.999Z</time></trkpt><trkpt lat="43.0402632" lon="12.2846927"><ele>235.0</ele><time>2026-05-02T07:53:40Z</time></trkpt><trkpt lat="43.0401512" lon="12.2845079"><ele>237.0</ele><time>2026-05-02T07:53:40.999Z</time></trkpt><trkpt lat="43.0400325" lon="12.2843366"><ele>237.0</ele><time>2026-05-02T07:53:42Z</time></trkpt><trkpt lat="43.0399085" lon="12.2841682"><ele>237.0</ele><time>2026-05-02T07:53:43Z</time></trkpt><trkpt lat="43.0397921" lon="12.2840069"><ele>237.0</ele><time>2026-05-02T07:53:44Z</time></trkpt><trkpt lat="43.0396805" lon="12.2838318"><ele>237.0</ele><time>2026-05-02T07:53:44.999Z</time></trkpt><trkpt lat="43.0395664" lon="12.2836684"><ele>237.0</ele><time>2026-05-02T07:53:46Z</time></trkpt><trkpt lat="43.0394549" lon="12.2834986"><ele>237.0</ele><time>2026-05-02T07:53:47Z</time></trkpt><trkpt lat="43.0393464" lon="12.2833232"><ele>237.0</ele><time>2026-05-02T07:53:48Z</time></trkpt><trkpt lat="43.0392408" lon="12.2831436"><ele>237.0</ele><time>2026-05-02T07:53:49Z</time></trkpt><trkpt lat="43.0391384" lon="12.2829569"><ele>237.0</ele><time>2026-05-02T07:53:50Z</time></trkpt><trkpt lat="43.0390421" lon="12.2827581"><ele>234.0</ele><time>2026-05-02T07:53:51Z</time></trkpt><trkpt lat="43.0389595" lon="12.2825517"><ele>231.0</ele><time>2026-05-02T07:53:51.999Z</time></trkpt><trkpt lat="43.0388726" lon="12.2823383"><ele>228.0</ele><time>2026-05-02T07:53:53Z</time></trkpt><trkpt lat="43.0387833" lon="12.2821253"><ele>228.0</ele><time>2026-05-02T07:53:53.999Z</time></trkpt><trkpt lat="43.0386737" lon="12.2819311"><ele>228.0</ele><time>2026-05-02T07:53:55Z</time></trkpt><trkpt lat="43.0385589" lon="12.2817337"><ele>228.0</ele><time>2026-05-02T07:53:56Z</time></trkpt><trkpt lat="43.0384526" lon="12.2815401"><ele>228.66666666666669</ele><time>2026-05-02T07:53:57Z</time></trkpt><trkpt lat="43.0383486" lon="12.2813408"><ele>229.33333333333334</ele><time>2026-05-02T07:53:58Z</time></trkpt><trkpt lat="43.0382479" lon="12.2811397"><ele>230.0</ele><time>2026-05-02T07:53:59Z</time></trkpt><trkpt lat="43.0381409" lon="12.2809486"><ele>230.33333333333334</ele><time>2026-05-02T07:54:00Z</time></trkpt><trkpt lat="43.0380351" lon="12.2807627"><ele>230.66666666666669</ele><time>2026-05-02T07:54:00.999Z</time></trkpt><trkpt lat="43.0379128" lon="12.280597"><ele>231.0</ele><time>2026-05-02T07:54:02Z</time></trkpt><trkpt lat="43.0377771" lon="12.2804664"><ele>231.0</ele><time>2026-05-02T07:54:03Z</time></trkpt><trkpt lat="43.0376324" lon="12.2803492"><ele>231.0</ele><time>2026-05-02T07:54:04Z</time></trkpt><trkpt lat="43.0374939" lon="12.2802357"><ele>231.0</ele><time>2026-05-02T07:54:04.999Z</time></trkpt><trkpt lat="43.0373557" lon="12.2801199"><ele>230.0</ele><time>2026-05-02T07:54:06Z</time></trkpt><trkpt lat="43.0372201" lon="12.2800045"><ele>229.0</ele><time>2026-05-02T07:54:07Z</time></trkpt><trkpt lat="43.0370838" lon="12.2798902"><ele>228.0</ele><time>2026-05-02T07:54:08Z</time></trkpt><trkpt lat="43.0369488" lon="12.2797788"><ele>228.33333333333331</ele><time>2026-05-02T07:54:09Z</time></trkpt><trkpt lat="43.0368113" lon="12.2796729"><ele>228.66666666666666</ele><time>2026-05-02T07:54:10Z</time></trkpt><trkpt lat="43.03667" lon="12.2795725"><ele>229.0</ele><time>2026-05-02T07:54:11Z</time></trkpt><trkpt lat="43.0365303" lon="12.2794634"><ele>229.66666666666666</ele><time>2026-05-02T07:54:12Z</time></trkpt><trkpt lat="43.0363902" lon="12.2793424"><ele>230.33333333333331</ele><time>2026-05-02T07:54:13Z</time></trkpt><trkpt lat="43.0362615" lon="12.2792185"><ele>231.0</ele><time>2026-05-02T07:54:14Z</time></trkpt><trkpt lat="43.0361446" lon="12.279073"><ele>231.0</ele><time>2026-05-02T07:54:15Z</time></trkpt><trkpt lat="43.0360271" lon="12.2789205"><ele>231.0</ele><time>2026-05-02T07:54:16Z</time></trkpt><trkpt lat="43.0359158" lon="12.2787663"><ele>231.0</ele><time>2026-05-02T07:54:17Z</time></trkpt><trkpt lat="43.0357925" lon="12.2786291"><ele>231.0</ele><time>2026-05-02T07:54:18Z</time></trkpt><trkpt lat="43.035669" lon="12.2785005"><ele>231.0</ele><time>2026-05-02T07:54:19Z</time></trkpt><trkpt lat="43.0355457" lon="12.2783691"><ele>231.0</ele><time>2026-05-02T07:54:19.999Z</time></trkpt><trkpt lat="43.035413" lon="12.2782425"><ele>231.0</ele><time>2026-05-02T07:54:21Z</time></trkpt><trkpt lat="43.0352733" lon="12.2781223"><ele>231.0</ele><time>2026-05-02T07:54:22Z</time></trkpt><trkpt lat="43.035138" lon="12.2780013"><ele>231.0</ele><time>2026-05-02T07:54:23Z</time></trkpt><trkpt lat="43.0350038" lon="12.2778819"><ele>230.66666666666669</ele><time>2026-05-02T07:54:24Z</time></trkpt><trkpt lat="43.0348693" lon="12.2777531"><ele>230.33333333333334</ele><time>2026-05-02T07:54:24.999Z</time></trkpt><trkpt lat="43.0347369" lon="12.2776179"><ele>230.0</ele><time>2026-05-02T07:54:26Z</time></trkpt><trkpt lat="43.0346098" lon="12.2774685"><ele>230.0</ele><time>2026-05-02T07:54:27Z</time></trkpt><trkpt lat="43.0344875" lon="12.2773119"><ele>230.0</ele><time>2026-05-02T07:54:28Z</time></trkpt><trkpt lat="43.0343721" lon="12.2771499"><ele>230.0</ele><time>2026-05-02T07:54:29Z</time></trkpt><trkpt lat="43.0342479" lon="12.2769951"><ele>229.0</ele><time>2026-05-02T07:54:30Z</time></trkpt><trkpt lat="43.0341268" lon="12.2768366"><ele>228.0</ele><time>2026-05-02T07:54:31Z</time></trkpt><trkpt lat="43.0339978" lon="12.2766837"><ele>227.0</ele><time>2026-05-02T07:54:32Z</time></trkpt><trkpt lat="43.0338685" lon="12.2765339"><ele>227.0</ele><time>2026-05-02T07:54:33Z</time></trkpt><trkpt lat="43.0337388" lon="12.2763858"><ele>227.0</ele><time>2026-05-02T07:54:34Z</time></trkpt><trkpt lat="43.0336076" lon="12.2762357"><ele>227.0</ele><time>2026-05-02T07:54:35Z</time></trkpt><trkpt lat="43.0334763" lon="12.2760954"><ele>227.0</ele><time>2026-05-02T07:54:35.999Z</time></trkpt><trkpt lat="43.0333495" lon="12.2759502"><ele>227.0</ele><time>2026-05-02T07:54:37Z</time></trkpt><trkpt lat="43.0332263" lon="12.2757906"><ele>227.0</ele><time>2026-05-02T07:54:38Z</time></trkpt><trkpt lat="43.0331199" lon="12.2756217"><ele>227.0</ele><time>2026-05-02T07:54:39Z</time></trkpt><trkpt lat="43.0330233" lon="12.2754422"><ele>227.0</ele><time>2026-05-02T07:54:40Z</time></trkpt><trkpt lat="43.0329335" lon="12.2752618"><ele>227.0</ele><time>2026-05-02T07:54:41Z</time></trkpt><trkpt lat="43.0328382" lon="12.275079"><ele>227.0</ele><time>2026-05-02T07:54:42Z</time></trkpt><trkpt lat="43.0327459" lon="12.2749087"><ele>227.0</ele><time>2026-05-02T07:54:43Z</time></trkpt><trkpt lat="43.0326595" lon="12.2747424"><ele>227.0</ele><time>2026-05-02T07:54:44Z</time></trkpt><trkpt lat="43.0325801" lon="12.274582"><ele>227.0</ele><time>2026-05-02T07:54:45Z</time></trkpt><trkpt lat="43.0325059" lon="12.2744301"><ele>226.25</ele><time>2026-05-02T07:54:46Z</time></trkpt><trkpt lat="43.0324324" lon="12.2742895"><ele>225.5</ele><time>2026-05-02T07:54:47Z</time></trkpt><trkpt lat="43.0323468" lon="12.2741704"><ele>224.75</ele><time>2026-05-02T07:54:47.999Z</time></trkpt><trkpt lat="43.0322559" lon="12.2740702"><ele>224.0</ele><time>2026-05-02T07:54:49Z</time></trkpt><trkpt lat="43.0321636" lon="12.2739918"><ele>224.33333333333334</ele><time>2026-05-02T07:54:50Z</time></trkpt><trkpt lat="43.0320744" lon="12.2739176"><ele>224.66666666666669</ele><time>2026-05-02T07:54:50.999Z</time></trkpt><trkpt lat="43.0319944" lon="12.2738455"><ele>225.0</ele><time>2026-05-02T07:54:52Z</time></trkpt><trkpt lat="43.0319354" lon="12.2737603"><ele>225.33333333333331</ele><time>2026-05-02T07:54:53Z</time></trkpt><trkpt lat="43.0318858" lon="12.2736812"><ele>225.66666666666666</ele><time>2026-05-02T07:54:53.999Z</time></trkpt><trkpt lat="43.0318409" lon="12.2735978"><ele>226.0</ele><time>2026-05-02T07:54:55Z</time></trkpt><trkpt lat="43.0317993" lon="12.273518"><ele>226.0</ele><time>2026-05-02T07:54:55.999Z</time></trkpt><trkpt lat="43.031757" lon="12.2733783"><ele>226.00000000000003</ele><time>2026-05-02T07:54:58Z</time></trkpt><trkpt lat="43.0317324" lon="12.2732382"><ele>226.00000000000003</ele><time>2026-05-02T07:55:00Z</time></trkpt><trkpt lat="43.0317609" lon="12.2730896"><ele>226.0</ele><time>2026-05-02T07:55:02Z</time></trkpt><trkpt lat="43.031822" lon="12.2729987"><ele>226.0</ele><time>2026-05-02T07:55:04Z</time></trkpt><trkpt lat="43.0319077" lon="12.2728887"><ele>225.16666666666666</ele><time>2026-05-02T07:55:06Z</time></trkpt><trkpt lat="43.031975" lon="12.27282"><ele>224.33333333333331</ele><time>2026-05-02T07:55:07Z</time></trkpt><trkpt lat="43.0320421" lon="12.2727683"><ele>223.5</ele><time>2026-05-02T07:55:08Z</time></trkpt><trkpt lat="43.0320986" lon="12.2726874"><ele>222.66666666666669</ele><time>2026-05-02T07:55:09Z</time></trkpt><trkpt lat="43.0321463" lon="12.2725977"><ele>221.83333333333334</ele><time>2026-05-02T07:55:09.999Z</time></trkpt><trkpt lat="43.0321871" lon="12.2724927"><ele>221.0</ele><time>2026-05-02T07:55:11Z</time></trkpt><trkpt lat="43.032216" lon="12.272384"><ele>221.00000000000003</ele><time>2026-05-02T07:55:12Z</time></trkpt><trkpt lat="43.0322441" lon="12.2722761"><ele>221.0</ele><time>2026-05-02T07:55:13Z</time></trkpt><trkpt lat="43.0322727" lon="12.2721706"><ele>221.0</ele><time>2026-05-02T07:55:14Z</time></trkpt><trkpt lat="43.0322981" lon="12.2720566"><ele>221.0</ele><time>2026-05-02T07:55:15Z</time></trkpt><trkpt lat="43.0323238" lon="12.2719483"><ele>221.00000000000003</ele><time>2026-05-02T07:55:16Z</time></trkpt><trkpt lat="43.0323501" lon="12.2718389"><ele>221.0</ele><time>2026-05-02T07:55:17Z</time></trkpt><trkpt lat="43.0323792" lon="12.2717207"><ele>220.00000000000003</ele><time>2026-05-02T07:55:18Z</time></trkpt><trkpt lat="43.032409" lon="12.2715976"><ele>219.0</ele><time>2026-05-02T07:55:19Z</time></trkpt><trkpt lat="43.0324372" lon="12.2714687"><ele>218.0</ele><time>2026-05-02T07:55:19.999Z</time></trkpt><trkpt lat="43.032451" lon="12.2713484"><ele>217.0</ele><time>2026-05-02T07:55:21Z</time></trkpt><trkpt lat="43.0324763" lon="12.2712346"><ele>216.00000000000003</ele><time>2026-05-02T07:55:22Z</time></trkpt><trkpt lat="43.0325061" lon="12.271133"><ele>215.0</ele><time>2026-05-02T07:55:23Z</time></trkpt><trkpt lat="43.0325518" lon="12.2710437"><ele>215.00000000000003</ele><time>2026-05-02T07:55:24Z</time></trkpt><trkpt lat="43.0326172" lon="12.2709714"><ele>215.0</ele><time>2026-05-02T07:55:24.999Z</time></trkpt><trkpt lat="43.0326849" lon="12.2709149"><ele>215.0</ele><time>2026-05-02T07:55:26Z</time></trkpt><trkpt lat="43.0327528" lon="12.2708565"><ele>215.0</ele><time>2026-05-02T07:55:27Z</time></trkpt><trkpt lat="43.0328237" lon="12.2707728"><ele>215.00000000000003</ele><time>2026-05-02T07:55:27.999Z</time></trkpt><trkpt lat="43.0328848" lon="12.2706799"><ele>215.0</ele><time>2026-05-02T07:55:28.999Z</time></trkpt><trkpt lat="43.0329373" lon="12.2705804"><ele>214.2</ele><time>2026-05-02T07:55:30Z</time></trkpt><trkpt lat="43.032983" lon="12.2704829"><ele>213.4</ele><time>2026-05-02T07:55:31Z</time></trkpt><trkpt lat="43.0330337" lon="12.2703745"><ele>212.60000000000002</ele><time>2026-05-02T07:55:32Z</time></trkpt><trkpt lat="43.0330894" lon="12.2702465"><ele>211.8</ele><time>2026-05-02T07:55:32.999Z</time></trkpt><trkpt lat="43.0331497" lon="12.2701187"><ele>211.0</ele><time>2026-05-02T07:55:34Z</time></trkpt><trkpt lat="43.0332118" lon="12.2700006"><ele>211.0</ele><time>2026-05-02T07:55:35Z</time></trkpt><trkpt lat="43.0332761" lon="12.2698741"><ele>211.0</ele><time>2026-05-02T07:55:36Z</time></trkpt><trkpt lat="43.0333418" lon="12.2697524"><ele>211.0</ele><time>2026-05-02T07:55:37Z</time></trkpt><trkpt lat="43.033411" lon="12.269628"><ele>211.0</ele><time>2026-05-02T07:55:38Z</time></trkpt><trkpt lat="43.0334674" lon="12.2695161"><ele>211.0</ele><time>2026-05-02T07:55:38.999Z</time></trkpt><trkpt lat="43.03352" lon="12.2694003"><ele>210.83333333333331</ele><time>2026-05-02T07:55:40Z</time></trkpt><trkpt lat="43.0335691" lon="12.2692911"><ele>210.66666666666666</ele><time>2026-05-02T07:55:40.999Z</time></trkpt><trkpt lat="43.0336088" lon="12.2691859"><ele>210.5</ele><time>2026-05-02T07:55:42Z</time></trkpt><trkpt lat="43.0336454" lon="12.2690782"><ele>210.33333333333331</ele><time>2026-05-02T07:55:42.999Z</time></trkpt><trkpt lat="43.0336749" lon="12.2689797"><ele>210.16666666666666</ele><time>2026-05-02T07:55:44Z</time></trkpt><trkpt lat="43.0337063" lon="12.2688718"><ele>210.0</ele><time>2026-05-02T07:55:45Z</time></trkpt><trkpt lat="43.033738" lon="12.2687529"><ele>209.25</ele><time>2026-05-02T07:55:46Z</time></trkpt><trkpt lat="43.0337751" lon="12.2685954"><ele>208.5</ele><time>2026-05-02T07:55:47Z</time></trkpt><trkpt lat="43.0338287" lon="12.2683677"><ele>207.75</ele><time>2026-05-02T07:55:48Z</time></trkpt><trkpt lat="43.0338729" lon="12.2681719"><ele>207.0</ele><time>2026-05-02T07:55:49Z</time></trkpt><trkpt lat="43.0339239" lon="12.2679767"><ele>207.0</ele><time>2026-05-02T07:55:49.999Z</time></trkpt><trkpt lat="43.0339685" lon="12.2677792"><ele>207.0</ele><time>2026-05-02T07:55:50.999Z</time></trkpt><trkpt lat="43.0340096" lon="12.26758"><ele>207.0</ele><time>2026-05-02T07:55:52Z</time></trkpt><trkpt lat="43.0340203" lon="12.2673819"><ele>207.0</ele><time>2026-05-02T07:55:53Z</time></trkpt><trkpt lat="43.0340335" lon="12.267193"><ele>207.0</ele><time>2026-05-02T07:55:53.999Z</time></trkpt><trkpt lat="43.0340285" lon="12.266987"><ele>207.0</ele><time>2026-05-02T07:55:55Z</time></trkpt><trkpt lat="43.033987" lon="12.2667711"><ele>207.0</ele><time>2026-05-02T07:55:56Z</time></trkpt><trkpt lat="43.0339438" lon="12.2665565"><ele>207.33333333333331</ele><time>2026-05-02T07:55:57Z</time></trkpt><trkpt lat="43.0339142" lon="12.2663448"><ele>207.66666666666666</ele><time>2026-05-02T07:55:58Z</time></trkpt><trkpt lat="43.0338895" lon="12.2661352"><ele>208.0</ele><time>2026-05-02T07:55:59Z</time></trkpt><trkpt lat="43.0338557" lon="12.2659252"><ele>208.0</ele><time>2026-05-02T07:56:00Z</time></trkpt><trkpt lat="43.0338177" lon="12.2657157"><ele>208.0</ele><time>2026-05-02T07:56:01Z</time></trkpt><trkpt lat="43.0337871" lon="12.2654997"><ele>208.0</ele><time>2026-05-02T07:56:02Z</time></trkpt><trkpt lat="43.0337487" lon="12.2652776"><ele>207.66666666666666</ele><time>2026-05-02T07:56:03Z</time></trkpt><trkpt lat="43.0337176" lon="12.2650496"><ele>207.33333333333331</ele><time>2026-05-02T07:56:04Z</time></trkpt><trkpt lat="43.0336805" lon="12.2648322"><ele>207.0</ele><time>2026-05-02T07:56:05Z</time></trkpt><trkpt lat="43.033643" lon="12.2646054"><ele>206.66666666666669</ele><time>2026-05-02T07:56:06Z</time></trkpt><trkpt lat="43.033611" lon="12.2643785"><ele>206.33333333333334</ele><time>2026-05-02T07:56:07Z</time></trkpt><trkpt lat="43.0335754" lon="12.264173"><ele>206.0</ele><time>2026-05-02T07:56:08Z</time></trkpt><trkpt lat="43.0335375" lon="12.263967"><ele>206.5</ele><time>2026-05-02T07:56:09Z</time></trkpt><trkpt lat="43.03349" lon="12.2637647"><ele>207.0</ele><time>2026-05-02T07:56:10Z</time></trkpt><trkpt lat="43.0334394" lon="12.2635719"><ele>207.5</ele><time>2026-05-02T07:56:11Z</time></trkpt><trkpt lat="43.0334004" lon="12.263401"><ele>208.0</ele><time>2026-05-02T07:56:11.999Z</time></trkpt><trkpt lat="43.0333669" lon="12.2632719"><ele>207.99999999999997</ele><time>2026-05-02T07:56:13Z</time></trkpt><trkpt lat="43.0333434" lon="12.263183"><ele>208.0</ele><time>2026-05-02T07:56:14Z</time></trkpt><trkpt lat="43.0333101" lon="12.2630874"><ele>208.0</ele><time>2026-05-02T07:56:16Z</time></trkpt><trkpt lat="43.0332333" lon="12.2630873"><ele>208.0</ele><time>2026-05-02T07:56:18Z</time></trkpt><trkpt lat="43.0331215" lon="12.2630302"><ele>207.99999999999997</ele><time>2026-05-02T07:56:20Z</time></trkpt><trkpt lat="43.0330445" lon="12.2630038"><ele>208.0</ele><time>2026-05-02T07:56:21Z</time></trkpt><trkpt lat="43.032962" lon="12.2629649"><ele>208.2</ele><time>2026-05-02T07:56:21.999Z</time></trkpt><trkpt lat="43.0328754" lon="12.2629211"><ele>208.4</ele><time>2026-05-02T07:56:23Z</time></trkpt><trkpt lat="43.0327776" lon="12.2628742"><ele>208.6</ele><time>2026-05-02T07:56:24Z</time></trkpt><trkpt lat="43.0326873" lon="12.2628286"><ele>208.79999999999998</ele><time>2026-05-02T07:56:25Z</time></trkpt><trkpt lat="43.032594" lon="12.2627798"><ele>209.0</ele><time>2026-05-02T07:56:26Z</time></trkpt><trkpt lat="43.0325015" lon="12.2627286"><ele>208.6</ele><time>2026-05-02T07:56:27Z</time></trkpt><trkpt lat="43.0324131" lon="12.262679"><ele>208.2</ele><time>2026-05-02T07:56:27.999Z</time></trkpt><trkpt lat="43.0323232" lon="12.262629"><ele>207.79999999999998</ele><time>2026-05-02T07:56:29Z</time></trkpt><trkpt lat="43.0322263" lon="12.2625597"><ele>207.39999999999998</ele><time>2026-05-02T07:56:29.999Z</time></trkpt><trkpt lat="43.0321355" lon="12.26249"><ele>207.0</ele><time>2026-05-02T07:56:31Z</time></trkpt><trkpt lat="43.0320511" lon="12.26242"><ele>207.0</ele><time>2026-05-02T07:56:32Z</time></trkpt><trkpt lat="43.0319665" lon="12.2623558"><ele>207.0</ele><time>2026-05-02T07:56:33Z</time></trkpt><trkpt lat="43.031882" lon="12.2622894"><ele>207.0</ele><time>2026-05-02T07:56:33.999Z</time></trkpt><trkpt lat="43.0317997" lon="12.2622257"><ele>207.0</ele><time>2026-05-02T07:56:35Z</time></trkpt><trkpt lat="43.0317226" lon="12.2621608"><ele>207.0</ele><time>2026-05-02T07:56:35.999Z</time></trkpt><trkpt lat="43.0316527" lon="12.2620981"><ele>207.0</ele><time>2026-05-02T07:56:37Z</time></trkpt><trkpt lat="43.0315679" lon="12.2620255"><ele>207.0</ele><time>2026-05-02T07:56:38Z</time></trkpt><trkpt lat="43.0314803" lon="12.2619409"><ele>207.0</ele><time>2026-05-02T07:56:38.999Z</time></trkpt><trkpt lat="43.0313933" lon="12.2618568"><ele>207.0</ele><time>2026-05-02T07:56:40Z</time></trkpt><trkpt lat="43.0313161" lon="12.2617734"><ele>207.0</ele><time>2026-05-02T07:56:41Z</time></trkpt><trkpt lat="43.0312392" lon="12.2616929"><ele>207.0</ele><time>2026-05-02T07:56:42Z</time></trkpt><trkpt lat="43.0311624" lon="12.2616095"><ele>207.0</ele><time>2026-05-02T07:56:43Z</time></trkpt><trkpt lat="43.0310873" lon="12.2615278"><ele>207.0</ele><time>2026-05-02T07:56:44Z</time></trkpt><trkpt lat="43.0310117" lon="12.261442"><ele>207.0</ele><time>2026-05-02T07:56:45Z</time></trkpt><trkpt lat="43.0309305" lon="12.2613543"><ele>207.0</ele><time>2026-05-02T07:56:46Z</time></trkpt><trkpt lat="43.0308512" lon="12.2612658"><ele>207.0</ele><time>2026-05-02T07:56:47Z</time></trkpt><trkpt lat="43.0307743" lon="12.2611814"><ele>207.0</ele><time>2026-05-02T07:56:48Z</time></trkpt><trkpt lat="43.0306935" lon="12.2610976"><ele>207.0</ele><time>2026-05-02T07:56:49Z</time></trkpt><trkpt lat="43.0306171" lon="12.2610096"><ele>207.0</ele><time>2026-05-02T07:56:50Z</time></trkpt><trkpt lat="43.0305354" lon="12.260922"><ele>207.0</ele><time>2026-05-02T07:56:51Z</time></trkpt><trkpt lat="43.0304518" lon="12.2608326"><ele>207.0</ele><time>2026-05-02T07:56:52Z</time></trkpt><trkpt lat="43.030371" lon="12.2607397"><ele>207.0</ele><time>2026-05-02T07:56:53Z</time></trkpt><trkpt lat="43.030292" lon="12.2606531"><ele>207.0</ele><time>2026-05-02T07:56:54Z</time></trkpt><trkpt lat="43.0302123" lon="12.2605701"><ele>207.0</ele><time>2026-05-02T07:56:54.999Z</time></trkpt><trkpt lat="43.030138" lon="12.2604875"><ele>207.0</ele><time>2026-05-02T07:56:56Z</time></trkpt><trkpt lat="43.0300648" lon="12.2604126"><ele>207.33333333333334</ele><time>2026-05-02T07:56:57Z</time></trkpt><trkpt lat="43.0299978" lon="12.2603375"><ele>207.66666666666669</ele><time>2026-05-02T07:56:58Z</time></trkpt><trkpt lat="43.0299326" lon="12.2602689"><ele>208.0</ele><time>2026-05-02T07:56:59Z</time></trkpt><trkpt lat="43.0298655" lon="12.2601977"><ele>208.33333333333334</ele><time>2026-05-02T07:57:00Z</time></trkpt><trkpt lat="43.0298015" lon="12.2601204"><ele>208.66666666666669</ele><time>2026-05-02T07:57:01Z</time></trkpt><trkpt lat="43.0297256" lon="12.2600425"><ele>209.0</ele><time>2026-05-02T07:57:02Z</time></trkpt><trkpt lat="43.0296501" lon="12.2599566"><ele>209.2</ele><time>2026-05-02T07:57:03Z</time></trkpt><trkpt lat="43.0295768" lon="12.2598737"><ele>209.39999999999998</ele><time>2026-05-02T07:57:04Z</time></trkpt><trkpt lat="43.0295017" lon="12.2597876"><ele>209.6</ele><time>2026-05-02T07:57:05Z</time></trkpt><trkpt lat="43.0294345" lon="12.2597125"><ele>209.8</ele><time>2026-05-02T07:57:06Z</time></trkpt><trkpt lat="43.0293687" lon="12.2596355"><ele>210.0</ele><time>2026-05-02T07:57:06.999Z</time></trkpt><trkpt lat="43.0292969" lon="12.2595546"><ele>209.83333333333334</ele><time>2026-05-02T07:57:08Z</time></trkpt><trkpt lat="43.0292259" lon="12.2594839"><ele>209.66666666666669</ele><time>2026-05-02T07:57:09Z</time></trkpt><trkpt lat="43.0291613" lon="12.2594195"><ele>209.5</ele><time>2026-05-02T07:57:10Z</time></trkpt><trkpt lat="43.0291032" lon="12.2593557"><ele>209.33333333333334</ele><time>2026-05-02T07:57:10.999Z</time></trkpt><trkpt lat="43.0290158" lon="12.2592657"><ele>209.16666666666669</ele><time>2026-05-02T07:57:13Z</time></trkpt><trkpt lat="43.0289515" lon="12.2592373"><ele>209.0</ele><time>2026-05-02T07:57:15Z</time></trkpt><trkpt lat="43.028894" lon="12.2592895"><ele>209.00000000000003</ele><time>2026-05-02T07:57:17Z</time></trkpt><trkpt lat="43.0288297" lon="12.2594305"><ele>209.0</ele><time>2026-05-02T07:57:19Z</time></trkpt><trkpt lat="43.0287858" lon="12.259525"><ele>209.0</ele><time>2026-05-02T07:57:20Z</time></trkpt><trkpt lat="43.02874" lon="12.2596203"><ele>209.0</ele><time>2026-05-02T07:57:21Z</time></trkpt><trkpt lat="43.0286922" lon="12.2597093"><ele>209.00000000000003</ele><time>2026-05-02T07:57:22Z</time></trkpt><trkpt lat="43.0286369" lon="12.2597815"><ele>209.0</ele><time>2026-05-02T07:57:22.999Z</time></trkpt><trkpt lat="43.0285706" lon="12.2598389"><ele>209.00000000000003</ele><time>2026-05-02T07:57:24Z</time></trkpt><trkpt lat="43.0284963" lon="12.2598729"><ele>209.0</ele><time>2026-05-02T07:57:25Z</time></trkpt><trkpt lat="43.0284199" lon="12.2598965"><ele>209.0</ele><time>2026-05-02T07:57:26Z</time></trkpt><trkpt lat="43.0283488" lon="12.2599273"><ele>209.0</ele><time>2026-05-02T07:57:26.999Z</time></trkpt><trkpt lat="43.0282783" lon="12.2599729"><ele>209.00000000000003</ele><time>2026-05-02T07:57:28Z</time></trkpt><trkpt lat="43.028222" lon="12.2600346"><ele>209.0</ele><time>2026-05-02T07:57:29Z</time></trkpt><trkpt lat="43.0281716" lon="12.2601207"><ele>208.39999999999998</ele><time>2026-05-02T07:57:30Z</time></trkpt><trkpt lat="43.0281267" lon="12.2602246"><ele>207.8</ele><time>2026-05-02T07:57:31Z</time></trkpt><trkpt lat="43.028083" lon="12.2603369"><ele>207.2</ele><time>2026-05-02T07:57:32Z</time></trkpt><trkpt lat="43.028039" lon="12.2604535"><ele>206.60000000000002</ele><time>2026-05-02T07:57:33Z</time></trkpt><trkpt lat="43.0279918" lon="12.2605746"><ele>206.0</ele><time>2026-05-02T07:57:34Z</time></trkpt><trkpt lat="43.0279417" lon="12.2607017"><ele>206.0</ele><time>2026-05-02T07:57:35Z</time></trkpt><trkpt lat="43.0278946" lon="12.2608324"><ele>206.0</ele><time>2026-05-02T07:57:36Z</time></trkpt><trkpt lat="43.0278479" lon="12.2609649"><ele>206.0</ele><time>2026-05-02T07:57:36.999Z</time></trkpt><trkpt lat="43.0278022" lon="12.2610863"><ele>206.0</ele><time>2026-05-02T07:57:37.999Z</time></trkpt><trkpt lat="43.0277631" lon="12.2611975"><ele>206.0</ele><time>2026-05-02T07:57:39Z</time></trkpt><trkpt lat="43.0277256" lon="12.2613026"><ele>206.0</ele><time>2026-05-02T07:57:40Z</time></trkpt><trkpt lat="43.0276872" lon="12.2613994"><ele>206.0</ele><time>2026-05-02T07:57:41Z</time></trkpt><trkpt lat="43.0276518" lon="12.2614806"><ele>206.0</ele><time>2026-05-02T07:57:42Z</time></trkpt><trkpt lat="43.0275692" lon="12.2615657"><ele>206.0</ele><time>2026-05-02T07:57:44Z</time></trkpt><trkpt lat="43.0274481" lon="12.2615425"><ele>206.0</ele><time>2026-05-02T07:57:46Z</time></trkpt><trkpt lat="43.0273686" lon="12.2615042"><ele>206.00000000000003</ele><time>2026-05-02T07:57:47Z</time></trkpt><trkpt lat="43.0272888" lon="12.2614696"><ele>206.0</ele><time>2026-05-02T07:57:48Z</time></trkpt><trkpt lat="43.0272046" lon="12.2614433"><ele>206.0</ele><time>2026-05-02T07:57:49Z</time></trkpt><trkpt lat="43.0271302" lon="12.2614171"><ele>206.0</ele><time>2026-05-02T07:57:50Z</time></trkpt><trkpt lat="43.0270646" lon="12.2614"><ele>206.00000000000003</ele><time>2026-05-02T07:57:50.999Z</time></trkpt><trkpt lat="43.0269439" lon="12.2613729"><ele>206.0</ele><time>2026-05-02T07:57:52.999Z</time></trkpt><trkpt lat="43.0268746" lon="12.2613541"><ele>205.85714285714283</ele><time>2026-05-02T07:57:54Z</time></trkpt><trkpt lat="43.0268031" lon="12.2613304"><ele>205.71428571428572</ele><time>2026-05-02T07:57:55Z</time></trkpt><trkpt lat="43.0267313" lon="12.261307"><ele>205.57142857142856</ele><time>2026-05-02T07:57:56Z</time></trkpt><trkpt lat="43.0266621" lon="12.2612931"><ele>205.42857142857142</ele><time>2026-05-02T07:57:56.999Z</time></trkpt><trkpt lat="43.0265989" lon="12.261272"><ele>205.28571428571428</ele><time>2026-05-02T07:57:57.999Z</time></trkpt><trkpt lat="43.0265293" lon="12.2612473"><ele>205.14285714285714</ele><time>2026-05-02T07:57:59Z</time></trkpt><trkpt lat="43.0264531" lon="12.2612228"><ele>205.0</ele><time>2026-05-02T07:58:00Z</time></trkpt><trkpt lat="43.0263721" lon="12.2611977"><ele>204.85714285714286</ele><time>2026-05-02T07:58:00.999Z</time></trkpt><trkpt lat="43.0262994" lon="12.2611678"><ele>204.7142857142857</ele><time>2026-05-02T07:58:02Z</time></trkpt><trkpt lat="43.0262204" lon="12.2611451"><ele>204.57142857142856</ele><time>2026-05-02T07:58:03Z</time></trkpt><trkpt lat="43.0261453" lon="12.2611205"><ele>204.42857142857144</ele><time>2026-05-02T07:58:04Z</time></trkpt><trkpt lat="43.0260789" lon="12.2610943"><ele>204.28571428571428</ele><time>2026-05-02T07:58:05Z</time></trkpt><trkpt lat="43.0260082" lon="12.2610724"><ele>204.14285714285714</ele><time>2026-05-02T07:58:05.999Z</time></trkpt><trkpt lat="43.0259362" lon="12.2610527"><ele>204.0</ele><time>2026-05-02T07:58:07Z</time></trkpt><trkpt lat="43.0258693" lon="12.2610328"><ele>204.6</ele><time>2026-05-02T07:58:07.999Z</time></trkpt><trkpt lat="43.0258062" lon="12.2610137"><ele>205.2</ele><time>2026-05-02T07:58:09Z</time></trkpt><trkpt lat="43.0256983" lon="12.2609772"><ele>205.79999999999998</ele><time>2026-05-02T07:58:11Z</time></trkpt><trkpt lat="43.0255966" lon="12.2609426"><ele>206.39999999999998</ele><time>2026-05-02T07:58:12.999Z</time></trkpt><trkpt lat="43.0254855" lon="12.2609106"><ele>207.0</ele><time>2026-05-02T07:58:14.999Z</time></trkpt><trkpt lat="43.0253759" lon="12.2608822"><ele>207.0</ele><time>2026-05-02T07:58:17Z</time></trkpt><trkpt lat="43.0252605" lon="12.2608547"><ele>207.0</ele><time>2026-05-02T07:58:19Z</time></trkpt><trkpt lat="43.0251581" lon="12.2608204"><ele>207.0</ele><time>2026-05-02T07:58:21Z</time></trkpt><trkpt lat="43.0250642" lon="12.2607952"><ele>207.0</ele><time>2026-05-02T07:58:23Z</time></trkpt><trkpt lat="43.0249656" lon="12.2607671"><ele>207.0</ele><time>2026-05-02T07:58:25Z</time></trkpt><trkpt lat="43.0248612" lon="12.2607288"><ele>207.25</ele><time>2026-05-02T07:58:27Z</time></trkpt><trkpt lat="43.0247552" lon="12.2606965"><ele>207.5</ele><time>2026-05-02T07:58:29Z</time></trkpt><trkpt lat="43.0246404" lon="12.2606571"><ele>207.75</ele><time>2026-05-02T07:58:31Z</time></trkpt><trkpt lat="43.02453" lon="12.2606124"><ele>208.0</ele><time>2026-05-02T07:58:32.999Z</time></trkpt><trkpt lat="43.0243991" lon="12.2605895"><ele>207.8</ele><time>2026-05-02T07:58:35Z</time></trkpt><trkpt lat="43.0243253" lon="12.2605847"><ele>207.60000000000002</ele><time>2026-05-02T07:58:36Z</time></trkpt><trkpt lat="43.0242378" lon="12.2605927"><ele>207.39999999999998</ele><time>2026-05-02T07:58:37Z</time></trkpt><trkpt lat="43.0241376" lon="12.2605983"><ele>207.2</ele><time>2026-05-02T07:58:38Z</time></trkpt><trkpt lat="43.024037" lon="12.2606072"><ele>207.0</ele><time>2026-05-02T07:58:39Z</time></trkpt><trkpt lat="43.0239368" lon="12.2606188"><ele>206.6</ele><time>2026-05-02T07:58:40Z</time></trkpt><trkpt lat="43.0238298" lon="12.2606248"><ele>206.2</ele><time>2026-05-02T07:58:41Z</time></trkpt><trkpt lat="43.0237276" lon="12.2606256"><ele>205.8</ele><time>2026-05-02T07:58:41.999Z</time></trkpt><trkpt lat="43.0236247" lon="12.2606324"><ele>205.4</ele><time>2026-05-02T07:58:42.999Z</time></trkpt><trkpt lat="43.023538" lon="12.2606321"><ele>205.0</ele><time>2026-05-02T07:58:44Z</time></trkpt><trkpt lat="43.0234399" lon="12.260639"><ele>205.0</ele><time>2026-05-02T07:58:45Z</time></trkpt><trkpt lat="43.0233276" lon="12.2606455"><ele>205.0</ele><time>2026-05-02T07:58:46Z</time></trkpt><trkpt lat="43.0232255" lon="12.2606547"><ele>205.0</ele><time>2026-05-02T07:58:47Z</time></trkpt><trkpt lat="43.0231249" lon="12.2606608"><ele>205.0</ele><time>2026-05-02T07:58:47.999Z</time></trkpt><trkpt lat="43.0230337" lon="12.2606789"><ele>205.0</ele><time>2026-05-02T07:58:49Z</time></trkpt><trkpt lat="43.0229411" lon="12.2606836"><ele>205.33333333333331</ele><time>2026-05-02T07:58:50Z</time></trkpt><trkpt lat="43.0228497" lon="12.2606833"><ele>205.66666666666666</ele><time>2026-05-02T07:58:51Z</time></trkpt><trkpt lat="43.0227583" lon="12.2606897"><ele>206.0</ele><time>2026-05-02T07:58:52Z</time></trkpt><trkpt lat="43.0226651" lon="12.260687"><ele>206.33333333333331</ele><time>2026-05-02T07:58:53Z</time></trkpt><trkpt lat="43.0225844" lon="12.2606972"><ele>206.66666666666666</ele><time>2026-05-02T07:58:54Z</time></trkpt><trkpt lat="43.0225139" lon="12.260698"><ele>207.0</ele><time>2026-05-02T07:58:55Z</time></trkpt><trkpt lat="43.0224454" lon="12.2607015"><ele>207.0</ele><time>2026-05-02T07:58:56Z</time></trkpt><trkpt lat="43.0223367" lon="12.2607192"><ele>207.0</ele><time>2026-05-02T07:58:58Z</time></trkpt><trkpt lat="43.0222289" lon="12.2607269"><ele>207.0</ele><time>2026-05-02T07:58:59.999Z</time></trkpt><trkpt lat="43.0221568" lon="12.2607288"><ele>207.0</ele><time>2026-05-02T07:59:01Z</time></trkpt><trkpt lat="43.0220817" lon="12.2607332"><ele>207.0</ele><time>2026-05-02T07:59:02Z</time></trkpt><trkpt lat="43.0220129" lon="12.2607402"><ele>207.0</ele><time>2026-05-02T07:59:03Z</time></trkpt><trkpt lat="43.0219378" lon="12.2607441"><ele>207.0</ele><time>2026-05-02T07:59:04Z</time></trkpt><trkpt lat="43.0218535" lon="12.2607512"><ele>207.0</ele><time>2026-05-02T07:59:05Z</time></trkpt><trkpt lat="43.0217668" lon="12.2607604"><ele>207.0</ele><time>2026-05-02T07:59:05.999Z</time></trkpt><trkpt lat="43.0216749" lon="12.2607669"><ele>207.0</ele><time>2026-05-02T07:59:06.999Z</time></trkpt><trkpt lat="43.0215844" lon="12.2607735"><ele>207.0</ele><time>2026-05-02T07:59:07.999Z</time></trkpt><trkpt lat="43.0214912" lon="12.260786"><ele>207.0</ele><time>2026-05-02T07:59:09Z</time></trkpt><trkpt lat="43.0214119" lon="12.2607892"><ele>206.83333333333334</ele><time>2026-05-02T07:59:09.999Z</time></trkpt><trkpt lat="43.0213268" lon="12.2607894"><ele>206.66666666666669</ele><time>2026-05-02T07:59:11Z</time></trkpt><trkpt lat="43.0212462" lon="12.260789"><ele>206.5</ele><time>2026-05-02T07:59:12Z</time></trkpt><trkpt lat="43.0211668" lon="12.2607873"><ele>206.33333333333334</ele><time>2026-05-02T07:59:13Z</time></trkpt><trkpt lat="43.0210867" lon="12.2607926"><ele>206.16666666666669</ele><time>2026-05-02T07:59:14Z</time></trkpt><trkpt lat="43.0210197" lon="12.2607907"><ele>206.0</ele><time>2026-05-02T07:59:15Z</time></trkpt><trkpt lat="43.0209477" lon="12.260793"><ele>206.00000000000003</ele><time>2026-05-02T07:59:16Z</time></trkpt><trkpt lat="43.0208728" lon="12.2607973"><ele>206.0</ele><time>2026-05-02T07:59:17Z</time></trkpt><trkpt lat="43.0207541" lon="12.2607951"><ele>206.0</ele><time>2026-05-02T07:59:19Z</time></trkpt><trkpt lat="43.020684" lon="12.2607508"><ele>206.0</ele><time>2026-05-02T07:59:21Z</time></trkpt><trkpt lat="43.0206535" lon="12.2606231"><ele>206.00000000000003</ele><time>2026-05-02T07:59:23Z</time></trkpt><trkpt lat="43.0206498" lon="12.2605328"><ele>206.0</ele><time>2026-05-02T07:59:24Z</time></trkpt><trkpt lat="43.0206475" lon="12.2604302"><ele>205.8</ele><time>2026-05-02T07:59:25Z</time></trkpt><trkpt lat="43.020634" lon="12.2602528"><ele>205.60000000000002</ele><time>2026-05-02T07:59:27Z</time></trkpt><trkpt lat="43.0206304" lon="12.2601453"><ele>205.4</ele><time>2026-05-02T07:59:28Z</time></trkpt><trkpt lat="43.0206215" lon="12.2600342"><ele>205.2</ele><time>2026-05-02T07:59:29Z</time></trkpt><trkpt lat="43.0206068" lon="12.2599317"><ele>205.0</ele><time>2026-05-02T07:59:30Z</time></trkpt><trkpt lat="43.0206013" lon="12.2598141"><ele>205.2</ele><time>2026-05-02T07:59:31Z</time></trkpt><trkpt lat="43.0205945" lon="12.259687"><ele>205.4</ele><time>2026-05-02T07:59:32Z</time></trkpt><trkpt lat="43.0205848" lon="12.2595603"><ele>205.60000000000002</ele><time>2026-05-02T07:59:33Z</time></trkpt><trkpt lat="43.0205814" lon="12.2594355"><ele>205.8</ele><time>2026-05-02T07:59:34Z</time></trkpt><trkpt lat="43.0205813" lon="12.2593122"><ele>206.0</ele><time>2026-05-02T07:59:35Z</time></trkpt><trkpt lat="43.0205656" lon="12.2591903"><ele>206.0</ele><time>2026-05-02T07:59:36Z</time></trkpt><trkpt lat="43.0205577" lon="12.2590659"><ele>206.0</ele><time>2026-05-02T07:59:37Z</time></trkpt><trkpt lat="43.0205547" lon="12.2589372"><ele>206.0</ele><time>2026-05-02T07:59:38Z</time></trkpt><trkpt lat="43.0205514" lon="12.2588005"><ele>206.0</ele><time>2026-05-02T07:59:38.999Z</time></trkpt><trkpt lat="43.0205472" lon="12.2586689"><ele>206.0</ele><time>2026-05-02T07:59:39.999Z</time></trkpt><trkpt lat="43.0205444" lon="12.2585486"><ele>206.00000000000003</ele><time>2026-05-02T07:59:41Z</time></trkpt><trkpt lat="43.0205426" lon="12.2584297"><ele>206.0</ele><time>2026-05-02T07:59:42Z</time></trkpt><trkpt lat="43.0205403" lon="12.2583261"><ele>206.0</ele><time>2026-05-02T07:59:43Z</time></trkpt><trkpt lat="43.0205347" lon="12.258218"><ele>206.0</ele><time>2026-05-02T07:59:44Z</time></trkpt><trkpt lat="43.0205306" lon="12.2581226"><ele>206.00000000000003</ele><time>2026-05-02T07:59:45Z</time></trkpt><trkpt lat="43.0205271" lon="12.2580349"><ele>206.0</ele><time>2026-05-02T07:59:46Z</time></trkpt><trkpt lat="43.0205022" lon="12.257914"><ele>206.0</ele><time>2026-05-02T07:59:47.999Z</time></trkpt><trkpt lat="43.0204038" lon="12.2578284"><ele>206.0</ele><time>2026-05-02T07:59:50Z</time></trkpt><trkpt lat="43.0203288" lon="12.2577969"><ele>206.0</ele><time>2026-05-02T07:59:51Z</time></trkpt><trkpt lat="43.0202411" lon="12.2577459"><ele>206.0</ele><time>2026-05-02T07:59:52Z</time></trkpt><trkpt lat="43.0201454" lon="12.2576978"><ele>206.0</ele><time>2026-05-02T07:59:52.999Z</time></trkpt><trkpt lat="43.0200505" lon="12.2576495"><ele>206.0</ele><time>2026-05-02T07:59:54Z</time></trkpt><trkpt lat="43.0199608" lon="12.2576063"><ele>206.0</ele><time>2026-05-02T07:59:55Z</time></trkpt><trkpt lat="43.0198702" lon="12.2575619"><ele>206.0</ele><time>2026-05-02T07:59:56Z</time></trkpt><trkpt lat="43.0197666" lon="12.25752"><ele>206.0</ele><time>2026-05-02T07:59:57Z</time></trkpt><trkpt lat="43.0196589" lon="12.257465"><ele>206.0</ele><time>2026-05-02T07:59:58Z</time></trkpt><trkpt lat="43.0195666" lon="12.2574118"><ele>206.00000000000003</ele><time>2026-05-02T07:59:58.999Z</time></trkpt><trkpt lat="43.0194927" lon="12.2573695"><ele>206.0</ele><time>2026-05-02T08:00:00Z</time></trkpt><trkpt lat="43.019432" lon="12.2573462"><ele>206.0</ele><time>2026-05-02T08:00:01Z</time></trkpt><trkpt lat="43.019354" lon="12.2573062"><ele>206.0</ele><time>2026-05-02T08:00:02.999Z</time></trkpt><trkpt lat="43.0192661" lon="12.2572871"><ele>206.00000000000003</ele><time>2026-05-02T08:00:05Z</time></trkpt><trkpt lat="43.01918" lon="12.2573175"><ele>206.0</ele><time>2026-05-02T08:00:07Z</time></trkpt><trkpt lat="43.0190966" lon="12.2573804"><ele>206.20000000000002</ele><time>2026-05-02T08:00:08.999Z</time></trkpt><trkpt lat="43.0190073" lon="12.2574583"><ele>206.4</ele><time>2026-05-02T08:00:11Z</time></trkpt><trkpt lat="43.0188952" lon="12.2575392"><ele>206.6</ele><time>2026-05-02T08:00:13Z</time></trkpt><trkpt lat="43.0188371" lon="12.2575988"><ele>206.8</ele><time>2026-05-02T08:00:14Z</time></trkpt><trkpt lat="43.0187707" lon="12.2576709"><ele>207.0</ele><time>2026-05-02T08:00:15Z</time></trkpt><trkpt lat="43.0187088" lon="12.2577354"><ele>207.0</ele><time>2026-05-02T08:00:15.999Z</time></trkpt><trkpt lat="43.0186504" lon="12.2577968"><ele>207.0</ele><time>2026-05-02T08:00:17Z</time></trkpt><trkpt lat="43.0185901" lon="12.2578562"><ele>207.0</ele><time>2026-05-02T08:00:18Z</time></trkpt><trkpt lat="43.0185317" lon="12.2579131"><ele>207.0</ele><time>2026-05-02T08:00:19Z</time></trkpt><trkpt lat="43.0184783" lon="12.2579653"><ele>207.0</ele><time>2026-05-02T08:00:20Z</time></trkpt><trkpt lat="43.0183725" lon="12.2580742"><ele>207.0</ele><time>2026-05-02T08:00:21.999Z</time></trkpt><trkpt lat="43.0183195" lon="12.2581278"><ele>207.00000000000003</ele><time>2026-05-02T08:00:23Z</time></trkpt><trkpt lat="43.018262" lon="12.258184"><ele>207.0</ele><time>2026-05-02T08:00:24Z</time></trkpt><trkpt lat="43.0182085" lon="12.2582351"><ele>207.0</ele><time>2026-05-02T08:00:25Z</time></trkpt><trkpt lat="43.0181486" lon="12.2582749"><ele>207.0</ele><time>2026-05-02T08:00:26Z</time></trkpt><trkpt lat="43.0180614" lon="12.2582806"><ele>207.0</ele><time>2026-05-02T08:00:27.999Z</time></trkpt><trkpt lat="43.0180132" lon="12.2582035"><ele>207.00000000000003</ele><time>2026-05-02T08:00:31Z</time></trkpt><trkpt lat="43.0179958" lon="12.2580919"><ele>207.0</ele><time>2026-05-02T08:00:34.999Z</time></trkpt><trkpt lat="43.0179701" lon="12.2579992"><ele>207.0</ele><time>2026-05-02T08:00:38Z</time></trkpt><trkpt lat="43.0179341" lon="12.2578961"><ele>207.0</ele><time>2026-05-02T08:00:40Z</time></trkpt><trkpt lat="43.0178681" lon="12.2577644"><ele>207.0</ele><time>2026-05-02T08:00:42Z</time></trkpt><trkpt lat="43.017833" lon="12.2576467"><ele>207.0</ele><time>2026-05-02T08:00:44Z</time></trkpt><trkpt lat="43.0177673" lon="12.2575187"><ele>207.0</ele><time>2026-05-02T08:00:46Z</time></trkpt><trkpt lat="43.0177356" lon="12.2574407"><ele>207.0</ele><time>2026-05-02T08:00:47Z</time></trkpt><trkpt lat="43.0176744" lon="12.2573058"><ele>207.0</ele><time>2026-05-02T08:00:49Z</time></trkpt><trkpt lat="43.0176265" lon="12.2571884"><ele>207.0</ele><time>2026-05-02T08:00:51Z</time></trkpt><trkpt lat="43.0175884" lon="12.2571015"><ele>207.0</ele><time>2026-05-02T08:00:53Z</time></trkpt><trkpt lat="43.0175674" lon="12.2570145"><ele>207.0</ele><time>2026-05-02T08:00:55.999Z</time></trkpt><trkpt lat="43.017594" lon="12.2568968"><ele>207.0</ele><time>2026-05-02T08:00:58Z</time></trkpt><trkpt lat="43.0176162" lon="12.2567727"><ele>207.0</ele><time>2026-05-02T08:01:00Z</time></trkpt><trkpt lat="43.0175822" lon="12.256654"><ele>207.0</ele><time>2026-05-02T08:01:02Z</time></trkpt><trkpt lat="43.0174935" lon="12.2565897"><ele>207.0</ele><time>2026-05-02T08:01:04Z</time></trkpt><trkpt lat="43.017382" lon="12.2565657"><ele>207.0</ele><time>2026-05-02T08:01:06Z</time></trkpt><trkpt lat="43.0172966" lon="12.2564661"><ele>207.0</ele><time>2026-05-02T08:01:08Z</time></trkpt><trkpt lat="43.0172727" lon="12.2563707"><ele>207.2</ele><time>2026-05-02T08:01:09Z</time></trkpt><trkpt lat="43.0172567" lon="12.2562554"><ele>207.39999999999998</ele><time>2026-05-02T08:01:09.999Z</time></trkpt><trkpt lat="43.0172434" lon="12.2561152"><ele>207.60000000000002</ele><time>2026-05-02T08:01:11Z</time></trkpt><trkpt lat="43.0172295" lon="12.2559677"><ele>207.8</ele><time>2026-05-02T08:01:12Z</time></trkpt><trkpt lat="43.0172145" lon="12.2558055"><ele>208.0</ele><time>2026-05-02T08:01:13Z</time></trkpt><trkpt lat="43.0172016" lon="12.2556409"><ele>208.0</ele><time>2026-05-02T08:01:14Z</time></trkpt><trkpt lat="43.017181" lon="12.2554635"><ele>208.0</ele><time>2026-05-02T08:01:15Z</time></trkpt><trkpt lat="43.0171691" lon="12.2552673"><ele>208.0</ele><time>2026-05-02T08:01:16Z</time></trkpt><trkpt lat="43.0171535" lon="12.2550684"><ele>208.0</ele><time>2026-05-02T08:01:17Z</time></trkpt><trkpt lat="43.0171385" lon="12.2548643"><ele>208.0</ele><time>2026-05-02T08:01:18Z</time></trkpt><trkpt lat="43.0171325" lon="12.2546516"><ele>208.0</ele><time>2026-05-02T08:01:19Z</time></trkpt><trkpt lat="43.0171301" lon="12.2544391"><ele>208.0</ele><time>2026-05-02T08:01:20Z</time></trkpt><trkpt lat="43.017133" lon="12.2542293"><ele>208.0</ele><time>2026-05-02T08:01:21Z</time></trkpt><trkpt lat="43.0171368" lon="12.2540137"><ele>208.0</ele><time>2026-05-02T08:01:21.999Z</time></trkpt><trkpt lat="43.0171419" lon="12.2537962"><ele>208.0</ele><time>2026-05-02T08:01:23Z</time></trkpt><trkpt lat="43.0171483" lon="12.2535762"><ele>208.33333333333331</ele><time>2026-05-02T08:01:24Z</time></trkpt><trkpt lat="43.0171536" lon="12.2533597"><ele>208.66666666666669</ele><time>2026-05-02T08:01:25Z</time></trkpt><trkpt lat="43.0171613" lon="12.2531383"><ele>209.0</ele><time>2026-05-02T08:01:26Z</time></trkpt><trkpt lat="43.0171664" lon="12.2529177"><ele>209.0</ele><time>2026-05-02T08:01:27Z</time></trkpt><trkpt lat="43.0171739" lon="12.2526978"><ele>209.0</ele><time>2026-05-02T08:01:28Z</time></trkpt><trkpt lat="43.0171799" lon="12.2524719"><ele>209.0</ele><time>2026-05-02T08:01:29Z</time></trkpt><trkpt lat="43.0171858" lon="12.2522446"><ele>209.0</ele><time>2026-05-02T08:01:30Z</time></trkpt><trkpt lat="43.0171948" lon="12.2520243"><ele>209.0</ele><time>2026-05-02T08:01:31Z</time></trkpt><trkpt lat="43.0172045" lon="12.2518041"><ele>209.0</ele><time>2026-05-02T08:01:32Z</time></trkpt><trkpt lat="43.0172131" lon="12.2515862"><ele>209.0</ele><time>2026-05-02T08:01:33Z</time></trkpt><trkpt lat="43.0172178" lon="12.2513706"><ele>209.0</ele><time>2026-05-02T08:01:34Z</time></trkpt><trkpt lat="43.0172219" lon="12.2511581"><ele>209.0</ele><time>2026-05-02T08:01:35Z</time></trkpt><trkpt lat="43.017231" lon="12.2509432"><ele>209.0</ele><time>2026-05-02T08:01:36Z</time></trkpt><trkpt lat="43.0172445" lon="12.2507326"><ele>209.0</ele><time>2026-05-02T08:01:37Z</time></trkpt><trkpt lat="43.0172499" lon="12.2505303"><ele>209.0</ele><time>2026-05-02T08:01:38Z</time></trkpt><trkpt lat="43.0172586" lon="12.2503356"><ele>209.0</ele><time>2026-05-02T08:01:39Z</time></trkpt><trkpt lat="43.0172714" lon="12.2502158"><ele>209.0</ele><time>2026-05-02T08:01:39.999Z</time></trkpt><trkpt lat="43.0172838" lon="12.2501098"><ele>209.0</ele><time>2026-05-02T08:01:41Z</time></trkpt><trkpt lat="43.0172901" lon="12.2499492"><ele>209.0</ele><time>2026-05-02T08:01:43Z</time></trkpt><trkpt lat="43.0172627" lon="12.2498456"><ele>209.0</ele><time>2026-05-02T08:01:44.999Z</time></trkpt><trkpt lat="43.0171857" lon="12.2498116"><ele>209.0</ele><time>2026-05-02T08:01:47Z</time></trkpt><trkpt lat="43.0170704" lon="12.2498231"><ele>209.00000000000003</ele><time>2026-05-02T08:01:49Z</time></trkpt><trkpt lat="43.0169351" lon="12.2498423"><ele>209.0</ele><time>2026-05-02T08:01:51Z</time></trkpt><trkpt lat="43.0168483" lon="12.2498498"><ele>209.0</ele><time>2026-05-02T08:01:52Z</time></trkpt><trkpt lat="43.0167736" lon="12.249865"><ele>209.0</ele><time>2026-05-02T08:01:53Z</time></trkpt><trkpt lat="43.0167002" lon="12.2498759"><ele>209.00000000000003</ele><time>2026-05-02T08:01:54Z</time></trkpt><trkpt lat="43.0166376" lon="12.2498935"><ele>209.0</ele><time>2026-05-02T08:01:54.999Z</time></trkpt><trkpt lat="43.0165211" lon="12.2499418"><ele>209.0</ele><time>2026-05-02T08:01:57Z</time></trkpt><trkpt lat="43.0164157" lon="12.2500002"><ele>209.0</ele><time>2026-05-02T08:01:59Z</time></trkpt><trkpt lat="43.0163172" lon="12.2500325"><ele>209.0</ele><time>2026-05-02T08:02:01Z</time></trkpt><trkpt lat="43.0162093" lon="12.2500117"><ele>209.0</ele><time>2026-05-02T08:02:03Z</time></trkpt><trkpt lat="43.0161366" lon="12.2499025"><ele>209.0</ele><time>2026-05-02T08:02:04.999Z</time></trkpt><trkpt lat="43.0161273" lon="12.2497424"><ele>209.0</ele><time>2026-05-02T08:02:06.999Z</time></trkpt><trkpt lat="43.0161136" lon="12.2496263"><ele>209.0</ele><time>2026-05-02T08:02:08Z</time></trkpt><trkpt lat="43.016105" lon="12.2495036"><ele>209.0</ele><time>2026-05-02T08:02:09Z</time></trkpt><trkpt lat="43.0160975" lon="12.2493817"><ele>209.0</ele><time>2026-05-02T08:02:10Z</time></trkpt><trkpt lat="43.0160836" lon="12.2492534"><ele>209.0</ele><time>2026-05-02T08:02:10.999Z</time></trkpt><trkpt lat="43.0160735" lon="12.2491188"><ele>209.0</ele><time>2026-05-02T08:02:12Z</time></trkpt><trkpt lat="43.0160595" lon="12.2490023"><ele>209.0</ele><time>2026-05-02T08:02:12.999Z</time></trkpt><trkpt lat="43.0160409" lon="12.2488824"><ele>209.0</ele><time>2026-05-02T08:02:14Z</time></trkpt><trkpt lat="43.0160311" lon="12.2487697"><ele>209.0</ele><time>2026-05-02T08:02:14.999Z</time></trkpt><trkpt lat="43.015987" lon="12.2486546"><ele>209.0</ele><time>2026-05-02T08:02:16Z</time></trkpt><trkpt lat="43.0159441" lon="12.2485355"><ele>209.0</ele><time>2026-05-02T08:02:17Z</time></trkpt><trkpt lat="43.0159072" lon="12.2484182"><ele>209.0</ele><time>2026-05-02T08:02:18Z</time></trkpt><trkpt lat="43.0158657" lon="12.248295"><ele>209.0</ele><time>2026-05-02T08:02:19Z</time></trkpt><trkpt lat="43.0158133" lon="12.248177"><ele>209.0</ele><time>2026-05-02T08:02:20Z</time></trkpt><trkpt lat="43.0157595" lon="12.248057"><ele>209.0</ele><time>2026-05-02T08:02:21Z</time></trkpt><trkpt lat="43.0156953" lon="12.2479511"><ele>209.0</ele><time>2026-05-02T08:02:22Z</time></trkpt><trkpt lat="43.0156287" lon="12.2478346"><ele>209.0</ele><time>2026-05-02T08:02:23Z</time></trkpt><trkpt lat="43.0155643" lon="12.2477332"><ele>209.0</ele><time>2026-05-02T08:02:24Z</time></trkpt><trkpt lat="43.0154999" lon="12.2476353"><ele>209.0</ele><time>2026-05-02T08:02:25Z</time></trkpt><trkpt lat="43.0154314" lon="12.2475376"><ele>209.0</ele><time>2026-05-02T08:02:25.999Z</time></trkpt><trkpt lat="43.0153596" lon="12.247445"><ele>209.00000000000003</ele><time>2026-05-02T08:02:26.999Z</time></trkpt><trkpt lat="43.0152919" lon="12.2473492"><ele>209.0</ele><time>2026-05-02T08:02:28Z</time></trkpt><trkpt lat="43.0152254" lon="12.2472646"><ele>209.0</ele><time>2026-05-02T08:02:29Z</time></trkpt><trkpt lat="43.0151587" lon="12.2471831"><ele>209.0</ele><time>2026-05-02T08:02:29.999Z</time></trkpt><trkpt lat="43.0150935" lon="12.2471152"><ele>209.00000000000003</ele><time>2026-05-02T08:02:31Z</time></trkpt><trkpt lat="43.015034" lon="12.2470653"><ele>209.0</ele><time>2026-05-02T08:02:32Z</time></trkpt><trkpt lat="43.0149185" lon="12.2470579"><ele>209.28571428571428</ele><time>2026-05-02T08:02:34Z</time></trkpt><trkpt lat="43.0148574" lon="12.2470905"><ele>209.57142857142856</ele><time>2026-05-02T08:02:35Z</time></trkpt><trkpt lat="43.0147991" lon="12.2471379"><ele>209.85714285714286</ele><time>2026-05-02T08:02:36Z</time></trkpt><trkpt lat="43.0147328" lon="12.2472012"><ele>210.14285714285714</ele><time>2026-05-02T08:02:37Z</time></trkpt><trkpt lat="43.0146782" lon="12.2472674"><ele>210.42857142857144</ele><time>2026-05-02T08:02:38Z</time></trkpt><trkpt lat="43.0146345" lon="12.247347"><ele>210.71428571428572</ele><time>2026-05-02T08:02:39Z</time></trkpt><trkpt lat="43.0146024" lon="12.2474347"><ele>211.0</ele><time>2026-05-02T08:02:40Z</time></trkpt><trkpt lat="43.0145163" lon="12.2475693"><ele>211.71428571428572</ele><time>2026-05-02T08:02:42Z</time></trkpt><trkpt lat="43.0144532" lon="12.2476112"><ele>212.42857142857144</ele><time>2026-05-02T08:02:43Z</time></trkpt><trkpt lat="43.0143828" lon="12.2476297"><ele>213.14285714285714</ele><time>2026-05-02T08:02:44Z</time></trkpt><trkpt lat="43.0143052" lon="12.247625"><ele>213.85714285714286</ele><time>2026-05-02T08:02:45Z</time></trkpt><trkpt lat="43.014232" lon="12.2476158"><ele>214.57142857142856</ele><time>2026-05-02T08:02:46Z</time></trkpt><trkpt lat="43.0141597" lon="12.2476377"><ele>215.28571428571428</ele><time>2026-05-02T08:02:47Z</time></trkpt><trkpt lat="43.0140985" lon="12.247666"><ele>216.0</ele><time>2026-05-02T08:02:47.999Z</time></trkpt><trkpt lat="43.014041" lon="12.2477011"><ele>219.16666666666666</ele><time>2026-05-02T08:02:49Z</time></trkpt><trkpt lat="43.0139744" lon="12.2477324"><ele>222.33333333333331</ele><time>2026-05-02T08:02:50Z</time></trkpt><trkpt lat="43.013868" lon="12.2477585"><ele>225.5</ele><time>2026-05-02T08:02:52Z</time></trkpt><trkpt lat="43.0138181" lon="12.2476938"><ele>228.66666666666666</ele><time>2026-05-02T08:02:54Z</time></trkpt><trkpt lat="43.0137737" lon="12.2476021"><ele>231.83333333333331</ele><time>2026-05-02T08:02:56Z</time></trkpt><trkpt lat="43.0137202" lon="12.2474732"><ele>235.0</ele><time>2026-05-02T08:02:57.999Z</time></trkpt><trkpt lat="43.0136845" lon="12.2473928"><ele>237.0</ele><time>2026-05-02T08:02:59Z</time></trkpt><trkpt lat="43.013615" lon="12.2472765"><ele>239.0</ele><time>2026-05-02T08:03:00.999Z</time></trkpt><trkpt lat="43.0135261" lon="12.2472298"><ele>241.0</ele><time>2026-05-02T08:03:03Z</time></trkpt><trkpt lat="43.0134275" lon="12.2472431"><ele>243.0</ele><time>2026-05-02T08:03:05Z</time></trkpt><trkpt lat="43.0133075" lon="12.2473101"><ele>245.0</ele><time>2026-05-02T08:03:07Z</time></trkpt><trkpt lat="43.0132349" lon="12.2473608"><ele>245.00000000000003</ele><time>2026-05-02T08:03:08Z</time></trkpt><trkpt lat="43.0131597" lon="12.2473997"><ele>245.0</ele><time>2026-05-02T08:03:09Z</time></trkpt><trkpt lat="43.0130808" lon="12.2474272"><ele>245.0</ele><time>2026-05-02T08:03:10Z</time></trkpt><trkpt lat="43.0130135" lon="12.247453"><ele>245.0</ele><time>2026-05-02T08:03:10.999Z</time></trkpt><trkpt lat="43.0129376" lon="12.247443"><ele>245.00000000000003</ele><time>2026-05-02T08:03:12Z</time></trkpt><trkpt lat="43.0128629" lon="12.2474152"><ele>245.0</ele><time>2026-05-02T08:03:13Z</time></trkpt><trkpt lat="43.0127881" lon="12.2473739"><ele>245.00000000000003</ele><time>2026-05-02T08:03:14Z</time></trkpt><trkpt lat="43.0127206" lon="12.2473078"><ele>245.0</ele><time>2026-05-02T08:03:14.999Z</time></trkpt><trkpt lat="43.01265" lon="12.2472482"><ele>245.0</ele><time>2026-05-02T08:03:16Z</time></trkpt><trkpt lat="43.0125851" lon="12.2471799"><ele>245.0</ele><time>2026-05-02T08:03:16.999Z</time></trkpt><trkpt lat="43.0125242" lon="12.2471046"><ele>245.00000000000003</ele><time>2026-05-02T08:03:17.999Z</time></trkpt><trkpt lat="43.0124547" lon="12.247032"><ele>245.0</ele><time>2026-05-02T08:03:18.999Z</time></trkpt><trkpt lat="43.0123912" lon="12.2469643"><ele>247.33333333333334</ele><time>2026-05-02T08:03:20Z</time></trkpt><trkpt lat="43.0123231" lon="12.2469132"><ele>249.66666666666669</ele><time>2026-05-02T08:03:21Z</time></trkpt><trkpt lat="43.0122478" lon="12.246872"><ele>252.0</ele><time>2026-05-02T08:03:22Z</time></trkpt><trkpt lat="43.0121717" lon="12.246833"><ele>254.33333333333331</ele><time>2026-05-02T08:03:23Z</time></trkpt><trkpt lat="43.0121002" lon="12.2467901"><ele>256.66666666666663</ele><time>2026-05-02T08:03:24Z</time></trkpt><trkpt lat="43.012039" lon="12.2467374"><ele>259.0</ele><time>2026-05-02T08:03:25Z</time></trkpt><trkpt lat="43.011992" lon="12.2466581"><ele>259.0</ele><time>2026-05-02T08:03:26Z</time></trkpt><trkpt lat="43.0119394" lon="12.2465501"><ele>259.0</ele><time>2026-05-02T08:03:27Z</time></trkpt><trkpt lat="43.011882" lon="12.2464612"><ele>259.0</ele><time>2026-05-02T08:03:28Z</time></trkpt><trkpt lat="43.011822" lon="12.2463904"><ele>259.0</ele><time>2026-05-02T08:03:29Z</time></trkpt><trkpt lat="43.0117411" lon="12.2463254"><ele>259.0</ele><time>2026-05-02T08:03:29.999Z</time></trkpt><trkpt lat="43.0116782" lon="12.2462696"><ele>259.0</ele><time>2026-05-02T08:03:31Z</time></trkpt><trkpt lat="43.0116181" lon="12.2461908"><ele>261.66666666666663</ele><time>2026-05-02T08:03:32Z</time></trkpt><trkpt lat="43.0115538" lon="12.2461061"><ele>264.3333333333333</ele><time>2026-05-02T08:03:33Z</time></trkpt><trkpt lat="43.0114895" lon="12.2460286"><ele>267.0</ele><time>2026-05-02T08:03:34Z</time></trkpt><trkpt lat="43.0114299" lon="12.2459575"><ele>269.6666666666667</ele><time>2026-05-02T08:03:35Z</time></trkpt><trkpt lat="43.0113665" lon="12.2458828"><ele>272.33333333333337</ele><time>2026-05-02T08:03:36Z</time></trkpt><trkpt lat="43.0113031" lon="12.2458219"><ele>275.0</ele><time>2026-05-02T08:03:36.999Z</time></trkpt><trkpt lat="43.0112375" lon="12.2457674"><ele>275.0</ele><time>2026-05-02T08:03:37.999Z</time></trkpt><trkpt lat="43.0111753" lon="12.245722"><ele>275.0</ele><time>2026-05-02T08:03:38.999Z</time></trkpt><trkpt lat="43.0110754" lon="12.2456566"><ele>275.0</ele><time>2026-05-02T08:03:41Z</time></trkpt><trkpt lat="43.0109776" lon="12.2456409"><ele>275.0</ele><time>2026-05-02T08:03:43Z</time></trkpt><trkpt lat="43.0109163" lon="12.2456606"><ele>275.0</ele><time>2026-05-02T08:03:44Z</time></trkpt><trkpt lat="43.0108535" lon="12.245697"><ele>275.0</ele><time>2026-05-02T08:03:45Z</time></trkpt><trkpt lat="43.0107802" lon="12.2457444"><ele>276.33333333333337</ele><time>2026-05-02T08:03:46Z</time></trkpt><trkpt lat="43.0107134" lon="12.2457897"><ele>277.6666666666667</ele><time>2026-05-02T08:03:46.999Z</time></trkpt><trkpt lat="43.0106266" lon="12.2458388"><ele>279.0</ele><time>2026-05-02T08:03:48Z</time></trkpt><trkpt lat="43.0105474" lon="12.2458909"><ele>280.3333333333333</ele><time>2026-05-02T08:03:49Z</time></trkpt><trkpt lat="43.0104668" lon="12.2459476"><ele>281.66666666666663</ele><time>2026-05-02T08:03:49.999Z</time></trkpt><trkpt lat="43.0103941" lon="12.2460144"><ele>283.0</ele><time>2026-05-02T08:03:50.999Z</time></trkpt><trkpt lat="43.0102908" lon="12.2460838"><ele>283.0</ele><time>2026-05-02T08:03:53Z</time></trkpt><trkpt lat="43.0102179" lon="12.2460962"><ele>283.0</ele><time>2026-05-02T08:03:54Z</time></trkpt><trkpt lat="43.0101397" lon="12.246117"><ele>283.0</ele><time>2026-05-02T08:03:55Z</time></trkpt><trkpt lat="43.0100627" lon="12.2461419"><ele>283.0</ele><time>2026-05-02T08:03:56Z</time></trkpt><trkpt lat="43.0099723" lon="12.2461738"><ele>283.0</ele><time>2026-05-02T08:03:57Z</time></trkpt><trkpt lat="43.0098791" lon="12.2462063"><ele>283.0</ele><time>2026-05-02T08:03:58Z</time></trkpt><trkpt lat="43.0097851" lon="12.2462503"><ele>285.16666666666663</ele><time>2026-05-02T08:03:59Z</time></trkpt><trkpt lat="43.0096936" lon="12.2462762"><ele>287.3333333333333</ele><time>2026-05-02T08:04:00Z</time></trkpt><trkpt lat="43.0096011" lon="12.246295"><ele>289.5</ele><time>2026-05-02T08:04:01Z</time></trkpt><trkpt lat="43.0095091" lon="12.2463091"><ele>291.6666666666667</ele><time>2026-05-02T08:04:02Z</time></trkpt><trkpt lat="43.0094204" lon="12.2463061"><ele>293.83333333333337</ele><time>2026-05-02T08:04:03Z</time></trkpt><trkpt lat="43.0093442" lon="12.2462986"><ele>296.0</ele><time>2026-05-02T08:04:04Z</time></trkpt><trkpt lat="43.0092668" lon="12.2462738"><ele>296.0</ele><time>2026-05-02T08:04:05Z</time></trkpt><trkpt lat="43.0091796" lon="12.2461432"><ele>296.0</ele><time>2026-05-02T08:04:06.999Z</time></trkpt><trkpt lat="43.0091588" lon="12.2460539"><ele>296.0</ele><time>2026-05-02T08:04:08Z</time></trkpt><trkpt lat="43.0091289" lon="12.2459755"><ele>296.0</ele><time>2026-05-02T08:04:09Z</time></trkpt><trkpt lat="43.0090446" lon="12.2458701"><ele>296.0</ele><time>2026-05-02T08:04:10.999Z</time></trkpt><trkpt lat="43.0089585" lon="12.2458321"><ele>297.1666666666667</ele><time>2026-05-02T08:04:12Z</time></trkpt><trkpt lat="43.0089016" lon="12.245779"><ele>298.33333333333337</ele><time>2026-05-02T08:04:13Z</time></trkpt><trkpt lat="43.008846" lon="12.2457244"><ele>299.5</ele><time>2026-05-02T08:04:13.999Z</time></trkpt><trkpt lat="43.0088054" lon="12.2456217"><ele>300.6666666666667</ele><time>2026-05-02T08:04:14.999Z</time></trkpt><trkpt lat="43.0087567" lon="12.2455198"><ele>301.8333333333333</ele><time>2026-05-02T08:04:16Z</time></trkpt><trkpt lat="43.0087106" lon="12.2454248"><ele>303.0</ele><time>2026-05-02T08:04:17Z</time></trkpt><trkpt lat="43.0086644" lon="12.2453352"><ele>304.1666666666667</ele><time>2026-05-02T08:04:18Z</time></trkpt><trkpt lat="43.008612" lon="12.2452832"><ele>305.3333333333333</ele><time>2026-05-02T08:04:19Z</time></trkpt><trkpt lat="43.0085415" lon="12.2451912"><ele>306.5</ele><time>2026-05-02T08:04:21Z</time></trkpt><trkpt lat="43.008445" lon="12.2451342"><ele>307.66666666666663</ele><time>2026-05-02T08:04:23Z</time></trkpt><trkpt lat="43.0083784" lon="12.2451206"><ele>308.8333333333333</ele><time>2026-05-02T08:04:24Z</time></trkpt><trkpt lat="43.00831" lon="12.2451161"><ele>310.0</ele><time>2026-05-02T08:04:25Z</time></trkpt><trkpt lat="43.0082414" lon="12.2451214"><ele>310.8</ele><time>2026-05-02T08:04:25.999Z</time></trkpt><trkpt lat="43.0081115" lon="12.245176"><ele>311.6</ele><time>2026-05-02T08:04:28Z</time></trkpt><trkpt lat="43.008025" lon="12.2452252"><ele>312.4</ele><time>2026-05-02T08:04:29Z</time></trkpt><trkpt lat="43.0079328" lon="12.2452627"><ele>313.2</ele><time>2026-05-02T08:04:30Z</time></trkpt><trkpt lat="43.0078351" lon="12.2452857"><ele>314.0</ele><time>2026-05-02T08:04:31Z</time></trkpt><trkpt lat="43.0077415" lon="12.2452928"><ele>314.0</ele><time>2026-05-02T08:04:32Z</time></trkpt><trkpt lat="43.0076381" lon="12.2452918"><ele>314.0</ele><time>2026-05-02T08:04:33Z</time></trkpt><trkpt lat="43.0075313" lon="12.2452916"><ele>314.0</ele><time>2026-05-02T08:04:34Z</time></trkpt><trkpt lat="43.0074301" lon="12.2452886"><ele>314.0</ele><time>2026-05-02T08:04:35Z</time></trkpt><trkpt lat="43.0073249" lon="12.245282"><ele>314.0</ele><time>2026-05-02T08:04:36Z</time></trkpt><trkpt lat="43.0072204" lon="12.2452765"><ele>313.59999999999997</ele><time>2026-05-02T08:04:36.999Z</time></trkpt><trkpt lat="43.0071187" lon="12.245284"><ele>313.2</ele><time>2026-05-02T08:04:38Z</time></trkpt><trkpt lat="43.0070161" lon="12.2452975"><ele>312.79999999999995</ele><time>2026-05-02T08:04:39Z</time></trkpt><trkpt lat="43.0069085" lon="12.2453167"><ele>312.4</ele><time>2026-05-02T08:04:40Z</time></trkpt><trkpt lat="43.0067986" lon="12.2453332"><ele>312.0</ele><time>2026-05-02T08:04:41Z</time></trkpt><trkpt lat="43.0066824" lon="12.2453364"><ele>312.8</ele><time>2026-05-02T08:04:42Z</time></trkpt><trkpt lat="43.006573" lon="12.2453352"><ele>313.6</ele><time>2026-05-02T08:04:43Z</time></trkpt><trkpt lat="43.006476" lon="12.2453398"><ele>314.40000000000003</ele><time>2026-05-02T08:04:43.999Z</time></trkpt><trkpt lat="43.0063902" lon="12.2453502"><ele>315.2</ele><time>2026-05-02T08:04:45Z</time></trkpt><trkpt lat="43.0063132" lon="12.2453807"><ele>316.0</ele><time>2026-05-02T08:04:46Z</time></trkpt><trkpt lat="43.0062407" lon="12.2454237"><ele>316.0</ele><time>2026-05-02T08:04:47Z</time></trkpt><trkpt lat="43.0061653" lon="12.2454672"><ele>316.0</ele><time>2026-05-02T08:04:47.999Z</time></trkpt><trkpt lat="43.0060869" lon="12.2455109"><ele>316.0</ele><time>2026-05-02T08:04:49Z</time></trkpt><trkpt lat="43.0060085" lon="12.2455444"><ele>316.0</ele><time>2026-05-02T08:04:49.999Z</time></trkpt><trkpt lat="43.0059295" lon="12.2455692"><ele>316.0</ele><time>2026-05-02T08:04:50.999Z</time></trkpt><trkpt lat="43.0058403" lon="12.2455841"><ele>316.0</ele><time>2026-05-02T08:04:52Z</time></trkpt><trkpt lat="43.0057512" lon="12.2455981"><ele>315.6</ele><time>2026-05-02T08:04:52.999Z</time></trkpt><trkpt lat="43.0056546" lon="12.2456196"><ele>315.20000000000005</ele><time>2026-05-02T08:04:53.999Z</time></trkpt><trkpt lat="43.0055619" lon="12.2456393"><ele>314.79999999999995</ele><time>2026-05-02T08:04:55Z</time></trkpt><trkpt lat="43.0054677" lon="12.2456685"><ele>314.4</ele><time>2026-05-02T08:04:56Z</time></trkpt><trkpt lat="43.0053794" lon="12.245696"><ele>314.0</ele><time>2026-05-02T08:04:57Z</time></trkpt><trkpt lat="43.0052967" lon="12.24572"><ele>314.0</ele><time>2026-05-02T08:04:58Z</time></trkpt><trkpt lat="43.0052104" lon="12.2457439"><ele>314.0</ele><time>2026-05-02T08:04:59Z</time></trkpt><trkpt lat="43.0051121" lon="12.2457785"><ele>314.0</ele><time>2026-05-02T08:04:59.999Z</time></trkpt><trkpt lat="43.0050017" lon="12.2458231"><ele>314.0</ele><time>2026-05-02T08:05:01Z</time></trkpt><trkpt lat="43.0048932" lon="12.2458658"><ele>314.0</ele><time>2026-05-02T08:05:01.999Z</time></trkpt><trkpt lat="43.0047803" lon="12.24591"><ele>313.2</ele><time>2026-05-02T08:05:03Z</time></trkpt><trkpt lat="43.0046696" lon="12.245945"><ele>312.4</ele><time>2026-05-02T08:05:03.999Z</time></trkpt><trkpt lat="43.0045629" lon="12.2459786"><ele>311.6</ele><time>2026-05-02T08:05:05Z</time></trkpt><trkpt lat="43.0044614" lon="12.2460079"><ele>310.8</ele><time>2026-05-02T08:05:06Z</time></trkpt><trkpt lat="43.0043648" lon="12.2460403"><ele>310.0</ele><time>2026-05-02T08:05:07Z</time></trkpt><trkpt lat="43.004277" lon="12.2460732"><ele>310.0</ele><time>2026-05-02T08:05:08Z</time></trkpt><trkpt lat="43.0041874" lon="12.2461097"><ele>310.0</ele><time>2026-05-02T08:05:09Z</time></trkpt><trkpt lat="43.0040875" lon="12.2461337"><ele>310.0</ele><time>2026-05-02T08:05:10Z</time></trkpt><trkpt lat="43.0039825" lon="12.2461381"><ele>310.0</ele><time>2026-05-02T08:05:11Z</time></trkpt><trkpt lat="43.0038703" lon="12.2461438"><ele>310.0</ele><time>2026-05-02T08:05:12Z</time></trkpt><trkpt lat="43.0037628" lon="12.2461616"><ele>311.6</ele><time>2026-05-02T08:05:13Z</time></trkpt><trkpt lat="43.0036609" lon="12.2461828"><ele>313.2</ele><time>2026-05-02T08:05:13.999Z</time></trkpt><trkpt lat="43.0035672" lon="12.2462129"><ele>314.8</ele><time>2026-05-02T08:05:15Z</time></trkpt><trkpt lat="43.0034753" lon="12.2462386"><ele>316.4</ele><time>2026-05-02T08:05:15.999Z</time></trkpt><trkpt lat="43.0033875" lon="12.2462387"><ele>318.0</ele><time>2026-05-02T08:05:16.999Z</time></trkpt><trkpt lat="43.0032985" lon="12.2462106"><ele>318.2</ele><time>2026-05-02T08:05:18Z</time></trkpt><trkpt lat="43.0032122" lon="12.2461781"><ele>318.4</ele><time>2026-05-02T08:05:19Z</time></trkpt><trkpt lat="43.0031318" lon="12.2461538"><ele>318.59999999999997</ele><time>2026-05-02T08:05:20Z</time></trkpt><trkpt lat="43.0030482" lon="12.2461255"><ele>318.8</ele><time>2026-05-02T08:05:21Z</time></trkpt><trkpt lat="43.0029533" lon="12.2460837"><ele>319.0</ele><time>2026-05-02T08:05:21.999Z</time></trkpt><trkpt lat="43.0028498" lon="12.2460384"><ele>319.0</ele><time>2026-05-02T08:05:23Z</time></trkpt><trkpt lat="43.0027449" lon="12.245994"><ele>319.0</ele><time>2026-05-02T08:05:24Z</time></trkpt><trkpt lat="43.0026472" lon="12.2459606"><ele>319.0</ele><time>2026-05-02T08:05:25Z</time></trkpt><trkpt lat="43.002552" lon="12.245942"><ele>319.0</ele><time>2026-05-02T08:05:26Z</time></trkpt><trkpt lat="43.0024529" lon="12.2459381"><ele>319.0</ele><time>2026-05-02T08:05:27Z</time></trkpt><trkpt lat="43.0023555" lon="12.2459475"><ele>320.4</ele><time>2026-05-02T08:05:28Z</time></trkpt><trkpt lat="43.0022614" lon="12.245984"><ele>321.79999999999995</ele><time>2026-05-02T08:05:29Z</time></trkpt><trkpt lat="43.002169" lon="12.2460397"><ele>323.20000000000005</ele><time>2026-05-02T08:05:30Z</time></trkpt><trkpt lat="43.0020792" lon="12.2461087"><ele>324.6</ele><time>2026-05-02T08:05:31Z</time></trkpt><trkpt lat="43.0020002" lon="12.2461915"><ele>326.0</ele><time>2026-05-02T08:05:32Z</time></trkpt><trkpt lat="43.0019259" lon="12.2462631"><ele>326.0</ele><time>2026-05-02T08:05:33Z</time></trkpt><trkpt lat="43.0018508" lon="12.2463288"><ele>326.0</ele><time>2026-05-02T08:05:33.999Z</time></trkpt><trkpt lat="43.0017781" lon="12.2463763"><ele>326.0</ele><time>2026-05-02T08:05:35Z</time></trkpt><trkpt lat="43.0016971" lon="12.2464165"><ele>326.0</ele><time>2026-05-02T08:05:36Z</time></trkpt><trkpt lat="43.0016067" lon="12.2464496"><ele>326.0</ele><time>2026-05-02T08:05:37Z</time></trkpt><trkpt lat="43.0015147" lon="12.2464842"><ele>326.0</ele><time>2026-05-02T08:05:38Z</time></trkpt><trkpt lat="43.0014145" lon="12.2465243"><ele>325.20000000000005</ele><time>2026-05-02T08:05:38.999Z</time></trkpt><trkpt lat="43.0013255" lon="12.2465616"><ele>324.40000000000003</ele><time>2026-05-02T08:05:39.999Z</time></trkpt><trkpt lat="43.0012329" lon="12.2465986"><ele>323.6</ele><time>2026-05-02T08:05:40.999Z</time></trkpt><trkpt lat="43.0011285" lon="12.2466257"><ele>322.8</ele><time>2026-05-02T08:05:42Z</time></trkpt><trkpt lat="43.0010157" lon="12.2466474"><ele>322.0</ele><time>2026-05-02T08:05:42.999Z</time></trkpt><trkpt lat="43.0009024" lon="12.2466707"><ele>322.0</ele><time>2026-05-02T08:05:44Z</time></trkpt><trkpt lat="43.0007768" lon="12.2466964"><ele>322.0</ele><time>2026-05-02T08:05:45Z</time></trkpt><trkpt lat="43.0006526" lon="12.2467206"><ele>322.0</ele><time>2026-05-02T08:05:46Z</time></trkpt><trkpt lat="43.0005399" lon="12.2467461"><ele>322.0</ele><time>2026-05-02T08:05:47Z</time></trkpt><trkpt lat="43.000435" lon="12.2467609"><ele>322.0</ele><time>2026-05-02T08:05:47.999Z</time></trkpt><trkpt lat="43.0003363" lon="12.246762"><ele>322.0</ele><time>2026-05-02T08:05:49Z</time></trkpt><trkpt lat="43.0002515" lon="12.2467445"><ele>322.0</ele><time>2026-05-02T08:05:50Z</time></trkpt><trkpt lat="43.0001701" lon="12.2466961"><ele>322.0</ele><time>2026-05-02T08:05:51Z</time></trkpt><trkpt lat="43.0000705" lon="12.2466471"><ele>322.0</ele><time>2026-05-02T08:05:52Z</time></trkpt><trkpt lat="42.9999821" lon="12.2465965"><ele>322.0</ele><time>2026-05-02T08:05:53Z</time></trkpt><trkpt lat="42.9998938" lon="12.2465504"><ele>322.0</ele><time>2026-05-02T08:05:53.999Z</time></trkpt><trkpt lat="42.9998211" lon="12.2465092"><ele>322.0</ele><time>2026-05-02T08:05:54.999Z</time></trkpt><trkpt lat="42.999758" lon="12.2464656"><ele>322.0</ele><time>2026-05-02T08:05:56Z</time></trkpt><trkpt lat="42.9997071" lon="12.2463999"><ele>322.0</ele><time>2026-05-02T08:05:57Z</time></trkpt><trkpt lat="42.9996627" lon="12.2463202"><ele>322.0</ele><time>2026-05-02T08:05:58Z</time></trkpt><trkpt lat="42.9996144" lon="12.2462501"><ele>321.0</ele><time>2026-05-02T08:05:59Z</time></trkpt><trkpt lat="42.9995198" lon="12.246152"><ele>320.0</ele><time>2026-05-02T08:06:01Z</time></trkpt><trkpt lat="42.9994163" lon="12.2461147"><ele>319.0</ele><time>2026-05-02T08:06:03Z</time></trkpt><trkpt lat="42.9992942" lon="12.2461447"><ele>318.0</ele><time>2026-05-02T08:06:05Z</time></trkpt><trkpt lat="42.9992079" lon="12.2461782"><ele>317.0</ele><time>2026-05-02T08:06:06Z</time></trkpt><trkpt lat="42.9991096" lon="12.2461948"><ele>320.0</ele><time>2026-05-02T08:06:06.999Z</time></trkpt><trkpt lat="42.9989825" lon="12.2462113"><ele>323.0</ele><time>2026-05-02T08:06:08Z</time></trkpt><trkpt lat="42.9988324" lon="12.2462232"><ele>326.0</ele><time>2026-05-02T08:06:09Z</time></trkpt><trkpt lat="42.9986822" lon="12.2462342"><ele>329.0</ele><time>2026-05-02T08:06:10Z</time></trkpt><trkpt lat="42.9985353" lon="12.2462344"><ele>329.0</ele><time>2026-05-02T08:06:11Z</time></trkpt><trkpt lat="42.9983839" lon="12.2462496"><ele>329.0</ele><time>2026-05-02T08:06:11.999Z</time></trkpt><trkpt lat="42.9982515" lon="12.2462816"><ele>329.0</ele><time>2026-05-02T08:06:13Z</time></trkpt><trkpt lat="42.9981411" lon="12.2462992"><ele>329.0</ele><time>2026-05-02T08:06:14Z</time></trkpt><trkpt lat="42.9980411" lon="12.246311"><ele>329.0</ele><time>2026-05-02T08:06:14.999Z</time></trkpt><trkpt lat="42.9979357" lon="12.2462957"><ele>329.0</ele><time>2026-05-02T08:06:16Z</time></trkpt><trkpt lat="42.997815" lon="12.2462753"><ele>329.0</ele><time>2026-05-02T08:06:17Z</time></trkpt><trkpt lat="42.9976838" lon="12.246255"><ele>329.0</ele><time>2026-05-02T08:06:18Z</time></trkpt><trkpt lat="42.9975632" lon="12.2462332"><ele>330.2</ele><time>2026-05-02T08:06:19Z</time></trkpt><trkpt lat="42.9974584" lon="12.246206"><ele>331.4</ele><time>2026-05-02T08:06:20Z</time></trkpt><trkpt lat="42.9973482" lon="12.2461696"><ele>332.6</ele><time>2026-05-02T08:06:21Z</time></trkpt><trkpt lat="42.9972521" lon="12.2461289"><ele>333.8</ele><time>2026-05-02T08:06:22Z</time></trkpt><trkpt lat="42.9971539" lon="12.2460693"><ele>335.0</ele><time>2026-05-02T08:06:22.999Z</time></trkpt><trkpt lat="42.9970505" lon="12.2459988"><ele>335.0</ele><time>2026-05-02T08:06:23.999Z</time></trkpt><trkpt lat="42.9969448" lon="12.2459346"><ele>335.0</ele><time>2026-05-02T08:06:25Z</time></trkpt><trkpt lat="42.9968443" lon="12.2458648"><ele>335.0</ele><time>2026-05-02T08:06:25.999Z</time></trkpt><trkpt lat="42.9967453" lon="12.2457884"><ele>335.0</ele><time>2026-05-02T08:06:27Z</time></trkpt><trkpt lat="42.9966553" lon="12.2457019"><ele>333.0</ele><time>2026-05-02T08:06:27.999Z</time></trkpt><trkpt lat="42.9965612" lon="12.2456019"><ele>331.0</ele><time>2026-05-02T08:06:28.999Z</time></trkpt><trkpt lat="42.9964683" lon="12.2455101"><ele>329.0</ele><time>2026-05-02T08:06:30Z</time></trkpt><trkpt lat="42.9963668" lon="12.2454167"><ele>327.0</ele><time>2026-05-02T08:06:31Z</time></trkpt><trkpt lat="42.9962824" lon="12.245323"><ele>327.0</ele><time>2026-05-02T08:06:32Z</time></trkpt><trkpt lat="42.996201" lon="12.2452435"><ele>327.0</ele><time>2026-05-02T08:06:33Z</time></trkpt><trkpt lat="42.9961316" lon="12.2451534"><ele>327.0</ele><time>2026-05-02T08:06:34Z</time></trkpt><trkpt lat="42.9960717" lon="12.2450654"><ele>327.0</ele><time>2026-05-02T08:06:35Z</time></trkpt><trkpt lat="42.9960151" lon="12.2449794"><ele>327.0</ele><time>2026-05-02T08:06:35.999Z</time></trkpt><trkpt lat="42.9959522" lon="12.24491"><ele>327.0</ele><time>2026-05-02T08:06:37Z</time></trkpt><trkpt lat="42.9958735" lon="12.2448503"><ele>327.6</ele><time>2026-05-02T08:06:38Z</time></trkpt><trkpt lat="42.9957872" lon="12.2447956"><ele>328.20000000000005</ele><time>2026-05-02T08:06:39Z</time></trkpt><trkpt lat="42.9957006" lon="12.2447385"><ele>328.8</ele><time>2026-05-02T08:06:40Z</time></trkpt><trkpt lat="42.9956011" lon="12.2446774"><ele>329.4</ele><time>2026-05-02T08:06:41Z</time></trkpt><trkpt lat="42.9955086" lon="12.244612"><ele>330.0</ele><time>2026-05-02T08:06:42Z</time></trkpt><trkpt lat="42.995425" lon="12.2445492"><ele>330.0</ele><time>2026-05-02T08:06:43Z</time></trkpt><trkpt lat="42.9953351" lon="12.2444909"><ele>330.0</ele><time>2026-05-02T08:06:43.999Z</time></trkpt><trkpt lat="42.9952362" lon="12.244439"><ele>330.0</ele><time>2026-05-02T08:06:44.999Z</time></trkpt><trkpt lat="42.9951348" lon="12.2443902"><ele>330.0</ele><time>2026-05-02T08:06:46Z</time></trkpt><trkpt lat="42.9950271" lon="12.2443562"><ele>330.0</ele><time>2026-05-02T08:06:47Z</time></trkpt><trkpt lat="42.9949262" lon="12.2443335"><ele>331.6666666666667</ele><time>2026-05-02T08:06:48Z</time></trkpt><trkpt lat="42.9948327" lon="12.2443114"><ele>333.3333333333333</ele><time>2026-05-02T08:06:49Z</time></trkpt><trkpt lat="42.9947539" lon="12.2443018"><ele>335.0</ele><time>2026-05-02T08:06:50Z</time></trkpt><trkpt lat="42.9946719" lon="12.2443179"><ele>336.66666666666663</ele><time>2026-05-02T08:06:51Z</time></trkpt><trkpt lat="42.99459" lon="12.2443413"><ele>338.3333333333333</ele><time>2026-05-02T08:06:52Z</time></trkpt><trkpt lat="42.9944927" lon="12.2443581"><ele>340.0</ele><time>2026-05-02T08:06:53Z</time></trkpt><trkpt lat="42.9943906" lon="12.2443564"><ele>340.0</ele><time>2026-05-02T08:06:54Z</time></trkpt><trkpt lat="42.9942963" lon="12.2443645"><ele>340.0</ele><time>2026-05-02T08:06:55Z</time></trkpt><trkpt lat="42.9942192" lon="12.2443728"><ele>340.0</ele><time>2026-05-02T08:06:56Z</time></trkpt><trkpt lat="42.994149" lon="12.2443639"><ele>340.0</ele><time>2026-05-02T08:06:56.999Z</time></trkpt><trkpt lat="42.9940862" lon="12.2443418"><ele>340.0</ele><time>2026-05-02T08:06:57.999Z</time></trkpt><trkpt lat="42.9940177" lon="12.2442843"><ele>340.0</ele><time>2026-05-02T08:06:59Z</time></trkpt><trkpt lat="42.9939503" lon="12.244233"><ele>339.5</ele><time>2026-05-02T08:07:00Z</time></trkpt><trkpt lat="42.9938625" lon="12.2441966"><ele>339.0</ele><time>2026-05-02T08:07:01Z</time></trkpt><trkpt lat="42.9937619" lon="12.2441717"><ele>338.5</ele><time>2026-05-02T08:07:02Z</time></trkpt><trkpt lat="42.9936342" lon="12.2441469"><ele>338.0</ele><time>2026-05-02T08:07:03Z</time></trkpt><trkpt lat="42.993501" lon="12.2441192"><ele>338.0</ele><time>2026-05-02T08:07:04Z</time></trkpt><trkpt lat="42.9933859" lon="12.2440896"><ele>338.0</ele><time>2026-05-02T08:07:05Z</time></trkpt><trkpt lat="42.9932958" lon="12.2440536"><ele>338.0</ele><time>2026-05-02T08:07:06Z</time></trkpt><trkpt lat="42.99322" lon="12.2440066"><ele>338.0</ele><time>2026-05-02T08:07:06.999Z</time></trkpt><trkpt lat="42.9931472" lon="12.2439519"><ele>338.0</ele><time>2026-05-02T08:07:07.999Z</time></trkpt><trkpt lat="42.9930753" lon="12.2438963"><ele>336.42857142857144</ele><time>2026-05-02T08:07:09Z</time></trkpt><trkpt lat="42.9929993" lon="12.243847"><ele>334.85714285714283</ele><time>2026-05-02T08:07:10Z</time></trkpt><trkpt lat="42.9929293" lon="12.2438037"><ele>333.2857142857143</ele><time>2026-05-02T08:07:11Z</time></trkpt><trkpt lat="42.9928552" lon="12.2437685"><ele>331.7142857142857</ele><time>2026-05-02T08:07:11.999Z</time></trkpt><trkpt lat="42.9927827" lon="12.243742"><ele>330.14285714285717</ele><time>2026-05-02T08:07:13Z</time></trkpt><trkpt lat="42.9927167" lon="12.2437263"><ele>328.57142857142856</ele><time>2026-05-02T08:07:13.999Z</time></trkpt><trkpt lat="42.9926525" lon="12.2437028"><ele>327.0</ele><time>2026-05-02T08:07:15Z</time></trkpt><trkpt lat="42.9925806" lon="12.2436788"><ele>326.8</ele><time>2026-05-02T08:07:15.999Z</time></trkpt><trkpt lat="42.9924947" lon="12.2436468"><ele>326.6</ele><time>2026-05-02T08:07:17Z</time></trkpt><trkpt lat="42.9924026" lon="12.2436026"><ele>326.40000000000003</ele><time>2026-05-02T08:07:17.999Z</time></trkpt><trkpt lat="42.9923038" lon="12.2435565"><ele>326.20000000000005</ele><time>2026-05-02T08:07:19Z</time></trkpt><trkpt lat="42.9921982" lon="12.243505"><ele>326.0</ele><time>2026-05-02T08:07:20Z</time></trkpt><trkpt lat="42.9920979" lon="12.2434458"><ele>326.0</ele><time>2026-05-02T08:07:21Z</time></trkpt><trkpt lat="42.9919917" lon="12.2433956"><ele>326.0</ele><time>2026-05-02T08:07:22Z</time></trkpt><trkpt lat="42.9918882" lon="12.2433314"><ele>326.0</ele><time>2026-05-02T08:07:23Z</time></trkpt><trkpt lat="42.9917647" lon="12.2432809"><ele>326.0</ele><time>2026-05-02T08:07:24Z</time></trkpt><trkpt lat="42.9916472" lon="12.2432381"><ele>325.0</ele><time>2026-05-02T08:07:25Z</time></trkpt><trkpt lat="42.9915432" lon="12.2431871"><ele>324.0</ele><time>2026-05-02T08:07:26Z</time></trkpt><trkpt lat="42.9914375" lon="12.2431522"><ele>323.0</ele><time>2026-05-02T08:07:27Z</time></trkpt><trkpt lat="42.9913557" lon="12.2431069"><ele>322.0</ele><time>2026-05-02T08:07:28Z</time></trkpt><trkpt lat="42.9912873" lon="12.2430677"><ele>321.0</ele><time>2026-05-02T08:07:29Z</time></trkpt><trkpt lat="42.9911899" lon="12.2429877"><ele>320.8333333333333</ele><time>2026-05-02T08:07:31Z</time></trkpt><trkpt lat="42.9911166" lon="12.242978"><ele>320.6666666666667</ele><time>2026-05-02T08:07:33Z</time></trkpt><trkpt lat="42.9909948" lon="12.2429645"><ele>320.5</ele><time>2026-05-02T08:07:35Z</time></trkpt><trkpt lat="42.9909239" lon="12.2429524"><ele>320.33333333333337</ele><time>2026-05-02T08:07:35.999Z</time></trkpt><trkpt lat="42.9908514" lon="12.2429316"><ele>320.1666666666667</ele><time>2026-05-02T08:07:37Z</time></trkpt><trkpt lat="42.9907614" lon="12.2429111"><ele>320.0</ele><time>2026-05-02T08:07:38Z</time></trkpt><trkpt lat="42.9906674" lon="12.2428851"><ele>320.0</ele><time>2026-05-02T08:07:39Z</time></trkpt><trkpt lat="42.9905841" lon="12.2428503"><ele>320.0</ele><time>2026-05-02T08:07:39.999Z</time></trkpt><trkpt lat="42.9904984" lon="12.2428064"><ele>320.0</ele><time>2026-05-02T08:07:41Z</time></trkpt><trkpt lat="42.9904289" lon="12.2427398"><ele>320.0</ele><time>2026-05-02T08:07:41.999Z</time></trkpt><trkpt lat="42.9903593" lon="12.2426344"><ele>320.0</ele><time>2026-05-02T08:07:42.999Z</time></trkpt><trkpt lat="42.9902711" lon="12.2425043"><ele>320.0</ele><time>2026-05-02T08:07:44Z</time></trkpt><trkpt lat="42.9901884" lon="12.2423833"><ele>320.0</ele><time>2026-05-02T08:07:45Z</time></trkpt><trkpt lat="42.9901243" lon="12.2422882"><ele>320.0</ele><time>2026-05-02T08:07:46Z</time></trkpt><trkpt lat="42.9900696" lon="12.2422221"><ele>320.0</ele><time>2026-05-02T08:07:47Z</time></trkpt><trkpt lat="42.989964" lon="12.2421836"><ele>320.0</ele><time>2026-05-02T08:07:49Z</time></trkpt><trkpt lat="42.9898498" lon="12.2422595"><ele>320.8</ele><time>2026-05-02T08:07:51Z</time></trkpt><trkpt lat="42.9897858" lon="12.2423382"><ele>321.6</ele><time>2026-05-02T08:07:52Z</time></trkpt><trkpt lat="42.9897239" lon="12.2424266"><ele>322.4</ele><time>2026-05-02T08:07:53Z</time></trkpt><trkpt lat="42.989658" lon="12.2425061"><ele>323.2</ele><time>2026-05-02T08:07:53.999Z</time></trkpt><trkpt lat="42.989583" lon="12.2425851"><ele>324.0</ele><time>2026-05-02T08:07:55Z</time></trkpt><trkpt lat="42.989504" lon="12.2426583"><ele>324.0</ele><time>2026-05-02T08:07:56Z</time></trkpt><trkpt lat="42.9894324" lon="12.2427148"><ele>324.0</ele><time>2026-05-02T08:07:57Z</time></trkpt><trkpt lat="42.9893661" lon="12.242751"><ele>324.0</ele><time>2026-05-02T08:07:57.999Z</time></trkpt><trkpt lat="42.9892937" lon="12.2427713"><ele>324.0</ele><time>2026-05-02T08:07:58.999Z</time></trkpt><trkpt lat="42.9892211" lon="12.2427897"><ele>324.0</ele><time>2026-05-02T08:08:00Z</time></trkpt><trkpt lat="42.9891289" lon="12.2428092"><ele>324.0</ele><time>2026-05-02T08:08:00.999Z</time></trkpt><trkpt lat="42.9890418" lon="12.242828"><ele>322.59999999999997</ele><time>2026-05-02T08:08:02Z</time></trkpt><trkpt lat="42.9889645" lon="12.2428467"><ele>321.2</ele><time>2026-05-02T08:08:02.999Z</time></trkpt><trkpt lat="42.9888968" lon="12.2428514"><ele>319.79999999999995</ele><time>2026-05-02T08:08:04Z</time></trkpt><trkpt lat="42.988784" lon="12.2428267"><ele>318.4</ele><time>2026-05-02T08:08:05.999Z</time></trkpt><trkpt lat="42.9887005" lon="12.2427295"><ele>317.0</ele><time>2026-05-02T08:08:08Z</time></trkpt><trkpt lat="42.9886936" lon="12.2426128"><ele>317.0</ele><time>2026-05-02T08:08:10Z</time></trkpt><trkpt lat="42.9887375" lon="12.2424406"><ele>317.0</ele><time>2026-05-02T08:08:12Z</time></trkpt><trkpt lat="42.9887432" lon="12.2422903"><ele>317.0</ele><time>2026-05-02T08:08:14Z</time></trkpt><trkpt lat="42.9886843" lon="12.2421581"><ele>317.0</ele><time>2026-05-02T08:08:16Z</time></trkpt><trkpt lat="42.9885603" lon="12.2420851"><ele>318.0</ele><time>2026-05-02T08:08:18Z</time></trkpt><trkpt lat="42.9884755" lon="12.2420624"><ele>319.0</ele><time>2026-05-02T08:08:19Z</time></trkpt><trkpt lat="42.9883854" lon="12.242016"><ele>320.0</ele><time>2026-05-02T08:08:20Z</time></trkpt><trkpt lat="42.9882903" lon="12.2419703"><ele>321.0</ele><time>2026-05-02T08:08:21Z</time></trkpt><trkpt lat="42.9882121" lon="12.2419339"><ele>322.0</ele><time>2026-05-02T08:08:21.999Z</time></trkpt><trkpt lat="42.9881419" lon="12.2419178"><ele>323.0</ele><time>2026-05-02T08:08:23Z</time></trkpt><trkpt lat="42.9880139" lon="12.2419438"><ele>323.0</ele><time>2026-05-02T08:08:25Z</time></trkpt><trkpt lat="42.987941" lon="12.2419747"><ele>323.0</ele><time>2026-05-02T08:08:26Z</time></trkpt><trkpt lat="42.9878559" lon="12.2420075"><ele>323.0</ele><time>2026-05-02T08:08:26.999Z</time></trkpt><trkpt lat="42.9877605" lon="12.2420379"><ele>323.0</ele><time>2026-05-02T08:08:28Z</time></trkpt><trkpt lat="42.9876696" lon="12.2420624"><ele>323.0</ele><time>2026-05-02T08:08:29Z</time></trkpt><trkpt lat="42.9875787" lon="12.2420898"><ele>323.0</ele><time>2026-05-02T08:08:30Z</time></trkpt><trkpt lat="42.9875032" lon="12.2421178"><ele>324.4</ele><time>2026-05-02T08:08:31Z</time></trkpt><trkpt lat="42.9874159" lon="12.2421661"><ele>325.79999999999995</ele><time>2026-05-02T08:08:32Z</time></trkpt><trkpt lat="42.9873332" lon="12.2422152"><ele>327.2</ele><time>2026-05-02T08:08:33Z</time></trkpt><trkpt lat="42.9872485" lon="12.2422734"><ele>328.6</ele><time>2026-05-02T08:08:34Z</time></trkpt><trkpt lat="42.9871716" lon="12.2423269"><ele>330.0</ele><time>2026-05-02T08:08:35Z</time></trkpt><trkpt lat="42.9870853" lon="12.2423827"><ele>331.6</ele><time>2026-05-02T08:08:36Z</time></trkpt><trkpt lat="42.9870129" lon="12.242433"><ele>333.2</ele><time>2026-05-02T08:08:37Z</time></trkpt><trkpt lat="42.9869441" lon="12.2424554"><ele>334.79999999999995</ele><time>2026-05-02T08:08:38Z</time></trkpt><trkpt lat="42.986863" lon="12.2424658"><ele>336.4</ele><time>2026-05-02T08:08:39Z</time></trkpt><trkpt lat="42.9867093" lon="12.2424613"><ele>338.0</ele><time>2026-05-02T08:08:41Z</time></trkpt><trkpt lat="42.9866371" lon="12.2424321"><ele>339.1666666666667</ele><time>2026-05-02T08:08:42Z</time></trkpt><trkpt lat="42.9865655" lon="12.2424035"><ele>340.33333333333337</ele><time>2026-05-02T08:08:43Z</time></trkpt><trkpt lat="42.9864996" lon="12.2423903"><ele>341.5</ele><time>2026-05-02T08:08:44Z</time></trkpt><trkpt lat="42.9864256" lon="12.2423687"><ele>342.6666666666667</ele><time>2026-05-02T08:08:44.999Z</time></trkpt><trkpt lat="42.9863433" lon="12.24234"><ele>343.8333333333333</ele><time>2026-05-02T08:08:46Z</time></trkpt><trkpt lat="42.9862699" lon="12.2423067"><ele>345.0</ele><time>2026-05-02T08:08:47Z</time></trkpt><trkpt lat="42.986192" lon="12.2422725"><ele>345.0</ele><time>2026-05-02T08:08:47.999Z</time></trkpt><trkpt lat="42.9861186" lon="12.2422404"><ele>345.0</ele><time>2026-05-02T08:08:49Z</time></trkpt><trkpt lat="42.986046" lon="12.2422152"><ele>345.0</ele><time>2026-05-02T08:08:50Z</time></trkpt><trkpt lat="42.9859611" lon="12.2421872"><ele>345.0</ele><time>2026-05-02T08:08:51Z</time></trkpt><trkpt lat="42.9858769" lon="12.2421563"><ele>345.0</ele><time>2026-05-02T08:08:52Z</time></trkpt><trkpt lat="42.9857918" lon="12.2421256"><ele>345.0</ele><time>2026-05-02T08:08:52.999Z</time></trkpt><trkpt lat="42.9857087" lon="12.2420796"><ele>347.8333333333333</ele><time>2026-05-02T08:08:54Z</time></trkpt><trkpt lat="42.9856296" lon="12.2420337"><ele>350.6666666666667</ele><time>2026-05-02T08:08:55Z</time></trkpt><trkpt lat="42.9855515" lon="12.2419913"><ele>353.5</ele><time>2026-05-02T08:08:56Z</time></trkpt><trkpt lat="42.9854686" lon="12.2419456"><ele>356.33333333333337</ele><time>2026-05-02T08:08:57Z</time></trkpt><trkpt lat="42.985396" lon="12.2419006"><ele>359.1666666666667</ele><time>2026-05-02T08:08:58Z</time></trkpt><trkpt lat="42.9853254" lon="12.2418464"><ele>362.0</ele><time>2026-05-02T08:08:59Z</time></trkpt><trkpt lat="42.9852569" lon="12.2417982"><ele>362.0</ele><time>2026-05-02T08:09:00Z</time></trkpt><trkpt lat="42.9851917" lon="12.2417543"><ele>362.0</ele><time>2026-05-02T08:09:01Z</time></trkpt><trkpt lat="42.9851214" lon="12.2417118"><ele>362.0</ele><time>2026-05-02T08:09:02Z</time></trkpt><trkpt lat="42.9850552" lon="12.2416677"><ele>362.0</ele><time>2026-05-02T08:09:03Z</time></trkpt><trkpt lat="42.9849887" lon="12.2416313"><ele>362.0</ele><time>2026-05-02T08:09:04Z</time></trkpt><trkpt lat="42.9849372" lon="12.2415812"><ele>362.0</ele><time>2026-05-02T08:09:04.999Z</time></trkpt><trkpt lat="42.9848749" lon="12.2415143"><ele>362.0</ele><time>2026-05-02T08:09:06Z</time></trkpt><trkpt lat="42.9848124" lon="12.2414502"><ele>365.0</ele><time>2026-05-02T08:09:07Z</time></trkpt><trkpt lat="42.9847414" lon="12.2413851"><ele>368.0</ele><time>2026-05-02T08:09:08Z</time></trkpt><trkpt lat="42.9846636" lon="12.2413187"><ele>371.0</ele><time>2026-05-02T08:09:09Z</time></trkpt><trkpt lat="42.9845789" lon="12.2412646"><ele>374.0</ele><time>2026-05-02T08:09:10Z</time></trkpt><trkpt lat="42.9844878" lon="12.2412017"><ele>377.0</ele><time>2026-05-02T08:09:11Z</time></trkpt><trkpt lat="42.9843967" lon="12.2411532"><ele>377.0</ele><time>2026-05-02T08:09:12Z</time></trkpt><trkpt lat="42.9843179" lon="12.2411172"><ele>377.0</ele><time>2026-05-02T08:09:13Z</time></trkpt><trkpt lat="42.9842463" lon="12.2410795"><ele>377.0</ele><time>2026-05-02T08:09:14Z</time></trkpt><trkpt lat="42.9841734" lon="12.2410268"><ele>377.0</ele><time>2026-05-02T08:09:14.999Z</time></trkpt><trkpt lat="42.9841036" lon="12.2409654"><ele>377.0</ele><time>2026-05-02T08:09:16Z</time></trkpt><trkpt lat="42.984035" lon="12.2408922"><ele>377.0</ele><time>2026-05-02T08:09:17Z</time></trkpt><trkpt lat="42.9839754" lon="12.24082"><ele>377.6666666666667</ele><time>2026-05-02T08:09:18Z</time></trkpt><trkpt lat="42.9839235" lon="12.2407581"><ele>378.33333333333337</ele><time>2026-05-02T08:09:19Z</time></trkpt><trkpt lat="42.9838468" lon="12.2406616"><ele>379.0</ele><time>2026-05-02T08:09:21Z</time></trkpt><trkpt lat="42.9838128" lon="12.2405118"><ele>379.6666666666667</ele><time>2026-05-02T08:09:23Z</time></trkpt><trkpt lat="42.9837957" lon="12.2404126"><ele>380.3333333333333</ele><time>2026-05-02T08:09:25Z</time></trkpt><trkpt lat="42.9837718" lon="12.2403009"><ele>381.0</ele><time>2026-05-02T08:09:27Z</time></trkpt><trkpt lat="42.9837295" lon="12.2402067"><ele>381.0</ele><time>2026-05-02T08:09:29Z</time></trkpt><trkpt lat="42.9836665" lon="12.2401538"><ele>381.0</ele><time>2026-05-02T08:09:31Z</time></trkpt><trkpt lat="42.9836014" lon="12.2401229"><ele>381.0</ele><time>2026-05-02T08:09:33Z</time></trkpt><trkpt lat="42.9835375" lon="12.2401279"><ele>381.0</ele><time>2026-05-02T08:11:02Z</time></trkpt><trkpt lat="42.9834737" lon="12.2401149"><ele>381.0</ele><time>2026-05-02T08:11:24Z</time></trkpt><trkpt lat="42.9834017" lon="12.2401007"><ele>381.0</ele><time>2026-05-02T08:11:25.999Z</time></trkpt><trkpt lat="42.9833276" lon="12.240075"><ele>381.0</ele><time>2026-05-02T08:11:27.999Z</time></trkpt><trkpt lat="42.9832077" lon="12.2400568"><ele>380.8333333333333</ele><time>2026-05-02T08:11:29.999Z</time></trkpt><trkpt lat="42.9831366" lon="12.2400555"><ele>380.6666666666667</ele><time>2026-05-02T08:11:31Z</time></trkpt><trkpt lat="42.9830552" lon="12.2400602"><ele>380.5</ele><time>2026-05-02T08:11:32Z</time></trkpt><trkpt lat="42.9829733" lon="12.2400639"><ele>380.33333333333337</ele><time>2026-05-02T08:11:33Z</time></trkpt><trkpt lat="42.9828829" lon="12.240075"><ele>380.1666666666667</ele><time>2026-05-02T08:11:34Z</time></trkpt><trkpt lat="42.9827843" lon="12.2400965"><ele>380.0</ele><time>2026-05-02T08:11:35Z</time></trkpt><trkpt lat="42.9826885" lon="12.2401109"><ele>380.0</ele><time>2026-05-02T08:11:36Z</time></trkpt><trkpt lat="42.9825944" lon="12.240115"><ele>380.0</ele><time>2026-05-02T08:11:37Z</time></trkpt><trkpt lat="42.9824982" lon="12.240113"><ele>380.0</ele><time>2026-05-02T08:11:38Z</time></trkpt><trkpt lat="42.9823996" lon="12.2401087"><ele>380.0</ele><time>2026-05-02T08:11:38.999Z</time></trkpt><trkpt lat="42.982306" lon="12.2401094"><ele>380.0</ele><time>2026-05-02T08:11:39.999Z</time></trkpt><trkpt lat="42.9822141" lon="12.2400947"><ele>382.0</ele><time>2026-05-02T08:11:41Z</time></trkpt><trkpt lat="42.9821207" lon="12.2400846"><ele>384.0</ele><time>2026-05-02T08:11:42Z</time></trkpt><trkpt lat="42.9820241" lon="12.240063"><ele>386.0</ele><time>2026-05-02T08:11:43Z</time></trkpt><trkpt lat="42.9819277" lon="12.2400387"><ele>388.0</ele><time>2026-05-02T08:11:44Z</time></trkpt><trkpt lat="42.9818287" lon="12.2399971"><ele>390.0</ele><time>2026-05-02T08:11:44.999Z</time></trkpt><trkpt lat="42.9817505" lon="12.2399459"><ele>391.8</ele><time>2026-05-02T08:11:46Z</time></trkpt><trkpt lat="42.9816737" lon="12.2398826"><ele>393.6</ele><time>2026-05-02T08:11:46.999Z</time></trkpt><trkpt lat="42.9816001" lon="12.2398015"><ele>395.4</ele><time>2026-05-02T08:11:48Z</time></trkpt><trkpt lat="42.9815364" lon="12.2397034"><ele>397.2</ele><time>2026-05-02T08:11:48.999Z</time></trkpt><trkpt lat="42.9814725" lon="12.2396026"><ele>399.0</ele><time>2026-05-02T08:11:50Z</time></trkpt><trkpt lat="42.9814126" lon="12.239484"><ele>400.0</ele><time>2026-05-02T08:11:51Z</time></trkpt><trkpt lat="42.9813417" lon="12.2393648"><ele>401.0</ele><time>2026-05-02T08:11:52Z</time></trkpt><trkpt lat="42.9812835" lon="12.2392592"><ele>402.0</ele><time>2026-05-02T08:11:53Z</time></trkpt><trkpt lat="42.9812358" lon="12.2391596"><ele>403.0</ele><time>2026-05-02T08:11:54Z</time></trkpt><trkpt lat="42.9812132" lon="12.2390676"><ele>404.0</ele><time>2026-05-02T08:11:55Z</time></trkpt><trkpt lat="42.9812126" lon="12.2389771"><ele>405.0</ele><time>2026-05-02T08:11:55.999Z</time></trkpt><trkpt lat="42.9812368" lon="12.2388808"><ele>405.2</ele><time>2026-05-02T08:11:57Z</time></trkpt><trkpt lat="42.9812809" lon="12.2387851"><ele>405.4</ele><time>2026-05-02T08:11:58Z</time></trkpt><trkpt lat="42.9813432" lon="12.2386955"><ele>405.6</ele><time>2026-05-02T08:11:59Z</time></trkpt><trkpt lat="42.9814179" lon="12.2386056"><ele>405.8</ele><time>2026-05-02T08:12:00Z</time></trkpt><trkpt lat="42.9815006" lon="12.2385038"><ele>406.0</ele><time>2026-05-02T08:12:01Z</time></trkpt><trkpt lat="42.9815861" lon="12.2383879"><ele>406.0</ele><time>2026-05-02T08:12:02Z</time></trkpt><trkpt lat="42.9816709" lon="12.2382771"><ele>406.0</ele><time>2026-05-02T08:12:03Z</time></trkpt><trkpt lat="42.9817574" lon="12.2381683"><ele>406.0</ele><time>2026-05-02T08:12:04Z</time></trkpt><trkpt lat="42.9818414" lon="12.2380669"><ele>406.0</ele><time>2026-05-02T08:12:05Z</time></trkpt><trkpt lat="42.9819178" lon="12.2379604"><ele>402.75</ele><time>2026-05-02T08:12:06Z</time></trkpt><trkpt lat="42.9819921" lon="12.2378335"><ele>399.5</ele><time>2026-05-02T08:12:07Z</time></trkpt><trkpt lat="42.9820465" lon="12.2376999"><ele>396.25</ele><time>2026-05-02T08:12:08Z</time></trkpt><trkpt lat="42.982101" lon="12.2375588"><ele>393.0</ele><time>2026-05-02T08:12:09Z</time></trkpt><trkpt lat="42.9821501" lon="12.2374327"><ele>393.0</ele><time>2026-05-02T08:12:10Z</time></trkpt><trkpt lat="42.9822143" lon="12.2373311"><ele>393.0</ele><time>2026-05-02T08:12:11Z</time></trkpt><trkpt lat="42.9823066" lon="12.2372357"><ele>393.0</ele><time>2026-05-02T08:12:12Z</time></trkpt><trkpt lat="42.9824069" lon="12.2371639"><ele>393.0</ele><time>2026-05-02T08:12:12.999Z</time></trkpt><trkpt lat="42.9825163" lon="12.2371027"><ele>393.0</ele><time>2026-05-02T08:12:13.999Z</time></trkpt><trkpt lat="42.982611" lon="12.2370247"><ele>392.0</ele><time>2026-05-02T08:12:15Z</time></trkpt><trkpt lat="42.9826873" lon="12.2369153"><ele>391.0</ele><time>2026-05-02T08:12:16Z</time></trkpt><trkpt lat="42.9827411" lon="12.2367873"><ele>390.0</ele><time>2026-05-02T08:12:17Z</time></trkpt><trkpt lat="42.9827765" lon="12.2366458"><ele>389.0</ele><time>2026-05-02T08:12:18Z</time></trkpt><trkpt lat="42.9827949" lon="12.2365114"><ele>388.0</ele><time>2026-05-02T08:12:19Z</time></trkpt><trkpt lat="42.9827866" lon="12.2363823"><ele>386.79999999999995</ele><time>2026-05-02T08:12:20Z</time></trkpt><trkpt lat="42.9827504" lon="12.2362735"><ele>385.6</ele><time>2026-05-02T08:12:21Z</time></trkpt><trkpt lat="42.9826928" lon="12.2361688"><ele>384.4</ele><time>2026-05-02T08:12:22Z</time></trkpt><trkpt lat="42.9826296" lon="12.2360562"><ele>383.20000000000005</ele><time>2026-05-02T08:12:23Z</time></trkpt><trkpt lat="42.9825843" lon="12.2359191"><ele>382.0</ele><time>2026-05-02T08:12:24Z</time></trkpt><trkpt lat="42.9825574" lon="12.235779"><ele>381.20000000000005</ele><time>2026-05-02T08:12:24.999Z</time></trkpt><trkpt lat="42.9825416" lon="12.2356277"><ele>380.4</ele><time>2026-05-02T08:12:26Z</time></trkpt><trkpt lat="42.9825418" lon="12.2354785"><ele>379.6</ele><time>2026-05-02T08:12:27Z</time></trkpt><trkpt lat="42.9825498" lon="12.2353285"><ele>378.79999999999995</ele><time>2026-05-02T08:12:28Z</time></trkpt><trkpt lat="42.9825516" lon="12.2351768"><ele>378.0</ele><time>2026-05-02T08:12:29Z</time></trkpt><trkpt lat="42.9825596" lon="12.235026"><ele>378.0</ele><time>2026-05-02T08:12:30Z</time></trkpt><trkpt lat="42.9825718" lon="12.23487"><ele>378.0</ele><time>2026-05-02T08:12:31Z</time></trkpt><trkpt lat="42.9825774" lon="12.2347034"><ele>378.0</ele><time>2026-05-02T08:12:32Z</time></trkpt><trkpt lat="42.9825734" lon="12.234535"><ele>378.0</ele><time>2026-05-02T08:12:33Z</time></trkpt><trkpt lat="42.982572" lon="12.2343603"><ele>379.75</ele><time>2026-05-02T08:12:33.999Z</time></trkpt><trkpt lat="42.9825806" lon="12.2341824"><ele>381.5</ele><time>2026-05-02T08:12:35Z</time></trkpt><trkpt lat="42.9825956" lon="12.2340253"><ele>383.25</ele><time>2026-05-02T08:12:36Z</time></trkpt><trkpt lat="42.9826233" lon="12.233866"><ele>385.0</ele><time>2026-05-02T08:12:37Z</time></trkpt><trkpt lat="42.9826584" lon="12.2337139"><ele>388.75</ele><time>2026-05-02T08:12:37.999Z</time></trkpt><trkpt lat="42.9827056" lon="12.2335618"><ele>392.5</ele><time>2026-05-02T08:12:39Z</time></trkpt><trkpt lat="42.9827697" lon="12.2334472"><ele>396.25</ele><time>2026-05-02T08:12:39.999Z</time></trkpt><trkpt lat="42.9828534" lon="12.2333436"><ele>400.0</ele><time>2026-05-02T08:12:41Z</time></trkpt><trkpt lat="42.9829523" lon="12.233252"><ele>400.0</ele><time>2026-05-02T08:12:42Z</time></trkpt><trkpt lat="42.983047" lon="12.2331688"><ele>400.0</ele><time>2026-05-02T08:12:43Z</time></trkpt><trkpt lat="42.98315" lon="12.2330891"><ele>400.0</ele><time>2026-05-02T08:12:44Z</time></trkpt><trkpt lat="42.9832409" lon="12.2330108"><ele>400.0</ele><time>2026-05-02T08:12:45Z</time></trkpt><trkpt lat="42.9833132" lon="12.2329382"><ele>400.0</ele><time>2026-05-02T08:12:45.999Z</time></trkpt><trkpt lat="42.9833784" lon="12.2328833"><ele>400.0</ele><time>2026-05-02T08:12:46.999Z</time></trkpt><trkpt lat="42.9834763" lon="12.2328042"><ele>400.0</ele><time>2026-05-02T08:12:49Z</time></trkpt><trkpt lat="42.9835019" lon="12.2326982"><ele>400.0</ele><time>2026-05-02T08:12:52Z</time></trkpt><trkpt lat="42.9834122" lon="12.2326651"><ele>400.0</ele><time>2026-05-02T08:12:54Z</time></trkpt><trkpt lat="42.9832762" lon="12.2326646"><ele>400.0</ele><time>2026-05-02T08:12:55.999Z</time></trkpt><trkpt lat="42.9832102" lon="12.2326554"><ele>403.00000000000006</ele><time>2026-05-02T08:12:57Z</time></trkpt><trkpt lat="42.9831352" lon="12.2326494"><ele>406.0</ele><time>2026-05-02T08:12:58Z</time></trkpt><trkpt lat="42.9830631" lon="12.23263"><ele>409.0</ele><time>2026-05-02T08:12:59Z</time></trkpt><trkpt lat="42.9829839" lon="12.2326164"><ele>412.0</ele><time>2026-05-02T08:13:00Z</time></trkpt><trkpt lat="42.9828989" lon="12.2326235"><ele>415.00000000000006</ele><time>2026-05-02T08:13:01Z</time></trkpt><trkpt lat="42.9828172" lon="12.2326351"><ele>418.0</ele><time>2026-05-02T08:13:02Z</time></trkpt><trkpt lat="42.9827352" lon="12.2326566"><ele>418.00000000000006</ele><time>2026-05-02T08:13:02.999Z</time></trkpt><trkpt lat="42.9826539" lon="12.2326837"><ele>418.0</ele><time>2026-05-02T08:13:04Z</time></trkpt><trkpt lat="42.9825783" lon="12.2327193"><ele>418.0</ele><time>2026-05-02T08:13:05Z</time></trkpt><trkpt lat="42.9825106" lon="12.232763"><ele>418.0</ele><time>2026-05-02T08:13:06Z</time></trkpt><trkpt lat="42.9824417" lon="12.2328167"><ele>418.00000000000006</ele><time>2026-05-02T08:13:07Z</time></trkpt><trkpt lat="42.9823763" lon="12.2328859"><ele>418.0</ele><time>2026-05-02T08:13:08Z</time></trkpt><trkpt lat="42.9823132" lon="12.2329625"><ele>418.1666666666667</ele><time>2026-05-02T08:13:09Z</time></trkpt><trkpt lat="42.9822485" lon="12.2330359"><ele>418.33333333333337</ele><time>2026-05-02T08:13:09.999Z</time></trkpt><trkpt lat="42.9821841" lon="12.2331184"><ele>418.5</ele><time>2026-05-02T08:13:10.999Z</time></trkpt><trkpt lat="42.982122" lon="12.2332029"><ele>418.66666666666663</ele><time>2026-05-02T08:13:11.999Z</time></trkpt><trkpt lat="42.9820645" lon="12.2332993"><ele>418.8333333333333</ele><time>2026-05-02T08:13:13Z</time></trkpt><trkpt lat="42.9820107" lon="12.2333934"><ele>419.0</ele><time>2026-05-02T08:13:14Z</time></trkpt><trkpt lat="42.9819585" lon="12.2334793"><ele>418.99999999999994</ele><time>2026-05-02T08:13:15Z</time></trkpt><trkpt lat="42.9819069" lon="12.2335583"><ele>419.0</ele><time>2026-05-02T08:13:16Z</time></trkpt><trkpt lat="42.9818494" lon="12.2336394"><ele>419.0</ele><time>2026-05-02T08:13:17Z</time></trkpt><trkpt lat="42.9818028" lon="12.233707"><ele>419.0</ele><time>2026-05-02T08:13:17.999Z</time></trkpt><trkpt lat="42.9817381" lon="12.2337971"><ele>418.99999999999994</ele><time>2026-05-02T08:13:19Z</time></trkpt><trkpt lat="42.9816729" lon="12.2338773"><ele>419.0</ele><time>2026-05-02T08:13:20Z</time></trkpt><trkpt lat="42.9815979" lon="12.2339606"><ele>423.0</ele><time>2026-05-02T08:13:21Z</time></trkpt><trkpt lat="42.9815212" lon="12.2340437"><ele>427.0</ele><time>2026-05-02T08:13:22Z</time></trkpt><trkpt lat="42.9814504" lon="12.2341308"><ele>431.0</ele><time>2026-05-02T08:13:23Z</time></trkpt><trkpt lat="42.9813918" lon="12.2342289"><ele>435.0</ele><time>2026-05-02T08:13:24Z</time></trkpt><trkpt lat="42.9813296" lon="12.234337"><ele>439.0</ele><time>2026-05-02T08:13:25Z</time></trkpt><trkpt lat="42.9812846" lon="12.2344434"><ele>439.00000000000006</ele><time>2026-05-02T08:13:26Z</time></trkpt><trkpt lat="42.98124" lon="12.2345477"><ele>439.0</ele><time>2026-05-02T08:13:26.999Z</time></trkpt><trkpt lat="42.9812017" lon="12.2346458"><ele>439.0</ele><time>2026-05-02T08:13:28Z</time></trkpt><trkpt lat="42.9811673" lon="12.23473"><ele>439.0</ele><time>2026-05-02T08:13:28.999Z</time></trkpt><trkpt lat="42.9811028" lon="12.2348448"><ele>439.00000000000006</ele><time>2026-05-02T08:13:31Z</time></trkpt><trkpt lat="42.9810033" lon="12.2348569"><ele>439.0</ele><time>2026-05-02T08:13:33Z</time></trkpt><trkpt lat="42.9808759" lon="12.2348307"><ele>443.6</ele><time>2026-05-02T08:13:34.999Z</time></trkpt><trkpt lat="42.9808042" lon="12.2348224"><ele>448.2</ele><time>2026-05-02T08:13:36Z</time></trkpt><trkpt lat="42.980728" lon="12.2348277"><ele>452.80000000000007</ele><time>2026-05-02T08:13:37Z</time></trkpt><trkpt lat="42.9806616" lon="12.2348333"><ele>457.40000000000003</ele><time>2026-05-02T08:13:37.999Z</time></trkpt><trkpt lat="42.98054" lon="12.2348556"><ele>462.0</ele><time>2026-05-02T08:13:40Z</time></trkpt><trkpt lat="42.9804274" lon="12.2348678"><ele>462.0</ele><time>2026-05-02T08:13:42Z</time></trkpt><trkpt lat="42.9803036" lon="12.2348909"><ele>462.00000000000006</ele><time>2026-05-02T08:13:44Z</time></trkpt><trkpt lat="42.9801941" lon="12.2349125"><ele>462.00000000000006</ele><time>2026-05-02T08:13:46Z</time></trkpt><trkpt lat="42.9801061" lon="12.234936"><ele>462.0</ele><time>2026-05-02T08:13:48Z</time></trkpt><trkpt lat="42.9800252" lon="12.2349507"><ele>462.0</ele><time>2026-05-02T08:13:49.999Z</time></trkpt><trkpt lat="42.9799605" lon="12.2349807"><ele>462.6666666666667</ele><time>2026-05-02T08:14:10Z</time></trkpt><trkpt lat="42.9798916" lon="12.2350472"><ele>463.33333333333337</ele><time>2026-05-02T08:14:12Z</time></trkpt><trkpt lat="42.979831" lon="12.2351035"><ele>464.0</ele><time>2026-05-02T08:14:12.999Z</time></trkpt><trkpt lat="42.979761" lon="12.2351588"><ele>464.6666666666667</ele><time>2026-05-02T08:14:14Z</time></trkpt><trkpt lat="42.9796781" lon="12.2352309"><ele>465.33333333333337</ele><time>2026-05-02T08:14:15Z</time></trkpt><trkpt lat="42.9795954" lon="12.2352872"><ele>466.0</ele><time>2026-05-02T08:14:16Z</time></trkpt><trkpt lat="42.9795131" lon="12.2353528"><ele>466.00000000000006</ele><time>2026-05-02T08:14:16.999Z</time></trkpt><trkpt lat="42.9794435" lon="12.2354142"><ele>466.0</ele><time>2026-05-02T08:14:17.999Z</time></trkpt><trkpt lat="42.9793727" lon="12.2354692"><ele>466.0</ele><time>2026-05-02T08:14:18.999Z</time></trkpt><trkpt lat="42.9793073" lon="12.2354899"><ele>466.0</ele><time>2026-05-02T08:14:20Z</time></trkpt><trkpt lat="42.9791833" lon="12.2354786"><ele>466.00000000000006</ele><time>2026-05-02T08:14:22Z</time></trkpt><trkpt lat="42.9791233" lon="12.235424"><ele>466.0</ele><time>2026-05-02T08:14:23Z</time></trkpt><trkpt lat="42.9790792" lon="12.2353438"><ele>466.50000000000006</ele><time>2026-05-02T08:14:24Z</time></trkpt><trkpt lat="42.9790347" lon="12.2352636"><ele>467.0</ele><time>2026-05-02T08:14:25Z</time></trkpt><trkpt lat="42.9789934" lon="12.235186"><ele>467.5</ele><time>2026-05-02T08:14:26Z</time></trkpt><trkpt lat="42.9789371" lon="12.2351086"><ele>468.0</ele><time>2026-05-02T08:14:27Z</time></trkpt><trkpt lat="42.9788657" lon="12.235028"><ele>468.50000000000006</ele><time>2026-05-02T08:14:28Z</time></trkpt><trkpt lat="42.9787952" lon="12.2349431"><ele>469.0</ele><time>2026-05-02T08:14:28.999Z</time></trkpt><trkpt lat="42.9787145" lon="12.2348622"><ele>470.1666666666667</ele><time>2026-05-02T08:14:30Z</time></trkpt><trkpt lat="42.9786362" lon="12.2347908"><ele>471.33333333333337</ele><time>2026-05-02T08:14:30.999Z</time></trkpt><trkpt lat="42.9785613" lon="12.2347346"><ele>472.5</ele><time>2026-05-02T08:14:32Z</time></trkpt><trkpt lat="42.9784862" lon="12.2346969"><ele>473.66666666666663</ele><time>2026-05-02T08:14:33Z</time></trkpt><trkpt lat="42.9784064" lon="12.2346539"><ele>474.8333333333333</ele><time>2026-05-02T08:14:34Z</time></trkpt><trkpt lat="42.9783362" lon="12.2345862"><ele>476.0</ele><time>2026-05-02T08:14:35Z</time></trkpt><trkpt lat="42.9782665" lon="12.2345016"><ele>476.0</ele><time>2026-05-02T08:14:36Z</time></trkpt><trkpt lat="42.9781996" lon="12.2344078"><ele>476.0</ele><time>2026-05-02T08:14:37Z</time></trkpt><trkpt lat="42.9781318" lon="12.2343006"><ele>476.0</ele><time>2026-05-02T08:14:37.999Z</time></trkpt><trkpt lat="42.9780527" lon="12.2341682"><ele>476.0</ele><time>2026-05-02T08:14:39Z</time></trkpt><trkpt lat="42.9779813" lon="12.2340309"><ele>476.0</ele><time>2026-05-02T08:14:40Z</time></trkpt><trkpt lat="42.9779078" lon="12.2338877"><ele>473.6</ele><time>2026-05-02T08:14:41Z</time></trkpt><trkpt lat="42.977835" lon="12.2337595"><ele>471.20000000000005</ele><time>2026-05-02T08:14:42Z</time></trkpt><trkpt lat="42.9777628" lon="12.2336439"><ele>468.79999999999995</ele><time>2026-05-02T08:14:43Z</time></trkpt><trkpt lat="42.9776948" lon="12.2335379"><ele>466.4</ele><time>2026-05-02T08:14:44Z</time></trkpt><trkpt lat="42.9776326" lon="12.2334434"><ele>464.0</ele><time>2026-05-02T08:14:45Z</time></trkpt><trkpt lat="42.9775711" lon="12.2333564"><ele>465.79999999999995</ele><time>2026-05-02T08:14:46Z</time></trkpt><trkpt lat="42.9775084" lon="12.2332627"><ele>467.59999999999997</ele><time>2026-05-02T08:14:47Z</time></trkpt><trkpt lat="42.9774347" lon="12.2331725"><ele>469.4</ele><time>2026-05-02T08:14:48Z</time></trkpt><trkpt lat="42.977364" lon="12.2330905"><ele>471.2</ele><time>2026-05-02T08:14:49Z</time></trkpt><trkpt lat="42.9772909" lon="12.233017"><ele>473.0</ele><time>2026-05-02T08:14:50Z</time></trkpt><trkpt lat="42.9772171" lon="12.2329539"><ele>473.0</ele><time>2026-05-02T08:14:51Z</time></trkpt><trkpt lat="42.9770676" lon="12.2328181"><ele>473.0</ele><time>2026-05-02T08:14:53Z</time></trkpt><trkpt lat="42.9769894" lon="12.2327567"><ele>473.0</ele><time>2026-05-02T08:14:54Z</time></trkpt><trkpt lat="42.9769065" lon="12.232693"><ele>473.0</ele><time>2026-05-02T08:14:55Z</time></trkpt><trkpt lat="42.9768289" lon="12.2326222"><ele>473.0</ele><time>2026-05-02T08:14:56Z</time></trkpt><trkpt lat="42.9767512" lon="12.2325478"><ele>472.99999999999994</ele><time>2026-05-02T08:14:57Z</time></trkpt><trkpt lat="42.9766713" lon="12.232474"><ele>472.99999999999994</ele><time>2026-05-02T08:14:57.999Z</time></trkpt><trkpt lat="42.9765932" lon="12.232394"><ele>473.0</ele><time>2026-05-02T08:14:59Z</time></trkpt><trkpt lat="42.976523" lon="12.2323045"><ele>473.0</ele><time>2026-05-02T08:15:00Z</time></trkpt><trkpt lat="42.9764591" lon="12.2322026"><ele>473.66666666666663</ele><time>2026-05-02T08:15:01Z</time></trkpt><trkpt lat="42.9764067" lon="12.2320919"><ele>474.3333333333333</ele><time>2026-05-02T08:15:02Z</time></trkpt><trkpt lat="42.9763529" lon="12.2319859"><ele>475.0</ele><time>2026-05-02T08:15:03Z</time></trkpt><trkpt lat="42.9763046" lon="12.2318819"><ele>475.66666666666663</ele><time>2026-05-02T08:15:04Z</time></trkpt><trkpt lat="42.9762587" lon="12.2317975"><ele>476.3333333333333</ele><time>2026-05-02T08:15:05Z</time></trkpt><trkpt lat="42.9762035" lon="12.2317077"><ele>477.0</ele><time>2026-05-02T08:15:06Z</time></trkpt><trkpt lat="42.9761345" lon="12.2316254"><ele>477.0</ele><time>2026-05-02T08:15:07Z</time></trkpt><trkpt lat="42.9760534" lon="12.2315441"><ele>477.00000000000006</ele><time>2026-05-02T08:15:08Z</time></trkpt><trkpt lat="42.9759738" lon="12.2314648"><ele>477.00000000000006</ele><time>2026-05-02T08:15:09Z</time></trkpt><trkpt lat="42.9758928" lon="12.2313748"><ele>477.0</ele><time>2026-05-02T08:15:10Z</time></trkpt><trkpt lat="42.9758202" lon="12.2312901"><ele>477.0</ele><time>2026-05-02T08:15:11Z</time></trkpt><trkpt lat="42.9757406" lon="12.2312106"><ele>479.0</ele><time>2026-05-02T08:15:11.999Z</time></trkpt><trkpt lat="42.9756618" lon="12.2311314"><ele>481.00000000000006</ele><time>2026-05-02T08:15:13Z</time></trkpt><trkpt lat="42.975583" lon="12.2310429"><ele>483.00000000000006</ele><time>2026-05-02T08:15:14Z</time></trkpt><trkpt lat="42.9754942" lon="12.23096"><ele>485.0</ele><time>2026-05-02T08:15:14.999Z</time></trkpt><trkpt lat="42.975409" lon="12.2308687"><ele>487.0</ele><time>2026-05-02T08:15:16Z</time></trkpt><trkpt lat="42.9753268" lon="12.2307731"><ele>487.0</ele><time>2026-05-02T08:15:17Z</time></trkpt><trkpt lat="42.975245" lon="12.2306822"><ele>487.00000000000006</ele><time>2026-05-02T08:15:18Z</time></trkpt><trkpt lat="42.9751635" lon="12.2305971"><ele>487.00000000000006</ele><time>2026-05-02T08:15:19Z</time></trkpt><trkpt lat="42.9750794" lon="12.2305135"><ele>487.0</ele><time>2026-05-02T08:15:20Z</time></trkpt><trkpt lat="42.9749949" lon="12.2304337"><ele>487.0</ele><time>2026-05-02T08:15:21Z</time></trkpt><trkpt lat="42.9749141" lon="12.2303552"><ele>488.20000000000005</ele><time>2026-05-02T08:15:21.999Z</time></trkpt><trkpt lat="42.9748258" lon="12.230285"><ele>489.40000000000003</ele><time>2026-05-02T08:15:23Z</time></trkpt><trkpt lat="42.9747386" lon="12.2302163"><ele>490.59999999999997</ele><time>2026-05-02T08:15:24Z</time></trkpt><trkpt lat="42.9746527" lon="12.2301578"><ele>491.79999999999995</ele><time>2026-05-02T08:15:25Z</time></trkpt><trkpt lat="42.9745734" lon="12.2301021"><ele>493.0</ele><time>2026-05-02T08:15:25.999Z</time></trkpt><trkpt lat="42.9745037" lon="12.2300336"><ele>493.00000000000006</ele><time>2026-05-02T08:15:26.999Z</time></trkpt><trkpt lat="42.9744343" lon="12.2299722"><ele>493.0</ele><time>2026-05-02T08:15:27.999Z</time></trkpt><trkpt lat="42.9743586" lon="12.2299223"><ele>493.0</ele><time>2026-05-02T08:15:29Z</time></trkpt><trkpt lat="42.974278" lon="12.2298885"><ele>493.0</ele><time>2026-05-02T08:15:30Z</time></trkpt><trkpt lat="42.9742107" lon="12.2298456"><ele>493.00000000000006</ele><time>2026-05-02T08:15:31Z</time></trkpt><trkpt lat="42.9741488" lon="12.2298161"><ele>493.0</ele><time>2026-05-02T08:15:32Z</time></trkpt><trkpt lat="42.9740756" lon="12.2297736"><ele>493.2</ele><time>2026-05-02T08:15:34Z</time></trkpt><trkpt lat="42.9740161" lon="12.2297062"><ele>493.4</ele><time>2026-05-02T08:15:36Z</time></trkpt><trkpt lat="42.9739371" lon="12.2296168"><ele>493.59999999999997</ele><time>2026-05-02T08:15:38Z</time></trkpt><trkpt lat="42.9738445" lon="12.2294878"><ele>493.79999999999995</ele><time>2026-05-02T08:15:40Z</time></trkpt><trkpt lat="42.9737973" lon="12.2294046"><ele>494.0</ele><time>2026-05-02T08:15:41Z</time></trkpt><trkpt lat="42.9737505" lon="12.2293209"><ele>494.0</ele><time>2026-05-02T08:15:42Z</time></trkpt><trkpt lat="42.973707" lon="12.2292501"><ele>494.0</ele><time>2026-05-02T08:15:43Z</time></trkpt><trkpt lat="42.9736504" lon="12.2291854"><ele>494.0</ele><time>2026-05-02T08:15:44Z</time></trkpt><trkpt lat="42.9735995" lon="12.2291256"><ele>494.0</ele><time>2026-05-02T08:15:45Z</time></trkpt><trkpt lat="42.9735319" lon="12.2290752"><ele>494.0</ele><time>2026-05-02T08:15:46Z</time></trkpt><trkpt lat="42.9734617" lon="12.2290268"><ele>494.0</ele><time>2026-05-02T08:15:47Z</time></trkpt><trkpt lat="42.9733801" lon="12.2289956"><ele>494.0</ele><time>2026-05-02T08:15:48Z</time></trkpt><trkpt lat="42.9733" lon="12.228969"><ele>496.66666666666663</ele><time>2026-05-02T08:15:49Z</time></trkpt><trkpt lat="42.9732181" lon="12.2289393"><ele>499.3333333333333</ele><time>2026-05-02T08:15:50Z</time></trkpt><trkpt lat="42.9731452" lon="12.2289023"><ele>502.0</ele><time>2026-05-02T08:15:51Z</time></trkpt><trkpt lat="42.9730826" lon="12.2288474"><ele>504.66666666666663</ele><time>2026-05-02T08:15:52Z</time></trkpt><trkpt lat="42.9730263" lon="12.2287764"><ele>507.3333333333333</ele><time>2026-05-02T08:15:53Z</time></trkpt><trkpt lat="42.9729773" lon="12.2286917"><ele>510.0</ele><time>2026-05-02T08:15:54Z</time></trkpt><trkpt lat="42.9729252" lon="12.2286025"><ele>510.0</ele><time>2026-05-02T08:15:55Z</time></trkpt><trkpt lat="42.9728718" lon="12.2285127"><ele>510.0</ele><time>2026-05-02T08:15:56Z</time></trkpt><trkpt lat="42.9728188" lon="12.2284239"><ele>510.0</ele><time>2026-05-02T08:15:57Z</time></trkpt><trkpt lat="42.9727706" lon="12.2283386"><ele>510.0</ele><time>2026-05-02T08:15:58Z</time></trkpt><trkpt lat="42.9727295" lon="12.2282438"><ele>510.0</ele><time>2026-05-02T08:15:59Z</time></trkpt><trkpt lat="42.9726973" lon="12.2281544"><ele>510.0</ele><time>2026-05-02T08:16:00Z</time></trkpt><trkpt lat="42.9726726" lon="12.2280693"><ele>510.6</ele><time>2026-05-02T08:16:01Z</time></trkpt><trkpt lat="42.9726439" lon="12.2279042"><ele>511.2</ele><time>2026-05-02T08:16:03Z</time></trkpt><trkpt lat="42.9726385" lon="12.2277932"><ele>511.79999999999995</ele><time>2026-05-02T08:16:04Z</time></trkpt><trkpt lat="42.9726377" lon="12.2276953"><ele>512.4</ele><time>2026-05-02T08:16:05Z</time></trkpt><trkpt lat="42.9726184" lon="12.227555"><ele>513.0</ele><time>2026-05-02T08:16:07Z</time></trkpt><trkpt lat="42.9726144" lon="12.2274577"><ele>513.0</ele><time>2026-05-02T08:16:09Z</time></trkpt><trkpt lat="42.9726609" lon="12.2273322"><ele>513.0</ele><time>2026-05-02T08:16:11Z</time></trkpt><trkpt lat="42.972678" lon="12.2272427"><ele>513.0</ele><time>2026-05-02T08:16:11.999Z</time></trkpt><trkpt lat="42.9726989" lon="12.2271485"><ele>513.0</ele><time>2026-05-02T08:16:13Z</time></trkpt><trkpt lat="42.9727299" lon="12.2270462"><ele>513.0</ele><time>2026-05-02T08:16:14Z</time></trkpt><trkpt lat="42.9727617" lon="12.2269552"><ele>513.0</ele><time>2026-05-02T08:16:15Z</time></trkpt><trkpt lat="42.9727921" lon="12.2268673"><ele>514.6666666666666</ele><time>2026-05-02T08:16:16Z</time></trkpt><trkpt lat="42.9728484" lon="12.2267955"><ele>516.3333333333334</ele><time>2026-05-02T08:16:16.999Z</time></trkpt><trkpt lat="42.9728949" lon="12.2267209"><ele>518.0</ele><time>2026-05-02T08:16:17.999Z</time></trkpt><trkpt lat="42.9729263" lon="12.2266271"><ele>519.6666666666667</ele><time>2026-05-02T08:16:19Z</time></trkpt><trkpt lat="42.9729427" lon="12.2265266"><ele>521.3333333333334</ele><time>2026-05-02T08:16:20Z</time></trkpt><trkpt lat="42.9729559" lon="12.2264124"><ele>523.0</ele><time>2026-05-02T08:16:21Z</time></trkpt><trkpt lat="42.9729779" lon="12.2263"><ele>525.8333333333334</ele><time>2026-05-02T08:16:22Z</time></trkpt><trkpt lat="42.9730066" lon="12.22619"><ele>528.6666666666667</ele><time>2026-05-02T08:16:23Z</time></trkpt><trkpt lat="42.9730374" lon="12.2260841"><ele>531.5</ele><time>2026-05-02T08:16:23.999Z</time></trkpt><trkpt lat="42.9730832" lon="12.2259955"><ele>534.3333333333334</ele><time>2026-05-02T08:16:24.999Z</time></trkpt><trkpt lat="42.9731346" lon="12.2259118"><ele>537.1666666666666</ele><time>2026-05-02T08:16:26Z</time></trkpt><trkpt lat="42.9731846" lon="12.2258419"><ele>540.0</ele><time>2026-05-02T08:16:27Z</time></trkpt><trkpt lat="42.9732437" lon="12.2257699"><ele>540.0</ele><time>2026-05-02T08:16:28Z</time></trkpt><trkpt lat="42.9732919" lon="12.2256982"><ele>540.0</ele><time>2026-05-02T08:16:29Z</time></trkpt><trkpt lat="42.973339" lon="12.2256254"><ele>540.0</ele><time>2026-05-02T08:16:30Z</time></trkpt><trkpt lat="42.9733601" lon="12.225542"><ele>540.0</ele><time>2026-05-02T08:16:30.999Z</time></trkpt><trkpt lat="42.973356" lon="12.2254482"><ele>540.0</ele><time>2026-05-02T08:16:32Z</time></trkpt><trkpt lat="42.9733629" lon="12.2253422"><ele>540.0</ele><time>2026-05-02T08:16:33Z</time></trkpt><trkpt lat="42.9733718" lon="12.2252524"><ele>540.0</ele><time>2026-05-02T08:16:34Z</time></trkpt><trkpt lat="42.9734122" lon="12.2251668"><ele>538.8</ele><time>2026-05-02T08:16:35Z</time></trkpt><trkpt lat="42.9734646" lon="12.2250371"><ele>537.6</ele><time>2026-05-02T08:16:37Z</time></trkpt><trkpt lat="42.9735142" lon="12.2249767"><ele>536.4</ele><time>2026-05-02T08:16:38Z</time></trkpt><trkpt lat="42.973613" lon="12.2248683"><ele>535.2</ele><time>2026-05-02T08:16:40Z</time></trkpt><trkpt lat="42.9736514" lon="12.2247523"><ele>534.0</ele><time>2026-05-02T08:16:42Z</time></trkpt><trkpt lat="42.9736317" lon="12.2246208"><ele>536.0</ele><time>2026-05-02T08:16:43.999Z</time></trkpt><trkpt lat="42.9735412" lon="12.2245369"><ele>538.0</ele><time>2026-05-02T08:16:46Z</time></trkpt><trkpt lat="42.973472" lon="12.2245213"><ele>540.0</ele><time>2026-05-02T08:16:47Z</time></trkpt><trkpt lat="42.9733908" lon="12.2245145"><ele>542.0</ele><time>2026-05-02T08:16:48Z</time></trkpt><trkpt lat="42.9733108" lon="12.2245161"><ele>544.0</ele><time>2026-05-02T08:16:49Z</time></trkpt><trkpt lat="42.9732388" lon="12.224551"><ele>546.0</ele><time>2026-05-02T08:16:50Z</time></trkpt><trkpt lat="42.9731521" lon="12.2245851"><ele>547.3333333333334</ele><time>2026-05-02T08:16:51Z</time></trkpt><trkpt lat="42.9730558" lon="12.2246211"><ele>548.6666666666666</ele><time>2026-05-02T08:16:51.999Z</time></trkpt><trkpt lat="42.9729842" lon="12.2246749"><ele>550.0</ele><time>2026-05-02T08:16:53Z</time></trkpt><trkpt lat="42.9729128" lon="12.2247465"><ele>551.3333333333333</ele><time>2026-05-02T08:16:54Z</time></trkpt><trkpt lat="42.97285" lon="12.2248189"><ele>552.6666666666666</ele><time>2026-05-02T08:16:55Z</time></trkpt><trkpt lat="42.972789" lon="12.2248969"><ele>554.0</ele><time>2026-05-02T08:16:56Z</time></trkpt><trkpt lat="42.972728" lon="12.224987"><ele>554.0</ele><time>2026-05-02T08:16:56.999Z</time></trkpt><trkpt lat="42.9726537" lon="12.2250875"><ele>554.0</ele><time>2026-05-02T08:16:58Z</time></trkpt><trkpt lat="42.9726012" lon="12.2251657"><ele>554.0</ele><time>2026-05-02T08:16:58.999Z</time></trkpt><trkpt lat="42.9725239" lon="12.225247"><ele>554.0</ele><time>2026-05-02T08:17:00Z</time></trkpt><trkpt lat="42.9724551" lon="12.2253039"><ele>554.0</ele><time>2026-05-02T08:17:01Z</time></trkpt><trkpt lat="42.972402" lon="12.2253602"><ele>554.0</ele><time>2026-05-02T08:17:02Z</time></trkpt><trkpt lat="42.9723411" lon="12.2254186"><ele>556.1666666666666</ele><time>2026-05-02T08:17:02.999Z</time></trkpt><trkpt lat="42.9722735" lon="12.2254662"><ele>558.3333333333333</ele><time>2026-05-02T08:17:04Z</time></trkpt><trkpt lat="42.9722062" lon="12.2255135"><ele>560.5</ele><time>2026-05-02T08:17:05Z</time></trkpt><trkpt lat="42.9721343" lon="12.2255772"><ele>562.6666666666666</ele><time>2026-05-02T08:17:06Z</time></trkpt><trkpt lat="42.9720626" lon="12.2256245"><ele>564.8333333333334</ele><time>2026-05-02T08:17:06.999Z</time></trkpt><trkpt lat="42.9719799" lon="12.2256658"><ele>567.0</ele><time>2026-05-02T08:17:07.999Z</time></trkpt><trkpt lat="42.9719019" lon="12.2256931"><ele>567.3333333333334</ele><time>2026-05-02T08:17:09Z</time></trkpt><trkpt lat="42.9718274" lon="12.2257091"><ele>567.6666666666666</ele><time>2026-05-02T08:17:10Z</time></trkpt><trkpt lat="42.9717547" lon="12.2257088"><ele>568.0</ele><time>2026-05-02T08:17:11Z</time></trkpt><trkpt lat="42.9716706" lon="12.225695"><ele>568.3333333333333</ele><time>2026-05-02T08:17:12Z</time></trkpt><trkpt lat="42.971593" lon="12.2256689"><ele>568.6666666666666</ele><time>2026-05-02T08:17:13Z</time></trkpt><trkpt lat="42.9715135" lon="12.2256545"><ele>569.0</ele><time>2026-05-02T08:17:14Z</time></trkpt><trkpt lat="42.9714525" lon="12.2256269"><ele>571.0</ele><time>2026-05-02T08:17:15Z</time></trkpt><trkpt lat="42.9713916" lon="12.2255891"><ele>573.0</ele><time>2026-05-02T08:17:16Z</time></trkpt><trkpt lat="42.9713295" lon="12.2255385"><ele>575.0</ele><time>2026-05-02T08:17:17Z</time></trkpt><trkpt lat="42.9712546" lon="12.2254849"><ele>577.0</ele><time>2026-05-02T08:17:17.999Z</time></trkpt><trkpt lat="42.9711815" lon="12.2254229"><ele>579.0</ele><time>2026-05-02T08:17:19Z</time></trkpt><trkpt lat="42.9711152" lon="12.2253607"><ele>581.0</ele><time>2026-05-02T08:17:20Z</time></trkpt><trkpt lat="42.9710371" lon="12.2253048"><ele>581.0</ele><time>2026-05-02T08:17:21Z</time></trkpt><trkpt lat="42.9709564" lon="12.2252567"><ele>581.0</ele><time>2026-05-02T08:17:22Z</time></trkpt><trkpt lat="42.9708804" lon="12.225191"><ele>581.0</ele><time>2026-05-02T08:17:23Z</time></trkpt><trkpt lat="42.9708076" lon="12.2251332"><ele>581.0</ele><time>2026-05-02T08:17:24Z</time></trkpt><trkpt lat="42.9707243" lon="12.2250822"><ele>581.0</ele><time>2026-05-02T08:17:25Z</time></trkpt><trkpt lat="42.9706456" lon="12.2250378"><ele>581.0</ele><time>2026-05-02T08:17:26Z</time></trkpt><trkpt lat="42.9705684" lon="12.2249924"><ele>583.1666666666666</ele><time>2026-05-02T08:17:26.999Z</time></trkpt><trkpt lat="42.9704877" lon="12.2249446"><ele>585.3333333333333</ele><time>2026-05-02T08:17:28Z</time></trkpt><trkpt lat="42.9704144" lon="12.2248973"><ele>587.5</ele><time>2026-05-02T08:17:29Z</time></trkpt><trkpt lat="42.970343" lon="12.2248452"><ele>589.6666666666666</ele><time>2026-05-02T08:17:30Z</time></trkpt><trkpt lat="42.9702675" lon="12.2248168"><ele>591.8333333333334</ele><time>2026-05-02T08:17:31Z</time></trkpt><trkpt lat="42.9701942" lon="12.2247927"><ele>594.0</ele><time>2026-05-02T08:17:32Z</time></trkpt><trkpt lat="42.9701342" lon="12.2247625"><ele>594.8333333333334</ele><time>2026-05-02T08:17:32.999Z</time></trkpt><trkpt lat="42.9700673" lon="12.2247304"><ele>595.6666666666666</ele><time>2026-05-02T08:17:34Z</time></trkpt><trkpt lat="42.9699963" lon="12.2246814"><ele>596.5</ele><time>2026-05-02T08:17:34.999Z</time></trkpt><trkpt lat="42.9699346" lon="12.2246313"><ele>597.3333333333333</ele><time>2026-05-02T08:17:36Z</time></trkpt><trkpt lat="42.9698668" lon="12.2245914"><ele>598.1666666666666</ele><time>2026-05-02T08:17:37Z</time></trkpt><trkpt lat="42.9697864" lon="12.2245562"><ele>599.0</ele><time>2026-05-02T08:17:38Z</time></trkpt><trkpt lat="42.9697035" lon="12.2245092"><ele>599.6</ele><time>2026-05-02T08:17:39Z</time></trkpt><trkpt lat="42.9696064" lon="12.2244709"><ele>600.2</ele><time>2026-05-02T08:17:40Z</time></trkpt><trkpt lat="42.9695127" lon="12.2244452"><ele>600.8000000000001</ele><time>2026-05-02T08:17:41Z</time></trkpt><trkpt lat="42.9694212" lon="12.2244281"><ele>601.4</ele><time>2026-05-02T08:17:42Z</time></trkpt><trkpt lat="42.9693251" lon="12.2244183"><ele>602.0</ele><time>2026-05-02T08:17:43Z</time></trkpt><trkpt lat="42.9692258" lon="12.224402"><ele>602.1666666666666</ele><time>2026-05-02T08:17:43.999Z</time></trkpt><trkpt lat="42.9691402" lon="12.224393"><ele>602.3333333333333</ele><time>2026-05-02T08:17:44.999Z</time></trkpt><trkpt lat="42.9690516" lon="12.2243724"><ele>602.5</ele><time>2026-05-02T08:17:46Z</time></trkpt><trkpt lat="42.9689731" lon="12.2243419"><ele>602.6666666666666</ele><time>2026-05-02T08:17:47Z</time></trkpt><trkpt lat="42.9689057" lon="12.2242977"><ele>602.8333333333334</ele><time>2026-05-02T08:17:48Z</time></trkpt><trkpt lat="42.9688378" lon="12.2242649"><ele>603.0</ele><time>2026-05-02T08:17:49Z</time></trkpt><trkpt lat="42.968775" lon="12.2242393"><ele>603.0</ele><time>2026-05-02T08:17:50Z</time></trkpt><trkpt lat="42.9686504" lon="12.2241929"><ele>603.0</ele><time>2026-05-02T08:17:51.999Z</time></trkpt><trkpt lat="42.9685289" lon="12.224155"><ele>603.0</ele><time>2026-05-02T08:17:53.999Z</time></trkpt><trkpt lat="42.9684645" lon="12.2241404"><ele>603.0</ele><time>2026-05-02T08:17:55Z</time></trkpt><trkpt lat="42.9683973" lon="12.2241483"><ele>603.0</ele><time>2026-05-02T08:17:55.999Z</time></trkpt><trkpt lat="42.9682787" lon="12.2241383"><ele>602.8571428571429</ele><time>2026-05-02T08:17:58Z</time></trkpt><trkpt lat="42.9681723" lon="12.2241351"><ele>602.7142857142857</ele><time>2026-05-02T08:17:59.999Z</time></trkpt><trkpt lat="42.9681069" lon="12.2241276"><ele>602.5714285714286</ele><time>2026-05-02T08:18:01Z</time></trkpt><trkpt lat="42.9680406" lon="12.2241131"><ele>602.4285714285714</ele><time>2026-05-02T08:18:02Z</time></trkpt><trkpt lat="42.9679671" lon="12.224081"><ele>602.2857142857142</ele><time>2026-05-02T08:18:03Z</time></trkpt><trkpt lat="42.9679045" lon="12.2240441"><ele>602.1428571428571</ele><time>2026-05-02T08:18:04Z</time></trkpt><trkpt lat="42.9678452" lon="12.2240145"><ele>602.0</ele><time>2026-05-02T08:18:05Z</time></trkpt><trkpt lat="42.967783" lon="12.2239895"><ele>602.0</ele><time>2026-05-02T08:18:06Z</time></trkpt><trkpt lat="42.9676811" lon="12.2239776"><ele>602.0</ele><time>2026-05-02T08:18:08Z</time></trkpt><trkpt lat="42.9676107" lon="12.2239826"><ele>602.0</ele><time>2026-05-02T08:18:10Z</time></trkpt><trkpt lat="42.9675428" lon="12.2239949"><ele>602.0</ele><time>2026-05-02T08:18:13Z</time></trkpt><trkpt lat="42.9674516" lon="12.223995"><ele>602.0</ele><time>2026-05-02T08:18:16Z</time></trkpt><trkpt lat="42.9673804" lon="12.2239966"><ele>602.0</ele><time>2026-05-02T08:18:18Z</time></trkpt><trkpt lat="42.9672896" lon="12.2239989"><ele>601.8333333333333</ele><time>2026-05-02T08:18:20.999Z</time></trkpt><trkpt lat="42.9672026" lon="12.2239955"><ele>601.6666666666666</ele><time>2026-05-02T08:18:24Z</time></trkpt><trkpt lat="42.9671324" lon="12.2239796"><ele>601.5</ele><time>2026-05-02T08:18:27Z</time></trkpt><trkpt lat="42.9670522" lon="12.2239988"><ele>601.3333333333334</ele><time>2026-05-02T08:18:29.999Z</time></trkpt><trkpt lat="42.9669549" lon="12.2240143"><ele>601.1666666666667</ele><time>2026-05-02T08:18:32Z</time></trkpt><trkpt lat="42.9668674" lon="12.2240235"><ele>601.0</ele><time>2026-05-02T08:18:33Z</time></trkpt><trkpt lat="42.966772" lon="12.224014"><ele>600.8</ele><time>2026-05-02T08:18:34Z</time></trkpt><trkpt lat="42.9666896" lon="12.2240106"><ele>600.6</ele><time>2026-05-02T08:18:35Z</time></trkpt><trkpt lat="42.966606" lon="12.2240057"><ele>600.4</ele><time>2026-05-02T08:18:36Z</time></trkpt><trkpt lat="42.9665125" lon="12.2239679"><ele>600.2</ele><time>2026-05-02T08:18:37Z</time></trkpt><trkpt lat="42.9664173" lon="12.2239152"><ele>600.0</ele><time>2026-05-02T08:18:38Z</time></trkpt><trkpt lat="42.966268" lon="12.2238265"><ele>600.0</ele><time>2026-05-02T08:18:38.999Z</time></trkpt><trkpt lat="42.9661352" lon="12.2237252"><ele>600.0</ele><time>2026-05-02T08:18:40Z</time></trkpt><trkpt lat="42.9659922" lon="12.2236118"><ele>600.0</ele><time>2026-05-02T08:18:41Z</time></trkpt><trkpt lat="42.9658782" lon="12.2235053"><ele>600.4</ele><time>2026-05-02T08:18:41.999Z</time></trkpt><trkpt lat="42.9657807" lon="12.2234426"><ele>600.8</ele><time>2026-05-02T08:18:43Z</time></trkpt><trkpt lat="42.9656942" lon="12.2233819"><ele>601.2</ele><time>2026-05-02T08:18:43.999Z</time></trkpt><trkpt lat="42.9656302" lon="12.2233187"><ele>601.6</ele><time>2026-05-02T08:18:45Z</time></trkpt><trkpt lat="42.9655865" lon="12.2232021"><ele>602.0</ele><time>2026-05-02T08:18:46Z</time></trkpt><trkpt lat="42.965539" lon="12.2230747"><ele>602.0</ele><time>2026-05-02T08:18:47Z</time></trkpt><trkpt lat="42.96548" lon="12.2229658"><ele>602.0</ele><time>2026-05-02T08:18:48Z</time></trkpt><trkpt lat="42.9654262" lon="12.2228552"><ele>602.0</ele><time>2026-05-02T08:18:48.999Z</time></trkpt><trkpt lat="42.9653661" lon="12.2227494"><ele>602.0</ele><time>2026-05-02T08:18:49.999Z</time></trkpt><trkpt lat="42.9652629" lon="12.2226727"><ele>602.0</ele><time>2026-05-02T08:18:51Z</time></trkpt><trkpt lat="42.9651605" lon="12.2225845"><ele>602.0</ele><time>2026-05-02T08:18:52Z</time></trkpt><trkpt lat="42.9650697" lon="12.2225108"><ele>602.0</ele><time>2026-05-02T08:18:53Z</time></trkpt><trkpt lat="42.96499" lon="12.2224582"><ele>602.0</ele><time>2026-05-02T08:18:54Z</time></trkpt><trkpt lat="42.9648998" lon="12.222425"><ele>602.0</ele><time>2026-05-02T08:18:55Z</time></trkpt><trkpt lat="42.9647992" lon="12.2224065"><ele>602.0</ele><time>2026-05-02T08:18:56Z</time></trkpt><trkpt lat="42.9644378" lon="12.2224048"><ele>602.2</ele><time>2026-05-02T08:18:59Z</time></trkpt><trkpt lat="42.9643305" lon="12.2224064"><ele>602.4000000000001</ele><time>2026-05-02T08:19:00Z</time></trkpt><trkpt lat="42.9642351" lon="12.2223986"><ele>602.5999999999999</ele><time>2026-05-02T08:19:01Z</time></trkpt><trkpt lat="42.9641749" lon="12.2223687"><ele>602.8</ele><time>2026-05-02T08:19:02Z</time></trkpt><trkpt lat="42.9641038" lon="12.2223401"><ele>603.0</ele><time>2026-05-02T08:19:03Z</time></trkpt><trkpt lat="42.9639693" lon="12.2222123"><ele>603.0</ele><time>2026-05-02T08:19:05Z</time></trkpt><trkpt lat="42.9637258" lon="12.2216009"><ele>601.1666666666666</ele><time>2026-05-02T08:19:10Z</time></trkpt><trkpt lat="42.9636988" lon="12.2214777"><ele>599.3333333333334</ele><time>2026-05-02T08:19:10.999Z</time></trkpt><trkpt lat="42.963654" lon="12.2213755"><ele>597.5</ele><time>2026-05-02T08:19:12Z</time></trkpt><trkpt lat="42.9636014" lon="12.2212829"><ele>595.6666666666667</ele><time>2026-05-02T08:19:12.999Z</time></trkpt><trkpt lat="42.9635294" lon="12.2212163"><ele>593.8333333333334</ele><time>2026-05-02T08:19:14Z</time></trkpt><trkpt lat="42.9634597" lon="12.2211412"><ele>592.0</ele><time>2026-05-02T08:19:15Z</time></trkpt><trkpt lat="42.9634037" lon="12.2210596"><ele>591.5</ele><time>2026-05-02T08:19:16Z</time></trkpt><trkpt lat="42.9633513" lon="12.2209638"><ele>591.0</ele><time>2026-05-02T08:19:17Z</time></trkpt><trkpt lat="42.9632952" lon="12.2208852"><ele>590.5</ele><time>2026-05-02T08:19:18Z</time></trkpt><trkpt lat="42.9632307" lon="12.2208237"><ele>590.0</ele><time>2026-05-02T08:19:19Z</time></trkpt><trkpt lat="42.9631675" lon="12.2207664"><ele>589.5</ele><time>2026-05-02T08:19:20Z</time></trkpt><trkpt lat="42.9630952" lon="12.2206986"><ele>589.0</ele><time>2026-05-02T08:19:20.999Z</time></trkpt><trkpt lat="42.9630285" lon="12.2206459"><ele>589.0</ele><time>2026-05-02T08:19:22Z</time></trkpt><trkpt lat="42.9629667" lon="12.2205813"><ele>589.0</ele><time>2026-05-02T08:19:23Z</time></trkpt><trkpt lat="42.9629134" lon="12.2205145"><ele>589.0</ele><time>2026-05-02T08:19:24Z</time></trkpt><trkpt lat="42.9628597" lon="12.2204573"><ele>589.0</ele><time>2026-05-02T08:19:25Z</time></trkpt><trkpt lat="42.9628116" lon="12.2204006"><ele>589.0</ele><time>2026-05-02T08:19:26Z</time></trkpt><trkpt lat="42.9627511" lon="12.2203663"><ele>589.0</ele><time>2026-05-02T08:19:27Z</time></trkpt><trkpt lat="42.9626715" lon="12.220338"><ele>589.0</ele><time>2026-05-02T08:19:28Z</time></trkpt><trkpt lat="42.9625778" lon="12.2203086"><ele>588.2857142857142</ele><time>2026-05-02T08:19:29Z</time></trkpt><trkpt lat="42.9624911" lon="12.220293"><ele>587.5714285714286</ele><time>2026-05-02T08:19:30Z</time></trkpt><trkpt lat="42.9624201" lon="12.2202684"><ele>586.8571428571429</ele><time>2026-05-02T08:19:31Z</time></trkpt><trkpt lat="42.9623547" lon="12.2202251"><ele>586.1428571428571</ele><time>2026-05-02T08:19:32Z</time></trkpt><trkpt lat="42.9622981" lon="12.2201842"><ele>585.4285714285714</ele><time>2026-05-02T08:19:33Z</time></trkpt><trkpt lat="42.9622327" lon="12.2201581"><ele>584.7142857142857</ele><time>2026-05-02T08:19:34Z</time></trkpt><trkpt lat="42.9621668" lon="12.2201354"><ele>584.0</ele><time>2026-05-02T08:19:35Z</time></trkpt><trkpt lat="42.9620984" lon="12.2201263"><ele>584.0</ele><time>2026-05-02T08:19:36Z</time></trkpt><trkpt lat="42.9620319" lon="12.2201258"><ele>584.0</ele><time>2026-05-02T08:19:37Z</time></trkpt><trkpt lat="42.9619617" lon="12.2201293"><ele>584.0</ele><time>2026-05-02T08:19:38Z</time></trkpt><trkpt lat="42.961896" lon="12.2201312"><ele>584.0</ele><time>2026-05-02T08:19:39Z</time></trkpt><trkpt lat="42.9618314" lon="12.2201389"><ele>584.0</ele><time>2026-05-02T08:19:40Z</time></trkpt><trkpt lat="42.9617152" lon="12.2201855"><ele>584.0</ele><time>2026-05-02T08:19:42Z</time></trkpt><trkpt lat="42.961638" lon="12.2202158"><ele>582.3333333333333</ele><time>2026-05-02T08:19:43Z</time></trkpt><trkpt lat="42.9615644" lon="12.2202391"><ele>580.6666666666666</ele><time>2026-05-02T08:19:44Z</time></trkpt><trkpt lat="42.9614871" lon="12.2202657"><ele>579.0</ele><time>2026-05-02T08:19:45Z</time></trkpt><trkpt lat="42.9614116" lon="12.2202764"><ele>577.3333333333334</ele><time>2026-05-02T08:19:46Z</time></trkpt><trkpt lat="42.9613374" lon="12.2202747"><ele>575.6666666666667</ele><time>2026-05-02T08:19:47Z</time></trkpt><trkpt lat="42.9612643" lon="12.2202716"><ele>574.0</ele><time>2026-05-02T08:19:48Z</time></trkpt><trkpt lat="42.9611867" lon="12.2202826"><ele>574.0</ele><time>2026-05-02T08:19:49Z</time></trkpt><trkpt lat="42.9611011" lon="12.2202852"><ele>574.0</ele><time>2026-05-02T08:19:50Z</time></trkpt><trkpt lat="42.9610063" lon="12.220288"><ele>574.0</ele><time>2026-05-02T08:19:51Z</time></trkpt><trkpt lat="42.9609095" lon="12.2202824"><ele>574.0</ele><time>2026-05-02T08:19:52Z</time></trkpt><trkpt lat="42.9608075" lon="12.2202643"><ele>574.0</ele><time>2026-05-02T08:19:53Z</time></trkpt><trkpt lat="42.9607138" lon="12.2202456"><ele>573.0</ele><time>2026-05-02T08:19:54Z</time></trkpt><trkpt lat="42.9606513" lon="12.2202168"><ele>572.0</ele><time>2026-05-02T08:19:55Z</time></trkpt><trkpt lat="42.9605465" lon="12.2201483"><ele>571.0</ele><time>2026-05-02T08:19:57Z</time></trkpt><trkpt lat="42.9604689" lon="12.220123"><ele>570.0</ele><time>2026-05-02T08:19:57.999Z</time></trkpt><trkpt lat="42.9603938" lon="12.2200902"><ele>569.0</ele><time>2026-05-02T08:19:59Z</time></trkpt><trkpt lat="42.9603278" lon="12.2200543"><ele>568.0</ele><time>2026-05-02T08:20:00Z</time></trkpt><trkpt lat="42.9602566" lon="12.2200184"><ele>568.0</ele><time>2026-05-02T08:20:00.999Z</time></trkpt><trkpt lat="42.9601881" lon="12.2199677"><ele>568.0</ele><time>2026-05-02T08:20:02Z</time></trkpt><trkpt lat="42.9601368" lon="12.219908"><ele>568.0</ele><time>2026-05-02T08:20:03Z</time></trkpt><trkpt lat="42.960075" lon="12.2197855"><ele>568.0</ele><time>2026-05-02T08:20:05Z</time></trkpt><trkpt lat="42.9600549" lon="12.2196798"><ele>568.0</ele><time>2026-05-02T08:20:07Z</time></trkpt><trkpt lat="42.9600383" lon="12.2195479"><ele>568.0</ele><time>2026-05-02T08:20:09Z</time></trkpt><trkpt lat="42.9599712" lon="12.2194058"><ele>569.0</ele><time>2026-05-02T08:20:11Z</time></trkpt><trkpt lat="42.9599287" lon="12.2193407"><ele>570.0</ele><time>2026-05-02T08:20:12Z</time></trkpt><trkpt lat="42.9598789" lon="12.2192698"><ele>571.0</ele><time>2026-05-02T08:20:13Z</time></trkpt><trkpt lat="42.9598262" lon="12.2192178"><ele>572.0</ele><time>2026-05-02T08:20:14Z</time></trkpt><trkpt lat="42.9597103" lon="12.2191698"><ele>573.0</ele><time>2026-05-02T08:20:16Z</time></trkpt><trkpt lat="42.9595806" lon="12.2191755"><ele>573.0</ele><time>2026-05-02T08:20:18Z</time></trkpt><trkpt lat="42.9595096" lon="12.2191741"><ele>573.0</ele><time>2026-05-02T08:20:18.999Z</time></trkpt><trkpt lat="42.9594403" lon="12.2191552"><ele>573.0</ele><time>2026-05-02T08:20:20Z</time></trkpt><trkpt lat="42.9593683" lon="12.2191139"><ele>573.0</ele><time>2026-05-02T08:20:21Z</time></trkpt><trkpt lat="42.9592894" lon="12.2190674"><ele>573.0</ele><time>2026-05-02T08:20:21.999Z</time></trkpt><trkpt lat="42.9592115" lon="12.2190185"><ele>573.0</ele><time>2026-05-02T08:20:22.999Z</time></trkpt><trkpt lat="42.9591379" lon="12.2189858"><ele>571.4285714285714</ele><time>2026-05-02T08:20:24Z</time></trkpt><trkpt lat="42.9590719" lon="12.2189592"><ele>569.8571428571429</ele><time>2026-05-02T08:20:25Z</time></trkpt><trkpt lat="42.9590032" lon="12.2189448"><ele>568.2857142857143</ele><time>2026-05-02T08:20:26Z</time></trkpt><trkpt lat="42.958937" lon="12.2189375"><ele>566.7142857142858</ele><time>2026-05-02T08:20:27Z</time></trkpt><trkpt lat="42.9588675" lon="12.2189416"><ele>565.1428571428571</ele><time>2026-05-02T08:20:28Z</time></trkpt><trkpt lat="42.9587947" lon="12.2189443"><ele>563.5714285714287</ele><time>2026-05-02T08:20:29Z</time></trkpt><trkpt lat="42.9587275" lon="12.2189432"><ele>562.0</ele><time>2026-05-02T08:20:29.999Z</time></trkpt><trkpt lat="42.9586554" lon="12.2189201"><ele>562.0</ele><time>2026-05-02T08:20:31Z</time></trkpt><trkpt lat="42.9585844" lon="12.2188769"><ele>562.0</ele><time>2026-05-02T08:20:32Z</time></trkpt><trkpt lat="42.9585095" lon="12.2188418"><ele>562.0</ele><time>2026-05-02T08:20:33Z</time></trkpt><trkpt lat="42.9584453" lon="12.21882"><ele>562.0</ele><time>2026-05-02T08:20:34Z</time></trkpt><trkpt lat="42.9583825" lon="12.2187999"><ele>562.0</ele><time>2026-05-02T08:20:34.999Z</time></trkpt><trkpt lat="42.958282" lon="12.2187621"><ele>562.0</ele><time>2026-05-02T08:20:37Z</time></trkpt><trkpt lat="42.9582062" lon="12.2186918"><ele>562.5</ele><time>2026-05-02T08:20:39Z</time></trkpt><trkpt lat="42.9581503" lon="12.2185749"><ele>563.0</ele><time>2026-05-02T08:20:41Z</time></trkpt><trkpt lat="42.9581035" lon="12.2185002"><ele>563.5</ele><time>2026-05-02T08:20:41.999Z</time></trkpt><trkpt lat="42.9580472" lon="12.2184412"><ele>564.0</ele><time>2026-05-02T08:20:43Z</time></trkpt><trkpt lat="42.9579739" lon="12.2183709"><ele>564.5</ele><time>2026-05-02T08:20:44Z</time></trkpt><trkpt lat="42.9578891" lon="12.2182917"><ele>565.0</ele><time>2026-05-02T08:20:45Z</time></trkpt><trkpt lat="42.9578069" lon="12.2182258"><ele>565.0</ele><time>2026-05-02T08:20:46Z</time></trkpt><trkpt lat="42.9577198" lon="12.218175"><ele>565.0</ele><time>2026-05-02T08:20:47Z</time></trkpt><trkpt lat="42.9576381" lon="12.2181212"><ele>565.0</ele><time>2026-05-02T08:20:48Z</time></trkpt><trkpt lat="42.9575523" lon="12.218076"><ele>565.0</ele><time>2026-05-02T08:20:48.999Z</time></trkpt><trkpt lat="42.9574729" lon="12.2180167"><ele>565.0</ele><time>2026-05-02T08:20:50Z</time></trkpt><trkpt lat="42.957393" lon="12.2179456"><ele>565.6666666666667</ele><time>2026-05-02T08:20:51Z</time></trkpt><trkpt lat="42.957323" lon="12.2178523"><ele>566.3333333333334</ele><time>2026-05-02T08:20:52Z</time></trkpt><trkpt lat="42.9572629" lon="12.2177768"><ele>567.0</ele><time>2026-05-02T08:20:53Z</time></trkpt><trkpt lat="42.9571952" lon="12.2177046"><ele>567.6666666666666</ele><time>2026-05-02T08:20:54Z</time></trkpt><trkpt lat="42.9571293" lon="12.2176455"><ele>568.3333333333333</ele><time>2026-05-02T08:20:55Z</time></trkpt><trkpt lat="42.9570685" lon="12.2175957"><ele>569.0</ele><time>2026-05-02T08:20:56Z</time></trkpt><trkpt lat="42.9570115" lon="12.2175442"><ele>569.0</ele><time>2026-05-02T08:20:57Z</time></trkpt><trkpt lat="42.9569408" lon="12.2174117"><ele>569.0</ele><time>2026-05-02T08:20:59Z</time></trkpt><trkpt lat="42.9569205" lon="12.2173195"><ele>569.0</ele><time>2026-05-02T08:21:00Z</time></trkpt><trkpt lat="42.9569049" lon="12.2172215"><ele>569.0</ele><time>2026-05-02T08:21:00.999Z</time></trkpt><trkpt lat="42.9568832" lon="12.2171256"><ele>569.0</ele><time>2026-05-02T08:21:02Z</time></trkpt><trkpt lat="42.9568427" lon="12.2170346"><ele>569.0</ele><time>2026-05-02T08:21:02.999Z</time></trkpt><trkpt lat="42.9567903" lon="12.2169403"><ele>568.6</ele><time>2026-05-02T08:21:03.999Z</time></trkpt><trkpt lat="42.956734" lon="12.216873"><ele>568.2</ele><time>2026-05-02T08:21:05Z</time></trkpt><trkpt lat="42.9566384" lon="12.2167817"><ele>567.8000000000001</ele><time>2026-05-02T08:21:07Z</time></trkpt><trkpt lat="42.9565429" lon="12.2166856"><ele>567.4</ele><time>2026-05-02T08:21:09Z</time></trkpt><trkpt lat="42.956478" lon="12.2166239"><ele>567.0</ele><time>2026-05-02T08:21:10Z</time></trkpt><trkpt lat="42.956419" lon="12.2165524"><ele>564.4</ele><time>2026-05-02T08:21:10.999Z</time></trkpt><trkpt lat="42.9563435" lon="12.2164786"><ele>561.8000000000001</ele><time>2026-05-02T08:21:12Z</time></trkpt><trkpt lat="42.9562684" lon="12.2164131"><ele>559.2</ele><time>2026-05-02T08:21:13Z</time></trkpt><trkpt lat="42.9561926" lon="12.2163277"><ele>556.6</ele><time>2026-05-02T08:21:14Z</time></trkpt><trkpt lat="42.9561189" lon="12.2162571"><ele>554.0</ele><time>2026-05-02T08:21:15Z</time></trkpt><trkpt lat="42.9560554" lon="12.2161891"><ele>554.0</ele><time>2026-05-02T08:21:16Z</time></trkpt><trkpt lat="42.9559971" lon="12.2161234"><ele>554.0</ele><time>2026-05-02T08:21:17Z</time></trkpt><trkpt lat="42.9559459" lon="12.2160466"><ele>554.0</ele><time>2026-05-02T08:21:18Z</time></trkpt><trkpt lat="42.9558825" lon="12.2159534"><ele>554.0</ele><time>2026-05-02T08:21:19Z</time></trkpt><trkpt lat="42.9558303" lon="12.2158521"><ele>554.0</ele><time>2026-05-02T08:21:20Z</time></trkpt><trkpt lat="42.9557713" lon="12.2157564"><ele>554.0</ele><time>2026-05-02T08:21:21Z</time></trkpt><trkpt lat="42.9557172" lon="12.2156631"><ele>553.4</ele><time>2026-05-02T08:21:22Z</time></trkpt><trkpt lat="42.9556659" lon="12.2155672"><ele>552.8</ele><time>2026-05-02T08:21:23Z</time></trkpt><trkpt lat="42.9556004" lon="12.2154749"><ele>552.2</ele><time>2026-05-02T08:21:24Z</time></trkpt><trkpt lat="42.9555373" lon="12.2154049"><ele>551.6</ele><time>2026-05-02T08:21:25Z</time></trkpt><trkpt lat="42.9554737" lon="12.2153127"><ele>551.0</ele><time>2026-05-02T08:21:26Z</time></trkpt><trkpt lat="42.9554106" lon="12.2152061"><ele>551.0</ele><time>2026-05-02T08:21:27Z</time></trkpt><trkpt lat="42.9553474" lon="12.2151027"><ele>551.0</ele><time>2026-05-02T08:21:28Z</time></trkpt><trkpt lat="42.955289" lon="12.2150083"><ele>551.0</ele><time>2026-05-02T08:21:29Z</time></trkpt><trkpt lat="42.9552305" lon="12.2149327"><ele>551.0</ele><time>2026-05-02T08:21:29.999Z</time></trkpt><trkpt lat="42.9551749" lon="12.2148654"><ele>551.0</ele><time>2026-05-02T08:21:31Z</time></trkpt><trkpt lat="42.9551044" lon="12.2147553"><ele>552.25</ele><time>2026-05-02T08:21:33Z</time></trkpt><trkpt lat="42.9550544" lon="12.2146231"><ele>553.5</ele><time>2026-05-02T08:21:35Z</time></trkpt><trkpt lat="42.9550089" lon="12.2144757"><ele>554.75</ele><time>2026-05-02T08:21:37Z</time></trkpt><trkpt lat="42.954952" lon="12.2143585"><ele>556.0</ele><time>2026-05-02T08:21:39Z</time></trkpt><trkpt lat="42.9548354" lon="12.2143141"><ele>556.0</ele><time>2026-05-02T08:21:41Z</time></trkpt><trkpt lat="42.9547681" lon="12.214304"><ele>556.0</ele><time>2026-05-02T08:21:42Z</time></trkpt><trkpt lat="42.9546973" lon="12.2142135"><ele>556.0</ele><time>2026-05-02T08:21:44Z</time></trkpt><trkpt lat="42.9546762" lon="12.2140441"><ele>556.0</ele><time>2026-05-02T08:21:46Z</time></trkpt><trkpt lat="42.9546572" lon="12.2139575"><ele>556.0</ele><time>2026-05-02T08:21:47Z</time></trkpt><trkpt lat="42.9546324" lon="12.2138675"><ele>556.0</ele><time>2026-05-02T08:21:48Z</time></trkpt><trkpt lat="42.9545961" lon="12.2137788"><ele>554.1666666666667</ele><time>2026-05-02T08:21:49Z</time></trkpt><trkpt lat="42.9545461" lon="12.213691"><ele>552.3333333333334</ele><time>2026-05-02T08:21:50Z</time></trkpt><trkpt lat="42.9544958" lon="12.2136048"><ele>550.5</ele><time>2026-05-02T08:21:51Z</time></trkpt><trkpt lat="42.9544581" lon="12.2135142"><ele>548.6666666666666</ele><time>2026-05-02T08:21:52Z</time></trkpt><trkpt lat="42.9544303" lon="12.2134127"><ele>546.8333333333333</ele><time>2026-05-02T08:21:52.999Z</time></trkpt><trkpt lat="42.9544103" lon="12.2132981"><ele>545.0</ele><time>2026-05-02T08:21:54Z</time></trkpt><trkpt lat="42.954398" lon="12.2131625"><ele>543.6666666666666</ele><time>2026-05-02T08:21:54.999Z</time></trkpt><trkpt lat="42.9543781" lon="12.2130433"><ele>542.3333333333333</ele><time>2026-05-02T08:21:56Z</time></trkpt><trkpt lat="42.9543448" lon="12.2129459"><ele>541.0</ele><time>2026-05-02T08:21:57Z</time></trkpt><trkpt lat="42.9542834" lon="12.2128703"><ele>539.6666666666666</ele><time>2026-05-02T08:21:58Z</time></trkpt><trkpt lat="42.9542162" lon="12.2128064"><ele>538.3333333333334</ele><time>2026-05-02T08:21:59Z</time></trkpt><trkpt lat="42.9541428" lon="12.2127424"><ele>537.0</ele><time>2026-05-02T08:22:00Z</time></trkpt><trkpt lat="42.9540682" lon="12.2126601"><ele>540.0</ele><time>2026-05-02T08:22:01Z</time></trkpt><trkpt lat="42.9539929" lon="12.2125756"><ele>543.0</ele><time>2026-05-02T08:22:02Z</time></trkpt><trkpt lat="42.9539151" lon="12.2124718"><ele>546.0</ele><time>2026-05-02T08:22:03Z</time></trkpt><trkpt lat="42.9538351" lon="12.2123595"><ele>549.0</ele><time>2026-05-02T08:22:04Z</time></trkpt><trkpt lat="42.953765" lon="12.2122531"><ele>552.0</ele><time>2026-05-02T08:22:05Z</time></trkpt><trkpt lat="42.953702" lon="12.2121617"><ele>552.0</ele><time>2026-05-02T08:22:05.999Z</time></trkpt><trkpt lat="42.9536356" lon="12.21209"><ele>552.0</ele><time>2026-05-02T08:22:07Z</time></trkpt><trkpt lat="42.9535541" lon="12.212027"><ele>552.0</ele><time>2026-05-02T08:22:08Z</time></trkpt><trkpt lat="42.9534511" lon="12.211969"><ele>552.0</ele><time>2026-05-02T08:22:09Z</time></trkpt><trkpt lat="42.9533387" lon="12.2119274"><ele>552.0</ele><time>2026-05-02T08:22:10Z</time></trkpt><trkpt lat="42.9532247" lon="12.2118801"><ele>554.4</ele><time>2026-05-02T08:22:11Z</time></trkpt><trkpt lat="42.9531143" lon="12.211824"><ele>556.8000000000001</ele><time>2026-05-02T08:22:11.999Z</time></trkpt><trkpt lat="42.9530054" lon="12.2117591"><ele>559.2</ele><time>2026-05-02T08:22:13Z</time></trkpt><trkpt lat="42.9529132" lon="12.2116817"><ele>561.6</ele><time>2026-05-02T08:22:14Z</time></trkpt><trkpt lat="42.9528254" lon="12.2116139"><ele>564.0</ele><time>2026-05-02T08:22:15Z</time></trkpt><trkpt lat="42.9527529" lon="12.2115417"><ele>565.8</ele><time>2026-05-02T08:22:16Z</time></trkpt><trkpt lat="42.9526852" lon="12.2114604"><ele>567.5999999999999</ele><time>2026-05-02T08:22:17Z</time></trkpt><trkpt lat="42.952626" lon="12.2113527"><ele>569.4</ele><time>2026-05-02T08:22:18Z</time></trkpt><trkpt lat="42.9525729" lon="12.2112314"><ele>571.1999999999999</ele><time>2026-05-02T08:22:19Z</time></trkpt><trkpt lat="42.9525241" lon="12.2111092"><ele>573.0</ele><time>2026-05-02T08:22:20Z</time></trkpt><trkpt lat="42.9524899" lon="12.2110088"><ele>573.0</ele><time>2026-05-02T08:22:20.999Z</time></trkpt><trkpt lat="42.9524776" lon="12.2109038"><ele>573.0</ele><time>2026-05-02T08:22:21.999Z</time></trkpt><trkpt lat="42.9524688" lon="12.2108033"><ele>573.0</ele><time>2026-05-02T08:22:23Z</time></trkpt><trkpt lat="42.9524781" lon="12.2107132"><ele>573.0</ele><time>2026-05-02T08:22:24Z</time></trkpt><trkpt lat="42.9524752" lon="12.2106208"><ele>573.0</ele><time>2026-05-02T08:22:25Z</time></trkpt><trkpt lat="42.9524811" lon="12.2104757"><ele>573.0</ele><time>2026-05-02T08:22:27Z</time></trkpt><trkpt lat="42.9524561" lon="12.2103608"><ele>573.0</ele><time>2026-05-02T08:22:30Z</time></trkpt><trkpt lat="42.952393" lon="12.2103525"><ele>573.0</ele><time>2026-05-02T08:22:33Z</time></trkpt><trkpt lat="42.9523722" lon="12.2104574"><ele>573.0</ele><time>2026-05-02T08:22:45Z</time></trkpt><trkpt lat="42.9523654" lon="12.2105484"><ele>573.0</ele><time>2026-05-02T08:22:48Z</time></trkpt><trkpt lat="42.9523615" lon="12.2106487"><ele>573.0</ele><time>2026-05-02T08:22:50Z</time></trkpt><trkpt lat="42.9523568" lon="12.2107701"><ele>573.0</ele><time>2026-05-02T08:22:52Z</time></trkpt><trkpt lat="42.9523437" lon="12.2109355"><ele>573.0</ele><time>2026-05-02T08:22:54Z</time></trkpt><trkpt lat="42.9522916" lon="12.2110538"><ele>573.0</ele><time>2026-05-02T08:22:56Z</time></trkpt><trkpt lat="42.9522013" lon="12.2111067"><ele>573.0</ele><time>2026-05-02T08:22:58Z</time></trkpt><trkpt lat="42.9520936" lon="12.2110951"><ele>573.0</ele><time>2026-05-02T08:23:00Z</time></trkpt><trkpt lat="42.952023" lon="12.2110796"><ele>573.0</ele><time>2026-05-02T08:23:01Z</time></trkpt><trkpt lat="42.9519502" lon="12.2110539"><ele>573.0</ele><time>2026-05-02T08:23:02Z</time></trkpt><trkpt lat="42.9518709" lon="12.2110242"><ele>573.0</ele><time>2026-05-02T08:23:03Z</time></trkpt><trkpt lat="42.9517863" lon="12.2109957"><ele>573.0</ele><time>2026-05-02T08:23:04Z</time></trkpt><trkpt lat="42.9516891" lon="12.2109788"><ele>573.0</ele><time>2026-05-02T08:23:04.999Z</time></trkpt><trkpt lat="42.9515919" lon="12.210957"><ele>573.0</ele><time>2026-05-02T08:23:05.999Z</time></trkpt><trkpt lat="42.951487" lon="12.2109383"><ele>574.0</ele><time>2026-05-02T08:23:07Z</time></trkpt><trkpt lat="42.9513763" lon="12.2109309"><ele>575.0</ele><time>2026-05-02T08:23:08Z</time></trkpt><trkpt lat="42.9512596" lon="12.2109337"><ele>576.0</ele><time>2026-05-02T08:23:09Z</time></trkpt><trkpt lat="42.951147" lon="12.2109427"><ele>577.0</ele><time>2026-05-02T08:23:10Z</time></trkpt><trkpt lat="42.9510497" lon="12.2109359"><ele>578.0</ele><time>2026-05-02T08:23:11Z</time></trkpt><trkpt lat="42.9509451" lon="12.2109344"><ele>577.5</ele><time>2026-05-02T08:23:11.999Z</time></trkpt><trkpt lat="42.9508406" lon="12.2109533"><ele>577.0</ele><time>2026-05-02T08:23:13Z</time></trkpt><trkpt lat="42.9507343" lon="12.2109852"><ele>576.5</ele><time>2026-05-02T08:23:14Z</time></trkpt><trkpt lat="42.9505694" lon="12.2109832"><ele>576.0</ele><time>2026-05-02T08:23:15.999Z</time></trkpt><trkpt lat="42.9504831" lon="12.2109535"><ele>576.0</ele><time>2026-05-02T08:23:17Z</time></trkpt><trkpt lat="42.9503854" lon="12.2109493"><ele>576.0</ele><time>2026-05-02T08:23:18Z</time></trkpt><trkpt lat="42.9502761" lon="12.2109706"><ele>576.0</ele><time>2026-05-02T08:23:19Z</time></trkpt><trkpt lat="42.9501749" lon="12.2110068"><ele>576.0</ele><time>2026-05-02T08:23:19.999Z</time></trkpt><trkpt lat="42.9500751" lon="12.2110487"><ele>576.0</ele><time>2026-05-02T08:23:21Z</time></trkpt><trkpt lat="42.949972" lon="12.2110655"><ele>574.5</ele><time>2026-05-02T08:23:22Z</time></trkpt><trkpt lat="42.9498751" lon="12.2110717"><ele>573.0</ele><time>2026-05-02T08:23:23Z</time></trkpt><trkpt lat="42.9497723" lon="12.2110694"><ele>571.5</ele><time>2026-05-02T08:23:23.999Z</time></trkpt><trkpt lat="42.9495779" lon="12.2110159"><ele>570.0</ele><time>2026-05-02T08:23:26Z</time></trkpt><trkpt lat="42.9494584" lon="12.2109817"><ele>570.0</ele><time>2026-05-02T08:23:27Z</time></trkpt><trkpt lat="42.9493481" lon="12.2109278"><ele>570.0</ele><time>2026-05-02T08:23:27.999Z</time></trkpt><trkpt lat="42.9492359" lon="12.2108711"><ele>570.0</ele><time>2026-05-02T08:23:28.999Z</time></trkpt><trkpt lat="42.9491336" lon="12.2108153"><ele>570.0</ele><time>2026-05-02T08:23:29.999Z</time></trkpt><trkpt lat="42.9490613" lon="12.2107847"><ele>570.0</ele><time>2026-05-02T08:23:31Z</time></trkpt><trkpt lat="42.94899" lon="12.2107701"><ele>569.4285714285714</ele><time>2026-05-02T08:23:32Z</time></trkpt><trkpt lat="42.9489211" lon="12.210779"><ele>568.8571428571429</ele><time>2026-05-02T08:23:33Z</time></trkpt><trkpt lat="42.9488514" lon="12.2107893"><ele>568.2857142857143</ele><time>2026-05-02T08:23:34Z</time></trkpt><trkpt lat="42.9487785" lon="12.2108025"><ele>567.7142857142858</ele><time>2026-05-02T08:23:35Z</time></trkpt><trkpt lat="42.948706" lon="12.2108157"><ele>567.1428571428572</ele><time>2026-05-02T08:23:36Z</time></trkpt><trkpt lat="42.948624" lon="12.2108195"><ele>566.5714285714286</ele><time>2026-05-02T08:23:36.999Z</time></trkpt><trkpt lat="42.9485518" lon="12.2108144"><ele>566.0</ele><time>2026-05-02T08:23:38Z</time></trkpt><trkpt lat="42.9484751" lon="12.2108174"><ele>566.0</ele><time>2026-05-02T08:23:39Z</time></trkpt><trkpt lat="42.9484" lon="12.2108201"><ele>566.0</ele><time>2026-05-02T08:23:40Z</time></trkpt><trkpt lat="42.9483126" lon="12.2108242"><ele>566.0</ele><time>2026-05-02T08:23:41Z</time></trkpt><trkpt lat="42.9482352" lon="12.2108219"><ele>566.0</ele><time>2026-05-02T08:23:42Z</time></trkpt><trkpt lat="42.9481458" lon="12.2108215"><ele>566.0</ele><time>2026-05-02T08:23:42.999Z</time></trkpt><trkpt lat="42.948066" lon="12.2108257"><ele>566.0</ele><time>2026-05-02T08:23:44Z</time></trkpt><trkpt lat="42.9479878" lon="12.2108212"><ele>565.5</ele><time>2026-05-02T08:23:45Z</time></trkpt><trkpt lat="42.9479202" lon="12.2108061"><ele>565.0</ele><time>2026-05-02T08:23:46Z</time></trkpt><trkpt lat="42.9478405" lon="12.2107921"><ele>564.5</ele><time>2026-05-02T08:23:47Z</time></trkpt><trkpt lat="42.9477736" lon="12.2107743"><ele>564.0</ele><time>2026-05-02T08:23:48Z</time></trkpt><trkpt lat="42.947693" lon="12.210752"><ele>563.5</ele><time>2026-05-02T08:23:49Z</time></trkpt><trkpt lat="42.9476163" lon="12.2107368"><ele>563.0</ele><time>2026-05-02T08:23:50Z</time></trkpt><trkpt lat="42.9475418" lon="12.2107105"><ele>560.8</ele><time>2026-05-02T08:23:51Z</time></trkpt><trkpt lat="42.9474586" lon="12.2107041"><ele>558.5999999999999</ele><time>2026-05-02T08:23:52Z</time></trkpt><trkpt lat="42.947387" lon="12.2106985"><ele>556.4000000000001</ele><time>2026-05-02T08:23:53Z</time></trkpt><trkpt lat="42.9472507" lon="12.2106806"><ele>554.2</ele><time>2026-05-02T08:23:54.999Z</time></trkpt><trkpt lat="42.9471213" lon="12.2106542"><ele>552.0</ele><time>2026-05-02T08:23:57Z</time></trkpt><trkpt lat="42.9470491" lon="12.2106517"><ele>550.6666666666666</ele><time>2026-05-02T08:23:58Z</time></trkpt><trkpt lat="42.9469829" lon="12.2106399"><ele>549.3333333333334</ele><time>2026-05-02T08:23:58.999Z</time></trkpt><trkpt lat="42.946908" lon="12.2106184"><ele>548.0</ele><time>2026-05-02T08:24:00Z</time></trkpt><trkpt lat="42.9468431" lon="12.2105828"><ele>546.6666666666667</ele><time>2026-05-02T08:24:01Z</time></trkpt><trkpt lat="42.9467637" lon="12.2105486"><ele>545.3333333333334</ele><time>2026-05-02T08:24:02Z</time></trkpt><trkpt lat="42.9466701" lon="12.2105088"><ele>544.0</ele><time>2026-05-02T08:24:02.999Z</time></trkpt><trkpt lat="42.9465825" lon="12.210467"><ele>543.4</ele><time>2026-05-02T08:24:04Z</time></trkpt><trkpt lat="42.9464921" lon="12.2104137"><ele>542.8</ele><time>2026-05-02T08:24:05Z</time></trkpt><trkpt lat="42.946392" lon="12.2103829"><ele>542.2</ele><time>2026-05-02T08:24:06Z</time></trkpt><trkpt lat="42.9463063" lon="12.2103713"><ele>541.6</ele><time>2026-05-02T08:24:07Z</time></trkpt><trkpt lat="42.9462227" lon="12.2103813"><ele>541.0</ele><time>2026-05-02T08:24:08Z</time></trkpt><trkpt lat="42.9461415" lon="12.2104044"><ele>541.0</ele><time>2026-05-02T08:24:09Z</time></trkpt><trkpt lat="42.946057" lon="12.2104331"><ele>541.0</ele><time>2026-05-02T08:24:10Z</time></trkpt><trkpt lat="42.9459721" lon="12.2104478"><ele>541.0</ele><time>2026-05-02T08:24:11Z</time></trkpt><trkpt lat="42.9458906" lon="12.2104469"><ele>541.0</ele><time>2026-05-02T08:24:12Z</time></trkpt><trkpt lat="42.94579" lon="12.2104197"><ele>541.0</ele><time>2026-05-02T08:24:13Z</time></trkpt><trkpt lat="42.9456653" lon="12.2103948"><ele>540.8</ele><time>2026-05-02T08:24:13.999Z</time></trkpt><trkpt lat="42.945549" lon="12.2103694"><ele>540.6</ele><time>2026-05-02T08:24:15Z</time></trkpt><trkpt lat="42.9454436" lon="12.2103585"><ele>540.4</ele><time>2026-05-02T08:24:16Z</time></trkpt><trkpt lat="42.9453564" lon="12.2103492"><ele>540.2</ele><time>2026-05-02T08:24:17Z</time></trkpt><trkpt lat="42.9452781" lon="12.2103473"><ele>540.0</ele><time>2026-05-02T08:24:18Z</time></trkpt><trkpt lat="42.9452012" lon="12.2103356"><ele>540.0</ele><time>2026-05-02T08:24:18.999Z</time></trkpt><trkpt lat="42.9451397" lon="12.2103144"><ele>540.0</ele><time>2026-05-02T08:24:20Z</time></trkpt><trkpt lat="42.9450389" lon="12.2102219"><ele>540.0</ele><time>2026-05-02T08:24:22Z</time></trkpt><trkpt lat="42.9449495" lon="12.2101212"><ele>540.0</ele><time>2026-05-02T08:24:24Z</time></trkpt><trkpt lat="42.9449094" lon="12.2100169"><ele>540.0</ele><time>2026-05-02T08:24:26Z</time></trkpt><trkpt lat="42.9448691" lon="12.2099416"><ele>539.3333333333334</ele><time>2026-05-02T08:24:29Z</time></trkpt><trkpt lat="42.9449221" lon="12.2098722"><ele>538.6666666666666</ele><time>2026-05-02T08:24:33Z</time></trkpt><trkpt lat="42.9449868" lon="12.2098374"><ele>538.0</ele><time>2026-05-02T08:24:35Z</time></trkpt><trkpt lat="42.9450705" lon="12.2098095"><ele>537.3333333333333</ele><time>2026-05-02T08:24:37Z</time></trkpt><trkpt lat="42.9451432" lon="12.2097908"><ele>536.6666666666666</ele><time>2026-05-02T08:24:39Z</time></trkpt><trkpt lat="42.9452185" lon="12.2097693"><ele>536.0</ele><time>2026-05-02T08:24:41Z</time></trkpt><trkpt lat="42.9452885" lon="12.2097623"><ele>534.4</ele><time>2026-05-02T08:24:51.999Z</time></trkpt><trkpt lat="42.945353" lon="12.209743"><ele>532.8</ele><time>2026-05-02T08:24:53Z</time></trkpt><trkpt lat="42.9454537" lon="12.2097225"><ele>531.1999999999999</ele><time>2026-05-02T08:24:55Z</time></trkpt><trkpt lat="42.945566" lon="12.2096854"><ele>529.6</ele><time>2026-05-02T08:24:57Z</time></trkpt><trkpt lat="42.9456469" lon="12.2096578"><ele>528.0</ele><time>2026-05-02T08:24:59Z</time></trkpt><trkpt lat="42.9457448" lon="12.209623"><ele>528.0</ele><time>2026-05-02T08:25:00.999Z</time></trkpt><trkpt lat="42.9458251" lon="12.2095964"><ele>528.0</ele><time>2026-05-02T08:25:03Z</time></trkpt><trkpt lat="42.9458808" lon="12.2095511"><ele>528.0</ele><time>2026-05-02T08:25:05Z</time></trkpt><trkpt lat="42.9459283" lon="12.2094811"><ele>528.0</ele><time>2026-05-02T08:25:07Z</time></trkpt><trkpt lat="42.9459988" lon="12.2093973"><ele>528.0</ele><time>2026-05-02T08:25:09Z</time></trkpt><trkpt lat="42.9460673" lon="12.2093133"><ele>528.0</ele><time>2026-05-02T08:25:11Z</time></trkpt><trkpt lat="42.9461341" lon="12.2092359"><ele>528.0</ele><time>2026-05-02T08:25:13Z</time></trkpt><trkpt lat="42.9462042" lon="12.2091717"><ele>528.0</ele><time>2026-05-02T08:25:15Z</time></trkpt><trkpt lat="42.9463057" lon="12.2090852"><ele>528.0</ele><time>2026-05-02T08:25:17Z</time></trkpt><trkpt lat="42.94642" lon="12.2090125"><ele>528.0</ele><time>2026-05-02T08:25:18.999Z</time></trkpt><trkpt lat="42.9465443" lon="12.208958"><ele>528.8333333333334</ele><time>2026-05-02T08:25:21Z</time></trkpt><trkpt lat="42.946608" lon="12.2089453"><ele>529.6666666666666</ele><time>2026-05-02T08:25:22Z</time></trkpt><trkpt lat="42.9466912" lon="12.2089547"><ele>530.5</ele><time>2026-05-02T08:25:22.999Z</time></trkpt><trkpt lat="42.9467646" lon="12.2089878"><ele>531.3333333333333</ele><time>2026-05-02T08:25:24Z</time></trkpt><trkpt lat="42.9468345" lon="12.2090261"><ele>532.1666666666666</ele><time>2026-05-02T08:25:25Z</time></trkpt><trkpt lat="42.9469018" lon="12.2090513"><ele>533.0</ele><time>2026-05-02T08:25:26Z</time></trkpt><trkpt lat="42.9470172" lon="12.2090327"><ele>530.5</ele><time>2026-05-02T08:25:28Z</time></trkpt><trkpt lat="42.9471031" lon="12.2089305"><ele>528.0</ele><time>2026-05-02T08:25:30Z</time></trkpt><trkpt lat="42.9471517" lon="12.2088355"><ele>525.5</ele><time>2026-05-02T08:25:31Z</time></trkpt><trkpt lat="42.9471874" lon="12.2087429"><ele>523.0</ele><time>2026-05-02T08:25:32Z</time></trkpt><trkpt lat="42.9472291" lon="12.2086375"><ele>520.5</ele><time>2026-05-02T08:25:33Z</time></trkpt><trkpt lat="42.9472689" lon="12.208535"><ele>518.0</ele><time>2026-05-02T08:25:34Z</time></trkpt><trkpt lat="42.9473065" lon="12.2084307"><ele>518.0</ele><time>2026-05-02T08:25:35Z</time></trkpt><trkpt lat="42.9473455" lon="12.2083409"><ele>518.0</ele><time>2026-05-02T08:25:36Z</time></trkpt><trkpt lat="42.9474017" lon="12.2082525"><ele>518.0</ele><time>2026-05-02T08:25:36.999Z</time></trkpt><trkpt lat="42.9474724" lon="12.2081824"><ele>518.0</ele><time>2026-05-02T08:25:38Z</time></trkpt><trkpt lat="42.9475548" lon="12.2080972"><ele>518.0</ele><time>2026-05-02T08:25:39Z</time></trkpt><trkpt lat="42.9476424" lon="12.2080047"><ele>517.8333333333333</ele><time>2026-05-02T08:25:40Z</time></trkpt><trkpt lat="42.9477226" lon="12.2079173"><ele>517.6666666666666</ele><time>2026-05-02T08:25:41Z</time></trkpt><trkpt lat="42.9477804" lon="12.2078405"><ele>517.5</ele><time>2026-05-02T08:25:42Z</time></trkpt><trkpt lat="42.9478183" lon="12.2077519"><ele>517.3333333333334</ele><time>2026-05-02T08:25:43Z</time></trkpt><trkpt lat="42.9478452" lon="12.2076445"><ele>517.1666666666667</ele><time>2026-05-02T08:25:44Z</time></trkpt><trkpt lat="42.9478575" lon="12.2075412"><ele>517.0</ele><time>2026-05-02T08:25:45Z</time></trkpt><trkpt lat="42.9478748" lon="12.2074523"><ele>517.0</ele><time>2026-05-02T08:25:46Z</time></trkpt><trkpt lat="42.9479121" lon="12.2073819"><ele>517.0</ele><time>2026-05-02T08:25:47Z</time></trkpt><trkpt lat="42.9479671" lon="12.2073392"><ele>517.0</ele><time>2026-05-02T08:25:48Z</time></trkpt><trkpt lat="42.9480827" lon="12.2073308"><ele>517.0</ele><time>2026-05-02T08:25:50Z</time></trkpt><trkpt lat="42.9481497" lon="12.2073789"><ele>517.0</ele><time>2026-05-02T08:25:50.999Z</time></trkpt><trkpt lat="42.9482186" lon="12.2074545"><ele>517.0</ele><time>2026-05-02T08:25:51.999Z</time></trkpt><trkpt lat="42.9482964" lon="12.2075515"><ele>517.0</ele><time>2026-05-02T08:25:53Z</time></trkpt><trkpt lat="42.9483751" lon="12.2076442"><ele>517.0</ele><time>2026-05-02T08:25:54Z</time></trkpt><trkpt lat="42.9484586" lon="12.2077466"><ele>517.0</ele><time>2026-05-02T08:25:55Z</time></trkpt><trkpt lat="42.9485448" lon="12.2078365"><ele>517.0</ele><time>2026-05-02T08:25:56Z</time></trkpt><trkpt lat="42.9486311" lon="12.2079112"><ele>517.0</ele><time>2026-05-02T08:25:57Z</time></trkpt><trkpt lat="42.9487093" lon="12.2079775"><ele>517.1666666666667</ele><time>2026-05-02T08:25:58Z</time></trkpt><trkpt lat="42.9487845" lon="12.2080381"><ele>517.3333333333334</ele><time>2026-05-02T08:25:59Z</time></trkpt><trkpt lat="42.9488564" lon="12.2080875"><ele>517.5</ele><time>2026-05-02T08:26:00Z</time></trkpt><trkpt lat="42.9489357" lon="12.2081319"><ele>517.6666666666666</ele><time>2026-05-02T08:26:01Z</time></trkpt><trkpt lat="42.9490114" lon="12.2081689"><ele>517.8333333333333</ele><time>2026-05-02T08:26:02Z</time></trkpt><trkpt lat="42.949082" lon="12.2082001"><ele>518.0</ele><time>2026-05-02T08:26:03Z</time></trkpt><trkpt lat="42.9491407" lon="12.2082392"><ele>517.6</ele><time>2026-05-02T08:26:04Z</time></trkpt><trkpt lat="42.9492126" lon="12.2083866"><ele>517.1999999999999</ele><time>2026-05-02T08:26:06Z</time></trkpt><trkpt lat="42.9492484" lon="12.2084643"><ele>516.8</ele><time>2026-05-02T08:26:06.999Z</time></trkpt><trkpt lat="42.9493404" lon="12.2085417"><ele>516.4</ele><time>2026-05-02T08:26:09Z</time></trkpt><trkpt lat="42.9494517" lon="12.208492"><ele>516.0</ele><time>2026-05-02T08:26:11Z</time></trkpt><trkpt lat="42.949512" lon="12.2084358"><ele>516.0</ele><time>2026-05-02T08:26:12Z</time></trkpt><trkpt lat="42.9495747" lon="12.2083813"><ele>516.0</ele><time>2026-05-02T08:26:13Z</time></trkpt><trkpt lat="42.9496497" lon="12.2083531"><ele>516.0</ele><time>2026-05-02T08:26:14Z</time></trkpt><trkpt lat="42.9497385" lon="12.2083408"><ele>516.0</ele><time>2026-05-02T08:26:15Z</time></trkpt><trkpt lat="42.9498127" lon="12.2083239"><ele>516.0</ele><time>2026-05-02T08:26:16Z</time></trkpt><trkpt lat="42.9498888" lon="12.2083045"><ele>516.0</ele><time>2026-05-02T08:26:17Z</time></trkpt><trkpt lat="42.9499728" lon="12.2082083"><ele>516.0</ele><time>2026-05-02T08:26:19Z</time></trkpt><trkpt lat="42.9499947" lon="12.2080486"><ele>516.0</ele><time>2026-05-02T08:26:21Z</time></trkpt><trkpt lat="42.9499666" lon="12.2079475"><ele>516.0</ele><time>2026-05-02T08:26:22Z</time></trkpt><trkpt lat="42.9499206" lon="12.2078545"><ele>516.0</ele><time>2026-05-02T08:26:23Z</time></trkpt><trkpt lat="42.9498763" lon="12.2077431"><ele>516.0</ele><time>2026-05-02T08:26:24Z</time></trkpt><trkpt lat="42.9498359" lon="12.2076222"><ele>516.0</ele><time>2026-05-02T08:26:25Z</time></trkpt><trkpt lat="42.9497932" lon="12.2074847"><ele>516.0</ele><time>2026-05-02T08:26:26Z</time></trkpt><trkpt lat="42.9497533" lon="12.2073326"><ele>516.0</ele><time>2026-05-02T08:26:27Z</time></trkpt><trkpt lat="42.9497124" lon="12.2071672"><ele>516.0</ele><time>2026-05-02T08:26:28Z</time></trkpt><trkpt lat="42.9496894" lon="12.2069924"><ele>517.75</ele><time>2026-05-02T08:26:29Z</time></trkpt><trkpt lat="42.9496835" lon="12.2068048"><ele>519.5</ele><time>2026-05-02T08:26:30Z</time></trkpt><trkpt lat="42.9496708" lon="12.2065876"><ele>521.25</ele><time>2026-05-02T08:26:31Z</time></trkpt><trkpt lat="42.9496508" lon="12.2063949"><ele>523.0</ele><time>2026-05-02T08:26:32Z</time></trkpt><trkpt lat="42.9496337" lon="12.2062165"><ele>523.25</ele><time>2026-05-02T08:26:33Z</time></trkpt><trkpt lat="42.9496228" lon="12.2060432"><ele>523.5</ele><time>2026-05-02T08:26:34Z</time></trkpt><trkpt lat="42.9496122" lon="12.2058738"><ele>523.75</ele><time>2026-05-02T08:26:35Z</time></trkpt><trkpt lat="42.9496119" lon="12.2057088"><ele>524.0</ele><time>2026-05-02T08:26:36Z</time></trkpt><trkpt lat="42.9496197" lon="12.2055561"><ele>522.4</ele><time>2026-05-02T08:26:37Z</time></trkpt><trkpt lat="42.9496302" lon="12.2054173"><ele>520.8</ele><time>2026-05-02T08:26:38Z</time></trkpt><trkpt lat="42.9496572" lon="12.2052812"><ele>519.2</ele><time>2026-05-02T08:26:39Z</time></trkpt><trkpt lat="42.9497024" lon="12.2051448"><ele>517.6</ele><time>2026-05-02T08:26:39.999Z</time></trkpt><trkpt lat="42.9497526" lon="12.2050382"><ele>516.0</ele><time>2026-05-02T08:26:41Z</time></trkpt><trkpt lat="42.9497971" lon="12.2049611"><ele>516.0</ele><time>2026-05-02T08:26:42Z</time></trkpt><trkpt lat="42.9498725" lon="12.2048865"><ele>516.0</ele><time>2026-05-02T08:26:43Z</time></trkpt><trkpt lat="42.9499522" lon="12.2048171"><ele>516.0</ele><time>2026-05-02T08:26:44Z</time></trkpt><trkpt lat="42.95004" lon="12.2047548"><ele>516.0</ele><time>2026-05-02T08:26:45Z</time></trkpt><trkpt lat="42.950144" lon="12.2046853"><ele>516.0</ele><time>2026-05-02T08:26:45.999Z</time></trkpt><trkpt lat="42.9502502" lon="12.2046211"><ele>514.5</ele><time>2026-05-02T08:26:47Z</time></trkpt><trkpt lat="42.950363" lon="12.2045606"><ele>513.0</ele><time>2026-05-02T08:26:48Z</time></trkpt><trkpt lat="42.9504995" lon="12.2044894"><ele>511.5</ele><time>2026-05-02T08:26:49Z</time></trkpt><trkpt lat="42.9506483" lon="12.2044288"><ele>510.0</ele><time>2026-05-02T08:26:50Z</time></trkpt><trkpt lat="42.9508269" lon="12.2043396"><ele>509.4</ele><time>2026-05-02T08:26:51Z</time></trkpt><trkpt lat="42.9509593" lon="12.2042805"><ele>508.8</ele><time>2026-05-02T08:26:52Z</time></trkpt><trkpt lat="42.9510755" lon="12.204221"><ele>508.20000000000005</ele><time>2026-05-02T08:26:53Z</time></trkpt><trkpt lat="42.9511553" lon="12.2041522"><ele>507.6</ele><time>2026-05-02T08:26:53.999Z</time></trkpt><trkpt lat="42.9512133" lon="12.2040991"><ele>507.0</ele><time>2026-05-02T08:26:55Z</time></trkpt><trkpt lat="42.951261" lon="12.2040328"><ele>506.0</ele><time>2026-05-02T08:26:56Z</time></trkpt><trkpt lat="42.9513047" lon="12.2039509"><ele>505.00000000000006</ele><time>2026-05-02T08:26:57Z</time></trkpt><trkpt lat="42.951343" lon="12.203842"><ele>504.00000000000006</ele><time>2026-05-02T08:26:58Z</time></trkpt><trkpt lat="42.9513853" lon="12.2037119"><ele>503.0</ele><time>2026-05-02T08:26:59Z</time></trkpt><trkpt lat="42.9514149" lon="12.2035764"><ele>502.0</ele><time>2026-05-02T08:27:00Z</time></trkpt><trkpt lat="42.9514411" lon="12.2034297"><ele>502.0</ele><time>2026-05-02T08:27:01Z</time></trkpt><trkpt lat="42.9514704" lon="12.2032808"><ele>502.00000000000006</ele><time>2026-05-02T08:27:02Z</time></trkpt><trkpt lat="42.9515007" lon="12.2031414"><ele>502.00000000000006</ele><time>2026-05-02T08:27:03Z</time></trkpt><trkpt lat="42.951526" lon="12.2029996"><ele>502.0</ele><time>2026-05-02T08:27:04Z</time></trkpt><trkpt lat="42.9515472" lon="12.2028681"><ele>502.0</ele><time>2026-05-02T08:27:05Z</time></trkpt><trkpt lat="42.951569" lon="12.2027346"><ele>501.6666666666667</ele><time>2026-05-02T08:27:06Z</time></trkpt><trkpt lat="42.9515851" lon="12.2026124"><ele>501.33333333333337</ele><time>2026-05-02T08:27:07Z</time></trkpt><trkpt lat="42.9516089" lon="12.2024877"><ele>501.0</ele><time>2026-05-02T08:27:08Z</time></trkpt><trkpt lat="42.9516329" lon="12.2023698"><ele>500.66666666666663</ele><time>2026-05-02T08:27:09Z</time></trkpt><trkpt lat="42.9516514" lon="12.2022525"><ele>500.3333333333333</ele><time>2026-05-02T08:27:10Z</time></trkpt><trkpt lat="42.9516665" lon="12.2021452"><ele>500.0</ele><time>2026-05-02T08:27:11Z</time></trkpt><trkpt lat="42.951686" lon="12.2020383"><ele>500.0</ele><time>2026-05-02T08:27:12Z</time></trkpt><trkpt lat="42.9517042" lon="12.2019336"><ele>500.0</ele><time>2026-05-02T08:27:13Z</time></trkpt><trkpt lat="42.9517186" lon="12.2018363"><ele>500.0</ele><time>2026-05-02T08:27:14Z</time></trkpt><trkpt lat="42.9517181" lon="12.2017415"><ele>500.0</ele><time>2026-05-02T08:27:15Z</time></trkpt><trkpt lat="42.9517036" lon="12.2016453"><ele>500.0</ele><time>2026-05-02T08:27:16Z</time></trkpt><trkpt lat="42.9516685" lon="12.2015603"><ele>500.0</ele><time>2026-05-02T08:27:17Z</time></trkpt><trkpt lat="42.9516146" lon="12.2014786"><ele>500.0</ele><time>2026-05-02T08:27:18Z</time></trkpt><trkpt lat="42.9515489" lon="12.2014066"><ele>501.4</ele><time>2026-05-02T08:27:19Z</time></trkpt><trkpt lat="42.9514796" lon="12.2013344"><ele>502.8</ele><time>2026-05-02T08:27:20Z</time></trkpt><trkpt lat="42.9514079" lon="12.2012511"><ele>504.20000000000005</ele><time>2026-05-02T08:27:21Z</time></trkpt><trkpt lat="42.951334" lon="12.2011645"><ele>505.6</ele><time>2026-05-02T08:27:22Z</time></trkpt><trkpt lat="42.9512606" lon="12.2010712"><ele>507.0</ele><time>2026-05-02T08:27:23Z</time></trkpt><trkpt lat="42.9511952" lon="12.2009873"><ele>507.0</ele><time>2026-05-02T08:27:24Z</time></trkpt><trkpt lat="42.9511328" lon="12.200915"><ele>507.0</ele><time>2026-05-02T08:27:24.999Z</time></trkpt><trkpt lat="42.9510703" lon="12.2008344"><ele>507.0</ele><time>2026-05-02T08:27:26Z</time></trkpt><trkpt lat="42.9510072" lon="12.2007487"><ele>507.0</ele><time>2026-05-02T08:27:26.999Z</time></trkpt><trkpt lat="42.9509604" lon="12.2006565"><ele>507.0</ele><time>2026-05-02T08:27:28Z</time></trkpt><trkpt lat="42.9509255" lon="12.2005472"><ele>507.0</ele><time>2026-05-02T08:27:29Z</time></trkpt><trkpt lat="42.9509008" lon="12.2004261"><ele>506.8</ele><time>2026-05-02T08:27:29.999Z</time></trkpt><trkpt lat="42.9508851" lon="12.2002866"><ele>506.6</ele><time>2026-05-02T08:27:31Z</time></trkpt><trkpt lat="42.9508609" lon="12.2001434"><ele>506.40000000000003</ele><time>2026-05-02T08:27:32Z</time></trkpt><trkpt lat="42.9508446" lon="12.1999884"><ele>506.20000000000005</ele><time>2026-05-02T08:27:33Z</time></trkpt><trkpt lat="42.9508181" lon="12.1998231"><ele>506.0</ele><time>2026-05-02T08:27:34Z</time></trkpt><trkpt lat="42.9508024" lon="12.1996644"><ele>507.16666666666663</ele><time>2026-05-02T08:27:35Z</time></trkpt><trkpt lat="42.950798" lon="12.1995287"><ele>508.3333333333333</ele><time>2026-05-02T08:27:36Z</time></trkpt><trkpt lat="42.9508012" lon="12.1994247"><ele>509.5</ele><time>2026-05-02T08:27:37Z</time></trkpt><trkpt lat="42.9508059" lon="12.1992866"><ele>510.66666666666663</ele><time>2026-05-02T08:27:39Z</time></trkpt><trkpt lat="42.9507774" lon="12.1991997"><ele>511.8333333333333</ele><time>2026-05-02T08:27:41Z</time></trkpt><trkpt lat="42.9506778" lon="12.1991763"><ele>513.0</ele><time>2026-05-02T08:27:44Z</time></trkpt><trkpt lat="42.9505605" lon="12.199194"><ele>513.0000000000001</ele><time>2026-05-02T08:27:46Z</time></trkpt><trkpt lat="42.9504977" lon="12.1992067"><ele>513.0</ele><time>2026-05-02T08:27:47Z</time></trkpt><trkpt lat="42.9504258" lon="12.1992143"><ele>513.0</ele><time>2026-05-02T08:27:48Z</time></trkpt><trkpt lat="42.9503554" lon="12.1992189"><ele>513.0</ele><time>2026-05-02T08:27:48.999Z</time></trkpt><trkpt lat="42.9502807" lon="12.1992349"><ele>513.0</ele><time>2026-05-02T08:27:50Z</time></trkpt><trkpt lat="42.9502033" lon="12.1992279"><ele>513.0000000000001</ele><time>2026-05-02T08:27:51Z</time></trkpt><trkpt lat="42.9501327" lon="12.1991969"><ele>513.0</ele><time>2026-05-02T08:27:52Z</time></trkpt><trkpt lat="42.9500603" lon="12.1991502"><ele>512.1666666666666</ele><time>2026-05-02T08:27:53Z</time></trkpt><trkpt lat="42.9499885" lon="12.1990971"><ele>511.33333333333337</ele><time>2026-05-02T08:27:54Z</time></trkpt><trkpt lat="42.9499263" lon="12.1990332"><ele>510.5</ele><time>2026-05-02T08:27:55Z</time></trkpt><trkpt lat="42.9498626" lon="12.1989655"><ele>509.6666666666667</ele><time>2026-05-02T08:27:56Z</time></trkpt><trkpt lat="42.9497984" lon="12.1988936"><ele>508.83333333333337</ele><time>2026-05-02T08:27:57Z</time></trkpt><trkpt lat="42.9497285" lon="12.198814"><ele>508.0</ele><time>2026-05-02T08:27:58Z</time></trkpt><trkpt lat="42.9496495" lon="12.1987389"><ele>508.0</ele><time>2026-05-02T08:27:59Z</time></trkpt><trkpt lat="42.9495677" lon="12.1986635"><ele>507.99999999999994</ele><time>2026-05-02T08:28:00Z</time></trkpt><trkpt lat="42.9494741" lon="12.1985745"><ele>507.99999999999994</ele><time>2026-05-02T08:28:00.999Z</time></trkpt><trkpt lat="42.9493818" lon="12.1984923"><ele>508.0</ele><time>2026-05-02T08:28:02Z</time></trkpt><trkpt lat="42.9493003" lon="12.1984175"><ele>508.0</ele><time>2026-05-02T08:28:03Z</time></trkpt><trkpt lat="42.9492171" lon="12.1983612"><ele>506.0</ele><time>2026-05-02T08:28:04Z</time></trkpt><trkpt lat="42.9491314" lon="12.1983312"><ele>503.99999999999994</ele><time>2026-05-02T08:28:04.999Z</time></trkpt><trkpt lat="42.9490397" lon="12.1983382"><ele>501.99999999999994</ele><time>2026-05-02T08:28:06Z</time></trkpt><trkpt lat="42.9489387" lon="12.1983651"><ele>500.0</ele><time>2026-05-02T08:28:07Z</time></trkpt><trkpt lat="42.9488345" lon="12.1983904"><ele>498.0</ele><time>2026-05-02T08:28:08Z</time></trkpt><trkpt lat="42.9487308" lon="12.1984257"><ele>498.0</ele><time>2026-05-02T08:28:09Z</time></trkpt><trkpt lat="42.9486287" lon="12.1984427"><ele>497.99999999999994</ele><time>2026-05-02T08:28:10Z</time></trkpt><trkpt lat="42.9485287" lon="12.1984542"><ele>497.99999999999994</ele><time>2026-05-02T08:28:11Z</time></trkpt><trkpt lat="42.9484189" lon="12.1984699"><ele>498.0</ele><time>2026-05-02T08:28:12Z</time></trkpt><trkpt lat="42.9483163" lon="12.198482"><ele>498.0</ele><time>2026-05-02T08:28:13Z</time></trkpt><trkpt lat="42.948208" lon="12.1984948"><ele>499.6666666666667</ele><time>2026-05-02T08:28:14Z</time></trkpt><trkpt lat="42.9481048" lon="12.1985153"><ele>501.33333333333337</ele><time>2026-05-02T08:28:14.999Z</time></trkpt><trkpt lat="42.948019" lon="12.198528"><ele>503.0</ele><time>2026-05-02T08:28:16Z</time></trkpt><trkpt lat="42.9479388" lon="12.1985324"><ele>504.6666666666667</ele><time>2026-05-02T08:28:17Z</time></trkpt><trkpt lat="42.9478553" lon="12.1985426"><ele>506.33333333333337</ele><time>2026-05-02T08:28:18Z</time></trkpt><trkpt lat="42.9477701" lon="12.1985527"><ele>508.0</ele><time>2026-05-02T08:28:19Z</time></trkpt><trkpt lat="42.9477007" lon="12.1985814"><ele>508.00000000000006</ele><time>2026-05-02T08:28:20Z</time></trkpt><trkpt lat="42.9476357" lon="12.1986418"><ele>508.0</ele><time>2026-05-02T08:28:20.999Z</time></trkpt><trkpt lat="42.9475843" lon="12.1987134"><ele>508.0</ele><time>2026-05-02T08:28:21.999Z</time></trkpt><trkpt lat="42.9475344" lon="12.1987902"><ele>508.0</ele><time>2026-05-02T08:28:22.999Z</time></trkpt><trkpt lat="42.9475031" lon="12.1988657"><ele>508.00000000000006</ele><time>2026-05-02T08:28:24Z</time></trkpt><trkpt lat="42.9474058" lon="12.1989406"><ele>508.0</ele><time>2026-05-02T08:28:26Z</time></trkpt><trkpt lat="42.9473246" lon="12.1988938"><ele>509.50000000000006</ele><time>2026-05-02T08:28:28Z</time></trkpt><trkpt lat="42.9472864" lon="12.198822"><ele>511.0</ele><time>2026-05-02T08:28:28.999Z</time></trkpt><trkpt lat="42.9472362" lon="12.198739"><ele>512.5</ele><time>2026-05-02T08:28:30Z</time></trkpt><trkpt lat="42.9471706" lon="12.1986564"><ele>514.0</ele><time>2026-05-02T08:28:31Z</time></trkpt><trkpt lat="42.9471144" lon="12.1985671"><ele>515.5</ele><time>2026-05-02T08:28:32Z</time></trkpt><trkpt lat="42.9470694" lon="12.1984834"><ele>517.0</ele><time>2026-05-02T08:28:33Z</time></trkpt><trkpt lat="42.9470056" lon="12.1983422"><ele>517.0</ele><time>2026-05-02T08:28:35Z</time></trkpt><trkpt lat="42.9469655" lon="12.1982012"><ele>517.0</ele><time>2026-05-02T08:28:37Z</time></trkpt><trkpt lat="42.9469773" lon="12.198044"><ele>517.0</ele><time>2026-05-02T08:28:39Z</time></trkpt><trkpt lat="42.9470166" lon="12.1978724"><ele>517.0</ele><time>2026-05-02T08:28:40Z</time></trkpt><trkpt lat="42.9470453" lon="12.1977286"><ele>519.2</ele><time>2026-05-02T08:28:41Z</time></trkpt><trkpt lat="42.9470758" lon="12.1975885"><ele>521.4000000000001</ele><time>2026-05-02T08:28:42Z</time></trkpt><trkpt lat="42.9471107" lon="12.1974501"><ele>523.5999999999999</ele><time>2026-05-02T08:28:42.999Z</time></trkpt><trkpt lat="42.9471406" lon="12.197311"><ele>525.8</ele><time>2026-05-02T08:28:44Z</time></trkpt><trkpt lat="42.9471687" lon="12.1971804"><ele>528.0</ele><time>2026-05-02T08:28:44.999Z</time></trkpt><trkpt lat="42.9471894" lon="12.1970491"><ele>528.0</ele><time>2026-05-02T08:28:46Z</time></trkpt><trkpt lat="42.9472025" lon="12.1969175"><ele>528.0</ele><time>2026-05-02T08:28:46.999Z</time></trkpt><trkpt lat="42.947214" lon="12.1967984"><ele>528.0</ele><time>2026-05-02T08:28:48Z</time></trkpt><trkpt lat="42.9472099" lon="12.1966756"><ele>528.0</ele><time>2026-05-02T08:28:49Z</time></trkpt><trkpt lat="42.9471879" lon="12.1965608"><ele>528.0</ele><time>2026-05-02T08:28:49.999Z</time></trkpt><trkpt lat="42.9471471" lon="12.1964672"><ele>528.0</ele><time>2026-05-02T08:28:51Z</time></trkpt><trkpt lat="42.9470839" lon="12.1963846"><ele>527.4</ele><time>2026-05-02T08:28:52Z</time></trkpt><trkpt lat="42.9470041" lon="12.1963127"><ele>526.8</ele><time>2026-05-02T08:28:53Z</time></trkpt><trkpt lat="42.9469179" lon="12.1962773"><ele>526.2</ele><time>2026-05-02T08:28:54Z</time></trkpt><trkpt lat="42.9468288" lon="12.1962483"><ele>525.6</ele><time>2026-05-02T08:28:55Z</time></trkpt><trkpt lat="42.9467383" lon="12.1962203"><ele>525.0</ele><time>2026-05-02T08:28:56Z</time></trkpt><trkpt lat="42.9466332" lon="12.1961747"><ele>525.0</ele><time>2026-05-02T08:28:57Z</time></trkpt><trkpt lat="42.9465133" lon="12.1961172"><ele>525.0</ele><time>2026-05-02T08:28:58Z</time></trkpt><trkpt lat="42.946398" lon="12.196062"><ele>525.0</ele><time>2026-05-02T08:28:59Z</time></trkpt><trkpt lat="42.9462899" lon="12.196015"><ele>525.0</ele><time>2026-05-02T08:29:00Z</time></trkpt><trkpt lat="42.946194" lon="12.1959803"><ele>525.0</ele><time>2026-05-02T08:29:01Z</time></trkpt><trkpt lat="42.9461149" lon="12.1959472"><ele>525.0</ele><time>2026-05-02T08:29:02Z</time></trkpt><trkpt lat="42.9460314" lon="12.195921"><ele>525.0</ele><time>2026-05-02T08:29:03Z</time></trkpt><trkpt lat="42.9459495" lon="12.1958878"><ele>525.0</ele><time>2026-05-02T08:29:04Z</time></trkpt><trkpt lat="42.9458677" lon="12.1958545"><ele>525.0</ele><time>2026-05-02T08:29:05Z</time></trkpt><trkpt lat="42.9457776" lon="12.1958023"><ele>525.0</ele><time>2026-05-02T08:29:05.999Z</time></trkpt><trkpt lat="42.9456968" lon="12.195752"><ele>524.2</ele><time>2026-05-02T08:29:07Z</time></trkpt><trkpt lat="42.9456139" lon="12.1956887"><ele>523.4</ele><time>2026-05-02T08:29:08Z</time></trkpt><trkpt lat="42.9455259" lon="12.1956167"><ele>522.6</ele><time>2026-05-02T08:29:09Z</time></trkpt><trkpt lat="42.9454423" lon="12.1955321"><ele>521.8</ele><time>2026-05-02T08:29:10Z</time></trkpt><trkpt lat="42.9453629" lon="12.1954427"><ele>521.0</ele><time>2026-05-02T08:29:11Z</time></trkpt><trkpt lat="42.9452804" lon="12.1953637"><ele>521.0</ele><time>2026-05-02T08:29:12Z</time></trkpt><trkpt lat="42.9451976" lon="12.1952807"><ele>521.0</ele><time>2026-05-02T08:29:13Z</time></trkpt><trkpt lat="42.9451223" lon="12.1952021"><ele>521.0</ele><time>2026-05-02T08:29:14Z</time></trkpt><trkpt lat="42.945064" lon="12.1951188"><ele>521.0</ele><time>2026-05-02T08:29:15Z</time></trkpt><trkpt lat="42.9450026" lon="12.1950563"><ele>521.0</ele><time>2026-05-02T08:29:16Z</time></trkpt><trkpt lat="42.9449364" lon="12.1950237"><ele>521.0</ele><time>2026-05-02T08:29:16.999Z</time></trkpt><trkpt lat="42.9448731" lon="12.1950183"><ele>516.0</ele><time>2026-05-02T08:29:18Z</time></trkpt><trkpt lat="42.9448017" lon="12.1950304"><ele>511.0</ele><time>2026-05-02T08:29:19Z</time></trkpt><trkpt lat="42.9447073" lon="12.1950713"><ele>506.0</ele><time>2026-05-02T08:29:20Z</time></trkpt><trkpt lat="42.9446112" lon="12.1951252"><ele>501.0</ele><time>2026-05-02T08:29:21Z</time></trkpt><trkpt lat="42.9445064" lon="12.195175"><ele>496.0</ele><time>2026-05-02T08:29:21.999Z</time></trkpt><trkpt lat="42.9444021" lon="12.1952099"><ele>496.0</ele><time>2026-05-02T08:29:23Z</time></trkpt><trkpt lat="42.9442765" lon="12.1952394"><ele>496.0</ele><time>2026-05-02T08:29:23.999Z</time></trkpt><trkpt lat="42.9441553" lon="12.1952549"><ele>496.0</ele><time>2026-05-02T08:29:25Z</time></trkpt><trkpt lat="42.9440309" lon="12.1952854"><ele>496.0</ele><time>2026-05-02T08:29:26Z</time></trkpt><trkpt lat="42.9439073" lon="12.1953485"><ele>496.0</ele><time>2026-05-02T08:29:27Z</time></trkpt><trkpt lat="42.9437771" lon="12.1954274"><ele>496.0</ele><time>2026-05-02T08:29:28Z</time></trkpt><trkpt lat="42.943644" lon="12.1955088"><ele>496.0</ele><time>2026-05-02T08:29:28.999Z</time></trkpt><trkpt lat="42.9435226" lon="12.19558"><ele>496.0</ele><time>2026-05-02T08:29:30Z</time></trkpt><trkpt lat="42.9434221" lon="12.1956384"><ele>496.0</ele><time>2026-05-02T08:29:31Z</time></trkpt><trkpt lat="42.9433181" lon="12.1956751"><ele>496.0</ele><time>2026-05-02T08:29:32Z</time></trkpt><trkpt lat="42.9432167" lon="12.1957095"><ele>496.0</ele><time>2026-05-02T08:29:33Z</time></trkpt><trkpt lat="42.943119" lon="12.1957313"><ele>496.0</ele><time>2026-05-02T08:29:34Z</time></trkpt><trkpt lat="42.943024" lon="12.1957191"><ele>496.0</ele><time>2026-05-02T08:29:34.999Z</time></trkpt><trkpt lat="42.9429259" lon="12.1956893"><ele>498.4</ele><time>2026-05-02T08:29:36Z</time></trkpt><trkpt lat="42.9428316" lon="12.1956355"><ele>500.8</ele><time>2026-05-02T08:29:37Z</time></trkpt><trkpt lat="42.9427459" lon="12.1955589"><ele>503.19999999999993</ele><time>2026-05-02T08:29:38Z</time></trkpt><trkpt lat="42.9426583" lon="12.1954618"><ele>505.59999999999997</ele><time>2026-05-02T08:29:38.999Z</time></trkpt><trkpt lat="42.9425635" lon="12.1953464"><ele>508.0</ele><time>2026-05-02T08:29:40Z</time></trkpt><trkpt lat="42.9424804" lon="12.1952315"><ele>509.5</ele><time>2026-05-02T08:29:41Z</time></trkpt><trkpt lat="42.9423949" lon="12.1951239"><ele>511.0</ele><time>2026-05-02T08:29:42Z</time></trkpt><trkpt lat="42.9423008" lon="12.1950415"><ele>512.5</ele><time>2026-05-02T08:29:43Z</time></trkpt><trkpt lat="42.9421973" lon="12.1949717"><ele>514.0</ele><time>2026-05-02T08:29:43.999Z</time></trkpt><trkpt lat="42.9420975" lon="12.1949093"><ele>514.0</ele><time>2026-05-02T08:29:45Z</time></trkpt><trkpt lat="42.9420071" lon="12.1948589"><ele>514.0</ele><time>2026-05-02T08:29:46Z</time></trkpt><trkpt lat="42.941929" lon="12.1948107"><ele>514.0</ele><time>2026-05-02T08:29:47Z</time></trkpt><trkpt lat="42.9418479" lon="12.1947681"><ele>514.0</ele><time>2026-05-02T08:29:47.999Z</time></trkpt><trkpt lat="42.9417705" lon="12.1947292"><ele>514.0</ele><time>2026-05-02T08:29:49Z</time></trkpt><trkpt lat="42.9416958" lon="12.1946841"><ele>514.0</ele><time>2026-05-02T08:29:49.999Z</time></trkpt><trkpt lat="42.9416268" lon="12.1946218"><ele>513.8333333333334</ele><time>2026-05-02T08:29:51Z</time></trkpt><trkpt lat="42.9415529" lon="12.194549"><ele>513.6666666666667</ele><time>2026-05-02T08:29:52Z</time></trkpt><trkpt lat="42.9414924" lon="12.1944653"><ele>513.5</ele><time>2026-05-02T08:29:52.999Z</time></trkpt><trkpt lat="42.9414338" lon="12.194382"><ele>513.3333333333334</ele><time>2026-05-02T08:29:54Z</time></trkpt><trkpt lat="42.9413841" lon="12.1942929"><ele>513.1666666666666</ele><time>2026-05-02T08:29:54.999Z</time></trkpt><trkpt lat="42.9413338" lon="12.1942005"><ele>513.0</ele><time>2026-05-02T08:29:56Z</time></trkpt><trkpt lat="42.9412883" lon="12.1940973"><ele>513.6</ele><time>2026-05-02T08:29:57Z</time></trkpt><trkpt lat="42.9412537" lon="12.1939759"><ele>514.1999999999999</ele><time>2026-05-02T08:29:58Z</time></trkpt><trkpt lat="42.9412276" lon="12.1938116"><ele>514.8</ele><time>2026-05-02T08:29:59Z</time></trkpt><trkpt lat="42.9412097" lon="12.1936639"><ele>515.4</ele><time>2026-05-02T08:29:59.999Z</time></trkpt><trkpt lat="42.9411835" lon="12.1935303"><ele>516.0</ele><time>2026-05-02T08:30:01Z</time></trkpt><trkpt lat="42.9411656" lon="12.1934095"><ele>516.0</ele><time>2026-05-02T08:30:02Z</time></trkpt><trkpt lat="42.9411465" lon="12.1933037"><ele>516.0</ele><time>2026-05-02T08:30:03Z</time></trkpt><trkpt lat="42.9411337" lon="12.1932121"><ele>516.0</ele><time>2026-05-02T08:30:04Z</time></trkpt><trkpt lat="42.9410833" lon="12.1930964"><ele>516.0</ele><time>2026-05-02T08:30:06Z</time></trkpt><trkpt lat="42.9409873" lon="12.1930892"><ele>516.0</ele><time>2026-05-02T08:30:08.999Z</time></trkpt><trkpt lat="42.9409029" lon="12.1931342"><ele>516.0</ele><time>2026-05-02T08:30:11Z</time></trkpt><trkpt lat="42.9408088" lon="12.1931753"><ele>513.6</ele><time>2026-05-02T08:30:13Z</time></trkpt><trkpt lat="42.9407184" lon="12.1932169"><ele>511.20000000000005</ele><time>2026-05-02T08:30:14.999Z</time></trkpt><trkpt lat="42.9406337" lon="12.1932726"><ele>508.79999999999995</ele><time>2026-05-02T08:30:17Z</time></trkpt><trkpt lat="42.940536" lon="12.1933198"><ele>506.4</ele><time>2026-05-02T08:30:18.999Z</time></trkpt><trkpt lat="42.9404487" lon="12.1933794"><ele>504.0</ele><time>2026-05-02T08:30:20.999Z</time></trkpt><trkpt lat="42.9403486" lon="12.1933906"><ele>504.0</ele><time>2026-05-02T08:30:23Z</time></trkpt><trkpt lat="42.9402603" lon="12.1933592"><ele>504.0</ele><time>2026-05-02T08:30:25Z</time></trkpt><trkpt lat="42.9401729" lon="12.1932637"><ele>504.0</ele><time>2026-05-02T08:30:27Z</time></trkpt><trkpt lat="42.940117" lon="12.1932129"><ele>504.0</ele><time>2026-05-02T08:30:28Z</time></trkpt><trkpt lat="42.9400578" lon="12.1931541"><ele>504.0</ele><time>2026-05-02T08:30:29Z</time></trkpt><trkpt lat="42.9399683" lon="12.1930604"><ele>506.1666666666667</ele><time>2026-05-02T08:30:31Z</time></trkpt><trkpt lat="42.9399091" lon="12.1929934"><ele>508.33333333333337</ele><time>2026-05-02T08:30:46Z</time></trkpt><trkpt lat="42.9398453" lon="12.1928981"><ele>510.5</ele><time>2026-05-02T08:30:49Z</time></trkpt><trkpt lat="42.9397964" lon="12.1928238"><ele>512.6666666666667</ele><time>2026-05-02T08:30:51Z</time></trkpt><trkpt lat="42.9397476" lon="12.1927352"><ele>514.8333333333334</ele><time>2026-05-02T08:30:52.999Z</time></trkpt><trkpt lat="42.9396685" lon="12.1926285"><ele>517.0</ele><time>2026-05-02T08:30:55Z</time></trkpt><trkpt lat="42.9395788" lon="12.1924916"><ele>517.0</ele><time>2026-05-02T08:30:57Z</time></trkpt><trkpt lat="42.9395264" lon="12.1924058"><ele>517.0</ele><time>2026-05-02T08:30:58Z</time></trkpt><trkpt lat="42.9394585" lon="12.1923252"><ele>517.0</ele><time>2026-05-02T08:30:58.999Z</time></trkpt><trkpt lat="42.939384" lon="12.1922369"><ele>517.0</ele><time>2026-05-02T08:31:00Z</time></trkpt><trkpt lat="42.9393132" lon="12.1921428"><ele>517.0</ele><time>2026-05-02T08:31:01Z</time></trkpt><trkpt lat="42.9392343" lon="12.192049"><ele>517.3333333333334</ele><time>2026-05-02T08:31:02Z</time></trkpt><trkpt lat="42.939166" lon="12.1919582"><ele>517.6666666666667</ele><time>2026-05-02T08:31:02.999Z</time></trkpt><trkpt lat="42.9391045" lon="12.1918805"><ele>518.0</ele><time>2026-05-02T08:31:03.999Z</time></trkpt><trkpt lat="42.9390367" lon="12.191826"><ele>518.3333333333334</ele><time>2026-05-02T08:31:05Z</time></trkpt><trkpt lat="42.9389541" lon="12.1917865"><ele>518.6666666666666</ele><time>2026-05-02T08:31:06Z</time></trkpt><trkpt lat="42.938857" lon="12.191755"><ele>519.0</ele><time>2026-05-02T08:31:07Z</time></trkpt><trkpt lat="42.9387603" lon="12.1917329"><ele>519.0</ele><time>2026-05-02T08:31:08Z</time></trkpt><trkpt lat="42.9386627" lon="12.1917161"><ele>519.0</ele><time>2026-05-02T08:31:09Z</time></trkpt><trkpt lat="42.9385836" lon="12.1917039"><ele>519.0</ele><time>2026-05-02T08:31:09.999Z</time></trkpt><trkpt lat="42.9385081" lon="12.1916891"><ele>519.0</ele><time>2026-05-02T08:31:12Z</time></trkpt><trkpt lat="42.9384123" lon="12.191685"><ele>519.0</ele><time>2026-05-02T08:31:14Z</time></trkpt><trkpt lat="42.9383513" lon="12.1916631"><ele>519.0</ele><time>2026-05-02T08:31:15Z</time></trkpt><trkpt lat="42.9382693" lon="12.1916178"><ele>517.5</ele><time>2026-05-02T08:31:16Z</time></trkpt><trkpt lat="42.9381704" lon="12.1915654"><ele>516.0</ele><time>2026-05-02T08:31:17Z</time></trkpt><trkpt lat="42.9380904" lon="12.1915142"><ele>514.5</ele><time>2026-05-02T08:31:18Z</time></trkpt><trkpt lat="42.938019" lon="12.1914813"><ele>513.0</ele><time>2026-05-02T08:31:19Z</time></trkpt><trkpt lat="42.9379468" lon="12.1914799"><ele>511.5</ele><time>2026-05-02T08:31:20Z</time></trkpt><trkpt lat="42.9378745" lon="12.1914966"><ele>510.0</ele><time>2026-05-02T08:31:21Z</time></trkpt><trkpt lat="42.9377777" lon="12.1915348"><ele>510.0</ele><time>2026-05-02T08:31:22Z</time></trkpt><trkpt lat="42.9376697" lon="12.1915836"><ele>510.0</ele><time>2026-05-02T08:31:23Z</time></trkpt><trkpt lat="42.9375609" lon="12.1916291"><ele>510.0</ele><time>2026-05-02T08:31:24Z</time></trkpt><trkpt lat="42.9374501" lon="12.1916613"><ele>510.0</ele><time>2026-05-02T08:31:25Z</time></trkpt><trkpt lat="42.9373416" lon="12.191696"><ele>510.0</ele><time>2026-05-02T08:31:26Z</time></trkpt><trkpt lat="42.9372501" lon="12.1917151"><ele>510.0</ele><time>2026-05-02T08:31:27Z</time></trkpt><trkpt lat="42.9371536" lon="12.1917383"><ele>510.0</ele><time>2026-05-02T08:31:27.999Z</time></trkpt><trkpt lat="42.9370746" lon="12.1917575"><ele>510.0</ele><time>2026-05-02T08:31:29Z</time></trkpt><trkpt lat="42.9370004" lon="12.191772"><ele>510.0</ele><time>2026-05-02T08:31:30Z</time></trkpt><trkpt lat="42.936924" lon="12.1917676"><ele>510.0</ele><time>2026-05-02T08:31:31Z</time></trkpt><trkpt lat="42.9368474" lon="12.1917587"><ele>510.0</ele><time>2026-05-02T08:31:32Z</time></trkpt><trkpt lat="42.9367784" lon="12.1917384"><ele>510.00000000000006</ele><time>2026-05-02T08:31:33Z</time></trkpt><trkpt lat="42.9367112" lon="12.1917095"><ele>510.0</ele><time>2026-05-02T08:31:33.999Z</time></trkpt><trkpt lat="42.9366514" lon="12.1916674"><ele>510.0</ele><time>2026-05-02T08:31:35Z</time></trkpt><trkpt lat="42.9365915" lon="12.1916091"><ele>510.00000000000006</ele><time>2026-05-02T08:31:36Z</time></trkpt><trkpt lat="42.9365423" lon="12.1915417"><ele>510.0</ele><time>2026-05-02T08:31:37Z</time></trkpt><trkpt lat="42.9364825" lon="12.1914651"><ele>510.0</ele><time>2026-05-02T08:31:38Z</time></trkpt><trkpt lat="42.9364227" lon="12.1913712"><ele>511.6</ele><time>2026-05-02T08:31:39Z</time></trkpt><trkpt lat="42.9363634" lon="12.1912555"><ele>513.2</ele><time>2026-05-02T08:31:40Z</time></trkpt><trkpt lat="42.9362998" lon="12.1911286"><ele>514.8</ele><time>2026-05-02T08:31:41Z</time></trkpt><trkpt lat="42.9362396" lon="12.1910165"><ele>516.4</ele><time>2026-05-02T08:31:42Z</time></trkpt><trkpt lat="42.9361826" lon="12.1909092"><ele>518.0</ele><time>2026-05-02T08:31:43Z</time></trkpt><trkpt lat="42.9361351" lon="12.1908056"><ele>518.0</ele><time>2026-05-02T08:31:44Z</time></trkpt><trkpt lat="42.9360859" lon="12.1907093"><ele>518.0</ele><time>2026-05-02T08:31:45Z</time></trkpt><trkpt lat="42.9360512" lon="12.1906277"><ele>518.0</ele><time>2026-05-02T08:31:46Z</time></trkpt><trkpt lat="42.9360274" lon="12.1905157"><ele>518.0</ele><time>2026-05-02T08:31:48Z</time></trkpt><trkpt lat="42.9359753" lon="12.1904453"><ele>518.0</ele><time>2026-05-02T08:32:04Z</time></trkpt><trkpt lat="42.9358934" lon="12.1903804"><ele>518.0</ele><time>2026-05-02T08:32:12Z</time></trkpt><trkpt lat="42.9358153" lon="12.1904345"><ele>517.8</ele><time>2026-05-02T08:32:14Z</time></trkpt><trkpt lat="42.9357276" lon="12.1905113"><ele>517.5999999999999</ele><time>2026-05-02T08:32:16Z</time></trkpt><trkpt lat="42.935632" lon="12.1905553"><ele>517.4000000000001</ele><time>2026-05-02T08:32:18Z</time></trkpt><trkpt lat="42.9355466" lon="12.19056"><ele>517.2</ele><time>2026-05-02T08:32:20Z</time></trkpt><trkpt lat="42.9354824" lon="12.1905548"><ele>517.0</ele><time>2026-05-02T08:32:23Z</time></trkpt><trkpt lat="42.9355837" lon="12.1905466"><ele>517.0</ele><time>2026-05-02T08:32:41Z</time></trkpt><trkpt lat="42.9356913" lon="12.1904923"><ele>517.0</ele><time>2026-05-02T08:32:42.999Z</time></trkpt><trkpt lat="42.9357541" lon="12.1904469"><ele>517.0</ele><time>2026-05-02T08:32:43.999Z</time></trkpt><trkpt lat="42.9358228" lon="12.190403"><ele>517.0</ele><time>2026-05-02T08:32:45Z</time></trkpt><trkpt lat="42.9359022" lon="12.190385"><ele>517.0</ele><time>2026-05-02T08:32:47Z</time></trkpt><trkpt lat="42.9359384" lon="12.190456"><ele>517.0</ele><time>2026-05-02T08:32:53Z</time></trkpt><trkpt lat="42.9360109" lon="12.1904477"><ele>517.0</ele><time>2026-05-02T08:32:56Z</time></trkpt><trkpt lat="42.9360366" lon="12.1903613"><ele>517.0</ele><time>2026-05-02T08:32:58Z</time></trkpt><trkpt lat="42.9360082" lon="12.1902742"><ele>517.0</ele><time>2026-05-02T08:33:00Z</time></trkpt><trkpt lat="42.9359533" lon="12.1902256"><ele>517.0</ele><time>2026-05-02T08:33:02Z</time></trkpt><trkpt lat="42.9358766" lon="12.1902303"><ele>517.0</ele><time>2026-05-02T08:33:04Z</time></trkpt><trkpt lat="42.9357613" lon="12.1902819"><ele>517.0</ele><time>2026-05-02T08:33:06Z</time></trkpt><trkpt lat="42.9356965" lon="12.1902928"><ele>517.0</ele><time>2026-05-02T08:33:07Z</time></trkpt><trkpt lat="42.9355751" lon="12.190274"><ele>517.0</ele><time>2026-05-02T08:33:08.999Z</time></trkpt><trkpt lat="42.9355055" lon="12.1902355"><ele>517.0</ele><time>2026-05-02T08:33:10Z</time></trkpt><trkpt lat="42.935431" lon="12.1901967"><ele>517.0</ele><time>2026-05-02T08:33:11Z</time></trkpt><trkpt lat="42.9353636" lon="12.1901532"><ele>517.0</ele><time>2026-05-02T08:33:12Z</time></trkpt><trkpt lat="42.9352784" lon="12.1901282"><ele>517.0</ele><time>2026-05-02T08:33:13Z</time></trkpt><trkpt lat="42.9352015" lon="12.1901003"><ele>517.0</ele><time>2026-05-02T08:33:14Z</time></trkpt><trkpt lat="42.9351187" lon="12.1900658"><ele>517.0</ele><time>2026-05-02T08:33:15Z</time></trkpt><trkpt lat="42.9350493" lon="12.1900308"><ele>517.0</ele><time>2026-05-02T08:33:16Z</time></trkpt><trkpt lat="42.934988" lon="12.1899843"><ele>517.0</ele><time>2026-05-02T08:33:16.999Z</time></trkpt><trkpt lat="42.9349239" lon="12.1899427"><ele>517.0</ele><time>2026-05-02T08:33:18Z</time></trkpt><trkpt lat="42.934862" lon="12.1898935"><ele>517.0</ele><time>2026-05-02T08:33:19Z</time></trkpt><trkpt lat="42.9348066" lon="12.18983"><ele>517.0</ele><time>2026-05-02T08:33:20Z</time></trkpt><trkpt lat="42.934751" lon="12.1897726"><ele>517.3333333333334</ele><time>2026-05-02T08:33:21Z</time></trkpt><trkpt lat="42.9347101" lon="12.1896994"><ele>517.6666666666667</ele><time>2026-05-02T08:33:22Z</time></trkpt><trkpt lat="42.934667" lon="12.1896146"><ele>518.0</ele><time>2026-05-02T08:33:23Z</time></trkpt><trkpt lat="42.9346369" lon="12.1895162"><ele>518.3333333333334</ele><time>2026-05-02T08:33:24Z</time></trkpt><trkpt lat="42.9346226" lon="12.1893916"><ele>518.6666666666666</ele><time>2026-05-02T08:33:25Z</time></trkpt><trkpt lat="42.9346082" lon="12.1892466"><ele>519.0</ele><time>2026-05-02T08:33:26Z</time></trkpt><trkpt lat="42.9345931" lon="12.1891118"><ele>519.5</ele><time>2026-05-02T08:33:27Z</time></trkpt><trkpt lat="42.9345653" lon="12.1890073"><ele>520.0</ele><time>2026-05-02T08:33:28Z</time></trkpt><trkpt lat="42.934545" lon="12.1889159"><ele>520.5</ele><time>2026-05-02T08:33:28.999Z</time></trkpt><trkpt lat="42.9345255" lon="12.1887467"><ele>521.0</ele><time>2026-05-02T08:33:31Z</time></trkpt><trkpt lat="42.9345239" lon="12.1886525"><ele>521.5</ele><time>2026-05-02T08:33:32Z</time></trkpt><trkpt lat="42.9345207" lon="12.1885659"><ele>522.0</ele><time>2026-05-02T08:33:33Z</time></trkpt><trkpt lat="42.9345283" lon="12.1884703"><ele>522.0</ele><time>2026-05-02T08:33:34Z</time></trkpt><trkpt lat="42.934549" lon="12.1883674"><ele>522.0</ele><time>2026-05-02T08:33:35Z</time></trkpt><trkpt lat="42.9345765" lon="12.1882556"><ele>522.0</ele><time>2026-05-02T08:33:35.999Z</time></trkpt><trkpt lat="42.9346096" lon="12.1881409"><ele>522.0</ele><time>2026-05-02T08:33:37Z</time></trkpt><trkpt lat="42.9346479" lon="12.1880303"><ele>522.0</ele><time>2026-05-02T08:33:38Z</time></trkpt><trkpt lat="42.9346654" lon="12.1879348"><ele>522.0</ele><time>2026-05-02T08:33:39Z</time></trkpt><trkpt lat="42.9346707" lon="12.1878129"><ele>522.2</ele><time>2026-05-02T08:33:40.999Z</time></trkpt><trkpt lat="42.9346019" lon="12.1877287"><ele>522.4000000000001</ele><time>2026-05-02T08:33:42.999Z</time></trkpt><trkpt lat="42.9344866" lon="12.1877209"><ele>522.5999999999999</ele><time>2026-05-02T08:33:45Z</time></trkpt><trkpt lat="42.9344011" lon="12.1877161"><ele>522.8</ele><time>2026-05-02T08:33:45.999Z</time></trkpt><trkpt lat="42.9343189" lon="12.1877064"><ele>523.0</ele><time>2026-05-02T08:33:46.999Z</time></trkpt><trkpt lat="42.9342458" lon="12.1876781"><ele>520.8333333333334</ele><time>2026-05-02T08:33:48Z</time></trkpt><trkpt lat="42.9341658" lon="12.1876499"><ele>518.6666666666667</ele><time>2026-05-02T08:33:49Z</time></trkpt><trkpt lat="42.9340936" lon="12.1876132"><ele>516.5</ele><time>2026-05-02T08:33:50Z</time></trkpt><trkpt lat="42.9340125" lon="12.1875821"><ele>514.3333333333334</ele><time>2026-05-02T08:33:51Z</time></trkpt><trkpt lat="42.9339448" lon="12.1875501"><ele>512.1666666666666</ele><time>2026-05-02T08:33:52Z</time></trkpt><trkpt lat="42.9338869" lon="12.1875106"><ele>510.0</ele><time>2026-05-02T08:33:52.999Z</time></trkpt><trkpt lat="42.9338196" lon="12.1873883"><ele>513.2</ele><time>2026-05-02T08:33:54.999Z</time></trkpt><trkpt lat="42.933809" lon="12.1872917"><ele>516.4</ele><time>2026-05-02T08:33:55.999Z</time></trkpt><trkpt lat="42.9338002" lon="12.1871733"><ele>519.6</ele><time>2026-05-02T08:33:57Z</time></trkpt><trkpt lat="42.9337966" lon="12.1870442"><ele>522.8</ele><time>2026-05-02T08:33:58Z</time></trkpt><trkpt lat="42.9337904" lon="12.186907"><ele>526.0</ele><time>2026-05-02T08:33:59Z</time></trkpt><trkpt lat="42.9337886" lon="12.1867726"><ele>526.0</ele><time>2026-05-02T08:34:00Z</time></trkpt><trkpt lat="42.9337938" lon="12.1866418"><ele>526.0</ele><time>2026-05-02T08:34:01Z</time></trkpt><trkpt lat="42.933803" lon="12.1865182"><ele>526.0</ele><time>2026-05-02T08:34:02Z</time></trkpt><trkpt lat="42.9338208" lon="12.1863923"><ele>526.0</ele><time>2026-05-02T08:34:03Z</time></trkpt><trkpt lat="42.9338453" lon="12.1862667"><ele>526.0</ele><time>2026-05-02T08:34:04Z</time></trkpt><trkpt lat="42.9338702" lon="12.1861567"><ele>528.1666666666667</ele><time>2026-05-02T08:34:05Z</time></trkpt><trkpt lat="42.9338707" lon="12.1860496"><ele>530.3333333333334</ele><time>2026-05-02T08:34:06Z</time></trkpt><trkpt lat="42.9338497" lon="12.1859292"><ele>532.5</ele><time>2026-05-02T08:34:07Z</time></trkpt><trkpt lat="42.9338096" lon="12.1858162"><ele>534.6666666666666</ele><time>2026-05-02T08:34:08Z</time></trkpt><trkpt lat="42.9337662" lon="12.1857016"><ele>536.8333333333333</ele><time>2026-05-02T08:34:09Z</time></trkpt><trkpt lat="42.9337019" lon="12.1856155"><ele>539.0</ele><time>2026-05-02T08:34:10Z</time></trkpt><trkpt lat="42.9336342" lon="12.1855135"><ele>540.0</ele><time>2026-05-02T08:34:11Z</time></trkpt><trkpt lat="42.9335677" lon="12.1854067"><ele>541.0</ele><time>2026-05-02T08:34:12Z</time></trkpt><trkpt lat="42.9335038" lon="12.1852877"><ele>542.0</ele><time>2026-05-02T08:34:13Z</time></trkpt><trkpt lat="42.9334528" lon="12.1851571"><ele>543.0</ele><time>2026-05-02T08:34:13.999Z</time></trkpt><trkpt lat="42.9334094" lon="12.1850352"><ele>544.0</ele><time>2026-05-02T08:34:15Z</time></trkpt><trkpt lat="42.9333666" lon="12.1849222"><ele>541.5</ele><time>2026-05-02T08:34:16Z</time></trkpt><trkpt lat="42.9333317" lon="12.184811"><ele>539.0</ele><time>2026-05-02T08:34:16.999Z</time></trkpt><trkpt lat="42.9332703" lon="12.1847056"><ele>536.5</ele><time>2026-05-02T08:34:17.999Z</time></trkpt><trkpt lat="42.9332007" lon="12.1846057"><ele>534.0</ele><time>2026-05-02T08:34:18.999Z</time></trkpt><trkpt lat="42.9331421" lon="12.1845214"><ele>531.5</ele><time>2026-05-02T08:34:19.999Z</time></trkpt><trkpt lat="42.9331033" lon="12.1844449"><ele>529.0</ele><time>2026-05-02T08:34:21Z</time></trkpt><trkpt lat="42.9330768" lon="12.1843648"><ele>529.0</ele><time>2026-05-02T08:34:22Z</time></trkpt><trkpt lat="42.9330803" lon="12.1842609"><ele>529.0</ele><time>2026-05-02T08:34:23Z</time></trkpt><trkpt lat="42.9330967" lon="12.1841451"><ele>529.0</ele><time>2026-05-02T08:34:24Z</time></trkpt><trkpt lat="42.9331265" lon="12.1840493"><ele>529.0</ele><time>2026-05-02T08:34:24.999Z</time></trkpt><trkpt lat="42.9331913" lon="12.1839183"><ele>529.0</ele><time>2026-05-02T08:34:27Z</time></trkpt><trkpt lat="42.9332515" lon="12.1838493"><ele>529.0</ele><time>2026-05-02T08:34:28.999Z</time></trkpt><trkpt lat="42.9332898" lon="12.1837668"><ele>527.2</ele><time>2026-05-02T08:34:31Z</time></trkpt><trkpt lat="42.9333111" lon="12.1836625"><ele>525.4</ele><time>2026-05-02T08:34:33Z</time></trkpt><trkpt lat="42.9333129" lon="12.183531"><ele>523.6</ele><time>2026-05-02T08:34:35Z</time></trkpt><trkpt lat="42.9332741" lon="12.1833831"><ele>521.8</ele><time>2026-05-02T08:34:37Z</time></trkpt><trkpt lat="42.9332057" lon="12.1832657"><ele>520.0</ele><time>2026-05-02T08:34:39Z</time></trkpt><trkpt lat="42.9331181" lon="12.1831703"><ele>516.8</ele><time>2026-05-02T08:34:41Z</time></trkpt><trkpt lat="42.9330063" lon="12.1831236"><ele>513.6</ele><time>2026-05-02T08:34:42.999Z</time></trkpt><trkpt lat="42.9329246" lon="12.183082"><ele>510.4</ele><time>2026-05-02T08:34:45Z</time></trkpt><trkpt lat="42.9328599" lon="12.182978"><ele>507.2</ele><time>2026-05-02T08:34:47Z</time></trkpt><trkpt lat="42.9328414" lon="12.1828024"><ele>504.0</ele><time>2026-05-02T08:34:48.999Z</time></trkpt><trkpt lat="42.9328476" lon="12.1827131"><ele>504.0</ele><time>2026-05-02T08:34:50Z</time></trkpt><trkpt lat="42.9328416" lon="12.1826257"><ele>504.0</ele><time>2026-05-02T08:34:51Z</time></trkpt><trkpt lat="42.932812" lon="12.1824862"><ele>504.0</ele><time>2026-05-02T08:34:53Z</time></trkpt><trkpt lat="42.9327538" lon="12.1823777"><ele>504.0</ele><time>2026-05-02T08:34:55Z</time></trkpt><trkpt lat="42.932663" lon="12.1822971"><ele>504.0</ele><time>2026-05-02T08:34:57Z</time></trkpt><trkpt lat="42.9325634" lon="12.1822515"><ele>504.0</ele><time>2026-05-02T08:34:59Z</time></trkpt><trkpt lat="42.9324522" lon="12.1822402"><ele>504.0</ele><time>2026-05-02T08:35:01Z</time></trkpt><trkpt lat="42.9323394" lon="12.1822624"><ele>504.0</ele><time>2026-05-02T08:35:03Z</time></trkpt><trkpt lat="42.932225" lon="12.1823084"><ele>504.0</ele><time>2026-05-02T08:35:05Z</time></trkpt><trkpt lat="42.9321643" lon="12.1823317"><ele>504.0</ele><time>2026-05-02T08:35:06Z</time></trkpt><trkpt lat="42.93205" lon="12.1823494"><ele>502.1666666666667</ele><time>2026-05-02T08:35:08Z</time></trkpt><trkpt lat="42.9319269" lon="12.1822961"><ele>500.33333333333337</ele><time>2026-05-02T08:35:09.999Z</time></trkpt><trkpt lat="42.9318608" lon="12.182251"><ele>498.5</ele><time>2026-05-02T08:35:11Z</time></trkpt><trkpt lat="42.9317881" lon="12.1822042"><ele>496.6666666666667</ele><time>2026-05-02T08:35:12Z</time></trkpt><trkpt lat="42.9317243" lon="12.1821565"><ele>494.83333333333337</ele><time>2026-05-02T08:35:13Z</time></trkpt><trkpt lat="42.9316697" lon="12.1820951"><ele>493.0</ele><time>2026-05-02T08:35:14Z</time></trkpt><trkpt lat="42.9316154" lon="12.1820097"><ele>491.00000000000006</ele><time>2026-05-02T08:35:15Z</time></trkpt><trkpt lat="42.9315668" lon="12.1819162"><ele>489.0</ele><time>2026-05-02T08:35:16Z</time></trkpt><trkpt lat="42.9315182" lon="12.1818258"><ele>487.0</ele><time>2026-05-02T08:35:17Z</time></trkpt><trkpt lat="42.9314648" lon="12.1817371"><ele>485.0</ele><time>2026-05-02T08:35:18Z</time></trkpt><trkpt lat="42.9314158" lon="12.1816483"><ele>483.00000000000006</ele><time>2026-05-02T08:35:19Z</time></trkpt><trkpt lat="42.9313727" lon="12.1815601"><ele>481.0</ele><time>2026-05-02T08:35:20Z</time></trkpt><trkpt lat="42.9313203" lon="12.1814809"><ele>479.33333333333337</ele><time>2026-05-02T08:35:21Z</time></trkpt><trkpt lat="42.9312669" lon="12.1813999"><ele>477.6666666666667</ele><time>2026-05-02T08:35:22Z</time></trkpt><trkpt lat="42.9312113" lon="12.1813326"><ele>476.0</ele><time>2026-05-02T08:35:23Z</time></trkpt><trkpt lat="42.9311471" lon="12.1812723"><ele>474.33333333333337</ele><time>2026-05-02T08:35:24Z</time></trkpt><trkpt lat="42.931069" lon="12.1812194"><ele>472.6666666666667</ele><time>2026-05-02T08:35:25Z</time></trkpt><trkpt lat="42.9309909" lon="12.1811619"><ele>471.0</ele><time>2026-05-02T08:35:25.999Z</time></trkpt><trkpt lat="42.9309114" lon="12.181113"><ele>470.5</ele><time>2026-05-02T08:35:27Z</time></trkpt><trkpt lat="42.9308184" lon="12.1810558"><ele>470.0</ele><time>2026-05-02T08:35:27.999Z</time></trkpt><trkpt lat="42.9307345" lon="12.1809956"><ele>469.5</ele><time>2026-05-02T08:35:29Z</time></trkpt><trkpt lat="42.9306637" lon="12.180942"><ele>469.0</ele><time>2026-05-02T08:35:29.999Z</time></trkpt><trkpt lat="42.9305964" lon="12.180887"><ele>468.5</ele><time>2026-05-02T08:35:31Z</time></trkpt><trkpt lat="42.9305314" lon="12.180836"><ele>468.0</ele><time>2026-05-02T08:35:32Z</time></trkpt><trkpt lat="42.9304637" lon="12.1807982"><ele>468.0</ele><time>2026-05-02T08:35:32.999Z</time></trkpt><trkpt lat="42.9303926" lon="12.1807756"><ele>468.0</ele><time>2026-05-02T08:35:34Z</time></trkpt><trkpt lat="42.9303191" lon="12.1807604"><ele>468.0</ele><time>2026-05-02T08:35:35Z</time></trkpt><trkpt lat="42.9302469" lon="12.1807535"><ele>468.0</ele><time>2026-05-02T08:35:35.999Z</time></trkpt><trkpt lat="42.9301627" lon="12.1807369"><ele>468.0</ele><time>2026-05-02T08:35:37Z</time></trkpt><trkpt lat="42.9300858" lon="12.1807049"><ele>468.0</ele><time>2026-05-02T08:35:38Z</time></trkpt><trkpt lat="42.930007" lon="12.1806673"><ele>466.79999999999995</ele><time>2026-05-02T08:35:38.999Z</time></trkpt><trkpt lat="42.9299341" lon="12.180634"><ele>465.59999999999997</ele><time>2026-05-02T08:35:40Z</time></trkpt><trkpt lat="42.929811" lon="12.180627"><ele>464.40000000000003</ele><time>2026-05-02T08:35:41.999Z</time></trkpt><trkpt lat="42.9296837" lon="12.180654"><ele>463.20000000000005</ele><time>2026-05-02T08:35:44Z</time></trkpt><trkpt lat="42.9296089" lon="12.1806809"><ele>462.0</ele><time>2026-05-02T08:35:45Z</time></trkpt><trkpt lat="42.9295238" lon="12.1807007"><ele>462.0</ele><time>2026-05-02T08:35:46Z</time></trkpt><trkpt lat="42.9294453" lon="12.180724"><ele>462.0</ele><time>2026-05-02T08:35:46.999Z</time></trkpt><trkpt lat="42.9293678" lon="12.1807618"><ele>462.0</ele><time>2026-05-02T08:35:48Z</time></trkpt><trkpt lat="42.9292888" lon="12.1807858"><ele>462.0</ele><time>2026-05-02T08:35:49Z</time></trkpt><trkpt lat="42.9292029" lon="12.1808108"><ele>462.0</ele><time>2026-05-02T08:35:50Z</time></trkpt><trkpt lat="42.929117" lon="12.1808222"><ele>462.0</ele><time>2026-05-02T08:35:51Z</time></trkpt><trkpt lat="42.9290335" lon="12.1808334"><ele>459.40000000000003</ele><time>2026-05-02T08:35:52Z</time></trkpt><trkpt lat="42.9289444" lon="12.1808477"><ele>456.80000000000007</ele><time>2026-05-02T08:35:53Z</time></trkpt><trkpt lat="42.9288665" lon="12.1808631"><ele>454.2</ele><time>2026-05-02T08:35:54Z</time></trkpt><trkpt lat="42.9287947" lon="12.1808706"><ele>451.6</ele><time>2026-05-02T08:35:54.999Z</time></trkpt><trkpt lat="42.9286885" lon="12.1809053"><ele>449.0</ele><time>2026-05-02T08:35:57Z</time></trkpt><trkpt lat="42.9285918" lon="12.1810065"><ele>448.99999999999994</ele><time>2026-05-02T08:35:59Z</time></trkpt><trkpt lat="42.9285463" lon="12.1810993"><ele>449.0</ele><time>2026-05-02T08:36:00Z</time></trkpt><trkpt lat="42.9284889" lon="12.181193"><ele>449.0</ele><time>2026-05-02T08:36:01Z</time></trkpt><trkpt lat="42.9284378" lon="12.1812752"><ele>449.0</ele><time>2026-05-02T08:36:02Z</time></trkpt><trkpt lat="42.9283883" lon="12.1813501"><ele>448.99999999999994</ele><time>2026-05-02T08:36:03Z</time></trkpt><trkpt lat="42.9283272" lon="12.1814172"><ele>449.0</ele><time>2026-05-02T08:36:04Z</time></trkpt><trkpt lat="42.9282519" lon="12.181471"><ele>447.3333333333333</ele><time>2026-05-02T08:36:05Z</time></trkpt><trkpt lat="42.9281766" lon="12.1814979"><ele>445.66666666666663</ele><time>2026-05-02T08:36:06Z</time></trkpt><trkpt lat="42.9280983" lon="12.1815021"><ele>444.0</ele><time>2026-05-02T08:36:07Z</time></trkpt><trkpt lat="42.928015" lon="12.1814947"><ele>442.33333333333337</ele><time>2026-05-02T08:36:08Z</time></trkpt><trkpt lat="42.9279217" lon="12.1814758"><ele>440.6666666666667</ele><time>2026-05-02T08:36:09Z</time></trkpt><trkpt lat="42.9278264" lon="12.1814312"><ele>439.0</ele><time>2026-05-02T08:36:10Z</time></trkpt><trkpt lat="42.9277252" lon="12.1813699"><ele>439.0</ele><time>2026-05-02T08:36:11Z</time></trkpt><trkpt lat="42.9276246" lon="12.1813121"><ele>439.0</ele><time>2026-05-02T08:36:12Z</time></trkpt><trkpt lat="42.9275187" lon="12.1812444"><ele>439.0</ele><time>2026-05-02T08:36:13Z</time></trkpt><trkpt lat="42.9274143" lon="12.1811771"><ele>439.0</ele><time>2026-05-02T08:36:14Z</time></trkpt><trkpt lat="42.9273145" lon="12.18111"><ele>436.83333333333337</ele><time>2026-05-02T08:36:15Z</time></trkpt><trkpt lat="42.9272303" lon="12.1810533"><ele>434.6666666666667</ele><time>2026-05-02T08:36:15.999Z</time></trkpt><trkpt lat="42.9271534" lon="12.1810132"><ele>432.5</ele><time>2026-05-02T08:36:17Z</time></trkpt><trkpt lat="42.9270838" lon="12.1809944"><ele>430.33333333333337</ele><time>2026-05-02T08:36:18Z</time></trkpt><trkpt lat="42.9270058" lon="12.1809934"><ele>428.1666666666667</ele><time>2026-05-02T08:36:19Z</time></trkpt><trkpt lat="42.9269295" lon="12.1810178"><ele>426.0</ele><time>2026-05-02T08:36:20Z</time></trkpt><trkpt lat="42.9268426" lon="12.1810738"><ele>426.0</ele><time>2026-05-02T08:36:21Z</time></trkpt><trkpt lat="42.9267491" lon="12.1811405"><ele>426.0</ele><time>2026-05-02T08:36:22Z</time></trkpt><trkpt lat="42.9266454" lon="12.1812174"><ele>426.0</ele><time>2026-05-02T08:36:23Z</time></trkpt><trkpt lat="42.9265389" lon="12.1813017"><ele>426.0</ele><time>2026-05-02T08:36:24Z</time></trkpt><trkpt lat="42.9264275" lon="12.1813917"><ele>424.5</ele><time>2026-05-02T08:36:24.999Z</time></trkpt><trkpt lat="42.9263157" lon="12.1814824"><ele>423.0</ele><time>2026-05-02T08:36:26Z</time></trkpt><trkpt lat="42.9262092" lon="12.1815649"><ele>421.5</ele><time>2026-05-02T08:36:27Z</time></trkpt><trkpt lat="42.9261061" lon="12.1816426"><ele>420.0</ele><time>2026-05-02T08:36:28Z</time></trkpt><trkpt lat="42.9260041" lon="12.1817141"><ele>419.8</ele><time>2026-05-02T08:36:29Z</time></trkpt><trkpt lat="42.9258965" lon="12.1817803"><ele>419.6</ele><time>2026-05-02T08:36:29.999Z</time></trkpt><trkpt lat="42.9257868" lon="12.1818458"><ele>419.4</ele><time>2026-05-02T08:36:30.999Z</time></trkpt><trkpt lat="42.9256893" lon="12.181912"><ele>419.2</ele><time>2026-05-02T08:36:32Z</time></trkpt><trkpt lat="42.9255997" lon="12.1819626"><ele>419.0</ele><time>2026-05-02T08:36:33Z</time></trkpt><trkpt lat="42.9255148" lon="12.1820068"><ele>418.0</ele><time>2026-05-02T08:36:34Z</time></trkpt><trkpt lat="42.9254311" lon="12.1820381"><ele>417.0</ele><time>2026-05-02T08:36:35Z</time></trkpt><trkpt lat="42.9253426" lon="12.182062"><ele>416.0</ele><time>2026-05-02T08:36:35.999Z</time></trkpt><trkpt lat="42.9252402" lon="12.1820754"><ele>415.0</ele><time>2026-05-02T08:36:36.999Z</time></trkpt><trkpt lat="42.9251312" lon="12.1820924"><ele>414.0</ele><time>2026-05-02T08:36:38Z</time></trkpt><trkpt lat="42.925023" lon="12.182128"><ele>414.0</ele><time>2026-05-02T08:36:39Z</time></trkpt><trkpt lat="42.9249109" lon="12.1821731"><ele>414.0</ele><time>2026-05-02T08:36:39.999Z</time></trkpt><trkpt lat="42.9248102" lon="12.1822369"><ele>414.0</ele><time>2026-05-02T08:36:41Z</time></trkpt><trkpt lat="42.9247116" lon="12.1823121"><ele>414.0</ele><time>2026-05-02T08:36:41.999Z</time></trkpt><trkpt lat="42.92463" lon="12.1823735"><ele>414.0</ele><time>2026-05-02T08:36:43Z</time></trkpt><trkpt lat="42.9245474" lon="12.1824348"><ele>413.79999999999995</ele><time>2026-05-02T08:36:44Z</time></trkpt><trkpt lat="42.9244771" lon="12.1825001"><ele>413.59999999999997</ele><time>2026-05-02T08:36:45Z</time></trkpt><trkpt lat="42.9244142" lon="12.1825977"><ele>413.4</ele><time>2026-05-02T08:36:46Z</time></trkpt><trkpt lat="42.9243559" lon="12.1827036"><ele>413.2</ele><time>2026-05-02T08:36:47Z</time></trkpt><trkpt lat="42.9242984" lon="12.182811"><ele>413.0</ele><time>2026-05-02T08:36:48Z</time></trkpt><trkpt lat="42.9242512" lon="12.1829057"><ele>414.49999999999994</ele><time>2026-05-02T08:36:49Z</time></trkpt><trkpt lat="42.9242037" lon="12.1829854"><ele>416.0</ele><time>2026-05-02T08:36:49.999Z</time></trkpt><trkpt lat="42.9241399" lon="12.1830349"><ele>417.5</ele><time>2026-05-02T08:36:50.999Z</time></trkpt><trkpt lat="42.9240643" lon="12.1830695"><ele>419.0</ele><time>2026-05-02T08:36:52Z</time></trkpt><trkpt lat="42.9239835" lon="12.1831051"><ele>420.49999999999994</ele><time>2026-05-02T08:36:53Z</time></trkpt><trkpt lat="42.9238981" lon="12.1831441"><ele>422.0</ele><time>2026-05-02T08:36:54Z</time></trkpt><trkpt lat="42.923804" lon="12.1831786"><ele>422.0</ele><time>2026-05-02T08:36:55Z</time></trkpt><trkpt lat="42.9237224" lon="12.1832005"><ele>422.0</ele><time>2026-05-02T08:36:55.999Z</time></trkpt><trkpt lat="42.923636" lon="12.1832148"><ele>422.0</ele><time>2026-05-02T08:36:57Z</time></trkpt><trkpt lat="42.9235235" lon="12.1831879"><ele>422.0</ele><time>2026-05-02T08:36:58Z</time></trkpt><trkpt lat="42.9234252" lon="12.1831621"><ele>422.0</ele><time>2026-05-02T08:36:59Z</time></trkpt><trkpt lat="42.9233365" lon="12.1831298"><ele>422.20000000000005</ele><time>2026-05-02T08:37:00Z</time></trkpt><trkpt lat="42.9232475" lon="12.1830867"><ele>422.4</ele><time>2026-05-02T08:37:01Z</time></trkpt><trkpt lat="42.9231487" lon="12.183027"><ele>422.6</ele><time>2026-05-02T08:37:02Z</time></trkpt><trkpt lat="42.9230591" lon="12.1829461"><ele>422.79999999999995</ele><time>2026-05-02T08:37:02.999Z</time></trkpt><trkpt lat="42.9229685" lon="12.1828677"><ele>423.0</ele><time>2026-05-02T08:37:04Z</time></trkpt><trkpt lat="42.9228794" lon="12.1827929"><ele>423.0</ele><time>2026-05-02T08:37:05Z</time></trkpt><trkpt lat="42.9228004" lon="12.182736"><ele>423.0</ele><time>2026-05-02T08:37:06Z</time></trkpt><trkpt lat="42.9227365" lon="12.1826938"><ele>423.0</ele><time>2026-05-02T08:37:07Z</time></trkpt><trkpt lat="42.9226143" lon="12.1827053"><ele>423.0</ele><time>2026-05-02T08:37:08.999Z</time></trkpt><trkpt lat="42.9225064" lon="12.1827904"><ele>423.0</ele><time>2026-05-02T08:37:10.999Z</time></trkpt><trkpt lat="42.9224143" lon="12.1828643"><ele>421.5</ele><time>2026-05-02T08:37:13Z</time></trkpt><trkpt lat="42.9223261" lon="12.1828694"><ele>420.0</ele><time>2026-05-02T08:37:15Z</time></trkpt><trkpt lat="42.9222657" lon="12.1828422"><ele>418.5</ele><time>2026-05-02T08:37:16Z</time></trkpt><trkpt lat="42.9222085" lon="12.182802"><ele>417.0</ele><time>2026-05-02T08:37:17Z</time></trkpt><trkpt lat="42.9221398" lon="12.1827587"><ele>415.5</ele><time>2026-05-02T08:37:18Z</time></trkpt><trkpt lat="42.92205" lon="12.182725"><ele>414.0</ele><time>2026-05-02T08:37:18.999Z</time></trkpt><trkpt lat="42.921976" lon="12.1826995"><ele>414.0</ele><time>2026-05-02T08:37:20Z</time></trkpt><trkpt lat="42.9219005" lon="12.1826734"><ele>414.0</ele><time>2026-05-02T08:37:21Z</time></trkpt><trkpt lat="42.9218184" lon="12.1826569"><ele>414.0</ele><time>2026-05-02T08:37:22Z</time></trkpt><trkpt lat="42.9217496" lon="12.182635"><ele>414.0</ele><time>2026-05-02T08:37:23Z</time></trkpt><trkpt lat="42.9216803" lon="12.1826083"><ele>414.0</ele><time>2026-05-02T08:37:24.999Z</time></trkpt><trkpt lat="42.9215819" lon="12.1825988"><ele>414.0</ele><time>2026-05-02T08:37:26.999Z</time></trkpt><trkpt lat="42.9214603" lon="12.1825444"><ele>413.3333333333333</ele><time>2026-05-02T08:37:29Z</time></trkpt><trkpt lat="42.9213895" lon="12.1825063"><ele>412.66666666666663</ele><time>2026-05-02T08:37:30Z</time></trkpt><trkpt lat="42.921325" lon="12.1824643"><ele>412.0</ele><time>2026-05-02T08:37:31Z</time></trkpt><trkpt lat="42.9212566" lon="12.18241"><ele>411.3333333333333</ele><time>2026-05-02T08:37:32Z</time></trkpt><trkpt lat="42.9212002" lon="12.1823383"><ele>410.66666666666663</ele><time>2026-05-02T08:37:33Z</time></trkpt><trkpt lat="42.9211392" lon="12.1822721"><ele>410.0</ele><time>2026-05-02T08:37:34Z</time></trkpt><trkpt lat="42.9210859" lon="12.1822089"><ele>408.8333333333333</ele><time>2026-05-02T08:37:35Z</time></trkpt><trkpt lat="42.9210292" lon="12.1821363"><ele>407.66666666666663</ele><time>2026-05-02T08:37:35.999Z</time></trkpt><trkpt lat="42.9209638" lon="12.1820648"><ele>406.5</ele><time>2026-05-02T08:37:36.999Z</time></trkpt><trkpt lat="42.9208888" lon="12.1819971"><ele>405.33333333333337</ele><time>2026-05-02T08:37:38Z</time></trkpt><trkpt lat="42.9208256" lon="12.1819275"><ele>404.1666666666667</ele><time>2026-05-02T08:37:39Z</time></trkpt><trkpt lat="42.9207463" lon="12.1818588"><ele>403.0</ele><time>2026-05-02T08:37:40Z</time></trkpt><trkpt lat="42.9206715" lon="12.1817919"><ele>403.00000000000006</ele><time>2026-05-02T08:37:41Z</time></trkpt><trkpt lat="42.9205995" lon="12.1817379"><ele>403.0</ele><time>2026-05-02T08:37:42Z</time></trkpt><trkpt lat="42.9205327" lon="12.1816923"><ele>403.0</ele><time>2026-05-02T08:37:43Z</time></trkpt><trkpt lat="42.9204662" lon="12.1816526"><ele>403.0</ele><time>2026-05-02T08:37:44Z</time></trkpt><trkpt lat="42.9203968" lon="12.1815999"><ele>403.00000000000006</ele><time>2026-05-02T08:37:45Z</time></trkpt><trkpt lat="42.9203043" lon="12.181545"><ele>403.0</ele><time>2026-05-02T08:37:46Z</time></trkpt><trkpt lat="42.920225" lon="12.1814901"><ele>402.33333333333337</ele><time>2026-05-02T08:37:47Z</time></trkpt><trkpt lat="42.9201576" lon="12.1814428"><ele>401.6666666666667</ele><time>2026-05-02T08:37:48Z</time></trkpt><trkpt lat="42.9200738" lon="12.1813918"><ele>401.0</ele><time>2026-05-02T08:37:49Z</time></trkpt><trkpt lat="42.9199909" lon="12.1813348"><ele>400.33333333333337</ele><time>2026-05-02T08:37:50Z</time></trkpt><trkpt lat="42.9199149" lon="12.1812801"><ele>399.6666666666667</ele><time>2026-05-02T08:37:51Z</time></trkpt><trkpt lat="42.9198301" lon="12.1812192"><ele>399.0</ele><time>2026-05-02T08:37:52Z</time></trkpt><trkpt lat="42.9197563" lon="12.1811497"><ele>399.0</ele><time>2026-05-02T08:37:53Z</time></trkpt><trkpt lat="42.9196848" lon="12.1810756"><ele>399.0</ele><time>2026-05-02T08:37:54Z</time></trkpt><trkpt lat="42.9196292" lon="12.1810059"><ele>399.0</ele><time>2026-05-02T08:37:54.999Z</time></trkpt><trkpt lat="42.9195286" lon="12.1809172"><ele>399.0</ele><time>2026-05-02T08:37:57Z</time></trkpt><trkpt lat="42.9194393" lon="12.1808363"><ele>399.0</ele><time>2026-05-02T08:37:58.997Z</time></trkpt><trkpt lat="42.9193727" lon="12.1807835"><ele>399.0</ele><time>2026-05-02T08:38:00Z</time></trkpt><trkpt lat="42.9192877" lon="12.180761"><ele>399.0</ele><time>2026-05-02T08:38:01Z</time></trkpt><trkpt lat="42.9192144" lon="12.1807339"><ele>399.0</ele><time>2026-05-02T08:38:02Z</time></trkpt><trkpt lat="42.9191429" lon="12.1807204"><ele>399.0</ele><time>2026-05-02T08:38:03Z</time></trkpt><trkpt lat="42.9190678" lon="12.1807211"><ele>399.0</ele><time>2026-05-02T08:38:04Z</time></trkpt><trkpt lat="42.9189895" lon="12.180713"><ele>399.0</ele><time>2026-05-02T08:38:05Z</time></trkpt><trkpt lat="42.918917" lon="12.1806974"><ele>397.6666666666667</ele><time>2026-05-02T08:38:06Z</time></trkpt><trkpt lat="42.9188489" lon="12.1806656"><ele>396.33333333333337</ele><time>2026-05-02T08:38:06.999Z</time></trkpt><trkpt lat="42.918785" lon="12.1806144"><ele>395.0</ele><time>2026-05-02T08:38:08Z</time></trkpt><trkpt lat="42.9187281" lon="12.1805338"><ele>393.6666666666667</ele><time>2026-05-02T08:38:09Z</time></trkpt><trkpt lat="42.9186646" lon="12.1804461"><ele>392.33333333333337</ele><time>2026-05-02T08:38:10Z</time></trkpt><trkpt lat="42.9186077" lon="12.1803621"><ele>391.0</ele><time>2026-05-02T08:38:10.999Z</time></trkpt><trkpt lat="42.9185504" lon="12.1802882"><ele>391.00000000000006</ele><time>2026-05-02T08:38:12Z</time></trkpt><trkpt lat="42.9184986" lon="12.180206"><ele>391.0</ele><time>2026-05-02T08:38:13Z</time></trkpt><trkpt lat="42.9184469" lon="12.1801168"><ele>391.0</ele><time>2026-05-02T08:38:14Z</time></trkpt><trkpt lat="42.9184013" lon="12.1800264"><ele>391.0</ele><time>2026-05-02T08:38:15Z</time></trkpt><trkpt lat="42.9183506" lon="12.1799349"><ele>391.00000000000006</ele><time>2026-05-02T08:38:16Z</time></trkpt><trkpt lat="42.9183104" lon="12.1798522"><ele>391.0</ele><time>2026-05-02T08:38:17Z</time></trkpt><trkpt lat="42.9182631" lon="12.1797583"><ele>390.8</ele><time>2026-05-02T08:38:17.999Z</time></trkpt><trkpt lat="42.9182255" lon="12.179674"><ele>390.6</ele><time>2026-05-02T08:38:18.999Z</time></trkpt><trkpt lat="42.9181734" lon="12.1795075"><ele>390.4</ele><time>2026-05-02T08:38:20.999Z</time></trkpt><trkpt lat="42.9181428" lon="12.1794194"><ele>390.2</ele><time>2026-05-02T08:38:22Z</time></trkpt><trkpt lat="42.9181054" lon="12.1793486"><ele>390.0</ele><time>2026-05-02T08:38:23Z</time></trkpt><trkpt lat="42.9180236" lon="12.1792432"><ele>390.0</ele><time>2026-05-02T08:38:24.999Z</time></trkpt><trkpt lat="42.9178979" lon="12.1791869"><ele>390.0</ele><time>2026-05-02T08:38:27Z</time></trkpt><trkpt lat="42.9178187" lon="12.179173"><ele>390.0</ele><time>2026-05-02T08:38:28Z</time></trkpt><trkpt lat="42.9177319" lon="12.1791485"><ele>390.0</ele><time>2026-05-02T08:38:29Z</time></trkpt><trkpt lat="42.9176454" lon="12.1791284"><ele>390.0</ele><time>2026-05-02T08:38:30Z</time></trkpt><trkpt lat="42.91757" lon="12.1790999"><ele>389.1666666666667</ele><time>2026-05-02T08:38:31Z</time></trkpt><trkpt lat="42.9174889" lon="12.1790606"><ele>388.33333333333337</ele><time>2026-05-02T08:38:31.999Z</time></trkpt><trkpt lat="42.9174159" lon="12.1790234"><ele>387.5</ele><time>2026-05-02T08:38:33Z</time></trkpt><trkpt lat="42.9173564" lon="12.1789825"><ele>386.6666666666667</ele><time>2026-05-02T08:38:34Z</time></trkpt><trkpt lat="42.9172981" lon="12.1789213"><ele>385.83333333333337</ele><time>2026-05-02T08:38:35Z</time></trkpt><trkpt lat="42.9172302" lon="12.1788511"><ele>385.0</ele><time>2026-05-02T08:38:35.999Z</time></trkpt><trkpt lat="42.9171781" lon="12.1787686"><ele>383.6666666666667</ele><time>2026-05-02T08:38:37Z</time></trkpt><trkpt lat="42.9171332" lon="12.1786727"><ele>382.33333333333337</ele><time>2026-05-02T08:38:37.999Z</time></trkpt><trkpt lat="42.9170929" lon="12.1785598"><ele>381.0</ele><time>2026-05-02T08:38:40Z</time></trkpt><trkpt lat="42.9171159" lon="12.1784418"><ele>379.6666666666667</ele><time>2026-05-02T08:38:41.999Z</time></trkpt><trkpt lat="42.9171166" lon="12.1783492"><ele>378.33333333333337</ele><time>2026-05-02T08:38:44Z</time></trkpt><trkpt lat="42.9170294" lon="12.1782977"><ele>377.0</ele><time>2026-05-02T08:38:47Z</time></trkpt><trkpt lat="42.9169298" lon="12.1783614"><ele>377.0</ele><time>2026-05-02T08:38:49Z</time></trkpt><trkpt lat="42.9168215" lon="12.1784145"><ele>377.0</ele><time>2026-05-02T08:38:51Z</time></trkpt><trkpt lat="42.9167318" lon="12.1784067"><ele>377.0</ele><time>2026-05-02T08:38:53Z</time></trkpt><trkpt lat="42.9166898" lon="12.1782903"><ele>377.0</ele><time>2026-05-02T08:38:55Z</time></trkpt><trkpt lat="42.9166767" lon="12.1781799"><ele>377.0</ele><time>2026-05-02T08:38:57Z</time></trkpt><trkpt lat="42.9166647" lon="12.1780385"><ele>372.40000000000003</ele><time>2026-05-02T08:38:59Z</time></trkpt><trkpt lat="42.9165995" lon="12.1779521"><ele>367.8</ele><time>2026-05-02T08:39:01Z</time></trkpt><trkpt lat="42.9164974" lon="12.177915"><ele>363.2</ele><time>2026-05-02T08:39:02.999Z</time></trkpt><trkpt lat="42.9163823" lon="12.1779462"><ele>358.6</ele><time>2026-05-02T08:39:05Z</time></trkpt><trkpt lat="42.9162832" lon="12.1779633"><ele>354.0</ele><time>2026-05-02T08:39:07Z</time></trkpt><trkpt lat="42.9161884" lon="12.1779433"><ele>354.0</ele><time>2026-05-02T08:39:08.999Z</time></trkpt><trkpt lat="42.9161101" lon="12.1778662"><ele>354.0</ele><time>2026-05-02T08:39:11Z</time></trkpt><trkpt lat="42.9160426" lon="12.1777601"><ele>354.0</ele><time>2026-05-02T08:39:12.999Z</time></trkpt><trkpt lat="42.9159906" lon="12.1776607"><ele>354.0</ele><time>2026-05-02T08:39:15Z</time></trkpt><trkpt lat="42.915967" lon="12.1775397"><ele>354.0</ele><time>2026-05-02T08:39:16.999Z</time></trkpt><trkpt lat="42.9159429" lon="12.1774217"><ele>352.4</ele><time>2026-05-02T08:39:19Z</time></trkpt><trkpt lat="42.9158608" lon="12.1773687"><ele>350.79999999999995</ele><time>2026-05-02T08:39:21Z</time></trkpt><trkpt lat="42.9157652" lon="12.1773308"><ele>349.20000000000005</ele><time>2026-05-02T08:39:23Z</time></trkpt><trkpt lat="42.9157208" lon="12.1772103"><ele>347.6</ele><time>2026-05-02T08:39:25Z</time></trkpt><trkpt lat="42.9157151" lon="12.1770333"><ele>346.0</ele><time>2026-05-02T08:39:27Z</time></trkpt><trkpt lat="42.9157516" lon="12.1769104"><ele>346.0</ele><time>2026-05-02T08:39:28.999Z</time></trkpt><trkpt lat="42.9158163" lon="12.1768515"><ele>346.0</ele><time>2026-05-02T08:39:30.999Z</time></trkpt><trkpt lat="42.9158901" lon="12.1768042"><ele>346.0</ele><time>2026-05-02T08:39:32.999Z</time></trkpt><trkpt lat="42.9159814" lon="12.1767732"><ele>346.0</ele><time>2026-05-02T08:39:36Z</time></trkpt><trkpt lat="42.9160767" lon="12.1767516"><ele>346.0</ele><time>2026-05-02T08:39:38Z</time></trkpt><trkpt lat="42.9161749" lon="12.1767733"><ele>346.0</ele><time>2026-05-02T08:39:40Z</time></trkpt><trkpt lat="42.9162798" lon="12.1768817"><ele>346.0</ele><time>2026-05-02T08:39:42Z</time></trkpt><trkpt lat="42.9163614" lon="12.1769485"><ele>346.0</ele><time>2026-05-02T08:39:43Z</time></trkpt><trkpt lat="42.9164347" lon="12.1770007"><ele>346.0</ele><time>2026-05-02T08:39:44Z</time></trkpt><trkpt lat="42.9165312" lon="12.1770185"><ele>346.0</ele><time>2026-05-02T08:39:46Z</time></trkpt><trkpt lat="42.9166142" lon="12.1770096"><ele>346.0</ele><time>2026-05-02T08:39:48Z</time></trkpt><trkpt lat="42.916698" lon="12.1769355"><ele>346.3333333333333</ele><time>2026-05-02T08:39:49.999Z</time></trkpt><trkpt lat="42.9167472" lon="12.1768764"><ele>346.66666666666663</ele><time>2026-05-02T08:39:50.999Z</time></trkpt><trkpt lat="42.9168005" lon="12.1768043"><ele>347.0</ele><time>2026-05-02T08:39:52Z</time></trkpt><trkpt lat="42.9168539" lon="12.1767175"><ele>347.3333333333333</ele><time>2026-05-02T08:39:53Z</time></trkpt><trkpt lat="42.9169232" lon="12.1766059"><ele>347.6666666666667</ele><time>2026-05-02T08:39:54Z</time></trkpt><trkpt lat="42.9169728" lon="12.1765328"><ele>348.0</ele><time>2026-05-02T08:39:55Z</time></trkpt><trkpt lat="42.9170267" lon="12.1764703"><ele>349.4</ele><time>2026-05-02T08:39:56Z</time></trkpt><trkpt lat="42.9170858" lon="12.1764317"><ele>350.79999999999995</ele><time>2026-05-02T08:39:57Z</time></trkpt><trkpt lat="42.9171512" lon="12.1764117"><ele>352.2</ele><time>2026-05-02T08:39:57.999Z</time></trkpt><trkpt lat="42.9172518" lon="12.1763263"><ele>353.6</ele><time>2026-05-02T08:40:00Z</time></trkpt><trkpt lat="42.9173257" lon="12.176222"><ele>355.0</ele><time>2026-05-02T08:40:02Z</time></trkpt><trkpt lat="42.9173885" lon="12.1761025"><ele>355.0</ele><time>2026-05-02T08:40:04Z</time></trkpt><trkpt lat="42.9174643" lon="12.1759671"><ele>355.0</ele><time>2026-05-02T08:40:06Z</time></trkpt><trkpt lat="42.9174708" lon="12.1758353"><ele>355.0</ele><time>2026-05-02T08:40:08Z</time></trkpt><trkpt lat="42.917456" lon="12.1756866"><ele>355.0</ele><time>2026-05-02T08:40:10Z</time></trkpt><trkpt lat="42.9174213" lon="12.1755566"><ele>355.0</ele><time>2026-05-02T08:40:12Z</time></trkpt><trkpt lat="42.9173429" lon="12.1755094"><ele>357.3333333333333</ele><time>2026-05-02T08:40:13.999Z</time></trkpt><trkpt lat="42.9172628" lon="12.1755045"><ele>359.66666666666663</ele><time>2026-05-02T08:40:16Z</time></trkpt><trkpt lat="42.9171588" lon="12.1754755"><ele>362.0</ele><time>2026-05-02T08:40:18Z</time></trkpt><trkpt lat="42.9170941" lon="12.175469"><ele>364.3333333333333</ele><time>2026-05-02T08:40:19Z</time></trkpt><trkpt lat="42.9169755" lon="12.1754104"><ele>366.6666666666667</ele><time>2026-05-02T08:40:21Z</time></trkpt><trkpt lat="42.9169158" lon="12.1753682"><ele>369.0</ele><time>2026-05-02T08:40:22Z</time></trkpt><trkpt lat="42.9168526" lon="12.1753291"><ele>369.0</ele><time>2026-05-02T08:40:22.999Z</time></trkpt><trkpt lat="42.9167905" lon="12.1752825"><ele>369.0</ele><time>2026-05-02T08:40:24Z</time></trkpt><trkpt lat="42.9167389" lon="12.175229"><ele>369.0</ele><time>2026-05-02T08:40:25Z</time></trkpt><trkpt lat="42.9166847" lon="12.1751813"><ele>369.0</ele><time>2026-05-02T08:40:26Z</time></trkpt><trkpt lat="42.9166387" lon="12.1750799"><ele>369.0</ele><time>2026-05-02T08:40:27.999Z</time></trkpt><trkpt lat="42.9166391" lon="12.1749667"><ele>369.0</ele><time>2026-05-02T08:40:29.999Z</time></trkpt><trkpt lat="42.9166682" lon="12.1748746"><ele>369.0</ele><time>2026-05-02T08:40:31Z</time></trkpt><trkpt lat="42.9166918" lon="12.174775"><ele>371.0</ele><time>2026-05-02T08:40:32Z</time></trkpt><trkpt lat="42.9167107" lon="12.1746777"><ele>373.0</ele><time>2026-05-02T08:40:33Z</time></trkpt><trkpt lat="42.9167321" lon="12.1745834"><ele>375.0</ele><time>2026-05-02T08:40:34Z</time></trkpt><trkpt lat="42.9167216" lon="12.1744907"><ele>377.0</ele><time>2026-05-02T08:40:35Z</time></trkpt><trkpt lat="42.9166942" lon="12.1744093"><ele>379.0</ele><time>2026-05-02T08:40:35.999Z</time></trkpt><trkpt lat="42.9166716" lon="12.1743019"><ele>381.0</ele><time>2026-05-02T08:40:37Z</time></trkpt><trkpt lat="42.9166324" lon="12.1741906"><ele>381.0</ele><time>2026-05-02T08:40:38Z</time></trkpt><trkpt lat="42.9166012" lon="12.1740977"><ele>381.0</ele><time>2026-05-02T08:40:39Z</time></trkpt><trkpt lat="42.916579" lon="12.1739934"><ele>381.0</ele><time>2026-05-02T08:40:39.999Z</time></trkpt><trkpt lat="42.9165398" lon="12.1738883"><ele>381.0</ele><time>2026-05-02T08:40:41Z</time></trkpt><trkpt lat="42.9165091" lon="12.1737794"><ele>381.0</ele><time>2026-05-02T08:40:42Z</time></trkpt><trkpt lat="42.9164852" lon="12.1736944"><ele>381.0</ele><time>2026-05-02T08:40:43Z</time></trkpt><trkpt lat="42.9164936" lon="12.1735487"><ele>382.8</ele><time>2026-05-02T08:40:44.999Z</time></trkpt><trkpt lat="42.916543" lon="12.1734327"><ele>384.6</ele><time>2026-05-02T08:40:46.999Z</time></trkpt><trkpt lat="42.9165882" lon="12.173266"><ele>386.4</ele><time>2026-05-02T08:40:49Z</time></trkpt><trkpt lat="42.9166096" lon="12.1731838"><ele>388.2</ele><time>2026-05-02T08:40:50Z</time></trkpt><trkpt lat="42.9166609" lon="12.1730261"><ele>390.0</ele><time>2026-05-02T08:40:52Z</time></trkpt><trkpt lat="42.9166952" lon="12.1729429"><ele>392.0</ele><time>2026-05-02T08:40:53Z</time></trkpt><trkpt lat="42.9167518" lon="12.1728693"><ele>394.0</ele><time>2026-05-02T08:40:54Z</time></trkpt><trkpt lat="42.9168046" lon="12.1727905"><ele>396.0</ele><time>2026-05-02T08:40:55Z</time></trkpt><trkpt lat="42.9168709" lon="12.1727112"><ele>398.0</ele><time>2026-05-02T08:40:55.999Z</time></trkpt><trkpt lat="42.9169309" lon="12.1726248"><ele>400.0</ele><time>2026-05-02T08:40:57Z</time></trkpt><trkpt lat="42.9169989" lon="12.1725433"><ele>402.0</ele><time>2026-05-02T08:40:58Z</time></trkpt><trkpt lat="42.9170732" lon="12.1724652"><ele>402.0</ele><time>2026-05-02T08:40:59Z</time></trkpt><trkpt lat="42.9171421" lon="12.1724113"><ele>402.0</ele><time>2026-05-02T08:41:00Z</time></trkpt><trkpt lat="42.9172083" lon="12.1723482"><ele>402.0</ele><time>2026-05-02T08:41:00.999Z</time></trkpt><trkpt lat="42.9172835" lon="12.1722753"><ele>402.0</ele><time>2026-05-02T08:41:02Z</time></trkpt><trkpt lat="42.9173283" lon="12.1722103"><ele>402.0</ele><time>2026-05-02T08:41:03Z</time></trkpt><trkpt lat="42.9174018" lon="12.1721301"><ele>402.0</ele><time>2026-05-02T08:41:04Z</time></trkpt><trkpt lat="42.9174477" lon="12.1720551"><ele>402.1666666666667</ele><time>2026-05-02T08:41:05Z</time></trkpt><trkpt lat="42.9175044" lon="12.171908"><ele>402.33333333333337</ele><time>2026-05-02T08:41:07Z</time></trkpt><trkpt lat="42.9175304" lon="12.1718156"><ele>402.5</ele><time>2026-05-02T08:41:08Z</time></trkpt><trkpt lat="42.9175487" lon="12.1717235"><ele>402.6666666666667</ele><time>2026-05-02T08:41:09Z</time></trkpt><trkpt lat="42.9175736" lon="12.1716239"><ele>402.83333333333337</ele><time>2026-05-02T08:41:09.999Z</time></trkpt><trkpt lat="42.917596" lon="12.1715333"><ele>403.0</ele><time>2026-05-02T08:41:10.999Z</time></trkpt><trkpt lat="42.9176063" lon="12.1714324"><ele>405.00000000000006</ele><time>2026-05-02T08:41:11.999Z</time></trkpt><trkpt lat="42.9175726" lon="12.17134"><ele>407.0</ele><time>2026-05-02T08:41:13Z</time></trkpt><trkpt lat="42.9175561" lon="12.1712496"><ele>409.0</ele><time>2026-05-02T08:41:14Z</time></trkpt><trkpt lat="42.917547" lon="12.1711505"><ele>411.0</ele><time>2026-05-02T08:41:14.999Z</time></trkpt><trkpt lat="42.9176186" lon="12.1710117"><ele>413.00000000000006</ele><time>2026-05-02T08:41:17Z</time></trkpt><trkpt lat="42.9176791" lon="12.1709341"><ele>415.0</ele><time>2026-05-02T08:41:18Z</time></trkpt><trkpt lat="42.9177609" lon="12.1708437"><ele>415.0</ele><time>2026-05-02T08:41:19Z</time></trkpt><trkpt lat="42.917837" lon="12.1707629"><ele>415.0</ele><time>2026-05-02T08:41:20Z</time></trkpt><trkpt lat="42.9179206" lon="12.170688"><ele>415.0</ele><time>2026-05-02T08:41:21Z</time></trkpt><trkpt lat="42.9179753" lon="12.1706329"><ele>415.0</ele><time>2026-05-02T08:41:21.999Z</time></trkpt><trkpt lat="42.9180606" lon="12.1704855"><ele>415.0</ele><time>2026-05-02T08:41:24Z</time></trkpt><trkpt lat="42.9180952" lon="12.1703959"><ele>416.00000000000006</ele><time>2026-05-02T08:41:25Z</time></trkpt><trkpt lat="42.9181155" lon="12.1703109"><ele>417.0</ele><time>2026-05-02T08:41:26Z</time></trkpt><trkpt lat="42.9181073" lon="12.1701886"><ele>418.0</ele><time>2026-05-02T08:41:28Z</time></trkpt><trkpt lat="42.9180273" lon="12.1701571"><ele>419.0</ele><time>2026-05-02T08:41:30Z</time></trkpt><trkpt lat="42.9179396" lon="12.1702642"><ele>420.00000000000006</ele><time>2026-05-02T08:41:32Z</time></trkpt><trkpt lat="42.9178936" lon="12.1703234"><ele>421.0</ele><time>2026-05-02T08:41:33Z</time></trkpt><trkpt lat="42.9178023" lon="12.1703542"><ele>421.00000000000006</ele><time>2026-05-02T08:41:34.999Z</time></trkpt><trkpt lat="42.9177021" lon="12.1703521"><ele>421.0</ele><time>2026-05-02T08:41:37Z</time></trkpt><trkpt lat="42.9176107" lon="12.1703631"><ele>421.0</ele><time>2026-05-02T08:41:39Z</time></trkpt><trkpt lat="42.9175244" lon="12.1703208"><ele>421.0</ele><time>2026-05-02T08:41:42Z</time></trkpt><trkpt lat="42.9175093" lon="12.1702285"><ele>421.00000000000006</ele><time>2026-05-02T08:41:44Z</time></trkpt><trkpt lat="42.9175461" lon="12.170112"><ele>421.0</ele><time>2026-05-02T08:41:45.999Z</time></trkpt><trkpt lat="42.9175975" lon="12.1700029"><ele>421.0</ele><time>2026-05-02T08:41:48Z</time></trkpt><trkpt lat="42.9176465" lon="12.1698783"><ele>421.0</ele><time>2026-05-02T08:41:50Z</time></trkpt><trkpt lat="42.9176611" lon="12.1697432"><ele>421.0</ele><time>2026-05-02T08:41:51.999Z</time></trkpt><trkpt lat="42.9176267" lon="12.1696065"><ele>421.0</ele><time>2026-05-02T08:41:53.999Z</time></trkpt><trkpt lat="42.9175065" lon="12.169478"><ele>426.00000000000006</ele><time>2026-05-02T08:41:56Z</time></trkpt><trkpt lat="42.9174356" lon="12.169419"><ele>431.0</ele><time>2026-05-02T08:41:57Z</time></trkpt><trkpt lat="42.9173733" lon="12.1693427"><ele>436.0</ele><time>2026-05-02T08:41:58Z</time></trkpt><trkpt lat="42.9173375" lon="12.1692714"><ele>441.0</ele><time>2026-05-02T08:41:59Z</time></trkpt><trkpt lat="42.9173498" lon="12.1691517"><ele>446.00000000000006</ele><time>2026-05-02T08:41:59.999Z</time></trkpt><trkpt lat="42.917337" lon="12.1690249"><ele>451.0</ele><time>2026-05-02T08:42:01Z</time></trkpt><trkpt lat="42.9173369" lon="12.1688897"><ele>453.6</ele><time>2026-05-02T08:42:02Z</time></trkpt><trkpt lat="42.9173456" lon="12.1687757"><ele>456.20000000000005</ele><time>2026-05-02T08:42:02.999Z</time></trkpt><trkpt lat="42.9173523" lon="12.1686687"><ele>458.79999999999995</ele><time>2026-05-02T08:42:04Z</time></trkpt><trkpt lat="42.9173972" lon="12.168554"><ele>461.4</ele><time>2026-05-02T08:42:05Z</time></trkpt><trkpt lat="42.9174891" lon="12.1684437"><ele>464.0</ele><time>2026-05-02T08:42:06Z</time></trkpt><trkpt lat="42.9175571" lon="12.1683485"><ele>462.16666666666663</ele><time>2026-05-02T08:42:07Z</time></trkpt><trkpt lat="42.9176065" lon="12.1682895"><ele>460.3333333333333</ele><time>2026-05-02T08:42:08Z</time></trkpt><trkpt lat="42.9176357" lon="12.1681978"><ele>458.5</ele><time>2026-05-02T08:42:09Z</time></trkpt><trkpt lat="42.9176559" lon="12.1680811"><ele>456.66666666666663</ele><time>2026-05-02T08:42:10Z</time></trkpt><trkpt lat="42.9176435" lon="12.1679334"><ele>454.8333333333333</ele><time>2026-05-02T08:42:11Z</time></trkpt><trkpt lat="42.9176416" lon="12.1678213"><ele>453.0</ele><time>2026-05-02T08:42:11.999Z</time></trkpt><trkpt lat="42.9176666" lon="12.1677203"><ele>453.0</ele><time>2026-05-02T08:42:13Z</time></trkpt><trkpt lat="42.9177242" lon="12.1676282"><ele>452.99999999999994</ele><time>2026-05-02T08:42:14Z</time></trkpt><trkpt lat="42.9178081" lon="12.1675102"><ele>452.99999999999994</ele><time>2026-05-02T08:42:15Z</time></trkpt><trkpt lat="42.917876" lon="12.1674"><ele>453.0</ele><time>2026-05-02T08:42:16Z</time></trkpt><trkpt lat="42.9179475" lon="12.1672947"><ele>453.0</ele><time>2026-05-02T08:42:16.999Z</time></trkpt><trkpt lat="42.9180023" lon="12.1671879"><ele>454.3333333333333</ele><time>2026-05-02T08:42:18Z</time></trkpt><trkpt lat="42.9180432" lon="12.1670811"><ele>455.66666666666663</ele><time>2026-05-02T08:42:18.999Z</time></trkpt><trkpt lat="42.9180736" lon="12.1669753"><ele>457.0</ele><time>2026-05-02T08:42:20Z</time></trkpt><trkpt lat="42.9180931" lon="12.166849"><ele>458.3333333333333</ele><time>2026-05-02T08:42:21Z</time></trkpt><trkpt lat="42.9181068" lon="12.1667344"><ele>459.66666666666663</ele><time>2026-05-02T08:42:22Z</time></trkpt><trkpt lat="42.9181169" lon="12.1666461"><ele>461.0</ele><time>2026-05-02T08:42:23Z</time></trkpt><trkpt lat="42.918115" lon="12.1665486"><ele>461.8333333333333</ele><time>2026-05-02T08:42:24Z</time></trkpt><trkpt lat="42.9181032" lon="12.1664359"><ele>462.66666666666663</ele><time>2026-05-02T08:42:25Z</time></trkpt><trkpt lat="42.918094" lon="12.166319"><ele>463.5</ele><time>2026-05-02T08:42:26Z</time></trkpt><trkpt lat="42.9180924" lon="12.1662004"><ele>464.33333333333337</ele><time>2026-05-02T08:42:27Z</time></trkpt><trkpt lat="42.9180687" lon="12.1661104"><ele>465.1666666666667</ele><time>2026-05-02T08:42:27.999Z</time></trkpt><trkpt lat="42.9180592" lon="12.1660194"><ele>466.0</ele><time>2026-05-02T08:42:28.999Z</time></trkpt><trkpt lat="42.9180397" lon="12.1659292"><ele>466.00000000000006</ele><time>2026-05-02T08:42:30Z</time></trkpt><trkpt lat="42.9180222" lon="12.1658279"><ele>466.0</ele><time>2026-05-02T08:42:30.999Z</time></trkpt><trkpt lat="42.9180006" lon="12.1657395"><ele>466.0</ele><time>2026-05-02T08:42:31.999Z</time></trkpt><trkpt lat="42.9179715" lon="12.1656389"><ele>466.0</ele><time>2026-05-02T08:42:34Z</time></trkpt><trkpt lat="42.9179634" lon="12.1655228"><ele>466.00000000000006</ele><time>2026-05-02T08:49:25Z</time></trkpt><trkpt lat="42.918007" lon="12.1654301"><ele>466.0</ele><time>2026-05-02T08:49:28Z</time></trkpt><trkpt lat="42.9180785" lon="12.1653634"><ele>466.33333333333337</ele><time>2026-05-02T08:49:31Z</time></trkpt><trkpt lat="42.9181679" lon="12.1652943"><ele>466.6666666666667</ele><time>2026-05-02T08:49:33Z</time></trkpt><trkpt lat="42.9182522" lon="12.1652385"><ele>467.0</ele><time>2026-05-02T08:49:34.999Z</time></trkpt><trkpt lat="42.918341" lon="12.1651672"><ele>467.33333333333337</ele><time>2026-05-02T08:49:38Z</time></trkpt><trkpt lat="42.9183996" lon="12.1651337"><ele>467.6666666666667</ele><time>2026-05-02T08:49:40Z</time></trkpt><trkpt lat="42.9184646" lon="12.1651015"><ele>468.0</ele><time>2026-05-02T08:49:42Z</time></trkpt><trkpt lat="42.9185627" lon="12.1650542"><ele>468.6666666666667</ele><time>2026-05-02T08:49:44Z</time></trkpt><trkpt lat="42.9186685" lon="12.1649844"><ele>469.33333333333337</ele><time>2026-05-02T08:49:46Z</time></trkpt><trkpt lat="42.918734" lon="12.1649504"><ele>470.0</ele><time>2026-05-02T08:49:47Z</time></trkpt><trkpt lat="42.9187916" lon="12.1649144"><ele>470.6666666666667</ele><time>2026-05-02T08:49:48Z</time></trkpt><trkpt lat="42.9188597" lon="12.1648783"><ele>471.33333333333337</ele><time>2026-05-02T08:49:49Z</time></trkpt><trkpt lat="42.9189231" lon="12.1648583"><ele>472.0</ele><time>2026-05-02T08:49:50Z</time></trkpt><trkpt lat="42.9189949" lon="12.1648295"><ele>472.0</ele><time>2026-05-02T08:49:51Z</time></trkpt><trkpt lat="42.9190596" lon="12.164805"><ele>472.00000000000006</ele><time>2026-05-02T08:49:52Z</time></trkpt><trkpt lat="42.9191796" lon="12.1647682"><ele>472.00000000000006</ele><time>2026-05-02T08:49:53.999Z</time></trkpt><trkpt lat="42.9192478" lon="12.164741"><ele>472.0</ele><time>2026-05-02T08:49:55Z</time></trkpt><trkpt lat="42.9193518" lon="12.1647017"><ele>472.0</ele><time>2026-05-02T08:49:57Z</time></trkpt><trkpt lat="42.9194597" lon="12.1647021"><ele>472.83333333333337</ele><time>2026-05-02T08:49:59Z</time></trkpt><trkpt lat="42.9195833" lon="12.1647236"><ele>473.6666666666667</ele><time>2026-05-02T08:50:01Z</time></trkpt><trkpt lat="42.9196459" lon="12.1647422"><ele>474.5</ele><time>2026-05-02T08:50:02Z</time></trkpt><trkpt lat="42.9197204" lon="12.1647643"><ele>475.33333333333337</ele><time>2026-05-02T08:50:03Z</time></trkpt><trkpt lat="42.9197879" lon="12.1647924"><ele>476.1666666666667</ele><time>2026-05-02T08:50:04Z</time></trkpt><trkpt lat="42.9198582" lon="12.1648247"><ele>477.0</ele><time>2026-05-02T08:50:04.999Z</time></trkpt><trkpt lat="42.919933" lon="12.1648335"><ele>477.0</ele><time>2026-05-02T08:50:06Z</time></trkpt><trkpt lat="42.9200019" lon="12.1648484"><ele>477.0</ele><time>2026-05-02T08:50:07Z</time></trkpt><trkpt lat="42.9200754" lon="12.1648629"><ele>477.0</ele><time>2026-05-02T08:50:08Z</time></trkpt><trkpt lat="42.9201446" lon="12.1648921"><ele>477.0</ele><time>2026-05-02T08:50:09Z</time></trkpt><trkpt lat="42.920226" lon="12.1649229"><ele>477.0</ele><time>2026-05-02T08:50:10Z</time></trkpt><trkpt lat="42.9203087" lon="12.1649586"><ele>477.0</ele><time>2026-05-02T08:50:11Z</time></trkpt><trkpt lat="42.9203948" lon="12.1649813"><ele>478.6666666666667</ele><time>2026-05-02T08:50:12Z</time></trkpt><trkpt lat="42.9204843" lon="12.1649977"><ele>480.33333333333337</ele><time>2026-05-02T08:50:13Z</time></trkpt><trkpt lat="42.9205556" lon="12.1650176"><ele>482.0</ele><time>2026-05-02T08:50:14Z</time></trkpt><trkpt lat="42.920646" lon="12.1650507"><ele>483.6666666666667</ele><time>2026-05-02T08:50:14.999Z</time></trkpt><trkpt lat="42.9207339" lon="12.1650848"><ele>485.33333333333337</ele><time>2026-05-02T08:50:16Z</time></trkpt><trkpt lat="42.9208194" lon="12.1651304"><ele>487.0</ele><time>2026-05-02T08:50:17Z</time></trkpt><trkpt lat="42.9208927" lon="12.1651867"><ele>486.6</ele><time>2026-05-02T08:50:18Z</time></trkpt><trkpt lat="42.9209771" lon="12.1652435"><ele>486.20000000000005</ele><time>2026-05-02T08:50:18.999Z</time></trkpt><trkpt lat="42.9210665" lon="12.1652877"><ele>485.8</ele><time>2026-05-02T08:50:20Z</time></trkpt><trkpt lat="42.9211524" lon="12.1653405"><ele>485.4</ele><time>2026-05-02T08:50:21Z</time></trkpt><trkpt lat="42.9212455" lon="12.1653818"><ele>485.0</ele><time>2026-05-02T08:50:22Z</time></trkpt><trkpt lat="42.9213276" lon="12.1654079"><ele>484.99999999999994</ele><time>2026-05-02T08:50:23Z</time></trkpt><trkpt lat="42.9214072" lon="12.1654297"><ele>485.0</ele><time>2026-05-02T08:50:23.999Z</time></trkpt><trkpt lat="42.9214821" lon="12.1654412"><ele>485.0</ele><time>2026-05-02T08:50:24.999Z</time></trkpt><trkpt lat="42.9215533" lon="12.1654467"><ele>485.0</ele><time>2026-05-02T08:50:26Z</time></trkpt><trkpt lat="42.9216319" lon="12.1654286"><ele>484.99999999999994</ele><time>2026-05-02T08:50:27Z</time></trkpt><trkpt lat="42.9217006" lon="12.1653991"><ele>485.0</ele><time>2026-05-02T08:50:28Z</time></trkpt><trkpt lat="42.9217674" lon="12.1653419"><ele>484.49999999999994</ele><time>2026-05-02T08:50:29Z</time></trkpt><trkpt lat="42.9218443" lon="12.1652938"><ele>484.0</ele><time>2026-05-02T08:50:30Z</time></trkpt><trkpt lat="42.9219188" lon="12.1652416"><ele>483.5</ele><time>2026-05-02T08:50:30.999Z</time></trkpt><trkpt lat="42.9220019" lon="12.1651886"><ele>483.0</ele><time>2026-05-02T08:50:31.999Z</time></trkpt><trkpt lat="42.9220888" lon="12.1651334"><ele>482.49999999999994</ele><time>2026-05-02T08:50:33Z</time></trkpt><trkpt lat="42.92217" lon="12.1650877"><ele>482.0</ele><time>2026-05-02T08:50:34Z</time></trkpt><trkpt lat="42.9222514" lon="12.1650251"><ele>482.0</ele><time>2026-05-02T08:50:35Z</time></trkpt><trkpt lat="42.9223357" lon="12.1649694"><ele>482.00000000000006</ele><time>2026-05-02T08:50:36Z</time></trkpt><trkpt lat="42.9224241" lon="12.1649073"><ele>482.00000000000006</ele><time>2026-05-02T08:50:37Z</time></trkpt><trkpt lat="42.9225013" lon="12.1648473"><ele>482.0</ele><time>2026-05-02T08:50:38Z</time></trkpt><trkpt lat="42.9225806" lon="12.1648081"><ele>482.0</ele><time>2026-05-02T08:50:38.999Z</time></trkpt><trkpt lat="42.9226701" lon="12.1647862"><ele>483.20000000000005</ele><time>2026-05-02T08:50:40Z</time></trkpt><trkpt lat="42.9227639" lon="12.1647717"><ele>484.40000000000003</ele><time>2026-05-02T08:50:41Z</time></trkpt><trkpt lat="42.9228707" lon="12.1647704"><ele>485.59999999999997</ele><time>2026-05-02T08:50:42Z</time></trkpt><trkpt lat="42.9229735" lon="12.1647676"><ele>486.79999999999995</ele><time>2026-05-02T08:50:43Z</time></trkpt><trkpt lat="42.923072" lon="12.1647597"><ele>488.0</ele><time>2026-05-02T08:50:44Z</time></trkpt><trkpt lat="42.9231571" lon="12.1647633"><ele>487.99999999999994</ele><time>2026-05-02T08:50:44.999Z</time></trkpt><trkpt lat="42.9232373" lon="12.1647528"><ele>488.0</ele><time>2026-05-02T08:50:46Z</time></trkpt><trkpt lat="42.9233167" lon="12.1647154"><ele>488.0</ele><time>2026-05-02T08:50:47Z</time></trkpt><trkpt lat="42.9233899" lon="12.1646684"><ele>488.0</ele><time>2026-05-02T08:50:48Z</time></trkpt><trkpt lat="42.9234688" lon="12.1646288"><ele>487.99999999999994</ele><time>2026-05-02T08:50:49Z</time></trkpt><trkpt lat="42.9235591" lon="12.1645851"><ele>488.0</ele><time>2026-05-02T08:50:50Z</time></trkpt><trkpt lat="42.9236415" lon="12.1645345"><ele>488.2</ele><time>2026-05-02T08:50:51Z</time></trkpt><trkpt lat="42.9237234" lon="12.1644923"><ele>488.4</ele><time>2026-05-02T08:50:52Z</time></trkpt><trkpt lat="42.9238086" lon="12.1644371"><ele>488.59999999999997</ele><time>2026-05-02T08:50:53Z</time></trkpt><trkpt lat="42.9238901" lon="12.1643905"><ele>488.79999999999995</ele><time>2026-05-02T08:50:54Z</time></trkpt><trkpt lat="42.9239746" lon="12.1643466"><ele>489.0</ele><time>2026-05-02T08:50:55Z</time></trkpt><trkpt lat="42.9240614" lon="12.1643022"><ele>489.0</ele><time>2026-05-02T08:50:56Z</time></trkpt><trkpt lat="42.9241492" lon="12.1642568"><ele>489.0</ele><time>2026-05-02T08:50:57Z</time></trkpt><trkpt lat="42.9242377" lon="12.1642093"><ele>489.0</ele><time>2026-05-02T08:50:58Z</time></trkpt><trkpt lat="42.9243241" lon="12.1641676"><ele>489.0</ele><time>2026-05-02T08:50:59Z</time></trkpt><trkpt lat="42.924418" lon="12.1641318"><ele>489.0</ele><time>2026-05-02T08:50:59.999Z</time></trkpt><trkpt lat="42.9245179" lon="12.1640993"><ele>488.6</ele><time>2026-05-02T08:51:00.999Z</time></trkpt><trkpt lat="42.9246184" lon="12.1640661"><ele>488.2</ele><time>2026-05-02T08:51:02Z</time></trkpt><trkpt lat="42.9247107" lon="12.1640294"><ele>487.80000000000007</ele><time>2026-05-02T08:51:03Z</time></trkpt><trkpt lat="42.9248088" lon="12.1639909"><ele>487.40000000000003</ele><time>2026-05-02T08:51:04Z</time></trkpt><trkpt lat="42.9249122" lon="12.163959"><ele>487.0</ele><time>2026-05-02T08:51:05Z</time></trkpt><trkpt lat="42.9250024" lon="12.1639335"><ele>486.40000000000003</ele><time>2026-05-02T08:51:06Z</time></trkpt><trkpt lat="42.9250972" lon="12.1639047"><ele>485.80000000000007</ele><time>2026-05-02T08:51:07Z</time></trkpt><trkpt lat="42.9251919" lon="12.1638708"><ele>485.2</ele><time>2026-05-02T08:51:08Z</time></trkpt><trkpt lat="42.925286" lon="12.1638423"><ele>484.6</ele><time>2026-05-02T08:51:09Z</time></trkpt><trkpt lat="42.9253799" lon="12.1638112"><ele>484.0</ele><time>2026-05-02T08:51:09.999Z</time></trkpt><trkpt lat="42.925473" lon="12.1637874"><ele>484.0</ele><time>2026-05-02T08:51:11Z</time></trkpt><trkpt lat="42.9255669" lon="12.1637793"><ele>484.0</ele><time>2026-05-02T08:51:12Z</time></trkpt><trkpt lat="42.9256495" lon="12.1637953"><ele>484.0</ele><time>2026-05-02T08:51:13Z</time></trkpt><trkpt lat="42.9257324" lon="12.1638238"><ele>484.0</ele><time>2026-05-02T08:51:14Z</time></trkpt><trkpt lat="42.9258147" lon="12.1638815"><ele>484.0</ele><time>2026-05-02T08:51:15Z</time></trkpt><trkpt lat="42.9258988" lon="12.1639498"><ele>485.6</ele><time>2026-05-02T08:51:16Z</time></trkpt><trkpt lat="42.9259835" lon="12.164013"><ele>487.2</ele><time>2026-05-02T08:51:17Z</time></trkpt><trkpt lat="42.926056" lon="12.1640641"><ele>488.80000000000007</ele><time>2026-05-02T08:51:18Z</time></trkpt><trkpt lat="42.926142" lon="12.164085"><ele>490.40000000000003</ele><time>2026-05-02T08:51:18.999Z</time></trkpt><trkpt lat="42.9262442" lon="12.1640973"><ele>492.0</ele><time>2026-05-02T08:51:20Z</time></trkpt><trkpt lat="42.9263361" lon="12.1641068"><ele>492.0</ele><time>2026-05-02T08:51:20.999Z</time></trkpt><trkpt lat="42.9264191" lon="12.1641194"><ele>492.00000000000006</ele><time>2026-05-02T08:51:22Z</time></trkpt><trkpt lat="42.9264939" lon="12.1641226"><ele>492.00000000000006</ele><time>2026-05-02T08:51:23Z</time></trkpt><trkpt lat="42.92656" lon="12.1640996"><ele>492.0</ele><time>2026-05-02T08:51:24Z</time></trkpt><trkpt lat="42.9266451" lon="12.1639938"><ele>492.0</ele><time>2026-05-02T08:51:26Z</time></trkpt><trkpt lat="42.9267013" lon="12.1638558"><ele>493.6666666666667</ele><time>2026-05-02T08:51:28Z</time></trkpt><trkpt lat="42.9267397" lon="12.1637625"><ele>495.33333333333337</ele><time>2026-05-02T08:51:28.999Z</time></trkpt><trkpt lat="42.9267756" lon="12.1636673"><ele>497.0</ele><time>2026-05-02T08:51:30Z</time></trkpt><trkpt lat="42.9268061" lon="12.1635707"><ele>498.6666666666667</ele><time>2026-05-02T08:51:31Z</time></trkpt><trkpt lat="42.9268222" lon="12.1634707"><ele>500.33333333333337</ele><time>2026-05-02T08:51:32Z</time></trkpt><trkpt lat="42.92683" lon="12.1633658"><ele>502.0</ele><time>2026-05-02T08:51:32.999Z</time></trkpt><trkpt lat="42.9268281" lon="12.1632704"><ele>500.40000000000003</ele><time>2026-05-02T08:51:34Z</time></trkpt><trkpt lat="42.9268301" lon="12.163181"><ele>498.80000000000007</ele><time>2026-05-02T08:51:35Z</time></trkpt><trkpt lat="42.9268465" lon="12.163095"><ele>497.2</ele><time>2026-05-02T08:51:35.999Z</time></trkpt><trkpt lat="42.9269113" lon="12.1629643"><ele>495.6</ele><time>2026-05-02T08:51:37.999Z</time></trkpt><trkpt lat="42.9270315" lon="12.1629079"><ele>494.0</ele><time>2026-05-02T08:51:40Z</time></trkpt><trkpt lat="42.9271148" lon="12.1629149"><ele>493.99999999999994</ele><time>2026-05-02T08:51:41Z</time></trkpt><trkpt lat="42.9271928" lon="12.1629374"><ele>494.0</ele><time>2026-05-02T08:51:42Z</time></trkpt><trkpt lat="42.9272656" lon="12.1629354"><ele>494.0</ele><time>2026-05-02T08:51:42.999Z</time></trkpt><trkpt lat="42.9273485" lon="12.1629305"><ele>494.0</ele><time>2026-05-02T08:51:44Z</time></trkpt><trkpt lat="42.927433" lon="12.1629405"><ele>493.99999999999994</ele><time>2026-05-02T08:51:45Z</time></trkpt><trkpt lat="42.9275248" lon="12.162961"><ele>494.0</ele><time>2026-05-02T08:51:46Z</time></trkpt><trkpt lat="42.927615" lon="12.1630022"><ele>494.0</ele><time>2026-05-02T08:51:47Z</time></trkpt><trkpt lat="42.9277074" lon="12.1630463"><ele>494.0</ele><time>2026-05-02T08:51:48Z</time></trkpt><trkpt lat="42.9277766" lon="12.1631161"><ele>494.0</ele><time>2026-05-02T08:51:49Z</time></trkpt><trkpt lat="42.9278522" lon="12.1632028"><ele>494.0</ele><time>2026-05-02T08:51:50Z</time></trkpt><trkpt lat="42.9279272" lon="12.1632978"><ele>494.0</ele><time>2026-05-02T08:51:51Z</time></trkpt><trkpt lat="42.9279904" lon="12.1633846"><ele>496.2</ele><time>2026-05-02T08:51:52Z</time></trkpt><trkpt lat="42.9280578" lon="12.1634636"><ele>498.4</ele><time>2026-05-02T08:51:52.999Z</time></trkpt><trkpt lat="42.9281404" lon="12.1635307"><ele>500.6</ele><time>2026-05-02T08:51:54Z</time></trkpt><trkpt lat="42.9282191" lon="12.1636024"><ele>502.8</ele><time>2026-05-02T08:51:55Z</time></trkpt><trkpt lat="42.928311" lon="12.1636663"><ele>505.0</ele><time>2026-05-02T08:51:56Z</time></trkpt><trkpt lat="42.9284246" lon="12.1637238"><ele>506.0</ele><time>2026-05-02T08:51:57Z</time></trkpt><trkpt lat="42.9285149" lon="12.1637911"><ele>507.0</ele><time>2026-05-02T08:51:57.999Z</time></trkpt><trkpt lat="42.9285962" lon="12.1638566"><ele>508.0</ele><time>2026-05-02T08:51:59Z</time></trkpt><trkpt lat="42.928659" lon="12.1638995"><ele>509.0</ele><time>2026-05-02T08:52:00Z</time></trkpt><trkpt lat="42.9287685" lon="12.1639182"><ele>510.0</ele><time>2026-05-02T08:52:02Z</time></trkpt><trkpt lat="42.9288761" lon="12.1638348"><ele>510.0</ele><time>2026-05-02T08:52:04Z</time></trkpt><trkpt lat="42.9289277" lon="12.1637822"><ele>510.0</ele><time>2026-05-02T08:52:05Z</time></trkpt><trkpt lat="42.9290213" lon="12.1636826"><ele>510.0</ele><time>2026-05-02T08:52:07Z</time></trkpt><trkpt lat="42.9291255" lon="12.1635972"><ele>510.0</ele><time>2026-05-02T08:52:09Z</time></trkpt><trkpt lat="42.9292358" lon="12.1635009"><ele>510.0</ele><time>2026-05-02T08:52:11Z</time></trkpt><trkpt lat="42.9292784" lon="12.1634187"><ele>510.5</ele><time>2026-05-02T08:52:12Z</time></trkpt><trkpt lat="42.9293312" lon="12.1633448"><ele>511.0</ele><time>2026-05-02T08:52:13Z</time></trkpt><trkpt lat="42.9293797" lon="12.1632885"><ele>511.5</ele><time>2026-05-02T08:52:14Z</time></trkpt><trkpt lat="42.9294465" lon="12.1632456"><ele>512.0</ele><time>2026-05-02T08:52:15Z</time></trkpt><trkpt lat="42.9295295" lon="12.1632192"><ele>512.5</ele><time>2026-05-02T08:52:16Z</time></trkpt><trkpt lat="42.9296226" lon="12.1632002"><ele>513.0</ele><time>2026-05-02T08:52:17Z</time></trkpt><trkpt lat="42.9297043" lon="12.163183"><ele>513.0</ele><time>2026-05-02T08:52:18Z</time></trkpt><trkpt lat="42.9297795" lon="12.163179"><ele>513.0</ele><time>2026-05-02T08:52:19Z</time></trkpt><trkpt lat="42.9298585" lon="12.1631864"><ele>513.0</ele><time>2026-05-02T08:52:20Z</time></trkpt><trkpt lat="42.9299393" lon="12.1632073"><ele>513.0</ele><time>2026-05-02T08:52:20.999Z</time></trkpt><trkpt lat="42.9300102" lon="12.1632384"><ele>513.0</ele><time>2026-05-02T08:52:22Z</time></trkpt><trkpt lat="42.9300715" lon="12.163287"><ele>513.0</ele><time>2026-05-02T08:52:22.999Z</time></trkpt><trkpt lat="42.930208" lon="12.1633347"><ele>515.1999999999999</ele><time>2026-05-02T08:52:25Z</time></trkpt><trkpt lat="42.9302978" lon="12.1633496"><ele>517.4</ele><time>2026-05-02T08:52:25.999Z</time></trkpt><trkpt lat="42.9303991" lon="12.1633545"><ele>519.5999999999999</ele><time>2026-05-02T08:52:27Z</time></trkpt><trkpt lat="42.9305036" lon="12.1633572"><ele>521.8</ele><time>2026-05-02T08:52:28Z</time></trkpt><trkpt lat="42.9306116" lon="12.1633744"><ele>524.0</ele><time>2026-05-02T08:52:29Z</time></trkpt><trkpt lat="42.9307249" lon="12.1633864"><ele>524.0</ele><time>2026-05-02T08:52:30Z</time></trkpt><trkpt lat="42.9308373" lon="12.163394"><ele>524.0</ele><time>2026-05-02T08:52:30.999Z</time></trkpt><trkpt lat="42.9309489" lon="12.1634028"><ele>524.0</ele><time>2026-05-02T08:52:31.999Z</time></trkpt><trkpt lat="42.9310568" lon="12.1634003"><ele>524.0</ele><time>2026-05-02T08:52:33Z</time></trkpt><trkpt lat="42.9311599" lon="12.163396"><ele>524.0</ele><time>2026-05-02T08:52:33.999Z</time></trkpt><trkpt lat="42.9312615" lon="12.1633902"><ele>525.0</ele><time>2026-05-02T08:52:34.999Z</time></trkpt><trkpt lat="42.9313589" lon="12.163399"><ele>526.0</ele><time>2026-05-02T08:52:36Z</time></trkpt><trkpt lat="42.9314608" lon="12.1633944"><ele>527.0</ele><time>2026-05-02T08:52:37Z</time></trkpt><trkpt lat="42.9315694" lon="12.1633846"><ele>528.0</ele><time>2026-05-02T08:52:38Z</time></trkpt><trkpt lat="42.9316745" lon="12.1633658"><ele>529.0</ele><time>2026-05-02T08:52:39Z</time></trkpt><trkpt lat="42.9317873" lon="12.1633563"><ele>529.0</ele><time>2026-05-02T08:52:40Z</time></trkpt><trkpt lat="42.9318754" lon="12.1633344"><ele>529.0</ele><time>2026-05-02T08:52:41Z</time></trkpt><trkpt lat="42.9319517" lon="12.1633168"><ele>529.0</ele><time>2026-05-02T08:52:42Z</time></trkpt><trkpt lat="42.9320293" lon="12.1632916"><ele>529.0</ele><time>2026-05-02T08:52:43Z</time></trkpt><trkpt lat="42.9321058" lon="12.1632619"><ele>529.0</ele><time>2026-05-02T08:52:44Z</time></trkpt><trkpt lat="42.9321926" lon="12.1632146"><ele>529.0</ele><time>2026-05-02T08:52:44.999Z</time></trkpt><trkpt lat="42.9322683" lon="12.1631689"><ele>528.8</ele><time>2026-05-02T08:52:46Z</time></trkpt><trkpt lat="42.9323535" lon="12.1631574"><ele>528.5999999999999</ele><time>2026-05-02T08:52:46.999Z</time></trkpt><trkpt lat="42.9324432" lon="12.163148"><ele>528.4</ele><time>2026-05-02T08:52:48Z</time></trkpt><trkpt lat="42.9325435" lon="12.1631432"><ele>528.1999999999999</ele><time>2026-05-02T08:52:49Z</time></trkpt><trkpt lat="42.9326444" lon="12.1631431"><ele>528.0</ele><time>2026-05-02T08:52:49.999Z</time></trkpt><trkpt lat="42.9327459" lon="12.1631349"><ele>528.0</ele><time>2026-05-02T08:52:50.999Z</time></trkpt><trkpt lat="42.932832" lon="12.1631082"><ele>528.0</ele><time>2026-05-02T08:52:52Z</time></trkpt><trkpt lat="42.932921" lon="12.163072"><ele>528.0</ele><time>2026-05-02T08:52:53Z</time></trkpt><trkpt lat="42.9330057" lon="12.1630227"><ele>528.0</ele><time>2026-05-02T08:52:54Z</time></trkpt><trkpt lat="42.9330866" lon="12.1629902"><ele>528.0</ele><time>2026-05-02T08:52:54.999Z</time></trkpt><trkpt lat="42.9331771" lon="12.162971"><ele>528.0</ele><time>2026-05-02T08:52:56Z</time></trkpt><trkpt lat="42.933274" lon="12.1629544"><ele>528.0</ele><time>2026-05-02T08:52:56.999Z</time></trkpt><trkpt lat="42.9333694" lon="12.1629365"><ele>528.0</ele><time>2026-05-02T08:52:58Z</time></trkpt><trkpt lat="42.9334691" lon="12.1629132"><ele>528.0</ele><time>2026-05-02T08:52:59Z</time></trkpt><trkpt lat="42.9335648" lon="12.1628701"><ele>528.0</ele><time>2026-05-02T08:52:59.999Z</time></trkpt><trkpt lat="42.9336706" lon="12.1628094"><ele>528.0</ele><time>2026-05-02T08:53:00.999Z</time></trkpt><trkpt lat="42.9337717" lon="12.1627417"><ele>526.6</ele><time>2026-05-02T08:53:02Z</time></trkpt><trkpt lat="42.9338626" lon="12.1626827"><ele>525.1999999999999</ele><time>2026-05-02T08:53:03Z</time></trkpt><trkpt lat="42.9339493" lon="12.162617"><ele>523.8</ele><time>2026-05-02T08:53:04Z</time></trkpt><trkpt lat="42.9340357" lon="12.1625654"><ele>522.4</ele><time>2026-05-02T08:53:04.999Z</time></trkpt><trkpt lat="42.9341264" lon="12.1625302"><ele>521.0</ele><time>2026-05-02T08:53:06Z</time></trkpt><trkpt lat="42.9342252" lon="12.16251"><ele>520.5</ele><time>2026-05-02T08:53:07Z</time></trkpt><trkpt lat="42.9343403" lon="12.1624952"><ele>520.0</ele><time>2026-05-02T08:53:08Z</time></trkpt><trkpt lat="42.9344586" lon="12.1624662"><ele>519.5</ele><time>2026-05-02T08:53:09Z</time></trkpt><trkpt lat="42.9345706" lon="12.1624417"><ele>519.0</ele><time>2026-05-02T08:53:10Z</time></trkpt><trkpt lat="42.9346757" lon="12.1624215"><ele>519.0</ele><time>2026-05-02T08:53:11Z</time></trkpt><trkpt lat="42.934792" lon="12.1624159"><ele>519.0</ele><time>2026-05-02T08:53:12Z</time></trkpt><trkpt lat="42.9348981" lon="12.1624213"><ele>519.0</ele><time>2026-05-02T08:53:12.999Z</time></trkpt><trkpt lat="42.9349921" lon="12.1624217"><ele>519.0</ele><time>2026-05-02T08:53:14Z</time></trkpt><trkpt lat="42.9350703" lon="12.162414"><ele>519.0</ele><time>2026-05-02T08:53:15Z</time></trkpt><trkpt lat="42.9351482" lon="12.1623825"><ele>518.6</ele><time>2026-05-02T08:53:15.999Z</time></trkpt><trkpt lat="42.9352413" lon="12.1623236"><ele>518.2</ele><time>2026-05-02T08:53:17Z</time></trkpt><trkpt lat="42.9353339" lon="12.1622464"><ele>517.8000000000001</ele><time>2026-05-02T08:53:18Z</time></trkpt><trkpt lat="42.9354359" lon="12.1621711"><ele>517.4</ele><time>2026-05-02T08:53:19Z</time></trkpt><trkpt lat="42.9355314" lon="12.1621114"><ele>517.0</ele><time>2026-05-02T08:53:20Z</time></trkpt><trkpt lat="42.9356224" lon="12.1620558"><ele>517.0</ele><time>2026-05-02T08:53:21Z</time></trkpt><trkpt lat="42.9357115" lon="12.162003"><ele>517.0</ele><time>2026-05-02T08:53:21.999Z</time></trkpt><trkpt lat="42.9357976" lon="12.1619329"><ele>517.0</ele><time>2026-05-02T08:53:23Z</time></trkpt><trkpt lat="42.9358787" lon="12.161849"><ele>517.0</ele><time>2026-05-02T08:53:23.999Z</time></trkpt><trkpt lat="42.9359464" lon="12.1617664"><ele>517.0</ele><time>2026-05-02T08:53:25Z</time></trkpt><trkpt lat="42.9360231" lon="12.1616938"><ele>516.6</ele><time>2026-05-02T08:53:26Z</time></trkpt><trkpt lat="42.9361178" lon="12.1616304"><ele>516.2</ele><time>2026-05-02T08:53:27Z</time></trkpt><trkpt lat="42.9362099" lon="12.1615637"><ele>515.8</ele><time>2026-05-02T08:53:28Z</time></trkpt><trkpt lat="42.9362969" lon="12.1614908"><ele>515.4</ele><time>2026-05-02T08:53:29Z</time></trkpt><trkpt lat="42.9363762" lon="12.1614041"><ele>515.0</ele><time>2026-05-02T08:53:30Z</time></trkpt><trkpt lat="42.9364494" lon="12.161321"><ele>515.0</ele><time>2026-05-02T08:53:31Z</time></trkpt><trkpt lat="42.9365239" lon="12.161244"><ele>515.0</ele><time>2026-05-02T08:53:32Z</time></trkpt><trkpt lat="42.936602" lon="12.1611693"><ele>515.0</ele><time>2026-05-02T08:53:33Z</time></trkpt><trkpt lat="42.936684" lon="12.1610929"><ele>515.0</ele><time>2026-05-02T08:53:34Z</time></trkpt><trkpt lat="42.9367632" lon="12.1610112"><ele>515.0</ele><time>2026-05-02T08:53:35Z</time></trkpt><trkpt lat="42.9368355" lon="12.1609256"><ele>514.4</ele><time>2026-05-02T08:53:36Z</time></trkpt><trkpt lat="42.9369114" lon="12.1608185"><ele>513.8</ele><time>2026-05-02T08:53:36.999Z</time></trkpt><trkpt lat="42.9369757" lon="12.1607085"><ele>513.2</ele><time>2026-05-02T08:53:38Z</time></trkpt><trkpt lat="42.9370399" lon="12.1606033"><ele>512.6</ele><time>2026-05-02T08:53:39Z</time></trkpt><trkpt lat="42.9371117" lon="12.1604903"><ele>512.0</ele><time>2026-05-02T08:53:39.999Z</time></trkpt><trkpt lat="42.9371735" lon="12.1603765"><ele>511.99999999999994</ele><time>2026-05-02T08:53:40.999Z</time></trkpt><trkpt lat="42.9372302" lon="12.1602795"><ele>512.0</ele><time>2026-05-02T08:53:41.999Z</time></trkpt><trkpt lat="42.9372802" lon="12.1601936"><ele>512.0</ele><time>2026-05-02T08:53:42.999Z</time></trkpt><trkpt lat="42.9373332" lon="12.1601135"><ele>512.0</ele><time>2026-05-02T08:53:44Z</time></trkpt><trkpt lat="42.937396" lon="12.160045"><ele>511.99999999999994</ele><time>2026-05-02T08:53:45Z</time></trkpt><trkpt lat="42.9374691" lon="12.1599855"><ele>512.0</ele><time>2026-05-02T08:53:46Z</time></trkpt><trkpt lat="42.9375564" lon="12.1599199"><ele>512.8000000000001</ele><time>2026-05-02T08:53:47Z</time></trkpt><trkpt lat="42.9376353" lon="12.1598579"><ele>513.6</ele><time>2026-05-02T08:53:48Z</time></trkpt><trkpt lat="42.9377264" lon="12.1597963"><ele>514.4000000000001</ele><time>2026-05-02T08:53:49Z</time></trkpt><trkpt lat="42.9378167" lon="12.1597269"><ele>515.2</ele><time>2026-05-02T08:53:50Z</time></trkpt><trkpt lat="42.9378786" lon="12.1596714"><ele>516.0</ele><time>2026-05-02T08:53:50.999Z</time></trkpt><trkpt lat="42.9379414" lon="12.1596012"><ele>516.0</ele><time>2026-05-02T08:53:52Z</time></trkpt><trkpt lat="42.937988" lon="12.1595207"><ele>516.0</ele><time>2026-05-02T08:53:52.999Z</time></trkpt><trkpt lat="42.9380212" lon="12.1594379"><ele>516.0</ele><time>2026-05-02T08:53:54Z</time></trkpt><trkpt lat="42.9380671" lon="12.1593648"><ele>516.0</ele><time>2026-05-02T08:53:55Z</time></trkpt><trkpt lat="42.9381159" lon="12.1593022"><ele>516.0</ele><time>2026-05-02T08:53:56Z</time></trkpt><trkpt lat="42.9382037" lon="12.1592239"><ele>516.0</ele><time>2026-05-02T08:53:58Z</time></trkpt><trkpt lat="42.9382605" lon="12.1591471"><ele>516.0</ele><time>2026-05-02T08:54:00Z</time></trkpt><trkpt lat="42.9382885" lon="12.1590625"><ele>516.0</ele><time>2026-05-02T08:54:02Z</time></trkpt><trkpt lat="42.9383266" lon="12.1589866"><ele>516.0</ele><time>2026-05-02T08:54:04Z</time></trkpt><trkpt lat="42.938357" lon="12.1588804"><ele>516.0</ele><time>2026-05-02T08:54:06Z</time></trkpt><trkpt lat="42.9383825" lon="12.1587364"><ele>516.0</ele><time>2026-05-02T08:54:08Z</time></trkpt><trkpt lat="42.9383716" lon="12.1586434"><ele>516.0</ele><time>2026-05-02T08:54:09Z</time></trkpt><trkpt lat="42.9383499" lon="12.1585337"><ele>516.0</ele><time>2026-05-02T08:54:10Z</time></trkpt><trkpt lat="42.9383114" lon="12.1584377"><ele>516.0</ele><time>2026-05-02T08:54:11Z</time></trkpt><trkpt lat="42.9382754" lon="12.1583454"><ele>516.0</ele><time>2026-05-02T08:54:12Z</time></trkpt><trkpt lat="42.9382528" lon="12.1582499"><ele>516.0</ele><time>2026-05-02T08:54:13Z</time></trkpt><trkpt lat="42.9382516" lon="12.1581584"><ele>516.0</ele><time>2026-05-02T08:54:13.999Z</time></trkpt><trkpt lat="42.9383086" lon="12.1580379"><ele>516.0</ele><time>2026-05-02T08:54:16Z</time></trkpt><trkpt lat="42.9383706" lon="12.1579955"><ele>516.4</ele><time>2026-05-02T08:54:17Z</time></trkpt><trkpt lat="42.9384942" lon="12.1579949"><ele>516.8</ele><time>2026-05-02T08:54:19Z</time></trkpt><trkpt lat="42.9385877" lon="12.1579369"><ele>517.1999999999999</ele><time>2026-05-02T08:54:21Z</time></trkpt><trkpt lat="42.9386576" lon="12.1577817"><ele>517.6</ele><time>2026-05-02T08:54:23Z</time></trkpt><trkpt lat="42.9387069" lon="12.1576993"><ele>518.0</ele><time>2026-05-02T08:54:24Z</time></trkpt><trkpt lat="42.9387732" lon="12.1576234"><ele>518.0</ele><time>2026-05-02T08:54:25Z</time></trkpt><trkpt lat="42.9388466" lon="12.1575538"><ele>518.0</ele><time>2026-05-02T08:54:26Z</time></trkpt><trkpt lat="42.9389095" lon="12.1574792"><ele>518.0</ele><time>2026-05-02T08:54:27Z</time></trkpt><trkpt lat="42.9389737" lon="12.157393"><ele>518.0</ele><time>2026-05-02T08:54:27.999Z</time></trkpt><trkpt lat="42.939027" lon="12.1573087"><ele>518.0</ele><time>2026-05-02T08:54:29Z</time></trkpt><trkpt lat="42.939083" lon="12.1572358"><ele>518.0</ele><time>2026-05-02T08:54:30Z</time></trkpt><trkpt lat="42.9391465" lon="12.1571775"><ele>517.1666666666666</ele><time>2026-05-02T08:54:30.999Z</time></trkpt><trkpt lat="42.9392148" lon="12.1571303"><ele>516.3333333333333</ele><time>2026-05-02T08:54:32Z</time></trkpt><trkpt lat="42.9392828" lon="12.1570806"><ele>515.5</ele><time>2026-05-02T08:54:32.999Z</time></trkpt><trkpt lat="42.9393547" lon="12.1570451"><ele>514.6666666666666</ele><time>2026-05-02T08:54:34Z</time></trkpt><trkpt lat="42.9394269" lon="12.1570058"><ele>513.8333333333334</ele><time>2026-05-02T08:54:35Z</time></trkpt><trkpt lat="42.9394987" lon="12.1569729"><ele>513.0</ele><time>2026-05-02T08:54:36Z</time></trkpt><trkpt lat="42.939573" lon="12.156928"><ele>513.0</ele><time>2026-05-02T08:54:37Z</time></trkpt><trkpt lat="42.9396275" lon="12.1568758"><ele>513.0</ele><time>2026-05-02T08:54:38Z</time></trkpt><trkpt lat="42.9396879" lon="12.1568194"><ele>513.0</ele><time>2026-05-02T08:54:39Z</time></trkpt><trkpt lat="42.9397477" lon="12.1567778"><ele>513.0</ele><time>2026-05-02T08:54:40Z</time></trkpt><trkpt lat="42.9398465" lon="12.1567413"><ele>513.0</ele><time>2026-05-02T08:54:42Z</time></trkpt><trkpt lat="42.9399548" lon="12.1566771"><ele>513.0</ele><time>2026-05-02T08:54:44Z</time></trkpt><trkpt lat="42.940044" lon="12.1565925"><ele>514.8</ele><time>2026-05-02T08:54:45.999Z</time></trkpt><trkpt lat="42.940046" lon="12.1564881"><ele>516.5999999999999</ele><time>2026-05-02T08:54:48Z</time></trkpt><trkpt lat="42.9399708" lon="12.1564092"><ele>518.4000000000001</ele><time>2026-05-02T08:54:50Z</time></trkpt><trkpt lat="42.9398493" lon="12.1563369"><ele>520.2</ele><time>2026-05-02T08:54:51.999Z</time></trkpt><trkpt lat="42.9397846" lon="12.1563012"><ele>522.0</ele><time>2026-05-02T08:54:53Z</time></trkpt><trkpt lat="42.9397089" lon="12.1562558"><ele>522.0</ele><time>2026-05-02T08:54:54Z</time></trkpt><trkpt lat="42.9396342" lon="12.1561988"><ele>522.0</ele><time>2026-05-02T08:54:54.999Z</time></trkpt><trkpt lat="42.9395605" lon="12.1561428"><ele>522.0</ele><time>2026-05-02T08:54:56Z</time></trkpt><trkpt lat="42.9394852" lon="12.1560681"><ele>522.0</ele><time>2026-05-02T08:54:57Z</time></trkpt><trkpt lat="42.9394242" lon="12.1559803"><ele>522.0</ele><time>2026-05-02T08:54:58Z</time></trkpt><trkpt lat="42.9393595" lon="12.155904"><ele>522.0</ele><time>2026-05-02T08:54:58.999Z</time></trkpt><trkpt lat="42.9392961" lon="12.1558301"><ele>522.0</ele><time>2026-05-02T08:55:00Z</time></trkpt><trkpt lat="42.9392289" lon="12.1557548"><ele>522.0</ele><time>2026-05-02T08:55:01Z</time></trkpt><trkpt lat="42.9391609" lon="12.1556891"><ele>522.0</ele><time>2026-05-02T08:55:01.999Z</time></trkpt><trkpt lat="42.9390853" lon="12.155629"><ele>522.0</ele><time>2026-05-02T08:55:03Z</time></trkpt><trkpt lat="42.939011" lon="12.155571"><ele>522.0</ele><time>2026-05-02T08:55:04Z</time></trkpt><trkpt lat="42.9389501" lon="12.1555131"><ele>522.0</ele><time>2026-05-02T08:55:05Z</time></trkpt><trkpt lat="42.9388973" lon="12.1554502"><ele>522.1428571428571</ele><time>2026-05-02T08:55:06Z</time></trkpt><trkpt lat="42.938866" lon="12.1553744"><ele>522.2857142857142</ele><time>2026-05-02T08:55:06.999Z</time></trkpt><trkpt lat="42.9388473" lon="12.1552889"><ele>522.4285714285713</ele><time>2026-05-02T08:55:08Z</time></trkpt><trkpt lat="42.9388434" lon="12.1552028"><ele>522.5714285714286</ele><time>2026-05-02T08:55:09Z</time></trkpt><trkpt lat="42.9388568" lon="12.1551183"><ele>522.7142857142857</ele><time>2026-05-02T08:55:10Z</time></trkpt><trkpt lat="42.9389047" lon="12.1549622"><ele>522.8571428571428</ele><time>2026-05-02T08:55:12Z</time></trkpt><trkpt lat="42.938945" lon="12.154884"><ele>523.0</ele><time>2026-05-02T08:55:13Z</time></trkpt><trkpt lat="42.9390112" lon="12.1548069"><ele>523.0</ele><time>2026-05-02T08:55:14Z</time></trkpt><trkpt lat="42.9390808" lon="12.154734"><ele>523.0</ele><time>2026-05-02T08:55:15Z</time></trkpt><trkpt lat="42.9391548" lon="12.1546574"><ele>523.0</ele><time>2026-05-02T08:55:16Z</time></trkpt><trkpt lat="42.9392387" lon="12.1545857"><ele>523.0</ele><time>2026-05-02T08:55:17Z</time></trkpt><trkpt lat="42.9393246" lon="12.1545217"><ele>523.0</ele><time>2026-05-02T08:55:18Z</time></trkpt><trkpt lat="42.9394071" lon="12.1544559"><ele>524.8</ele><time>2026-05-02T08:55:19Z</time></trkpt><trkpt lat="42.9394961" lon="12.1544059"><ele>526.5999999999999</ele><time>2026-05-02T08:55:20Z</time></trkpt><trkpt lat="42.939596" lon="12.1543726"><ele>528.4000000000001</ele><time>2026-05-02T08:55:21Z</time></trkpt><trkpt lat="42.9397002" lon="12.1543533"><ele>530.2</ele><time>2026-05-02T08:55:22Z</time></trkpt><trkpt lat="42.9398052" lon="12.1543325"><ele>532.0</ele><time>2026-05-02T08:55:23Z</time></trkpt><trkpt lat="42.9399086" lon="12.1543104"><ele>532.0</ele><time>2026-05-02T08:55:24Z</time></trkpt><trkpt lat="42.9400135" lon="12.1542878"><ele>532.0</ele><time>2026-05-02T08:55:25Z</time></trkpt><trkpt lat="42.9401226" lon="12.154274"><ele>532.0</ele><time>2026-05-02T08:55:26Z</time></trkpt><trkpt lat="42.940226" lon="12.1542689"><ele>532.0</ele><time>2026-05-02T08:55:27Z</time></trkpt><trkpt lat="42.9403139" lon="12.1542616"><ele>532.0</ele><time>2026-05-02T08:55:28Z</time></trkpt><trkpt lat="42.9403846" lon="12.1542421"><ele>534.4</ele><time>2026-05-02T08:55:29Z</time></trkpt><trkpt lat="42.9404956" lon="12.1541542"><ele>536.8000000000001</ele><time>2026-05-02T08:55:31Z</time></trkpt><trkpt lat="42.9405556" lon="12.1540829"><ele>539.2</ele><time>2026-05-02T08:55:32Z</time></trkpt><trkpt lat="42.9406218" lon="12.1540065"><ele>541.6</ele><time>2026-05-02T08:55:33Z</time></trkpt><trkpt lat="42.940685" lon="12.153936"><ele>544.0</ele><time>2026-05-02T08:55:34Z</time></trkpt><trkpt lat="42.9407475" lon="12.1538819"><ele>544.6666666666667</ele><time>2026-05-02T08:55:35Z</time></trkpt><trkpt lat="42.9408222" lon="12.1537826"><ele>545.3333333333334</ele><time>2026-05-02T08:55:37Z</time></trkpt><trkpt lat="42.9408171" lon="12.1536697"><ele>546.0</ele><time>2026-05-02T08:55:39Z</time></trkpt><trkpt lat="42.9407399" lon="12.1536154"><ele>546.6666666666666</ele><time>2026-05-02T08:55:41Z</time></trkpt><trkpt lat="42.9406724" lon="12.1536185"><ele>547.3333333333333</ele><time>2026-05-02T08:55:42Z</time></trkpt><trkpt lat="42.9405892" lon="12.1536242"><ele>548.0</ele><time>2026-05-02T08:55:43Z</time></trkpt><trkpt lat="42.9405003" lon="12.1536314"><ele>548.0</ele><time>2026-05-02T08:55:44Z</time></trkpt><trkpt lat="42.9404091" lon="12.1536337"><ele>548.0</ele><time>2026-05-02T08:55:44.999Z</time></trkpt><trkpt lat="42.9403174" lon="12.1536454"><ele>548.0</ele><time>2026-05-02T08:55:46Z</time></trkpt><trkpt lat="42.9402133" lon="12.1536507"><ele>548.0</ele><time>2026-05-02T08:55:47Z</time></trkpt><trkpt lat="42.9401133" lon="12.1536501"><ele>548.0</ele><time>2026-05-02T08:55:48Z</time></trkpt><trkpt lat="42.9400255" lon="12.1536396"><ele>546.3333333333333</ele><time>2026-05-02T08:55:49Z</time></trkpt><trkpt lat="42.9399316" lon="12.1536293"><ele>544.6666666666666</ele><time>2026-05-02T08:55:50Z</time></trkpt><trkpt lat="42.939859" lon="12.1536037"><ele>543.0</ele><time>2026-05-02T08:55:51Z</time></trkpt><trkpt lat="42.9397951" lon="12.1535613"><ele>541.3333333333334</ele><time>2026-05-02T08:55:52Z</time></trkpt><trkpt lat="42.9397359" lon="12.1535105"><ele>539.6666666666667</ele><time>2026-05-02T08:55:53Z</time></trkpt><trkpt lat="42.9396741" lon="12.1534353"><ele>538.0</ele><time>2026-05-02T08:55:54Z</time></trkpt><trkpt lat="42.939619" lon="12.1533489"><ele>538.0</ele><time>2026-05-02T08:55:55Z</time></trkpt><trkpt lat="42.939574" lon="12.1532573"><ele>538.0</ele><time>2026-05-02T08:55:56Z</time></trkpt><trkpt lat="42.9395294" lon="12.1531561"><ele>538.0</ele><time>2026-05-02T08:55:57Z</time></trkpt><trkpt lat="42.9394819" lon="12.1530458"><ele>538.0</ele><time>2026-05-02T08:55:58Z</time></trkpt><trkpt lat="42.9394358" lon="12.1529522"><ele>538.0</ele><time>2026-05-02T08:55:59Z</time></trkpt><trkpt lat="42.9393719" lon="12.1528699"><ele>538.0</ele><time>2026-05-02T08:55:59.999Z</time></trkpt><trkpt lat="42.9393004" lon="12.152793"><ele>538.4</ele><time>2026-05-02T08:56:01Z</time></trkpt><trkpt lat="42.9392262" lon="12.1527165"><ele>538.8</ele><time>2026-05-02T08:56:02Z</time></trkpt><trkpt lat="42.9391607" lon="12.152636"><ele>539.2</ele><time>2026-05-02T08:56:03Z</time></trkpt><trkpt lat="42.9390911" lon="12.1525549"><ele>539.6</ele><time>2026-05-02T08:56:04Z</time></trkpt><trkpt lat="42.9390251" lon="12.1524633"><ele>540.0</ele><time>2026-05-02T08:56:05Z</time></trkpt><trkpt lat="42.9389569" lon="12.1523703"><ele>541.6</ele><time>2026-05-02T08:56:06Z</time></trkpt><trkpt lat="42.9388862" lon="12.1522724"><ele>543.2</ele><time>2026-05-02T08:56:07Z</time></trkpt><trkpt lat="42.9388219" lon="12.1521733"><ele>544.8</ele><time>2026-05-02T08:56:07.999Z</time></trkpt><trkpt lat="42.9387609" lon="12.1520781"><ele>546.4</ele><time>2026-05-02T08:56:09Z</time></trkpt><trkpt lat="42.9387058" lon="12.151977"><ele>548.0</ele><time>2026-05-02T08:56:10Z</time></trkpt><trkpt lat="42.9386658" lon="12.1518886"><ele>548.0</ele><time>2026-05-02T08:56:11Z</time></trkpt><trkpt lat="42.9386451" lon="12.1517958"><ele>548.0</ele><time>2026-05-02T08:56:11.999Z</time></trkpt><trkpt lat="42.9386671" lon="12.1516464"><ele>548.0</ele><time>2026-05-02T08:56:14Z</time></trkpt><trkpt lat="42.9387423" lon="12.151613"><ele>548.0</ele><time>2026-05-02T08:56:16Z</time></trkpt><trkpt lat="42.9388687" lon="12.1515919"><ele>548.0</ele><time>2026-05-02T08:56:17.999Z</time></trkpt><trkpt lat="42.9389409" lon="12.1515896"><ele>548.0</ele><time>2026-05-02T08:56:19Z</time></trkpt><trkpt lat="42.9390261" lon="12.1515784"><ele>548.0</ele><time>2026-05-02T08:56:20Z</time></trkpt><trkpt lat="42.9391171" lon="12.15159"><ele>548.0</ele><time>2026-05-02T08:56:21Z</time></trkpt><trkpt lat="42.9392073" lon="12.1516179"><ele>548.0</ele><time>2026-05-02T08:56:21.999Z</time></trkpt><trkpt lat="42.9392839" lon="12.1516482"><ele>548.0</ele><time>2026-05-02T08:56:23Z</time></trkpt><trkpt lat="42.9393474" lon="12.1516641"><ele>548.0</ele><time>2026-05-02T08:56:24Z</time></trkpt><trkpt lat="42.9394116" lon="12.1516582"><ele>548.8</ele><time>2026-05-02T08:56:25Z</time></trkpt><trkpt lat="42.9395344" lon="12.1515842"><ele>549.5999999999999</ele><time>2026-05-02T08:56:27Z</time></trkpt><trkpt lat="42.9396058" lon="12.1515325"><ele>550.4000000000001</ele><time>2026-05-02T08:56:28Z</time></trkpt><trkpt lat="42.9396879" lon="12.1514721"><ele>551.2</ele><time>2026-05-02T08:56:28.999Z</time></trkpt><trkpt lat="42.9397807" lon="12.1514165"><ele>552.0</ele><time>2026-05-02T08:56:30Z</time></trkpt><trkpt lat="42.9398784" lon="12.1513674"><ele>552.0</ele><time>2026-05-02T08:56:31Z</time></trkpt><trkpt lat="42.939978" lon="12.1513166"><ele>552.0</ele><time>2026-05-02T08:56:31.999Z</time></trkpt><trkpt lat="42.9400809" lon="12.1512696"><ele>552.0</ele><time>2026-05-02T08:56:32.999Z</time></trkpt><trkpt lat="42.9401747" lon="12.1512265"><ele>552.0</ele><time>2026-05-02T08:56:34Z</time></trkpt><trkpt lat="42.9402703" lon="12.1511895"><ele>552.0</ele><time>2026-05-02T08:56:35Z</time></trkpt><trkpt lat="42.9403541" lon="12.1511682"><ele>554.6666666666666</ele><time>2026-05-02T08:56:36Z</time></trkpt><trkpt lat="42.9404271" lon="12.1511517"><ele>557.3333333333334</ele><time>2026-05-02T08:56:37Z</time></trkpt><trkpt lat="42.9404912" lon="12.1511445"><ele>560.0</ele><time>2026-05-02T08:56:38Z</time></trkpt><trkpt lat="42.9405794" lon="12.1511449"><ele>562.6666666666667</ele><time>2026-05-02T08:56:39.999Z</time></trkpt><trkpt lat="42.9406491" lon="12.1511525"><ele>565.3333333333334</ele><time>2026-05-02T08:56:42Z</time></trkpt><trkpt lat="42.9407276" lon="12.1511325"><ele>568.0</ele><time>2026-05-02T08:56:44Z</time></trkpt><trkpt lat="42.9408241" lon="12.1510819"><ele>570.0</ele><time>2026-05-02T08:56:46Z</time></trkpt><trkpt lat="42.9409008" lon="12.1509984"><ele>572.0</ele><time>2026-05-02T08:56:47.999Z</time></trkpt><trkpt lat="42.9409591" lon="12.150869"><ele>574.0</ele><time>2026-05-02T08:56:50Z</time></trkpt><trkpt lat="42.9410082" lon="12.1507134"><ele>576.0</ele><time>2026-05-02T08:56:52Z</time></trkpt><trkpt lat="42.9410575" lon="12.1505651"><ele>576.0</ele><time>2026-05-02T08:56:54Z</time></trkpt><trkpt lat="42.9411044" lon="12.1504035"><ele>576.0</ele><time>2026-05-02T08:56:56Z</time></trkpt><trkpt lat="42.9411481" lon="12.1502627"><ele>576.0</ele><time>2026-05-02T08:56:58Z</time></trkpt><trkpt lat="42.9411757" lon="12.1501257"><ele>576.0</ele><time>2026-05-02T08:57:00Z</time></trkpt><trkpt lat="42.94122" lon="12.1500279"><ele>576.0</ele><time>2026-05-02T08:57:01.999Z</time></trkpt><trkpt lat="42.9412543" lon="12.1499415"><ele>573.4</ele><time>2026-05-02T08:57:04Z</time></trkpt><trkpt lat="42.9412852" lon="12.1498533"><ele>570.8</ele><time>2026-05-02T08:57:06.999Z</time></trkpt><trkpt lat="42.941248" lon="12.1497341"><ele>568.1999999999999</ele><time>2026-05-02T08:57:36Z</time></trkpt><trkpt lat="42.9411959" lon="12.1496788"><ele>565.6</ele><time>2026-05-02T08:57:37Z</time></trkpt><trkpt lat="42.9410899" lon="12.1496212"><ele>563.0</ele><time>2026-05-02T08:57:39Z</time></trkpt><trkpt lat="42.9409774" lon="12.1495832"><ele>563.0</ele><time>2026-05-02T08:57:41Z</time></trkpt><trkpt lat="42.940913" lon="12.1495634"><ele>563.0</ele><time>2026-05-02T08:57:42Z</time></trkpt><trkpt lat="42.9408401" lon="12.1495397"><ele>563.0</ele><time>2026-05-02T08:57:43Z</time></trkpt><trkpt lat="42.9407681" lon="12.1495145"><ele>563.0</ele><time>2026-05-02T08:57:44Z</time></trkpt><trkpt lat="42.9406895" lon="12.1494881"><ele>563.0</ele><time>2026-05-02T08:57:45Z</time></trkpt><trkpt lat="42.940615" lon="12.1494592"><ele>563.0</ele><time>2026-05-02T08:57:46Z</time></trkpt><trkpt lat="42.9405377" lon="12.1494291"><ele>562.1666666666666</ele><time>2026-05-02T08:57:47Z</time></trkpt><trkpt lat="42.940466" lon="12.1494033"><ele>561.3333333333333</ele><time>2026-05-02T08:57:47.999Z</time></trkpt><trkpt lat="42.9403891" lon="12.1493644"><ele>560.5</ele><time>2026-05-02T08:57:49Z</time></trkpt><trkpt lat="42.9403114" lon="12.1493228"><ele>559.6666666666666</ele><time>2026-05-02T08:57:50Z</time></trkpt><trkpt lat="42.9402269" lon="12.1492723"><ele>558.8333333333334</ele><time>2026-05-02T08:57:51Z</time></trkpt><trkpt lat="42.9401432" lon="12.149216"><ele>558.0</ele><time>2026-05-02T08:57:52Z</time></trkpt><trkpt lat="42.9400589" lon="12.149162"><ele>556.8</ele><time>2026-05-02T08:57:53Z</time></trkpt><trkpt lat="42.9399762" lon="12.1490974"><ele>555.5999999999999</ele><time>2026-05-02T08:57:54Z</time></trkpt><trkpt lat="42.939889" lon="12.1490314"><ele>554.4000000000001</ele><time>2026-05-02T08:57:55Z</time></trkpt><trkpt lat="42.9398047" lon="12.1489627"><ele>553.2</ele><time>2026-05-02T08:57:56Z</time></trkpt><trkpt lat="42.9397265" lon="12.1488931"><ele>552.0</ele><time>2026-05-02T08:57:57Z</time></trkpt><trkpt lat="42.939639" lon="12.1488176"><ele>549.6</ele><time>2026-05-02T08:57:58Z</time></trkpt><trkpt lat="42.9395557" lon="12.14874"><ele>547.2</ele><time>2026-05-02T08:57:58.999Z</time></trkpt><trkpt lat="42.939475" lon="12.1486716"><ele>544.8</ele><time>2026-05-02T08:58:00Z</time></trkpt><trkpt lat="42.9393945" lon="12.1485996"><ele>542.4</ele><time>2026-05-02T08:58:00.999Z</time></trkpt><trkpt lat="42.9393257" lon="12.1485229"><ele>540.0</ele><time>2026-05-02T08:58:02Z</time></trkpt><trkpt lat="42.9392562" lon="12.1484512"><ele>540.0</ele><time>2026-05-02T08:58:03Z</time></trkpt><trkpt lat="42.9391892" lon="12.1483858"><ele>540.0</ele><time>2026-05-02T08:58:04Z</time></trkpt><trkpt lat="42.9391165" lon="12.1483153"><ele>540.0</ele><time>2026-05-02T08:58:05Z</time></trkpt><trkpt lat="42.9390586" lon="12.1482432"><ele>540.0</ele><time>2026-05-02T08:58:06Z</time></trkpt><trkpt lat="42.9389904" lon="12.148176"><ele>540.0</ele><time>2026-05-02T08:58:06.999Z</time></trkpt><trkpt lat="42.9389204" lon="12.1481131"><ele>540.0</ele><time>2026-05-02T08:58:08Z</time></trkpt><trkpt lat="42.9388493" lon="12.1480457"><ele>538.3333333333334</ele><time>2026-05-02T08:58:09Z</time></trkpt><trkpt lat="42.9387814" lon="12.1479877"><ele>536.6666666666666</ele><time>2026-05-02T08:58:10Z</time></trkpt><trkpt lat="42.9387082" lon="12.1479394"><ele>535.0</ele><time>2026-05-02T08:58:10.999Z</time></trkpt><trkpt lat="42.9386234" lon="12.1478945"><ele>533.3333333333333</ele><time>2026-05-02T08:58:12Z</time></trkpt><trkpt lat="42.9385496" lon="12.1478579"><ele>531.6666666666666</ele><time>2026-05-02T08:58:13Z</time></trkpt><trkpt lat="42.9384725" lon="12.1478242"><ele>530.0</ele><time>2026-05-02T08:58:14Z</time></trkpt><trkpt lat="42.9383935" lon="12.1477981"><ele>529.3333333333333</ele><time>2026-05-02T08:58:15Z</time></trkpt><trkpt lat="42.9383124" lon="12.1477642"><ele>528.6666666666666</ele><time>2026-05-02T08:58:16Z</time></trkpt><trkpt lat="42.9382417" lon="12.1477388"><ele>528.0</ele><time>2026-05-02T08:58:17Z</time></trkpt><trkpt lat="42.9381614" lon="12.1477151"><ele>527.3333333333334</ele><time>2026-05-02T08:58:18Z</time></trkpt><trkpt lat="42.9380968" lon="12.1476877"><ele>526.6666666666667</ele><time>2026-05-02T08:58:19Z</time></trkpt><trkpt lat="42.9380256" lon="12.1476617"><ele>526.0</ele><time>2026-05-02T08:58:20Z</time></trkpt><trkpt lat="42.9379533" lon="12.1476374"><ele>526.0</ele><time>2026-05-02T08:58:21Z</time></trkpt><trkpt lat="42.9378785" lon="12.1476202"><ele>526.0</ele><time>2026-05-02T08:58:22Z</time></trkpt><trkpt lat="42.9378131" lon="12.1476118"><ele>526.0</ele><time>2026-05-02T08:58:23Z</time></trkpt><trkpt lat="42.9377509" lon="12.1475973"><ele>526.0</ele><time>2026-05-02T08:58:23.999Z</time></trkpt><trkpt lat="42.9376849" lon="12.1475879"><ele>526.0</ele><time>2026-05-02T08:58:24.999Z</time></trkpt><trkpt lat="42.9376219" lon="12.1475873"><ele>526.0</ele><time>2026-05-02T08:58:26Z</time></trkpt><trkpt lat="42.937557" lon="12.1475761"><ele>526.0</ele><time>2026-05-02T08:58:27Z</time></trkpt><trkpt lat="42.9374921" lon="12.1475672"><ele>525.0</ele><time>2026-05-02T08:58:28Z</time></trkpt><trkpt lat="42.9374296" lon="12.1475495"><ele>524.0</ele><time>2026-05-02T08:58:29Z</time></trkpt><trkpt lat="42.9373658" lon="12.1475347"><ele>523.0</ele><time>2026-05-02T08:58:30Z</time></trkpt><trkpt lat="42.9372865" lon="12.1475263"><ele>522.0</ele><time>2026-05-02T08:58:31Z</time></trkpt><trkpt lat="42.9371956" lon="12.1475219"><ele>521.0</ele><time>2026-05-02T08:58:32Z</time></trkpt><trkpt lat="42.9371048" lon="12.1475105"><ele>520.0</ele><time>2026-05-02T08:58:33Z</time></trkpt><trkpt lat="42.9370219" lon="12.1474986"><ele>520.0</ele><time>2026-05-02T08:58:34Z</time></trkpt><trkpt lat="42.9369428" lon="12.1474872"><ele>520.0</ele><time>2026-05-02T08:58:35Z</time></trkpt><trkpt lat="42.9368591" lon="12.1474788"><ele>520.0</ele><time>2026-05-02T08:58:36Z</time></trkpt><trkpt lat="42.9367722" lon="12.1474714"><ele>520.0</ele><time>2026-05-02T08:58:37Z</time></trkpt><trkpt lat="42.9366883" lon="12.1474615"><ele>520.0</ele><time>2026-05-02T08:58:38Z</time></trkpt><trkpt lat="42.9365932" lon="12.1474481"><ele>520.0</ele><time>2026-05-02T08:58:39Z</time></trkpt><trkpt lat="42.9364828" lon="12.1474542"><ele>519.0</ele><time>2026-05-02T08:58:40Z</time></trkpt><trkpt lat="42.9364018" lon="12.1474424"><ele>518.0</ele><time>2026-05-02T08:58:41Z</time></trkpt><trkpt lat="42.9363223" lon="12.1474341"><ele>517.0</ele><time>2026-05-02T08:58:42Z</time></trkpt><trkpt lat="42.9362331" lon="12.147426"><ele>516.0</ele><time>2026-05-02T08:58:43Z</time></trkpt><trkpt lat="42.9361614" lon="12.1474155"><ele>515.0</ele><time>2026-05-02T08:58:44Z</time></trkpt><trkpt lat="42.9360971" lon="12.1474205"><ele>514.0</ele><time>2026-05-02T08:58:44.999Z</time></trkpt><trkpt lat="42.9360352" lon="12.1474507"><ele>514.0</ele><time>2026-05-02T08:58:46Z</time></trkpt><trkpt lat="42.935979" lon="12.1474972"><ele>514.0</ele><time>2026-05-02T08:58:47Z</time></trkpt><trkpt lat="42.9359289" lon="12.147551"><ele>514.0</ele><time>2026-05-02T08:58:48Z</time></trkpt><trkpt lat="42.9358751" lon="12.1476178"><ele>514.0</ele><time>2026-05-02T08:58:48.999Z</time></trkpt><trkpt lat="42.9358166" lon="12.1476749"><ele>514.0</ele><time>2026-05-02T08:58:50Z</time></trkpt><trkpt lat="42.9357127" lon="12.1477198"><ele>514.0</ele><time>2026-05-02T08:58:52Z</time></trkpt><trkpt lat="42.9356473" lon="12.1477155"><ele>514.0</ele><time>2026-05-02T08:58:53Z</time></trkpt><trkpt lat="42.9355761" lon="12.1477001"><ele>513.0</ele><time>2026-05-02T08:58:54Z</time></trkpt><trkpt lat="42.9355061" lon="12.1476845"><ele>512.0</ele><time>2026-05-02T08:58:55Z</time></trkpt><trkpt lat="42.9354317" lon="12.1476793"><ele>511.0</ele><time>2026-05-02T08:58:56Z</time></trkpt><trkpt lat="42.9353607" lon="12.1476787"><ele>510.0</ele><time>2026-05-02T08:58:57Z</time></trkpt><trkpt lat="42.9352872" lon="12.147686"><ele>509.00000000000006</ele><time>2026-05-02T08:58:58Z</time></trkpt><trkpt lat="42.9352078" lon="12.1476918"><ele>508.0</ele><time>2026-05-02T08:58:59Z</time></trkpt><trkpt lat="42.935126" lon="12.1477044"><ele>507.00000000000006</ele><time>2026-05-02T08:59:00Z</time></trkpt><trkpt lat="42.9350374" lon="12.1477174"><ele>506.0</ele><time>2026-05-02T08:59:01Z</time></trkpt><trkpt lat="42.9349601" lon="12.1477344"><ele>505.0</ele><time>2026-05-02T08:59:02Z</time></trkpt><trkpt lat="42.9348802" lon="12.1477591"><ele>504.0</ele><time>2026-05-02T08:59:03Z</time></trkpt><trkpt lat="42.9347982" lon="12.1477906"><ele>503.00000000000006</ele><time>2026-05-02T08:59:04Z</time></trkpt><trkpt lat="42.9347274" lon="12.1478355"><ele>502.0</ele><time>2026-05-02T08:59:05Z</time></trkpt><trkpt lat="42.9346483" lon="12.147912"><ele>502.00000000000006</ele><time>2026-05-02T08:59:06Z</time></trkpt><trkpt lat="42.9345775" lon="12.1479896"><ele>502.0</ele><time>2026-05-02T08:59:07Z</time></trkpt><trkpt lat="42.9345083" lon="12.1480622"><ele>502.0</ele><time>2026-05-02T08:59:08Z</time></trkpt><trkpt lat="42.9344406" lon="12.1481212"><ele>502.0</ele><time>2026-05-02T08:59:09Z</time></trkpt><trkpt lat="42.9343748" lon="12.1481579"><ele>502.00000000000006</ele><time>2026-05-02T08:59:10Z</time></trkpt><trkpt lat="42.9343043" lon="12.1481715"><ele>502.0</ele><time>2026-05-02T08:59:11Z</time></trkpt><trkpt lat="42.9342401" lon="12.1481426"><ele>503.33333333333337</ele><time>2026-05-02T08:59:12Z</time></trkpt><trkpt lat="42.9341741" lon="12.1480865"><ele>504.6666666666667</ele><time>2026-05-02T08:59:13Z</time></trkpt><trkpt lat="42.9341034" lon="12.1480016"><ele>506.0</ele><time>2026-05-02T08:59:14Z</time></trkpt><trkpt lat="42.9340305" lon="12.1479279"><ele>507.33333333333337</ele><time>2026-05-02T08:59:15Z</time></trkpt><trkpt lat="42.9339675" lon="12.1478712"><ele>508.6666666666667</ele><time>2026-05-02T08:59:16Z</time></trkpt><trkpt lat="42.9339064" lon="12.1478368"><ele>510.0</ele><time>2026-05-02T08:59:17Z</time></trkpt><trkpt lat="42.9338402" lon="12.1478504"><ele>510.0</ele><time>2026-05-02T08:59:17.999Z</time></trkpt><trkpt lat="42.9337715" lon="12.1478963"><ele>510.0</ele><time>2026-05-02T08:59:19Z</time></trkpt><trkpt lat="42.9337182" lon="12.1479463"><ele>510.0</ele><time>2026-05-02T08:59:19.999Z</time></trkpt><trkpt lat="42.9336536" lon="12.1479889"><ele>510.0</ele><time>2026-05-02T08:59:20.999Z</time></trkpt><trkpt lat="42.9335971" lon="12.1480351"><ele>510.0</ele><time>2026-05-02T08:59:22Z</time></trkpt><trkpt lat="42.9335273" lon="12.1480784"><ele>510.0</ele><time>2026-05-02T08:59:24Z</time></trkpt><trkpt lat="42.9334054" lon="12.1480339"><ele>510.1666666666667</ele><time>2026-05-02T08:59:26Z</time></trkpt><trkpt lat="42.9333526" lon="12.1479853"><ele>510.33333333333337</ele><time>2026-05-02T08:59:27Z</time></trkpt><trkpt lat="42.9332838" lon="12.1479201"><ele>510.5</ele><time>2026-05-02T08:59:28Z</time></trkpt><trkpt lat="42.933222" lon="12.1478581"><ele>510.6666666666667</ele><time>2026-05-02T08:59:29Z</time></trkpt><trkpt lat="42.933155" lon="12.1478019"><ele>510.83333333333337</ele><time>2026-05-02T08:59:30Z</time></trkpt><trkpt lat="42.9330914" lon="12.1477454"><ele>511.0</ele><time>2026-05-02T08:59:31Z</time></trkpt><trkpt lat="42.9329971" lon="12.1476194"><ele>511.0</ele><time>2026-05-02T08:59:32.999Z</time></trkpt><trkpt lat="42.9329369" lon="12.1475613"><ele>511.0</ele><time>2026-05-02T08:59:34Z</time></trkpt><trkpt lat="42.9328219" lon="12.1474589"><ele>511.0</ele><time>2026-05-02T08:59:36Z</time></trkpt><trkpt lat="42.9327229" lon="12.1474278"><ele>511.0</ele><time>2026-05-02T08:59:37Z</time></trkpt><trkpt lat="42.9326224" lon="12.1473765"><ele>511.0</ele><time>2026-05-02T08:59:37.999Z</time></trkpt><trkpt lat="42.9325183" lon="12.1473178"><ele>509.0</ele><time>2026-05-02T08:59:39Z</time></trkpt><trkpt lat="42.9324364" lon="12.1472597"><ele>507.0</ele><time>2026-05-02T08:59:40Z</time></trkpt><trkpt lat="42.9323631" lon="12.1471992"><ele>505.0</ele><time>2026-05-02T08:59:41Z</time></trkpt><trkpt lat="42.9322824" lon="12.1471324"><ele>503.0</ele><time>2026-05-02T08:59:42Z</time></trkpt><trkpt lat="42.9321965" lon="12.1470662"><ele>501.0</ele><time>2026-05-02T08:59:43Z</time></trkpt><trkpt lat="42.9321099" lon="12.1470187"><ele>501.0</ele><time>2026-05-02T08:59:43.999Z</time></trkpt><trkpt lat="42.9320128" lon="12.1469847"><ele>501.0</ele><time>2026-05-02T08:59:45Z</time></trkpt><trkpt lat="42.9319228" lon="12.1469564"><ele>501.0</ele><time>2026-05-02T08:59:46Z</time></trkpt><trkpt lat="42.9318305" lon="12.146941"><ele>501.0</ele><time>2026-05-02T08:59:47Z</time></trkpt><trkpt lat="42.9317428" lon="12.146925"><ele>501.0</ele><time>2026-05-02T08:59:48Z</time></trkpt><trkpt lat="42.9316704" lon="12.1469104"><ele>501.0</ele><time>2026-05-02T08:59:49Z</time></trkpt><trkpt lat="42.9316019" lon="12.1468884"><ele>499.20000000000005</ele><time>2026-05-02T08:59:50Z</time></trkpt><trkpt lat="42.9314961" lon="12.1468732"><ele>497.40000000000003</ele><time>2026-05-02T08:59:52Z</time></trkpt><trkpt lat="42.9314126" lon="12.1469227"><ele>495.6</ele><time>2026-05-02T08:59:54Z</time></trkpt><trkpt lat="42.9313841" lon="12.1470444"><ele>493.8</ele><time>2026-05-02T08:59:56Z</time></trkpt><trkpt lat="42.9313672" lon="12.1471857"><ele>492.0</ele><time>2026-05-02T08:59:58Z</time></trkpt><trkpt lat="42.9313028" lon="12.1472628"><ele>492.0</ele><time>2026-05-02T09:00:01Z</time></trkpt><trkpt lat="42.9312384" lon="12.1472524"><ele>492.00000000000006</ele><time>2026-05-02T09:00:02Z</time></trkpt><trkpt lat="42.9311205" lon="12.1471583"><ele>492.00000000000006</ele><time>2026-05-02T09:00:04Z</time></trkpt><trkpt lat="42.9310603" lon="12.1470906"><ele>492.0</ele><time>2026-05-02T09:00:04.999Z</time></trkpt><trkpt lat="42.9309759" lon="12.1470442"><ele>492.0</ele><time>2026-05-02T09:00:06Z</time></trkpt><trkpt lat="42.9309043" lon="12.146988"><ele>489.6</ele><time>2026-05-02T09:00:06.999Z</time></trkpt><trkpt lat="42.9308314" lon="12.1469382"><ele>487.20000000000005</ele><time>2026-05-02T09:00:08Z</time></trkpt><trkpt lat="42.9307438" lon="12.1468206"><ele>484.8</ele><time>2026-05-02T09:00:10Z</time></trkpt><trkpt lat="42.930661" lon="12.1467284"><ele>482.4</ele><time>2026-05-02T09:00:11.999Z</time></trkpt><trkpt lat="42.9305593" lon="12.1467274"><ele>480.0</ele><time>2026-05-02T09:00:14Z</time></trkpt><trkpt lat="42.9304936" lon="12.1467536"><ele>480.0</ele><time>2026-05-02T09:00:15Z</time></trkpt><trkpt lat="42.9304298" lon="12.1467935"><ele>480.0</ele><time>2026-05-02T09:00:16Z</time></trkpt><trkpt lat="42.9303516" lon="12.1467855"><ele>480.0</ele><time>2026-05-02T09:00:17Z</time></trkpt><trkpt lat="42.9302691" lon="12.1467746"><ele>480.0</ele><time>2026-05-02T09:00:18Z</time></trkpt><trkpt lat="42.9301843" lon="12.1467327"><ele>480.0</ele><time>2026-05-02T09:00:19Z</time></trkpt><trkpt lat="42.9301065" lon="12.146684"><ele>480.0</ele><time>2026-05-02T09:00:20Z</time></trkpt><trkpt lat="42.9300128" lon="12.1466159"><ele>479.6</ele><time>2026-05-02T09:00:21Z</time></trkpt><trkpt lat="42.9299261" lon="12.1465622"><ele>479.2</ele><time>2026-05-02T09:00:22Z</time></trkpt><trkpt lat="42.9298423" lon="12.1465331"><ele>478.79999999999995</ele><time>2026-05-02T09:00:23Z</time></trkpt><trkpt lat="42.9297444" lon="12.1465214"><ele>478.4</ele><time>2026-05-02T09:00:23.999Z</time></trkpt><trkpt lat="42.9296539" lon="12.146518"><ele>478.0</ele><time>2026-05-02T09:00:25Z</time></trkpt><trkpt lat="42.9295537" lon="12.1465046"><ele>478.0</ele><time>2026-05-02T09:00:25.999Z</time></trkpt><trkpt lat="42.929471" lon="12.1464663"><ele>477.99999999999994</ele><time>2026-05-02T09:00:27Z</time></trkpt><trkpt lat="42.9293825" lon="12.1464419"><ele>477.99999999999994</ele><time>2026-05-02T09:00:28Z</time></trkpt><trkpt lat="42.9292834" lon="12.1464201"><ele>478.0</ele><time>2026-05-02T09:00:29Z</time></trkpt><trkpt lat="42.9291788" lon="12.1464059"><ele>478.0</ele><time>2026-05-02T09:00:30Z</time></trkpt><trkpt lat="42.9290791" lon="12.146386"><ele>479.2</ele><time>2026-05-02T09:00:31Z</time></trkpt><trkpt lat="42.9289654" lon="12.1463651"><ele>480.4</ele><time>2026-05-02T09:00:32Z</time></trkpt><trkpt lat="42.9288657" lon="12.1463387"><ele>481.59999999999997</ele><time>2026-05-02T09:00:33Z</time></trkpt><trkpt lat="42.9287653" lon="12.1462988"><ele>482.79999999999995</ele><time>2026-05-02T09:00:34Z</time></trkpt><trkpt lat="42.9286628" lon="12.1462533"><ele>484.0</ele><time>2026-05-02T09:00:35Z</time></trkpt><trkpt lat="42.9285811" lon="12.146205"><ele>484.0</ele><time>2026-05-02T09:00:36Z</time></trkpt><trkpt lat="42.928466" lon="12.1461698"><ele>484.0</ele><time>2026-05-02T09:00:36.999Z</time></trkpt><trkpt lat="42.928368" lon="12.1461346"><ele>484.0</ele><time>2026-05-02T09:00:38Z</time></trkpt><trkpt lat="42.9282649" lon="12.1461121"><ele>484.0</ele><time>2026-05-02T09:00:39Z</time></trkpt><trkpt lat="42.9281736" lon="12.1460926"><ele>484.0</ele><time>2026-05-02T09:00:40Z</time></trkpt><trkpt lat="42.9280857" lon="12.1460803"><ele>484.79999999999995</ele><time>2026-05-02T09:00:41Z</time></trkpt><trkpt lat="42.9279972" lon="12.1460493"><ele>485.59999999999997</ele><time>2026-05-02T09:00:41.999Z</time></trkpt><trkpt lat="42.9279024" lon="12.1460104"><ele>486.4</ele><time>2026-05-02T09:00:43Z</time></trkpt><trkpt lat="42.927805" lon="12.1459787"><ele>487.2</ele><time>2026-05-02T09:00:44Z</time></trkpt><trkpt lat="42.9277046" lon="12.1459418"><ele>488.0</ele><time>2026-05-02T09:00:45Z</time></trkpt><trkpt lat="42.9276111" lon="12.145918"><ele>490.0</ele><time>2026-05-02T09:00:46Z</time></trkpt><trkpt lat="42.9275155" lon="12.1458874"><ele>491.99999999999994</ele><time>2026-05-02T09:00:47Z</time></trkpt><trkpt lat="42.9274222" lon="12.1458671"><ele>493.99999999999994</ele><time>2026-05-02T09:00:47.999Z</time></trkpt><trkpt lat="42.9273196" lon="12.1458467"><ele>496.0</ele><time>2026-05-02T09:00:49Z</time></trkpt><trkpt lat="42.9272128" lon="12.1458347"><ele>498.0</ele><time>2026-05-02T09:00:50Z</time></trkpt><trkpt lat="42.9271168" lon="12.1458341"><ele>498.0</ele><time>2026-05-02T09:00:51Z</time></trkpt><trkpt lat="42.9270179" lon="12.145825"><ele>498.0</ele><time>2026-05-02T09:00:51.999Z</time></trkpt><trkpt lat="42.9269171" lon="12.1457948"><ele>498.0</ele><time>2026-05-02T09:00:53Z</time></trkpt><trkpt lat="42.9268592" lon="12.1457454"><ele>498.0</ele><time>2026-05-02T09:00:53.999Z</time></trkpt><trkpt lat="42.9267978" lon="12.1456848"><ele>498.0</ele><time>2026-05-02T09:00:55Z</time></trkpt><trkpt lat="42.9267229" lon="12.1456124"><ele>498.0</ele><time>2026-05-02T09:00:56Z</time></trkpt><trkpt lat="42.9266677" lon="12.1455407"><ele>501.79999999999995</ele><time>2026-05-02T09:00:57Z</time></trkpt><trkpt lat="42.9266074" lon="12.1454645"><ele>505.59999999999997</ele><time>2026-05-02T09:00:58Z</time></trkpt><trkpt lat="42.9265483" lon="12.1453898"><ele>509.40000000000003</ele><time>2026-05-02T09:00:59Z</time></trkpt><trkpt lat="42.9264924" lon="12.1453023"><ele>513.2</ele><time>2026-05-02T09:01:00Z</time></trkpt><trkpt lat="42.9263945" lon="12.145197"><ele>517.0</ele><time>2026-05-02T09:01:02Z</time></trkpt><trkpt lat="42.9262956" lon="12.1451638"><ele>517.0</ele><time>2026-05-02T09:01:04Z</time></trkpt><trkpt lat="42.9261802" lon="12.1451783"><ele>517.0</ele><time>2026-05-02T09:01:06Z</time></trkpt><trkpt lat="42.9261024" lon="12.1452063"><ele>517.0</ele><time>2026-05-02T09:01:07Z</time></trkpt><trkpt lat="42.9260177" lon="12.1452518"><ele>517.0</ele><time>2026-05-02T09:01:08Z</time></trkpt><trkpt lat="42.9259347" lon="12.1452817"><ele>517.0</ele><time>2026-05-02T09:01:08.999Z</time></trkpt><trkpt lat="42.9258514" lon="12.1453088"><ele>516.6666666666667</ele><time>2026-05-02T09:01:10Z</time></trkpt><trkpt lat="42.9257776" lon="12.145326"><ele>516.3333333333334</ele><time>2026-05-02T09:01:10.999Z</time></trkpt><trkpt lat="42.9257101" lon="12.1453155"><ele>516.0</ele><time>2026-05-02T09:01:12Z</time></trkpt><trkpt lat="42.9255867" lon="12.1452518"><ele>515.6666666666666</ele><time>2026-05-02T09:01:14Z</time></trkpt><trkpt lat="42.9255159" lon="12.1452248"><ele>515.3333333333333</ele><time>2026-05-02T09:01:15Z</time></trkpt><trkpt lat="42.925428" lon="12.1452102"><ele>515.0</ele><time>2026-05-02T09:01:16Z</time></trkpt><trkpt lat="42.9252985" lon="12.1451646"><ele>515.0</ele><time>2026-05-02T09:01:18Z</time></trkpt><trkpt lat="42.9252371" lon="12.1451176"><ele>515.0</ele><time>2026-05-02T09:01:19Z</time></trkpt><trkpt lat="42.925161" lon="12.1450702"><ele>515.0</ele><time>2026-05-02T09:01:20Z</time></trkpt><trkpt lat="42.9250906" lon="12.1450072"><ele>515.0</ele><time>2026-05-02T09:01:21Z</time></trkpt><trkpt lat="42.9250193" lon="12.1449469"><ele>515.0</ele><time>2026-05-02T09:01:22Z</time></trkpt><trkpt lat="42.9249563" lon="12.1448796"><ele>515.0</ele><time>2026-05-02T09:01:23Z</time></trkpt><trkpt lat="42.9248924" lon="12.1448114"><ele>515.0</ele><time>2026-05-02T09:01:24Z</time></trkpt><trkpt lat="42.924826" lon="12.1447436"><ele>515.0</ele><time>2026-05-02T09:01:24.999Z</time></trkpt><trkpt lat="42.9247587" lon="12.1446718"><ele>515.0</ele><time>2026-05-02T09:01:26Z</time></trkpt><trkpt lat="42.9246874" lon="12.1445966"><ele>515.0</ele><time>2026-05-02T09:01:27Z</time></trkpt><trkpt lat="42.924626" lon="12.1445201"><ele>515.0</ele><time>2026-05-02T09:01:28Z</time></trkpt><trkpt lat="42.9245613" lon="12.1444514"><ele>515.0</ele><time>2026-05-02T09:01:29Z</time></trkpt><trkpt lat="42.92451" lon="12.1443801"><ele>515.0</ele><time>2026-05-02T09:01:30Z</time></trkpt><trkpt lat="42.9244125" lon="12.1442789"><ele>515.0</ele><time>2026-05-02T09:01:32Z</time></trkpt><trkpt lat="42.9243182" lon="12.1442809"><ele>515.0</ele><time>2026-05-02T09:01:33.999Z</time></trkpt><trkpt lat="42.9242293" lon="12.1443519"><ele>515.0</ele><time>2026-05-02T09:01:36Z</time></trkpt><trkpt lat="42.9241568" lon="12.1443613"><ele>515.0</ele><time>2026-05-02T09:01:37.999Z</time></trkpt><trkpt lat="42.9241287" lon="12.1442781"><ele>515.8</ele><time>2026-05-02T09:01:40Z</time></trkpt><trkpt lat="42.924161" lon="12.1441626"><ele>516.6</ele><time>2026-05-02T09:01:42Z</time></trkpt><trkpt lat="42.9241544" lon="12.1440115"><ele>517.4</ele><time>2026-05-02T09:01:43.999Z</time></trkpt><trkpt lat="42.9240798" lon="12.1439625"><ele>518.2</ele><time>2026-05-02T09:01:45.999Z</time></trkpt><trkpt lat="42.9239841" lon="12.14402"><ele>519.0</ele><time>2026-05-02T09:01:48Z</time></trkpt><trkpt lat="42.9239164" lon="12.1440712"><ele>517.5</ele><time>2026-05-02T09:01:49Z</time></trkpt><trkpt lat="42.9238417" lon="12.1441213"><ele>516.0</ele><time>2026-05-02T09:01:50Z</time></trkpt><trkpt lat="42.9237638" lon="12.1441727"><ele>514.5</ele><time>2026-05-02T09:01:51Z</time></trkpt><trkpt lat="42.9236958" lon="12.1442167"><ele>513.0</ele><time>2026-05-02T09:01:52Z</time></trkpt><trkpt lat="42.9236337" lon="12.1442458"><ele>511.5</ele><time>2026-05-02T09:01:53Z</time></trkpt><trkpt lat="42.9235401" lon="12.1442563"><ele>510.0</ele><time>2026-05-02T09:01:55Z</time></trkpt><trkpt lat="42.9234763" lon="12.1441619"><ele>510.0</ele><time>2026-05-02T09:01:57Z</time></trkpt><trkpt lat="42.9234495" lon="12.1440801"><ele>510.0</ele><time>2026-05-02T09:01:57.999Z</time></trkpt><trkpt lat="42.9234235" lon="12.1439933"><ele>510.0</ele><time>2026-05-02T09:01:58.999Z</time></trkpt><trkpt lat="42.9233968" lon="12.1439086"><ele>510.0</ele><time>2026-05-02T09:01:59.999Z</time></trkpt><trkpt lat="42.9233024" lon="12.1438153"><ele>510.0</ele><time>2026-05-02T09:02:01.999Z</time></trkpt><trkpt lat="42.9232356" lon="12.1437997"><ele>510.0</ele><time>2026-05-02T09:02:03Z</time></trkpt><trkpt lat="42.9230833" lon="12.1437388"><ele>514.6</ele><time>2026-05-02T09:02:05Z</time></trkpt><trkpt lat="42.9230042" lon="12.1437018"><ele>519.2</ele><time>2026-05-02T09:02:06Z</time></trkpt><trkpt lat="42.9229087" lon="12.1436605"><ele>523.8</ele><time>2026-05-02T09:02:07Z</time></trkpt><trkpt lat="42.9228315" lon="12.1436013"><ele>528.4</ele><time>2026-05-02T09:02:07.999Z</time></trkpt><trkpt lat="42.9227547" lon="12.1435336"><ele>533.0</ele><time>2026-05-02T09:02:09Z</time></trkpt><trkpt lat="42.9226838" lon="12.1434568"><ele>533.0</ele><time>2026-05-02T09:02:10Z</time></trkpt><trkpt lat="42.9226148" lon="12.1433809"><ele>533.0</ele><time>2026-05-02T09:02:11Z</time></trkpt><trkpt lat="42.9225437" lon="12.1433008"><ele>533.0</ele><time>2026-05-02T09:02:11.999Z</time></trkpt><trkpt lat="42.9224668" lon="12.143223"><ele>533.0</ele><time>2026-05-02T09:02:13Z</time></trkpt><trkpt lat="42.9223859" lon="12.1431247"><ele>533.0</ele><time>2026-05-02T09:02:13.999Z</time></trkpt><trkpt lat="42.9223095" lon="12.1430331"><ele>535.8</ele><time>2026-05-02T09:02:15Z</time></trkpt><trkpt lat="42.9222352" lon="12.142942"><ele>538.5999999999999</ele><time>2026-05-02T09:02:16Z</time></trkpt><trkpt lat="42.9221674" lon="12.1428502"><ele>541.4000000000001</ele><time>2026-05-02T09:02:17Z</time></trkpt><trkpt lat="42.9220967" lon="12.1427471"><ele>544.2</ele><time>2026-05-02T09:02:18Z</time></trkpt><trkpt lat="42.9220315" lon="12.1426356"><ele>547.0</ele><time>2026-05-02T09:02:19Z</time></trkpt><trkpt lat="42.9219691" lon="12.1425227"><ele>547.0</ele><time>2026-05-02T09:02:20Z</time></trkpt><trkpt lat="42.9219033" lon="12.1424066"><ele>547.0</ele><time>2026-05-02T09:02:21Z</time></trkpt><trkpt lat="42.9218402" lon="12.1422894"><ele>547.0</ele><time>2026-05-02T09:02:22Z</time></trkpt><trkpt lat="42.9217942" lon="12.1421757"><ele>547.0</ele><time>2026-05-02T09:02:23Z</time></trkpt><trkpt lat="42.9217508" lon="12.142077"><ele>547.0</ele><time>2026-05-02T09:02:24Z</time></trkpt><trkpt lat="42.9217098" lon="12.1420059"><ele>548.4</ele><time>2026-05-02T09:02:25Z</time></trkpt><trkpt lat="42.9216063" lon="12.1419776"><ele>549.8000000000001</ele><time>2026-05-02T09:02:26.999Z</time></trkpt><trkpt lat="42.9215214" lon="12.1420237"><ele>551.2</ele><time>2026-05-02T09:02:27.999Z</time></trkpt><trkpt lat="42.9214559" lon="12.1420869"><ele>552.6</ele><time>2026-05-02T09:02:28.999Z</time></trkpt><trkpt lat="42.9213946" lon="12.1421355"><ele>554.0</ele><time>2026-05-02T09:02:30Z</time></trkpt><trkpt lat="42.9213121" lon="12.1422231"><ele>554.0</ele><time>2026-05-02T09:02:30.999Z</time></trkpt><trkpt lat="42.9212384" lon="12.1422947"><ele>554.0</ele><time>2026-05-02T09:02:32Z</time></trkpt><trkpt lat="42.9211602" lon="12.1423395"><ele>554.0</ele><time>2026-05-02T09:02:32.999Z</time></trkpt><trkpt lat="42.921051" lon="12.1423619"><ele>554.0</ele><time>2026-05-02T09:02:34Z</time></trkpt><trkpt lat="42.9209641" lon="12.142345"><ele>554.0</ele><time>2026-05-02T09:02:35Z</time></trkpt><trkpt lat="42.9208625" lon="12.142308"><ele>556.4</ele><time>2026-05-02T09:02:36Z</time></trkpt><trkpt lat="42.920777" lon="12.142255"><ele>558.8</ele><time>2026-05-02T09:02:37Z</time></trkpt><trkpt lat="42.9207136" lon="12.142181"><ele>561.2</ele><time>2026-05-02T09:02:38Z</time></trkpt><trkpt lat="42.9206246" lon="12.1420829"><ele>563.6</ele><time>2026-05-02T09:02:39Z</time></trkpt><trkpt lat="42.9205535" lon="12.1419977"><ele>566.0</ele><time>2026-05-02T09:02:40Z</time></trkpt><trkpt lat="42.9204725" lon="12.141905"><ele>566.0</ele><time>2026-05-02T09:02:40.999Z</time></trkpt><trkpt lat="42.920393" lon="12.1417889"><ele>566.0</ele><time>2026-05-02T09:02:42Z</time></trkpt><trkpt lat="42.9202938" lon="12.1416749"><ele>566.0</ele><time>2026-05-02T09:02:42.999Z</time></trkpt><trkpt lat="42.9201803" lon="12.1415718"><ele>566.0</ele><time>2026-05-02T09:02:43.999Z</time></trkpt><trkpt lat="42.920071" lon="12.141481"><ele>567.2</ele><time>2026-05-02T09:02:45Z</time></trkpt><trkpt lat="42.9199694" lon="12.1414116"><ele>568.4000000000001</ele><time>2026-05-02T09:02:45.999Z</time></trkpt><trkpt lat="42.9198893" lon="12.1413595"><ele>569.6</ele><time>2026-05-02T09:02:47Z</time></trkpt><trkpt lat="42.9198158" lon="12.1413344"><ele>570.8000000000001</ele><time>2026-05-02T09:02:48Z</time></trkpt><trkpt lat="42.9197082" lon="12.1413144"><ele>572.0</ele><time>2026-05-02T09:02:50Z</time></trkpt><trkpt lat="42.9196384" lon="12.1412892"><ele>572.0</ele><time>2026-05-02T09:02:51.999Z</time></trkpt><trkpt lat="42.9195592" lon="12.1412759"><ele>572.0</ele><time>2026-05-02T09:03:11Z</time></trkpt><trkpt lat="42.919499" lon="12.141334"><ele>572.0</ele><time>2026-05-02T09:03:13Z</time></trkpt><trkpt lat="42.9194333" lon="12.1414305"><ele>572.0</ele><time>2026-05-02T09:03:15Z</time></trkpt><trkpt lat="42.9193581" lon="12.1415093"><ele>572.0</ele><time>2026-05-02T09:03:17Z</time></trkpt><trkpt lat="42.9192897" lon="12.1415886"><ele>572.0</ele><time>2026-05-02T09:03:19Z</time></trkpt><trkpt lat="42.9192039" lon="12.1416602"><ele>570.5</ele><time>2026-05-02T09:03:21Z</time></trkpt><trkpt lat="42.9191143" lon="12.1417131"><ele>569.0</ele><time>2026-05-02T09:03:23Z</time></trkpt><trkpt lat="42.9190331" lon="12.1417619"><ele>567.5</ele><time>2026-05-02T09:03:25Z</time></trkpt><trkpt lat="42.9190895" lon="12.1418205"><ele>566.0</ele><time>2026-05-02T09:03:32Z</time></trkpt><trkpt lat="42.9191676" lon="12.1417286"><ele>564.5</ele><time>2026-05-02T09:03:33Z</time></trkpt><trkpt lat="42.9192238" lon="12.1416756"><ele>563.0</ele><time>2026-05-02T09:03:34Z</time></trkpt><trkpt lat="42.9192702" lon="12.1416091"><ele>564.8</ele><time>2026-05-02T09:03:34.999Z</time></trkpt><trkpt lat="42.9193255" lon="12.1415384"><ele>566.5999999999999</ele><time>2026-05-02T09:03:36Z</time></trkpt><trkpt lat="42.9194042" lon="12.1414506"><ele>568.4000000000001</ele><time>2026-05-02T09:03:37Z</time></trkpt><trkpt lat="42.9194802" lon="12.1413601"><ele>570.2</ele><time>2026-05-02T09:03:38Z</time></trkpt><trkpt lat="42.9195514" lon="12.1412713"><ele>572.0</ele><time>2026-05-02T09:03:39Z</time></trkpt><trkpt lat="42.9196133" lon="12.1411811"><ele>572.0</ele><time>2026-05-02T09:03:40Z</time></trkpt><trkpt lat="42.9196618" lon="12.1410826"><ele>572.0</ele><time>2026-05-02T09:03:41Z</time></trkpt><trkpt lat="42.9196976" lon="12.1409699"><ele>572.0</ele><time>2026-05-02T09:03:42Z</time></trkpt><trkpt lat="42.9197261" lon="12.1408392"><ele>572.0</ele><time>2026-05-02T09:03:43Z</time></trkpt><trkpt lat="42.9197273" lon="12.1406983"><ele>572.0</ele><time>2026-05-02T09:03:44Z</time></trkpt><trkpt lat="42.9197162" lon="12.1405521"><ele>573.6</ele><time>2026-05-02T09:03:45Z</time></trkpt><trkpt lat="42.9197026" lon="12.1403959"><ele>575.2</ele><time>2026-05-02T09:03:46Z</time></trkpt><trkpt lat="42.9196881" lon="12.1402499"><ele>576.8</ele><time>2026-05-02T09:03:47Z</time></trkpt><trkpt lat="42.9196673" lon="12.1401045"><ele>578.4</ele><time>2026-05-02T09:03:48Z</time></trkpt><trkpt lat="42.9196341" lon="12.1399527"><ele>580.0</ele><time>2026-05-02T09:03:49Z</time></trkpt><trkpt lat="42.9196027" lon="12.1397938"><ele>584.25</ele><time>2026-05-02T09:03:50Z</time></trkpt><trkpt lat="42.9195759" lon="12.1396403"><ele>588.5</ele><time>2026-05-02T09:03:51Z</time></trkpt><trkpt lat="42.9195523" lon="12.1394826"><ele>592.75</ele><time>2026-05-02T09:03:52Z</time></trkpt><trkpt lat="42.9195092" lon="12.1393309"><ele>597.0</ele><time>2026-05-02T09:03:53Z</time></trkpt><trkpt lat="42.9194492" lon="12.1391869"><ele>598.75</ele><time>2026-05-02T09:03:54Z</time></trkpt><trkpt lat="42.9193694" lon="12.1390496"><ele>600.5</ele><time>2026-05-02T09:03:55Z</time></trkpt><trkpt lat="42.9192763" lon="12.1389325"><ele>602.25</ele><time>2026-05-02T09:03:56Z</time></trkpt><trkpt lat="42.9191783" lon="12.1388198"><ele>604.0</ele><time>2026-05-02T09:03:57Z</time></trkpt><trkpt lat="42.9190926" lon="12.1387125"><ele>604.0</ele><time>2026-05-02T09:03:58Z</time></trkpt><trkpt lat="42.9190211" lon="12.1386368"><ele>604.0</ele><time>2026-05-02T09:03:59Z</time></trkpt><trkpt lat="42.9189301" lon="12.1386037"><ele>604.0</ele><time>2026-05-02T09:04:00Z</time></trkpt><trkpt lat="42.9188318" lon="12.1386179"><ele>604.0</ele><time>2026-05-02T09:04:01Z</time></trkpt><trkpt lat="42.918731" lon="12.1386738"><ele>604.0</ele><time>2026-05-02T09:04:02Z</time></trkpt><trkpt lat="42.9186471" lon="12.1387775"><ele>604.0</ele><time>2026-05-02T09:04:03Z</time></trkpt><trkpt lat="42.9185647" lon="12.1388824"><ele>604.0</ele><time>2026-05-02T09:04:04Z</time></trkpt><trkpt lat="42.918464" lon="12.1389872"><ele>604.0</ele><time>2026-05-02T09:04:05Z</time></trkpt><trkpt lat="42.9183618" lon="12.1390671"><ele>604.0</ele><time>2026-05-02T09:04:06Z</time></trkpt><trkpt lat="42.9182414" lon="12.1391274"><ele>604.5</ele><time>2026-05-02T09:04:07Z</time></trkpt><trkpt lat="42.9181214" lon="12.1391481"><ele>605.0</ele><time>2026-05-02T09:04:08Z</time></trkpt><trkpt lat="42.9180082" lon="12.139141"><ele>605.5</ele><time>2026-05-02T09:04:09Z</time></trkpt><trkpt lat="42.9178901" lon="12.1390847"><ele>606.0</ele><time>2026-05-02T09:04:10Z</time></trkpt><trkpt lat="42.9177814" lon="12.1390044"><ele>606.0</ele><time>2026-05-02T09:04:11Z</time></trkpt><trkpt lat="42.9176883" lon="12.1388983"><ele>606.0</ele><time>2026-05-02T09:04:12Z</time></trkpt><trkpt lat="42.9176098" lon="12.1387716"><ele>606.0</ele><time>2026-05-02T09:04:13Z</time></trkpt><trkpt lat="42.9175559" lon="12.1386256"><ele>606.0</ele><time>2026-05-02T09:04:14Z</time></trkpt><trkpt lat="42.9175232" lon="12.138462"><ele>606.5</ele><time>2026-05-02T09:04:15Z</time></trkpt><trkpt lat="42.9175196" lon="12.1382887"><ele>607.0</ele><time>2026-05-02T09:04:16Z</time></trkpt><trkpt lat="42.9175243" lon="12.1381099"><ele>607.5</ele><time>2026-05-02T09:04:16.999Z</time></trkpt><trkpt lat="42.9175272" lon="12.1379322"><ele>608.0</ele><time>2026-05-02T09:04:18Z</time></trkpt><trkpt lat="42.9175257" lon="12.1377633"><ele>608.0</ele><time>2026-05-02T09:04:18.999Z</time></trkpt><trkpt lat="42.9175101" lon="12.1375952"><ele>608.0</ele><time>2026-05-02T09:04:20Z</time></trkpt><trkpt lat="42.9174682" lon="12.1374394"><ele>608.0</ele><time>2026-05-02T09:04:21Z</time></trkpt><trkpt lat="42.9174" lon="12.1372924"><ele>608.0</ele><time>2026-05-02T09:04:22Z</time></trkpt><trkpt lat="42.9173041" lon="12.1371605"><ele>610.25</ele><time>2026-05-02T09:04:23Z</time></trkpt><trkpt lat="42.9172044" lon="12.1370371"><ele>612.5</ele><time>2026-05-02T09:04:24Z</time></trkpt><trkpt lat="42.9171059" lon="12.1369276"><ele>614.75</ele><time>2026-05-02T09:04:25Z</time></trkpt><trkpt lat="42.9170075" lon="12.1368092"><ele>617.0</ele><time>2026-05-02T09:04:25.999Z</time></trkpt><trkpt lat="42.916914" lon="12.1366976"><ele>617.0</ele><time>2026-05-02T09:04:26.999Z</time></trkpt><trkpt lat="42.916827" lon="12.1365894"><ele>617.0</ele><time>2026-05-02T09:04:28Z</time></trkpt><trkpt lat="42.9167466" lon="12.1364956"><ele>617.0</ele><time>2026-05-02T09:04:29Z</time></trkpt><trkpt lat="42.9166918" lon="12.1364321"><ele>617.0</ele><time>2026-05-02T09:04:30Z</time></trkpt><trkpt lat="42.9166403" lon="12.1363423"><ele>617.0</ele><time>2026-05-02T09:04:32Z</time></trkpt><trkpt lat="42.9166822" lon="12.136235"><ele>616.3333333333333</ele><time>2026-05-02T09:04:49Z</time></trkpt><trkpt lat="42.9167333" lon="12.136172"><ele>615.6666666666666</ele><time>2026-05-02T09:04:51Z</time></trkpt><trkpt lat="42.9168104" lon="12.13614"><ele>615.0</ele><time>2026-05-02T09:05:00Z</time></trkpt><trkpt lat="42.9169005" lon="12.1361209"><ele>614.3333333333334</ele><time>2026-05-02T09:05:02.999Z</time></trkpt><trkpt lat="42.9169824" lon="12.1360708"><ele>613.6666666666667</ele><time>2026-05-02T09:05:04.999Z</time></trkpt><trkpt lat="42.9170783" lon="12.1360145"><ele>613.0</ele><time>2026-05-02T09:05:07Z</time></trkpt><trkpt lat="42.917153" lon="12.1359964"><ele>613.0</ele><time>2026-05-02T09:05:09Z</time></trkpt><trkpt lat="42.9170436" lon="12.1360777"><ele>613.0</ele><time>2026-05-02T09:05:27Z</time></trkpt><trkpt lat="42.9169693" lon="12.1360922"><ele>613.0</ele><time>2026-05-02T09:05:28Z</time></trkpt><trkpt lat="42.9168608" lon="12.1361316"><ele>613.0</ele><time>2026-05-02T09:05:29.999Z</time></trkpt><trkpt lat="42.9167864" lon="12.1361533"><ele>613.0</ele><time>2026-05-02T09:05:32Z</time></trkpt><trkpt lat="42.916736" lon="12.1362158"><ele>613.0</ele><time>2026-05-02T09:05:35Z</time></trkpt><trkpt lat="42.9167917" lon="12.1362838"><ele>613.0</ele><time>2026-05-02T09:05:38Z</time></trkpt><trkpt lat="42.9169074" lon="12.1363054"><ele>613.0</ele><time>2026-05-02T09:05:40Z</time></trkpt><trkpt lat="42.9169811" lon="12.1363248"><ele>613.0</ele><time>2026-05-02T09:05:41Z</time></trkpt><trkpt lat="42.9170628" lon="12.1363451"><ele>613.0</ele><time>2026-05-02T09:05:42Z</time></trkpt><trkpt lat="42.9171447" lon="12.1363531"><ele>613.0</ele><time>2026-05-02T09:05:43Z</time></trkpt><trkpt lat="42.9172289" lon="12.1363712"><ele>613.0</ele><time>2026-05-02T09:05:44Z</time></trkpt><trkpt lat="42.9173283" lon="12.1363903"><ele>613.0</ele><time>2026-05-02T09:05:45Z</time></trkpt><trkpt lat="42.9174253" lon="12.1364158"><ele>613.0</ele><time>2026-05-02T09:05:46Z</time></trkpt><trkpt lat="42.9175248" lon="12.1364458"><ele>613.0</ele><time>2026-05-02T09:05:47Z</time></trkpt><trkpt lat="42.9176149" lon="12.1364806"><ele>613.0</ele><time>2026-05-02T09:05:48Z</time></trkpt><trkpt lat="42.9177022" lon="12.1365066"><ele>614.4</ele><time>2026-05-02T09:05:49Z</time></trkpt><trkpt lat="42.9177994" lon="12.1365397"><ele>615.8</ele><time>2026-05-02T09:05:50Z</time></trkpt><trkpt lat="42.9178964" lon="12.1365661"><ele>617.2</ele><time>2026-05-02T09:05:51Z</time></trkpt><trkpt lat="42.9179942" lon="12.1365924"><ele>618.6</ele><time>2026-05-02T09:05:51.999Z</time></trkpt><trkpt lat="42.9180838" lon="12.1366025"><ele>620.0</ele><time>2026-05-02T09:05:53Z</time></trkpt><trkpt lat="42.9181914" lon="12.1366188"><ele>620.8</ele><time>2026-05-02T09:05:54Z</time></trkpt><trkpt lat="42.9183013" lon="12.1366419"><ele>621.6</ele><time>2026-05-02T09:05:55Z</time></trkpt><trkpt lat="42.918392" lon="12.1366564"><ele>622.4</ele><time>2026-05-02T09:05:56Z</time></trkpt><trkpt lat="42.9184933" lon="12.1366634"><ele>623.2</ele><time>2026-05-02T09:05:57Z</time></trkpt><trkpt lat="42.9185847" lon="12.1366851"><ele>624.0</ele><time>2026-05-02T09:05:57.999Z</time></trkpt><trkpt lat="42.9186757" lon="12.1367232"><ele>624.0</ele><time>2026-05-02T09:05:59Z</time></trkpt><trkpt lat="42.9187667" lon="12.1367481"><ele>624.0</ele><time>2026-05-02T09:06:00Z</time></trkpt><trkpt lat="42.9188501" lon="12.1367613"><ele>624.0</ele><time>2026-05-02T09:06:00.999Z</time></trkpt><trkpt lat="42.9189276" lon="12.1367856"><ele>624.0</ele><time>2026-05-02T09:06:02Z</time></trkpt><trkpt lat="42.9189932" lon="12.1367896"><ele>624.0</ele><time>2026-05-02T09:06:03Z</time></trkpt><trkpt lat="42.9190709" lon="12.1368251"><ele>624.0</ele><time>2026-05-02T09:06:04Z</time></trkpt><trkpt lat="42.9191537" lon="12.1369296"><ele>624.0</ele><time>2026-05-02T09:06:05Z</time></trkpt><trkpt lat="42.9192304" lon="12.137008"><ele>624.0</ele><time>2026-05-02T09:06:06Z</time></trkpt><trkpt lat="42.9193007" lon="12.137083"><ele>624.0</ele><time>2026-05-02T09:06:07Z</time></trkpt><trkpt lat="42.91937" lon="12.1371493"><ele>624.0</ele><time>2026-05-02T09:06:08Z</time></trkpt><trkpt lat="42.9194593" lon="12.1371981"><ele>624.0</ele><time>2026-05-02T09:06:09Z</time></trkpt><trkpt lat="42.9195679" lon="12.1372399"><ele>623.8</ele><time>2026-05-02T09:06:09.999Z</time></trkpt><trkpt lat="42.9196787" lon="12.1372788"><ele>623.5999999999999</ele><time>2026-05-02T09:06:10.999Z</time></trkpt><trkpt lat="42.9197826" lon="12.1373298"><ele>623.4</ele><time>2026-05-02T09:06:12Z</time></trkpt><trkpt lat="42.9198859" lon="12.1373828"><ele>623.1999999999999</ele><time>2026-05-02T09:06:13Z</time></trkpt><trkpt lat="42.9199794" lon="12.1374415"><ele>623.0</ele><time>2026-05-02T09:06:13.999Z</time></trkpt><trkpt lat="42.9200536" lon="12.1374782"><ele>622.5</ele><time>2026-05-02T09:06:14.999Z</time></trkpt><trkpt lat="42.9201228" lon="12.1375184"><ele>622.0</ele><time>2026-05-02T09:06:16Z</time></trkpt><trkpt lat="42.9201857" lon="12.1375702"><ele>621.5</ele><time>2026-05-02T09:06:17Z</time></trkpt><trkpt lat="42.9202505" lon="12.1376285"><ele>621.0</ele><time>2026-05-02T09:06:17.999Z</time></trkpt><trkpt lat="42.9203163" lon="12.1376891"><ele>620.5</ele><time>2026-05-02T09:06:18.999Z</time></trkpt><trkpt lat="42.9203718" lon="12.1377551"><ele>620.0</ele><time>2026-05-02T09:06:20Z</time></trkpt><trkpt lat="42.9204292" lon="12.1378258"><ele>620.0</ele><time>2026-05-02T09:06:21Z</time></trkpt><trkpt lat="42.9204905" lon="12.1378879"><ele>620.0</ele><time>2026-05-02T09:06:22Z</time></trkpt><trkpt lat="42.9205858" lon="12.1379356"><ele>620.0</ele><time>2026-05-02T09:06:23Z</time></trkpt><trkpt lat="42.9206842" lon="12.1379877"><ele>620.0</ele><time>2026-05-02T09:06:24Z</time></trkpt><trkpt lat="42.9207768" lon="12.138039"><ele>620.0</ele><time>2026-05-02T09:06:25Z</time></trkpt><trkpt lat="42.9208635" lon="12.1380925"><ele>620.5</ele><time>2026-05-02T09:06:25.999Z</time></trkpt><trkpt lat="42.9209328" lon="12.1381235"><ele>621.0</ele><time>2026-05-02T09:06:27Z</time></trkpt><trkpt lat="42.9210058" lon="12.1381407"><ele>621.5</ele><time>2026-05-02T09:06:28Z</time></trkpt><trkpt lat="42.921076" lon="12.138144"><ele>622.0</ele><time>2026-05-02T09:06:29Z</time></trkpt><trkpt lat="42.9211574" lon="12.1381031"><ele>622.5</ele><time>2026-05-02T09:06:29.999Z</time></trkpt><trkpt lat="42.9212423" lon="12.1380823"><ele>623.0</ele><time>2026-05-02T09:06:31Z</time></trkpt><trkpt lat="42.9213227" lon="12.1380544"><ele>623.0</ele><time>2026-05-02T09:06:31.999Z</time></trkpt><trkpt lat="42.9214086" lon="12.1380318"><ele>623.0</ele><time>2026-05-02T09:06:33Z</time></trkpt><trkpt lat="42.9214826" lon="12.1379889"><ele>623.0</ele><time>2026-05-02T09:06:34Z</time></trkpt><trkpt lat="42.9215472" lon="12.1379526"><ele>623.0</ele><time>2026-05-02T09:06:35Z</time></trkpt><trkpt lat="42.9216168" lon="12.1379033"><ele>623.0</ele><time>2026-05-02T09:06:36Z</time></trkpt><trkpt lat="42.9216705" lon="12.137843"><ele>623.0</ele><time>2026-05-02T09:06:37Z</time></trkpt><trkpt lat="42.9217332" lon="12.1377824"><ele>624.1666666666666</ele><time>2026-05-02T09:06:38Z</time></trkpt><trkpt lat="42.9217982" lon="12.1377175"><ele>625.3333333333333</ele><time>2026-05-02T09:06:39Z</time></trkpt><trkpt lat="42.9218676" lon="12.1376477"><ele>626.5</ele><time>2026-05-02T09:06:40Z</time></trkpt><trkpt lat="42.9219357" lon="12.1375635"><ele>627.6666666666666</ele><time>2026-05-02T09:06:41Z</time></trkpt><trkpt lat="42.9219994" lon="12.1375047"><ele>628.8333333333334</ele><time>2026-05-02T09:06:42Z</time></trkpt><trkpt lat="42.9220709" lon="12.1374521"><ele>630.0</ele><time>2026-05-02T09:06:43Z</time></trkpt><trkpt lat="42.9221462" lon="12.1374228"><ele>630.0</ele><time>2026-05-02T09:06:44Z</time></trkpt><trkpt lat="42.922226" lon="12.1374032"><ele>630.0</ele><time>2026-05-02T09:06:45Z</time></trkpt><trkpt lat="42.9223177" lon="12.1374011"><ele>630.0</ele><time>2026-05-02T09:06:45.999Z</time></trkpt><trkpt lat="42.922406" lon="12.1373958"><ele>630.0</ele><time>2026-05-02T09:06:46.999Z</time></trkpt><trkpt lat="42.9224939" lon="12.137389"><ele>630.0</ele><time>2026-05-02T09:06:47.999Z</time></trkpt><trkpt lat="42.9226026" lon="12.1373724"><ele>628.2</ele><time>2026-05-02T09:06:49Z</time></trkpt><trkpt lat="42.9226928" lon="12.1373623"><ele>626.4</ele><time>2026-05-02T09:06:50Z</time></trkpt><trkpt lat="42.9227812" lon="12.1373638"><ele>624.6</ele><time>2026-05-02T09:06:51Z</time></trkpt><trkpt lat="42.9228716" lon="12.1373615"><ele>622.8</ele><time>2026-05-02T09:06:52Z</time></trkpt><trkpt lat="42.9229658" lon="12.1373594"><ele>621.0</ele><time>2026-05-02T09:06:53Z</time></trkpt><trkpt lat="42.9230655" lon="12.1373528"><ele>621.0</ele><time>2026-05-02T09:06:54Z</time></trkpt><trkpt lat="42.9231756" lon="12.1373457"><ele>621.0</ele><time>2026-05-02T09:06:55Z</time></trkpt><trkpt lat="42.9232773" lon="12.1373346"><ele>621.0</ele><time>2026-05-02T09:06:56Z</time></trkpt><trkpt lat="42.9233777" lon="12.1373344"><ele>621.0</ele><time>2026-05-02T09:06:57Z</time></trkpt><trkpt lat="42.9234574" lon="12.13731"><ele>621.0</ele><time>2026-05-02T09:06:58Z</time></trkpt><trkpt lat="42.9235312" lon="12.1372719"><ele>622.6</ele><time>2026-05-02T09:06:58.999Z</time></trkpt><trkpt lat="42.9236009" lon="12.1372164"><ele>624.2</ele><time>2026-05-02T09:06:59.999Z</time></trkpt><trkpt lat="42.9236824" lon="12.1371389"><ele>625.8</ele><time>2026-05-02T09:07:01Z</time></trkpt><trkpt lat="42.9237587" lon="12.1370464"><ele>627.4</ele><time>2026-05-02T09:07:02Z</time></trkpt><trkpt lat="42.9238347" lon="12.1369558"><ele>629.0</ele><time>2026-05-02T09:07:03Z</time></trkpt><trkpt lat="42.9239172" lon="12.1368592"><ele>629.0</ele><time>2026-05-02T09:07:04Z</time></trkpt><trkpt lat="42.924001" lon="12.1367672"><ele>629.0</ele><time>2026-05-02T09:07:05Z</time></trkpt><trkpt lat="42.9240661" lon="12.1366799"><ele>629.0</ele><time>2026-05-02T09:07:06Z</time></trkpt><trkpt lat="42.9241352" lon="12.1366184"><ele>629.0</ele><time>2026-05-02T09:07:07Z</time></trkpt><trkpt lat="42.9242208" lon="12.1365611"><ele>629.0</ele><time>2026-05-02T09:07:08Z</time></trkpt><trkpt lat="42.9243118" lon="12.1364996"><ele>629.3333333333333</ele><time>2026-05-02T09:07:08.999Z</time></trkpt><trkpt lat="42.9243938" lon="12.1364519"><ele>629.6666666666666</ele><time>2026-05-02T09:07:10Z</time></trkpt><trkpt lat="42.9244753" lon="12.1364167"><ele>630.0</ele><time>2026-05-02T09:07:10.999Z</time></trkpt><trkpt lat="42.9245326" lon="12.136363"><ele>630.3333333333334</ele><time>2026-05-02T09:07:12Z</time></trkpt><trkpt lat="42.9245916" lon="12.1362832"><ele>630.6666666666667</ele><time>2026-05-02T09:07:12.999Z</time></trkpt><trkpt lat="42.9246679" lon="12.1362049"><ele>631.0</ele><time>2026-05-02T09:07:14Z</time></trkpt><trkpt lat="42.9247448" lon="12.136117"><ele>631.0</ele><time>2026-05-02T09:07:15Z</time></trkpt><trkpt lat="42.9248187" lon="12.1360387"><ele>631.0</ele><time>2026-05-02T09:07:16Z</time></trkpt><trkpt lat="42.9248754" lon="12.1359727"><ele>631.0</ele><time>2026-05-02T09:07:17Z</time></trkpt><trkpt lat="42.9249312" lon="12.135898"><ele>631.0</ele><time>2026-05-02T09:07:18Z</time></trkpt><trkpt lat="42.9249988" lon="12.135833"><ele>631.0</ele><time>2026-05-02T09:07:19Z</time></trkpt><trkpt lat="42.9250591" lon="12.1357628"><ele>631.0</ele><time>2026-05-02T09:07:20Z</time></trkpt><trkpt lat="42.9251242" lon="12.1356939"><ele>629.3333333333334</ele><time>2026-05-02T09:07:20.999Z</time></trkpt><trkpt lat="42.9251767" lon="12.1356275"><ele>627.6666666666667</ele><time>2026-05-02T09:07:22Z</time></trkpt><trkpt lat="42.9252248" lon="12.1355681"><ele>626.0</ele><time>2026-05-02T09:07:23Z</time></trkpt><trkpt lat="42.9252815" lon="12.135517"><ele>624.3333333333334</ele><time>2026-05-02T09:07:24Z</time></trkpt><trkpt lat="42.9253412" lon="12.1354725"><ele>622.6666666666666</ele><time>2026-05-02T09:07:24.999Z</time></trkpt><trkpt lat="42.925393" lon="12.1354209"><ele>621.0</ele><time>2026-05-02T09:07:26Z</time></trkpt><trkpt lat="42.925492" lon="12.1353153"><ele>621.0</ele><time>2026-05-02T09:07:28Z</time></trkpt><trkpt lat="42.9255986" lon="12.1352279"><ele>621.0</ele><time>2026-05-02T09:07:29.999Z</time></trkpt><trkpt lat="42.9256529" lon="12.1351793"><ele>621.0</ele><time>2026-05-02T09:07:30.999Z</time></trkpt><trkpt lat="42.9257289" lon="12.1351259"><ele>621.0</ele><time>2026-05-02T09:07:32Z</time></trkpt><trkpt lat="42.925802" lon="12.1350754"><ele>621.0</ele><time>2026-05-02T09:07:33Z</time></trkpt><trkpt lat="42.9258744" lon="12.135034"><ele>621.0</ele><time>2026-05-02T09:07:34Z</time></trkpt><trkpt lat="42.9259339" lon="12.1349964"><ele>622.3333333333334</ele><time>2026-05-02T09:07:35Z</time></trkpt><trkpt lat="42.9260036" lon="12.1349518"><ele>623.6666666666666</ele><time>2026-05-02T09:07:36Z</time></trkpt><trkpt lat="42.92609" lon="12.1348909"><ele>625.0</ele><time>2026-05-02T09:07:37Z</time></trkpt><trkpt lat="42.9261638" lon="12.134833"><ele>626.3333333333333</ele><time>2026-05-02T09:07:38Z</time></trkpt><trkpt lat="42.9262402" lon="12.1347777"><ele>627.6666666666666</ele><time>2026-05-02T09:07:39Z</time></trkpt><trkpt lat="42.9263039" lon="12.1347317"><ele>629.0</ele><time>2026-05-02T09:07:40Z</time></trkpt><trkpt lat="42.9263732" lon="12.1346671"><ele>628.1666666666666</ele><time>2026-05-02T09:07:41Z</time></trkpt><trkpt lat="42.9264321" lon="12.1345988"><ele>627.3333333333333</ele><time>2026-05-02T09:07:42Z</time></trkpt><trkpt lat="42.9265028" lon="12.1345429"><ele>626.5</ele><time>2026-05-02T09:07:43Z</time></trkpt><trkpt lat="42.926576" lon="12.134503"><ele>625.6666666666666</ele><time>2026-05-02T09:07:44Z</time></trkpt><trkpt lat="42.9266652" lon="12.1344756"><ele>624.8333333333334</ele><time>2026-05-02T09:07:45Z</time></trkpt><trkpt lat="42.9267593" lon="12.1344688"><ele>624.0</ele><time>2026-05-02T09:07:46Z</time></trkpt><trkpt lat="42.9268536" lon="12.1344571"><ele>624.0</ele><time>2026-05-02T09:07:46.999Z</time></trkpt><trkpt lat="42.9269564" lon="12.1344492"><ele>624.0</ele><time>2026-05-02T09:07:48Z</time></trkpt><trkpt lat="42.9270492" lon="12.1344377"><ele>624.0</ele><time>2026-05-02T09:07:48.999Z</time></trkpt><trkpt lat="42.9271343" lon="12.1344282"><ele>624.0</ele><time>2026-05-02T09:07:49.999Z</time></trkpt><trkpt lat="42.927222" lon="12.1344158"><ele>624.0</ele><time>2026-05-02T09:07:51Z</time></trkpt><trkpt lat="42.9272928" lon="12.1344105"><ele>624.0</ele><time>2026-05-02T09:07:52Z</time></trkpt><trkpt lat="42.927368" lon="12.1343709"><ele>624.0</ele><time>2026-05-02T09:07:53Z</time></trkpt><trkpt lat="42.9274503" lon="12.1342943"><ele>624.0</ele><time>2026-05-02T09:07:54Z</time></trkpt><trkpt lat="42.9275544" lon="12.1342008"><ele>624.0</ele><time>2026-05-02T09:07:55Z</time></trkpt><trkpt lat="42.9276489" lon="12.1340962"><ele>624.0</ele><time>2026-05-02T09:07:56Z</time></trkpt><trkpt lat="42.927727" lon="12.1339902"><ele>625.8</ele><time>2026-05-02T09:07:57Z</time></trkpt><trkpt lat="42.9277772" lon="12.1339004"><ele>627.5999999999999</ele><time>2026-05-02T09:07:58Z</time></trkpt><trkpt lat="42.9278526" lon="12.1337708"><ele>629.4</ele><time>2026-05-02T09:08:00Z</time></trkpt><trkpt lat="42.9279576" lon="12.1337042"><ele>631.1999999999999</ele><time>2026-05-02T09:08:02Z</time></trkpt><trkpt lat="42.9280258" lon="12.1337015"><ele>633.0</ele><time>2026-05-02T09:08:02.999Z</time></trkpt><trkpt lat="42.9280944" lon="12.1336885"><ele>633.0</ele><time>2026-05-02T09:08:04Z</time></trkpt><trkpt lat="42.9281964" lon="12.1336851"><ele>633.0</ele><time>2026-05-02T09:08:05Z</time></trkpt><trkpt lat="42.9282732" lon="12.1336863"><ele>633.0</ele><time>2026-05-02T09:08:05.999Z</time></trkpt><trkpt lat="42.9283425" lon="12.1336684"><ele>633.0</ele><time>2026-05-02T09:08:07Z</time></trkpt><trkpt lat="42.9284132" lon="12.1336745"><ele>633.0</ele><time>2026-05-02T09:08:08Z</time></trkpt><trkpt lat="42.9285271" lon="12.1336536"><ele>633.0</ele><time>2026-05-02T09:08:10Z</time></trkpt><trkpt lat="42.9286253" lon="12.1336532"><ele>633.5</ele><time>2026-05-02T09:08:12Z</time></trkpt><trkpt lat="42.9287218" lon="12.1336274"><ele>634.0</ele><time>2026-05-02T09:08:14Z</time></trkpt><trkpt lat="42.928805" lon="12.1335768"><ele>634.5</ele><time>2026-05-02T09:08:16Z</time></trkpt><trkpt lat="42.9288702" lon="12.1335421"><ele>635.0</ele><time>2026-05-02T09:08:18Z</time></trkpt><trkpt lat="42.9289295" lon="12.1334835"><ele>635.5</ele><time>2026-05-02T09:08:21Z</time></trkpt><trkpt lat="42.9288637" lon="12.1334578"><ele>636.0</ele><time>2026-05-02T09:08:32Z</time></trkpt><trkpt lat="42.92881" lon="12.1335458"><ele>636.0</ele><time>2026-05-02T09:08:33Z</time></trkpt><trkpt lat="42.9286955" lon="12.1336026"><ele>636.0</ele><time>2026-05-02T09:08:35Z</time></trkpt><trkpt lat="42.9286313" lon="12.1336291"><ele>636.0</ele><time>2026-05-02T09:08:36Z</time></trkpt><trkpt lat="42.9285621" lon="12.1336395"><ele>636.0</ele><time>2026-05-02T09:08:37Z</time></trkpt><trkpt lat="42.9284938" lon="12.1336512"><ele>636.0</ele><time>2026-05-02T09:08:38Z</time></trkpt><trkpt lat="42.9283846" lon="12.1336611"><ele>636.0</ele><time>2026-05-02T09:08:40Z</time></trkpt><trkpt lat="42.9283061" lon="12.1336759"><ele>636.0</ele><time>2026-05-02T09:08:42Z</time></trkpt><trkpt lat="42.9283002" lon="12.1337662"><ele>636.0</ele><time>2026-05-02T09:08:45.999Z</time></trkpt><trkpt lat="42.9283671" lon="12.1338051"><ele>636.0</ele><time>2026-05-02T09:08:47.999Z</time></trkpt><trkpt lat="42.9284497" lon="12.1338303"><ele>636.0</ele><time>2026-05-02T09:08:50Z</time></trkpt><trkpt lat="42.9285176" lon="12.1338619"><ele>636.0</ele><time>2026-05-02T09:08:52Z</time></trkpt><trkpt lat="42.9285636" lon="12.1339398"><ele>636.0</ele><time>2026-05-02T09:09:11Z</time></trkpt><trkpt lat="42.9285043" lon="12.1338978"><ele>636.0</ele><time>2026-05-02T09:09:25.999Z</time></trkpt><trkpt lat="42.9284194" lon="12.1338397"><ele>635.5</ele><time>2026-05-02T09:09:40Z</time></trkpt><trkpt lat="42.9283411" lon="12.1338108"><ele>635.0</ele><time>2026-05-02T09:09:42Z</time></trkpt><trkpt lat="42.9282813" lon="12.1337436"><ele>634.5</ele><time>2026-05-02T09:09:45Z</time></trkpt><trkpt lat="42.9282972" lon="12.1336295"><ele>634.0</ele><time>2026-05-02T09:10:05.999Z</time></trkpt><trkpt lat="42.9282841" lon="12.1335155"><ele>633.5</ele><time>2026-05-02T09:10:07.999Z</time></trkpt><trkpt lat="42.9282763" lon="12.1333768"><ele>633.0</ele><time>2026-05-02T09:10:10Z</time></trkpt><trkpt lat="42.928291" lon="12.1332505"><ele>633.0</ele><time>2026-05-02T09:10:12Z</time></trkpt><trkpt lat="42.9283547" lon="12.1331826"><ele>633.0</ele><time>2026-05-02T09:10:14Z</time></trkpt><trkpt lat="42.9284567" lon="12.1331107"><ele>633.0</ele><time>2026-05-02T09:10:16Z</time></trkpt><trkpt lat="42.9285765" lon="12.1330961"><ele>633.0</ele><time>2026-05-02T09:10:18Z</time></trkpt><trkpt lat="42.9286909" lon="12.1331059"><ele>633.0</ele><time>2026-05-02T09:10:20Z</time></trkpt><trkpt lat="42.9287773" lon="12.1331193"><ele>633.0</ele><time>2026-05-02T09:10:22Z</time></trkpt><trkpt lat="42.9288755" lon="12.1331263"><ele>633.0</ele><time>2026-05-02T09:10:24Z</time></trkpt><trkpt lat="42.9289694" lon="12.1331074"><ele>633.0</ele><time>2026-05-02T09:10:25.999Z</time></trkpt><trkpt lat="42.9290658" lon="12.1330491"><ele>633.0</ele><time>2026-05-02T09:10:28Z</time></trkpt><trkpt lat="42.9291619" lon="12.1329642"><ele>633.0</ele><time>2026-05-02T09:10:30Z</time></trkpt><trkpt lat="42.9292691" lon="12.1328749"><ele>634.6666666666666</ele><time>2026-05-02T09:10:32Z</time></trkpt><trkpt lat="42.9293281" lon="12.1328322"><ele>636.3333333333334</ele><time>2026-05-02T09:10:33Z</time></trkpt><trkpt lat="42.929393" lon="12.1327966"><ele>638.0</ele><time>2026-05-02T09:10:33.999Z</time></trkpt><trkpt lat="42.9294701" lon="12.1327588"><ele>639.6666666666667</ele><time>2026-05-02T09:10:35Z</time></trkpt><trkpt lat="42.9295522" lon="12.1327038"><ele>641.3333333333334</ele><time>2026-05-02T09:10:36Z</time></trkpt><trkpt lat="42.929632" lon="12.1326349"><ele>643.0</ele><time>2026-05-02T09:10:37Z</time></trkpt><trkpt lat="42.9297048" lon="12.13258"><ele>643.0</ele><time>2026-05-02T09:10:37.999Z</time></trkpt><trkpt lat="42.9297732" lon="12.1325208"><ele>643.0</ele><time>2026-05-02T09:10:39Z</time></trkpt><trkpt lat="42.9298397" lon="12.1324887"><ele>643.0</ele><time>2026-05-02T09:10:40Z</time></trkpt><trkpt lat="42.9299552" lon="12.1324762"><ele>643.0</ele><time>2026-05-02T09:10:42Z</time></trkpt><trkpt lat="42.9300253" lon="12.1324757"><ele>643.0</ele><time>2026-05-02T09:10:43Z</time></trkpt><trkpt lat="42.9301022" lon="12.1324457"><ele>643.0</ele><time>2026-05-02T09:10:44Z</time></trkpt><trkpt lat="42.930183" lon="12.1324235"><ele>643.3333333333334</ele><time>2026-05-02T09:10:45Z</time></trkpt><trkpt lat="42.9302509" lon="12.132385"><ele>643.6666666666667</ele><time>2026-05-02T09:10:46Z</time></trkpt><trkpt lat="42.9303345" lon="12.1323407"><ele>644.0</ele><time>2026-05-02T09:10:47Z</time></trkpt><trkpt lat="42.9304116" lon="12.1322926"><ele>644.3333333333334</ele><time>2026-05-02T09:10:48Z</time></trkpt><trkpt lat="42.9304899" lon="12.1322514"><ele>644.6666666666666</ele><time>2026-05-02T09:10:49Z</time></trkpt><trkpt lat="42.930569" lon="12.1322222"><ele>645.0</ele><time>2026-05-02T09:10:50Z</time></trkpt><trkpt lat="42.9306346" lon="12.1321911"><ele>645.0</ele><time>2026-05-02T09:10:50.999Z</time></trkpt><trkpt lat="42.9306905" lon="12.132144"><ele>645.0</ele><time>2026-05-02T09:10:52Z</time></trkpt><trkpt lat="42.9307714" lon="12.1320269"><ele>645.0</ele><time>2026-05-02T09:10:54Z</time></trkpt><trkpt lat="42.9308323" lon="12.1319659"><ele>645.0</ele><time>2026-05-02T09:10:54.999Z</time></trkpt><trkpt lat="42.9308818" lon="12.1318924"><ele>645.0</ele><time>2026-05-02T09:10:56Z</time></trkpt><trkpt lat="42.9309632" lon="12.1317694"><ele>644.8333333333334</ele><time>2026-05-02T09:10:57.999Z</time></trkpt><trkpt lat="42.9310158" lon="12.1317112"><ele>644.6666666666666</ele><time>2026-05-02T09:10:59Z</time></trkpt><trkpt lat="42.9310735" lon="12.1316566"><ele>644.5</ele><time>2026-05-02T09:11:00Z</time></trkpt><trkpt lat="42.9311579" lon="12.131605"><ele>644.3333333333333</ele><time>2026-05-02T09:11:01.999Z</time></trkpt><trkpt lat="42.9312555" lon="12.1315725"><ele>644.1666666666666</ele><time>2026-05-02T09:11:04Z</time></trkpt><trkpt lat="42.9313551" lon="12.1315349"><ele>644.0</ele><time>2026-05-02T09:11:06Z</time></trkpt><trkpt lat="42.9314421" lon="12.1315003"><ele>644.0</ele><time>2026-05-02T09:11:08Z</time></trkpt><trkpt lat="42.9315319" lon="12.1314231"><ele>644.0</ele><time>2026-05-02T09:11:10Z</time></trkpt><trkpt lat="42.9315903" lon="12.1313691"><ele>644.0</ele><time>2026-05-02T09:11:11Z</time></trkpt><trkpt lat="42.9316677" lon="12.131305"><ele>644.0</ele><time>2026-05-02T09:11:12Z</time></trkpt><trkpt lat="42.9318111" lon="12.1312073"><ele>644.0</ele><time>2026-05-02T09:11:14Z</time></trkpt><trkpt lat="42.9318889" lon="12.1311239"><ele>646.4000000000001</ele><time>2026-05-02T09:11:14.999Z</time></trkpt><trkpt lat="42.931954" lon="12.1310553"><ele>648.8</ele><time>2026-05-02T09:11:15.999Z</time></trkpt><trkpt lat="42.9320235" lon="12.1309755"><ele>651.2</ele><time>2026-05-02T09:11:16.999Z</time></trkpt><trkpt lat="42.9320993" lon="12.1308944"><ele>653.5999999999999</ele><time>2026-05-02T09:11:19Z</time></trkpt><trkpt lat="42.9322002" lon="12.1307875"><ele>656.0</ele><time>2026-05-02T09:11:20.999Z</time></trkpt><trkpt lat="42.9322868" lon="12.1306802"><ele>656.5</ele><time>2026-05-02T09:11:23Z</time></trkpt><trkpt lat="42.9323281" lon="12.1306152"><ele>657.0</ele><time>2026-05-02T09:11:24Z</time></trkpt><trkpt lat="42.9323711" lon="12.130467"><ele>657.5</ele><time>2026-05-02T09:11:26Z</time></trkpt><trkpt lat="42.9323887" lon="12.1303754"><ele>658.0</ele><time>2026-05-02T09:11:27Z</time></trkpt><trkpt lat="42.9324114" lon="12.1302854"><ele>658.5</ele><time>2026-05-02T09:11:28Z</time></trkpt><trkpt lat="42.9324821" lon="12.1301393"><ele>659.0</ele><time>2026-05-02T09:11:30Z</time></trkpt><trkpt lat="42.9325376" lon="12.1300275"><ele>662.4000000000001</ele><time>2026-05-02T09:11:31.999Z</time></trkpt><trkpt lat="42.9326164" lon="12.129955"><ele>665.8</ele><time>2026-05-02T09:11:34Z</time></trkpt><trkpt lat="42.9327332" lon="12.1299135"><ele>669.2</ele><time>2026-05-02T09:11:36Z</time></trkpt><trkpt lat="42.9328414" lon="12.1298919"><ele>672.5999999999999</ele><time>2026-05-02T09:11:38Z</time></trkpt><trkpt lat="42.9329469" lon="12.1298677"><ele>676.0</ele><time>2026-05-02T09:11:40Z</time></trkpt><trkpt lat="42.9330264" lon="12.1299074"><ele>676.0</ele><time>2026-05-02T09:11:55Z</time></trkpt><trkpt lat="42.9330972" lon="12.1299531"><ele>676.0</ele><time>2026-05-02T09:11:58Z</time></trkpt><trkpt lat="42.9331851" lon="12.1299895"><ele>676.0</ele><time>2026-05-02T09:18:22Z</time></trkpt><trkpt lat="42.9332585" lon="12.1299451"><ele>676.0</ele><time>2026-05-02T09:18:24Z</time></trkpt><trkpt lat="42.9332901" lon="12.1298578"><ele>676.0</ele><time>2026-05-02T09:18:26Z</time></trkpt><trkpt lat="42.9333214" lon="12.1297625"><ele>676.0</ele><time>2026-05-02T09:18:27.999Z</time></trkpt><trkpt lat="42.9333494" lon="12.1296267"><ele>677.0</ele><time>2026-05-02T09:18:29.999Z</time></trkpt><trkpt lat="42.9333578" lon="12.1294874"><ele>678.0</ele><time>2026-05-02T09:18:31.999Z</time></trkpt><trkpt lat="42.9333545" lon="12.1293599"><ele>679.0</ele><time>2026-05-02T09:18:34Z</time></trkpt><trkpt lat="42.9333768" lon="12.1292377"><ele>680.0</ele><time>2026-05-02T09:18:36Z</time></trkpt><trkpt lat="42.9333897" lon="12.1290999"><ele>681.0</ele><time>2026-05-02T09:18:37.999Z</time></trkpt><trkpt lat="42.9334152" lon="12.1289968"><ele>684.0000000000001</ele><time>2026-05-02T09:18:40Z</time></trkpt><trkpt lat="42.9334343" lon="12.1289146"><ele>687.0</ele><time>2026-05-02T09:18:42.999Z</time></trkpt><trkpt lat="42.9334908" lon="12.128835"><ele>690.0</ele><time>2026-05-02T09:19:07Z</time></trkpt><trkpt lat="42.9335179" lon="12.1287384"><ele>693.0</ele><time>2026-05-02T09:19:10Z</time></trkpt><trkpt lat="42.9335625" lon="12.1286731"><ele>696.0</ele><time>2026-05-02T09:19:25Z</time></trkpt><trkpt lat="42.9336141" lon="12.1285986"><ele>699.0000000000001</ele><time>2026-05-02T09:19:40.999Z</time></trkpt><trkpt lat="42.9336449" lon="12.128518"><ele>702.0</ele><time>2026-05-02T09:19:44Z</time></trkpt><trkpt lat="42.9336826" lon="12.1284324"><ele>702.0</ele><time>2026-05-02T09:19:53Z</time></trkpt><trkpt lat="42.9337442" lon="12.1283727"><ele>702.0</ele><time>2026-05-02T09:19:57Z</time></trkpt><trkpt lat="42.9338157" lon="12.1283032"><ele>702.0</ele><time>2026-05-02T09:20:00Z</time></trkpt><trkpt lat="42.9338836" lon="12.1282175"><ele>702.0</ele><time>2026-05-02T09:20:22Z</time></trkpt><trkpt lat="42.9339563" lon="12.1281718"><ele>702.0</ele><time>2026-05-02T09:20:24Z</time></trkpt><trkpt lat="42.9340102" lon="12.1281195"><ele>702.0</ele><time>2026-05-02T09:20:25.999Z</time></trkpt><trkpt lat="42.9340625" lon="12.1280325"><ele>702.4000000000001</ele><time>2026-05-02T09:20:28Z</time></trkpt><trkpt lat="42.9341352" lon="12.1279312"><ele>702.8000000000001</ele><time>2026-05-02T09:20:30Z</time></trkpt><trkpt lat="42.9341833" lon="12.1278594"><ele>703.2</ele><time>2026-05-02T09:20:31Z</time></trkpt><trkpt lat="42.934212" lon="12.1277671"><ele>703.6</ele><time>2026-05-02T09:20:32Z</time></trkpt><trkpt lat="42.9342682" lon="12.1276436"><ele>704.0</ele><time>2026-05-02T09:20:33.997Z</time></trkpt><trkpt lat="42.9343406" lon="12.1275484"><ele>705.1666666666666</ele><time>2026-05-02T09:20:36Z</time></trkpt><trkpt lat="42.9344296" lon="12.1275226"><ele>706.3333333333333</ele><time>2026-05-02T09:20:38Z</time></trkpt><trkpt lat="42.934497" lon="12.127492"><ele>707.5</ele><time>2026-05-02T09:20:40Z</time></trkpt><trkpt lat="42.9345816" lon="12.1274465"><ele>708.6666666666666</ele><time>2026-05-02T09:20:41.999Z</time></trkpt><trkpt lat="42.9346462" lon="12.1273934"><ele>709.8333333333334</ele><time>2026-05-02T09:20:44Z</time></trkpt><trkpt lat="42.9346946" lon="12.1273298"><ele>711.0</ele><time>2026-05-02T09:20:45.999Z</time></trkpt><trkpt lat="42.9346916" lon="12.1272254"><ele>713.1999999999999</ele><time>2026-05-02T09:20:48Z</time></trkpt><trkpt lat="42.9346766" lon="12.127102"><ele>715.4</ele><time>2026-05-02T09:20:50Z</time></trkpt><trkpt lat="42.9346724" lon="12.1269459"><ele>717.6</ele><time>2026-05-02T09:20:52Z</time></trkpt><trkpt lat="42.9346237" lon="12.1268185"><ele>719.8</ele><time>2026-05-02T09:20:53.999Z</time></trkpt><trkpt lat="42.9345709" lon="12.126716"><ele>722.0</ele><time>2026-05-02T09:20:56.999Z</time></trkpt><trkpt lat="42.934577" lon="12.1266076"><ele>724.0</ele><time>2026-05-02T09:21:03.999Z</time></trkpt><trkpt lat="42.9345829" lon="12.1265195"><ele>726.0</ele><time>2026-05-02T09:21:06Z</time></trkpt><trkpt lat="42.9346005" lon="12.1264281"><ele>728.0</ele><time>2026-05-02T09:21:08Z</time></trkpt><trkpt lat="42.934615" lon="12.1263319"><ele>730.0</ele><time>2026-05-02T09:21:10Z</time></trkpt><trkpt lat="42.9346133" lon="12.1262357"><ele>732.0</ele><time>2026-05-02T09:21:12Z</time></trkpt><trkpt lat="42.9345996" lon="12.1261362"><ele>734.0</ele><time>2026-05-02T09:21:14Z</time></trkpt><trkpt lat="42.9346137" lon="12.1260213"><ele>736.0</ele><time>2026-05-02T09:21:18Z</time></trkpt><trkpt lat="42.9346343" lon="12.1259177"><ele>736.0</ele><time>2026-05-02T09:21:21Z</time></trkpt><trkpt lat="42.9346852" lon="12.1258234"><ele>736.0</ele><time>2026-05-02T09:21:24Z</time></trkpt><trkpt lat="42.934733" lon="12.1257621"><ele>736.0</ele><time>2026-05-02T09:21:26Z</time></trkpt><trkpt lat="42.9347916" lon="12.1256806"><ele>736.0</ele><time>2026-05-02T09:21:29Z</time></trkpt><trkpt lat="42.9348376" lon="12.1256203"><ele>736.0</ele><time>2026-05-02T09:21:31Z</time></trkpt><trkpt lat="42.9348851" lon="12.125555"><ele>736.0</ele><time>2026-05-02T09:21:33.999Z</time></trkpt><trkpt lat="42.9349462" lon="12.1254594"><ele>737.0</ele><time>2026-05-02T09:21:42Z</time></trkpt><trkpt lat="42.9349767" lon="12.1253675"><ele>738.0</ele><time>2026-05-02T09:21:44Z</time></trkpt><trkpt lat="42.9350038" lon="12.1252753"><ele>739.0</ele><time>2026-05-02T09:21:46Z</time></trkpt><trkpt lat="42.9350625" lon="12.1252207"><ele>740.0</ele><time>2026-05-02T09:21:47.999Z</time></trkpt><trkpt lat="42.9351435" lon="12.1251945"><ele>741.0</ele><time>2026-05-02T09:21:50Z</time></trkpt><trkpt lat="42.935239" lon="12.1251613"><ele>742.0</ele><time>2026-05-02T09:21:52Z</time></trkpt><trkpt lat="42.9353454" lon="12.1250916"><ele>742.0</ele><time>2026-05-02T09:21:54Z</time></trkpt><trkpt lat="42.9354343" lon="12.1250248"><ele>742.0</ele><time>2026-05-02T09:21:56Z</time></trkpt><trkpt lat="42.9355266" lon="12.1249174"><ele>742.0</ele><time>2026-05-02T09:21:58Z</time></trkpt><trkpt lat="42.9355752" lon="12.124858"><ele>742.0</ele><time>2026-05-02T09:21:59Z</time></trkpt><trkpt lat="42.935668" lon="12.1247715"><ele>742.0</ele><time>2026-05-02T09:22:01Z</time></trkpt><trkpt lat="42.9357686" lon="12.124701"><ele>742.0</ele><time>2026-05-02T09:22:02.999Z</time></trkpt><trkpt lat="42.9358631" lon="12.1246771"><ele>742.0</ele><time>2026-05-02T09:22:05Z</time></trkpt><trkpt lat="42.9359686" lon="12.1246131"><ele>742.0</ele><time>2026-05-02T09:22:07Z</time></trkpt><trkpt lat="42.9360355" lon="12.1245642"><ele>742.0</ele><time>2026-05-02T09:22:08Z</time></trkpt><trkpt lat="42.9361432" lon="12.1245002"><ele>742.0</ele><time>2026-05-02T09:22:09.999Z</time></trkpt><trkpt lat="42.9362642" lon="12.124462"><ele>743.4000000000001</ele><time>2026-05-02T09:22:12Z</time></trkpt><trkpt lat="42.9363627" lon="12.1244291"><ele>744.8000000000001</ele><time>2026-05-02T09:22:13.999Z</time></trkpt><trkpt lat="42.9364781" lon="12.1243482"><ele>746.2</ele><time>2026-05-02T09:22:16Z</time></trkpt><trkpt lat="42.9365445" lon="12.1243169"><ele>747.6</ele><time>2026-05-02T09:22:17Z</time></trkpt><trkpt lat="42.936608" lon="12.1242732"><ele>749.0</ele><time>2026-05-02T09:22:18Z</time></trkpt><trkpt lat="42.9366945" lon="12.1241966"><ele>748.8333333333333</ele><time>2026-05-02T09:22:20Z</time></trkpt><trkpt lat="42.9367711" lon="12.1241338"><ele>748.6666666666666</ele><time>2026-05-02T09:22:22Z</time></trkpt><trkpt lat="42.936834" lon="12.1240415"><ele>748.5</ele><time>2026-05-02T09:22:23.999Z</time></trkpt><trkpt lat="42.9369059" lon="12.1239606"><ele>748.3333333333334</ele><time>2026-05-02T09:22:26Z</time></trkpt><trkpt lat="42.9369503" lon="12.123893"><ele>748.1666666666667</ele><time>2026-05-02T09:22:28Z</time></trkpt><trkpt lat="42.9370138" lon="12.1238407"><ele>748.0</ele><time>2026-05-02T09:22:29.999Z</time></trkpt><trkpt lat="42.9370907" lon="12.1237623"><ele>748.4</ele><time>2026-05-02T09:22:32Z</time></trkpt><trkpt lat="42.9371693" lon="12.123642"><ele>748.8</ele><time>2026-05-02T09:22:34Z</time></trkpt><trkpt lat="42.9372317" lon="12.1235066"><ele>749.2</ele><time>2026-05-02T09:22:36Z</time></trkpt><trkpt lat="42.9373331" lon="12.1233997"><ele>749.6</ele><time>2026-05-02T09:22:38Z</time></trkpt><trkpt lat="42.9373926" lon="12.1233639"><ele>750.0</ele><time>2026-05-02T09:22:39Z</time></trkpt><trkpt lat="42.9374568" lon="12.1233414"><ele>749.3333333333334</ele><time>2026-05-02T09:22:40Z</time></trkpt><trkpt lat="42.9375763" lon="12.1233043"><ele>748.6666666666666</ele><time>2026-05-02T09:22:42Z</time></trkpt><trkpt lat="42.9376419" lon="12.1232662"><ele>748.0</ele><time>2026-05-02T09:22:43Z</time></trkpt><trkpt lat="42.9377015" lon="12.1232203"><ele>747.3333333333333</ele><time>2026-05-02T09:22:44Z</time></trkpt><trkpt lat="42.937762" lon="12.1231926"><ele>746.6666666666666</ele><time>2026-05-02T09:22:44.999Z</time></trkpt><trkpt lat="42.9378295" lon="12.1231728"><ele>746.0</ele><time>2026-05-02T09:22:45.999Z</time></trkpt><trkpt lat="42.9378974" lon="12.123164"><ele>746.0</ele><time>2026-05-02T09:22:47Z</time></trkpt><trkpt lat="42.9379719" lon="12.1231482"><ele>746.0</ele><time>2026-05-02T09:22:48Z</time></trkpt><trkpt lat="42.9380437" lon="12.1231416"><ele>746.0</ele><time>2026-05-02T09:22:49Z</time></trkpt><trkpt lat="42.9381123" lon="12.1231397"><ele>746.0</ele><time>2026-05-02T09:22:49.999Z</time></trkpt><trkpt lat="42.9381866" lon="12.1231621"><ele>746.0</ele><time>2026-05-02T09:22:51Z</time></trkpt><trkpt lat="42.9382547" lon="12.1231775"><ele>746.0</ele><time>2026-05-02T09:22:52Z</time></trkpt><trkpt lat="42.9383289" lon="12.1230832"><ele>746.0</ele><time>2026-05-02T09:22:54Z</time></trkpt><trkpt lat="42.9383801" lon="12.1230135"><ele>746.0</ele><time>2026-05-02T09:22:56Z</time></trkpt><trkpt lat="42.938466" lon="12.1230064"><ele>746.0</ele><time>2026-05-02T09:22:58Z</time></trkpt><trkpt lat="42.9385466" lon="12.1230551"><ele>746.0</ele><time>2026-05-02T09:23:00Z</time></trkpt><trkpt lat="42.9386743" lon="12.123007"><ele>746.0</ele><time>2026-05-02T09:23:05Z</time></trkpt><trkpt lat="42.9387716" lon="12.1229231"><ele>747.8</ele><time>2026-05-02T09:23:07Z</time></trkpt><trkpt lat="42.9388523" lon="12.1228446"><ele>749.5999999999999</ele><time>2026-05-02T09:23:09Z</time></trkpt><trkpt lat="42.9389199" lon="12.1227634"><ele>751.4</ele><time>2026-05-02T09:23:11Z</time></trkpt><trkpt lat="42.939031" lon="12.1226692"><ele>753.2</ele><time>2026-05-02T09:23:12.999Z</time></trkpt><trkpt lat="42.9391052" lon="12.1226421"><ele>755.0</ele><time>2026-05-02T09:23:14Z</time></trkpt><trkpt lat="42.9391756" lon="12.1226201"><ele>755.8333333333333</ele><time>2026-05-02T09:23:15Z</time></trkpt><trkpt lat="42.9392432" lon="12.1226001"><ele>756.6666666666666</ele><time>2026-05-02T09:23:16Z</time></trkpt><trkpt lat="42.9393111" lon="12.1225675"><ele>757.5</ele><time>2026-05-02T09:23:17Z</time></trkpt><trkpt lat="42.9393822" lon="12.1225571"><ele>758.3333333333334</ele><time>2026-05-02T09:23:18Z</time></trkpt><trkpt lat="42.939456" lon="12.1225173"><ele>759.1666666666667</ele><time>2026-05-02T09:23:19Z</time></trkpt><trkpt lat="42.9395394" lon="12.1224832"><ele>760.0</ele><time>2026-05-02T09:23:20Z</time></trkpt><trkpt lat="42.9396143" lon="12.1224622"><ele>760.0</ele><time>2026-05-02T09:23:21Z</time></trkpt><trkpt lat="42.9396789" lon="12.12246"><ele>760.0</ele><time>2026-05-02T09:23:22Z</time></trkpt><trkpt lat="42.9397599" lon="12.1224551"><ele>760.0</ele><time>2026-05-02T09:23:23Z</time></trkpt><trkpt lat="42.9398444" lon="12.1224345"><ele>760.0</ele><time>2026-05-02T09:23:24Z</time></trkpt><trkpt lat="42.9399647" lon="12.1223929"><ele>760.0</ele><time>2026-05-02T09:23:26Z</time></trkpt><trkpt lat="42.940043" lon="12.122379"><ele>760.0</ele><time>2026-05-02T09:23:27Z</time></trkpt><trkpt lat="42.9401221" lon="12.1223669"><ele>760.6666666666667</ele><time>2026-05-02T09:23:28Z</time></trkpt><trkpt lat="42.9402038" lon="12.1223477"><ele>761.3333333333334</ele><time>2026-05-02T09:23:29Z</time></trkpt><trkpt lat="42.9402788" lon="12.122343"><ele>762.0</ele><time>2026-05-02T09:23:30Z</time></trkpt><trkpt lat="42.9403624" lon="12.1223298"><ele>762.6666666666666</ele><time>2026-05-02T09:23:30.999Z</time></trkpt><trkpt lat="42.9404513" lon="12.1223115"><ele>763.3333333333333</ele><time>2026-05-02T09:23:32Z</time></trkpt><trkpt lat="42.9405258" lon="12.1222947"><ele>764.0</ele><time>2026-05-02T09:23:33Z</time></trkpt><trkpt lat="42.9406581" lon="12.1222798"><ele>764.0</ele><time>2026-05-02T09:23:34.999Z</time></trkpt><trkpt lat="42.9407849" lon="12.1222737"><ele>764.0</ele><time>2026-05-02T09:23:37Z</time></trkpt><trkpt lat="42.9409086" lon="12.122246"><ele>764.0</ele><time>2026-05-02T09:23:38.999Z</time></trkpt><trkpt lat="42.9409731" lon="12.1222446"><ele>764.0</ele><time>2026-05-02T09:23:40Z</time></trkpt><trkpt lat="42.94108" lon="12.122232"><ele>764.0</ele><time>2026-05-02T09:23:42Z</time></trkpt><trkpt lat="42.9411497" lon="12.1221505"><ele>765.1666666666666</ele><time>2026-05-02T09:23:44Z</time></trkpt><trkpt lat="42.9412121" lon="12.1220324"><ele>766.3333333333333</ele><time>2026-05-02T09:23:46Z</time></trkpt><trkpt lat="42.9412243" lon="12.1219436"><ele>767.5</ele><time>2026-05-02T09:23:47Z</time></trkpt><trkpt lat="42.9412532" lon="12.1218581"><ele>768.6666666666666</ele><time>2026-05-02T09:23:48Z</time></trkpt><trkpt lat="42.9412703" lon="12.1217592"><ele>769.8333333333334</ele><time>2026-05-02T09:23:49Z</time></trkpt><trkpt lat="42.9412834" lon="12.1216712"><ele>771.0</ele><time>2026-05-02T09:23:50Z</time></trkpt><trkpt lat="42.9412887" lon="12.1215091"><ele>773.0</ele><time>2026-05-02T09:23:52Z</time></trkpt><trkpt lat="42.941316" lon="12.1213756"><ele>775.0</ele><time>2026-05-02T09:23:54Z</time></trkpt><trkpt lat="42.9413614" lon="12.1212197"><ele>777.0</ele><time>2026-05-02T09:23:56Z</time></trkpt><trkpt lat="42.9413611" lon="12.1211258"><ele>779.0</ele><time>2026-05-02T09:23:56.999Z</time></trkpt><trkpt lat="42.9413563" lon="12.1210162"><ele>781.0</ele><time>2026-05-02T09:23:58Z</time></trkpt><trkpt lat="42.941372" lon="12.1209193"><ele>783.0</ele><time>2026-05-02T09:23:59Z</time></trkpt><trkpt lat="42.9413982" lon="12.1208351"><ele>786.5</ele><time>2026-05-02T09:24:00Z</time></trkpt><trkpt lat="42.9414052" lon="12.1206834"><ele>790.0</ele><time>2026-05-02T09:24:02Z</time></trkpt><trkpt lat="42.9413755" lon="12.1205211"><ele>793.5</ele><time>2026-05-02T09:24:03.999Z</time></trkpt><trkpt lat="42.9413378" lon="12.1203614"><ele>797.0</ele><time>2026-05-02T09:24:05.999Z</time></trkpt><trkpt lat="42.9413421" lon="12.1202247"><ele>797.0</ele><time>2026-05-02T09:24:08Z</time></trkpt><trkpt lat="42.9413888" lon="12.1200759"><ele>797.0</ele><time>2026-05-02T09:24:10Z</time></trkpt><trkpt lat="42.9413988" lon="12.1199767"><ele>797.0</ele><time>2026-05-02T09:24:10.999Z</time></trkpt><trkpt lat="42.9414733" lon="12.1198386"><ele>797.0</ele><time>2026-05-02T09:24:13Z</time></trkpt><trkpt lat="42.9415209" lon="12.1196672"><ele>801.3333333333334</ele><time>2026-05-02T09:24:15Z</time></trkpt><trkpt lat="42.9414722" lon="12.1195269"><ele>805.6666666666667</ele><time>2026-05-02T09:24:17Z</time></trkpt><trkpt lat="42.94143" lon="12.1194425"><ele>810.0</ele><time>2026-05-02T09:24:18Z</time></trkpt><trkpt lat="42.9413848" lon="12.1193726"><ele>814.3333333333333</ele><time>2026-05-02T09:24:18.999Z</time></trkpt><trkpt lat="42.941342" lon="12.1193052"><ele>818.6666666666666</ele><time>2026-05-02T09:24:19.999Z</time></trkpt><trkpt lat="42.9412818" lon="12.1192447"><ele>823.0</ele><time>2026-05-02T09:24:21Z</time></trkpt><trkpt lat="42.9412442" lon="12.1191713"><ele>822.9999999999999</ele><time>2026-05-02T09:24:21.999Z</time></trkpt><trkpt lat="42.9412066" lon="12.1190981"><ele>823.0</ele><time>2026-05-02T09:24:23Z</time></trkpt><trkpt lat="42.9411699" lon="12.1190229"><ele>823.0</ele><time>2026-05-02T09:24:24Z</time></trkpt><trkpt lat="42.9410715" lon="12.1188831"><ele>823.0</ele><time>2026-05-02T09:24:26Z</time></trkpt><trkpt lat="42.9410196" lon="12.1188232"><ele>822.9999999999999</ele><time>2026-05-02T09:24:26.999Z</time></trkpt><trkpt lat="42.940971" lon="12.1187576"><ele>823.0</ele><time>2026-05-02T09:24:28Z</time></trkpt><trkpt lat="42.9409134" lon="12.1187096"><ele>824.0</ele><time>2026-05-02T09:24:28.999Z</time></trkpt><trkpt lat="42.9408751" lon="12.1186171"><ele>825.0</ele><time>2026-05-02T09:24:30Z</time></trkpt><trkpt lat="42.9407934" lon="12.1185858"><ele>826.0</ele><time>2026-05-02T09:24:31Z</time></trkpt><trkpt lat="42.940699" lon="12.1185775"><ele>827.0</ele><time>2026-05-02T09:24:32Z</time></trkpt><trkpt lat="42.9406165" lon="12.1185458"><ele>828.0</ele><time>2026-05-02T09:24:32.999Z</time></trkpt><trkpt lat="42.9405245" lon="12.118463"><ele>828.0</ele><time>2026-05-02T09:24:35Z</time></trkpt><trkpt lat="42.940416" lon="12.1183743"><ele>828.0</ele><time>2026-05-02T09:24:37Z</time></trkpt><trkpt lat="42.9403452" lon="12.1182956"><ele>828.0</ele><time>2026-05-02T09:24:39Z</time></trkpt><trkpt lat="42.9403023" lon="12.1182103"><ele>828.0</ele><time>2026-05-02T09:24:40.999Z</time></trkpt><trkpt lat="42.9402866" lon="12.1180791"><ele>828.0</ele><time>2026-05-02T09:24:43Z</time></trkpt><trkpt lat="42.9403046" lon="12.1179513"><ele>829.0</ele><time>2026-05-02T09:24:45Z</time></trkpt><trkpt lat="42.9403464" lon="12.1178765"><ele>830.0</ele><time>2026-05-02T09:24:53Z</time></trkpt><trkpt lat="42.940439" lon="12.1178182"><ele>831.0</ele><time>2026-05-02T09:24:56Z</time></trkpt><trkpt lat="42.9405174" lon="12.1177355"><ele>832.0</ele><time>2026-05-02T09:24:58Z</time></trkpt><trkpt lat="42.9405809" lon="12.1176474"><ele>833.0</ele><time>2026-05-02T09:25:00Z</time></trkpt><trkpt lat="42.9406833" lon="12.1175663"><ele>833.0000000000001</ele><time>2026-05-02T09:25:01.999Z</time></trkpt><trkpt lat="42.9407431" lon="12.117536"><ele>833.0</ele><time>2026-05-02T09:25:03Z</time></trkpt><trkpt lat="42.9408227" lon="12.1175181"><ele>833.0</ele><time>2026-05-02T09:25:04Z</time></trkpt><trkpt lat="42.9409152" lon="12.1175066"><ele>833.0</ele><time>2026-05-02T09:25:05Z</time></trkpt><trkpt lat="42.9410077" lon="12.1174878"><ele>833.0000000000001</ele><time>2026-05-02T09:25:06Z</time></trkpt><trkpt lat="42.9410904" lon="12.1174703"><ele>833.0</ele><time>2026-05-02T09:25:07Z</time></trkpt><trkpt lat="42.9411678" lon="12.1174485"><ele>834.0000000000001</ele><time>2026-05-02T09:25:08Z</time></trkpt><trkpt lat="42.94124" lon="12.1174314"><ele>835.0</ele><time>2026-05-02T09:25:09Z</time></trkpt><trkpt lat="42.9413197" lon="12.1174353"><ele>836.0</ele><time>2026-05-02T09:25:10Z</time></trkpt><trkpt lat="42.9414011" lon="12.1174598"><ele>837.0</ele><time>2026-05-02T09:25:11Z</time></trkpt><trkpt lat="42.9414815" lon="12.1174935"><ele>838.0000000000001</ele><time>2026-05-02T09:25:12Z</time></trkpt><trkpt lat="42.94156" lon="12.1175419"><ele>839.0</ele><time>2026-05-02T09:25:13Z</time></trkpt><trkpt lat="42.94163" lon="12.1176021"><ele>839.0</ele><time>2026-05-02T09:25:14Z</time></trkpt><trkpt lat="42.9416985" lon="12.1176761"><ele>839.0</ele><time>2026-05-02T09:25:14.999Z</time></trkpt><trkpt lat="42.9417773" lon="12.1177459"><ele>839.0</ele><time>2026-05-02T09:25:16Z</time></trkpt><trkpt lat="42.9418564" lon="12.117821"><ele>839.0</ele><time>2026-05-02T09:25:16.999Z</time></trkpt><trkpt lat="42.9419413" lon="12.1178798"><ele>839.0</ele><time>2026-05-02T09:25:18Z</time></trkpt><trkpt lat="42.9420345" lon="12.1179375"><ele>840.0</ele><time>2026-05-02T09:25:19Z</time></trkpt><trkpt lat="42.9421325" lon="12.1179693"><ele>841.0</ele><time>2026-05-02T09:25:20Z</time></trkpt><trkpt lat="42.942218" lon="12.1179906"><ele>842.0</ele><time>2026-05-02T09:25:20.999Z</time></trkpt><trkpt lat="42.9422926" lon="12.1179953"><ele>843.0</ele><time>2026-05-02T09:25:22Z</time></trkpt><trkpt lat="42.9424095" lon="12.1179809"><ele>844.0</ele><time>2026-05-02T09:25:24Z</time></trkpt><trkpt lat="42.9424935" lon="12.1179795"><ele>844.6666666666666</ele><time>2026-05-02T09:25:26Z</time></trkpt><trkpt lat="42.9425728" lon="12.1179688"><ele>845.3333333333333</ele><time>2026-05-02T09:25:28Z</time></trkpt><trkpt lat="42.9426366" lon="12.1179335"><ele>846.0</ele><time>2026-05-02T09:25:30Z</time></trkpt><trkpt lat="42.9426773" lon="12.1178667"><ele>846.6666666666667</ele><time>2026-05-02T09:25:32Z</time></trkpt><trkpt lat="42.9427352" lon="12.1177594"><ele>847.3333333333334</ele><time>2026-05-02T09:25:35Z</time></trkpt><trkpt lat="42.942781" lon="12.1176597"><ele>848.0</ele><time>2026-05-02T09:25:38Z</time></trkpt><trkpt lat="42.9428224" lon="12.1175485"><ele>848.0000000000001</ele><time>2026-05-02T09:25:41Z</time></trkpt><trkpt lat="42.9428469" lon="12.1174685"><ele>848.0</ele><time>2026-05-02T09:25:43Z</time></trkpt><trkpt lat="42.9428636" lon="12.1173789"><ele>848.0</ele><time>2026-05-02T09:25:45Z</time></trkpt><trkpt lat="42.9428877" lon="12.1172653"><ele>848.0</ele><time>2026-05-02T09:25:47Z</time></trkpt><trkpt lat="42.9429196" lon="12.1171633"><ele>848.0000000000001</ele><time>2026-05-02T09:25:48.999Z</time></trkpt><trkpt lat="42.942978" lon="12.1170773"><ele>848.0</ele><time>2026-05-02T09:25:51Z</time></trkpt><trkpt lat="42.943062" lon="12.1170163"><ele>845.8</ele><time>2026-05-02T09:25:53Z</time></trkpt><trkpt lat="42.9431705" lon="12.1169638"><ele>843.5999999999999</ele><time>2026-05-02T09:25:54.999Z</time></trkpt><trkpt lat="42.9432744" lon="12.1169197"><ele>841.4000000000001</ele><time>2026-05-02T09:25:57Z</time></trkpt><trkpt lat="42.9433493" lon="12.1168813"><ele>839.2</ele><time>2026-05-02T09:25:59Z</time></trkpt><trkpt lat="42.9434138" lon="12.1168551"><ele>837.0</ele><time>2026-05-02T09:26:01Z</time></trkpt><trkpt lat="42.9435208" lon="12.1167974"><ele>836.8</ele><time>2026-05-02T09:26:03Z</time></trkpt><trkpt lat="42.9436006" lon="12.1167702"><ele>836.6</ele><time>2026-05-02T09:26:05Z</time></trkpt><trkpt lat="42.9436815" lon="12.1167403"><ele>836.4</ele><time>2026-05-02T09:26:06.999Z</time></trkpt><trkpt lat="42.9437852" lon="12.1167359"><ele>836.1999999999999</ele><time>2026-05-02T09:26:09Z</time></trkpt><trkpt lat="42.9438964" lon="12.1167297"><ele>836.0</ele><time>2026-05-02T09:26:11Z</time></trkpt><trkpt lat="42.9440066" lon="12.1167468"><ele>836.0</ele><time>2026-05-02T09:26:13Z</time></trkpt><trkpt lat="42.9440786" lon="12.1167649"><ele>836.0</ele><time>2026-05-02T09:26:14Z</time></trkpt><trkpt lat="42.9442003" lon="12.1167928"><ele>836.0</ele><time>2026-05-02T09:26:15.999Z</time></trkpt><trkpt lat="42.9442934" lon="12.1167836"><ele>836.0</ele><time>2026-05-02T09:26:18Z</time></trkpt><trkpt lat="42.9443404" lon="12.1166382"><ele>836.0</ele><time>2026-05-02T09:26:20Z</time></trkpt><trkpt lat="42.9443426" lon="12.116458"><ele>833.0</ele><time>2026-05-02T09:26:22Z</time></trkpt><trkpt lat="42.9443333" lon="12.1163683"><ele>830.0</ele><time>2026-05-02T09:26:23Z</time></trkpt><trkpt lat="42.9443327" lon="12.1162783"><ele>827.0</ele><time>2026-05-02T09:26:24Z</time></trkpt><trkpt lat="42.9443317" lon="12.1161686"><ele>824.0</ele><time>2026-05-02T09:26:25Z</time></trkpt><trkpt lat="42.944335" lon="12.1160475"><ele>821.0</ele><time>2026-05-02T09:26:26Z</time></trkpt><trkpt lat="42.9443401" lon="12.1159498"><ele>818.0</ele><time>2026-05-02T09:26:27Z</time></trkpt><trkpt lat="42.9443366" lon="12.1158533"><ele>815.0</ele><time>2026-05-02T09:26:28Z</time></trkpt><trkpt lat="42.9443469" lon="12.1157538"><ele>813.0000000000001</ele><time>2026-05-02T09:26:29Z</time></trkpt><trkpt lat="42.9443842" lon="12.1156475"><ele>811.0</ele><time>2026-05-02T09:26:30Z</time></trkpt><trkpt lat="42.9444437" lon="12.1155855"><ele>809.0</ele><time>2026-05-02T09:26:31Z</time></trkpt><trkpt lat="42.9445066" lon="12.1155361"><ele>807.0</ele><time>2026-05-02T09:26:32Z</time></trkpt><trkpt lat="42.9446157" lon="12.1155502"><ele>805.0000000000001</ele><time>2026-05-02T09:26:34Z</time></trkpt><trkpt lat="42.9446736" lon="12.1155974"><ele>803.0</ele><time>2026-05-02T09:26:35Z</time></trkpt><trkpt lat="42.9447388" lon="12.115653"><ele>805.4</ele><time>2026-05-02T09:26:36Z</time></trkpt><trkpt lat="42.9448351" lon="12.1157731"><ele>807.8</ele><time>2026-05-02T09:26:38Z</time></trkpt><trkpt lat="42.9449226" lon="12.1159099"><ele>810.2</ele><time>2026-05-02T09:26:39.999Z</time></trkpt><trkpt lat="42.9449721" lon="12.1160066"><ele>812.6</ele><time>2026-05-02T09:26:41Z</time></trkpt><trkpt lat="42.9450041" lon="12.1160973"><ele>815.0</ele><time>2026-05-02T09:26:42Z</time></trkpt><trkpt lat="42.9450346" lon="12.1161757"><ele>815.0000000000001</ele><time>2026-05-02T09:26:42.999Z</time></trkpt><trkpt lat="42.945072" lon="12.116272"><ele>815.0</ele><time>2026-05-02T09:26:44.999Z</time></trkpt><trkpt lat="42.9451061" lon="12.1161883"><ele>815.0</ele><time>2026-05-02T09:26:58Z</time></trkpt><trkpt lat="42.9450777" lon="12.1160784"><ele>815.0</ele><time>2026-05-02T09:27:00Z</time></trkpt><trkpt lat="42.9450356" lon="12.1159747"><ele>815.0000000000001</ele><time>2026-05-02T09:27:02Z</time></trkpt><trkpt lat="42.9449846" lon="12.1158805"><ele>815.0</ele><time>2026-05-02T09:27:04Z</time></trkpt><trkpt lat="42.944915" lon="12.1157981"><ele>815.0000000000001</ele><time>2026-05-02T09:27:05.999Z</time></trkpt><trkpt lat="42.9448531" lon="12.1157533"><ele>815.0</ele><time>2026-05-02T09:27:06.999Z</time></trkpt><trkpt lat="42.9447884" lon="12.1156825"><ele>815.0</ele><time>2026-05-02T09:27:09Z</time></trkpt><trkpt lat="42.9447102" lon="12.1156199"><ele>815.0</ele><time>2026-05-02T09:27:11Z</time></trkpt><trkpt lat="42.9446366" lon="12.1155761"><ele>815.0000000000001</ele><time>2026-05-02T09:27:13Z</time></trkpt><trkpt lat="42.9445623" lon="12.1155458"><ele>815.0</ele><time>2026-05-02T09:27:15Z</time></trkpt><trkpt lat="42.9445337" lon="12.1154614"><ele>813.0000000000001</ele><time>2026-05-02T09:27:22Z</time></trkpt><trkpt lat="42.9445268" lon="12.1153687"><ele>811.0</ele><time>2026-05-02T09:27:25Z</time></trkpt><trkpt lat="42.944518" lon="12.1152522"><ele>809.0</ele><time>2026-05-02T09:27:28Z</time></trkpt><trkpt lat="42.9444979" lon="12.1151561"><ele>807.0</ele><time>2026-05-02T09:27:29.999Z</time></trkpt><trkpt lat="42.9444559" lon="12.115054"><ele>805.0000000000001</ele><time>2026-05-02T09:27:31.994Z</time></trkpt><trkpt lat="42.9443894" lon="12.114973"><ele>803.0</ele><time>2026-05-02T09:27:34Z</time></trkpt><trkpt lat="42.9443507" lon="12.1148998"><ele>803.4</ele><time>2026-05-02T09:27:34.999Z</time></trkpt><trkpt lat="42.944254" lon="12.1148447"><ele>803.8</ele><time>2026-05-02T09:27:37Z</time></trkpt><trkpt lat="42.9441653" lon="12.1147801"><ele>804.2</ele><time>2026-05-02T09:27:39Z</time></trkpt><trkpt lat="42.94406" lon="12.1147005"><ele>804.6</ele><time>2026-05-02T09:27:41Z</time></trkpt><trkpt lat="42.9440013" lon="12.1146626"><ele>805.0</ele><time>2026-05-02T09:27:42Z</time></trkpt><trkpt lat="42.9439067" lon="12.1145676"><ele>804.9999999999999</ele><time>2026-05-02T09:27:43.999Z</time></trkpt><trkpt lat="42.9438203" lon="12.1144613"><ele>805.0</ele><time>2026-05-02T09:27:45.999Z</time></trkpt><trkpt lat="42.9437402" lon="12.1143647"><ele>805.0</ele><time>2026-05-02T09:27:48Z</time></trkpt><trkpt lat="42.9436751" lon="12.1142993"><ele>805.0</ele><time>2026-05-02T09:27:50Z</time></trkpt><trkpt lat="42.9436156" lon="12.114242"><ele>804.9999999999999</ele><time>2026-05-02T09:27:51.999Z</time></trkpt><trkpt lat="42.9435713" lon="12.1141752"><ele>805.0</ele><time>2026-05-02T09:27:54Z</time></trkpt><trkpt lat="42.9435487" lon="12.1140686"><ele>802.7142857142857</ele><time>2026-05-02T09:27:55.999Z</time></trkpt><trkpt lat="42.9435521" lon="12.1139802"><ele>800.4285714285714</ele><time>2026-05-02T09:27:58Z</time></trkpt><trkpt lat="42.9435594" lon="12.1138751"><ele>798.1428571428571</ele><time>2026-05-02T09:28:01Z</time></trkpt><trkpt lat="42.9436026" lon="12.1137885"><ele>795.8571428571429</ele><time>2026-05-02T09:28:05Z</time></trkpt><trkpt lat="42.9436401" lon="12.1137194"><ele>793.5714285714286</ele><time>2026-05-02T09:28:06.999Z</time></trkpt><trkpt lat="42.943695" lon="12.1136404"><ele>791.2857142857142</ele><time>2026-05-02T09:28:08.999Z</time></trkpt><trkpt lat="42.9437596" lon="12.1136055"><ele>789.0</ele><time>2026-05-02T09:28:10.999Z</time></trkpt><trkpt lat="42.9438293" lon="12.1135794"><ele>788.9999999999999</ele><time>2026-05-02T09:28:13Z</time></trkpt><trkpt lat="42.943909" lon="12.1135407"><ele>789.0</ele><time>2026-05-02T09:28:16Z</time></trkpt><trkpt lat="42.9439764" lon="12.1135474"><ele>789.0</ele><time>2026-05-02T09:28:18.999Z</time></trkpt><trkpt lat="42.9440396" lon="12.1135388"><ele>789.0</ele><time>2026-05-02T09:28:20.999Z</time></trkpt><trkpt lat="42.9440992" lon="12.1135074"><ele>789.0</ele><time>2026-05-02T09:28:23Z</time></trkpt><trkpt lat="42.9441578" lon="12.1134712"><ele>788.9999999999999</ele><time>2026-05-02T09:28:25Z</time></trkpt><trkpt lat="42.9442356" lon="12.1134273"><ele>789.0</ele><time>2026-05-02T09:28:28Z</time></trkpt><trkpt lat="42.9443019" lon="12.1133894"><ele>787.8333333333334</ele><time>2026-05-02T09:28:30Z</time></trkpt><trkpt lat="42.9443695" lon="12.1133586"><ele>786.6666666666667</ele><time>2026-05-02T09:28:32Z</time></trkpt><trkpt lat="42.9444464" lon="12.1132938"><ele>785.5</ele><time>2026-05-02T09:28:35Z</time></trkpt><trkpt lat="42.9444749" lon="12.1132081"><ele>784.3333333333334</ele><time>2026-05-02T09:28:37Z</time></trkpt><trkpt lat="42.9445102" lon="12.1131235"><ele>783.1666666666667</ele><time>2026-05-02T09:28:38.999Z</time></trkpt><trkpt lat="42.9445575" lon="12.1130374"><ele>782.0</ele><time>2026-05-02T09:28:41Z</time></trkpt><trkpt lat="42.9446004" lon="12.1129312"><ele>780.0000000000001</ele><time>2026-05-02T09:28:43Z</time></trkpt><trkpt lat="42.9446326" lon="12.1128259"><ele>778.0</ele><time>2026-05-02T09:28:45Z</time></trkpt><trkpt lat="42.9446861" lon="12.1127311"><ele>776.0</ele><time>2026-05-02T09:28:47Z</time></trkpt><trkpt lat="42.9447323" lon="12.1126302"><ele>774.0</ele><time>2026-05-02T09:28:50Z</time></trkpt><trkpt lat="42.9447723" lon="12.1125283"><ele>772.0000000000001</ele><time>2026-05-02T09:28:53Z</time></trkpt><trkpt lat="42.9448061" lon="12.1124386"><ele>770.0</ele><time>2026-05-02T09:28:57Z</time></trkpt><trkpt lat="42.9448389" lon="12.1123418"><ele>768.2857142857143</ele><time>2026-05-02T09:29:01Z</time></trkpt><trkpt lat="42.9448739" lon="12.1122631"><ele>766.5714285714286</ele><time>2026-05-02T09:29:04Z</time></trkpt><trkpt lat="42.9449033" lon="12.1121775"><ele>764.8571428571429</ele><time>2026-05-02T09:29:08Z</time></trkpt><trkpt lat="42.9449523" lon="12.1121047"><ele>763.1428571428571</ele><time>2026-05-02T09:29:11Z</time></trkpt><trkpt lat="42.9449897" lon="12.1120348"><ele>761.4285714285714</ele><time>2026-05-02T09:29:13Z</time></trkpt><trkpt lat="42.9450179" lon="12.1119221"><ele>759.7142857142858</ele><time>2026-05-02T09:29:15Z</time></trkpt><trkpt lat="42.9450305" lon="12.1118282"><ele>758.0</ele><time>2026-05-02T09:29:18Z</time></trkpt><trkpt lat="42.9450404" lon="12.1117431"><ele>756.8333333333333</ele><time>2026-05-02T09:29:22Z</time></trkpt><trkpt lat="42.945049" lon="12.1116471"><ele>755.6666666666666</ele><time>2026-05-02T09:29:25Z</time></trkpt><trkpt lat="42.9450398" lon="12.1115396"><ele>754.5</ele><time>2026-05-02T09:29:28Z</time></trkpt><trkpt lat="42.9450163" lon="12.1114324"><ele>753.3333333333334</ele><time>2026-05-02T09:29:31Z</time></trkpt><trkpt lat="42.9449959" lon="12.1113182"><ele>752.1666666666667</ele><time>2026-05-02T09:29:34Z</time></trkpt><trkpt lat="42.9449554" lon="12.1112451"><ele>751.0</ele><time>2026-05-02T09:29:36Z</time></trkpt><trkpt lat="42.9449033" lon="12.1111288"><ele>750.7142857142858</ele><time>2026-05-02T09:29:37.999Z</time></trkpt><trkpt lat="42.944872" lon="12.1110444"><ele>750.4285714285714</ele><time>2026-05-02T09:29:40Z</time></trkpt><trkpt lat="42.9448353" lon="12.110956"><ele>750.1428571428571</ele><time>2026-05-02T09:29:42Z</time></trkpt><trkpt lat="42.9448029" lon="12.1108726"><ele>749.8571428571429</ele><time>2026-05-02T09:29:44Z</time></trkpt><trkpt lat="42.9447902" lon="12.1107872"><ele>749.5714285714286</ele><time>2026-05-02T09:29:46Z</time></trkpt><trkpt lat="42.9448147" lon="12.1106808"><ele>749.2857142857143</ele><time>2026-05-02T09:29:49Z</time></trkpt><trkpt lat="42.9448597" lon="12.1105771"><ele>749.0</ele><time>2026-05-02T09:29:51.999Z</time></trkpt><trkpt lat="42.944905" lon="12.1105022"><ele>746.8333333333333</ele><time>2026-05-02T09:29:54Z</time></trkpt><trkpt lat="42.9449464" lon="12.1104023"><ele>744.6666666666666</ele><time>2026-05-02T09:29:56Z</time></trkpt><trkpt lat="42.9450151" lon="12.1103189"><ele>742.5</ele><time>2026-05-02T09:29:59Z</time></trkpt><trkpt lat="42.9450732" lon="12.1102626"><ele>740.3333333333334</ele><time>2026-05-02T09:30:02Z</time></trkpt><trkpt lat="42.9451199" lon="12.1101921"><ele>738.1666666666667</ele><time>2026-05-02T09:30:08.999Z</time></trkpt><trkpt lat="42.9451705" lon="12.1101041"><ele>736.0</ele><time>2026-05-02T09:30:14Z</time></trkpt><trkpt lat="42.9452093" lon="12.1100164"><ele>735.5</ele><time>2026-05-02T09:30:23Z</time></trkpt><trkpt lat="42.945248" lon="12.1099396"><ele>735.0</ele><time>2026-05-02T09:30:26Z</time></trkpt><trkpt lat="42.9452821" lon="12.1098616"><ele>734.5</ele><time>2026-05-02T09:30:29Z</time></trkpt><trkpt lat="42.9452794" lon="12.1097368"><ele>734.0</ele><time>2026-05-02T09:30:33Z</time></trkpt><trkpt lat="42.9452387" lon="12.1096391"><ele>733.5</ele><time>2026-05-02T09:30:35Z</time></trkpt><trkpt lat="42.9452196" lon="12.1095393"><ele>733.0</ele><time>2026-05-02T09:30:36.999Z</time></trkpt><trkpt lat="42.9452034" lon="12.1094297"><ele>731.1428571428571</ele><time>2026-05-02T09:30:40Z</time></trkpt><trkpt lat="42.9451655" lon="12.1093556"><ele>729.2857142857142</ele><time>2026-05-02T09:30:42Z</time></trkpt><trkpt lat="42.9451278" lon="12.1092566"><ele>727.4285714285713</ele><time>2026-05-02T09:30:45Z</time></trkpt><trkpt lat="42.9451041" lon="12.1091715"><ele>725.5714285714286</ele><time>2026-05-02T09:30:47Z</time></trkpt><trkpt lat="42.9450888" lon="12.1090661"><ele>723.7142857142858</ele><time>2026-05-02T09:30:49Z</time></trkpt><trkpt lat="42.9450998" lon="12.1089575"><ele>721.8571428571428</ele><time>2026-05-02T09:30:51Z</time></trkpt><trkpt lat="42.9451298" lon="12.1088645"><ele>720.0</ele><time>2026-05-02T09:30:54Z</time></trkpt><trkpt lat="42.9451729" lon="12.1087973"><ele>718.3333333333334</ele><time>2026-05-02T09:30:57Z</time></trkpt><trkpt lat="42.9452253" lon="12.1087272"><ele>716.6666666666666</ele><time>2026-05-02T09:30:59Z</time></trkpt><trkpt lat="42.9452856" lon="12.1086474"><ele>715.0</ele><time>2026-05-02T09:31:02Z</time></trkpt><trkpt lat="42.9453521" lon="12.108574"><ele>713.3333333333333</ele><time>2026-05-02T09:31:05Z</time></trkpt><trkpt lat="42.9454044" lon="12.1084796"><ele>711.6666666666666</ele><time>2026-05-02T09:31:08Z</time></trkpt><trkpt lat="42.9454499" lon="12.108403"><ele>710.0</ele><time>2026-05-02T09:31:11Z</time></trkpt><trkpt lat="42.9455066" lon="12.1083335"><ele>710.0</ele><time>2026-05-02T09:31:14Z</time></trkpt><trkpt lat="42.9455529" lon="12.1082531"><ele>710.0</ele><time>2026-05-02T09:31:19Z</time></trkpt><trkpt lat="42.9456105" lon="12.1081343"><ele>710.0</ele><time>2026-05-02T09:34:10Z</time></trkpt><trkpt lat="42.9456221" lon="12.1080111"><ele>710.0</ele><time>2026-05-02T09:34:14Z</time></trkpt><trkpt lat="42.9456714" lon="12.1078816"><ele>710.0</ele><time>2026-05-02T09:34:16Z</time></trkpt><trkpt lat="42.9457162" lon="12.1077562"><ele>708.4</ele><time>2026-05-02T09:34:17.999Z</time></trkpt><trkpt lat="42.9457512" lon="12.1076428"><ele>706.8</ele><time>2026-05-02T09:34:20Z</time></trkpt><trkpt lat="42.9457992" lon="12.1075141"><ele>705.2</ele><time>2026-05-02T09:34:22Z</time></trkpt><trkpt lat="42.9458607" lon="12.1073916"><ele>703.6</ele><time>2026-05-02T09:34:24Z</time></trkpt><trkpt lat="42.9459508" lon="12.1072837"><ele>702.0</ele><time>2026-05-02T09:34:26Z</time></trkpt><trkpt lat="42.9460277" lon="12.1072152"><ele>698.5</ele><time>2026-05-02T09:34:28Z</time></trkpt><trkpt lat="42.9460821" lon="12.1071648"><ele>695.0</ele><time>2026-05-02T09:34:29Z</time></trkpt><trkpt lat="42.9461653" lon="12.1070825"><ele>691.5</ele><time>2026-05-02T09:34:31Z</time></trkpt><trkpt lat="42.9461801" lon="12.1069905"><ele>688.0</ele><time>2026-05-02T09:34:33Z</time></trkpt><trkpt lat="42.9461597" lon="12.1068972"><ele>684.5</ele><time>2026-05-02T09:34:35Z</time></trkpt><trkpt lat="42.9461142" lon="12.10681"><ele>681.0</ele><time>2026-05-02T09:34:37Z</time></trkpt><trkpt lat="42.9460448" lon="12.1066768"><ele>677.5</ele><time>2026-05-02T09:34:39Z</time></trkpt><trkpt lat="42.9460101" lon="12.1065599"><ele>674.0</ele><time>2026-05-02T09:34:41Z</time></trkpt><trkpt lat="42.9460454" lon="12.1064699"><ele>670.5</ele><time>2026-05-02T09:34:42.999Z</time></trkpt><trkpt lat="42.9460892" lon="12.1064034"><ele>667.0</ele><time>2026-05-02T09:34:44Z</time></trkpt><trkpt lat="42.9461285" lon="12.1063344"><ele>663.5</ele><time>2026-05-02T09:34:45Z</time></trkpt><trkpt lat="42.946159" lon="12.1061947"><ele>660.0</ele><time>2026-05-02T09:34:47Z</time></trkpt><trkpt lat="42.9461288" lon="12.1060472"><ele>660.0</ele><time>2026-05-02T09:34:49Z</time></trkpt><trkpt lat="42.9460664" lon="12.1058909"><ele>660.0</ele><time>2026-05-02T09:34:51Z</time></trkpt><trkpt lat="42.9459998" lon="12.1057309"><ele>660.0</ele><time>2026-05-02T09:34:52.999Z</time></trkpt><trkpt lat="42.9459772" lon="12.1056388"><ele>660.0</ele><time>2026-05-02T09:34:54Z</time></trkpt><trkpt lat="42.9459509" lon="12.1055439"><ele>660.0</ele><time>2026-05-02T09:34:55Z</time></trkpt><trkpt lat="42.9459304" lon="12.1054414"><ele>660.1666666666666</ele><time>2026-05-02T09:34:56Z</time></trkpt><trkpt lat="42.9459035" lon="12.1053358"><ele>660.3333333333334</ele><time>2026-05-02T09:34:57Z</time></trkpt><trkpt lat="42.945878" lon="12.1052186"><ele>660.5</ele><time>2026-05-02T09:34:58Z</time></trkpt><trkpt lat="42.9458531" lon="12.1051167"><ele>660.6666666666667</ele><time>2026-05-02T09:34:59Z</time></trkpt><trkpt lat="42.945825" lon="12.1050139"><ele>660.8333333333334</ele><time>2026-05-02T09:35:00Z</time></trkpt><trkpt lat="42.9458013" lon="12.1049149"><ele>661.0</ele><time>2026-05-02T09:35:01Z</time></trkpt><trkpt lat="42.9457757" lon="12.1048313"><ele>660.0</ele><time>2026-05-02T09:35:02Z</time></trkpt><trkpt lat="42.9457618" lon="12.1047094"><ele>659.0</ele><time>2026-05-02T09:35:03Z</time></trkpt><trkpt lat="42.9457485" lon="12.1045892"><ele>658.0</ele><time>2026-05-02T09:35:04Z</time></trkpt><trkpt lat="42.9457436" lon="12.1044777"><ele>657.0</ele><time>2026-05-02T09:35:05Z</time></trkpt><trkpt lat="42.9457365" lon="12.1043666"><ele>656.0</ele><time>2026-05-02T09:35:05.999Z</time></trkpt><trkpt lat="42.9457285" lon="12.1042621"><ele>655.0</ele><time>2026-05-02T09:35:07Z</time></trkpt><trkpt lat="42.9457226" lon="12.1041651"><ele>655.0</ele><time>2026-05-02T09:35:08Z</time></trkpt><trkpt lat="42.945708" lon="12.1040803"><ele>655.0</ele><time>2026-05-02T09:35:09Z</time></trkpt><trkpt lat="42.9456955" lon="12.1039704"><ele>655.0</ele><time>2026-05-02T09:35:11Z</time></trkpt><trkpt lat="42.945692" lon="12.1038295"><ele>655.0</ele><time>2026-05-02T09:35:14Z</time></trkpt><trkpt lat="42.9456879" lon="12.1037157"><ele>655.0</ele><time>2026-05-02T09:35:16Z</time></trkpt><trkpt lat="42.9456448" lon="12.1035972"><ele>655.0</ele><time>2026-05-02T09:35:18Z</time></trkpt><trkpt lat="42.9456158" lon="12.1035208"><ele>654.3333333333334</ele><time>2026-05-02T09:35:18.999Z</time></trkpt><trkpt lat="42.9455964" lon="12.1034361"><ele>653.6666666666667</ele><time>2026-05-02T09:35:20Z</time></trkpt><trkpt lat="42.9455684" lon="12.103357"><ele>653.0</ele><time>2026-05-02T09:35:20.999Z</time></trkpt><trkpt lat="42.9455026" lon="12.1032096"><ele>652.3333333333334</ele><time>2026-05-02T09:35:23Z</time></trkpt><trkpt lat="42.9454669" lon="12.1031307"><ele>651.6666666666666</ele><time>2026-05-02T09:35:24Z</time></trkpt><trkpt lat="42.9454234" lon="12.1030567"><ele>651.0</ele><time>2026-05-02T09:35:25Z</time></trkpt><trkpt lat="42.9453821" lon="12.1029743"><ele>649.8571428571429</ele><time>2026-05-02T09:35:25.999Z</time></trkpt><trkpt lat="42.9453416" lon="12.1028823"><ele>648.7142857142858</ele><time>2026-05-02T09:35:27Z</time></trkpt><trkpt lat="42.9453152" lon="12.1027929"><ele>647.5714285714286</ele><time>2026-05-02T09:35:28Z</time></trkpt><trkpt lat="42.9453044" lon="12.1026997"><ele>646.4285714285714</ele><time>2026-05-02T09:35:29Z</time></trkpt><trkpt lat="42.9452869" lon="12.1025959"><ele>645.2857142857143</ele><time>2026-05-02T09:35:30Z</time></trkpt><trkpt lat="42.9452856" lon="12.1024917"><ele>644.1428571428571</ele><time>2026-05-02T09:35:30.999Z</time></trkpt><trkpt lat="42.9452817" lon="12.102388"><ele>643.0</ele><time>2026-05-02T09:35:32Z</time></trkpt><trkpt lat="42.9452848" lon="12.102295"><ele>642.6666666666667</ele><time>2026-05-02T09:35:33Z</time></trkpt><trkpt lat="42.9452948" lon="12.1021965"><ele>642.3333333333334</ele><time>2026-05-02T09:35:34Z</time></trkpt><trkpt lat="42.9453193" lon="12.102092"><ele>642.0</ele><time>2026-05-02T09:35:35Z</time></trkpt><trkpt lat="42.9453461" lon="12.1019882"><ele>641.6666666666666</ele><time>2026-05-02T09:35:36Z</time></trkpt><trkpt lat="42.9453835" lon="12.1018741"><ele>641.3333333333333</ele><time>2026-05-02T09:35:37Z</time></trkpt><trkpt lat="42.9454306" lon="12.1017613"><ele>641.0</ele><time>2026-05-02T09:35:38Z</time></trkpt><trkpt lat="42.9454799" lon="12.1016616"><ele>641.0</ele><time>2026-05-02T09:35:39Z</time></trkpt><trkpt lat="42.9455331" lon="12.1015654"><ele>641.0</ele><time>2026-05-02T09:35:40Z</time></trkpt><trkpt lat="42.9455851" lon="12.1014887"><ele>641.0</ele><time>2026-05-02T09:35:40.999Z</time></trkpt><trkpt lat="42.9456338" lon="12.1014212"><ele>641.0</ele><time>2026-05-02T09:35:42Z</time></trkpt><trkpt lat="42.9457211" lon="12.1013249"><ele>641.0</ele><time>2026-05-02T09:35:43.999Z</time></trkpt><trkpt lat="42.9458489" lon="12.101235"><ele>638.8333333333333</ele><time>2026-05-02T09:35:46Z</time></trkpt><trkpt lat="42.9459188" lon="12.1011775"><ele>636.6666666666666</ele><time>2026-05-02T09:35:47Z</time></trkpt><trkpt lat="42.9460019" lon="12.1011073"><ele>634.5</ele><time>2026-05-02T09:35:48Z</time></trkpt><trkpt lat="42.9460699" lon="12.1010445"><ele>632.3333333333334</ele><time>2026-05-02T09:35:49Z</time></trkpt><trkpt lat="42.9461421" lon="12.1009797"><ele>630.1666666666667</ele><time>2026-05-02T09:35:49.999Z</time></trkpt><trkpt lat="42.9462079" lon="12.1009232"><ele>628.0</ele><time>2026-05-02T09:35:51Z</time></trkpt><trkpt lat="42.9462677" lon="12.1008689"><ele>628.0</ele><time>2026-05-02T09:35:51.999Z</time></trkpt><trkpt lat="42.9463244" lon="12.1008236"><ele>628.0</ele><time>2026-05-02T09:35:52.999Z</time></trkpt><trkpt lat="42.94638" lon="12.1007574"><ele>628.0</ele><time>2026-05-02T09:35:53.999Z</time></trkpt><trkpt lat="42.946425" lon="12.1006894"><ele>628.0</ele><time>2026-05-02T09:35:55Z</time></trkpt><trkpt lat="42.9464814" lon="12.1005907"><ele>628.0</ele><time>2026-05-02T09:35:56Z</time></trkpt><trkpt lat="42.946529" lon="12.1005067"><ele>628.0</ele><time>2026-05-02T09:35:56.999Z</time></trkpt><trkpt lat="42.9465828" lon="12.1004166"><ele>627.8333333333334</ele><time>2026-05-02T09:35:58Z</time></trkpt><trkpt lat="42.9466373" lon="12.1003231"><ele>627.6666666666667</ele><time>2026-05-02T09:35:59Z</time></trkpt><trkpt lat="42.9466904" lon="12.1002707"><ele>627.5</ele><time>2026-05-02T09:35:59.999Z</time></trkpt><trkpt lat="42.9467564" lon="12.1002266"><ele>627.3333333333334</ele><time>2026-05-02T09:36:01Z</time></trkpt><trkpt lat="42.9468182" lon="12.1002069"><ele>627.1666666666666</ele><time>2026-05-02T09:36:02Z</time></trkpt><trkpt lat="42.946928" lon="12.1001213"><ele>627.0</ele><time>2026-05-02T09:36:04Z</time></trkpt><trkpt lat="42.947007" lon="12.0999966"><ele>624.8000000000001</ele><time>2026-05-02T09:36:05.999Z</time></trkpt><trkpt lat="42.9470406" lon="12.0999174"><ele>622.6</ele><time>2026-05-02T09:36:07Z</time></trkpt><trkpt lat="42.9470764" lon="12.0998376"><ele>620.4000000000001</ele><time>2026-05-02T09:36:08Z</time></trkpt><trkpt lat="42.9471226" lon="12.0996904"><ele>618.2</ele><time>2026-05-02T09:36:10Z</time></trkpt><trkpt lat="42.9471269" lon="12.0995241"><ele>616.0</ele><time>2026-05-02T09:36:12Z</time></trkpt><trkpt lat="42.947112" lon="12.099353"><ele>615.0</ele><time>2026-05-02T09:36:14Z</time></trkpt><trkpt lat="42.9471058" lon="12.0992508"><ele>614.0</ele><time>2026-05-02T09:36:15Z</time></trkpt><trkpt lat="42.9471044" lon="12.0991402"><ele>613.0</ele><time>2026-05-02T09:36:16Z</time></trkpt><trkpt lat="42.9470942" lon="12.0990515"><ele>612.0</ele><time>2026-05-02T09:36:17Z</time></trkpt><trkpt lat="42.9470263" lon="12.0988854"><ele>611.0</ele><time>2026-05-02T09:36:19Z</time></trkpt><trkpt lat="42.9469787" lon="12.0988205"><ele>610.0</ele><time>2026-05-02T09:36:20Z</time></trkpt><trkpt lat="42.9469128" lon="12.0987085"><ele>608.4</ele><time>2026-05-02T09:36:22Z</time></trkpt><trkpt lat="42.9468755" lon="12.0986116"><ele>606.8</ele><time>2026-05-02T09:36:25Z</time></trkpt><trkpt lat="42.94683" lon="12.0984795"><ele>605.2</ele><time>2026-05-02T09:36:28Z</time></trkpt><trkpt lat="42.9468169" lon="12.0983937"><ele>603.6</ele><time>2026-05-02T09:36:28.999Z</time></trkpt><trkpt lat="42.9468207" lon="12.0982356"><ele>602.0</ele><time>2026-05-02T09:36:30.999Z</time></trkpt><trkpt lat="42.9468622" lon="12.0980852"><ele>600.0</ele><time>2026-05-02T09:36:33Z</time></trkpt><trkpt lat="42.9469224" lon="12.0979502"><ele>598.0</ele><time>2026-05-02T09:36:35Z</time></trkpt><trkpt lat="42.9469715" lon="12.0977959"><ele>596.0</ele><time>2026-05-02T09:36:36.999Z</time></trkpt><trkpt lat="42.9470001" lon="12.0977152"><ele>594.0</ele><time>2026-05-02T09:36:38Z</time></trkpt><trkpt lat="42.9470389" lon="12.0975502"><ele>592.0</ele><time>2026-05-02T09:36:40Z</time></trkpt><trkpt lat="42.9470873" lon="12.0973969"><ele>589.8333333333334</ele><time>2026-05-02T09:36:41.999Z</time></trkpt><trkpt lat="42.9471298" lon="12.0972952"><ele>587.6666666666667</ele><time>2026-05-02T09:36:44Z</time></trkpt><trkpt lat="42.9471338" lon="12.0971683"><ele>585.5</ele><time>2026-05-02T09:36:46Z</time></trkpt><trkpt lat="42.9471068" lon="12.0970833"><ele>583.3333333333334</ele><time>2026-05-02T09:36:47Z</time></trkpt><trkpt lat="42.9470726" lon="12.0969853"><ele>581.1666666666666</ele><time>2026-05-02T09:36:48Z</time></trkpt><trkpt lat="42.947021" lon="12.0969063"><ele>579.0</ele><time>2026-05-02T09:36:49Z</time></trkpt><trkpt lat="42.9469572" lon="12.0968396"><ele>579.0</ele><time>2026-05-02T09:36:50Z</time></trkpt><trkpt lat="42.9468817" lon="12.0967703"><ele>579.0</ele><time>2026-05-02T09:36:51Z</time></trkpt><trkpt lat="42.9468043" lon="12.0966975"><ele>579.0</ele><time>2026-05-02T09:36:52Z</time></trkpt><trkpt lat="42.9467337" lon="12.0966414"><ele>579.0</ele><time>2026-05-02T09:36:52.999Z</time></trkpt><trkpt lat="42.9466681" lon="12.0965803"><ele>579.0</ele><time>2026-05-02T09:36:54Z</time></trkpt><trkpt lat="42.9465979" lon="12.0965084"><ele>579.0</ele><time>2026-05-02T09:36:55Z</time></trkpt><trkpt lat="42.9465036" lon="12.0964468"><ele>578.6666666666666</ele><time>2026-05-02T09:36:56Z</time></trkpt><trkpt lat="42.9464275" lon="12.096393"><ele>578.3333333333334</ele><time>2026-05-02T09:36:57Z</time></trkpt><trkpt lat="42.9463578" lon="12.0963342"><ele>578.0</ele><time>2026-05-02T09:36:57.999Z</time></trkpt><trkpt lat="42.9462985" lon="12.0962663"><ele>577.6666666666667</ele><time>2026-05-02T09:36:59Z</time></trkpt><trkpt lat="42.9462489" lon="12.0962092"><ele>577.3333333333334</ele><time>2026-05-02T09:37:00Z</time></trkpt><trkpt lat="42.9461899" lon="12.0960655"><ele>577.0</ele><time>2026-05-02T09:37:02Z</time></trkpt><trkpt lat="42.9461634" lon="12.0959136"><ele>577.0</ele><time>2026-05-02T09:37:04Z</time></trkpt><trkpt lat="42.9461562" lon="12.0958158"><ele>577.0</ele><time>2026-05-02T09:37:05Z</time></trkpt><trkpt lat="42.9461653" lon="12.0956565"><ele>577.0</ele><time>2026-05-02T09:37:06.999Z</time></trkpt><trkpt lat="42.9462009" lon="12.095509"><ele>577.0</ele><time>2026-05-02T09:37:09Z</time></trkpt><trkpt lat="42.9462636" lon="12.0953661"><ele>577.0</ele><time>2026-05-02T09:37:11Z</time></trkpt><trkpt lat="42.9463325" lon="12.0952439"><ele>574.0</ele><time>2026-05-02T09:37:13Z</time></trkpt><trkpt lat="42.94637" lon="12.0951114"><ele>571.0</ele><time>2026-05-02T09:37:15Z</time></trkpt><trkpt lat="42.9463379" lon="12.0949427"><ele>568.0</ele><time>2026-05-02T09:37:17Z</time></trkpt><trkpt lat="42.9462886" lon="12.0948267"><ele>565.0</ele><time>2026-05-02T09:37:18Z</time></trkpt><trkpt lat="42.9462418" lon="12.0946893"><ele>562.0</ele><time>2026-05-02T09:37:19Z</time></trkpt><trkpt lat="42.9462036" lon="12.0945786"><ele>560.3333333333334</ele><time>2026-05-02T09:37:20Z</time></trkpt><trkpt lat="42.9461697" lon="12.0944753"><ele>558.6666666666667</ele><time>2026-05-02T09:37:20.999Z</time></trkpt><trkpt lat="42.9461505" lon="12.0943729"><ele>557.0</ele><time>2026-05-02T09:37:22Z</time></trkpt><trkpt lat="42.9461262" lon="12.0942624"><ele>555.3333333333334</ele><time>2026-05-02T09:37:23Z</time></trkpt><trkpt lat="42.9460928" lon="12.0941483"><ele>553.6666666666666</ele><time>2026-05-02T09:37:24Z</time></trkpt><trkpt lat="42.9460552" lon="12.094049"><ele>552.0</ele><time>2026-05-02T09:37:25Z</time></trkpt><trkpt lat="42.9460093" lon="12.0939457"><ele>552.0</ele><time>2026-05-02T09:37:26Z</time></trkpt><trkpt lat="42.9459467" lon="12.0938148"><ele>552.0</ele><time>2026-05-02T09:37:27Z</time></trkpt><trkpt lat="42.9458734" lon="12.0936615"><ele>552.0</ele><time>2026-05-02T09:37:28Z</time></trkpt><trkpt lat="42.945795" lon="12.0935296"><ele>552.0</ele><time>2026-05-02T09:37:29Z</time></trkpt><trkpt lat="42.9457359" lon="12.0934187"><ele>552.0</ele><time>2026-05-02T09:37:30Z</time></trkpt><trkpt lat="42.9456833" lon="12.0933251"><ele>552.0</ele><time>2026-05-02T09:37:31Z</time></trkpt><trkpt lat="42.9456485" lon="12.0932518"><ele>552.0</ele><time>2026-05-02T09:37:31.999Z</time></trkpt><trkpt lat="42.9456063" lon="12.0931542"><ele>552.0</ele><time>2026-05-02T09:37:34Z</time></trkpt><trkpt lat="42.9456351" lon="12.0930657"><ele>552.0</ele><time>2026-05-02T09:37:40Z</time></trkpt><trkpt lat="42.9456986" lon="12.0930124"><ele>552.0</ele><time>2026-05-02T09:37:42Z</time></trkpt><trkpt lat="42.9457936" lon="12.0929861"><ele>550.1666666666666</ele><time>2026-05-02T09:37:44Z</time></trkpt><trkpt lat="42.9458597" lon="12.0929719"><ele>548.3333333333334</ele><time>2026-05-02T09:37:58Z</time></trkpt><trkpt lat="42.9459386" lon="12.092931"><ele>546.5</ele><time>2026-05-02T09:38:01Z</time></trkpt><trkpt lat="42.9458627" lon="12.0929695"><ele>544.6666666666667</ele><time>2026-05-02T09:38:07Z</time></trkpt><trkpt lat="42.9457427" lon="12.0930202"><ele>542.8333333333334</ele><time>2026-05-02T09:38:08.999Z</time></trkpt><trkpt lat="42.9456787" lon="12.0930476"><ele>541.0</ele><time>2026-05-02T09:38:10Z</time></trkpt><trkpt lat="42.9455893" lon="12.0930161"><ele>541.0</ele><time>2026-05-02T09:38:12Z</time></trkpt><trkpt lat="42.9455421" lon="12.0929267"><ele>541.0</ele><time>2026-05-02T09:38:13.999Z</time></trkpt><trkpt lat="42.9455488" lon="12.0928364"><ele>541.0</ele><time>2026-05-02T09:38:15.999Z</time></trkpt><trkpt lat="42.9455885" lon="12.0927406"><ele>541.0</ele><time>2026-05-02T09:38:18Z</time></trkpt><trkpt lat="42.9456369" lon="12.0926437"><ele>541.0</ele><time>2026-05-02T09:38:20Z</time></trkpt><trkpt lat="42.9456879" lon="12.0925552"><ele>541.0</ele><time>2026-05-02T09:38:22Z</time></trkpt><trkpt lat="42.9457855" lon="12.0924978"><ele>539.8</ele><time>2026-05-02T09:38:23.999Z</time></trkpt><trkpt lat="42.9458888" lon="12.0924474"><ele>538.6</ele><time>2026-05-02T09:38:26Z</time></trkpt><trkpt lat="42.9460102" lon="12.0923924"><ele>537.4</ele><time>2026-05-02T09:38:28Z</time></trkpt><trkpt lat="42.9460694" lon="12.0923584"><ele>536.2</ele><time>2026-05-02T09:38:29Z</time></trkpt><trkpt lat="42.946175" lon="12.092299"><ele>535.0</ele><time>2026-05-02T09:38:31Z</time></trkpt><trkpt lat="42.9462379" lon="12.0922537"><ele>533.0</ele><time>2026-05-02T09:38:33Z</time></trkpt><trkpt lat="42.9462938" lon="12.0922002"><ele>531.0</ele><time>2026-05-02T09:38:49Z</time></trkpt><trkpt lat="42.9463702" lon="12.092157"><ele>529.0</ele><time>2026-05-02T09:38:52Z</time></trkpt><trkpt lat="42.9464719" lon="12.0921198"><ele>527.0</ele><time>2026-05-02T09:38:54Z</time></trkpt><trkpt lat="42.9465372" lon="12.0921086"><ele>525.0</ele><time>2026-05-02T09:38:55Z</time></trkpt><trkpt lat="42.9466005" lon="12.0921049"><ele>523.0</ele><time>2026-05-02T09:38:56Z</time></trkpt><trkpt lat="42.9467355" lon="12.092145"><ele>522.1666666666667</ele><time>2026-05-02T09:38:58Z</time></trkpt><trkpt lat="42.9468059" lon="12.0921878"><ele>521.3333333333334</ele><time>2026-05-02T09:38:59Z</time></trkpt><trkpt lat="42.9468835" lon="12.0922519"><ele>520.5</ele><time>2026-05-02T09:39:00Z</time></trkpt><trkpt lat="42.9469601" lon="12.0923123"><ele>519.6666666666666</ele><time>2026-05-02T09:39:01Z</time></trkpt><trkpt lat="42.9470357" lon="12.0923716"><ele>518.8333333333333</ele><time>2026-05-02T09:39:02Z</time></trkpt><trkpt lat="42.94711" lon="12.0924334"><ele>518.0</ele><time>2026-05-02T09:39:03Z</time></trkpt><trkpt lat="42.9471856" lon="12.0924864"><ele>518.0</ele><time>2026-05-02T09:39:04Z</time></trkpt><trkpt lat="42.9472543" lon="12.0925472"><ele>518.0</ele><time>2026-05-02T09:39:05Z</time></trkpt><trkpt lat="42.9473106" lon="12.0925933"><ele>518.0</ele><time>2026-05-02T09:39:05.999Z</time></trkpt><trkpt lat="42.9473769" lon="12.0927377"><ele>518.0</ele><time>2026-05-02T09:39:08Z</time></trkpt><trkpt lat="42.947399" lon="12.0928299"><ele>518.0</ele><time>2026-05-02T09:39:09Z</time></trkpt><trkpt lat="42.9474226" lon="12.0929221"><ele>518.0</ele><time>2026-05-02T09:39:09.999Z</time></trkpt><trkpt lat="42.9474511" lon="12.0930379"><ele>518.0</ele><time>2026-05-02T09:39:12Z</time></trkpt><trkpt lat="42.9474795" lon="12.0931262"><ele>518.0</ele><time>2026-05-02T09:39:25Z</time></trkpt><trkpt lat="42.9474646" lon="12.0930388"><ele>518.0</ele><time>2026-05-02T09:39:32Z</time></trkpt><trkpt lat="42.9474283" lon="12.0929611"><ele>518.0</ele><time>2026-05-02T09:39:32.999Z</time></trkpt><trkpt lat="42.9474" lon="12.0928751"><ele>518.0</ele><time>2026-05-02T09:39:34Z</time></trkpt><trkpt lat="42.9473938" lon="12.0927712"><ele>518.0</ele><time>2026-05-02T09:39:35Z</time></trkpt><trkpt lat="42.9473717" lon="12.092639"><ele>518.0</ele><time>2026-05-02T09:39:37Z</time></trkpt><trkpt lat="42.9473451" lon="12.0925472"><ele>518.0</ele><time>2026-05-02T09:39:39Z</time></trkpt><trkpt lat="42.9472931" lon="12.0924555"><ele>518.0</ele><time>2026-05-02T09:39:40.999Z</time></trkpt><trkpt lat="42.9471862" lon="12.0923936"><ele>518.0</ele><time>2026-05-02T09:39:43Z</time></trkpt><trkpt lat="42.947131" lon="12.0923461"><ele>518.0</ele><time>2026-05-02T09:39:44Z</time></trkpt><trkpt lat="42.9470547" lon="12.0923007"><ele>518.0</ele><time>2026-05-02T09:39:45Z</time></trkpt><trkpt lat="42.9469948" lon="12.092246"><ele>518.0</ele><time>2026-05-02T09:39:46Z</time></trkpt><trkpt lat="42.9469003" lon="12.0921689"><ele>516.5714285714286</ele><time>2026-05-02T09:39:48Z</time></trkpt><trkpt lat="42.9468361" lon="12.0921199"><ele>515.1428571428571</ele><time>2026-05-02T09:39:50Z</time></trkpt><trkpt lat="42.9468135" lon="12.0920261"><ele>513.7142857142858</ele><time>2026-05-02T09:39:53.999Z</time></trkpt><trkpt lat="42.9468891" lon="12.0920722"><ele>512.2857142857142</ele><time>2026-05-02T09:39:58Z</time></trkpt><trkpt lat="42.9469697" lon="12.0921299"><ele>510.85714285714283</ele><time>2026-05-02T09:39:59.999Z</time></trkpt><trkpt lat="42.9470304" lon="12.0921659"><ele>509.42857142857144</ele><time>2026-05-02T09:40:01Z</time></trkpt><trkpt lat="42.9470881" lon="12.0922011"><ele>508.0</ele><time>2026-05-02T09:40:02Z</time></trkpt><trkpt lat="42.9471453" lon="12.0922397"><ele>508.0</ele><time>2026-05-02T09:40:03Z</time></trkpt><trkpt lat="42.9472087" lon="12.0922836"><ele>507.99999999999994</ele><time>2026-05-02T09:40:04Z</time></trkpt><trkpt lat="42.947273" lon="12.0923237"><ele>507.99999999999994</ele><time>2026-05-02T09:40:05Z</time></trkpt><trkpt lat="42.9473872" lon="12.0923997"><ele>508.0</ele><time>2026-05-02T09:40:06.999Z</time></trkpt><trkpt lat="42.9474799" lon="12.0924804"><ele>508.0</ele><time>2026-05-02T09:40:09Z</time></trkpt><trkpt lat="42.9475666" lon="12.0925074"><ele>504.79999999999995</ele><time>2026-05-02T09:40:10.999Z</time></trkpt><trkpt lat="42.9476331" lon="12.0924606"><ele>501.59999999999997</ele><time>2026-05-02T09:40:13Z</time></trkpt><trkpt lat="42.9476656" lon="12.0923393"><ele>498.40000000000003</ele><time>2026-05-02T09:40:15Z</time></trkpt><trkpt lat="42.9476469" lon="12.0921775"><ele>495.20000000000005</ele><time>2026-05-02T09:40:17Z</time></trkpt><trkpt lat="42.9475992" lon="12.0920247"><ele>492.0</ele><time>2026-05-02T09:40:19Z</time></trkpt><trkpt lat="42.9475803" lon="12.0919056"><ele>492.0</ele><time>2026-05-02T09:40:21Z</time></trkpt><trkpt lat="42.9476211" lon="12.0917951"><ele>492.00000000000006</ele><time>2026-05-02T09:40:22.999Z</time></trkpt><trkpt lat="42.9477219" lon="12.0916833"><ele>492.00000000000006</ele><time>2026-05-02T09:40:25Z</time></trkpt><trkpt lat="42.9477885" lon="12.0916274"><ele>492.0</ele><time>2026-05-02T09:40:26Z</time></trkpt><trkpt lat="42.9478625" lon="12.0915712"><ele>492.0</ele><time>2026-05-02T09:40:27Z</time></trkpt><trkpt lat="42.9479305" lon="12.09152"><ele>490.5</ele><time>2026-05-02T09:40:28Z</time></trkpt><trkpt lat="42.9480136" lon="12.0914638"><ele>489.0</ele><time>2026-05-02T09:40:29Z</time></trkpt><trkpt lat="42.9480913" lon="12.0914318"><ele>487.5</ele><time>2026-05-02T09:40:30Z</time></trkpt><trkpt lat="42.9481733" lon="12.0914157"><ele>486.0</ele><time>2026-05-02T09:40:31Z</time></trkpt><trkpt lat="42.9482416" lon="12.0914202"><ele>484.5</ele><time>2026-05-02T09:40:32Z</time></trkpt><trkpt lat="42.9483441" lon="12.0914498"><ele>483.0</ele><time>2026-05-02T09:40:34Z</time></trkpt><trkpt lat="42.9484146" lon="12.0913968"><ele>480.4</ele><time>2026-05-02T09:40:36Z</time></trkpt><trkpt lat="42.9484343" lon="12.0912667"><ele>477.79999999999995</ele><time>2026-05-02T09:40:38Z</time></trkpt><trkpt lat="42.9484488" lon="12.0911073"><ele>475.2</ele><time>2026-05-02T09:40:40Z</time></trkpt><trkpt lat="42.9484756" lon="12.0909567"><ele>472.6</ele><time>2026-05-02T09:40:42Z</time></trkpt><trkpt lat="42.948558" lon="12.0908436"><ele>470.0</ele><time>2026-05-02T09:40:44Z</time></trkpt><trkpt lat="42.9486211" lon="12.090819"><ele>469.99999999999994</ele><time>2026-05-02T09:40:45Z</time></trkpt><trkpt lat="42.9486934" lon="12.0908053"><ele>470.0</ele><time>2026-05-02T09:40:45.999Z</time></trkpt><trkpt lat="42.9487737" lon="12.0908025"><ele>470.0</ele><time>2026-05-02T09:40:46.999Z</time></trkpt><trkpt lat="42.9488605" lon="12.090777"><ele>470.0</ele><time>2026-05-02T09:40:48Z</time></trkpt><trkpt lat="42.9489469" lon="12.0907296"><ele>469.99999999999994</ele><time>2026-05-02T09:40:49Z</time></trkpt><trkpt lat="42.949049" lon="12.0906837"><ele>470.0</ele><time>2026-05-02T09:40:50Z</time></trkpt><trkpt lat="42.9491483" lon="12.0906415"><ele>468.2</ele><time>2026-05-02T09:40:50.999Z</time></trkpt><trkpt lat="42.949256" lon="12.0905945"><ele>466.4</ele><time>2026-05-02T09:40:51.999Z</time></trkpt><trkpt lat="42.9493648" lon="12.0905464"><ele>464.6</ele><time>2026-05-02T09:40:53Z</time></trkpt><trkpt lat="42.9494696" lon="12.0904827"><ele>462.8</ele><time>2026-05-02T09:40:54Z</time></trkpt><trkpt lat="42.9495688" lon="12.0904274"><ele>461.0</ele><time>2026-05-02T09:40:55Z</time></trkpt><trkpt lat="42.9496664" lon="12.0903813"><ele>461.0</ele><time>2026-05-02T09:40:56Z</time></trkpt><trkpt lat="42.9497742" lon="12.0903312"><ele>461.0</ele><time>2026-05-02T09:40:56.999Z</time></trkpt><trkpt lat="42.9498871" lon="12.0902985"><ele>461.0</ele><time>2026-05-02T09:40:57.999Z</time></trkpt><trkpt lat="42.9499981" lon="12.0902558"><ele>461.0</ele><time>2026-05-02T09:40:59Z</time></trkpt><trkpt lat="42.9501056" lon="12.0902213"><ele>458.75</ele><time>2026-05-02T09:41:00Z</time></trkpt><trkpt lat="42.9502137" lon="12.0901768"><ele>456.5</ele><time>2026-05-02T09:41:01Z</time></trkpt><trkpt lat="42.9503295" lon="12.090122"><ele>454.25</ele><time>2026-05-02T09:41:02Z</time></trkpt><trkpt lat="42.9504423" lon="12.0900567"><ele>452.0</ele><time>2026-05-02T09:41:02.999Z</time></trkpt><trkpt lat="42.9505496" lon="12.0899902"><ele>452.0</ele><time>2026-05-02T09:41:04Z</time></trkpt><trkpt lat="42.9506515" lon="12.0899274"><ele>452.00000000000006</ele><time>2026-05-02T09:41:05Z</time></trkpt><trkpt lat="42.950746" lon="12.0898714"><ele>452.00000000000006</ele><time>2026-05-02T09:41:06Z</time></trkpt><trkpt lat="42.950842" lon="12.0898184"><ele>452.0</ele><time>2026-05-02T09:41:06.999Z</time></trkpt><trkpt lat="42.9509276" lon="12.0897707"><ele>452.0</ele><time>2026-05-02T09:41:08Z</time></trkpt><trkpt lat="42.9510138" lon="12.0897135"><ele>449.49999999999994</ele><time>2026-05-02T09:41:09Z</time></trkpt><trkpt lat="42.9510921" lon="12.0896719"><ele>447.0</ele><time>2026-05-02T09:41:10Z</time></trkpt><trkpt lat="42.9511733" lon="12.0896166"><ele>444.5</ele><time>2026-05-02T09:41:11Z</time></trkpt><trkpt lat="42.9512469" lon="12.0895606"><ele>442.0</ele><time>2026-05-02T09:41:12Z</time></trkpt><trkpt lat="42.9513229" lon="12.0895001"><ele>439.49999999999994</ele><time>2026-05-02T09:41:12.999Z</time></trkpt><trkpt lat="42.9514069" lon="12.0894437"><ele>437.0</ele><time>2026-05-02T09:41:14Z</time></trkpt><trkpt lat="42.9514907" lon="12.089399"><ele>437.0</ele><time>2026-05-02T09:41:15Z</time></trkpt><trkpt lat="42.9515845" lon="12.0893625"><ele>437.00000000000006</ele><time>2026-05-02T09:41:16Z</time></trkpt><trkpt lat="42.9516796" lon="12.0893371"><ele>437.00000000000006</ele><time>2026-05-02T09:41:17Z</time></trkpt><trkpt lat="42.9517773" lon="12.0893097"><ele>437.0</ele><time>2026-05-02T09:41:17.999Z</time></trkpt><trkpt lat="42.95187" lon="12.0892787"><ele>437.0</ele><time>2026-05-02T09:41:18.999Z</time></trkpt><trkpt lat="42.9519526" lon="12.0892583"><ele>434.99999999999994</ele><time>2026-05-02T09:41:20Z</time></trkpt><trkpt lat="42.9520236" lon="12.0892335"><ele>433.0</ele><time>2026-05-02T09:41:21Z</time></trkpt><trkpt lat="42.9520903" lon="12.0892236"><ele>431.0</ele><time>2026-05-02T09:41:22Z</time></trkpt><trkpt lat="42.9522094" lon="12.0892103"><ele>429.0</ele><time>2026-05-02T09:41:24Z</time></trkpt><trkpt lat="42.9522971" lon="12.0891732"><ele>426.99999999999994</ele><time>2026-05-02T09:41:25.999Z</time></trkpt><trkpt lat="42.9523282" lon="12.0890901"><ele>425.0</ele><time>2026-05-02T09:41:28Z</time></trkpt><trkpt lat="42.9522861" lon="12.088982"><ele>421.4</ele><time>2026-05-02T09:41:30Z</time></trkpt><trkpt lat="42.952161" lon="12.0889082"><ele>417.8</ele><time>2026-05-02T09:41:32Z</time></trkpt><trkpt lat="42.9520809" lon="12.088869"><ele>414.20000000000005</ele><time>2026-05-02T09:41:33Z</time></trkpt><trkpt lat="42.9520043" lon="12.0888153"><ele>410.6</ele><time>2026-05-02T09:41:34Z</time></trkpt><trkpt lat="42.9519274" lon="12.0887545"><ele>407.0</ele><time>2026-05-02T09:41:34.999Z</time></trkpt><trkpt lat="42.9518627" lon="12.0886921"><ele>406.99999999999994</ele><time>2026-05-02T09:41:36Z</time></trkpt><trkpt lat="42.9517901" lon="12.0886281"><ele>407.0</ele><time>2026-05-02T09:41:37Z</time></trkpt><trkpt lat="42.9517254" lon="12.0885663"><ele>407.0</ele><time>2026-05-02T09:41:38Z</time></trkpt><trkpt lat="42.9516452" lon="12.088522"><ele>407.0</ele><time>2026-05-02T09:41:39Z</time></trkpt><trkpt lat="42.9515723" lon="12.088488"><ele>406.99999999999994</ele><time>2026-05-02T09:41:40Z</time></trkpt><trkpt lat="42.9515007" lon="12.0884612"><ele>407.0</ele><time>2026-05-02T09:41:41Z</time></trkpt><trkpt lat="42.9514372" lon="12.088402"><ele>406.75</ele><time>2026-05-02T09:41:43Z</time></trkpt><trkpt lat="42.9514839" lon="12.0882749"><ele>406.5</ele><time>2026-05-02T09:41:45.999Z</time></trkpt><trkpt lat="42.9515979" lon="12.088193"><ele>406.25</ele><time>2026-05-02T09:41:48Z</time></trkpt><trkpt lat="42.9517028" lon="12.0881205"><ele>406.0</ele><time>2026-05-02T09:41:50Z</time></trkpt><trkpt lat="42.9517598" lon="12.0880092"><ele>406.0</ele><time>2026-05-02T09:41:52Z</time></trkpt><trkpt lat="42.9517621" lon="12.0878803"><ele>406.0</ele><time>2026-05-02T09:41:53.999Z</time></trkpt><trkpt lat="42.9517015" lon="12.087738"><ele>406.0</ele><time>2026-05-02T09:41:56Z</time></trkpt><trkpt lat="42.9516463" lon="12.087656"><ele>406.0</ele><time>2026-05-02T09:41:57Z</time></trkpt><trkpt lat="42.9515832" lon="12.0875819"><ele>406.0</ele><time>2026-05-02T09:41:58Z</time></trkpt><trkpt lat="42.9515199" lon="12.0875017"><ele>407.6666666666667</ele><time>2026-05-02T09:41:58.999Z</time></trkpt><trkpt lat="42.9514628" lon="12.0874101"><ele>409.33333333333337</ele><time>2026-05-02T09:41:59.999Z</time></trkpt><trkpt lat="42.951408" lon="12.0873259"><ele>411.0</ele><time>2026-05-02T09:42:01Z</time></trkpt><trkpt lat="42.9513457" lon="12.0872383"><ele>412.66666666666663</ele><time>2026-05-02T09:42:01.999Z</time></trkpt><trkpt lat="42.95129" lon="12.0871691"><ele>414.3333333333333</ele><time>2026-05-02T09:42:03Z</time></trkpt><trkpt lat="42.9512394" lon="12.0871087"><ele>416.0</ele><time>2026-05-02T09:42:04Z</time></trkpt><trkpt lat="42.9511783" lon="12.0870572"><ele>415.99999999999994</ele><time>2026-05-02T09:42:05Z</time></trkpt><trkpt lat="42.9511187" lon="12.0870094"><ele>416.0</ele><time>2026-05-02T09:42:05.999Z</time></trkpt><trkpt lat="42.951086" lon="12.0868981"><ele>416.0</ele><time>2026-05-02T09:42:08Z</time></trkpt><trkpt lat="42.9511214" lon="12.0868184"><ele>416.0</ele><time>2026-05-02T09:42:10Z</time></trkpt><trkpt lat="42.9512037" lon="12.0868163"><ele>415.99999999999994</ele><time>2026-05-02T09:42:13Z</time></trkpt><trkpt lat="42.9512735" lon="12.0868317"><ele>416.0</ele><time>2026-05-02T09:42:15Z</time></trkpt><trkpt lat="42.9513533" lon="12.0868523"><ele>416.0</ele><time>2026-05-02T09:42:17Z</time></trkpt><trkpt lat="42.9514471" lon="12.0869237"><ele>416.0</ele><time>2026-05-02T09:42:19Z</time></trkpt><trkpt lat="42.9515472" lon="12.086966"><ele>416.0</ele><time>2026-05-02T09:42:21Z</time></trkpt><trkpt lat="42.9516597" lon="12.086979"><ele>416.0</ele><time>2026-05-02T09:42:23Z</time></trkpt><trkpt lat="42.9517866" lon="12.0869874"><ele>416.99999999999994</ele><time>2026-05-02T09:42:25Z</time></trkpt><trkpt lat="42.9518564" lon="12.086994"><ele>418.0</ele><time>2026-05-02T09:42:26Z</time></trkpt><trkpt lat="42.9519694" lon="12.0869964"><ele>419.0</ele><time>2026-05-02T09:42:28Z</time></trkpt><trkpt lat="42.952033" lon="12.0869863"><ele>420.0</ele><time>2026-05-02T09:42:29Z</time></trkpt><trkpt lat="42.9521033" lon="12.0869819"><ele>420.99999999999994</ele><time>2026-05-02T09:42:29.999Z</time></trkpt><trkpt lat="42.9521822" lon="12.0869955"><ele>422.0</ele><time>2026-05-02T09:42:31Z</time></trkpt><trkpt lat="42.9522582" lon="12.0869955"><ele>421.99999999999994</ele><time>2026-05-02T09:42:32Z</time></trkpt><trkpt lat="42.9523458" lon="12.0869913"><ele>422.0</ele><time>2026-05-02T09:42:32.999Z</time></trkpt><trkpt lat="42.9524355" lon="12.0869969"><ele>422.0</ele><time>2026-05-02T09:42:34Z</time></trkpt><trkpt lat="42.952518" lon="12.087001"><ele>422.0</ele><time>2026-05-02T09:42:35Z</time></trkpt><trkpt lat="42.9526056" lon="12.0869822"><ele>421.99999999999994</ele><time>2026-05-02T09:42:35.999Z</time></trkpt><trkpt lat="42.9526887" lon="12.0869476"><ele>422.0</ele><time>2026-05-02T09:42:37Z</time></trkpt><trkpt lat="42.952766" lon="12.086892"><ele>422.0</ele><time>2026-05-02T09:42:38Z</time></trkpt><trkpt lat="42.9528381" lon="12.0868366"><ele>422.0</ele><time>2026-05-02T09:42:39Z</time></trkpt><trkpt lat="42.9528935" lon="12.0867746"><ele>422.0</ele><time>2026-05-02T09:42:40Z</time></trkpt><trkpt lat="42.9529462" lon="12.0867044"><ele>422.0</ele><time>2026-05-02T09:42:41Z</time></trkpt><trkpt lat="42.953007" lon="12.08665"><ele>422.0</ele><time>2026-05-02T09:42:42Z</time></trkpt><trkpt lat="42.9530651" lon="12.0866071"><ele>422.0</ele><time>2026-05-02T09:42:43Z</time></trkpt><trkpt lat="42.9531291" lon="12.0865733"><ele>422.0</ele><time>2026-05-02T09:42:43.999Z</time></trkpt><trkpt lat="42.9532215" lon="12.0864775"><ele>421.66666666666663</ele><time>2026-05-02T09:42:46Z</time></trkpt><trkpt lat="42.9532553" lon="12.0863519"><ele>421.3333333333333</ele><time>2026-05-02T09:42:48Z</time></trkpt><trkpt lat="42.9532709" lon="12.0862615"><ele>421.0</ele><time>2026-05-02T09:42:51Z</time></trkpt><trkpt lat="42.9532978" lon="12.0861465"><ele>420.66666666666663</ele><time>2026-05-02T09:42:54Z</time></trkpt><trkpt lat="42.9533177" lon="12.0860363"><ele>420.3333333333333</ele><time>2026-05-02T09:42:57Z</time></trkpt><trkpt lat="42.9533301" lon="12.0859389"><ele>420.0</ele><time>2026-05-02T09:43:00Z</time></trkpt><trkpt lat="42.9533553" lon="12.0858497"><ele>420.0</ele><time>2026-05-02T09:43:07Z</time></trkpt><trkpt lat="42.9533517" lon="12.0859382"><ele>420.0</ele><time>2026-05-02T09:43:21Z</time></trkpt><trkpt lat="42.9533366" lon="12.0860291"><ele>420.0</ele><time>2026-05-02T09:43:23Z</time></trkpt><trkpt lat="42.9533233" lon="12.0861262"><ele>420.0</ele><time>2026-05-02T09:43:25Z</time></trkpt><trkpt lat="42.9532695" lon="12.0862195"><ele>420.0</ele><time>2026-05-02T09:43:28Z</time></trkpt><trkpt lat="42.9531984" lon="12.0862115"><ele>420.0</ele><time>2026-05-02T09:43:38Z</time></trkpt><trkpt lat="42.9531042" lon="12.0861572"><ele>420.0</ele><time>2026-05-02T09:43:39.999Z</time></trkpt><trkpt lat="42.9529861" lon="12.0860863"><ele>420.0</ele><time>2026-05-02T09:43:42Z</time></trkpt><trkpt lat="42.9528738" lon="12.0860073"><ele>420.0</ele><time>2026-05-02T09:43:44Z</time></trkpt><trkpt lat="42.9528162" lon="12.0859669"><ele>420.0</ele><time>2026-05-02T09:43:45Z</time></trkpt><trkpt lat="42.9527506" lon="12.0859254"><ele>420.0</ele><time>2026-05-02T09:43:45.999Z</time></trkpt><trkpt lat="42.952681" lon="12.085877"><ele>420.0</ele><time>2026-05-02T09:43:47Z</time></trkpt><trkpt lat="42.9526136" lon="12.0858257"><ele>420.0</ele><time>2026-05-02T09:43:48Z</time></trkpt><trkpt lat="42.9525454" lon="12.0857773"><ele>420.0</ele><time>2026-05-02T09:43:49Z</time></trkpt><trkpt lat="42.9524797" lon="12.0857318"><ele>420.0</ele><time>2026-05-02T09:43:49.999Z</time></trkpt><trkpt lat="42.9524199" lon="12.0856894"><ele>420.0</ele><time>2026-05-02T09:43:51Z</time></trkpt><trkpt lat="42.9523584" lon="12.0856455"><ele>420.0</ele><time>2026-05-02T09:43:52Z</time></trkpt><trkpt lat="42.9522999" lon="12.0855975"><ele>420.0</ele><time>2026-05-02T09:43:53Z</time></trkpt><trkpt lat="42.9522436" lon="12.0855512"><ele>420.8333333333333</ele><time>2026-05-02T09:43:54Z</time></trkpt><trkpt lat="42.9521709" lon="12.0855065"><ele>421.66666666666663</ele><time>2026-05-02T09:43:55Z</time></trkpt><trkpt lat="42.9521055" lon="12.0854593"><ele>422.5</ele><time>2026-05-02T09:43:56Z</time></trkpt><trkpt lat="42.9520359" lon="12.085412"><ele>423.3333333333333</ele><time>2026-05-02T09:43:57Z</time></trkpt><trkpt lat="42.9519606" lon="12.0853596"><ele>424.16666666666663</ele><time>2026-05-02T09:43:58Z</time></trkpt><trkpt lat="42.9518912" lon="12.0853032"><ele>425.0</ele><time>2026-05-02T09:43:58.999Z</time></trkpt><trkpt lat="42.9518232" lon="12.0852425"><ele>424.99999999999994</ele><time>2026-05-02T09:44:00Z</time></trkpt><trkpt lat="42.9517507" lon="12.0851836"><ele>425.0</ele><time>2026-05-02T09:44:01Z</time></trkpt><trkpt lat="42.9516833" lon="12.0851328"><ele>425.0</ele><time>2026-05-02T09:44:02Z</time></trkpt><trkpt lat="42.9516183" lon="12.0850851"><ele>425.0</ele><time>2026-05-02T09:44:03Z</time></trkpt><trkpt lat="42.9515016" lon="12.085001"><ele>424.99999999999994</ele><time>2026-05-02T09:44:05Z</time></trkpt><trkpt lat="42.9514339" lon="12.0849567"><ele>425.0</ele><time>2026-05-02T09:44:06Z</time></trkpt><trkpt lat="42.9513568" lon="12.0849096"><ele>426.3333333333333</ele><time>2026-05-02T09:44:07Z</time></trkpt><trkpt lat="42.9512894" lon="12.0848587"><ele>427.66666666666663</ele><time>2026-05-02T09:44:07.999Z</time></trkpt><trkpt lat="42.9512257" lon="12.0848067"><ele>429.0</ele><time>2026-05-02T09:44:09Z</time></trkpt><trkpt lat="42.9511621" lon="12.0847449"><ele>430.33333333333337</ele><time>2026-05-02T09:44:10Z</time></trkpt><trkpt lat="42.951089" lon="12.0846654"><ele>431.6666666666667</ele><time>2026-05-02T09:44:11Z</time></trkpt><trkpt lat="42.9510254" lon="12.0845915"><ele>433.0</ele><time>2026-05-02T09:44:12Z</time></trkpt><trkpt lat="42.9509618" lon="12.0845217"><ele>433.00000000000006</ele><time>2026-05-02T09:44:12.999Z</time></trkpt><trkpt lat="42.9509108" lon="12.0844634"><ele>433.0</ele><time>2026-05-02T09:44:13.999Z</time></trkpt><trkpt lat="42.9508544" lon="12.0843992"><ele>433.0</ele><time>2026-05-02T09:44:15Z</time></trkpt><trkpt lat="42.9507618" lon="12.084274"><ele>433.0</ele><time>2026-05-02T09:44:17Z</time></trkpt><trkpt lat="42.9507171" lon="12.0842026"><ele>433.00000000000006</ele><time>2026-05-02T09:44:18Z</time></trkpt><trkpt lat="42.9506602" lon="12.0841442"><ele>433.0</ele><time>2026-05-02T09:44:19Z</time></trkpt><trkpt lat="42.950593" lon="12.0840778"><ele>433.1666666666667</ele><time>2026-05-02T09:44:19.999Z</time></trkpt><trkpt lat="42.9505504" lon="12.0840144"><ele>433.33333333333337</ele><time>2026-05-02T09:44:20.999Z</time></trkpt><trkpt lat="42.9504983" lon="12.0839624"><ele>433.5</ele><time>2026-05-02T09:44:21.999Z</time></trkpt><trkpt lat="42.9504437" lon="12.0838985"><ele>433.66666666666663</ele><time>2026-05-02T09:44:22.999Z</time></trkpt><trkpt lat="42.9503559" lon="12.0837986"><ele>433.8333333333333</ele><time>2026-05-02T09:44:25Z</time></trkpt><trkpt lat="42.9502966" lon="12.0837103"><ele>434.0</ele><time>2026-05-02T09:44:27Z</time></trkpt><trkpt lat="42.950269" lon="12.0836085"><ele>433.99999999999994</ele><time>2026-05-02T09:44:29Z</time></trkpt><trkpt lat="42.9502827" lon="12.0835022"><ele>434.0</ele><time>2026-05-02T09:44:30.999Z</time></trkpt><trkpt lat="42.9502801" lon="12.0834059"><ele>434.0</ele><time>2026-05-02T09:44:35Z</time></trkpt><trkpt lat="42.9502449" lon="12.0832961"><ele>434.0</ele><time>2026-05-02T09:44:51Z</time></trkpt><trkpt lat="42.9502074" lon="12.0831988"><ele>433.99999999999994</ele><time>2026-05-02T09:44:53Z</time></trkpt><trkpt lat="42.9501645" lon="12.08307"><ele>434.0</ele><time>2026-05-02T09:44:55Z</time></trkpt><trkpt lat="42.9501292" lon="12.0829415"><ele>432.49999999999994</ele><time>2026-05-02T09:44:57Z</time></trkpt><trkpt lat="42.9501392" lon="12.0828184"><ele>431.0</ele><time>2026-05-02T09:44:59Z</time></trkpt><trkpt lat="42.9501745" lon="12.0826991"><ele>429.5</ele><time>2026-05-02T09:45:01Z</time></trkpt><trkpt lat="42.9502163" lon="12.0826242"><ele>428.0</ele><time>2026-05-02T09:45:03Z</time></trkpt><trkpt lat="42.9502313" lon="12.0825175"><ele>426.49999999999994</ele><time>2026-05-02T09:45:05Z</time></trkpt><trkpt lat="42.9502397" lon="12.0824151"><ele>425.0</ele><time>2026-05-02T09:45:08Z</time></trkpt><trkpt lat="42.9502683" lon="12.0823135"><ele>424.8333333333333</ele><time>2026-05-02T09:45:12Z</time></trkpt><trkpt lat="42.9503237" lon="12.0822285"><ele>424.66666666666663</ele><time>2026-05-02T09:45:14.999Z</time></trkpt><trkpt lat="42.9503664" lon="12.0821621"><ele>424.5</ele><time>2026-05-02T09:45:27Z</time></trkpt><trkpt lat="42.9504123" lon="12.0820878"><ele>424.33333333333337</ele><time>2026-05-02T09:45:29Z</time></trkpt><trkpt lat="42.9504572" lon="12.0819639"><ele>424.1666666666667</ele><time>2026-05-02T09:45:31Z</time></trkpt><trkpt lat="42.9505143" lon="12.0818586"><ele>424.0</ele><time>2026-05-02T09:45:33Z</time></trkpt><trkpt lat="42.9505773" lon="12.0818254"><ele>424.0</ele><time>2026-05-02T09:45:34.999Z</time></trkpt><trkpt lat="42.9506585" lon="12.0817995"><ele>424.0</ele><time>2026-05-02T09:45:37Z</time></trkpt><trkpt lat="42.9507294" lon="12.0817732"><ele>424.0</ele><time>2026-05-02T09:45:39Z</time></trkpt><trkpt lat="42.9508089" lon="12.0817559"><ele>424.0</ele><time>2026-05-02T09:45:40.999Z</time></trkpt><trkpt lat="42.9509174" lon="12.0817348"><ele>424.0</ele><time>2026-05-02T09:45:42.999Z</time></trkpt><trkpt lat="42.9510953" lon="12.0817381"><ele>422.6666666666667</ele><time>2026-05-02T09:45:47Z</time></trkpt><trkpt lat="42.9511837" lon="12.0817485"><ele>421.33333333333337</ele><time>2026-05-02T09:45:48.999Z</time></trkpt><trkpt lat="42.9512637" lon="12.0817307"><ele>420.0</ele><time>2026-05-02T09:45:51Z</time></trkpt><trkpt lat="42.9513373" lon="12.081696"><ele>418.66666666666663</ele><time>2026-05-02T09:45:53Z</time></trkpt><trkpt lat="42.951422" lon="12.0816653"><ele>417.3333333333333</ele><time>2026-05-02T09:45:56Z</time></trkpt><trkpt lat="42.9514897" lon="12.0816631"><ele>416.0</ele><time>2026-05-02T09:45:58Z</time></trkpt><trkpt lat="42.9515771" lon="12.0816785"><ele>415.99999999999994</ele><time>2026-05-02T09:45:59.999Z</time></trkpt><trkpt lat="42.9516748" lon="12.0817313"><ele>416.0</ele><time>2026-05-02T09:46:02Z</time></trkpt><trkpt lat="42.9517611" lon="12.0817685"><ele>416.0</ele><time>2026-05-02T09:46:04Z</time></trkpt><trkpt lat="42.9518363" lon="12.08177"><ele>416.0</ele><time>2026-05-02T09:46:06Z</time></trkpt><trkpt lat="42.9519114" lon="12.0817724"><ele>415.99999999999994</ele><time>2026-05-02T09:46:08.999Z</time></trkpt><trkpt lat="42.9519919" lon="12.0818027"><ele>416.0</ele><time>2026-05-02T09:46:13Z</time></trkpt><trkpt lat="42.9520487" lon="12.081846"><ele>414.49999999999994</ele><time>2026-05-02T09:46:15Z</time></trkpt><trkpt lat="42.9521199" lon="12.0819183"><ele>413.0</ele><time>2026-05-02T09:46:17Z</time></trkpt><trkpt lat="42.9522042" lon="12.0819562"><ele>411.5</ele><time>2026-05-02T09:46:19Z</time></trkpt><trkpt lat="42.9522886" lon="12.0819833"><ele>410.0</ele><time>2026-05-02T09:46:21Z</time></trkpt><trkpt lat="42.9523499" lon="12.0820173"><ele>408.49999999999994</ele><time>2026-05-02T09:46:23Z</time></trkpt><trkpt lat="42.952442" lon="12.0820349"><ele>407.0</ele><time>2026-05-02T09:46:25.999Z</time></trkpt><trkpt lat="42.9525232" lon="12.0820642"><ele>405.8333333333333</ele><time>2026-05-02T09:46:28Z</time></trkpt><trkpt lat="42.9526106" lon="12.0820874"><ele>404.66666666666663</ele><time>2026-05-02T09:48:17Z</time></trkpt><trkpt lat="42.9526752" lon="12.0821039"><ele>403.5</ele><time>2026-05-02T09:48:22.999Z</time></trkpt><trkpt lat="42.9527672" lon="12.0821639"><ele>402.33333333333337</ele><time>2026-05-02T09:48:26Z</time></trkpt><trkpt lat="42.9528484" lon="12.0822181"><ele>401.1666666666667</ele><time>2026-05-02T09:48:28Z</time></trkpt><trkpt lat="42.952925" lon="12.0822654"><ele>400.0</ele><time>2026-05-02T09:48:30Z</time></trkpt><trkpt lat="42.9530223" lon="12.0823365"><ele>400.00000000000006</ele><time>2026-05-02T09:48:32Z</time></trkpt><trkpt lat="42.9531068" lon="12.0823899"><ele>400.0</ele><time>2026-05-02T09:48:34Z</time></trkpt><trkpt lat="42.9531835" lon="12.0824111"><ele>400.0</ele><time>2026-05-02T09:48:35.999Z</time></trkpt><trkpt lat="42.9532517" lon="12.082446"><ele>400.0</ele><time>2026-05-02T09:48:38Z</time></trkpt><trkpt lat="42.9533133" lon="12.0824845"><ele>400.00000000000006</ele><time>2026-05-02T09:48:40Z</time></trkpt><trkpt lat="42.9533741" lon="12.0825222"><ele>400.0</ele><time>2026-05-02T09:48:42Z</time></trkpt><trkpt lat="42.9534391" lon="12.0825656"><ele>399.4</ele><time>2026-05-02T09:48:44Z</time></trkpt><trkpt lat="42.953523" lon="12.0825945"><ele>398.8</ele><time>2026-05-02T09:48:45.999Z</time></trkpt><trkpt lat="42.953612" lon="12.0826188"><ele>398.20000000000005</ele><time>2026-05-02T09:48:59.999Z</time></trkpt><trkpt lat="42.9537246" lon="12.0827172"><ele>397.6</ele><time>2026-05-02T09:49:02Z</time></trkpt><trkpt lat="42.9538347" lon="12.0828077"><ele>397.0</ele><time>2026-05-02T09:49:04Z</time></trkpt><trkpt lat="42.9538975" lon="12.0828459"><ele>397.0</ele><time>2026-05-02T09:49:05Z</time></trkpt><trkpt lat="42.9539848" lon="12.082921"><ele>397.0</ele><time>2026-05-02T09:49:07Z</time></trkpt><trkpt lat="42.9540346" lon="12.0829752"><ele>397.0</ele><time>2026-05-02T09:49:08Z</time></trkpt><trkpt lat="42.9541214" lon="12.0830404"><ele>397.0</ele><time>2026-05-02T09:49:10Z</time></trkpt><trkpt lat="42.9542069" lon="12.08307"><ele>397.0</ele><time>2026-05-02T09:49:11.999Z</time></trkpt><trkpt lat="42.9542949" lon="12.0831226"><ele>396.6666666666667</ele><time>2026-05-02T09:49:14Z</time></trkpt><trkpt lat="42.9543836" lon="12.0831733"><ele>396.33333333333337</ele><time>2026-05-02T09:49:16.999Z</time></trkpt><trkpt lat="42.954445" lon="12.0832036"><ele>396.0</ele><time>2026-05-02T09:49:19Z</time></trkpt><trkpt lat="42.9545183" lon="12.0832506"><ele>395.66666666666663</ele><time>2026-05-02T09:49:21Z</time></trkpt><trkpt lat="42.9545844" lon="12.0832973"><ele>395.3333333333333</ele><time>2026-05-02T09:49:23Z</time></trkpt><trkpt lat="42.9546447" lon="12.0833371"><ele>395.0</ele><time>2026-05-02T09:49:25Z</time></trkpt><trkpt lat="42.9547213" lon="12.0833656"><ele>394.6</ele><time>2026-05-02T09:49:26.999Z</time></trkpt><trkpt lat="42.9548256" lon="12.0834123"><ele>394.2</ele><time>2026-05-02T09:49:29Z</time></trkpt><trkpt lat="42.9548848" lon="12.0834521"><ele>393.79999999999995</ele><time>2026-05-02T09:49:30Z</time></trkpt><trkpt lat="42.9549481" lon="12.083484"><ele>393.4</ele><time>2026-05-02T09:49:30.999Z</time></trkpt><trkpt lat="42.955062" lon="12.0835338"><ele>393.0</ele><time>2026-05-02T09:49:33Z</time></trkpt><trkpt lat="42.9551564" lon="12.0835679"><ele>393.0</ele><time>2026-05-02T09:49:35Z</time></trkpt><trkpt lat="42.9552352" lon="12.0835755"><ele>393.0</ele><time>2026-05-02T09:49:36.999Z</time></trkpt><trkpt lat="42.9553026" lon="12.0835441"><ele>393.0</ele><time>2026-05-02T09:49:39Z</time></trkpt><trkpt lat="42.9553693" lon="12.0835062"><ele>393.0</ele><time>2026-05-02T09:49:41Z</time></trkpt><trkpt lat="42.9554728" lon="12.083491"><ele>393.0</ele><time>2026-05-02T09:49:43Z</time></trkpt><trkpt lat="42.9555581" lon="12.0835263"><ele>393.0</ele><time>2026-05-02T09:49:45Z</time></trkpt><trkpt lat="42.9556332" lon="12.0835664"><ele>393.0</ele><time>2026-05-02T09:49:47Z</time></trkpt><trkpt lat="42.9557673" lon="12.0836088"><ele>393.0</ele><time>2026-05-02T09:52:03Z</time></trkpt><trkpt lat="42.9558501" lon="12.0836281"><ele>393.0</ele><time>2026-05-02T09:52:04.999Z</time></trkpt><trkpt lat="42.955941" lon="12.0836606"><ele>393.0</ele><time>2026-05-02T09:52:07Z</time></trkpt><trkpt lat="42.9560001" lon="12.0836941"><ele>393.0</ele><time>2026-05-02T09:52:09Z</time></trkpt><trkpt lat="42.9560457" lon="12.0837648"><ele>393.0</ele><time>2026-05-02T09:52:38.999Z</time></trkpt><trkpt lat="42.9561088" lon="12.0838143"><ele>392.1666666666667</ele><time>2026-05-02T09:52:40Z</time></trkpt><trkpt lat="42.956163" lon="12.0838588"><ele>391.33333333333337</ele><time>2026-05-02T09:52:41Z</time></trkpt><trkpt lat="42.9562524" lon="12.0839032"><ele>390.5</ele><time>2026-05-02T09:52:43Z</time></trkpt><trkpt lat="42.9563509" lon="12.0838887"><ele>389.6666666666667</ele><time>2026-05-02T09:52:45Z</time></trkpt><trkpt lat="42.9564292" lon="12.0838454"><ele>388.83333333333337</ele><time>2026-05-02T09:52:47Z</time></trkpt><trkpt lat="42.9564933" lon="12.0838219"><ele>388.0</ele><time>2026-05-02T09:52:49Z</time></trkpt><trkpt lat="42.9565601" lon="12.0837984"><ele>388.00000000000006</ele><time>2026-05-02T09:52:51Z</time></trkpt><trkpt lat="42.956628" lon="12.0837654"><ele>388.0</ele><time>2026-05-02T09:52:53Z</time></trkpt><trkpt lat="42.9567057" lon="12.0837167"><ele>388.0</ele><time>2026-05-02T09:52:54.999Z</time></trkpt><trkpt lat="42.9567643" lon="12.0836734"><ele>388.0</ele><time>2026-05-02T09:52:56Z</time></trkpt><trkpt lat="42.9568729" lon="12.0836379"><ele>388.00000000000006</ele><time>2026-05-02T09:52:58Z</time></trkpt><trkpt lat="42.9569809" lon="12.0836616"><ele>388.0</ele><time>2026-05-02T09:53:00Z</time></trkpt><trkpt lat="42.9570812" lon="12.0837152"><ele>386.2</ele><time>2026-05-02T09:53:02Z</time></trkpt><trkpt lat="42.9571783" lon="12.0837513"><ele>384.4</ele><time>2026-05-02T09:53:04Z</time></trkpt><trkpt lat="42.957264" lon="12.0838133"><ele>382.59999999999997</ele><time>2026-05-02T09:53:06Z</time></trkpt><trkpt lat="42.9573509" lon="12.0838652"><ele>380.79999999999995</ele><time>2026-05-02T09:53:07.999Z</time></trkpt><trkpt lat="42.9574247" lon="12.0839016"><ele>379.0</ele><time>2026-05-02T09:53:10Z</time></trkpt><trkpt lat="42.9575056" lon="12.0839134"><ele>377.14285714285717</ele><time>2026-05-02T09:53:12Z</time></trkpt><trkpt lat="42.9575744" lon="12.0838926"><ele>375.2857142857143</ele><time>2026-05-02T09:53:14Z</time></trkpt><trkpt lat="42.9576347" lon="12.0838358"><ele>373.42857142857144</ele><time>2026-05-02T09:53:15.999Z</time></trkpt><trkpt lat="42.957674" lon="12.083755"><ele>371.57142857142856</ele><time>2026-05-02T09:53:18Z</time></trkpt><trkpt lat="42.9576712" lon="12.083656"><ele>369.7142857142857</ele><time>2026-05-02T09:53:20Z</time></trkpt><trkpt lat="42.9576523" lon="12.0835639"><ele>367.8571428571429</ele><time>2026-05-02T09:53:22Z</time></trkpt><trkpt lat="42.9576368" lon="12.0834717"><ele>366.0</ele><time>2026-05-02T09:53:23.999Z</time></trkpt><trkpt lat="42.9576297" lon="12.0833432"><ele>365.6666666666667</ele><time>2026-05-02T09:53:26Z</time></trkpt><trkpt lat="42.9576355" lon="12.0832464"><ele>365.3333333333333</ele><time>2026-05-02T09:53:26.999Z</time></trkpt><trkpt lat="42.9576309" lon="12.083105"><ele>365.0</ele><time>2026-05-02T09:53:28.999Z</time></trkpt><trkpt lat="42.9576208" lon="12.0830166"><ele>364.66666666666663</ele><time>2026-05-02T09:53:30.999Z</time></trkpt><trkpt lat="42.9575701" lon="12.0829206"><ele>364.3333333333333</ele><time>2026-05-02T10:04:11Z</time></trkpt><trkpt lat="42.9575426" lon="12.0828303"><ele>364.0</ele><time>2026-05-02T10:04:13Z</time></trkpt><trkpt lat="42.957513" lon="12.082712"><ele>364.0</ele><time>2026-05-02T10:04:15Z</time></trkpt><trkpt lat="42.9575324" lon="12.082628"><ele>364.0</ele><time>2026-05-02T10:04:18Z</time></trkpt><trkpt lat="42.9576097" lon="12.0826497"><ele>364.0</ele><time>2026-05-02T10:04:20Z</time></trkpt><trkpt lat="42.9576812" lon="12.0826733"><ele>364.0</ele><time>2026-05-02T10:04:22Z</time></trkpt><trkpt lat="42.9577959" lon="12.0827389"><ele>364.0</ele><time>2026-05-02T10:04:24Z</time></trkpt><trkpt lat="42.9578662" lon="12.0827731"><ele>364.0</ele><time>2026-05-02T10:04:25Z</time></trkpt><trkpt lat="42.9579373" lon="12.0828182"><ele>364.0</ele><time>2026-05-02T10:04:26Z</time></trkpt><trkpt lat="42.958011" lon="12.0828555"><ele>364.0</ele><time>2026-05-02T10:04:27Z</time></trkpt><trkpt lat="42.9580945" lon="12.0828911"><ele>364.0</ele><time>2026-05-02T10:04:28Z</time></trkpt><trkpt lat="42.9581813" lon="12.082919"><ele>364.0</ele><time>2026-05-02T10:04:29Z</time></trkpt><trkpt lat="42.9582723" lon="12.0829389"><ele>364.0</ele><time>2026-05-02T10:04:30Z</time></trkpt><trkpt lat="42.9583688" lon="12.0829398"><ele>364.0</ele><time>2026-05-02T10:04:31Z</time></trkpt><trkpt lat="42.9584597" lon="12.0829425"><ele>364.0</ele><time>2026-05-02T10:04:32Z</time></trkpt><trkpt lat="42.9585472" lon="12.0829378"><ele>364.0</ele><time>2026-05-02T10:04:33Z</time></trkpt><trkpt lat="42.9586276" lon="12.0829213"><ele>364.0</ele><time>2026-05-02T10:04:34Z</time></trkpt><trkpt lat="42.9587008" lon="12.0829144"><ele>364.0</ele><time>2026-05-02T10:04:35Z</time></trkpt><trkpt lat="42.9587683" lon="12.0829086"><ele>364.0</ele><time>2026-05-02T10:04:36Z</time></trkpt><trkpt lat="42.9588329" lon="12.0828951"><ele>364.0</ele><time>2026-05-02T10:04:36.999Z</time></trkpt><trkpt lat="42.9588993" lon="12.0828868"><ele>364.0</ele><time>2026-05-02T10:04:38Z</time></trkpt><trkpt lat="42.958975" lon="12.0828754"><ele>364.0</ele><time>2026-05-02T10:04:39Z</time></trkpt><trkpt lat="42.9590468" lon="12.0828724"><ele>364.0</ele><time>2026-05-02T10:04:39.999Z</time></trkpt><trkpt lat="42.9591173" lon="12.0828623"><ele>364.0</ele><time>2026-05-02T10:04:41Z</time></trkpt><trkpt lat="42.959184" lon="12.0828528"><ele>364.0</ele><time>2026-05-02T10:04:42Z</time></trkpt><trkpt lat="42.9592583" lon="12.0828517"><ele>364.0</ele><time>2026-05-02T10:04:42.999Z</time></trkpt><trkpt lat="42.9593407" lon="12.0828575"><ele>364.0</ele><time>2026-05-02T10:04:44Z</time></trkpt><trkpt lat="42.9594258" lon="12.0828593"><ele>364.16666666666663</ele><time>2026-05-02T10:04:45Z</time></trkpt><trkpt lat="42.9595101" lon="12.0828654"><ele>364.3333333333333</ele><time>2026-05-02T10:04:46Z</time></trkpt><trkpt lat="42.9595809" lon="12.0828634"><ele>364.5</ele><time>2026-05-02T10:04:47Z</time></trkpt><trkpt lat="42.9596451" lon="12.0828754"><ele>364.6666666666667</ele><time>2026-05-02T10:04:48Z</time></trkpt><trkpt lat="42.9597088" lon="12.0828766"><ele>364.83333333333337</ele><time>2026-05-02T10:04:49Z</time></trkpt><trkpt lat="42.9598234" lon="12.0828804"><ele>365.0</ele><time>2026-05-02T10:04:51Z</time></trkpt><trkpt lat="42.9599411" lon="12.0828963"><ele>365.0</ele><time>2026-05-02T10:04:53Z</time></trkpt><trkpt lat="42.9600188" lon="12.0829011"><ele>365.0</ele><time>2026-05-02T10:04:54Z</time></trkpt><trkpt lat="42.9601035" lon="12.0829072"><ele>365.0</ele><time>2026-05-02T10:04:55Z</time></trkpt><trkpt lat="42.9601926" lon="12.0829179"><ele>365.0</ele><time>2026-05-02T10:04:56Z</time></trkpt><trkpt lat="42.9602856" lon="12.0829291"><ele>365.0</ele><time>2026-05-02T10:04:57Z</time></trkpt><trkpt lat="42.9603819" lon="12.0829388"><ele>365.0</ele><time>2026-05-02T10:04:58Z</time></trkpt><trkpt lat="42.9604856" lon="12.082951"><ele>364.2</ele><time>2026-05-02T10:04:59Z</time></trkpt><trkpt lat="42.9605945" lon="12.0829613"><ele>363.4</ele><time>2026-05-02T10:04:59.999Z</time></trkpt><trkpt lat="42.9607051" lon="12.0829763"><ele>362.6</ele><time>2026-05-02T10:05:01Z</time></trkpt><trkpt lat="42.9608186" lon="12.0829949"><ele>361.8</ele><time>2026-05-02T10:05:01.999Z</time></trkpt><trkpt lat="42.9609271" lon="12.0830115"><ele>361.0</ele><time>2026-05-02T10:05:02.999Z</time></trkpt><trkpt lat="42.9610359" lon="12.0830234"><ele>360.5</ele><time>2026-05-02T10:05:04Z</time></trkpt><trkpt lat="42.9611409" lon="12.0830389"><ele>360.0</ele><time>2026-05-02T10:05:05Z</time></trkpt><trkpt lat="42.9612575" lon="12.0830531"><ele>359.5</ele><time>2026-05-02T10:05:06Z</time></trkpt><trkpt lat="42.961373" lon="12.0830693"><ele>359.0</ele><time>2026-05-02T10:05:07Z</time></trkpt><trkpt lat="42.9614902" lon="12.0830833"><ele>359.0</ele><time>2026-05-02T10:05:08Z</time></trkpt><trkpt lat="42.9616037" lon="12.0830962"><ele>359.0</ele><time>2026-05-02T10:05:09Z</time></trkpt><trkpt lat="42.9617233" lon="12.0831008"><ele>359.0</ele><time>2026-05-02T10:05:10Z</time></trkpt><trkpt lat="42.9618464" lon="12.0830837"><ele>359.0</ele><time>2026-05-02T10:05:11Z</time></trkpt><trkpt lat="42.9619672" lon="12.0830378"><ele>358.5</ele><time>2026-05-02T10:05:12Z</time></trkpt><trkpt lat="42.9620852" lon="12.0829689"><ele>358.0</ele><time>2026-05-02T10:05:13Z</time></trkpt><trkpt lat="42.962195" lon="12.0828745"><ele>357.5</ele><time>2026-05-02T10:05:14Z</time></trkpt><trkpt lat="42.9623002" lon="12.082765"><ele>357.0</ele><time>2026-05-02T10:05:15Z</time></trkpt><trkpt lat="42.9624106" lon="12.0826506"><ele>357.0</ele><time>2026-05-02T10:05:16Z</time></trkpt><trkpt lat="42.9625244" lon="12.0825478"><ele>357.0</ele><time>2026-05-02T10:05:17Z</time></trkpt><trkpt lat="42.9626392" lon="12.0824518"><ele>357.0</ele><time>2026-05-02T10:05:18Z</time></trkpt><trkpt lat="42.9627548" lon="12.0823887"><ele>357.0</ele><time>2026-05-02T10:05:19Z</time></trkpt><trkpt lat="42.9628751" lon="12.082332"><ele>356.75</ele><time>2026-05-02T10:05:19.999Z</time></trkpt><trkpt lat="42.9630008" lon="12.0822882"><ele>356.5</ele><time>2026-05-02T10:05:21Z</time></trkpt><trkpt lat="42.9631289" lon="12.0822571"><ele>356.25</ele><time>2026-05-02T10:05:22Z</time></trkpt><trkpt lat="42.96326" lon="12.0822332"><ele>356.0</ele><time>2026-05-02T10:05:23Z</time></trkpt><trkpt lat="42.9633874" lon="12.0822013"><ele>355.25</ele><time>2026-05-02T10:05:24Z</time></trkpt><trkpt lat="42.963518" lon="12.0821719"><ele>354.5</ele><time>2026-05-02T10:05:25Z</time></trkpt><trkpt lat="42.9636456" lon="12.0821701"><ele>353.75</ele><time>2026-05-02T10:05:26Z</time></trkpt><trkpt lat="42.9637734" lon="12.0821799"><ele>353.0</ele><time>2026-05-02T10:05:26.999Z</time></trkpt><trkpt lat="42.9638927" lon="12.0822079"><ele>353.0</ele><time>2026-05-02T10:05:28Z</time></trkpt><trkpt lat="42.9640145" lon="12.0822561"><ele>353.0</ele><time>2026-05-02T10:05:28.999Z</time></trkpt><trkpt lat="42.964139" lon="12.0823117"><ele>353.0</ele><time>2026-05-02T10:05:29.999Z</time></trkpt><trkpt lat="42.9642616" lon="12.0823701"><ele>353.0</ele><time>2026-05-02T10:05:31Z</time></trkpt><trkpt lat="42.9643854" lon="12.0824319"><ele>355.0</ele><time>2026-05-02T10:05:32Z</time></trkpt><trkpt lat="42.9645087" lon="12.0824954"><ele>357.0</ele><time>2026-05-02T10:05:33Z</time></trkpt><trkpt lat="42.9646313" lon="12.0825715"><ele>359.0</ele><time>2026-05-02T10:05:34Z</time></trkpt><trkpt lat="42.9647513" lon="12.0826569"><ele>361.0</ele><time>2026-05-02T10:05:35Z</time></trkpt><trkpt lat="42.9648638" lon="12.0827394"><ele>361.0</ele><time>2026-05-02T10:05:36Z</time></trkpt><trkpt lat="42.9649776" lon="12.0828203"><ele>361.0</ele><time>2026-05-02T10:05:37Z</time></trkpt><trkpt lat="42.9650888" lon="12.0828939"><ele>361.0</ele><time>2026-05-02T10:05:38Z</time></trkpt><trkpt lat="42.9651843" lon="12.0829683"><ele>361.0</ele><time>2026-05-02T10:05:39Z</time></trkpt><trkpt lat="42.9652817" lon="12.0830499"><ele>360.75</ele><time>2026-05-02T10:05:40Z</time></trkpt><trkpt lat="42.9653905" lon="12.0831318"><ele>360.5</ele><time>2026-05-02T10:05:41Z</time></trkpt><trkpt lat="42.9654964" lon="12.0832101"><ele>360.25</ele><time>2026-05-02T10:05:42Z</time></trkpt><trkpt lat="42.9656017" lon="12.083292"><ele>360.0</ele><time>2026-05-02T10:05:43Z</time></trkpt><trkpt lat="42.9657175" lon="12.0833669"><ele>360.0</ele><time>2026-05-02T10:05:43.999Z</time></trkpt><trkpt lat="42.9658372" lon="12.0834227"><ele>360.0</ele><time>2026-05-02T10:05:45Z</time></trkpt><trkpt lat="42.9659587" lon="12.0834758"><ele>360.0</ele><time>2026-05-02T10:05:46Z</time></trkpt><trkpt lat="42.9660817" lon="12.0835227"><ele>360.0</ele><time>2026-05-02T10:05:47Z</time></trkpt><trkpt lat="42.9662037" lon="12.0835773"><ele>360.0</ele><time>2026-05-02T10:05:47.999Z</time></trkpt><trkpt lat="42.9663212" lon="12.0836112"><ele>360.0</ele><time>2026-05-02T10:05:49Z</time></trkpt><trkpt lat="42.9664346" lon="12.0836487"><ele>360.0</ele><time>2026-05-02T10:05:50Z</time></trkpt><trkpt lat="42.9665395" lon="12.0836869"><ele>360.0</ele><time>2026-05-02T10:05:51Z</time></trkpt><trkpt lat="42.966629" lon="12.0837197"><ele>360.0</ele><time>2026-05-02T10:05:52Z</time></trkpt><trkpt lat="42.9667133" lon="12.0837448"><ele>359.6666666666667</ele><time>2026-05-02T10:05:53Z</time></trkpt><trkpt lat="42.9667862" lon="12.0837588"><ele>359.3333333333333</ele><time>2026-05-02T10:05:54Z</time></trkpt><trkpt lat="42.9668536" lon="12.0837853"><ele>359.0</ele><time>2026-05-02T10:05:55Z</time></trkpt><trkpt lat="42.9669548" lon="12.0838126"><ele>358.66666666666663</ele><time>2026-05-02T10:05:57Z</time></trkpt><trkpt lat="42.9670314" lon="12.0838395"><ele>358.3333333333333</ele><time>2026-05-02T10:05:59Z</time></trkpt><trkpt lat="42.9671404" lon="12.0838731"><ele>358.0</ele><time>2026-05-02T10:06:01Z</time></trkpt><trkpt lat="42.9672104" lon="12.0838985"><ele>358.0</ele><time>2026-05-02T10:06:01.999Z</time></trkpt><trkpt lat="42.9672868" lon="12.0839234"><ele>358.0</ele><time>2026-05-02T10:06:03Z</time></trkpt><trkpt lat="42.9673722" lon="12.0839534"><ele>358.0</ele><time>2026-05-02T10:06:04Z</time></trkpt><trkpt lat="42.9674634" lon="12.083982"><ele>358.0</ele><time>2026-05-02T10:06:05Z</time></trkpt><trkpt lat="42.9675649" lon="12.0840252"><ele>358.0</ele><time>2026-05-02T10:06:06Z</time></trkpt><trkpt lat="42.9676653" lon="12.0840642"><ele>358.0</ele><time>2026-05-02T10:06:07Z</time></trkpt><trkpt lat="42.9677723" lon="12.0841207"><ele>358.0</ele><time>2026-05-02T10:06:08Z</time></trkpt><trkpt lat="42.9678826" lon="12.0841813"><ele>358.0</ele><time>2026-05-02T10:06:09Z</time></trkpt><trkpt lat="42.9679888" lon="12.084232"><ele>358.0</ele><time>2026-05-02T10:06:10Z</time></trkpt><trkpt lat="42.9680891" lon="12.0842836"><ele>358.0</ele><time>2026-05-02T10:06:11Z</time></trkpt><trkpt lat="42.9681912" lon="12.0843302"><ele>358.0</ele><time>2026-05-02T10:06:12Z</time></trkpt><trkpt lat="42.9683007" lon="12.0843752"><ele>358.0</ele><time>2026-05-02T10:06:13Z</time></trkpt><trkpt lat="42.9684046" lon="12.0844162"><ele>358.0</ele><time>2026-05-02T10:06:14Z</time></trkpt><trkpt lat="42.9685113" lon="12.0844618"><ele>358.0</ele><time>2026-05-02T10:06:15Z</time></trkpt><trkpt lat="42.9686099" lon="12.0845327"><ele>354.25</ele><time>2026-05-02T10:06:16Z</time></trkpt><trkpt lat="42.9687189" lon="12.0846025"><ele>350.5</ele><time>2026-05-02T10:06:17Z</time></trkpt><trkpt lat="42.9688246" lon="12.0846827"><ele>346.75</ele><time>2026-05-02T10:06:18Z</time></trkpt><trkpt lat="42.9689235" lon="12.0847601"><ele>343.0</ele><time>2026-05-02T10:06:18.999Z</time></trkpt><trkpt lat="42.9690054" lon="12.0848325"><ele>343.0</ele><time>2026-05-02T10:06:20Z</time></trkpt><trkpt lat="42.9690848" lon="12.0848963"><ele>343.0</ele><time>2026-05-02T10:06:21Z</time></trkpt><trkpt lat="42.969152" lon="12.0849633"><ele>343.0</ele><time>2026-05-02T10:06:22Z</time></trkpt><trkpt lat="42.9692151" lon="12.0850416"><ele>343.0</ele><time>2026-05-02T10:06:23Z</time></trkpt><trkpt lat="42.9692709" lon="12.0851365"><ele>343.0</ele><time>2026-05-02T10:06:23.999Z</time></trkpt><trkpt lat="42.9693275" lon="12.0852329"><ele>343.0</ele><time>2026-05-02T10:06:25Z</time></trkpt><trkpt lat="42.9693604" lon="12.0853438"><ele>343.2</ele><time>2026-05-02T10:06:26Z</time></trkpt><trkpt lat="42.9693737" lon="12.0854814"><ele>343.4</ele><time>2026-05-02T10:06:27Z</time></trkpt><trkpt lat="42.9693263" lon="12.0855874"><ele>343.59999999999997</ele><time>2026-05-02T10:06:28Z</time></trkpt><trkpt lat="42.9692671" lon="12.0856828"><ele>343.79999999999995</ele><time>2026-05-02T10:06:29Z</time></trkpt><trkpt lat="42.969199" lon="12.0857793"><ele>344.0</ele><time>2026-05-02T10:06:30Z</time></trkpt><trkpt lat="42.9691361" lon="12.085854"><ele>344.0</ele><time>2026-05-02T10:06:31Z</time></trkpt><trkpt lat="42.9690777" lon="12.0859443"><ele>344.0</ele><time>2026-05-02T10:06:32Z</time></trkpt><trkpt lat="42.9690185" lon="12.0860116"><ele>344.0</ele><time>2026-05-02T10:06:33Z</time></trkpt><trkpt lat="42.9689655" lon="12.0860779"><ele>344.0</ele><time>2026-05-02T10:06:34Z</time></trkpt><trkpt lat="42.9689217" lon="12.0861441"><ele>344.0</ele><time>2026-05-02T10:06:35Z</time></trkpt><trkpt lat="42.9688558" lon="12.0862565"><ele>344.0</ele><time>2026-05-02T10:06:37Z</time></trkpt><trkpt lat="42.9688165" lon="12.0863689"><ele>344.0</ele><time>2026-05-02T10:06:39Z</time></trkpt><trkpt lat="42.968801" lon="12.0865232"><ele>344.0</ele><time>2026-05-02T10:06:41Z</time></trkpt><trkpt lat="42.9688374" lon="12.0866858"><ele>344.0</ele><time>2026-05-02T10:06:43Z</time></trkpt><trkpt lat="42.9688813" lon="12.0867614"><ele>344.0</ele><time>2026-05-02T10:06:44Z</time></trkpt><trkpt lat="42.9689429" lon="12.0868218"><ele>344.0</ele><time>2026-05-02T10:06:45Z</time></trkpt><trkpt lat="42.9690268" lon="12.086862"><ele>344.79999999999995</ele><time>2026-05-02T10:06:46Z</time></trkpt><trkpt lat="42.9691229" lon="12.0868911"><ele>345.59999999999997</ele><time>2026-05-02T10:06:47Z</time></trkpt><trkpt lat="42.9692323" lon="12.0869214"><ele>346.4</ele><time>2026-05-02T10:06:47.999Z</time></trkpt><trkpt lat="42.9693386" lon="12.0869545"><ele>347.2</ele><time>2026-05-02T10:06:48.999Z</time></trkpt><trkpt lat="42.9694549" lon="12.0869922"><ele>348.0</ele><time>2026-05-02T10:06:50Z</time></trkpt><trkpt lat="42.969576" lon="12.0870265"><ele>348.0</ele><time>2026-05-02T10:06:51Z</time></trkpt><trkpt lat="42.9697036" lon="12.0870688"><ele>348.0</ele><time>2026-05-02T10:06:52Z</time></trkpt><trkpt lat="42.969835" lon="12.0871086"><ele>348.0</ele><time>2026-05-02T10:06:53Z</time></trkpt><trkpt lat="42.9699748" lon="12.0871423"><ele>348.0</ele><time>2026-05-02T10:06:54Z</time></trkpt><trkpt lat="42.9701091" lon="12.0871861"><ele>347.75</ele><time>2026-05-02T10:06:55Z</time></trkpt><trkpt lat="42.9702471" lon="12.0872309"><ele>347.5</ele><time>2026-05-02T10:06:55.999Z</time></trkpt><trkpt lat="42.9703886" lon="12.0872753"><ele>347.25</ele><time>2026-05-02T10:06:56.999Z</time></trkpt><trkpt lat="42.9705285" lon="12.0873213"><ele>347.0</ele><time>2026-05-02T10:06:58Z</time></trkpt><trkpt lat="42.9706686" lon="12.0873654"><ele>347.0</ele><time>2026-05-02T10:06:58.999Z</time></trkpt><trkpt lat="42.9708078" lon="12.0874022"><ele>347.0</ele><time>2026-05-02T10:07:00Z</time></trkpt><trkpt lat="42.9709459" lon="12.0874487"><ele>347.0</ele><time>2026-05-02T10:07:00.999Z</time></trkpt><trkpt lat="42.9710807" lon="12.087487"><ele>347.0</ele><time>2026-05-02T10:07:02Z</time></trkpt><trkpt lat="42.971206" lon="12.0875251"><ele>342.6</ele><time>2026-05-02T10:07:02.999Z</time></trkpt><trkpt lat="42.9713139" lon="12.087562"><ele>338.20000000000005</ele><time>2026-05-02T10:07:04Z</time></trkpt><trkpt lat="42.9714192" lon="12.08756"><ele>333.8</ele><time>2026-05-02T10:07:05Z</time></trkpt><trkpt lat="42.9715111" lon="12.0875111"><ele>329.4</ele><time>2026-05-02T10:07:06Z</time></trkpt><trkpt lat="42.9716056" lon="12.0874054"><ele>325.0</ele><time>2026-05-02T10:07:07Z</time></trkpt><trkpt lat="42.9716733" lon="12.0872819"><ele>325.0</ele><time>2026-05-02T10:07:08Z</time></trkpt><trkpt lat="42.971716" lon="12.0871427"><ele>325.0</ele><time>2026-05-02T10:07:09Z</time></trkpt><trkpt lat="42.9717554" lon="12.0869905"><ele>325.0</ele><time>2026-05-02T10:07:10Z</time></trkpt><trkpt lat="42.9717439" lon="12.0868037"><ele>325.0</ele><time>2026-05-02T10:07:11Z</time></trkpt><trkpt lat="42.9716883" lon="12.0866274"><ele>320.75</ele><time>2026-05-02T10:07:11.999Z</time></trkpt><trkpt lat="42.9716393" lon="12.0864586"><ele>316.5</ele><time>2026-05-02T10:07:13Z</time></trkpt><trkpt lat="42.9715888" lon="12.0863096"><ele>312.25</ele><time>2026-05-02T10:07:14Z</time></trkpt><trkpt lat="42.9715286" lon="12.0861632"><ele>308.0</ele><time>2026-05-02T10:07:14.999Z</time></trkpt><trkpt lat="42.9714662" lon="12.0860394"><ele>308.0</ele><time>2026-05-02T10:07:16Z</time></trkpt><trkpt lat="42.9714061" lon="12.0859356"><ele>308.0</ele><time>2026-05-02T10:07:17Z</time></trkpt><trkpt lat="42.9713512" lon="12.0858411"><ele>308.0</ele><time>2026-05-02T10:07:18Z</time></trkpt><trkpt lat="42.9713208" lon="12.085751"><ele>308.0</ele><time>2026-05-02T10:07:19Z</time></trkpt><trkpt lat="42.9713632" lon="12.0856029"><ele>308.0</ele><time>2026-05-02T10:07:21Z</time></trkpt><trkpt lat="42.971493" lon="12.0856637"><ele>308.0</ele><time>2026-05-02T10:07:23Z</time></trkpt><trkpt lat="42.9715605" lon="12.0857618"><ele>308.0</ele><time>2026-05-02T10:07:24Z</time></trkpt><trkpt lat="42.9716193" lon="12.085915"><ele>308.0</ele><time>2026-05-02T10:07:25Z</time></trkpt><trkpt lat="42.9716788" lon="12.0860793"><ele>308.0</ele><time>2026-05-02T10:07:26Z</time></trkpt><trkpt lat="42.9717518" lon="12.0862377"><ele>303.75</ele><time>2026-05-02T10:07:26.999Z</time></trkpt><trkpt lat="42.9718261" lon="12.0864008"><ele>299.5</ele><time>2026-05-02T10:07:28Z</time></trkpt><trkpt lat="42.9719115" lon="12.0865583"><ele>295.25</ele><time>2026-05-02T10:07:29Z</time></trkpt><trkpt lat="42.9719937" lon="12.0867131"><ele>291.0</ele><time>2026-05-02T10:07:30Z</time></trkpt><trkpt lat="42.9720678" lon="12.0868618"><ele>291.0</ele><time>2026-05-02T10:07:31Z</time></trkpt><trkpt lat="42.9721286" lon="12.0870083"><ele>291.0</ele><time>2026-05-02T10:07:32Z</time></trkpt><trkpt lat="42.972155" lon="12.0871608"><ele>291.0</ele><time>2026-05-02T10:07:33Z</time></trkpt><trkpt lat="42.9721667" lon="12.0873251"><ele>291.0</ele><time>2026-05-02T10:07:34Z</time></trkpt><trkpt lat="42.9721023" lon="12.0874654"><ele>291.6666666666667</ele><time>2026-05-02T10:07:35Z</time></trkpt><trkpt lat="42.9720272" lon="12.08758"><ele>292.3333333333333</ele><time>2026-05-02T10:07:36Z</time></trkpt><trkpt lat="42.97197" lon="12.0876765"><ele>293.0</ele><time>2026-05-02T10:07:37Z</time></trkpt><trkpt lat="42.97193" lon="12.087755"><ele>293.66666666666663</ele><time>2026-05-02T10:07:38Z</time></trkpt><trkpt lat="42.9719271" lon="12.0878452"><ele>294.3333333333333</ele><time>2026-05-02T10:07:39Z</time></trkpt><trkpt lat="42.9719663" lon="12.087929"><ele>295.0</ele><time>2026-05-02T10:07:39.999Z</time></trkpt><trkpt lat="42.972026" lon="12.0879794"><ele>295.0</ele><time>2026-05-02T10:07:40.999Z</time></trkpt><trkpt lat="42.9720991" lon="12.0879787"><ele>295.0</ele><time>2026-05-02T10:07:42Z</time></trkpt><trkpt lat="42.9721858" lon="12.0879502"><ele>295.0</ele><time>2026-05-02T10:07:43Z</time></trkpt><trkpt lat="42.9722674" lon="12.0878796"><ele>295.0</ele><time>2026-05-02T10:07:44Z</time></trkpt><trkpt lat="42.9723454" lon="12.0877604"><ele>295.0</ele><time>2026-05-02T10:07:45Z</time></trkpt><trkpt lat="42.9724019" lon="12.0876128"><ele>295.0</ele><time>2026-05-02T10:07:46Z</time></trkpt><trkpt lat="42.9724496" lon="12.0874417"><ele>295.0</ele><time>2026-05-02T10:07:47Z</time></trkpt><trkpt lat="42.9724758" lon="12.0872567"><ele>295.0</ele><time>2026-05-02T10:07:48Z</time></trkpt><trkpt lat="42.972481" lon="12.0870633"><ele>295.0</ele><time>2026-05-02T10:07:49Z</time></trkpt><trkpt lat="42.972449" lon="12.0868898"><ele>294.0</ele><time>2026-05-02T10:07:50Z</time></trkpt><trkpt lat="42.9723931" lon="12.0867187"><ele>293.0</ele><time>2026-05-02T10:07:51Z</time></trkpt><trkpt lat="42.9723378" lon="12.0865684"><ele>292.0</ele><time>2026-05-02T10:07:51.999Z</time></trkpt><trkpt lat="42.9723" lon="12.0864039"><ele>291.0</ele><time>2026-05-02T10:07:53Z</time></trkpt><trkpt lat="42.9722878" lon="12.0862132"><ele>289.25</ele><time>2026-05-02T10:07:54Z</time></trkpt><trkpt lat="42.9723008" lon="12.0860233"><ele>287.5</ele><time>2026-05-02T10:07:55Z</time></trkpt><trkpt lat="42.9723369" lon="12.0858316"><ele>285.75</ele><time>2026-05-02T10:07:56Z</time></trkpt><trkpt lat="42.972387" lon="12.0856386"><ele>284.0</ele><time>2026-05-02T10:07:57Z</time></trkpt><trkpt lat="42.9724469" lon="12.0854543"><ele>284.0</ele><time>2026-05-02T10:07:58Z</time></trkpt><trkpt lat="42.9725075" lon="12.0852905"><ele>284.0</ele><time>2026-05-02T10:07:59Z</time></trkpt><trkpt lat="42.9725633" lon="12.0851301"><ele>284.0</ele><time>2026-05-02T10:08:00Z</time></trkpt><trkpt lat="42.9726208" lon="12.0849846"><ele>284.0</ele><time>2026-05-02T10:08:01Z</time></trkpt><trkpt lat="42.9726694" lon="12.0848593"><ele>285.1666666666667</ele><time>2026-05-02T10:08:01.999Z</time></trkpt><trkpt lat="42.9727127" lon="12.0847434"><ele>286.33333333333337</ele><time>2026-05-02T10:08:03Z</time></trkpt><trkpt lat="42.9727615" lon="12.0846543"><ele>287.5</ele><time>2026-05-02T10:08:04Z</time></trkpt><trkpt lat="42.9728085" lon="12.0845804"><ele>288.6666666666667</ele><time>2026-05-02T10:08:05Z</time></trkpt><trkpt lat="42.972893" lon="12.0844849"><ele>289.8333333333333</ele><time>2026-05-02T10:08:06.999Z</time></trkpt><trkpt lat="42.9729473" lon="12.0844036"><ele>291.0</ele><time>2026-05-02T10:08:19.999Z</time></trkpt><trkpt lat="42.9729414" lon="12.0842994"><ele>291.0</ele><time>2026-05-02T10:08:21.999Z</time></trkpt><trkpt lat="42.9728768" lon="12.0841642"><ele>291.0</ele><time>2026-05-02T10:08:24Z</time></trkpt><trkpt lat="42.972835" lon="12.0840949"><ele>291.0</ele><time>2026-05-02T10:08:25Z</time></trkpt><trkpt lat="42.972788" lon="12.0840131"><ele>291.0</ele><time>2026-05-02T10:08:26Z</time></trkpt><trkpt lat="42.9727301" lon="12.0839159"><ele>291.0</ele><time>2026-05-02T10:08:26.999Z</time></trkpt><trkpt lat="42.9726637" lon="12.0838117"><ele>291.0</ele><time>2026-05-02T10:08:28Z</time></trkpt><trkpt lat="42.9725919" lon="12.0836996"><ele>291.0</ele><time>2026-05-02T10:08:28.999Z</time></trkpt><trkpt lat="42.972508" lon="12.0835875"><ele>291.0</ele><time>2026-05-02T10:08:30Z</time></trkpt><trkpt lat="42.9724138" lon="12.0834671"><ele>291.0</ele><time>2026-05-02T10:08:31Z</time></trkpt><trkpt lat="42.9723107" lon="12.083359"><ele>293.75</ele><time>2026-05-02T10:08:32Z</time></trkpt><trkpt lat="42.9721998" lon="12.08325"><ele>296.5</ele><time>2026-05-02T10:08:33Z</time></trkpt><trkpt lat="42.9720899" lon="12.0831407"><ele>299.25</ele><time>2026-05-02T10:08:34Z</time></trkpt><trkpt lat="42.9719822" lon="12.0830306"><ele>302.0</ele><time>2026-05-02T10:08:35Z</time></trkpt><trkpt lat="42.9718887" lon="12.0829009"><ele>302.0</ele><time>2026-05-02T10:08:36Z</time></trkpt><trkpt lat="42.9718231" lon="12.0827653"><ele>302.0</ele><time>2026-05-02T10:08:37Z</time></trkpt><trkpt lat="42.9717733" lon="12.0826358"><ele>302.0</ele><time>2026-05-02T10:08:38Z</time></trkpt><trkpt lat="42.9717547" lon="12.0825169"><ele>302.0</ele><time>2026-05-02T10:08:39Z</time></trkpt><trkpt lat="42.9717611" lon="12.0823967"><ele>302.0</ele><time>2026-05-02T10:08:39.999Z</time></trkpt><trkpt lat="42.9718101" lon="12.0822741"><ele>302.8</ele><time>2026-05-02T10:08:40.999Z</time></trkpt><trkpt lat="42.9718861" lon="12.0821579"><ele>303.6</ele><time>2026-05-02T10:08:42Z</time></trkpt><trkpt lat="42.9719537" lon="12.0820313"><ele>304.40000000000003</ele><time>2026-05-02T10:08:43Z</time></trkpt><trkpt lat="42.9720054" lon="12.081922"><ele>305.2</ele><time>2026-05-02T10:08:44Z</time></trkpt><trkpt lat="42.9720515" lon="12.081827"><ele>306.0</ele><time>2026-05-02T10:08:45Z</time></trkpt><trkpt lat="42.9720874" lon="12.0817251"><ele>306.0</ele><time>2026-05-02T10:08:46Z</time></trkpt><trkpt lat="42.9721242" lon="12.0816169"><ele>306.0</ele><time>2026-05-02T10:08:47Z</time></trkpt><trkpt lat="42.9721508" lon="12.0815344"><ele>306.0</ele><time>2026-05-02T10:08:48Z</time></trkpt><trkpt lat="42.9722127" lon="12.0814689"><ele>306.0</ele><time>2026-05-02T10:08:50Z</time></trkpt><trkpt lat="42.9722938" lon="12.0815021"><ele>306.0</ele><time>2026-05-02T10:08:53Z</time></trkpt><trkpt lat="42.9723826" lon="12.0815551"><ele>306.0</ele><time>2026-05-02T10:08:54.999Z</time></trkpt><trkpt lat="42.9724863" lon="12.0815995"><ele>309.5</ele><time>2026-05-02T10:08:57Z</time></trkpt><trkpt lat="42.9725719" lon="12.0815922"><ele>313.0</ele><time>2026-05-02T10:08:59Z</time></trkpt><trkpt lat="42.9726649" lon="12.0815818"><ele>316.5</ele><time>2026-05-02T10:09:01Z</time></trkpt><trkpt lat="42.9727303" lon="12.0815424"><ele>320.0</ele><time>2026-05-02T10:09:02Z</time></trkpt><trkpt lat="42.9727989" lon="12.0815031"><ele>323.5</ele><time>2026-05-02T10:09:03Z</time></trkpt><trkpt lat="42.9728638" lon="12.0814772"><ele>327.0</ele><time>2026-05-02T10:09:04Z</time></trkpt><trkpt lat="42.9729417" lon="12.081455"><ele>327.0</ele><time>2026-05-02T10:09:05Z</time></trkpt><trkpt lat="42.9730228" lon="12.0814348"><ele>327.0</ele><time>2026-05-02T10:09:05.999Z</time></trkpt><trkpt lat="42.9731154" lon="12.0814011"><ele>327.0</ele><time>2026-05-02T10:09:07Z</time></trkpt><trkpt lat="42.9731992" lon="12.0813847"><ele>327.0</ele><time>2026-05-02T10:09:08Z</time></trkpt><trkpt lat="42.9732782" lon="12.0813689"><ele>327.0</ele><time>2026-05-02T10:09:09Z</time></trkpt><trkpt lat="42.973376" lon="12.0813651"><ele>327.0</ele><time>2026-05-02T10:09:10Z</time></trkpt><trkpt lat="42.9734675" lon="12.0813728"><ele>328.0</ele><time>2026-05-02T10:09:11Z</time></trkpt><trkpt lat="42.9735497" lon="12.081371"><ele>329.0</ele><time>2026-05-02T10:09:11.999Z</time></trkpt><trkpt lat="42.9736314" lon="12.0813514"><ele>330.0</ele><time>2026-05-02T10:09:13Z</time></trkpt><trkpt lat="42.9737164" lon="12.0813395"><ele>331.0</ele><time>2026-05-02T10:09:14Z</time></trkpt><trkpt lat="42.9738049" lon="12.0813511"><ele>332.0</ele><time>2026-05-02T10:09:15Z</time></trkpt><trkpt lat="42.973882" lon="12.0813795"><ele>333.0</ele><time>2026-05-02T10:09:16Z</time></trkpt><trkpt lat="42.9739601" lon="12.0814246"><ele>333.0</ele><time>2026-05-02T10:09:17Z</time></trkpt><trkpt lat="42.974031" lon="12.0814716"><ele>333.0</ele><time>2026-05-02T10:09:17.999Z</time></trkpt><trkpt lat="42.9741377" lon="12.0814841"><ele>333.0</ele><time>2026-05-02T10:09:20Z</time></trkpt><trkpt lat="42.9742303" lon="12.0813834"><ele>333.0</ele><time>2026-05-02T10:09:22Z</time></trkpt><trkpt lat="42.9742657" lon="12.0813"><ele>333.0</ele><time>2026-05-02T10:09:22.999Z</time></trkpt><trkpt lat="42.974313" lon="12.0811712"><ele>335.0</ele><time>2026-05-02T10:09:24Z</time></trkpt><trkpt lat="42.9743706" lon="12.0810544"><ele>337.0</ele><time>2026-05-02T10:09:24.999Z</time></trkpt><trkpt lat="42.9744387" lon="12.0809083"><ele>339.0</ele><time>2026-05-02T10:09:26Z</time></trkpt><trkpt lat="42.9745123" lon="12.0807431"><ele>341.0</ele><time>2026-05-02T10:09:27Z</time></trkpt><trkpt lat="42.9745953" lon="12.0805627"><ele>342.6666666666667</ele><time>2026-05-02T10:09:27.999Z</time></trkpt><trkpt lat="42.9746865" lon="12.08036"><ele>344.3333333333333</ele><time>2026-05-02T10:09:29Z</time></trkpt><trkpt lat="42.9747747" lon="12.0801561"><ele>346.0</ele><time>2026-05-02T10:09:30Z</time></trkpt><trkpt lat="42.9748558" lon="12.0799622"><ele>346.0</ele><time>2026-05-02T10:09:31Z</time></trkpt><trkpt lat="42.974922" lon="12.0798024"><ele>346.0</ele><time>2026-05-02T10:09:32Z</time></trkpt><trkpt lat="42.9749885" lon="12.0796585"><ele>346.0</ele><time>2026-05-02T10:09:32.999Z</time></trkpt><trkpt lat="42.975062" lon="12.0795365"><ele>346.0</ele><time>2026-05-02T10:09:33.999Z</time></trkpt><trkpt lat="42.9751237" lon="12.079421"><ele>346.0</ele><time>2026-05-02T10:09:34.999Z</time></trkpt><trkpt lat="42.9751721" lon="12.0793124"><ele>346.0</ele><time>2026-05-02T10:09:36Z</time></trkpt><trkpt lat="42.9752184" lon="12.0792176"><ele>346.0</ele><time>2026-05-02T10:09:37Z</time></trkpt><trkpt lat="42.975263" lon="12.0791396"><ele>346.0</ele><time>2026-05-02T10:09:38Z</time></trkpt><trkpt lat="42.9753323" lon="12.0790016"><ele>346.0</ele><time>2026-05-02T10:09:40Z</time></trkpt><trkpt lat="42.9753927" lon="12.0788553"><ele>346.8</ele><time>2026-05-02T10:09:41.999Z</time></trkpt><trkpt lat="42.9754709" lon="12.0787056"><ele>347.6</ele><time>2026-05-02T10:09:44Z</time></trkpt><trkpt lat="42.9755181" lon="12.0786174"><ele>348.4</ele><time>2026-05-02T10:09:44.999Z</time></trkpt><trkpt lat="42.9755713" lon="12.0785173"><ele>349.2</ele><time>2026-05-02T10:09:46Z</time></trkpt><trkpt lat="42.9756291" lon="12.0784038"><ele>350.0</ele><time>2026-05-02T10:09:47Z</time></trkpt><trkpt lat="42.9756897" lon="12.0782756"><ele>350.25</ele><time>2026-05-02T10:09:48Z</time></trkpt><trkpt lat="42.9757577" lon="12.0781448"><ele>350.5</ele><time>2026-05-02T10:09:49Z</time></trkpt><trkpt lat="42.9758216" lon="12.078004"><ele>350.75</ele><time>2026-05-02T10:09:50Z</time></trkpt><trkpt lat="42.9758885" lon="12.0778653"><ele>351.0</ele><time>2026-05-02T10:09:51Z</time></trkpt><trkpt lat="42.9759547" lon="12.0777319"><ele>351.0</ele><time>2026-05-02T10:09:52Z</time></trkpt><trkpt lat="42.9760168" lon="12.0775914"><ele>351.0</ele><time>2026-05-02T10:09:53Z</time></trkpt><trkpt lat="42.976081" lon="12.077456"><ele>351.0</ele><time>2026-05-02T10:09:53.999Z</time></trkpt><trkpt lat="42.9761427" lon="12.0773252"><ele>351.0</ele><time>2026-05-02T10:09:55Z</time></trkpt><trkpt lat="42.9762016" lon="12.077196"><ele>352.0</ele><time>2026-05-02T10:09:56Z</time></trkpt><trkpt lat="42.9762584" lon="12.077075"><ele>353.0</ele><time>2026-05-02T10:09:57Z</time></trkpt><trkpt lat="42.9763069" lon="12.0769684"><ele>354.0</ele><time>2026-05-02T10:09:58Z</time></trkpt><trkpt lat="42.9763551" lon="12.0768673"><ele>355.0</ele><time>2026-05-02T10:09:59Z</time></trkpt><trkpt lat="42.9763969" lon="12.0767821"><ele>356.0</ele><time>2026-05-02T10:10:00Z</time></trkpt><trkpt lat="42.9764376" lon="12.0767116"><ele>357.0</ele><time>2026-05-02T10:10:01Z</time></trkpt><trkpt lat="42.9764877" lon="12.0766511"><ele>357.0</ele><time>2026-05-02T10:10:02Z</time></trkpt><trkpt lat="42.9765659" lon="12.0765455"><ele>357.0</ele><time>2026-05-02T10:10:04Z</time></trkpt><trkpt lat="42.9766419" lon="12.0764238"><ele>357.0</ele><time>2026-05-02T10:10:06Z</time></trkpt><trkpt lat="42.97671" lon="12.0762713"><ele>357.0</ele><time>2026-05-02T10:10:08Z</time></trkpt><trkpt lat="42.976734" lon="12.0761599"><ele>357.0</ele><time>2026-05-02T10:10:08.999Z</time></trkpt><trkpt lat="42.9767622" lon="12.0760611"><ele>356.20000000000005</ele><time>2026-05-02T10:10:10Z</time></trkpt><trkpt lat="42.9767974" lon="12.0759361"><ele>355.4</ele><time>2026-05-02T10:10:10.999Z</time></trkpt><trkpt lat="42.9768291" lon="12.075813"><ele>354.6</ele><time>2026-05-02T10:10:12Z</time></trkpt><trkpt lat="42.9768601" lon="12.0756845"><ele>353.79999999999995</ele><time>2026-05-02T10:10:13Z</time></trkpt><trkpt lat="42.9768939" lon="12.0755512"><ele>353.0</ele><time>2026-05-02T10:10:14Z</time></trkpt><trkpt lat="42.976926" lon="12.0754158"><ele>353.5</ele><time>2026-05-02T10:10:15Z</time></trkpt><trkpt lat="42.9769579" lon="12.0752987"><ele>354.0</ele><time>2026-05-02T10:10:16Z</time></trkpt><trkpt lat="42.9769888" lon="12.0751873"><ele>354.5</ele><time>2026-05-02T10:10:17Z</time></trkpt><trkpt lat="42.9770268" lon="12.0750869"><ele>355.0</ele><time>2026-05-02T10:10:17.999Z</time></trkpt><trkpt lat="42.977073" lon="12.0749999"><ele>355.5</ele><time>2026-05-02T10:10:18.999Z</time></trkpt><trkpt lat="42.9771209" lon="12.0749107"><ele>356.0</ele><time>2026-05-02T10:10:20Z</time></trkpt><trkpt lat="42.9771607" lon="12.0748376"><ele>356.0</ele><time>2026-05-02T10:10:21Z</time></trkpt><trkpt lat="42.9772002" lon="12.0747676"><ele>356.0</ele><time>2026-05-02T10:10:22Z</time></trkpt><trkpt lat="42.9772509" lon="12.0746992"><ele>356.0</ele><time>2026-05-02T10:10:23Z</time></trkpt><trkpt lat="42.9772983" lon="12.0746406"><ele>356.0</ele><time>2026-05-02T10:10:24Z</time></trkpt><trkpt lat="42.9773473" lon="12.0745804"><ele>356.0</ele><time>2026-05-02T10:10:25Z</time></trkpt><trkpt lat="42.9774448" lon="12.0744619"><ele>356.0</ele><time>2026-05-02T10:10:27Z</time></trkpt><trkpt lat="42.9774963" lon="12.0744121"><ele>356.4</ele><time>2026-05-02T10:10:28Z</time></trkpt><trkpt lat="42.9775886" lon="12.0743334"><ele>356.8</ele><time>2026-05-02T10:10:29.999Z</time></trkpt><trkpt lat="42.9776862" lon="12.0742927"><ele>357.2</ele><time>2026-05-02T10:10:31.999Z</time></trkpt><trkpt lat="42.9777745" lon="12.0742648"><ele>357.59999999999997</ele><time>2026-05-02T10:10:34Z</time></trkpt><trkpt lat="42.9778582" lon="12.0742259"><ele>358.0</ele><time>2026-05-02T10:10:35.999Z</time></trkpt><trkpt lat="42.9779354" lon="12.0741862"><ele>358.0</ele><time>2026-05-02T10:10:37.999Z</time></trkpt><trkpt lat="42.9780124" lon="12.0741348"><ele>358.0</ele><time>2026-05-02T10:10:40Z</time></trkpt><trkpt lat="42.9780816" lon="12.0740755"><ele>358.0</ele><time>2026-05-02T10:10:42Z</time></trkpt><trkpt lat="42.9781362" lon="12.0740129"><ele>358.0</ele><time>2026-05-02T10:10:44Z</time></trkpt><trkpt lat="42.978201" lon="12.0739414"><ele>358.0</ele><time>2026-05-02T10:10:47Z</time></trkpt><trkpt lat="42.9782693" lon="12.0738534"><ele>358.0</ele><time>2026-05-02T10:10:50Z</time></trkpt><trkpt lat="42.978326" lon="12.0737522"><ele>357.79999999999995</ele><time>2026-05-02T10:10:51.999Z</time></trkpt><trkpt lat="42.9783637" lon="12.0735999"><ele>357.6</ele><time>2026-05-02T10:10:54Z</time></trkpt><trkpt lat="42.9783651" lon="12.0734405"><ele>357.4</ele><time>2026-05-02T10:10:56Z</time></trkpt><trkpt lat="42.9783478" lon="12.0732982"><ele>357.20000000000005</ele><time>2026-05-02T10:10:58Z</time></trkpt><trkpt lat="42.9783445" lon="12.0731949"><ele>357.0</ele><time>2026-05-02T10:11:01Z</time></trkpt><trkpt lat="42.9783711" lon="12.0730887"><ele>356.6</ele><time>2026-05-02T10:11:04Z</time></trkpt><trkpt lat="42.9783974" lon="12.0729567"><ele>356.20000000000005</ele><time>2026-05-02T10:11:06Z</time></trkpt><trkpt lat="42.9784282" lon="12.0727999"><ele>355.8</ele><time>2026-05-02T10:11:08Z</time></trkpt><trkpt lat="42.9784655" lon="12.0726554"><ele>355.4</ele><time>2026-05-02T10:11:10Z</time></trkpt><trkpt lat="42.9784929" lon="12.0725314"><ele>355.0</ele><time>2026-05-02T10:11:12Z</time></trkpt><trkpt lat="42.9785071" lon="12.0724243"><ele>356.8</ele><time>2026-05-02T10:11:14Z</time></trkpt><trkpt lat="42.9785308" lon="12.0723038"><ele>358.6</ele><time>2026-05-02T10:11:37Z</time></trkpt><trkpt lat="42.9785611" lon="12.0721742"><ele>360.4</ele><time>2026-05-02T10:11:39Z</time></trkpt><trkpt lat="42.9785867" lon="12.072028"><ele>362.2</ele><time>2026-05-02T10:11:41Z</time></trkpt><trkpt lat="42.9786002" lon="12.0719137"><ele>364.0</ele><time>2026-05-02T10:11:43Z</time></trkpt><trkpt lat="42.9786188" lon="12.0718108"><ele>364.0</ele><time>2026-05-02T10:11:45Z</time></trkpt><trkpt lat="42.9786468" lon="12.0717134"><ele>364.0</ele><time>2026-05-02T10:11:46.999Z</time></trkpt><trkpt lat="42.9786652" lon="12.0715918"><ele>364.0</ele><time>2026-05-02T10:11:50Z</time></trkpt><trkpt lat="42.9786865" lon="12.0714962"><ele>364.0</ele><time>2026-05-02T10:11:57Z</time></trkpt><trkpt lat="42.9787056" lon="12.0713958"><ele>364.0</ele><time>2026-05-02T10:12:02Z</time></trkpt><trkpt lat="42.9787307" lon="12.071291"><ele>364.0</ele><time>2026-05-02T10:12:05Z</time></trkpt><trkpt lat="42.9787575" lon="12.0711432"><ele>365.4</ele><time>2026-05-02T10:12:06.999Z</time></trkpt><trkpt lat="42.9787927" lon="12.0710171"><ele>366.79999999999995</ele><time>2026-05-02T10:12:09Z</time></trkpt><trkpt lat="42.9788317" lon="12.0708725"><ele>368.20000000000005</ele><time>2026-05-02T10:12:11Z</time></trkpt><trkpt lat="42.9788718" lon="12.0707247"><ele>369.6</ele><time>2026-05-02T10:12:13Z</time></trkpt><trkpt lat="42.9789045" lon="12.0706408"><ele>371.0</ele><time>2026-05-02T10:12:14Z</time></trkpt><trkpt lat="42.9789402" lon="12.0705567"><ele>372.1666666666667</ele><time>2026-05-02T10:12:15Z</time></trkpt><trkpt lat="42.9789715" lon="12.0704753"><ele>373.33333333333337</ele><time>2026-05-02T10:12:17Z</time></trkpt><trkpt lat="42.9790302" lon="12.0704353"><ele>374.5</ele><time>2026-05-02T10:12:19.999Z</time></trkpt><trkpt lat="42.9791" lon="12.0704384"><ele>375.6666666666667</ele><time>2026-05-02T10:12:24Z</time></trkpt><trkpt lat="42.9791933" lon="12.0704846"><ele>376.8333333333333</ele><time>2026-05-02T10:12:43Z</time></trkpt><trkpt lat="42.9792723" lon="12.0705717"><ele>378.0</ele><time>2026-05-02T10:12:45Z</time></trkpt><trkpt lat="42.9793442" lon="12.0706126"><ele>378.4</ele><time>2026-05-02T10:12:47Z</time></trkpt><trkpt lat="42.9794499" lon="12.0706161"><ele>378.79999999999995</ele><time>2026-05-02T10:12:49Z</time></trkpt><trkpt lat="42.9795165" lon="12.070622"><ele>379.2</ele><time>2026-05-02T10:12:50Z</time></trkpt><trkpt lat="42.979608" lon="12.0706013"><ele>379.6</ele><time>2026-05-02T10:12:52Z</time></trkpt><trkpt lat="42.9796759" lon="12.0705361"><ele>380.0</ele><time>2026-05-02T10:12:54Z</time></trkpt><trkpt lat="42.9796903" lon="12.0703962"><ele>380.0</ele><time>2026-05-02T10:12:56Z</time></trkpt><trkpt lat="42.9797386" lon="12.0702904"><ele>380.0</ele><time>2026-05-02T10:12:58Z</time></trkpt><trkpt lat="42.9797901" lon="12.0701675"><ele>380.0</ele><time>2026-05-02T10:13:00Z</time></trkpt><trkpt lat="42.9798278" lon="12.0700885"><ele>380.0</ele><time>2026-05-02T10:13:01Z</time></trkpt><trkpt lat="42.979872" lon="12.0700114"><ele>380.0</ele><time>2026-05-02T10:13:02Z</time></trkpt><trkpt lat="42.9799387" lon="12.0699125"><ele>380.0</ele><time>2026-05-02T10:13:04Z</time></trkpt><trkpt lat="42.9799889" lon="12.069826"><ele>382.2</ele><time>2026-05-02T10:13:06Z</time></trkpt><trkpt lat="42.9800022" lon="12.0697045"><ele>384.4</ele><time>2026-05-02T10:13:08Z</time></trkpt><trkpt lat="42.9800154" lon="12.0695672"><ele>386.6</ele><time>2026-05-02T10:13:09.999Z</time></trkpt><trkpt lat="42.9800323" lon="12.0694209"><ele>388.8</ele><time>2026-05-02T10:13:12Z</time></trkpt><trkpt lat="42.9800084" lon="12.069275"><ele>391.0</ele><time>2026-05-02T10:13:14Z</time></trkpt><trkpt lat="42.9800114" lon="12.0691133"><ele>393.1666666666667</ele><time>2026-05-02T10:13:16Z</time></trkpt><trkpt lat="42.9800846" lon="12.0690363"><ele>395.33333333333337</ele><time>2026-05-02T10:13:18Z</time></trkpt><trkpt lat="42.9801425" lon="12.068964"><ele>397.5</ele><time>2026-05-02T10:13:20Z</time></trkpt><trkpt lat="42.9801517" lon="12.0688512"><ele>399.66666666666663</ele><time>2026-05-02T10:13:22Z</time></trkpt><trkpt lat="42.9801608" lon="12.0687314"><ele>401.8333333333333</ele><time>2026-05-02T10:13:24Z</time></trkpt><trkpt lat="42.9802065" lon="12.068625"><ele>404.0</ele><time>2026-05-02T10:13:25.999Z</time></trkpt><trkpt lat="42.9802419" lon="12.0685464"><ele>404.0</ele><time>2026-05-02T10:13:28Z</time></trkpt><trkpt lat="42.9801817" lon="12.0684671"><ele>404.0</ele><time>2026-05-02T10:13:31Z</time></trkpt><trkpt lat="42.9801026" lon="12.068422"><ele>404.0</ele><time>2026-05-02T10:13:32.999Z</time></trkpt><trkpt lat="42.9800871" lon="12.0682989"><ele>404.0</ele><time>2026-05-02T10:13:35Z</time></trkpt><trkpt lat="42.9800919" lon="12.068172"><ele>404.0</ele><time>2026-05-02T10:13:37Z</time></trkpt><trkpt lat="42.9800925" lon="12.0680276"><ele>405.8333333333333</ele><time>2026-05-02T10:13:39Z</time></trkpt><trkpt lat="42.9800259" lon="12.0679309"><ele>407.66666666666663</ele><time>2026-05-02T10:13:41Z</time></trkpt><trkpt lat="42.9799239" lon="12.0678572"><ele>409.5</ele><time>2026-05-02T10:13:43Z</time></trkpt><trkpt lat="42.9798672" lon="12.0678047"><ele>411.33333333333337</ele><time>2026-05-02T10:13:44Z</time></trkpt><trkpt lat="42.9798134" lon="12.0677564"><ele>413.1666666666667</ele><time>2026-05-02T10:13:45Z</time></trkpt><trkpt lat="42.9797599" lon="12.0676988"><ele>415.0</ele><time>2026-05-02T10:13:46Z</time></trkpt><trkpt lat="42.9796599" lon="12.067595"><ele>415.0</ele><time>2026-05-02T10:13:47.999Z</time></trkpt><trkpt lat="42.979617" lon="12.0674731"><ele>415.0</ele><time>2026-05-02T10:13:49.999Z</time></trkpt><trkpt lat="42.9795958" lon="12.0673173"><ele>415.0</ele><time>2026-05-02T10:13:52Z</time></trkpt><trkpt lat="42.9795941" lon="12.0671797"><ele>415.0</ele><time>2026-05-02T10:13:54Z</time></trkpt><trkpt lat="42.9795613" lon="12.06703"><ele>415.0</ele><time>2026-05-02T10:13:56Z</time></trkpt><trkpt lat="42.9795377" lon="12.066939"><ele>416.8</ele><time>2026-05-02T10:13:57Z</time></trkpt><trkpt lat="42.9794931" lon="12.0668438"><ele>418.6</ele><time>2026-05-02T10:13:58Z</time></trkpt><trkpt lat="42.9794422" lon="12.0667584"><ele>420.4</ele><time>2026-05-02T10:13:59Z</time></trkpt><trkpt lat="42.979371" lon="12.066618"><ele>422.2</ele><time>2026-05-02T10:14:01Z</time></trkpt><trkpt lat="42.9792995" lon="12.0664954"><ele>424.0</ele><time>2026-05-02T10:14:03Z</time></trkpt><trkpt lat="42.9792397" lon="12.0663684"><ele>423.33333333333337</ele><time>2026-05-02T10:14:05Z</time></trkpt><trkpt lat="42.9791854" lon="12.0662967"><ele>422.6666666666667</ele><time>2026-05-02T10:14:08Z</time></trkpt><trkpt lat="42.9791197" lon="12.0663395"><ele>422.0</ele><time>2026-05-02T10:14:10Z</time></trkpt><trkpt lat="42.9790744" lon="12.066401"><ele>421.33333333333337</ele><time>2026-05-02T10:14:12Z</time></trkpt><trkpt lat="42.9789934" lon="12.066427"><ele>420.6666666666667</ele><time>2026-05-02T10:14:13.999Z</time></trkpt><trkpt lat="42.9789141" lon="12.0663867"><ele>420.0</ele><time>2026-05-02T10:14:16Z</time></trkpt><trkpt lat="42.9788334" lon="12.0663186"><ele>420.0</ele><time>2026-05-02T10:14:18Z</time></trkpt><trkpt lat="42.9787753" lon="12.0662635"><ele>420.0</ele><time>2026-05-02T10:14:20Z</time></trkpt><trkpt lat="42.9787453" lon="12.0661788"><ele>420.0</ele><time>2026-05-02T10:14:22Z</time></trkpt><trkpt lat="42.9787352" lon="12.0660495"><ele>420.0</ele><time>2026-05-02T10:14:24Z</time></trkpt><trkpt lat="42.9787138" lon="12.0658806"><ele>420.0</ele><time>2026-05-02T10:14:26Z</time></trkpt><trkpt lat="42.9787366" lon="12.065724"><ele>420.6</ele><time>2026-05-02T10:14:27.999Z</time></trkpt><trkpt lat="42.9787416" lon="12.0655763"><ele>421.2</ele><time>2026-05-02T10:14:30Z</time></trkpt><trkpt lat="42.9786944" lon="12.0654633"><ele>421.79999999999995</ele><time>2026-05-02T10:14:32Z</time></trkpt><trkpt lat="42.9786265" lon="12.0653451"><ele>422.4</ele><time>2026-05-02T10:14:34Z</time></trkpt><trkpt lat="42.9786205" lon="12.0652529"><ele>423.0</ele><time>2026-05-02T10:14:35.999Z</time></trkpt><trkpt lat="42.9786497" lon="12.0651472"><ele>423.0</ele><time>2026-05-02T10:14:37.999Z</time></trkpt><trkpt lat="42.9787204" lon="12.0650676"><ele>423.0</ele><time>2026-05-02T10:14:40Z</time></trkpt><trkpt lat="42.9787777" lon="12.0650206"><ele>423.0</ele><time>2026-05-02T10:14:41Z</time></trkpt><trkpt lat="42.9789049" lon="12.0649388"><ele>423.0</ele><time>2026-05-02T10:14:42.999Z</time></trkpt><trkpt lat="42.9789879" lon="12.0648862"><ele>423.0</ele><time>2026-05-02T10:14:44Z</time></trkpt><trkpt lat="42.9790622" lon="12.0648672"><ele>423.6666666666667</ele><time>2026-05-02T10:14:45Z</time></trkpt><trkpt lat="42.9791457" lon="12.0648589"><ele>424.33333333333337</ele><time>2026-05-02T10:14:46Z</time></trkpt><trkpt lat="42.9792105" lon="12.0648211"><ele>425.0</ele><time>2026-05-02T10:14:47Z</time></trkpt><trkpt lat="42.9792637" lon="12.0647658"><ele>425.6666666666667</ele><time>2026-05-02T10:14:48Z</time></trkpt><trkpt lat="42.9793342" lon="12.0647113"><ele>426.33333333333337</ele><time>2026-05-02T10:14:49Z</time></trkpt><trkpt lat="42.9794017" lon="12.0646753"><ele>427.0</ele><time>2026-05-02T10:14:50Z</time></trkpt><trkpt lat="42.9794873" lon="12.064561"><ele>427.0</ele><time>2026-05-02T10:14:51.999Z</time></trkpt><trkpt lat="42.9794776" lon="12.0644217"><ele>427.00000000000006</ele><time>2026-05-02T10:14:53.999Z</time></trkpt><trkpt lat="42.9794171" lon="12.0643179"><ele>427.00000000000006</ele><time>2026-05-02T10:14:56Z</time></trkpt><trkpt lat="42.9792993" lon="12.0642727"><ele>427.0</ele><time>2026-05-02T10:14:58Z</time></trkpt><trkpt lat="42.979225" lon="12.0642817"><ele>427.0</ele><time>2026-05-02T10:14:59Z</time></trkpt><trkpt lat="42.9791605" lon="12.0642888"><ele>427.00000000000006</ele><time>2026-05-02T10:15:00Z</time></trkpt><trkpt lat="42.9790804" lon="12.0642516"><ele>427.0</ele><time>2026-05-02T10:15:02Z</time></trkpt><trkpt lat="42.9790041" lon="12.0642085"><ele>427.0</ele><time>2026-05-02T10:15:03Z</time></trkpt><trkpt lat="42.9789342" lon="12.064135"><ele>427.0</ele><time>2026-05-02T10:15:04Z</time></trkpt><trkpt lat="42.9788635" lon="12.0640807"><ele>427.00000000000006</ele><time>2026-05-02T10:15:05Z</time></trkpt><trkpt lat="42.9787903" lon="12.0640134"><ele>427.0</ele><time>2026-05-02T10:15:06Z</time></trkpt><trkpt lat="42.9787246" lon="12.0639409"><ele>429.0</ele><time>2026-05-02T10:15:06.999Z</time></trkpt><trkpt lat="42.9786552" lon="12.0638929"><ele>431.00000000000006</ele><time>2026-05-02T10:15:07.999Z</time></trkpt><trkpt lat="42.9785664" lon="12.0638055"><ele>433.00000000000006</ele><time>2026-05-02T10:15:10Z</time></trkpt><trkpt lat="42.9785059" lon="12.0636926"><ele>435.0</ele><time>2026-05-02T10:15:12Z</time></trkpt><trkpt lat="42.9784777" lon="12.0635573"><ele>437.0</ele><time>2026-05-02T10:15:14Z</time></trkpt><trkpt lat="42.9784491" lon="12.0634071"><ele>436.99999999999994</ele><time>2026-05-02T10:15:16Z</time></trkpt><trkpt lat="42.9783991" lon="12.0632927"><ele>437.0</ele><time>2026-05-02T10:15:17Z</time></trkpt><trkpt lat="42.9783655" lon="12.0631989"><ele>437.0</ele><time>2026-05-02T10:15:18Z</time></trkpt><trkpt lat="42.978331" lon="12.0631107"><ele>437.0</ele><time>2026-05-02T10:15:19Z</time></trkpt><trkpt lat="42.9783162" lon="12.0630022"><ele>436.99999999999994</ele><time>2026-05-02T10:15:20Z</time></trkpt><trkpt lat="42.9783045" lon="12.0628997"><ele>437.0</ele><time>2026-05-02T10:15:21Z</time></trkpt><trkpt lat="42.9782757" lon="12.0628036"><ele>436.0</ele><time>2026-05-02T10:15:22Z</time></trkpt><trkpt lat="42.9782417" lon="12.0626895"><ele>435.00000000000006</ele><time>2026-05-02T10:15:23Z</time></trkpt><trkpt lat="42.9782036" lon="12.0625856"><ele>434.00000000000006</ele><time>2026-05-02T10:15:23.999Z</time></trkpt><trkpt lat="42.9781629" lon="12.0624517"><ele>433.0</ele><time>2026-05-02T10:15:25Z</time></trkpt><trkpt lat="42.9781334" lon="12.0623506"><ele>432.0</ele><time>2026-05-02T10:15:26Z</time></trkpt><trkpt lat="42.9780933" lon="12.0621882"><ele>432.0</ele><time>2026-05-02T10:15:27.999Z</time></trkpt><trkpt lat="42.978056" lon="12.0620701"><ele>432.0</ele><time>2026-05-02T10:15:30Z</time></trkpt><trkpt lat="42.9780257" lon="12.0619767"><ele>432.0</ele><time>2026-05-02T10:15:31.999Z</time></trkpt><trkpt lat="42.9780895" lon="12.061913"><ele>432.0</ele><time>2026-05-02T10:15:36Z</time></trkpt><trkpt lat="42.9781548" lon="12.0619523"><ele>432.0</ele><time>2026-05-02T10:15:44Z</time></trkpt><trkpt lat="42.9782386" lon="12.0620288"><ele>432.0</ele><time>2026-05-02T10:15:46Z</time></trkpt><trkpt lat="42.978305" lon="12.0621655"><ele>432.0</ele><time>2026-05-02T10:15:48Z</time></trkpt><trkpt lat="42.9783414" lon="12.0622446"><ele>432.00000000000006</ele><time>2026-05-02T10:15:49Z</time></trkpt><trkpt lat="42.9783894" lon="12.0623149"><ele>432.00000000000006</ele><time>2026-05-02T10:15:50Z</time></trkpt><trkpt lat="42.9785025" lon="12.0623792"><ele>432.0</ele><time>2026-05-02T10:15:52Z</time></trkpt><trkpt lat="42.9786276" lon="12.0623674"><ele>432.0</ele><time>2026-05-02T10:15:54Z</time></trkpt><trkpt lat="42.9786908" lon="12.0623395"><ele>433.6666666666667</ele><time>2026-05-02T10:15:55Z</time></trkpt><trkpt lat="42.9787428" lon="12.0622722"><ele>435.33333333333337</ele><time>2026-05-02T10:15:56Z</time></trkpt><trkpt lat="42.9787996" lon="12.0622087"><ele>437.0</ele><time>2026-05-02T10:15:57Z</time></trkpt><trkpt lat="42.9788609" lon="12.0621594"><ele>438.6666666666667</ele><time>2026-05-02T10:15:58Z</time></trkpt><trkpt lat="42.9789275" lon="12.0620945"><ele>440.33333333333337</ele><time>2026-05-02T10:15:59Z</time></trkpt><trkpt lat="42.9789996" lon="12.0620252"><ele>442.0</ele><time>2026-05-02T10:15:59.999Z</time></trkpt><trkpt lat="42.9790724" lon="12.0619563"><ele>442.0</ele><time>2026-05-02T10:16:00.999Z</time></trkpt><trkpt lat="42.9791449" lon="12.061862"><ele>442.00000000000006</ele><time>2026-05-02T10:16:01.999Z</time></trkpt><trkpt lat="42.9792161" lon="12.061756"><ele>442.00000000000006</ele><time>2026-05-02T10:16:03Z</time></trkpt><trkpt lat="42.9792899" lon="12.0616576"><ele>442.0</ele><time>2026-05-02T10:16:04Z</time></trkpt><trkpt lat="42.9793666" lon="12.0615709"><ele>442.0</ele><time>2026-05-02T10:16:05Z</time></trkpt><trkpt lat="42.979434" lon="12.0615018"><ele>442.6</ele><time>2026-05-02T10:16:06Z</time></trkpt><trkpt lat="42.9795157" lon="12.0614451"><ele>443.20000000000005</ele><time>2026-05-02T10:16:06.999Z</time></trkpt><trkpt lat="42.9796038" lon="12.0613902"><ele>443.8</ele><time>2026-05-02T10:16:08Z</time></trkpt><trkpt lat="42.9796943" lon="12.0613472"><ele>444.4</ele><time>2026-05-02T10:16:09Z</time></trkpt><trkpt lat="42.9797787" lon="12.0613051"><ele>445.0</ele><time>2026-05-02T10:16:10Z</time></trkpt><trkpt lat="42.9798558" lon="12.0612956"><ele>445.0</ele><time>2026-05-02T10:16:11Z</time></trkpt><trkpt lat="42.9799371" lon="12.0613128"><ele>445.0</ele><time>2026-05-02T10:16:12Z</time></trkpt><trkpt lat="42.9800208" lon="12.0613639"><ele>445.0</ele><time>2026-05-02T10:16:13Z</time></trkpt><trkpt lat="42.9801133" lon="12.0614419"><ele>445.0</ele><time>2026-05-02T10:16:13.999Z</time></trkpt><trkpt lat="42.9802057" lon="12.0615352"><ele>445.0</ele><time>2026-05-02T10:16:15Z</time></trkpt><trkpt lat="42.9803084" lon="12.0616285"><ele>448.6666666666667</ele><time>2026-05-02T10:16:16Z</time></trkpt><trkpt lat="42.9803888" lon="12.0617149"><ele>452.33333333333337</ele><time>2026-05-02T10:16:17Z</time></trkpt><trkpt lat="42.9804544" lon="12.061801"><ele>456.0</ele><time>2026-05-02T10:16:18Z</time></trkpt><trkpt lat="42.9805155" lon="12.0618663"><ele>459.66666666666663</ele><time>2026-05-02T10:16:19Z</time></trkpt><trkpt lat="42.9805858" lon="12.06191"><ele>463.3333333333333</ele><time>2026-05-02T10:16:20Z</time></trkpt><trkpt lat="42.9806765" lon="12.0619171"><ele>467.0</ele><time>2026-05-02T10:16:21Z</time></trkpt><trkpt lat="42.9807768" lon="12.0619253"><ele>468.25</ele><time>2026-05-02T10:16:22Z</time></trkpt><trkpt lat="42.9808868" lon="12.0619389"><ele>469.5</ele><time>2026-05-02T10:16:23Z</time></trkpt><trkpt lat="42.9809987" lon="12.061971"><ele>470.75</ele><time>2026-05-02T10:16:24Z</time></trkpt><trkpt lat="42.9811101" lon="12.0620208"><ele>472.0</ele><time>2026-05-02T10:16:25Z</time></trkpt><trkpt lat="42.9812244" lon="12.0620547"><ele>472.0</ele><time>2026-05-02T10:16:26Z</time></trkpt><trkpt lat="42.9813379" lon="12.0620961"><ele>472.00000000000006</ele><time>2026-05-02T10:16:26.999Z</time></trkpt><trkpt lat="42.981442" lon="12.0621335"><ele>472.00000000000006</ele><time>2026-05-02T10:16:28Z</time></trkpt><trkpt lat="42.9815507" lon="12.0621804"><ele>472.0</ele><time>2026-05-02T10:16:29Z</time></trkpt><trkpt lat="42.9816477" lon="12.0622096"><ele>472.0</ele><time>2026-05-02T10:16:30Z</time></trkpt><trkpt lat="42.981749" lon="12.0622119"><ele>474.0</ele><time>2026-05-02T10:16:31Z</time></trkpt><trkpt lat="42.9818549" lon="12.0622063"><ele>476.0</ele><time>2026-05-02T10:16:31.999Z</time></trkpt><trkpt lat="42.9819737" lon="12.0621814"><ele>478.0</ele><time>2026-05-02T10:16:33Z</time></trkpt><trkpt lat="42.9820932" lon="12.0621647"><ele>480.0</ele><time>2026-05-02T10:16:33.999Z</time></trkpt><trkpt lat="42.9822109" lon="12.0621437"><ele>480.0</ele><time>2026-05-02T10:16:35Z</time></trkpt><trkpt lat="42.9823109" lon="12.0621294"><ele>480.0</ele><time>2026-05-02T10:16:36Z</time></trkpt><trkpt lat="42.982401" lon="12.0621044"><ele>480.0</ele><time>2026-05-02T10:16:37Z</time></trkpt><trkpt lat="42.9824915" lon="12.0620837"><ele>480.0</ele><time>2026-05-02T10:16:38Z</time></trkpt><trkpt lat="42.9825829" lon="12.0620552"><ele>480.0</ele><time>2026-05-02T10:16:39Z</time></trkpt><trkpt lat="42.9826791" lon="12.0620173"><ele>480.0</ele><time>2026-05-02T10:16:40Z</time></trkpt><trkpt lat="42.9827879" lon="12.0619688"><ele>480.0</ele><time>2026-05-02T10:16:41Z</time></trkpt><trkpt lat="42.9828875" lon="12.0619415"><ele>480.0</ele><time>2026-05-02T10:16:41.999Z</time></trkpt><trkpt lat="42.9829931" lon="12.0619227"><ele>480.0</ele><time>2026-05-02T10:16:43Z</time></trkpt><trkpt lat="42.983095" lon="12.0619035"><ele>480.0</ele><time>2026-05-02T10:16:44Z</time></trkpt><trkpt lat="42.9831897" lon="12.0618956"><ele>480.0</ele><time>2026-05-02T10:16:44.999Z</time></trkpt><trkpt lat="42.9832944" lon="12.0619044"><ele>480.0</ele><time>2026-05-02T10:16:46Z</time></trkpt><trkpt lat="42.9833872" lon="12.0619399"><ele>480.0</ele><time>2026-05-02T10:16:47Z</time></trkpt><trkpt lat="42.9834756" lon="12.0619604"><ele>480.0</ele><time>2026-05-02T10:16:48Z</time></trkpt><trkpt lat="42.9835743" lon="12.0619516"><ele>480.0</ele><time>2026-05-02T10:16:49Z</time></trkpt><trkpt lat="42.9836806" lon="12.0619191"><ele>482.75</ele><time>2026-05-02T10:16:50Z</time></trkpt><trkpt lat="42.9837963" lon="12.0618465"><ele>485.5</ele><time>2026-05-02T10:16:51Z</time></trkpt><trkpt lat="42.9839083" lon="12.0617842"><ele>488.25</ele><time>2026-05-02T10:16:52Z</time></trkpt><trkpt lat="42.9840154" lon="12.0617181"><ele>491.0</ele><time>2026-05-02T10:16:53Z</time></trkpt><trkpt lat="42.9841085" lon="12.0616279"><ele>489.8</ele><time>2026-05-02T10:16:54Z</time></trkpt><trkpt lat="42.9841907" lon="12.0615416"><ele>488.6</ele><time>2026-05-02T10:16:55Z</time></trkpt><trkpt lat="42.984237" lon="12.0614622"><ele>487.4</ele><time>2026-05-02T10:16:55.999Z</time></trkpt><trkpt lat="42.9842838" lon="12.0613874"><ele>486.2</ele><time>2026-05-02T10:16:57Z</time></trkpt><trkpt lat="42.9843986" lon="12.0613091"><ele>485.0</ele><time>2026-05-02T10:16:58.999Z</time></trkpt><trkpt lat="42.9844703" lon="12.0612883"><ele>484.99999999999994</ele><time>2026-05-02T10:17:00Z</time></trkpt><trkpt lat="42.9845412" lon="12.0612743"><ele>485.0</ele><time>2026-05-02T10:17:01Z</time></trkpt><trkpt lat="42.9846131" lon="12.0612854"><ele>485.0</ele><time>2026-05-02T10:17:02Z</time></trkpt><trkpt lat="42.9846782" lon="12.0613199"><ele>485.0</ele><time>2026-05-02T10:17:03Z</time></trkpt><trkpt lat="42.984733" lon="12.0614072"><ele>484.99999999999994</ele><time>2026-05-02T10:17:04Z</time></trkpt><trkpt lat="42.9847796" lon="12.061496"><ele>485.0</ele><time>2026-05-02T10:17:05Z</time></trkpt><trkpt lat="42.9848224" lon="12.0615946"><ele>487.49999999999994</ele><time>2026-05-02T10:17:06Z</time></trkpt><trkpt lat="42.9848624" lon="12.0616982"><ele>490.0</ele><time>2026-05-02T10:17:07Z</time></trkpt><trkpt lat="42.9849005" lon="12.0618111"><ele>492.5</ele><time>2026-05-02T10:17:08Z</time></trkpt><trkpt lat="42.9849223" lon="12.0619206"><ele>495.0</ele><time>2026-05-02T10:17:08.999Z</time></trkpt><trkpt lat="42.9850061" lon="12.0620267"><ele>497.49999999999994</ele><time>2026-05-02T10:17:11Z</time></trkpt><trkpt lat="42.9850696" lon="12.0620561"><ele>500.0</ele><time>2026-05-02T10:17:12Z</time></trkpt><trkpt lat="42.9851544" lon="12.0620377"><ele>500.0</ele><time>2026-05-02T10:17:13Z</time></trkpt><trkpt lat="42.9852437" lon="12.0620045"><ele>500.0</ele><time>2026-05-02T10:17:14Z</time></trkpt><trkpt lat="42.9853588" lon="12.0619762"><ele>500.0</ele><time>2026-05-02T10:17:15Z</time></trkpt><trkpt lat="42.9855096" lon="12.061985"><ele>500.0</ele><time>2026-05-02T10:17:16Z</time></trkpt><trkpt lat="42.9856473" lon="12.0620203"><ele>500.0</ele><time>2026-05-02T10:17:16.999Z</time></trkpt><trkpt lat="42.985784" lon="12.0620543"><ele>500.0</ele><time>2026-05-02T10:17:17.999Z</time></trkpt><trkpt lat="42.9859028" lon="12.0620668"><ele>500.0</ele><time>2026-05-02T10:17:19Z</time></trkpt><trkpt lat="42.9860092" lon="12.0620708"><ele>500.0</ele><time>2026-05-02T10:17:19.999Z</time></trkpt><trkpt lat="42.9860946" lon="12.0620415"><ele>502.2</ele><time>2026-05-02T10:17:21Z</time></trkpt><trkpt lat="42.9862177" lon="12.0620178"><ele>504.4</ele><time>2026-05-02T10:17:22Z</time></trkpt><trkpt lat="42.9863285" lon="12.0619938"><ele>506.6</ele><time>2026-05-02T10:17:22.999Z</time></trkpt><trkpt lat="42.98643" lon="12.062004"><ele>508.8</ele><time>2026-05-02T10:17:24Z</time></trkpt><trkpt lat="42.9865261" lon="12.062015"><ele>511.0</ele><time>2026-05-02T10:17:25Z</time></trkpt><trkpt lat="42.9866066" lon="12.0620443"><ele>511.8</ele><time>2026-05-02T10:17:26Z</time></trkpt><trkpt lat="42.9867036" lon="12.0620875"><ele>512.6</ele><time>2026-05-02T10:17:27Z</time></trkpt><trkpt lat="42.986801" lon="12.062145"><ele>513.4</ele><time>2026-05-02T10:17:28Z</time></trkpt><trkpt lat="42.9869068" lon="12.0622122"><ele>514.2</ele><time>2026-05-02T10:17:29Z</time></trkpt><trkpt lat="42.9870005" lon="12.0622799"><ele>515.0</ele><time>2026-05-02T10:17:30Z</time></trkpt><trkpt lat="42.9870694" lon="12.0623645"><ele>517.6666666666666</ele><time>2026-05-02T10:17:31Z</time></trkpt><trkpt lat="42.9871247" lon="12.0624664"><ele>520.3333333333333</ele><time>2026-05-02T10:17:32Z</time></trkpt><trkpt lat="42.9871688" lon="12.062564"><ele>523.0</ele><time>2026-05-02T10:17:33Z</time></trkpt><trkpt lat="42.9872106" lon="12.0626869"><ele>525.6666666666666</ele><time>2026-05-02T10:17:34Z</time></trkpt><trkpt lat="42.9872496" lon="12.062806"><ele>528.3333333333334</ele><time>2026-05-02T10:17:34.999Z</time></trkpt><trkpt lat="42.9872788" lon="12.0629029"><ele>531.0</ele><time>2026-05-02T10:17:35.999Z</time></trkpt><trkpt lat="42.9873141" lon="12.0629824"><ele>531.0</ele><time>2026-05-02T10:17:36.999Z</time></trkpt><trkpt lat="42.9874317" lon="12.0630681"><ele>531.0</ele><time>2026-05-02T10:17:39Z</time></trkpt><trkpt lat="42.9875182" lon="12.0630749"><ele>531.0</ele><time>2026-05-02T10:17:40Z</time></trkpt><trkpt lat="42.9876143" lon="12.0630544"><ele>531.0</ele><time>2026-05-02T10:17:41Z</time></trkpt><trkpt lat="42.9877014" lon="12.0630334"><ele>531.0</ele><time>2026-05-02T10:17:42Z</time></trkpt><trkpt lat="42.9877765" lon="12.0630163"><ele>531.0</ele><time>2026-05-02T10:17:43Z</time></trkpt><trkpt lat="42.9878526" lon="12.0629904"><ele>531.0</ele><time>2026-05-02T10:17:44Z</time></trkpt><trkpt lat="42.9879325" lon="12.0629777"><ele>531.0</ele><time>2026-05-02T10:17:45Z</time></trkpt><trkpt lat="42.9880175" lon="12.0629825"><ele>531.0</ele><time>2026-05-02T10:17:46Z</time></trkpt><trkpt lat="42.9881112" lon="12.0629864"><ele>531.0</ele><time>2026-05-02T10:17:46.999Z</time></trkpt><trkpt lat="42.9881997" lon="12.0629826"><ele>531.0</ele><time>2026-05-02T10:17:48Z</time></trkpt><trkpt lat="42.9882866" lon="12.0629701"><ele>528.8</ele><time>2026-05-02T10:17:49Z</time></trkpt><trkpt lat="42.9883757" lon="12.0629432"><ele>526.6</ele><time>2026-05-02T10:17:50Z</time></trkpt><trkpt lat="42.9884717" lon="12.0629126"><ele>524.4</ele><time>2026-05-02T10:17:51Z</time></trkpt><trkpt lat="42.9885767" lon="12.0628792"><ele>522.2</ele><time>2026-05-02T10:17:52Z</time></trkpt><trkpt lat="42.9886806" lon="12.0628459"><ele>520.0</ele><time>2026-05-02T10:17:53Z</time></trkpt><trkpt lat="42.9887799" lon="12.0628051"><ele>520.0</ele><time>2026-05-02T10:17:54Z</time></trkpt><trkpt lat="42.988883" lon="12.06277"><ele>520.0</ele><time>2026-05-02T10:17:55Z</time></trkpt><trkpt lat="42.9889916" lon="12.0627303"><ele>520.0</ele><time>2026-05-02T10:17:55.999Z</time></trkpt><trkpt lat="42.9891074" lon="12.0626809"><ele>520.0</ele><time>2026-05-02T10:17:56.999Z</time></trkpt><trkpt lat="42.9892108" lon="12.0626375"><ele>520.0</ele><time>2026-05-02T10:17:58Z</time></trkpt><trkpt lat="42.9893136" lon="12.0625832"><ele>517.8</ele><time>2026-05-02T10:17:59Z</time></trkpt><trkpt lat="42.9894058" lon="12.062541"><ele>515.6</ele><time>2026-05-02T10:18:00Z</time></trkpt><trkpt lat="42.9894928" lon="12.0625078"><ele>513.4</ele><time>2026-05-02T10:18:01Z</time></trkpt><trkpt lat="42.9895983" lon="12.0624827"><ele>511.2</ele><time>2026-05-02T10:18:02Z</time></trkpt><trkpt lat="42.9897125" lon="12.0624747"><ele>509.0</ele><time>2026-05-02T10:18:03Z</time></trkpt><trkpt lat="42.9898311" lon="12.0624831"><ele>509.0</ele><time>2026-05-02T10:18:03.999Z</time></trkpt><trkpt lat="42.9899445" lon="12.0624994"><ele>509.0</ele><time>2026-05-02T10:18:04.999Z</time></trkpt><trkpt lat="42.9900571" lon="12.0625258"><ele>509.0</ele><time>2026-05-02T10:18:06Z</time></trkpt><trkpt lat="42.9901734" lon="12.0625628"><ele>509.0</ele><time>2026-05-02T10:18:07Z</time></trkpt><trkpt lat="42.990289" lon="12.062625"><ele>509.0</ele><time>2026-05-02T10:18:08Z</time></trkpt><trkpt lat="42.9904088" lon="12.0626939"><ele>509.0</ele><time>2026-05-02T10:18:09Z</time></trkpt><trkpt lat="42.9905355" lon="12.062787"><ele>509.0</ele><time>2026-05-02T10:18:10Z</time></trkpt><trkpt lat="42.9906713" lon="12.0628917"><ele>509.0</ele><time>2026-05-02T10:18:11Z</time></trkpt><trkpt lat="42.990791" lon="12.0630083"><ele>510.5</ele><time>2026-05-02T10:18:12Z</time></trkpt><trkpt lat="42.9908878" lon="12.0631175"><ele>512.0</ele><time>2026-05-02T10:18:13Z</time></trkpt><trkpt lat="42.9909641" lon="12.0632321"><ele>513.5</ele><time>2026-05-02T10:18:14Z</time></trkpt><trkpt lat="42.9910454" lon="12.0633426"><ele>515.0</ele><time>2026-05-02T10:18:15Z</time></trkpt><trkpt lat="42.9911483" lon="12.0634531"><ele>516.2</ele><time>2026-05-02T10:18:16Z</time></trkpt><trkpt lat="42.9912444" lon="12.0635461"><ele>517.4</ele><time>2026-05-02T10:18:17Z</time></trkpt><trkpt lat="42.9913376" lon="12.0636292"><ele>518.6</ele><time>2026-05-02T10:18:18Z</time></trkpt><trkpt lat="42.9914342" lon="12.0636964"><ele>519.8</ele><time>2026-05-02T10:18:19Z</time></trkpt><trkpt lat="42.9915256" lon="12.063739"><ele>521.0</ele><time>2026-05-02T10:18:20Z</time></trkpt><trkpt lat="42.9916268" lon="12.0637615"><ele>519.75</ele><time>2026-05-02T10:18:21Z</time></trkpt><trkpt lat="42.991741" lon="12.063771"><ele>518.5</ele><time>2026-05-02T10:18:22Z</time></trkpt><trkpt lat="42.9918621" lon="12.0637977"><ele>517.25</ele><time>2026-05-02T10:18:23Z</time></trkpt><trkpt lat="42.9919849" lon="12.0638144"><ele>516.0</ele><time>2026-05-02T10:18:24Z</time></trkpt><trkpt lat="42.9921137" lon="12.0638157"><ele>516.0</ele><time>2026-05-02T10:18:24.999Z</time></trkpt><trkpt lat="42.9922586" lon="12.0638076"><ele>516.0</ele><time>2026-05-02T10:18:25.999Z</time></trkpt><trkpt lat="42.9924001" lon="12.0638097"><ele>516.0</ele><time>2026-05-02T10:18:26.999Z</time></trkpt><trkpt lat="42.9925413" lon="12.0638161"><ele>516.0</ele><time>2026-05-02T10:18:28Z</time></trkpt><trkpt lat="42.9926838" lon="12.0638384"><ele>514.0</ele><time>2026-05-02T10:18:29Z</time></trkpt><trkpt lat="42.9928339" lon="12.0638738"><ele>512.0</ele><time>2026-05-02T10:18:30Z</time></trkpt><trkpt lat="42.9929843" lon="12.0639287"><ele>510.0</ele><time>2026-05-02T10:18:31Z</time></trkpt><trkpt lat="42.9931301" lon="12.0639937"><ele>510.0</ele><time>2026-05-02T10:18:32Z</time></trkpt><trkpt lat="42.9932748" lon="12.0640551"><ele>510.0</ele><time>2026-05-02T10:18:32.999Z</time></trkpt><trkpt lat="42.9934154" lon="12.064117"><ele>510.0</ele><time>2026-05-02T10:18:34Z</time></trkpt><trkpt lat="42.9935467" lon="12.0641744"><ele>510.0</ele><time>2026-05-02T10:18:35Z</time></trkpt><trkpt lat="42.993677" lon="12.0642146"><ele>512.0</ele><time>2026-05-02T10:18:36Z</time></trkpt><trkpt lat="42.9938082" lon="12.0642746"><ele>514.0</ele><time>2026-05-02T10:18:36.999Z</time></trkpt><trkpt lat="42.9939404" lon="12.06436"><ele>516.0</ele><time>2026-05-02T10:18:38Z</time></trkpt><trkpt lat="42.9940626" lon="12.0644518"><ele>518.0</ele><time>2026-05-02T10:18:39Z</time></trkpt><trkpt lat="42.9941687" lon="12.0645457"><ele>519.25</ele><time>2026-05-02T10:18:40Z</time></trkpt><trkpt lat="42.994274" lon="12.0646416"><ele>520.5</ele><time>2026-05-02T10:18:41Z</time></trkpt><trkpt lat="42.9943877" lon="12.064727"><ele>521.75</ele><time>2026-05-02T10:18:41.999Z</time></trkpt><trkpt lat="42.9945137" lon="12.0648157"><ele>523.0</ele><time>2026-05-02T10:18:43Z</time></trkpt><trkpt lat="42.9946193" lon="12.0649015"><ele>525.5</ele><time>2026-05-02T10:18:44Z</time></trkpt><trkpt lat="42.9947202" lon="12.0649812"><ele>528.0</ele><time>2026-05-02T10:18:45Z</time></trkpt><trkpt lat="42.9948226" lon="12.0650464"><ele>530.5</ele><time>2026-05-02T10:18:46Z</time></trkpt><trkpt lat="42.9949373" lon="12.0650902"><ele>533.0</ele><time>2026-05-02T10:18:47Z</time></trkpt><trkpt lat="42.9950544" lon="12.0651179"><ele>536.0</ele><time>2026-05-02T10:18:48Z</time></trkpt><trkpt lat="42.9951656" lon="12.0651164"><ele>539.0</ele><time>2026-05-02T10:18:49Z</time></trkpt><trkpt lat="42.9952752" lon="12.0650947"><ele>542.0</ele><time>2026-05-02T10:18:50Z</time></trkpt><trkpt lat="42.9953837" lon="12.0650375"><ele>545.0</ele><time>2026-05-02T10:18:50.999Z</time></trkpt><trkpt lat="42.9954941" lon="12.0650062"><ele>545.0</ele><time>2026-05-02T10:18:52Z</time></trkpt><trkpt lat="42.9956137" lon="12.0649907"><ele>545.0</ele><time>2026-05-02T10:18:53Z</time></trkpt><trkpt lat="42.9957343" lon="12.0649774"><ele>545.0</ele><time>2026-05-02T10:18:54Z</time></trkpt><trkpt lat="42.9958619" lon="12.0649881"><ele>545.0</ele><time>2026-05-02T10:18:54.999Z</time></trkpt><trkpt lat="42.9959823" lon="12.0649982"><ele>547.5</ele><time>2026-05-02T10:18:56Z</time></trkpt><trkpt lat="42.9961032" lon="12.0649981"><ele>550.0</ele><time>2026-05-02T10:18:57Z</time></trkpt><trkpt lat="42.9962317" lon="12.0650037"><ele>552.5</ele><time>2026-05-02T10:18:58Z</time></trkpt><trkpt lat="42.9963575" lon="12.0650234"><ele>555.0</ele><time>2026-05-02T10:18:59Z</time></trkpt><trkpt lat="42.9964744" lon="12.0650641"><ele>555.0</ele><time>2026-05-02T10:19:00Z</time></trkpt><trkpt lat="42.9965933" lon="12.0651101"><ele>555.0</ele><time>2026-05-02T10:19:00.999Z</time></trkpt><trkpt lat="42.9967066" lon="12.06516"><ele>555.0</ele><time>2026-05-02T10:19:02Z</time></trkpt><trkpt lat="42.9968076" lon="12.0652345"><ele>555.0</ele><time>2026-05-02T10:19:03Z</time></trkpt><trkpt lat="42.9969151" lon="12.0652772"><ele>557.0</ele><time>2026-05-02T10:19:04Z</time></trkpt><trkpt lat="42.9970335" lon="12.0653076"><ele>559.0</ele><time>2026-05-02T10:19:05Z</time></trkpt><trkpt lat="42.9971511" lon="12.0653058"><ele>561.0</ele><time>2026-05-02T10:19:06Z</time></trkpt><trkpt lat="42.9972786" lon="12.0653102"><ele>563.0</ele><time>2026-05-02T10:19:06.999Z</time></trkpt><trkpt lat="42.9973938" lon="12.0653139"><ele>563.6</ele><time>2026-05-02T10:19:08Z</time></trkpt><trkpt lat="42.9975077" lon="12.0653044"><ele>564.1999999999999</ele><time>2026-05-02T10:19:09Z</time></trkpt><trkpt lat="42.9976186" lon="12.0652814"><ele>564.8</ele><time>2026-05-02T10:19:10Z</time></trkpt><trkpt lat="42.9977256" lon="12.0652862"><ele>565.4</ele><time>2026-05-02T10:19:10.999Z</time></trkpt><trkpt lat="42.9978217" lon="12.0653053"><ele>566.0</ele><time>2026-05-02T10:19:11.999Z</time></trkpt><trkpt lat="42.9979242" lon="12.0653435"><ele>566.0</ele><time>2026-05-02T10:19:13Z</time></trkpt><trkpt lat="42.9980181" lon="12.0653816"><ele>566.0</ele><time>2026-05-02T10:19:14Z</time></trkpt><trkpt lat="42.9981036" lon="12.0654192"><ele>566.0</ele><time>2026-05-02T10:19:15Z</time></trkpt><trkpt lat="42.9981956" lon="12.0654523"><ele>566.0</ele><time>2026-05-02T10:19:15.999Z</time></trkpt><trkpt lat="42.9982938" lon="12.065483"><ele>566.0</ele><time>2026-05-02T10:19:17Z</time></trkpt><trkpt lat="42.9983861" lon="12.0655129"><ele>568.3333333333333</ele><time>2026-05-02T10:19:18Z</time></trkpt><trkpt lat="42.9984683" lon="12.0655196"><ele>570.6666666666666</ele><time>2026-05-02T10:19:19Z</time></trkpt><trkpt lat="42.9985541" lon="12.0655223"><ele>573.0</ele><time>2026-05-02T10:19:20Z</time></trkpt><trkpt lat="42.9986426" lon="12.0654993"><ele>575.3333333333334</ele><time>2026-05-02T10:19:21Z</time></trkpt><trkpt lat="42.998736" lon="12.0654769"><ele>577.6666666666667</ele><time>2026-05-02T10:19:22Z</time></trkpt><trkpt lat="42.9988217" lon="12.0654501"><ele>580.0</ele><time>2026-05-02T10:19:22.999Z</time></trkpt><trkpt lat="42.9989346" lon="12.065402"><ele>580.0</ele><time>2026-05-02T10:19:24Z</time></trkpt><trkpt lat="42.9990326" lon="12.0653581"><ele>580.0</ele><time>2026-05-02T10:19:25Z</time></trkpt><trkpt lat="42.9991269" lon="12.0653171"><ele>580.0</ele><time>2026-05-02T10:19:26Z</time></trkpt><trkpt lat="42.9992253" lon="12.065261"><ele>580.0</ele><time>2026-05-02T10:19:26.999Z</time></trkpt><trkpt lat="42.9993177" lon="12.0652101"><ele>580.0</ele><time>2026-05-02T10:19:28Z</time></trkpt><trkpt lat="42.9993944" lon="12.0651757"><ele>582.1666666666667</ele><time>2026-05-02T10:19:29Z</time></trkpt><trkpt lat="42.9994755" lon="12.0651525"><ele>584.3333333333334</ele><time>2026-05-02T10:19:30Z</time></trkpt><trkpt lat="42.9995715" lon="12.0651607"><ele>586.5</ele><time>2026-05-02T10:19:31Z</time></trkpt><trkpt lat="42.9996537" lon="12.0652057"><ele>588.6666666666666</ele><time>2026-05-02T10:19:32Z</time></trkpt><trkpt lat="42.9997406" lon="12.0652561"><ele>590.8333333333333</ele><time>2026-05-02T10:19:33Z</time></trkpt><trkpt lat="42.9998199" lon="12.0653013"><ele>593.0</ele><time>2026-05-02T10:19:34Z</time></trkpt><trkpt lat="42.9999152" lon="12.0653555"><ele>593.0</ele><time>2026-05-02T10:19:35Z</time></trkpt><trkpt lat="43.0000099" lon="12.0654281"><ele>593.0</ele><time>2026-05-02T10:19:35.999Z</time></trkpt><trkpt lat="43.0001041" lon="12.0654832"><ele>593.0</ele><time>2026-05-02T10:19:37Z</time></trkpt><trkpt lat="43.0001921" lon="12.0655384"><ele>593.0</ele><time>2026-05-02T10:19:38Z</time></trkpt><trkpt lat="43.000281" lon="12.0655982"><ele>593.0</ele><time>2026-05-02T10:19:39Z</time></trkpt><trkpt lat="43.0003666" lon="12.065671"><ele>593.0</ele><time>2026-05-02T10:19:40Z</time></trkpt><trkpt lat="43.0004557" lon="12.0657252"><ele>593.0</ele><time>2026-05-02T10:19:41Z</time></trkpt><trkpt lat="43.0005305" lon="12.0657517"><ele>593.0</ele><time>2026-05-02T10:19:42Z</time></trkpt><trkpt lat="43.0006445" lon="12.0657762"><ele>593.0</ele><time>2026-05-02T10:19:44Z</time></trkpt><trkpt lat="43.0007219" lon="12.065794"><ele>593.0</ele><time>2026-05-02T10:19:46Z</time></trkpt><trkpt lat="43.000785" lon="12.0658489"><ele>593.0</ele><time>2026-05-02T10:19:48Z</time></trkpt><trkpt lat="43.0008864" lon="12.0659282"><ele>595.5</ele><time>2026-05-02T10:19:50Z</time></trkpt><trkpt lat="43.0009495" lon="12.0659515"><ele>598.0</ele><time>2026-05-02T10:19:51Z</time></trkpt><trkpt lat="43.0010119" lon="12.0659703"><ele>600.5</ele><time>2026-05-02T10:19:52Z</time></trkpt><trkpt lat="43.0011257" lon="12.0659732"><ele>603.0</ele><time>2026-05-02T10:19:54Z</time></trkpt><trkpt lat="43.0011828" lon="12.0659331"><ele>605.5</ele><time>2026-05-02T10:19:54.999Z</time></trkpt><trkpt lat="43.0012492" lon="12.0658888"><ele>608.0</ele><time>2026-05-02T10:19:56Z</time></trkpt><trkpt lat="43.0013326" lon="12.0658399"><ele>608.0</ele><time>2026-05-02T10:19:57Z</time></trkpt><trkpt lat="43.0014051" lon="12.0657829"><ele>608.0</ele><time>2026-05-02T10:19:58Z</time></trkpt><trkpt lat="43.0014771" lon="12.0657284"><ele>608.0</ele><time>2026-05-02T10:19:59Z</time></trkpt><trkpt lat="43.0015645" lon="12.0656891"><ele>608.0</ele><time>2026-05-02T10:20:00Z</time></trkpt><trkpt lat="43.0016291" lon="12.0656472"><ele>608.0</ele><time>2026-05-02T10:20:01Z</time></trkpt><trkpt lat="43.0016998" lon="12.0655979"><ele>608.0</ele><time>2026-05-02T10:20:02Z</time></trkpt><trkpt lat="43.0017744" lon="12.0655489"><ele>604.1999999999999</ele><time>2026-05-02T10:20:03Z</time></trkpt><trkpt lat="43.0018685" lon="12.0655122"><ele>600.4</ele><time>2026-05-02T10:20:04Z</time></trkpt><trkpt lat="43.0019699" lon="12.0655084"><ele>596.5999999999999</ele><time>2026-05-02T10:20:05Z</time></trkpt><trkpt lat="43.0020796" lon="12.0655083"><ele>592.8</ele><time>2026-05-02T10:20:06Z</time></trkpt><trkpt lat="43.0021845" lon="12.0655144"><ele>589.0</ele><time>2026-05-02T10:20:07Z</time></trkpt><trkpt lat="43.0022779" lon="12.0655101"><ele>589.0</ele><time>2026-05-02T10:20:08Z</time></trkpt><trkpt lat="43.0023674" lon="12.0655149"><ele>589.0</ele><time>2026-05-02T10:20:08.999Z</time></trkpt><trkpt lat="43.0024525" lon="12.0655196"><ele>589.0</ele><time>2026-05-02T10:20:10Z</time></trkpt><trkpt lat="43.0025305" lon="12.0655273"><ele>589.0</ele><time>2026-05-02T10:20:11Z</time></trkpt><trkpt lat="43.0026018" lon="12.0655415"><ele>589.0</ele><time>2026-05-02T10:20:12Z</time></trkpt><trkpt lat="43.0026712" lon="12.0655456"><ele>589.0</ele><time>2026-05-02T10:20:12.999Z</time></trkpt><trkpt lat="43.0027414" lon="12.0655506"><ele>586.8</ele><time>2026-05-02T10:20:14Z</time></trkpt><trkpt lat="43.0028138" lon="12.0655473"><ele>584.5999999999999</ele><time>2026-05-02T10:20:15Z</time></trkpt><trkpt lat="43.0028851" lon="12.0655493"><ele>582.4</ele><time>2026-05-02T10:20:16Z</time></trkpt><trkpt lat="43.0029711" lon="12.065539"><ele>580.1999999999999</ele><time>2026-05-02T10:20:17Z</time></trkpt><trkpt lat="43.0030746" lon="12.0655268"><ele>578.0</ele><time>2026-05-02T10:20:18Z</time></trkpt><trkpt lat="43.0032002" lon="12.0655047"><ele>578.0</ele><time>2026-05-02T10:20:19Z</time></trkpt><trkpt lat="43.0033137" lon="12.0654874"><ele>578.0</ele><time>2026-05-02T10:20:20Z</time></trkpt><trkpt lat="43.0034235" lon="12.0654537"><ele>578.0</ele><time>2026-05-02T10:20:21Z</time></trkpt><trkpt lat="43.003532" lon="12.0654348"><ele>578.0</ele><time>2026-05-02T10:20:22Z</time></trkpt><trkpt lat="43.0036273" lon="12.0654449"><ele>578.0</ele><time>2026-05-02T10:20:23Z</time></trkpt><trkpt lat="43.0037329" lon="12.0654564"><ele>578.4</ele><time>2026-05-02T10:20:24Z</time></trkpt><trkpt lat="43.003814" lon="12.065452"><ele>578.8</ele><time>2026-05-02T10:20:24.999Z</time></trkpt><trkpt lat="43.0039108" lon="12.0654374"><ele>579.2</ele><time>2026-05-02T10:20:25.999Z</time></trkpt><trkpt lat="43.004004" lon="12.0653979"><ele>579.6</ele><time>2026-05-02T10:20:27Z</time></trkpt><trkpt lat="43.0040924" lon="12.0653649"><ele>580.0</ele><time>2026-05-02T10:20:28Z</time></trkpt><trkpt lat="43.0041723" lon="12.065336"><ele>580.3333333333334</ele><time>2026-05-02T10:20:28.999Z</time></trkpt><trkpt lat="43.00426" lon="12.0652963"><ele>580.6666666666667</ele><time>2026-05-02T10:20:30Z</time></trkpt><trkpt lat="43.0043392" lon="12.0652582"><ele>581.0</ele><time>2026-05-02T10:20:31Z</time></trkpt><trkpt lat="43.0044251" lon="12.0652186"><ele>581.3333333333334</ele><time>2026-05-02T10:20:31.999Z</time></trkpt><trkpt lat="43.0045061" lon="12.0651837"><ele>581.6666666666666</ele><time>2026-05-02T10:20:33Z</time></trkpt><trkpt lat="43.0045948" lon="12.0651395"><ele>582.0</ele><time>2026-05-02T10:20:34Z</time></trkpt><trkpt lat="43.0046816" lon="12.0651132"><ele>582.0</ele><time>2026-05-02T10:20:35Z</time></trkpt><trkpt lat="43.0047691" lon="12.0650771"><ele>582.0</ele><time>2026-05-02T10:20:36Z</time></trkpt><trkpt lat="43.0048507" lon="12.0650378"><ele>582.0</ele><time>2026-05-02T10:20:37Z</time></trkpt><trkpt lat="43.0049274" lon="12.0650098"><ele>582.0</ele><time>2026-05-02T10:20:37.999Z</time></trkpt><trkpt lat="43.0049948" lon="12.0649776"><ele>582.0</ele><time>2026-05-02T10:20:39Z</time></trkpt><trkpt lat="43.00511" lon="12.0649352"><ele>582.0</ele><time>2026-05-02T10:20:41Z</time></trkpt><trkpt lat="43.0051699" lon="12.0649057"><ele>579.1666666666666</ele><time>2026-05-02T10:20:42Z</time></trkpt><trkpt lat="43.0052485" lon="12.0648653"><ele>576.3333333333334</ele><time>2026-05-02T10:20:43Z</time></trkpt><trkpt lat="43.0053257" lon="12.0648149"><ele>573.5</ele><time>2026-05-02T10:20:43.999Z</time></trkpt><trkpt lat="43.0053978" lon="12.0647611"><ele>570.6666666666667</ele><time>2026-05-02T10:20:45Z</time></trkpt><trkpt lat="43.0054685" lon="12.0647224"><ele>567.8333333333334</ele><time>2026-05-02T10:20:46Z</time></trkpt><trkpt lat="43.0055422" lon="12.0646703"><ele>565.0</ele><time>2026-05-02T10:20:46.999Z</time></trkpt><trkpt lat="43.0055993" lon="12.0646068"><ele>565.0</ele><time>2026-05-02T10:20:48Z</time></trkpt><trkpt lat="43.0056584" lon="12.0645488"><ele>565.0</ele><time>2026-05-02T10:20:49Z</time></trkpt><trkpt lat="43.0057486" lon="12.064462"><ele>565.0</ele><time>2026-05-02T10:20:51Z</time></trkpt><trkpt lat="43.0058121" lon="12.0643891"><ele>565.0</ele><time>2026-05-02T10:20:53Z</time></trkpt><trkpt lat="43.0058514" lon="12.0642891"><ele>565.0</ele><time>2026-05-02T10:20:56Z</time></trkpt><trkpt lat="43.005888" lon="12.0642055"><ele>565.0</ele><time>2026-05-02T10:20:57.999Z</time></trkpt><trkpt lat="43.0059509" lon="12.0640946"><ele>563.5714285714286</ele><time>2026-05-02T10:21:00Z</time></trkpt><trkpt lat="43.0059872" lon="12.0640204"><ele>562.1428571428571</ele><time>2026-05-02T10:21:01Z</time></trkpt><trkpt lat="43.0060299" lon="12.06395"><ele>560.7142857142858</ele><time>2026-05-02T10:21:02Z</time></trkpt><trkpt lat="43.0060739" lon="12.0638715"><ele>559.2857142857142</ele><time>2026-05-02T10:21:03Z</time></trkpt><trkpt lat="43.0061131" lon="12.0638034"><ele>557.8571428571429</ele><time>2026-05-02T10:21:04Z</time></trkpt><trkpt lat="43.006154" lon="12.0637276"><ele>556.4285714285714</ele><time>2026-05-02T10:21:04.999Z</time></trkpt><trkpt lat="43.0061949" lon="12.0635936"><ele>555.0</ele><time>2026-05-02T10:21:07Z</time></trkpt><trkpt lat="43.0061615" lon="12.063449"><ele>555.0</ele><time>2026-05-02T10:21:09Z</time></trkpt><trkpt lat="43.0061134" lon="12.0633632"><ele>555.0</ele><time>2026-05-02T10:21:10Z</time></trkpt><trkpt lat="43.0060751" lon="12.0632746"><ele>555.0</ele><time>2026-05-02T10:21:10.999Z</time></trkpt><trkpt lat="43.0060371" lon="12.0631852"><ele>555.0</ele><time>2026-05-02T10:21:12Z</time></trkpt><trkpt lat="43.0060149" lon="12.0630813"><ele>555.0</ele><time>2026-05-02T10:21:13Z</time></trkpt><trkpt lat="43.005987" lon="12.0629955"><ele>555.0</ele><time>2026-05-02T10:21:14Z</time></trkpt><trkpt lat="43.0059883" lon="12.062844"><ele>553.5</ele><time>2026-05-02T10:21:16Z</time></trkpt><trkpt lat="43.006055" lon="12.0627219"><ele>552.0</ele><time>2026-05-02T10:21:18Z</time></trkpt><trkpt lat="43.0061179" lon="12.0627355"><ele>550.5</ele><time>2026-05-02T10:21:19Z</time></trkpt><trkpt lat="43.0061919" lon="12.0627236"><ele>549.0</ele><time>2026-05-02T10:21:20Z</time></trkpt><trkpt lat="43.0062675" lon="12.0627128"><ele>547.5</ele><time>2026-05-02T10:21:21Z</time></trkpt><trkpt lat="43.0063344" lon="12.062676"><ele>546.0</ele><time>2026-05-02T10:21:22Z</time></trkpt><trkpt lat="43.0064" lon="12.0626458"><ele>546.0</ele><time>2026-05-02T10:21:23Z</time></trkpt><trkpt lat="43.0064767" lon="12.0625958"><ele>546.0</ele><time>2026-05-02T10:21:24Z</time></trkpt><trkpt lat="43.0065393" lon="12.0625426"><ele>546.0</ele><time>2026-05-02T10:21:25Z</time></trkpt><trkpt lat="43.0066041" lon="12.0625043"><ele>546.0</ele><time>2026-05-02T10:21:26Z</time></trkpt><trkpt lat="43.0066623" lon="12.0624362"><ele>546.0</ele><time>2026-05-02T10:21:27Z</time></trkpt><trkpt lat="43.0067203" lon="12.0623755"><ele>546.0</ele><time>2026-05-02T10:21:28Z</time></trkpt><trkpt lat="43.0068234" lon="12.0622872"><ele>545.8</ele><time>2026-05-02T10:21:30Z</time></trkpt><trkpt lat="43.0069214" lon="12.0622671"><ele>545.6</ele><time>2026-05-02T10:21:32Z</time></trkpt><trkpt lat="43.0070378" lon="12.0623668"><ele>545.4</ele><time>2026-05-02T10:21:34Z</time></trkpt><trkpt lat="43.0070899" lon="12.0624393"><ele>545.2</ele><time>2026-05-02T10:21:35Z</time></trkpt><trkpt lat="43.0071449" lon="12.0625173"><ele>545.0</ele><time>2026-05-02T10:21:36Z</time></trkpt><trkpt lat="43.0071981" lon="12.0626023"><ele>545.0</ele><time>2026-05-02T10:21:37Z</time></trkpt><trkpt lat="43.0072496" lon="12.0626987"><ele>545.0</ele><time>2026-05-02T10:21:38Z</time></trkpt><trkpt lat="43.0072934" lon="12.062782"><ele>545.0</ele><time>2026-05-02T10:21:39Z</time></trkpt><trkpt lat="43.007333" lon="12.0628666"><ele>545.0</ele><time>2026-05-02T10:21:40Z</time></trkpt><trkpt lat="43.0073706" lon="12.0629709"><ele>545.0</ele><time>2026-05-02T10:21:40.999Z</time></trkpt><trkpt lat="43.0074071" lon="12.06308"><ele>545.0</ele><time>2026-05-02T10:21:42Z</time></trkpt><trkpt lat="43.0074387" lon="12.0632007"><ele>544.8</ele><time>2026-05-02T10:21:43Z</time></trkpt><trkpt lat="43.0074869" lon="12.0633391"><ele>544.6</ele><time>2026-05-02T10:21:44Z</time></trkpt><trkpt lat="43.0075396" lon="12.0634709"><ele>544.4</ele><time>2026-05-02T10:21:44.999Z</time></trkpt><trkpt lat="43.0075943" lon="12.0636008"><ele>544.2</ele><time>2026-05-02T10:21:46Z</time></trkpt><trkpt lat="43.0076525" lon="12.0637269"><ele>544.0</ele><time>2026-05-02T10:21:47Z</time></trkpt><trkpt lat="43.0077248" lon="12.0638491"><ele>544.0</ele><time>2026-05-02T10:21:47.999Z</time></trkpt><trkpt lat="43.0077924" lon="12.0639649"><ele>544.0</ele><time>2026-05-02T10:21:49Z</time></trkpt><trkpt lat="43.0078541" lon="12.0640813"><ele>544.0</ele><time>2026-05-02T10:21:50Z</time></trkpt><trkpt lat="43.0079352" lon="12.0641749"><ele>544.0</ele><time>2026-05-02T10:21:51Z</time></trkpt><trkpt lat="43.0080263" lon="12.0642555"><ele>544.0</ele><time>2026-05-02T10:21:52Z</time></trkpt><trkpt lat="43.0081168" lon="12.0643263"><ele>542.3333333333334</ele><time>2026-05-02T10:21:53Z</time></trkpt><trkpt lat="43.0082059" lon="12.064408"><ele>540.6666666666667</ele><time>2026-05-02T10:21:54Z</time></trkpt><trkpt lat="43.0082777" lon="12.0644629"><ele>539.0</ele><time>2026-05-02T10:21:55Z</time></trkpt><trkpt lat="43.0083281" lon="12.0645571"><ele>537.3333333333334</ele><time>2026-05-02T10:21:56Z</time></trkpt><trkpt lat="43.008372" lon="12.064644"><ele>535.6666666666666</ele><time>2026-05-02T10:21:57Z</time></trkpt><trkpt lat="43.008379" lon="12.0647541"><ele>534.0</ele><time>2026-05-02T10:21:58Z</time></trkpt><trkpt lat="43.0083725" lon="12.0648783"><ele>536.5</ele><time>2026-05-02T10:21:59Z</time></trkpt><trkpt lat="43.0083753" lon="12.0649814"><ele>539.0</ele><time>2026-05-02T10:22:00Z</time></trkpt><trkpt lat="43.008393" lon="12.0650955"><ele>541.5</ele><time>2026-05-02T10:22:01Z</time></trkpt><trkpt lat="43.0084246" lon="12.0651943"><ele>544.0</ele><time>2026-05-02T10:22:02Z</time></trkpt><trkpt lat="43.0084678" lon="12.0652925"><ele>546.5</ele><time>2026-05-02T10:22:03Z</time></trkpt><trkpt lat="43.0085467" lon="12.0653956"><ele>549.0</ele><time>2026-05-02T10:22:03.999Z</time></trkpt><trkpt lat="43.0086333" lon="12.0654699"><ele>549.0</ele><time>2026-05-02T10:22:05Z</time></trkpt><trkpt lat="43.00873" lon="12.0655207"><ele>549.0</ele><time>2026-05-02T10:22:06Z</time></trkpt><trkpt lat="43.0088357" lon="12.0655593"><ele>549.0</ele><time>2026-05-02T10:22:07Z</time></trkpt><trkpt lat="43.0089349" lon="12.0656137"><ele>549.0</ele><time>2026-05-02T10:22:08Z</time></trkpt><trkpt lat="43.0090298" lon="12.0656815"><ele>549.0</ele><time>2026-05-02T10:22:09Z</time></trkpt><trkpt lat="43.00911" lon="12.065768"><ele>548.2857142857142</ele><time>2026-05-02T10:22:10Z</time></trkpt><trkpt lat="43.0091748" lon="12.0658675"><ele>547.5714285714286</ele><time>2026-05-02T10:22:11Z</time></trkpt><trkpt lat="43.0092145" lon="12.0659667"><ele>546.8571428571429</ele><time>2026-05-02T10:22:12Z</time></trkpt><trkpt lat="43.009245" lon="12.0660449"><ele>546.1428571428571</ele><time>2026-05-02T10:22:13Z</time></trkpt><trkpt lat="43.0092774" lon="12.0661251"><ele>545.4285714285714</ele><time>2026-05-02T10:22:14Z</time></trkpt><trkpt lat="43.0093227" lon="12.0661885"><ele>544.7142857142857</ele><time>2026-05-02T10:22:16Z</time></trkpt><trkpt lat="43.0093396" lon="12.0662844"><ele>544.0</ele><time>2026-05-02T10:22:32Z</time></trkpt><trkpt lat="43.0093478" lon="12.0663998"><ele>544.0</ele><time>2026-05-02T10:22:34Z</time></trkpt><trkpt lat="43.0093772" lon="12.0665373"><ele>544.0</ele><time>2026-05-02T10:22:36Z</time></trkpt><trkpt lat="43.0094436" lon="12.0666649"><ele>544.0</ele><time>2026-05-02T10:22:38Z</time></trkpt><trkpt lat="43.0094942" lon="12.0667206"><ele>544.0</ele><time>2026-05-02T10:22:38.999Z</time></trkpt><trkpt lat="43.0095605" lon="12.0667829"><ele>544.0</ele><time>2026-05-02T10:22:39.999Z</time></trkpt><trkpt lat="43.0096237" lon="12.0668286"><ele>544.0</ele><time>2026-05-02T10:22:41Z</time></trkpt><trkpt lat="43.0096894" lon="12.0668866"><ele>544.1666666666667</ele><time>2026-05-02T10:22:42Z</time></trkpt><trkpt lat="43.009754" lon="12.0669291"><ele>544.3333333333334</ele><time>2026-05-02T10:22:43Z</time></trkpt><trkpt lat="43.0098172" lon="12.0669779"><ele>544.5</ele><time>2026-05-02T10:22:43.999Z</time></trkpt><trkpt lat="43.009895" lon="12.0670266"><ele>544.6666666666666</ele><time>2026-05-02T10:22:45Z</time></trkpt><trkpt lat="43.0099697" lon="12.0670694"><ele>544.8333333333333</ele><time>2026-05-02T10:22:46Z</time></trkpt><trkpt lat="43.0100408" lon="12.0671278"><ele>545.0</ele><time>2026-05-02T10:22:47Z</time></trkpt><trkpt lat="43.0101094" lon="12.0671831"><ele>545.0</ele><time>2026-05-02T10:22:48Z</time></trkpt><trkpt lat="43.0101712" lon="12.0672421"><ele>545.0</ele><time>2026-05-02T10:22:49Z</time></trkpt><trkpt lat="43.0102252" lon="12.0673063"><ele>545.0</ele><time>2026-05-02T10:22:50Z</time></trkpt><trkpt lat="43.0102764" lon="12.067403"><ele>545.0</ele><time>2026-05-02T10:22:51Z</time></trkpt><trkpt lat="43.0103137" lon="12.067495"><ele>545.0</ele><time>2026-05-02T10:22:51.999Z</time></trkpt><trkpt lat="43.0104046" lon="12.0676094"><ele>545.0</ele><time>2026-05-02T10:22:54Z</time></trkpt><trkpt lat="43.0104516" lon="12.0676711"><ele>547.4</ele><time>2026-05-02T10:22:55Z</time></trkpt><trkpt lat="43.0105614" lon="12.0677548"><ele>549.8</ele><time>2026-05-02T10:22:56.999Z</time></trkpt><trkpt lat="43.0106199" lon="12.0678015"><ele>552.2</ele><time>2026-05-02T10:22:58Z</time></trkpt><trkpt lat="43.0106803" lon="12.0678271"><ele>554.6</ele><time>2026-05-02T10:22:59Z</time></trkpt><trkpt lat="43.0107677" lon="12.067921"><ele>557.0</ele><time>2026-05-02T10:23:01Z</time></trkpt><trkpt lat="43.0108566" lon="12.0680942"><ele>557.8333333333333</ele><time>2026-05-02T10:23:03Z</time></trkpt><trkpt lat="43.0108995" lon="12.0681747"><ele>558.6666666666666</ele><time>2026-05-02T10:23:04Z</time></trkpt><trkpt lat="43.0109434" lon="12.0682478"><ele>559.5</ele><time>2026-05-02T10:23:05Z</time></trkpt><trkpt lat="43.0110042" lon="12.0683231"><ele>560.3333333333334</ele><time>2026-05-02T10:23:05.999Z</time></trkpt><trkpt lat="43.0110652" lon="12.0683948"><ele>561.1666666666667</ele><time>2026-05-02T10:23:07Z</time></trkpt><trkpt lat="43.0111521" lon="12.0684706"><ele>562.0</ele><time>2026-05-02T10:23:08Z</time></trkpt><trkpt lat="43.0112287" lon="12.0685535"><ele>564.2</ele><time>2026-05-02T10:23:09Z</time></trkpt><trkpt lat="43.0113122" lon="12.0686198"><ele>566.4000000000001</ele><time>2026-05-02T10:23:10Z</time></trkpt><trkpt lat="43.0113862" lon="12.0687085"><ele>568.5999999999999</ele><time>2026-05-02T10:23:11Z</time></trkpt><trkpt lat="43.0114628" lon="12.0687998"><ele>570.8</ele><time>2026-05-02T10:23:12Z</time></trkpt><trkpt lat="43.0115406" lon="12.0688989"><ele>573.0</ele><time>2026-05-02T10:23:13Z</time></trkpt><trkpt lat="43.0116252" lon="12.0689906"><ele>573.6</ele><time>2026-05-02T10:23:14Z</time></trkpt><trkpt lat="43.0117113" lon="12.0690817"><ele>574.1999999999999</ele><time>2026-05-02T10:23:14.999Z</time></trkpt><trkpt lat="43.0117907" lon="12.0691752"><ele>574.8</ele><time>2026-05-02T10:23:16Z</time></trkpt><trkpt lat="43.0118752" lon="12.0692635"><ele>575.4</ele><time>2026-05-02T10:23:17Z</time></trkpt><trkpt lat="43.0119607" lon="12.0693647"><ele>576.0</ele><time>2026-05-02T10:23:17.999Z</time></trkpt><trkpt lat="43.0120315" lon="12.069471"><ele>576.0</ele><time>2026-05-02T10:23:19Z</time></trkpt><trkpt lat="43.0120869" lon="12.0695812"><ele>576.0</ele><time>2026-05-02T10:23:20Z</time></trkpt><trkpt lat="43.0121528" lon="12.0696807"><ele>576.0</ele><time>2026-05-02T10:23:20.999Z</time></trkpt><trkpt lat="43.0122266" lon="12.0697576"><ele>576.0</ele><time>2026-05-02T10:23:21.999Z</time></trkpt><trkpt lat="43.0123057" lon="12.0698404"><ele>576.0</ele><time>2026-05-02T10:23:22.999Z</time></trkpt><trkpt lat="43.0123781" lon="12.0699034"><ele>577.1666666666666</ele><time>2026-05-02T10:23:24Z</time></trkpt><trkpt lat="43.0124331" lon="12.0699697"><ele>578.3333333333334</ele><time>2026-05-02T10:23:25Z</time></trkpt><trkpt lat="43.0124776" lon="12.0700572"><ele>579.5</ele><time>2026-05-02T10:23:26Z</time></trkpt><trkpt lat="43.0125015" lon="12.0701805"><ele>580.6666666666667</ele><time>2026-05-02T10:23:27Z</time></trkpt><trkpt lat="43.0125069" lon="12.0702805"><ele>581.8333333333334</ele><time>2026-05-02T10:23:28Z</time></trkpt><trkpt lat="43.0125213" lon="12.0703775"><ele>583.0</ele><time>2026-05-02T10:23:28.999Z</time></trkpt><trkpt lat="43.012547" lon="12.0704773"><ele>583.0</ele><time>2026-05-02T10:23:30Z</time></trkpt><trkpt lat="43.0125797" lon="12.0705708"><ele>583.0</ele><time>2026-05-02T10:23:30.999Z</time></trkpt><trkpt lat="43.0126146" lon="12.0706734"><ele>583.0</ele><time>2026-05-02T10:23:32Z</time></trkpt><trkpt lat="43.0126468" lon="12.0707908"><ele>583.0</ele><time>2026-05-02T10:23:32.999Z</time></trkpt><trkpt lat="43.0126782" lon="12.0709155"><ele>583.0</ele><time>2026-05-02T10:23:34Z</time></trkpt><trkpt lat="43.0126979" lon="12.0710471"><ele>583.0</ele><time>2026-05-02T10:23:35Z</time></trkpt><trkpt lat="43.0127177" lon="12.0711731"><ele>583.1999999999999</ele><time>2026-05-02T10:23:36Z</time></trkpt><trkpt lat="43.0127526" lon="12.0713062"><ele>583.4</ele><time>2026-05-02T10:23:37Z</time></trkpt><trkpt lat="43.0128048" lon="12.0714223"><ele>583.5999999999999</ele><time>2026-05-02T10:23:38Z</time></trkpt><trkpt lat="43.0128736" lon="12.0715344"><ele>583.8</ele><time>2026-05-02T10:23:39Z</time></trkpt><trkpt lat="43.0129443" lon="12.0716356"><ele>584.0</ele><time>2026-05-02T10:23:40Z</time></trkpt><trkpt lat="43.0130095" lon="12.0717345"><ele>585.8333333333333</ele><time>2026-05-02T10:23:41Z</time></trkpt><trkpt lat="43.0130536" lon="12.0718387"><ele>587.6666666666666</ele><time>2026-05-02T10:23:42Z</time></trkpt><trkpt lat="43.0130978" lon="12.0719475"><ele>589.5</ele><time>2026-05-02T10:23:43Z</time></trkpt><trkpt lat="43.0131351" lon="12.0720619"><ele>591.3333333333334</ele><time>2026-05-02T10:23:44Z</time></trkpt><trkpt lat="43.0131715" lon="12.0721681"><ele>593.1666666666667</ele><time>2026-05-02T10:23:44.999Z</time></trkpt><trkpt lat="43.01321" lon="12.0722691"><ele>595.0</ele><time>2026-05-02T10:23:45.999Z</time></trkpt><trkpt lat="43.013256" lon="12.0723709"><ele>595.3333333333334</ele><time>2026-05-02T10:23:47Z</time></trkpt><trkpt lat="43.0132986" lon="12.072479"><ele>595.6666666666667</ele><time>2026-05-02T10:23:48Z</time></trkpt><trkpt lat="43.0133346" lon="12.072578"><ele>596.0</ele><time>2026-05-02T10:23:49Z</time></trkpt><trkpt lat="43.0133679" lon="12.0726674"><ele>596.3333333333334</ele><time>2026-05-02T10:23:50Z</time></trkpt><trkpt lat="43.0134067" lon="12.0727548"><ele>596.6666666666666</ele><time>2026-05-02T10:23:50.999Z</time></trkpt><trkpt lat="43.013439" lon="12.0728466"><ele>597.0</ele><time>2026-05-02T10:23:52Z</time></trkpt><trkpt lat="43.0134767" lon="12.0729493"><ele>597.1666666666666</ele><time>2026-05-02T10:23:52.999Z</time></trkpt><trkpt lat="43.0135145" lon="12.0730475"><ele>597.3333333333334</ele><time>2026-05-02T10:23:54Z</time></trkpt><trkpt lat="43.0135592" lon="12.0731538"><ele>597.5</ele><time>2026-05-02T10:23:55Z</time></trkpt><trkpt lat="43.0136116" lon="12.0732551"><ele>597.6666666666667</ele><time>2026-05-02T10:23:56Z</time></trkpt><trkpt lat="43.0136636" lon="12.0733496"><ele>597.8333333333334</ele><time>2026-05-02T10:23:57Z</time></trkpt><trkpt lat="43.0137135" lon="12.0734419"><ele>598.0</ele><time>2026-05-02T10:23:58Z</time></trkpt><trkpt lat="43.0137655" lon="12.0735341"><ele>597.0</ele><time>2026-05-02T10:23:59Z</time></trkpt><trkpt lat="43.0138204" lon="12.0736179"><ele>596.0</ele><time>2026-05-02T10:24:00Z</time></trkpt><trkpt lat="43.0138724" lon="12.0737021"><ele>595.0</ele><time>2026-05-02T10:24:01Z</time></trkpt><trkpt lat="43.0139271" lon="12.0737803"><ele>594.0</ele><time>2026-05-02T10:24:02Z</time></trkpt><trkpt lat="43.0139766" lon="12.0738576"><ele>593.0</ele><time>2026-05-02T10:24:03Z</time></trkpt><trkpt lat="43.0140171" lon="12.0739412"><ele>592.0</ele><time>2026-05-02T10:24:04Z</time></trkpt><trkpt lat="43.0140458" lon="12.0740362"><ele>592.1666666666667</ele><time>2026-05-02T10:24:05Z</time></trkpt><trkpt lat="43.0140715" lon="12.0741373"><ele>592.3333333333334</ele><time>2026-05-02T10:24:06Z</time></trkpt><trkpt lat="43.0140952" lon="12.0742421"><ele>592.5</ele><time>2026-05-02T10:24:07Z</time></trkpt><trkpt lat="43.014114" lon="12.0743418"><ele>592.6666666666666</ele><time>2026-05-02T10:24:08Z</time></trkpt><trkpt lat="43.0141297" lon="12.0744437"><ele>592.8333333333333</ele><time>2026-05-02T10:24:09Z</time></trkpt><trkpt lat="43.0141494" lon="12.0745483"><ele>593.0</ele><time>2026-05-02T10:24:10Z</time></trkpt><trkpt lat="43.014172" lon="12.074638"><ele>592.9999999999999</ele><time>2026-05-02T10:24:11Z</time></trkpt><trkpt lat="43.0142134" lon="12.0747247"><ele>593.0</ele><time>2026-05-02T10:24:12Z</time></trkpt><trkpt lat="43.0142566" lon="12.0747981"><ele>593.0</ele><time>2026-05-02T10:24:12.999Z</time></trkpt><trkpt lat="43.0142982" lon="12.0748884"><ele>593.0</ele><time>2026-05-02T10:24:13.999Z</time></trkpt><trkpt lat="43.0143399" lon="12.074964"><ele>593.0</ele><time>2026-05-02T10:24:15Z</time></trkpt><trkpt lat="43.014391" lon="12.0750396"><ele>592.9999999999999</ele><time>2026-05-02T10:24:16Z</time></trkpt><trkpt lat="43.0144419" lon="12.0751172"><ele>593.0</ele><time>2026-05-02T10:24:17Z</time></trkpt><trkpt lat="43.0144839" lon="12.0751953"><ele>593.1428571428571</ele><time>2026-05-02T10:24:17.999Z</time></trkpt><trkpt lat="43.014523" lon="12.075287"><ele>593.2857142857142</ele><time>2026-05-02T10:24:18.999Z</time></trkpt><trkpt lat="43.014565" lon="12.0753897"><ele>593.4285714285714</ele><time>2026-05-02T10:24:20Z</time></trkpt><trkpt lat="43.0145894" lon="12.0754855"><ele>593.5714285714286</ele><time>2026-05-02T10:24:21Z</time></trkpt><trkpt lat="43.0145928" lon="12.0755776"><ele>593.7142857142858</ele><time>2026-05-02T10:24:22Z</time></trkpt><trkpt lat="43.0145767" lon="12.0756628"><ele>593.8571428571429</ele><time>2026-05-02T10:24:23Z</time></trkpt><trkpt lat="43.0145523" lon="12.075744"><ele>594.0</ele><time>2026-05-02T10:24:23.999Z</time></trkpt><trkpt lat="43.0144984" lon="12.0758131"><ele>596.0</ele><time>2026-05-02T10:24:25Z</time></trkpt><trkpt lat="43.0144497" lon="12.0758918"><ele>598.0</ele><time>2026-05-02T10:24:26Z</time></trkpt><trkpt lat="43.0143886" lon="12.0760048"><ele>600.0</ele><time>2026-05-02T10:24:27Z</time></trkpt><trkpt lat="43.0143402" lon="12.0760781"><ele>602.0</ele><time>2026-05-02T10:24:28Z</time></trkpt><trkpt lat="43.0142965" lon="12.0761422"><ele>604.0</ele><time>2026-05-02T10:24:29Z</time></trkpt><trkpt lat="43.0142843" lon="12.0762372"><ele>606.0</ele><time>2026-05-02T10:24:29.999Z</time></trkpt><trkpt lat="43.0142582" lon="12.0763754"><ele>606.0</ele><time>2026-05-02T10:24:32Z</time></trkpt><trkpt lat="43.0142773" lon="12.0764982"><ele>606.0</ele><time>2026-05-02T10:24:34Z</time></trkpt><trkpt lat="43.0143133" lon="12.0765708"><ele>606.0</ele><time>2026-05-02T10:24:35Z</time></trkpt><trkpt lat="43.014359" lon="12.0766444"><ele>606.0</ele><time>2026-05-02T10:24:35.999Z</time></trkpt><trkpt lat="43.0144077" lon="12.0767196"><ele>606.0</ele><time>2026-05-02T10:24:37Z</time></trkpt><trkpt lat="43.0144705" lon="12.0767822"><ele>606.0</ele><time>2026-05-02T10:24:38Z</time></trkpt><trkpt lat="43.0145252" lon="12.0768277"><ele>606.0</ele><time>2026-05-02T10:24:38.999Z</time></trkpt><trkpt lat="43.014617" lon="12.0769312"><ele>606.0</ele><time>2026-05-02T10:24:41Z</time></trkpt><trkpt lat="43.0146496" lon="12.0770274"><ele>606.0</ele><time>2026-05-02T10:24:42Z</time></trkpt><trkpt lat="43.0146623" lon="12.0771391"><ele>606.0</ele><time>2026-05-02T10:24:43Z</time></trkpt><trkpt lat="43.0146644" lon="12.0772636"><ele>606.0</ele><time>2026-05-02T10:24:44Z</time></trkpt><trkpt lat="43.0146708" lon="12.0773579"><ele>606.0</ele><time>2026-05-02T10:24:44.999Z</time></trkpt><trkpt lat="43.0146919" lon="12.0774422"><ele>606.0</ele><time>2026-05-02T10:24:46Z</time></trkpt><trkpt lat="43.0147642" lon="12.0775527"><ele>606.0</ele><time>2026-05-02T10:24:48Z</time></trkpt><trkpt lat="43.0148762" lon="12.0776168"><ele>606.0</ele><time>2026-05-02T10:24:50Z</time></trkpt><trkpt lat="43.0149855" lon="12.0776704"><ele>606.0</ele><time>2026-05-02T10:24:51.999Z</time></trkpt><trkpt lat="43.0150419" lon="12.0777196"><ele>606.0</ele><time>2026-05-02T10:24:53Z</time></trkpt><trkpt lat="43.0151053" lon="12.0777688"><ele>606.0</ele><time>2026-05-02T10:24:54Z</time></trkpt><trkpt lat="43.0151685" lon="12.0778263"><ele>605.6</ele><time>2026-05-02T10:24:55Z</time></trkpt><trkpt lat="43.0152318" lon="12.0778942"><ele>605.2</ele><time>2026-05-02T10:24:56Z</time></trkpt><trkpt lat="43.0152843" lon="12.0779762"><ele>604.8</ele><time>2026-05-02T10:24:57Z</time></trkpt><trkpt lat="43.0153277" lon="12.0780728"><ele>604.4</ele><time>2026-05-02T10:24:58Z</time></trkpt><trkpt lat="43.0154035" lon="12.0782266"><ele>604.0</ele><time>2026-05-02T10:24:59Z</time></trkpt><trkpt lat="43.0154785" lon="12.0783295"><ele>604.0</ele><time>2026-05-02T10:25:00Z</time></trkpt><trkpt lat="43.015548" lon="12.078427"><ele>604.0</ele><time>2026-05-02T10:25:01Z</time></trkpt><trkpt lat="43.0156035" lon="12.0784947"><ele>604.0</ele><time>2026-05-02T10:25:02Z</time></trkpt><trkpt lat="43.0156743" lon="12.0785918"><ele>604.0</ele><time>2026-05-02T10:25:03Z</time></trkpt><trkpt lat="43.0157449" lon="12.0786983"><ele>604.0</ele><time>2026-05-02T10:25:03.999Z</time></trkpt><trkpt lat="43.0158161" lon="12.0788056"><ele>603.8</ele><time>2026-05-02T10:25:05Z</time></trkpt><trkpt lat="43.0158916" lon="12.0789093"><ele>603.5999999999999</ele><time>2026-05-02T10:25:06Z</time></trkpt><trkpt lat="43.015965" lon="12.07901"><ele>603.4</ele><time>2026-05-02T10:25:06.999Z</time></trkpt><trkpt lat="43.0160199" lon="12.0790918"><ele>603.1999999999999</ele><time>2026-05-02T10:25:07.999Z</time></trkpt><trkpt lat="43.0160948" lon="12.0791865"><ele>603.0</ele><time>2026-05-02T10:25:09Z</time></trkpt><trkpt lat="43.0161685" lon="12.0792732"><ele>604.0</ele><time>2026-05-02T10:25:10Z</time></trkpt><trkpt lat="43.0162473" lon="12.0793572"><ele>605.0</ele><time>2026-05-02T10:25:11Z</time></trkpt><trkpt lat="43.0163191" lon="12.0794382"><ele>606.0</ele><time>2026-05-02T10:25:12Z</time></trkpt><trkpt lat="43.0163955" lon="12.0795253"><ele>607.0</ele><time>2026-05-02T10:25:12.999Z</time></trkpt><trkpt lat="43.0164762" lon="12.0796042"><ele>608.0</ele><time>2026-05-02T10:25:14Z</time></trkpt><trkpt lat="43.0165536" lon="12.0796733"><ele>608.0</ele><time>2026-05-02T10:25:15Z</time></trkpt><trkpt lat="43.0166418" lon="12.0797442"><ele>608.0</ele><time>2026-05-02T10:25:16Z</time></trkpt><trkpt lat="43.0167135" lon="12.0798129"><ele>608.0</ele><time>2026-05-02T10:25:17Z</time></trkpt><trkpt lat="43.0167737" lon="12.0798931"><ele>608.0</ele><time>2026-05-02T10:25:17.999Z</time></trkpt><trkpt lat="43.0168341" lon="12.0799662"><ele>608.0</ele><time>2026-05-02T10:25:19Z</time></trkpt><trkpt lat="43.0168894" lon="12.0800396"><ele>608.0</ele><time>2026-05-02T10:25:19.999Z</time></trkpt><trkpt lat="43.016944" lon="12.0801084"><ele>608.6</ele><time>2026-05-02T10:25:21Z</time></trkpt><trkpt lat="43.0170313" lon="12.0801582"><ele>609.1999999999999</ele><time>2026-05-02T10:25:22Z</time></trkpt><trkpt lat="43.0171248" lon="12.080184"><ele>609.8</ele><time>2026-05-02T10:25:23Z</time></trkpt><trkpt lat="43.0172121" lon="12.080231"><ele>610.4</ele><time>2026-05-02T10:25:24Z</time></trkpt><trkpt lat="43.0172921" lon="12.0802875"><ele>611.0</ele><time>2026-05-02T10:25:24.999Z</time></trkpt><trkpt lat="43.0173579" lon="12.0803436"><ele>611.0</ele><time>2026-05-02T10:25:26Z</time></trkpt><trkpt lat="43.0174019" lon="12.0804235"><ele>611.0</ele><time>2026-05-02T10:25:27Z</time></trkpt><trkpt lat="43.0174422" lon="12.0805181"><ele>611.0</ele><time>2026-05-02T10:25:28Z</time></trkpt><trkpt lat="43.0174913" lon="12.0806174"><ele>611.0</ele><time>2026-05-02T10:25:28.999Z</time></trkpt><trkpt lat="43.017544" lon="12.0807124"><ele>611.0</ele><time>2026-05-02T10:25:30Z</time></trkpt><trkpt lat="43.0176019" lon="12.080823"><ele>611.0</ele><time>2026-05-02T10:25:31Z</time></trkpt><trkpt lat="43.0176616" lon="12.0809252"><ele>613.6</ele><time>2026-05-02T10:25:32Z</time></trkpt><trkpt lat="43.0177195" lon="12.0810375"><ele>616.2</ele><time>2026-05-02T10:25:33Z</time></trkpt><trkpt lat="43.0177752" lon="12.0811491"><ele>618.8</ele><time>2026-05-02T10:25:34Z</time></trkpt><trkpt lat="43.0178356" lon="12.0812526"><ele>621.4</ele><time>2026-05-02T10:25:34.999Z</time></trkpt><trkpt lat="43.0178962" lon="12.0813525"><ele>624.0</ele><time>2026-05-02T10:25:36Z</time></trkpt><trkpt lat="43.0179678" lon="12.0814726"><ele>624.0</ele><time>2026-05-02T10:25:37Z</time></trkpt><trkpt lat="43.0180259" lon="12.0815535"><ele>624.0</ele><time>2026-05-02T10:25:37.999Z</time></trkpt><trkpt lat="43.0180841" lon="12.081655"><ele>624.0</ele><time>2026-05-02T10:25:39Z</time></trkpt><trkpt lat="43.0181372" lon="12.0817382"><ele>624.0</ele><time>2026-05-02T10:25:40Z</time></trkpt><trkpt lat="43.0181927" lon="12.0818107"><ele>624.0</ele><time>2026-05-02T10:25:41Z</time></trkpt><trkpt lat="43.0182415" lon="12.0819005"><ele>624.0</ele><time>2026-05-02T10:25:41.999Z</time></trkpt><trkpt lat="43.0182984" lon="12.0819815"><ele>623.6666666666666</ele><time>2026-05-02T10:25:42.999Z</time></trkpt><trkpt lat="43.0183433" lon="12.0820876"><ele>623.3333333333334</ele><time>2026-05-02T10:25:44Z</time></trkpt><trkpt lat="43.018391" lon="12.0821819"><ele>623.0</ele><time>2026-05-02T10:25:45Z</time></trkpt><trkpt lat="43.0184348" lon="12.08227"><ele>622.6666666666667</ele><time>2026-05-02T10:25:46Z</time></trkpt><trkpt lat="43.0184724" lon="12.0823587"><ele>622.3333333333334</ele><time>2026-05-02T10:25:47Z</time></trkpt><trkpt lat="43.0184977" lon="12.082458"><ele>622.0</ele><time>2026-05-02T10:25:48Z</time></trkpt><trkpt lat="43.0185127" lon="12.0825576"><ele>623.0</ele><time>2026-05-02T10:25:49Z</time></trkpt><trkpt lat="43.0185323" lon="12.0826585"><ele>624.0</ele><time>2026-05-02T10:25:50Z</time></trkpt><trkpt lat="43.0185504" lon="12.0827649"><ele>625.0</ele><time>2026-05-02T10:25:51Z</time></trkpt><trkpt lat="43.018574" lon="12.0828733"><ele>626.0</ele><time>2026-05-02T10:25:52Z</time></trkpt><trkpt lat="43.0186043" lon="12.0830031"><ele>627.0</ele><time>2026-05-02T10:25:53Z</time></trkpt><trkpt lat="43.0186228" lon="12.0831216"><ele>628.0</ele><time>2026-05-02T10:25:54Z</time></trkpt><trkpt lat="43.0186324" lon="12.0832307"><ele>627.1666666666667</ele><time>2026-05-02T10:25:55Z</time></trkpt><trkpt lat="43.0186641" lon="12.0833402"><ele>626.3333333333334</ele><time>2026-05-02T10:25:56Z</time></trkpt><trkpt lat="43.0186955" lon="12.0834269"><ele>625.5</ele><time>2026-05-02T10:25:57Z</time></trkpt><trkpt lat="43.0187332" lon="12.0835735"><ele>624.6666666666666</ele><time>2026-05-02T10:25:58.999Z</time></trkpt><trkpt lat="43.018777" lon="12.0836886"><ele>623.8333333333333</ele><time>2026-05-02T10:26:01Z</time></trkpt><trkpt lat="43.0188027" lon="12.0837845"><ele>623.0</ele><time>2026-05-02T10:26:03Z</time></trkpt><trkpt lat="43.0188394" lon="12.0838842"><ele>623.0</ele><time>2026-05-02T10:26:05Z</time></trkpt><trkpt lat="43.0188825" lon="12.0839649"><ele>623.0</ele><time>2026-05-02T10:26:06.999Z</time></trkpt><trkpt lat="43.0188155" lon="12.0840247"><ele>623.0</ele><time>2026-05-02T10:26:24Z</time></trkpt><trkpt lat="43.0187442" lon="12.0839629"><ele>623.0</ele><time>2026-05-02T10:26:26Z</time></trkpt><trkpt lat="43.0186964" lon="12.0838911"><ele>623.0</ele><time>2026-05-02T10:26:28Z</time></trkpt><trkpt lat="43.0186163" lon="12.083841"><ele>623.0</ele><time>2026-05-02T10:26:31Z</time></trkpt><trkpt lat="43.0185421" lon="12.0838237"><ele>623.0</ele><time>2026-05-02T10:26:33Z</time></trkpt><trkpt lat="43.0184803" lon="12.0837939"><ele>623.0</ele><time>2026-05-02T10:26:35Z</time></trkpt><trkpt lat="43.018383" lon="12.083758"><ele>623.0</ele><time>2026-05-02T10:26:38Z</time></trkpt><trkpt lat="43.0183024" lon="12.0837395"><ele>623.0</ele><time>2026-05-02T10:26:39.999Z</time></trkpt><trkpt lat="43.0182331" lon="12.0837106"><ele>623.0</ele><time>2026-05-02T10:26:42Z</time></trkpt><trkpt lat="43.018153" lon="12.0836845"><ele>623.0</ele><time>2026-05-02T10:26:45Z</time></trkpt><trkpt lat="43.0181139" lon="12.0835762"><ele>624.0</ele><time>2026-05-02T10:26:47Z</time></trkpt><trkpt lat="43.0180519" lon="12.0834774"><ele>625.0</ele><time>2026-05-02T10:26:50Z</time></trkpt><trkpt lat="43.0179998" lon="12.0834085"><ele>626.0</ele><time>2026-05-02T10:26:52Z</time></trkpt><trkpt lat="43.0179669" lon="12.08333"><ele>627.0</ele><time>2026-05-02T10:26:54Z</time></trkpt><trkpt lat="43.0179316" lon="12.0832459"><ele>628.0</ele><time>2026-05-02T10:26:56Z</time></trkpt><trkpt lat="43.0178875" lon="12.0831195"><ele>629.0</ele><time>2026-05-02T10:26:58Z</time></trkpt><trkpt lat="43.0178757" lon="12.0830028"><ele>631.5</ele><time>2026-05-02T10:27:00Z</time></trkpt><trkpt lat="43.0178472" lon="12.0828342"><ele>634.0</ele><time>2026-05-02T10:27:02Z</time></trkpt><trkpt lat="43.0178324" lon="12.0827481"><ele>636.5</ele><time>2026-05-02T10:27:02.999Z</time></trkpt><trkpt lat="43.0177908" lon="12.0826146"><ele>639.0</ele><time>2026-05-02T10:27:05Z</time></trkpt><trkpt lat="43.0177448" lon="12.082526"><ele>641.5</ele><time>2026-05-02T10:27:08Z</time></trkpt><trkpt lat="43.0177596" lon="12.0826129"><ele>644.0</ele><time>2026-05-02T10:27:13Z</time></trkpt><trkpt lat="43.0176945" lon="12.0826369"><ele>644.0</ele><time>2026-05-02T10:27:22Z</time></trkpt><trkpt lat="43.0176174" lon="12.0826658"><ele>644.0</ele><time>2026-05-02T10:27:25Z</time></trkpt><trkpt lat="43.0175281" lon="12.0826869"><ele>644.0</ele><time>2026-05-02T10:27:28Z</time></trkpt><trkpt lat="43.0174588" lon="12.0827021"><ele>644.0</ele><time>2026-05-02T10:27:30Z</time></trkpt><trkpt lat="43.0173861" lon="12.0827115"><ele>644.0</ele><time>2026-05-02T10:27:32Z</time></trkpt><trkpt lat="43.0173132" lon="12.0827064"><ele>644.0</ele><time>2026-05-02T10:27:34Z</time></trkpt><trkpt lat="43.0172461" lon="12.0826972"><ele>640.8571428571429</ele><time>2026-05-02T10:27:36Z</time></trkpt><trkpt lat="43.0171822" lon="12.0827115"><ele>637.7142857142858</ele><time>2026-05-02T10:27:38Z</time></trkpt><trkpt lat="43.0171205" lon="12.082745"><ele>634.5714285714286</ele><time>2026-05-02T10:27:40Z</time></trkpt><trkpt lat="43.0170401" lon="12.0827928"><ele>631.4285714285714</ele><time>2026-05-02T10:27:43Z</time></trkpt><trkpt lat="43.0169763" lon="12.0828667"><ele>628.2857142857143</ele><time>2026-05-02T10:27:46Z</time></trkpt><trkpt lat="43.0169088" lon="12.0829121"><ele>625.1428571428571</ele><time>2026-05-02T10:27:48Z</time></trkpt><trkpt lat="43.016842" lon="12.0829378"><ele>622.0</ele><time>2026-05-02T10:27:50Z</time></trkpt><trkpt lat="43.0167911" lon="12.0829913"><ele>622.0</ele><time>2026-05-02T10:27:52Z</time></trkpt><trkpt lat="43.0167296" lon="12.0830507"><ele>622.0</ele><time>2026-05-02T10:27:54Z</time></trkpt><trkpt lat="43.0166476" lon="12.0831158"><ele>622.0</ele><time>2026-05-02T10:27:57Z</time></trkpt><trkpt lat="43.0165417" lon="12.0831363"><ele>622.0</ele><time>2026-05-02T10:27:59Z</time></trkpt><trkpt lat="43.0164519" lon="12.0831832"><ele>622.0</ele><time>2026-05-02T10:28:01Z</time></trkpt><trkpt lat="43.0163636" lon="12.0832294"><ele>620.0</ele><time>2026-05-02T10:28:03Z</time></trkpt><trkpt lat="43.0162806" lon="12.0833409"><ele>618.0</ele><time>2026-05-02T10:28:05Z</time></trkpt><trkpt lat="43.0161886" lon="12.083428"><ele>616.0</ele><time>2026-05-02T10:28:07Z</time></trkpt><trkpt lat="43.0160841" lon="12.0834723"><ele>614.0</ele><time>2026-05-02T10:28:09Z</time></trkpt><trkpt lat="43.0159829" lon="12.0835148"><ele>612.0</ele><time>2026-05-02T10:28:11Z</time></trkpt><trkpt lat="43.015906" lon="12.0835226"><ele>612.0</ele><time>2026-05-02T10:28:13Z</time></trkpt><trkpt lat="43.0158258" lon="12.0835062"><ele>612.0</ele><time>2026-05-02T10:28:15Z</time></trkpt><trkpt lat="43.0157338" lon="12.0835028"><ele>612.0</ele><time>2026-05-02T10:28:18Z</time></trkpt><trkpt lat="43.0156601" lon="12.0834781"><ele>612.0</ele><time>2026-05-02T10:28:20Z</time></trkpt><trkpt lat="43.0155797" lon="12.0834988"><ele>612.0</ele><time>2026-05-02T10:28:22Z</time></trkpt><trkpt lat="43.0155183" lon="12.0835299"><ele>612.0</ele><time>2026-05-02T10:28:24Z</time></trkpt><trkpt lat="43.0154623" lon="12.0835824"><ele>609.8333333333334</ele><time>2026-05-02T10:28:26Z</time></trkpt><trkpt lat="43.0154031" lon="12.083668"><ele>607.6666666666666</ele><time>2026-05-02T10:28:29Z</time></trkpt><trkpt lat="43.0153712" lon="12.0837542"><ele>605.5</ele><time>2026-05-02T10:28:31Z</time></trkpt><trkpt lat="43.0153469" lon="12.0838404"><ele>603.3333333333333</ele><time>2026-05-02T10:28:32.999Z</time></trkpt><trkpt lat="43.015303" lon="12.0839533"><ele>601.1666666666666</ele><time>2026-05-02T10:28:36Z</time></trkpt><trkpt lat="43.0152872" lon="12.084043"><ele>599.0</ele><time>2026-05-02T10:28:38Z</time></trkpt><trkpt lat="43.0152865" lon="12.0841323"><ele>599.0</ele><time>2026-05-02T10:28:39.999Z</time></trkpt><trkpt lat="43.0152963" lon="12.0842189"><ele>599.0</ele><time>2026-05-02T10:28:42Z</time></trkpt><trkpt lat="43.0153179" lon="12.0843308"><ele>599.0</ele><time>2026-05-02T10:28:45Z</time></trkpt><trkpt lat="43.0153321" lon="12.0844195"><ele>599.0</ele><time>2026-05-02T10:28:57.999Z</time></trkpt><trkpt lat="43.0153442" lon="12.0845112"><ele>599.0</ele><time>2026-05-02T10:29:18Z</time></trkpt><trkpt lat="43.0153431" lon="12.084598"><ele>599.0</ele><time>2026-05-02T10:29:21Z</time></trkpt><trkpt lat="43.0152656" lon="12.0846492"><ele>599.0</ele><time>2026-05-02T10:29:23.999Z</time></trkpt><trkpt lat="43.0151942" lon="12.0846365"><ele>599.0</ele><time>2026-05-02T10:29:26Z</time></trkpt><trkpt lat="43.0151237" lon="12.0846093"><ele>599.0</ele><time>2026-05-02T10:29:28Z</time></trkpt><trkpt lat="43.0150406" lon="12.0845659"><ele>599.0</ele><time>2026-05-02T10:29:30Z</time></trkpt><trkpt lat="43.0149812" lon="12.0845165"><ele>599.0</ele><time>2026-05-02T10:29:31.999Z</time></trkpt><trkpt lat="43.0149026" lon="12.0844792"><ele>599.0</ele><time>2026-05-02T10:29:34Z</time></trkpt><trkpt lat="43.0148377" lon="12.0844613"><ele>599.0</ele><time>2026-05-02T10:29:35.999Z</time></trkpt><trkpt lat="43.0147612" lon="12.0844164"><ele>596.6666666666666</ele><time>2026-05-02T10:29:38Z</time></trkpt><trkpt lat="43.0146834" lon="12.0843669"><ele>594.3333333333333</ele><time>2026-05-02T10:29:40Z</time></trkpt><trkpt lat="43.0146277" lon="12.0843235"><ele>592.0</ele><time>2026-05-02T10:29:42Z</time></trkpt><trkpt lat="43.0145416" lon="12.0842671"><ele>589.6666666666666</ele><time>2026-05-02T10:29:45Z</time></trkpt><trkpt lat="43.0144674" lon="12.084175"><ele>587.3333333333334</ele><time>2026-05-02T10:29:46.999Z</time></trkpt><trkpt lat="43.0144154" lon="12.0840993"><ele>585.0</ele><time>2026-05-02T10:29:49Z</time></trkpt><trkpt lat="43.0143563" lon="12.0840358"><ele>583.5</ele><time>2026-05-02T10:29:51Z</time></trkpt><trkpt lat="43.0142979" lon="12.0839726"><ele>582.0</ele><time>2026-05-02T10:29:53Z</time></trkpt><trkpt lat="43.0142442" lon="12.0839081"><ele>580.5</ele><time>2026-05-02T10:29:56Z</time></trkpt><trkpt lat="43.0141895" lon="12.0838599"><ele>579.0</ele><time>2026-05-02T10:29:59Z</time></trkpt><trkpt lat="43.0141232" lon="12.0837988"><ele>577.5</ele><time>2026-05-02T10:30:02Z</time></trkpt><trkpt lat="43.0140338" lon="12.0837985"><ele>576.0</ele><time>2026-05-02T10:30:05Z</time></trkpt><trkpt lat="43.0139593" lon="12.0838114"><ele>574.7142857142858</ele><time>2026-05-02T10:30:07Z</time></trkpt><trkpt lat="43.0138687" lon="12.0838494"><ele>573.4285714285714</ele><time>2026-05-02T10:30:10Z</time></trkpt><trkpt lat="43.013819" lon="12.0839073"><ele>572.1428571428571</ele><time>2026-05-02T10:30:11.999Z</time></trkpt><trkpt lat="43.0137511" lon="12.0839393"><ele>570.8571428571429</ele><time>2026-05-02T10:30:15Z</time></trkpt><trkpt lat="43.0136892" lon="12.0839196"><ele>569.5714285714286</ele><time>2026-05-02T10:30:17Z</time></trkpt><trkpt lat="43.0136285" lon="12.0838802"><ele>568.2857142857143</ele><time>2026-05-02T10:30:19Z</time></trkpt><trkpt lat="43.0135887" lon="12.0838075"><ele>567.0</ele><time>2026-05-02T10:30:21Z</time></trkpt><trkpt lat="43.0135587" lon="12.0837286"><ele>567.0</ele><time>2026-05-02T10:30:23Z</time></trkpt><trkpt lat="43.0135153" lon="12.083634"><ele>567.0</ele><time>2026-05-02T10:30:26Z</time></trkpt><trkpt lat="43.0134777" lon="12.0835154"><ele>567.0</ele><time>2026-05-02T10:30:29Z</time></trkpt><trkpt lat="43.0134" lon="12.0834519"><ele>567.0</ele><time>2026-05-02T10:30:31.999Z</time></trkpt><trkpt lat="43.0133371" lon="12.0834268"><ele>567.0</ele><time>2026-05-02T10:30:34Z</time></trkpt><trkpt lat="43.0132557" lon="12.0833882"><ele>567.0</ele><time>2026-05-02T10:30:37Z</time></trkpt><trkpt lat="43.0131646" lon="12.0833962"><ele>564.8571428571429</ele><time>2026-05-02T10:30:40Z</time></trkpt><trkpt lat="43.0131045" lon="12.0834363"><ele>562.7142857142858</ele><time>2026-05-02T10:30:42Z</time></trkpt><trkpt lat="43.0130479" lon="12.0834945"><ele>560.5714285714286</ele><time>2026-05-02T10:30:44Z</time></trkpt><trkpt lat="43.013025" lon="12.0835792"><ele>558.4285714285714</ele><time>2026-05-02T10:30:46Z</time></trkpt><trkpt lat="43.0130321" lon="12.0837039"><ele>556.2857142857143</ele><time>2026-05-02T10:30:49Z</time></trkpt><trkpt lat="43.0130414" lon="12.0838035"><ele>554.1428571428571</ele><time>2026-05-02T10:30:51Z</time></trkpt><trkpt lat="43.0130564" lon="12.0838937"><ele>552.0</ele><time>2026-05-02T10:30:53Z</time></trkpt><trkpt lat="43.013064" lon="12.0839792"><ele>550.5</ele><time>2026-05-02T10:30:55Z</time></trkpt><trkpt lat="43.0130853" lon="12.0841074"><ele>549.0</ele><time>2026-05-02T10:30:58Z</time></trkpt><trkpt lat="43.0130908" lon="12.0842036"><ele>547.5</ele><time>2026-05-02T10:31:00Z</time></trkpt><trkpt lat="43.0131141" lon="12.0842967"><ele>546.0</ele><time>2026-05-02T10:31:02Z</time></trkpt><trkpt lat="43.0131599" lon="12.084383"><ele>544.5</ele><time>2026-05-02T10:31:04Z</time></trkpt><trkpt lat="43.0132052" lon="12.0844743"><ele>543.0</ele><time>2026-05-02T10:31:06Z</time></trkpt><trkpt lat="43.0132512" lon="12.084559"><ele>543.0</ele><time>2026-05-02T10:31:08Z</time></trkpt><trkpt lat="43.0132871" lon="12.0846403"><ele>543.0</ele><time>2026-05-02T10:31:09.999Z</time></trkpt><trkpt lat="43.0133099" lon="12.0847593"><ele>543.0</ele><time>2026-05-02T10:31:12Z</time></trkpt><trkpt lat="43.0133236" lon="12.0848557"><ele>543.0</ele><time>2026-05-02T10:31:13.999Z</time></trkpt><trkpt lat="43.0133312" lon="12.0849495"><ele>543.0</ele><time>2026-05-02T10:31:16Z</time></trkpt><trkpt lat="43.0133581" lon="12.0850591"><ele>543.0</ele><time>2026-05-02T10:31:18Z</time></trkpt><trkpt lat="43.0133732" lon="12.0851636"><ele>545.0</ele><time>2026-05-02T10:31:20Z</time></trkpt><trkpt lat="43.0134073" lon="12.0852448"><ele>547.0</ele><time>2026-05-02T10:31:22Z</time></trkpt><trkpt lat="43.0134416" lon="12.0853666"><ele>549.0</ele><time>2026-05-02T10:31:25Z</time></trkpt><trkpt lat="43.0134657" lon="12.085455"><ele>551.0</ele><time>2026-05-02T10:31:27Z</time></trkpt><trkpt lat="43.0134703" lon="12.0855697"><ele>553.0</ele><time>2026-05-02T10:31:30Z</time></trkpt><trkpt lat="43.0133967" lon="12.085616"><ele>555.0</ele><time>2026-05-02T10:31:33Z</time></trkpt><trkpt lat="43.0133383" lon="12.0856605"><ele>553.1666666666666</ele><time>2026-05-02T10:31:35Z</time></trkpt><trkpt lat="43.0132735" lon="12.0856848"><ele>551.3333333333334</ele><time>2026-05-02T10:31:36.999Z</time></trkpt><trkpt lat="43.0132137" lon="12.0857283"><ele>549.5</ele><time>2026-05-02T10:31:40Z</time></trkpt><trkpt lat="43.0131419" lon="12.0857949"><ele>547.6666666666667</ele><time>2026-05-02T10:31:55Z</time></trkpt><trkpt lat="43.0130737" lon="12.0858516"><ele>545.8333333333334</ele><time>2026-05-02T10:31:57Z</time></trkpt><trkpt lat="43.0129927" lon="12.0859024"><ele>544.0</ele><time>2026-05-02T10:31:59Z</time></trkpt><trkpt lat="43.0129292" lon="12.0859614"><ele>543.9999999999999</ele><time>2026-05-02T10:32:01Z</time></trkpt><trkpt lat="43.0128743" lon="12.0860251"><ele>544.0</ele><time>2026-05-02T10:33:57.999Z</time></trkpt><trkpt lat="43.0128307" lon="12.0860935"><ele>544.0</ele><time>2026-05-02T10:34:01Z</time></trkpt><trkpt lat="43.0127855" lon="12.0861639"><ele>544.0</ele><time>2026-05-02T10:34:03Z</time></trkpt><trkpt lat="43.0127437" lon="12.0862416"><ele>544.0</ele><time>2026-05-02T10:34:05Z</time></trkpt><trkpt lat="43.0126872" lon="12.0863183"><ele>543.9999999999999</ele><time>2026-05-02T10:34:06.999Z</time></trkpt><trkpt lat="43.0126267" lon="12.0863854"><ele>544.0</ele><time>2026-05-02T10:34:09Z</time></trkpt><trkpt lat="43.0125559" lon="12.0864462"><ele>543.9999999999999</ele><time>2026-05-02T10:34:11Z</time></trkpt><trkpt lat="43.0124925" lon="12.0865102"><ele>544.0</ele><time>2026-05-02T10:34:13Z</time></trkpt><trkpt lat="43.0124317" lon="12.0865716"><ele>544.0</ele><time>2026-05-02T10:34:16Z</time></trkpt><trkpt lat="43.0123858" lon="12.0866343"><ele>544.0</ele><time>2026-05-02T10:34:24.999Z</time></trkpt><trkpt lat="43.01233" lon="12.0866973"><ele>544.0</ele><time>2026-05-02T10:34:29Z</time></trkpt><trkpt lat="43.0122774" lon="12.0867669"><ele>543.9999999999999</ele><time>2026-05-02T10:34:30.999Z</time></trkpt><trkpt lat="43.0122328" lon="12.0868429"><ele>544.0</ele><time>2026-05-02T10:34:32.999Z</time></trkpt><trkpt lat="43.0121735" lon="12.0869422"><ele>544.1666666666667</ele><time>2026-05-02T10:34:35Z</time></trkpt><trkpt lat="43.0120807" lon="12.0870253"><ele>544.3333333333334</ele><time>2026-05-02T10:34:37Z</time></trkpt><trkpt lat="43.0120112" lon="12.087117"><ele>544.5</ele><time>2026-05-02T10:34:39Z</time></trkpt><trkpt lat="43.0119688" lon="12.0871925"><ele>544.6666666666666</ele><time>2026-05-02T10:34:42Z</time></trkpt><trkpt lat="43.0119266" lon="12.0872727"><ele>544.8333333333333</ele><time>2026-05-02T10:34:49Z</time></trkpt><trkpt lat="43.0118749" lon="12.0873411"><ele>545.0</ele><time>2026-05-02T10:34:51Z</time></trkpt><trkpt lat="43.0117923" lon="12.0874311"><ele>545.0</ele><time>2026-05-02T10:34:53Z</time></trkpt><trkpt lat="43.0117429" lon="12.0874933"><ele>545.0</ele><time>2026-05-02T10:34:54Z</time></trkpt><trkpt lat="43.0116929" lon="12.0875517"><ele>545.0</ele><time>2026-05-02T10:34:55Z</time></trkpt><trkpt lat="43.0116313" lon="12.08764"><ele>545.0</ele><time>2026-05-02T10:34:57Z</time></trkpt><trkpt lat="43.0115701" lon="12.0877315"><ele>545.0</ele><time>2026-05-02T10:34:59Z</time></trkpt><trkpt lat="43.0114815" lon="12.0878446"><ele>545.0</ele><time>2026-05-02T10:35:01Z</time></trkpt><trkpt lat="43.0114135" lon="12.087939"><ele>544.8</ele><time>2026-05-02T10:35:02.999Z</time></trkpt><trkpt lat="43.0113356" lon="12.0880589"><ele>544.6</ele><time>2026-05-02T10:35:05Z</time></trkpt><trkpt lat="43.0112459" lon="12.088159"><ele>544.4</ele><time>2026-05-02T10:35:07Z</time></trkpt><trkpt lat="43.0111831" lon="12.0882571"><ele>544.2</ele><time>2026-05-02T10:35:09Z</time></trkpt><trkpt lat="43.0111231" lon="12.0883468"><ele>544.0</ele><time>2026-05-02T10:35:10.999Z</time></trkpt><trkpt lat="43.0110457" lon="12.0884294"><ele>542.2</ele><time>2026-05-02T10:35:13Z</time></trkpt><trkpt lat="43.0109589" lon="12.0884961"><ele>540.4</ele><time>2026-05-02T10:35:15Z</time></trkpt><trkpt lat="43.0108665" lon="12.0885488"><ele>538.6</ele><time>2026-05-02T10:35:17Z</time></trkpt><trkpt lat="43.0107719" lon="12.0885701"><ele>536.8</ele><time>2026-05-02T10:35:19Z</time></trkpt><trkpt lat="43.0106572" lon="12.0885288"><ele>535.0</ele><time>2026-05-02T10:35:21Z</time></trkpt><trkpt lat="43.0105413" lon="12.0884612"><ele>533.0</ele><time>2026-05-02T10:35:23Z</time></trkpt><trkpt lat="43.0104364" lon="12.0883908"><ele>531.0</ele><time>2026-05-02T10:35:25Z</time></trkpt><trkpt lat="43.0103243" lon="12.0883102"><ele>529.0</ele><time>2026-05-02T10:35:26.999Z</time></trkpt><trkpt lat="43.0102369" lon="12.0882466"><ele>527.0</ele><time>2026-05-02T10:35:28.999Z</time></trkpt><trkpt lat="43.0101581" lon="12.0881896"><ele>525.0</ele><time>2026-05-02T10:35:31Z</time></trkpt><trkpt lat="43.0100881" lon="12.0880965"><ele>525.0</ele><time>2026-05-02T10:35:33Z</time></trkpt><trkpt lat="43.0100196" lon="12.0880543"><ele>525.0</ele><time>2026-05-02T10:35:35Z</time></trkpt><trkpt lat="43.0099537" lon="12.0880294"><ele>525.0</ele><time>2026-05-02T10:35:37Z</time></trkpt><trkpt lat="43.009887" lon="12.0880024"><ele>525.0</ele><time>2026-05-02T10:35:39Z</time></trkpt><trkpt lat="43.009816" lon="12.0879623"><ele>525.0</ele><time>2026-05-02T10:35:41Z</time></trkpt><trkpt lat="43.0097345" lon="12.0879216"><ele>525.0</ele><time>2026-05-02T10:35:42.999Z</time></trkpt><trkpt lat="43.0096456" lon="12.0879259"><ele>520.6</ele><time>2026-05-02T10:35:44.999Z</time></trkpt><trkpt lat="43.0095546" lon="12.0879789"><ele>516.2</ele><time>2026-05-02T10:35:46.999Z</time></trkpt><trkpt lat="43.0094793" lon="12.0880197"><ele>511.79999999999995</ele><time>2026-05-02T10:35:49Z</time></trkpt><trkpt lat="43.0094034" lon="12.0880989"><ele>507.4</ele><time>2026-05-02T10:35:51Z</time></trkpt><trkpt lat="43.0093153" lon="12.088153"><ele>503.0</ele><time>2026-05-02T10:35:53Z</time></trkpt><trkpt lat="43.0092217" lon="12.0881648"><ele>502.0</ele><time>2026-05-02T10:35:54.999Z</time></trkpt><trkpt lat="43.0091106" lon="12.0882259"><ele>500.99999999999994</ele><time>2026-05-02T10:35:57Z</time></trkpt><trkpt lat="43.0090122" lon="12.0882602"><ele>499.99999999999994</ele><time>2026-05-02T10:35:59Z</time></trkpt><trkpt lat="43.008906" lon="12.088304"><ele>499.0</ele><time>2026-05-02T10:36:01Z</time></trkpt><trkpt lat="43.0088283" lon="12.088365"><ele>498.0</ele><time>2026-05-02T10:36:03Z</time></trkpt><trkpt lat="43.0087564" lon="12.0884672"><ele>498.0</ele><time>2026-05-02T10:36:05Z</time></trkpt><trkpt lat="43.0087259" lon="12.0885933"><ele>497.99999999999994</ele><time>2026-05-02T10:36:07Z</time></trkpt><trkpt lat="43.0087371" lon="12.0887554"><ele>497.99999999999994</ele><time>2026-05-02T10:36:09Z</time></trkpt><trkpt lat="43.0087543" lon="12.0889052"><ele>498.0</ele><time>2026-05-02T10:36:11Z</time></trkpt><trkpt lat="43.0088013" lon="12.0890263"><ele>498.0</ele><time>2026-05-02T10:36:13Z</time></trkpt><trkpt lat="43.0088599" lon="12.0891215"><ele>498.59999999999997</ele><time>2026-05-02T10:36:15Z</time></trkpt><trkpt lat="43.0089374" lon="12.0892112"><ele>499.19999999999993</ele><time>2026-05-02T10:36:17Z</time></trkpt><trkpt lat="43.0090148" lon="12.0892896"><ele>499.8</ele><time>2026-05-02T10:36:18.999Z</time></trkpt><trkpt lat="43.0091042" lon="12.0893666"><ele>500.4</ele><time>2026-05-02T10:36:21Z</time></trkpt><trkpt lat="43.0092104" lon="12.0894336"><ele>501.0</ele><time>2026-05-02T10:36:22.999Z</time></trkpt><trkpt lat="43.0093111" lon="12.089472"><ele>501.0</ele><time>2026-05-02T10:36:25Z</time></trkpt><trkpt lat="43.0094327" lon="12.0895021"><ele>501.0</ele><time>2026-05-02T10:36:27Z</time></trkpt><trkpt lat="43.0095254" lon="12.0895368"><ele>501.0</ele><time>2026-05-02T10:36:29Z</time></trkpt><trkpt lat="43.0095992" lon="12.0896017"><ele>501.0</ele><time>2026-05-02T10:36:31Z</time></trkpt><trkpt lat="43.0096769" lon="12.0896486"><ele>501.0</ele><time>2026-05-02T10:36:33Z</time></trkpt><trkpt lat="43.0097738" lon="12.0897332"><ele>501.0</ele><time>2026-05-02T10:36:35Z</time></trkpt><trkpt lat="43.0098594" lon="12.0898427"><ele>501.0</ele><time>2026-05-02T10:36:37Z</time></trkpt><trkpt lat="43.0099094" lon="12.089902"><ele>501.0</ele><time>2026-05-02T10:36:38Z</time></trkpt><trkpt lat="43.009962" lon="12.0899694"><ele>501.0</ele><time>2026-05-02T10:36:39Z</time></trkpt><trkpt lat="43.0100096" lon="12.0900319"><ele>501.0</ele><time>2026-05-02T10:36:40Z</time></trkpt><trkpt lat="43.0100895" lon="12.0901282"><ele>501.0</ele><time>2026-05-02T10:36:42Z</time></trkpt><trkpt lat="43.0101462" lon="12.0902032"><ele>498.4</ele><time>2026-05-02T10:36:44Z</time></trkpt><trkpt lat="43.0101905" lon="12.0902762"><ele>495.8</ele><time>2026-05-02T10:36:46Z</time></trkpt><trkpt lat="43.0102551" lon="12.0903754"><ele>493.19999999999993</ele><time>2026-05-02T10:36:48Z</time></trkpt><trkpt lat="43.0103216" lon="12.0905051"><ele>490.59999999999997</ele><time>2026-05-02T10:36:49.999Z</time></trkpt><trkpt lat="43.0103744" lon="12.0906336"><ele>488.0</ele><time>2026-05-02T10:36:52Z</time></trkpt><trkpt lat="43.0104268" lon="12.0907598"><ele>483.59999999999997</ele><time>2026-05-02T10:36:54Z</time></trkpt><trkpt lat="43.0104795" lon="12.0909007"><ele>479.19999999999993</ele><time>2026-05-02T10:36:56Z</time></trkpt><trkpt lat="43.0105301" lon="12.0910443"><ele>474.8</ele><time>2026-05-02T10:36:58Z</time></trkpt><trkpt lat="43.0105883" lon="12.0911529"><ele>470.4</ele><time>2026-05-02T10:37:00Z</time></trkpt><trkpt lat="43.0106896" lon="12.0912119"><ele>466.0</ele><time>2026-05-02T10:37:02Z</time></trkpt><trkpt lat="43.0107657" lon="12.0912301"><ele>468.6666666666667</ele><time>2026-05-02T10:37:04Z</time></trkpt><trkpt lat="43.0108526" lon="12.091252"><ele>471.33333333333337</ele><time>2026-05-02T10:37:06Z</time></trkpt><trkpt lat="43.0109347" lon="12.0912637"><ele>474.0</ele><time>2026-05-02T10:37:07.999Z</time></trkpt><trkpt lat="43.0110248" lon="12.0912818"><ele>476.66666666666663</ele><time>2026-05-02T10:37:10Z</time></trkpt><trkpt lat="43.0111163" lon="12.0912666"><ele>479.3333333333333</ele><time>2026-05-02T10:37:12Z</time></trkpt><trkpt lat="43.0112015" lon="12.0912637"><ele>482.0</ele><time>2026-05-02T10:37:14Z</time></trkpt><trkpt lat="43.0113043" lon="12.091242"><ele>482.0</ele><time>2026-05-02T10:37:16Z</time></trkpt><trkpt lat="43.0114061" lon="12.0912622"><ele>482.00000000000006</ele><time>2026-05-02T10:37:18Z</time></trkpt><trkpt lat="43.0115262" lon="12.0912766"><ele>482.00000000000006</ele><time>2026-05-02T10:37:20Z</time></trkpt><trkpt lat="43.0116299" lon="12.0912857"><ele>482.0</ele><time>2026-05-02T10:37:22Z</time></trkpt><trkpt lat="43.0117304" lon="12.0913102"><ele>482.0</ele><time>2026-05-02T10:37:23.999Z</time></trkpt><trkpt lat="43.0118167" lon="12.0913313"><ele>480.66666666666663</ele><time>2026-05-02T10:37:26Z</time></trkpt><trkpt lat="43.0118142" lon="12.0914454"><ele>479.3333333333333</ele><time>2026-05-02T10:37:30Z</time></trkpt><trkpt lat="43.0117679" lon="12.091528"><ele>478.0</ele><time>2026-05-02T10:37:32Z</time></trkpt><trkpt lat="43.0117078" lon="12.0916008"><ele>476.66666666666663</ele><time>2026-05-02T10:37:34Z</time></trkpt><trkpt lat="43.0116225" lon="12.0916581"><ele>475.3333333333333</ele><time>2026-05-02T10:37:36Z</time></trkpt><trkpt lat="43.0115494" lon="12.0917025"><ele>474.0</ele><time>2026-05-02T10:37:37.999Z</time></trkpt><trkpt lat="43.0114869" lon="12.0917631"><ele>472.0</ele><time>2026-05-02T10:37:40Z</time></trkpt><trkpt lat="43.011419" lon="12.0918257"><ele>470.0</ele><time>2026-05-02T10:37:42Z</time></trkpt><trkpt lat="43.0113628" lon="12.091891"><ele>468.0</ele><time>2026-05-02T10:37:44Z</time></trkpt><trkpt lat="43.0113016" lon="12.0919692"><ele>466.0</ele><time>2026-05-02T10:37:46Z</time></trkpt><trkpt lat="43.0112405" lon="12.0920254"><ele>464.0</ele><time>2026-05-02T10:37:48Z</time></trkpt><trkpt lat="43.0111696" lon="12.0920563"><ele>462.0</ele><time>2026-05-02T10:37:50Z</time></trkpt><trkpt lat="43.0111117" lon="12.0921477"><ele>462.0</ele><time>2026-05-02T10:37:51.999Z</time></trkpt><trkpt lat="43.0111515" lon="12.0922792"><ele>462.00000000000006</ele><time>2026-05-02T10:37:54Z</time></trkpt><trkpt lat="43.0112252" lon="12.0923876"><ele>462.00000000000006</ele><time>2026-05-02T10:37:56Z</time></trkpt><trkpt lat="43.011286" lon="12.0924937"><ele>462.0</ele><time>2026-05-02T10:37:58Z</time></trkpt><trkpt lat="43.0113401" lon="12.0926102"><ele>462.0</ele><time>2026-05-02T10:38:00Z</time></trkpt><trkpt lat="43.0113821" lon="12.0927412"><ele>459.40000000000003</ele><time>2026-05-02T10:38:02Z</time></trkpt><trkpt lat="43.011429" lon="12.0928713"><ele>456.80000000000007</ele><time>2026-05-02T10:38:03.999Z</time></trkpt><trkpt lat="43.0114813" lon="12.0929966"><ele>454.2</ele><time>2026-05-02T10:38:06Z</time></trkpt><trkpt lat="43.0115193" lon="12.0931291"><ele>451.6</ele><time>2026-05-02T10:38:08Z</time></trkpt><trkpt lat="43.011551" lon="12.0932249"><ele>449.0</ele><time>2026-05-02T10:38:10Z</time></trkpt><trkpt lat="43.0115607" lon="12.0933169"><ele>445.4</ele><time>2026-05-02T10:38:12Z</time></trkpt><trkpt lat="43.0115963" lon="12.0934254"><ele>441.79999999999995</ele><time>2026-05-02T10:38:14Z</time></trkpt><trkpt lat="43.0116329" lon="12.0935469"><ele>438.20000000000005</ele><time>2026-05-02T10:38:16Z</time></trkpt><trkpt lat="43.0116585" lon="12.0936628"><ele>434.6</ele><time>2026-05-02T10:38:17.999Z</time></trkpt><trkpt lat="43.01167" lon="12.0937998"><ele>431.0</ele><time>2026-05-02T10:38:20Z</time></trkpt><trkpt lat="43.0116504" lon="12.0939235"><ele>431.0</ele><time>2026-05-02T10:38:22Z</time></trkpt><trkpt lat="43.011595" lon="12.0940411"><ele>431.0</ele><time>2026-05-02T10:38:24Z</time></trkpt><trkpt lat="43.0115303" lon="12.0941066"><ele>431.0</ele><time>2026-05-02T10:38:26Z</time></trkpt><trkpt lat="43.0114589" lon="12.0941504"><ele>431.0</ele><time>2026-05-02T10:38:28Z</time></trkpt><trkpt lat="43.0113741" lon="12.0941777"><ele>431.0</ele><time>2026-05-02T10:38:30Z</time></trkpt><trkpt lat="43.0112572" lon="12.0941883"><ele>427.66666666666663</ele><time>2026-05-02T10:38:32Z</time></trkpt><trkpt lat="43.0111931" lon="12.0941994"><ele>424.3333333333333</ele><time>2026-05-02T10:38:32.999Z</time></trkpt><trkpt lat="43.0110593" lon="12.0942269"><ele>421.0</ele><time>2026-05-02T10:38:35Z</time></trkpt><trkpt lat="43.0109821" lon="12.0942409"><ele>417.66666666666663</ele><time>2026-05-02T10:38:36Z</time></trkpt><trkpt lat="43.0109056" lon="12.0942513"><ele>414.3333333333333</ele><time>2026-05-02T10:38:37Z</time></trkpt><trkpt lat="43.0108294" lon="12.0942698"><ele>411.0</ele><time>2026-05-02T10:38:38Z</time></trkpt><trkpt lat="43.0107486" lon="12.0942835"><ele>409.5</ele><time>2026-05-02T10:38:39Z</time></trkpt><trkpt lat="43.0106642" lon="12.0942933"><ele>408.0</ele><time>2026-05-02T10:38:40Z</time></trkpt><trkpt lat="43.0105794" lon="12.0942986"><ele>406.5</ele><time>2026-05-02T10:38:41Z</time></trkpt><trkpt lat="43.0105034" lon="12.0942961"><ele>405.0</ele><time>2026-05-02T10:38:42Z</time></trkpt><trkpt lat="43.01043" lon="12.0942928"><ele>403.5</ele><time>2026-05-02T10:38:43Z</time></trkpt><trkpt lat="43.010359" lon="12.0942876"><ele>402.0</ele><time>2026-05-02T10:38:43.999Z</time></trkpt><trkpt lat="43.010241" lon="12.0942869"><ele>402.0</ele><time>2026-05-02T10:38:45.999Z</time></trkpt><trkpt lat="43.0101116" lon="12.0942298"><ele>402.0</ele><time>2026-05-02T10:38:48Z</time></trkpt><trkpt lat="43.0100371" lon="12.0941746"><ele>402.0</ele><time>2026-05-02T10:38:49Z</time></trkpt><trkpt lat="43.0099466" lon="12.0940735"><ele>402.0</ele><time>2026-05-02T10:38:51Z</time></trkpt><trkpt lat="43.0098545" lon="12.0940859"><ele>402.0</ele><time>2026-05-02T10:38:53Z</time></trkpt><trkpt lat="43.0097822" lon="12.0942366"><ele>403.0</ele><time>2026-05-02T10:38:55Z</time></trkpt><trkpt lat="43.0097311" lon="12.0943296"><ele>404.0</ele><time>2026-05-02T10:38:56Z</time></trkpt><trkpt lat="43.0096797" lon="12.0944235"><ele>405.0</ele><time>2026-05-02T10:38:57Z</time></trkpt><trkpt lat="43.0096279" lon="12.0945351"><ele>406.0</ele><time>2026-05-02T10:38:57.999Z</time></trkpt><trkpt lat="43.0095815" lon="12.0946528"><ele>407.0</ele><time>2026-05-02T10:38:59Z</time></trkpt><trkpt lat="43.0095402" lon="12.0947761"><ele>407.0</ele><time>2026-05-02T10:39:00Z</time></trkpt><trkpt lat="43.0095013" lon="12.0948806"><ele>407.0</ele><time>2026-05-02T10:39:01Z</time></trkpt><trkpt lat="43.0094656" lon="12.0949964"><ele>407.0</ele><time>2026-05-02T10:39:02Z</time></trkpt><trkpt lat="43.0094356" lon="12.0951115"><ele>407.0</ele><time>2026-05-02T10:39:02.999Z</time></trkpt><trkpt lat="43.0093995" lon="12.0952126"><ele>407.0</ele><time>2026-05-02T10:39:04Z</time></trkpt><trkpt lat="43.0093466" lon="12.095358"><ele>403.40000000000003</ele><time>2026-05-02T10:39:06Z</time></trkpt><trkpt lat="43.0092568" lon="12.0954459"><ele>399.8</ele><time>2026-05-02T10:39:08Z</time></trkpt><trkpt lat="43.0091994" lon="12.0955169"><ele>396.2</ele><time>2026-05-02T10:39:10Z</time></trkpt><trkpt lat="43.0092095" lon="12.0956121"><ele>392.6</ele><time>2026-05-02T10:39:12Z</time></trkpt><trkpt lat="43.0093051" lon="12.0956796"><ele>389.0</ele><time>2026-05-02T10:39:13.999Z</time></trkpt><trkpt lat="43.0094152" lon="12.0956874"><ele>388.99999999999994</ele><time>2026-05-02T10:39:15.999Z</time></trkpt><trkpt lat="43.0094874" lon="12.0957416"><ele>389.0</ele><time>2026-05-02T10:39:18Z</time></trkpt><trkpt lat="43.0094945" lon="12.095851"><ele>389.0</ele><time>2026-05-02T10:39:19.999Z</time></trkpt><trkpt lat="43.0094566" lon="12.0960003"><ele>389.0</ele><time>2026-05-02T10:39:21.999Z</time></trkpt><trkpt lat="43.0093984" lon="12.0960518"><ele>388.99999999999994</ele><time>2026-05-02T10:39:23Z</time></trkpt><trkpt lat="43.0093408" lon="12.0960939"><ele>389.0</ele><time>2026-05-02T10:39:24Z</time></trkpt><trkpt lat="43.0092432" lon="12.0961747"><ele>384.75</ele><time>2026-05-02T10:39:26Z</time></trkpt><trkpt lat="43.0091064" lon="12.0962419"><ele>380.5</ele><time>2026-05-02T10:39:28Z</time></trkpt><trkpt lat="43.0090167" lon="12.0962718"><ele>376.25</ele><time>2026-05-02T10:39:29Z</time></trkpt><trkpt lat="43.0089132" lon="12.0963151"><ele>372.0</ele><time>2026-05-02T10:39:30Z</time></trkpt><trkpt lat="43.0087879" lon="12.0963838"><ele>372.0</ele><time>2026-05-02T10:39:31Z</time></trkpt><trkpt lat="43.0086865" lon="12.0964378"><ele>372.0</ele><time>2026-05-02T10:39:32Z</time></trkpt><trkpt lat="43.0086001" lon="12.0964947"><ele>372.0</ele><time>2026-05-02T10:39:33Z</time></trkpt><trkpt lat="43.0085237" lon="12.0965359"><ele>372.0</ele><time>2026-05-02T10:39:34Z</time></trkpt><trkpt lat="43.008454" lon="12.0965771"><ele>372.0</ele><time>2026-05-02T10:39:35Z</time></trkpt><trkpt lat="43.0083998" lon="12.0966323"><ele>372.0</ele><time>2026-05-02T10:39:36Z</time></trkpt><trkpt lat="43.0083508" lon="12.0966914"><ele>369.6666666666667</ele><time>2026-05-02T10:39:36.999Z</time></trkpt><trkpt lat="43.0083059" lon="12.0967932"><ele>367.3333333333333</ele><time>2026-05-02T10:39:38.999Z</time></trkpt><trkpt lat="43.0083688" lon="12.0968306"><ele>365.0</ele><time>2026-05-02T10:39:42Z</time></trkpt><trkpt lat="43.0084307" lon="12.0967912"><ele>362.66666666666663</ele><time>2026-05-02T10:39:43Z</time></trkpt><trkpt lat="43.0084936" lon="12.0967496"><ele>360.3333333333333</ele><time>2026-05-02T10:39:44Z</time></trkpt><trkpt lat="43.008577" lon="12.0967069"><ele>358.0</ele><time>2026-05-02T10:39:45Z</time></trkpt><trkpt lat="43.0086681" lon="12.0966475"><ele>357.25</ele><time>2026-05-02T10:39:46Z</time></trkpt><trkpt lat="43.0087734" lon="12.096589"><ele>356.5</ele><time>2026-05-02T10:39:47Z</time></trkpt><trkpt lat="43.0088921" lon="12.0965365"><ele>355.75</ele><time>2026-05-02T10:39:48Z</time></trkpt><trkpt lat="43.0090164" lon="12.0964902"><ele>355.0</ele><time>2026-05-02T10:39:49Z</time></trkpt><trkpt lat="43.0091325" lon="12.0964492"><ele>357.75</ele><time>2026-05-02T10:39:50Z</time></trkpt><trkpt lat="43.0092544" lon="12.0964118"><ele>360.5</ele><time>2026-05-02T10:39:51Z</time></trkpt><trkpt lat="43.0093657" lon="12.0963633"><ele>363.25</ele><time>2026-05-02T10:39:52Z</time></trkpt><trkpt lat="43.0094667" lon="12.0962992"><ele>366.0</ele><time>2026-05-02T10:39:53Z</time></trkpt><trkpt lat="43.0095594" lon="12.0961905"><ele>366.0</ele><time>2026-05-02T10:39:54Z</time></trkpt><trkpt lat="43.009624" lon="12.0960501"><ele>366.0</ele><time>2026-05-02T10:39:55Z</time></trkpt><trkpt lat="43.0096442" lon="12.0959009"><ele>366.0</ele><time>2026-05-02T10:39:56Z</time></trkpt><trkpt lat="43.0096872" lon="12.0957946"><ele>366.0</ele><time>2026-05-02T10:39:57Z</time></trkpt><trkpt lat="43.0097344" lon="12.095698"><ele>366.0</ele><time>2026-05-02T10:39:58Z</time></trkpt><trkpt lat="43.0098127" lon="12.0956942"><ele>366.20000000000005</ele><time>2026-05-02T10:39:59Z</time></trkpt><trkpt lat="43.0098996" lon="12.0957183"><ele>366.40000000000003</ele><time>2026-05-02T10:40:00Z</time></trkpt><trkpt lat="43.0099914" lon="12.0957512"><ele>366.6</ele><time>2026-05-02T10:40:01Z</time></trkpt><trkpt lat="43.0100904" lon="12.0957572"><ele>366.8</ele><time>2026-05-02T10:40:02Z</time></trkpt><trkpt lat="43.0101958" lon="12.0957389"><ele>367.0</ele><time>2026-05-02T10:40:03Z</time></trkpt><trkpt lat="43.0103026" lon="12.0957053"><ele>367.0</ele><time>2026-05-02T10:40:04Z</time></trkpt><trkpt lat="43.0104161" lon="12.0956779"><ele>367.0</ele><time>2026-05-02T10:40:05Z</time></trkpt><trkpt lat="43.0105349" lon="12.0956735"><ele>367.0</ele><time>2026-05-02T10:40:05.999Z</time></trkpt><trkpt lat="43.0106604" lon="12.095703"><ele>367.0</ele><time>2026-05-02T10:40:07Z</time></trkpt><trkpt lat="43.0107799" lon="12.0957659"><ele>369.0</ele><time>2026-05-02T10:40:08Z</time></trkpt><trkpt lat="43.0108859" lon="12.0958391"><ele>371.0</ele><time>2026-05-02T10:40:09Z</time></trkpt><trkpt lat="43.0109917" lon="12.095881"><ele>373.0</ele><time>2026-05-02T10:40:10Z</time></trkpt><trkpt lat="43.0111002" lon="12.09588"><ele>375.0</ele><time>2026-05-02T10:40:11Z</time></trkpt><trkpt lat="43.0112067" lon="12.0958316"><ele>378.5</ele><time>2026-05-02T10:40:12Z</time></trkpt><trkpt lat="43.011306" lon="12.0957424"><ele>382.0</ele><time>2026-05-02T10:40:13Z</time></trkpt><trkpt lat="43.0114024" lon="12.0956505"><ele>385.5</ele><time>2026-05-02T10:40:14Z</time></trkpt><trkpt lat="43.0115161" lon="12.0955779"><ele>389.0</ele><time>2026-05-02T10:40:15Z</time></trkpt><trkpt lat="43.0116382" lon="12.0955332"><ele>390.25</ele><time>2026-05-02T10:40:16Z</time></trkpt><trkpt lat="43.0117664" lon="12.0954882"><ele>391.5</ele><time>2026-05-02T10:40:17Z</time></trkpt><trkpt lat="43.0118885" lon="12.0954306"><ele>392.75</ele><time>2026-05-02T10:40:18Z</time></trkpt><trkpt lat="43.0120054" lon="12.095359"><ele>394.0</ele><time>2026-05-02T10:40:19Z</time></trkpt><trkpt lat="43.0121114" lon="12.095256"><ele>394.0</ele><time>2026-05-02T10:40:20Z</time></trkpt><trkpt lat="43.0122215" lon="12.0951362"><ele>394.0</ele><time>2026-05-02T10:40:21Z</time></trkpt><trkpt lat="43.0122865" lon="12.094989"><ele>394.0</ele><time>2026-05-02T10:40:22Z</time></trkpt><trkpt lat="43.0123445" lon="12.0948442"><ele>394.0</ele><time>2026-05-02T10:40:23Z</time></trkpt><trkpt lat="43.0123397" lon="12.0946677"><ele>398.75</ele><time>2026-05-02T10:40:24Z</time></trkpt><trkpt lat="43.0123526" lon="12.0945005"><ele>403.5</ele><time>2026-05-02T10:40:25Z</time></trkpt><trkpt lat="43.0123826" lon="12.0943178"><ele>408.25</ele><time>2026-05-02T10:40:26Z</time></trkpt><trkpt lat="43.0124269" lon="12.0941276"><ele>413.0</ele><time>2026-05-02T10:40:27Z</time></trkpt><trkpt lat="43.012477" lon="12.0939546"><ele>410.25</ele><time>2026-05-02T10:40:28Z</time></trkpt><trkpt lat="43.012538" lon="12.0937999"><ele>407.5</ele><time>2026-05-02T10:40:29Z</time></trkpt><trkpt lat="43.0126063" lon="12.0936804"><ele>404.75</ele><time>2026-05-02T10:40:29.999Z</time></trkpt><trkpt lat="43.0126839" lon="12.0935723"><ele>402.0</ele><time>2026-05-02T10:40:30.999Z</time></trkpt><trkpt lat="43.0127993" lon="12.0934774"><ele>402.0</ele><time>2026-05-02T10:40:31.996Z</time></trkpt><trkpt lat="43.0128991" lon="12.0933953"><ele>402.0</ele><time>2026-05-02T10:40:33Z</time></trkpt><trkpt lat="43.0130029" lon="12.0933046"><ele>402.0</ele><time>2026-05-02T10:40:34Z</time></trkpt><trkpt lat="43.0131035" lon="12.093241"><ele>402.0</ele><time>2026-05-02T10:40:34.999Z</time></trkpt><trkpt lat="43.0131955" lon="12.093208"><ele>402.0</ele><time>2026-05-02T10:40:36Z</time></trkpt><trkpt lat="43.0132913" lon="12.093238"><ele>402.0</ele><time>2026-05-02T10:40:36.999Z</time></trkpt><trkpt lat="43.0133539" lon="12.0932935"><ele>402.0</ele><time>2026-05-02T10:40:38Z</time></trkpt><trkpt lat="43.0133684" lon="12.0933949"><ele>402.0</ele><time>2026-05-02T10:40:39Z</time></trkpt><trkpt lat="43.0133583" lon="12.0935153"><ele>402.0</ele><time>2026-05-02T10:40:40Z</time></trkpt><trkpt lat="43.0133208" lon="12.0936309"><ele>402.0</ele><time>2026-05-02T10:40:40.999Z</time></trkpt><trkpt lat="43.0132878" lon="12.093752"><ele>402.0</ele><time>2026-05-02T10:40:41.999Z</time></trkpt><trkpt lat="43.0132701" lon="12.0938813"><ele>402.0</ele><time>2026-05-02T10:40:43Z</time></trkpt><trkpt lat="43.0132791" lon="12.0940121"><ele>402.0</ele><time>2026-05-02T10:40:44Z</time></trkpt><trkpt lat="43.0133237" lon="12.0941171"><ele>402.0</ele><time>2026-05-02T10:40:45Z</time></trkpt><trkpt lat="43.0134001" lon="12.0941798"><ele>402.0</ele><time>2026-05-02T10:40:46Z</time></trkpt><trkpt lat="43.0134929" lon="12.0941987"><ele>402.0</ele><time>2026-05-02T10:40:47Z</time></trkpt><trkpt lat="43.0135952" lon="12.094166"><ele>399.8</ele><time>2026-05-02T10:40:48Z</time></trkpt><trkpt lat="43.0137047" lon="12.0941082"><ele>397.6</ele><time>2026-05-02T10:40:49Z</time></trkpt><trkpt lat="43.0138045" lon="12.0940734"><ele>395.40000000000003</ele><time>2026-05-02T10:40:49.999Z</time></trkpt><trkpt lat="43.0138982" lon="12.0940913"><ele>393.20000000000005</ele><time>2026-05-02T10:40:51Z</time></trkpt><trkpt lat="43.0139692" lon="12.0941999"><ele>391.0</ele><time>2026-05-02T10:40:52Z</time></trkpt><trkpt lat="43.014024" lon="12.0943378"><ele>391.5</ele><time>2026-05-02T10:40:53Z</time></trkpt><trkpt lat="43.0140694" lon="12.094461"><ele>392.0</ele><time>2026-05-02T10:40:54Z</time></trkpt><trkpt lat="43.01415" lon="12.0945419"><ele>392.5</ele><time>2026-05-02T10:40:54.999Z</time></trkpt><trkpt lat="43.0142593" lon="12.094614"><ele>393.0</ele><time>2026-05-02T10:40:55.999Z</time></trkpt><trkpt lat="43.0143807" lon="12.0946832"><ele>393.0</ele><time>2026-05-02T10:40:57Z</time></trkpt><trkpt lat="43.0145024" lon="12.0947681"><ele>393.0</ele><time>2026-05-02T10:40:58Z</time></trkpt><trkpt lat="43.0146136" lon="12.0948473"><ele>393.0</ele><time>2026-05-02T10:40:59Z</time></trkpt><trkpt lat="43.0147295" lon="12.0949335"><ele>393.0</ele><time>2026-05-02T10:41:00Z</time></trkpt><trkpt lat="43.014847" lon="12.0950001"><ele>391.0</ele><time>2026-05-02T10:41:01Z</time></trkpt><trkpt lat="43.0149693" lon="12.095049"><ele>389.0</ele><time>2026-05-02T10:41:02Z</time></trkpt><trkpt lat="43.0150858" lon="12.0950691"><ele>387.0</ele><time>2026-05-02T10:41:03Z</time></trkpt><trkpt lat="43.0151847" lon="12.0950794"><ele>385.0</ele><time>2026-05-02T10:41:04Z</time></trkpt><trkpt lat="43.0152773" lon="12.0951317"><ele>383.0</ele><time>2026-05-02T10:41:05Z</time></trkpt><trkpt lat="43.0153475" lon="12.0952281"><ele>383.0</ele><time>2026-05-02T10:41:06Z</time></trkpt><trkpt lat="43.015385" lon="12.0953648"><ele>383.0</ele><time>2026-05-02T10:41:07Z</time></trkpt><trkpt lat="43.0154092" lon="12.0955306"><ele>383.0</ele><time>2026-05-02T10:41:08Z</time></trkpt><trkpt lat="43.0154468" lon="12.0956684"><ele>383.0</ele><time>2026-05-02T10:41:09Z</time></trkpt><trkpt lat="43.0155216" lon="12.0957903"><ele>382.5</ele><time>2026-05-02T10:41:10Z</time></trkpt><trkpt lat="43.0156324" lon="12.0958865"><ele>382.0</ele><time>2026-05-02T10:41:11Z</time></trkpt><trkpt lat="43.0157509" lon="12.0959717"><ele>381.5</ele><time>2026-05-02T10:41:12Z</time></trkpt><trkpt lat="43.0158661" lon="12.0960456"><ele>381.0</ele><time>2026-05-02T10:41:13Z</time></trkpt><trkpt lat="43.0159698" lon="12.0961134"><ele>381.0</ele><time>2026-05-02T10:41:13.999Z</time></trkpt><trkpt lat="43.0160863" lon="12.0961614"><ele>381.0</ele><time>2026-05-02T10:41:15Z</time></trkpt><trkpt lat="43.0162193" lon="12.0961747"><ele>381.0</ele><time>2026-05-02T10:41:16Z</time></trkpt><trkpt lat="43.0163687" lon="12.0961816"><ele>381.0</ele><time>2026-05-02T10:41:17Z</time></trkpt><trkpt lat="43.0165272" lon="12.0962244"><ele>383.33333333333337</ele><time>2026-05-02T10:41:18Z</time></trkpt><trkpt lat="43.0166861" lon="12.0962638"><ele>385.6666666666667</ele><time>2026-05-02T10:41:19Z</time></trkpt><trkpt lat="43.0168435" lon="12.0962806"><ele>388.0</ele><time>2026-05-02T10:41:20Z</time></trkpt><trkpt lat="43.0169728" lon="12.0962452"><ele>388.0</ele><time>2026-05-02T10:41:21Z</time></trkpt><trkpt lat="43.017113" lon="12.0962191"><ele>388.0</ele><time>2026-05-02T10:41:21.999Z</time></trkpt><trkpt lat="43.0172522" lon="12.096221"><ele>388.0</ele><time>2026-05-02T10:41:22.999Z</time></trkpt><trkpt lat="43.0173736" lon="12.0961754"><ele>388.0</ele><time>2026-05-02T10:41:24Z</time></trkpt><trkpt lat="43.0174672" lon="12.0961189"><ele>388.1666666666667</ele><time>2026-05-02T10:41:25Z</time></trkpt><trkpt lat="43.0175469" lon="12.0960595"><ele>388.33333333333337</ele><time>2026-05-02T10:41:26Z</time></trkpt><trkpt lat="43.0176092" lon="12.0960309"><ele>388.5</ele><time>2026-05-02T10:41:27Z</time></trkpt><trkpt lat="43.0176867" lon="12.0960032"><ele>388.66666666666663</ele><time>2026-05-02T10:41:29Z</time></trkpt><trkpt lat="43.017732" lon="12.0959372"><ele>388.8333333333333</ele><time>2026-05-02T10:41:31Z</time></trkpt><trkpt lat="43.0176343" lon="12.0959702"><ele>389.0</ele><time>2026-05-02T10:41:43Z</time></trkpt><trkpt lat="43.017541" lon="12.0960451"><ele>388.79999999999995</ele><time>2026-05-02T10:41:44.999Z</time></trkpt><trkpt lat="43.017485" lon="12.0961505"><ele>388.59999999999997</ele><time>2026-05-02T10:41:47Z</time></trkpt><trkpt lat="43.0174588" lon="12.0962541"><ele>388.4</ele><time>2026-05-02T10:41:48.999Z</time></trkpt><trkpt lat="43.0174151" lon="12.0963855"><ele>388.2</ele><time>2026-05-02T10:41:51Z</time></trkpt><trkpt lat="43.0173324" lon="12.0964838"><ele>388.0</ele><time>2026-05-02T10:41:53Z</time></trkpt><trkpt lat="43.017203" lon="12.0965505"><ele>388.00000000000006</ele><time>2026-05-02T10:41:55Z</time></trkpt><trkpt lat="43.0171166" lon="12.0965744"><ele>388.0</ele><time>2026-05-02T10:41:56Z</time></trkpt><trkpt lat="43.0170305" lon="12.0965892"><ele>388.0</ele><time>2026-05-02T10:41:57Z</time></trkpt><trkpt lat="43.0169556" lon="12.0966025"><ele>388.0</ele><time>2026-05-02T10:41:58Z</time></trkpt><trkpt lat="43.0168879" lon="12.0966086"><ele>388.00000000000006</ele><time>2026-05-02T10:41:59Z</time></trkpt><trkpt lat="43.0168133" lon="12.096688"><ele>388.0</ele><time>2026-05-02T10:42:01Z</time></trkpt><trkpt lat="43.01679" lon="12.0968642"><ele>385.1666666666667</ele><time>2026-05-02T10:42:02.999Z</time></trkpt><trkpt lat="43.0167946" lon="12.0969578"><ele>382.33333333333337</ele><time>2026-05-02T10:42:04Z</time></trkpt><trkpt lat="43.0167989" lon="12.0970485"><ele>379.5</ele><time>2026-05-02T10:42:05Z</time></trkpt><trkpt lat="43.0168668" lon="12.0971961"><ele>376.6666666666667</ele><time>2026-05-02T10:42:07Z</time></trkpt><trkpt lat="43.0169185" lon="12.0973064"><ele>373.83333333333337</ele><time>2026-05-02T10:42:09Z</time></trkpt><trkpt lat="43.0169558" lon="12.097385"><ele>371.0</ele><time>2026-05-02T10:42:11Z</time></trkpt><trkpt lat="43.0169937" lon="12.0974882"><ele>368.4</ele><time>2026-05-02T10:42:13Z</time></trkpt><trkpt lat="43.0170223" lon="12.0976104"><ele>365.8</ele><time>2026-05-02T10:42:15Z</time></trkpt><trkpt lat="43.0170353" lon="12.0977384"><ele>363.2</ele><time>2026-05-02T10:42:17Z</time></trkpt><trkpt lat="43.0170584" lon="12.0978618"><ele>360.59999999999997</ele><time>2026-05-02T10:42:19Z</time></trkpt><trkpt lat="43.0170893" lon="12.0979888"><ele>358.0</ele><time>2026-05-02T10:42:21Z</time></trkpt><trkpt lat="43.0171157" lon="12.0981173"><ele>358.0</ele><time>2026-05-02T10:42:23Z</time></trkpt><trkpt lat="43.0171437" lon="12.098229"><ele>358.0</ele><time>2026-05-02T10:42:25Z</time></trkpt><trkpt lat="43.0171626" lon="12.0983354"><ele>358.0</ele><time>2026-05-02T10:42:28Z</time></trkpt><trkpt lat="43.0171748" lon="12.098425"><ele>358.0</ele><time>2026-05-02T10:42:57Z</time></trkpt><trkpt lat="43.0171578" lon="12.0985311"><ele>358.0</ele><time>2026-05-02T10:43:52Z</time></trkpt><trkpt lat="43.0171375" lon="12.0986527"><ele>358.0</ele><time>2026-05-02T10:43:55Z</time></trkpt><trkpt lat="43.0171262" lon="12.0987553"><ele>356.5</ele><time>2026-05-02T10:43:58Z</time></trkpt><trkpt lat="43.017105" lon="12.0988441"><ele>355.0</ele><time>2026-05-02T10:44:02Z</time></trkpt><trkpt lat="43.0170798" lon="12.0989677"><ele>353.5</ele><time>2026-05-02T10:44:05Z</time></trkpt><trkpt lat="43.0170742" lon="12.0990561"><ele>352.0</ele><time>2026-05-02T10:44:08Z</time></trkpt><trkpt lat="43.0170642" lon="12.0991883"><ele>350.5</ele><time>2026-05-02T10:44:11Z</time></trkpt><trkpt lat="43.0170193" lon="12.0992701"><ele>349.0</ele><time>2026-05-02T10:44:12.999Z</time></trkpt><trkpt lat="43.016975" lon="12.0993673"><ele>347.66666666666663</ele><time>2026-05-02T10:44:14.999Z</time></trkpt><trkpt lat="43.0169344" lon="12.0994565"><ele>346.3333333333333</ele><time>2026-05-02T10:44:17Z</time></trkpt><trkpt lat="43.0168659" lon="12.0995469"><ele>345.0</ele><time>2026-05-02T10:44:19Z</time></trkpt><trkpt lat="43.0168151" lon="12.0996375"><ele>343.6666666666667</ele><time>2026-05-02T10:44:21Z</time></trkpt><trkpt lat="43.0167351" lon="12.0996949"><ele>342.33333333333337</ele><time>2026-05-02T10:44:24Z</time></trkpt><trkpt lat="43.0167101" lon="12.0997871"><ele>341.0</ele><time>2026-05-02T10:44:26Z</time></trkpt><trkpt lat="43.0166501" lon="12.0999084"><ele>337.0</ele><time>2026-05-02T10:44:28Z</time></trkpt><trkpt lat="43.016578" lon="12.1000273"><ele>333.0</ele><time>2026-05-02T10:44:30Z</time></trkpt><trkpt lat="43.0165062" lon="12.1001249"><ele>329.0</ele><time>2026-05-02T10:44:32Z</time></trkpt><trkpt lat="43.016427" lon="12.1002232"><ele>325.0</ele><time>2026-05-02T10:44:34Z</time></trkpt><trkpt lat="43.0163613" lon="12.1003056"><ele>321.0</ele><time>2026-05-02T10:44:36Z</time></trkpt><trkpt lat="43.0163207" lon="12.1003914"><ele>321.0</ele><time>2026-05-02T10:44:38Z</time></trkpt><trkpt lat="43.0162982" lon="12.1004994"><ele>321.0</ele><time>2026-05-02T10:44:40Z</time></trkpt><trkpt lat="43.0162798" lon="12.1006353"><ele>321.0</ele><time>2026-05-02T10:44:42Z</time></trkpt><trkpt lat="43.0162473" lon="12.1007756"><ele>321.0</ele><time>2026-05-02T10:44:43.999Z</time></trkpt><trkpt lat="43.0162374" lon="12.1008878"><ele>321.0</ele><time>2026-05-02T10:44:46Z</time></trkpt><trkpt lat="43.0162335" lon="12.1010108"><ele>321.4</ele><time>2026-05-02T10:44:48Z</time></trkpt><trkpt lat="43.0162456" lon="12.1011811"><ele>321.8</ele><time>2026-05-02T10:44:50Z</time></trkpt><trkpt lat="43.0162678" lon="12.1012788"><ele>322.2</ele><time>2026-05-02T10:44:50.999Z</time></trkpt><trkpt lat="43.0163086" lon="12.1014245"><ele>322.59999999999997</ele><time>2026-05-02T10:44:52.999Z</time></trkpt><trkpt lat="43.0163696" lon="12.1015523"><ele>323.0</ele><time>2026-05-02T10:44:55Z</time></trkpt><trkpt lat="43.0164288" lon="12.1016678"><ele>323.33333333333337</ele><time>2026-05-02T10:44:56.999Z</time></trkpt><trkpt lat="43.016498" lon="12.1017751"><ele>323.6666666666667</ele><time>2026-05-02T10:44:59Z</time></trkpt><trkpt lat="43.0165461" lon="12.1018682"><ele>324.0</ele><time>2026-05-02T10:45:00.999Z</time></trkpt><trkpt lat="43.0166049" lon="12.1019293"><ele>324.3333333333333</ele><time>2026-05-02T10:45:04Z</time></trkpt><trkpt lat="43.0166631" lon="12.1020231"><ele>324.66666666666663</ele><time>2026-05-02T10:45:07Z</time></trkpt><trkpt lat="43.016723" lon="12.1021083"><ele>325.0</ele><time>2026-05-02T10:45:09Z</time></trkpt><trkpt lat="43.0167726" lon="12.1021868"><ele>326.3333333333333</ele><time>2026-05-02T10:45:09.999Z</time></trkpt><trkpt lat="43.0168215" lon="12.1022576"><ele>327.66666666666663</ele><time>2026-05-02T10:45:11Z</time></trkpt><trkpt lat="43.0168822" lon="12.1023848"><ele>329.0</ele><time>2026-05-02T10:45:13Z</time></trkpt><trkpt lat="43.016924" lon="12.1024893"><ele>330.3333333333333</ele><time>2026-05-02T10:45:15Z</time></trkpt><trkpt lat="43.0169649" lon="12.1025952"><ele>331.6666666666667</ele><time>2026-05-02T10:45:18Z</time></trkpt><trkpt lat="43.0170286" lon="12.1026102"><ele>333.0</ele><time>2026-05-02T10:45:21Z</time></trkpt><trkpt lat="43.0171003" lon="12.102654"><ele>333.0</ele><time>2026-05-02T10:45:22.999Z</time></trkpt><trkpt lat="43.0171935" lon="12.1026953"><ele>333.0</ele><time>2026-05-02T10:45:25Z</time></trkpt><trkpt lat="43.0172593" lon="12.1027966"><ele>333.0</ele><time>2026-05-02T10:45:27Z</time></trkpt><trkpt lat="43.0172989" lon="12.1029697"><ele>333.0</ele><time>2026-05-02T10:45:29Z</time></trkpt><trkpt lat="43.0173265" lon="12.1030702"><ele>333.0</ele><time>2026-05-02T10:45:30Z</time></trkpt><trkpt lat="43.017355" lon="12.1031837"><ele>331.0</ele><time>2026-05-02T10:45:31Z</time></trkpt><trkpt lat="43.0173795" lon="12.1032786"><ele>329.0</ele><time>2026-05-02T10:45:32Z</time></trkpt><trkpt lat="43.0174053" lon="12.1033724"><ele>327.0</ele><time>2026-05-02T10:45:33Z</time></trkpt><trkpt lat="43.0174351" lon="12.1034606"><ele>325.0</ele><time>2026-05-02T10:45:34Z</time></trkpt><trkpt lat="43.0174853" lon="12.1036062"><ele>323.0</ele><time>2026-05-02T10:45:36Z</time></trkpt><trkpt lat="43.0175254" lon="12.1037406"><ele>321.0</ele><time>2026-05-02T10:45:38Z</time></trkpt><trkpt lat="43.0175532" lon="12.1038545"><ele>321.0</ele><time>2026-05-02T10:45:40Z</time></trkpt><trkpt lat="43.0176062" lon="12.1039989"><ele>321.0</ele><time>2026-05-02T10:45:42Z</time></trkpt><trkpt lat="43.0176499" lon="12.1041413"><ele>321.0</ele><time>2026-05-02T10:45:44Z</time></trkpt><trkpt lat="43.0176758" lon="12.1042647"><ele>321.0</ele><time>2026-05-02T10:45:46Z</time></trkpt><trkpt lat="43.0177339" lon="12.1044128"><ele>321.0</ele><time>2026-05-02T10:45:47.999Z</time></trkpt><trkpt lat="43.0177643" lon="12.1045345"><ele>319.40000000000003</ele><time>2026-05-02T10:45:50Z</time></trkpt><trkpt lat="43.0177692" lon="12.1046252"><ele>317.8</ele><time>2026-05-02T10:45:52Z</time></trkpt><trkpt lat="43.0177903" lon="12.1047272"><ele>316.20000000000005</ele><time>2026-05-02T10:45:53.999Z</time></trkpt><trkpt lat="43.0178029" lon="12.1048538"><ele>314.6</ele><time>2026-05-02T10:45:56Z</time></trkpt><trkpt lat="43.0178025" lon="12.1050139"><ele>313.0</ele><time>2026-05-02T10:45:58Z</time></trkpt><trkpt lat="43.0177992" lon="12.1051599"><ele>310.8</ele><time>2026-05-02T10:45:59.999Z</time></trkpt><trkpt lat="43.017806" lon="12.1053004"><ele>308.6</ele><time>2026-05-02T10:46:02Z</time></trkpt><trkpt lat="43.0177956" lon="12.1054602"><ele>306.4</ele><time>2026-05-02T10:46:03.999Z</time></trkpt><trkpt lat="43.0177551" lon="12.105611"><ele>304.2</ele><time>2026-05-02T10:46:06Z</time></trkpt><trkpt lat="43.0177114" lon="12.1057327"><ele>302.0</ele><time>2026-05-02T10:46:07.999Z</time></trkpt><trkpt lat="43.0176989" lon="12.1058274"><ele>300.6</ele><time>2026-05-02T10:46:10Z</time></trkpt><trkpt lat="43.0177142" lon="12.1059558"><ele>299.2</ele><time>2026-05-02T10:46:12Z</time></trkpt><trkpt lat="43.0177254" lon="12.1060426"><ele>297.8</ele><time>2026-05-02T10:46:13Z</time></trkpt><trkpt lat="43.0177155" lon="12.1062271"><ele>296.4</ele><time>2026-05-02T10:46:14.999Z</time></trkpt><trkpt lat="43.0176894" lon="12.1063394"><ele>295.0</ele><time>2026-05-02T10:46:16Z</time></trkpt><trkpt lat="43.0176559" lon="12.1064579"><ele>295.0</ele><time>2026-05-02T10:46:16.999Z</time></trkpt><trkpt lat="43.0176254" lon="12.1065558"><ele>295.0</ele><time>2026-05-02T10:46:18Z</time></trkpt><trkpt lat="43.0175957" lon="12.1066417"><ele>295.0</ele><time>2026-05-02T10:46:19Z</time></trkpt><trkpt lat="43.0175617" lon="12.1067303"><ele>295.0</ele><time>2026-05-02T10:46:19.999Z</time></trkpt><trkpt lat="43.017532" lon="12.1068433"><ele>295.0</ele><time>2026-05-02T10:46:21.999Z</time></trkpt><trkpt lat="43.0175909" lon="12.1069145"><ele>295.0</ele><time>2026-05-02T10:46:25Z</time></trkpt><trkpt lat="43.0177182" lon="12.1069473"><ele>293.8333333333333</ele><time>2026-05-02T10:46:27Z</time></trkpt><trkpt lat="43.01779" lon="12.1069633"><ele>292.66666666666663</ele><time>2026-05-02T10:46:27.999Z</time></trkpt><trkpt lat="43.0178811" lon="12.106974"><ele>291.5</ele><time>2026-05-02T10:46:29Z</time></trkpt><trkpt lat="43.0179808" lon="12.1069806"><ele>290.3333333333333</ele><time>2026-05-02T10:46:30Z</time></trkpt><trkpt lat="43.0180727" lon="12.1069972"><ele>289.1666666666667</ele><time>2026-05-02T10:46:31Z</time></trkpt><trkpt lat="43.0181537" lon="12.1070162"><ele>288.0</ele><time>2026-05-02T10:46:32Z</time></trkpt><trkpt lat="43.0182211" lon="12.1070521"><ele>288.0</ele><time>2026-05-02T10:46:33Z</time></trkpt><trkpt lat="43.0182765" lon="12.1071149"><ele>288.0</ele><time>2026-05-02T10:46:34Z</time></trkpt><trkpt lat="43.0183207" lon="12.1072001"><ele>288.0</ele><time>2026-05-02T10:46:35Z</time></trkpt><trkpt lat="43.0183625" lon="12.1073031"><ele>288.0</ele><time>2026-05-02T10:46:36Z</time></trkpt><trkpt lat="43.0183954" lon="12.1074338"><ele>288.0</ele><time>2026-05-02T10:46:37Z</time></trkpt><trkpt lat="43.0184278" lon="12.1075814"><ele>288.0</ele><time>2026-05-02T10:46:38Z</time></trkpt><trkpt lat="43.0184656" lon="12.1077253"><ele>288.6666666666667</ele><time>2026-05-02T10:46:39Z</time></trkpt><trkpt lat="43.0185067" lon="12.1078525"><ele>289.3333333333333</ele><time>2026-05-02T10:46:40Z</time></trkpt><trkpt lat="43.0185365" lon="12.1079702"><ele>290.0</ele><time>2026-05-02T10:46:41Z</time></trkpt><trkpt lat="43.0185492" lon="12.1080856"><ele>290.66666666666663</ele><time>2026-05-02T10:46:41.998Z</time></trkpt><trkpt lat="43.0185494" lon="12.1081941"><ele>291.3333333333333</ele><time>2026-05-02T10:46:43Z</time></trkpt><trkpt lat="43.0185267" lon="12.1082944"><ele>292.0</ele><time>2026-05-02T10:46:43.999Z</time></trkpt><trkpt lat="43.0185039" lon="12.1083845"><ele>292.0</ele><time>2026-05-02T10:46:45Z</time></trkpt><trkpt lat="43.0184598" lon="12.108464"><ele>292.0</ele><time>2026-05-02T10:46:46Z</time></trkpt><trkpt lat="43.0183962" lon="12.1085137"><ele>292.0</ele><time>2026-05-02T10:46:47Z</time></trkpt><trkpt lat="43.0183344" lon="12.1085595"><ele>292.0</ele><time>2026-05-02T10:46:48Z</time></trkpt><trkpt lat="43.0182404" lon="12.1086372"><ele>292.0</ele><time>2026-05-02T10:46:49.999Z</time></trkpt><trkpt lat="43.0182138" lon="12.1087451"><ele>292.0</ele><time>2026-05-02T10:46:52Z</time></trkpt><trkpt lat="43.0182468" lon="12.108828"><ele>292.0</ele><time>2026-05-02T10:46:54Z</time></trkpt><trkpt lat="43.0183602" lon="12.1088944"><ele>292.0</ele><time>2026-05-02T10:46:56Z</time></trkpt><trkpt lat="43.0184303" lon="12.1089391"><ele>292.0</ele><time>2026-05-02T10:46:56.999Z</time></trkpt><trkpt lat="43.0185033" lon="12.1089842"><ele>292.0</ele><time>2026-05-02T10:46:58Z</time></trkpt><trkpt lat="43.0185772" lon="12.1090296"><ele>292.0</ele><time>2026-05-02T10:46:59Z</time></trkpt><trkpt lat="43.0186628" lon="12.1090814"><ele>293.66666666666663</ele><time>2026-05-02T10:47:00Z</time></trkpt><trkpt lat="43.0187464" lon="12.1091276"><ele>295.3333333333333</ele><time>2026-05-02T10:47:01Z</time></trkpt><trkpt lat="43.0188329" lon="12.1091846"><ele>297.0</ele><time>2026-05-02T10:47:02Z</time></trkpt><trkpt lat="43.0189046" lon="12.1092411"><ele>298.6666666666667</ele><time>2026-05-02T10:47:03Z</time></trkpt><trkpt lat="43.0189703" lon="12.1093011"><ele>300.33333333333337</ele><time>2026-05-02T10:47:03.999Z</time></trkpt><trkpt lat="43.0190205" lon="12.1093586"><ele>302.0</ele><time>2026-05-02T10:47:05Z</time></trkpt><trkpt lat="43.0191164" lon="12.1094578"><ele>303.4</ele><time>2026-05-02T10:47:07Z</time></trkpt><trkpt lat="43.019196" lon="12.1095395"><ele>304.79999999999995</ele><time>2026-05-02T10:47:09Z</time></trkpt><trkpt lat="43.0192757" lon="12.1095643"><ele>306.2</ele><time>2026-05-02T10:47:11Z</time></trkpt><trkpt lat="43.019338" lon="12.1096139"><ele>307.59999999999997</ele><time>2026-05-02T10:47:13Z</time></trkpt><trkpt lat="43.0194306" lon="12.1096539"><ele>309.0</ele><time>2026-05-02T10:47:15Z</time></trkpt><trkpt lat="43.019532" lon="12.1096658"><ele>309.0</ele><time>2026-05-02T10:47:17Z</time></trkpt><trkpt lat="43.0196034" lon="12.1096676"><ele>309.0</ele><time>2026-05-02T10:47:18Z</time></trkpt><trkpt lat="43.0196721" lon="12.1096592"><ele>309.0</ele><time>2026-05-02T10:47:19Z</time></trkpt><trkpt lat="43.0197519" lon="12.1096572"><ele>309.0</ele><time>2026-05-02T10:47:20Z</time></trkpt><trkpt lat="43.0198362" lon="12.1096684"><ele>309.0</ele><time>2026-05-02T10:47:21Z</time></trkpt><trkpt lat="43.0199163" lon="12.1096859"><ele>309.0</ele><time>2026-05-02T10:47:22Z</time></trkpt><trkpt lat="43.0199985" lon="12.1097084"><ele>311.0</ele><time>2026-05-02T10:47:23Z</time></trkpt><trkpt lat="43.0200759" lon="12.109746"><ele>313.0</ele><time>2026-05-02T10:47:24Z</time></trkpt><trkpt lat="43.0201344" lon="12.1098155"><ele>315.0</ele><time>2026-05-02T10:47:25Z</time></trkpt><trkpt lat="43.020184" lon="12.1098767"><ele>317.0</ele><time>2026-05-02T10:47:26Z</time></trkpt><trkpt lat="43.0202553" lon="12.1100024"><ele>319.0</ele><time>2026-05-02T10:47:27.999Z</time></trkpt><trkpt lat="43.0202985" lon="12.110078"><ele>321.0</ele><time>2026-05-02T10:47:28.999Z</time></trkpt><trkpt lat="43.0203415" lon="12.1101775"><ele>323.0</ele><time>2026-05-02T10:47:31Z</time></trkpt><trkpt lat="43.0203245" lon="12.1103188"><ele>325.0</ele><time>2026-05-02T10:47:34.999Z</time></trkpt><trkpt lat="43.0202733" lon="12.110457"><ele>327.0</ele><time>2026-05-02T10:47:36.999Z</time></trkpt><trkpt lat="43.0202566" lon="12.1106394"><ele>329.0</ele><time>2026-05-02T10:47:39Z</time></trkpt><trkpt lat="43.0202688" lon="12.1107518"><ele>331.0</ele><time>2026-05-02T10:47:40Z</time></trkpt><trkpt lat="43.0203028" lon="12.11086"><ele>332.25</ele><time>2026-05-02T10:47:41Z</time></trkpt><trkpt lat="43.020349" lon="12.1109891"><ele>333.5</ele><time>2026-05-02T10:47:42Z</time></trkpt><trkpt lat="43.0204044" lon="12.1111262"><ele>334.75</ele><time>2026-05-02T10:47:42.999Z</time></trkpt><trkpt lat="43.0204611" lon="12.1112758"><ele>336.0</ele><time>2026-05-02T10:47:43.999Z</time></trkpt><trkpt lat="43.0205205" lon="12.1114462"><ele>335.75</ele><time>2026-05-02T10:47:44.999Z</time></trkpt><trkpt lat="43.0205724" lon="12.1116315"><ele>335.5</ele><time>2026-05-02T10:47:46Z</time></trkpt><trkpt lat="43.0206264" lon="12.1118259"><ele>335.25</ele><time>2026-05-02T10:47:47Z</time></trkpt><trkpt lat="43.0206764" lon="12.1120127"><ele>335.0</ele><time>2026-05-02T10:47:48Z</time></trkpt><trkpt lat="43.0207222" lon="12.1121925"><ele>335.0</ele><time>2026-05-02T10:47:49Z</time></trkpt><trkpt lat="43.0207693" lon="12.1123685"><ele>335.0</ele><time>2026-05-02T10:47:50Z</time></trkpt><trkpt lat="43.0207998" lon="12.1125514"><ele>335.0</ele><time>2026-05-02T10:47:51Z</time></trkpt><trkpt lat="43.0208003" lon="12.1127309"><ele>335.0</ele><time>2026-05-02T10:47:52Z</time></trkpt><trkpt lat="43.020766" lon="12.112905"><ele>335.0</ele><time>2026-05-02T10:47:53Z</time></trkpt><trkpt lat="43.0207087" lon="12.1130819"><ele>335.0</ele><time>2026-05-02T10:47:54Z</time></trkpt><trkpt lat="43.0206232" lon="12.1132341"><ele>335.0</ele><time>2026-05-02T10:47:55Z</time></trkpt><trkpt lat="43.0205197" lon="12.1133948"><ele>335.0</ele><time>2026-05-02T10:47:56Z</time></trkpt><trkpt lat="43.0204017" lon="12.1135387"><ele>333.33333333333337</ele><time>2026-05-02T10:47:57Z</time></trkpt><trkpt lat="43.0202822" lon="12.1136831"><ele>331.6666666666667</ele><time>2026-05-02T10:47:57.999Z</time></trkpt><trkpt lat="43.020163" lon="12.1138411"><ele>330.0</ele><time>2026-05-02T10:47:59Z</time></trkpt><trkpt lat="43.020041" lon="12.1140021"><ele>327.6666666666667</ele><time>2026-05-02T10:48:00Z</time></trkpt><trkpt lat="43.0199132" lon="12.1141702"><ele>325.33333333333337</ele><time>2026-05-02T10:48:00.999Z</time></trkpt><trkpt lat="43.0197694" lon="12.1143337"><ele>323.0</ele><time>2026-05-02T10:48:01.999Z</time></trkpt><trkpt lat="43.0196131" lon="12.1144679"><ele>323.0</ele><time>2026-05-02T10:48:03Z</time></trkpt><trkpt lat="43.0194553" lon="12.114602"><ele>323.0</ele><time>2026-05-02T10:48:04Z</time></trkpt><trkpt lat="43.0193084" lon="12.1147185"><ele>323.0</ele><time>2026-05-02T10:48:05Z</time></trkpt><trkpt lat="43.0191658" lon="12.1148423"><ele>318.0</ele><time>2026-05-02T10:48:06Z</time></trkpt><trkpt lat="43.0190258" lon="12.114962"><ele>313.0</ele><time>2026-05-02T10:48:07Z</time></trkpt><trkpt lat="43.0188783" lon="12.1150629"><ele>308.0</ele><time>2026-05-02T10:48:07.999Z</time></trkpt><trkpt lat="43.0187137" lon="12.1151383"><ele>308.0</ele><time>2026-05-02T10:48:09Z</time></trkpt><trkpt lat="43.0185398" lon="12.1151806"><ele>308.0</ele><time>2026-05-02T10:48:10Z</time></trkpt><trkpt lat="43.0183598" lon="12.1151884"><ele>308.0</ele><time>2026-05-02T10:48:11Z</time></trkpt><trkpt lat="43.0181778" lon="12.1151613"><ele>307.6666666666667</ele><time>2026-05-02T10:48:12Z</time></trkpt><trkpt lat="43.0179967" lon="12.1151212"><ele>307.3333333333333</ele><time>2026-05-02T10:48:13Z</time></trkpt><trkpt lat="43.0178187" lon="12.11508"><ele>307.0</ele><time>2026-05-02T10:48:14Z</time></trkpt><trkpt lat="43.017627" lon="12.1150715"><ele>305.66666666666663</ele><time>2026-05-02T10:48:14.999Z</time></trkpt><trkpt lat="43.0174281" lon="12.1150882"><ele>304.3333333333333</ele><time>2026-05-02T10:48:16Z</time></trkpt><trkpt lat="43.0172467" lon="12.1151446"><ele>303.0</ele><time>2026-05-02T10:48:17Z</time></trkpt><trkpt lat="43.0170764" lon="12.1151954"><ele>303.0</ele><time>2026-05-02T10:48:18Z</time></trkpt><trkpt lat="43.0169186" lon="12.1152413"><ele>303.0</ele><time>2026-05-02T10:48:19Z</time></trkpt><trkpt lat="43.0167649" lon="12.1152727"><ele>303.0</ele><time>2026-05-02T10:48:20Z</time></trkpt><trkpt lat="43.0166174" lon="12.1152865"><ele>299.6666666666667</ele><time>2026-05-02T10:48:21Z</time></trkpt><trkpt lat="43.0164691" lon="12.1152699"><ele>296.33333333333337</ele><time>2026-05-02T10:48:22Z</time></trkpt><trkpt lat="43.0163117" lon="12.1152022"><ele>293.0</ele><time>2026-05-02T10:48:23Z</time></trkpt><trkpt lat="43.0161618" lon="12.1151107"><ele>293.0</ele><time>2026-05-02T10:48:24Z</time></trkpt><trkpt lat="43.0160056" lon="12.1150128"><ele>293.0</ele><time>2026-05-02T10:48:25Z</time></trkpt><trkpt lat="43.0158516" lon="12.1149262"><ele>293.0</ele><time>2026-05-02T10:48:26Z</time></trkpt><trkpt lat="43.0157069" lon="12.1148602"><ele>290.5</ele><time>2026-05-02T10:48:27Z</time></trkpt><trkpt lat="43.0155735" lon="12.1147952"><ele>288.0</ele><time>2026-05-02T10:48:28Z</time></trkpt><trkpt lat="43.0154479" lon="12.1147321"><ele>285.5</ele><time>2026-05-02T10:48:28.999Z</time></trkpt><trkpt lat="43.0153305" lon="12.114678"><ele>283.0</ele><time>2026-05-02T10:48:29.999Z</time></trkpt><trkpt lat="43.0152308" lon="12.1146198"><ele>283.0</ele><time>2026-05-02T10:48:31Z</time></trkpt><trkpt lat="43.0151404" lon="12.1145762"><ele>283.0</ele><time>2026-05-02T10:48:32Z</time></trkpt><trkpt lat="43.0150601" lon="12.1145518"><ele>283.0</ele><time>2026-05-02T10:48:33Z</time></trkpt><trkpt lat="43.0149759" lon="12.1145677"><ele>283.0</ele><time>2026-05-02T10:48:34Z</time></trkpt><trkpt lat="43.0149125" lon="12.1146175"><ele>283.0</ele><time>2026-05-02T10:48:34.999Z</time></trkpt><trkpt lat="43.0148947" lon="12.1147204"><ele>283.0</ele><time>2026-05-02T10:48:36Z</time></trkpt><trkpt lat="43.0149182" lon="12.1148471"><ele>283.0</ele><time>2026-05-02T10:48:37Z</time></trkpt><trkpt lat="43.0149686" lon="12.1149843"><ele>283.0</ele><time>2026-05-02T10:48:38Z</time></trkpt><trkpt lat="43.0150208" lon="12.1151211"><ele>283.0</ele><time>2026-05-02T10:48:39Z</time></trkpt><trkpt lat="43.0150732" lon="12.1152429"><ele>283.0</ele><time>2026-05-02T10:48:40Z</time></trkpt><trkpt lat="43.015154" lon="12.1153481"><ele>283.0</ele><time>2026-05-02T10:48:41Z</time></trkpt><trkpt lat="43.0152648" lon="12.1154113"><ele>283.0</ele><time>2026-05-02T10:48:42Z</time></trkpt><trkpt lat="43.0153878" lon="12.1154418"><ele>283.0</ele><time>2026-05-02T10:48:43Z</time></trkpt><trkpt lat="43.0154942" lon="12.1154157"><ele>283.0</ele><time>2026-05-02T10:48:44Z</time></trkpt><trkpt lat="43.0155847" lon="12.1154379"><ele>283.0</ele><time>2026-05-02T10:48:45Z</time></trkpt><trkpt lat="43.0156645" lon="12.1154877"><ele>283.0</ele><time>2026-05-02T10:48:46Z</time></trkpt><trkpt lat="43.0157091" lon="12.1155627"><ele>283.0</ele><time>2026-05-02T10:48:47Z</time></trkpt><trkpt lat="43.0156616" lon="12.115673"><ele>283.0</ele><time>2026-05-02T10:48:48Z</time></trkpt><trkpt lat="43.0155939" lon="12.1157445"><ele>283.0</ele><time>2026-05-02T10:48:48.999Z</time></trkpt><trkpt lat="43.0155105" lon="12.1157746"><ele>283.0</ele><time>2026-05-02T10:48:50Z</time></trkpt><trkpt lat="43.0153836" lon="12.1157673"><ele>283.0</ele><time>2026-05-02T10:48:50.999Z</time></trkpt><trkpt lat="43.0152525" lon="12.1157446"><ele>283.0</ele><time>2026-05-02T10:48:52Z</time></trkpt><trkpt lat="43.0151126" lon="12.115732"><ele>283.0</ele><time>2026-05-02T10:48:53Z</time></trkpt><trkpt lat="43.0149823" lon="12.1157098"><ele>283.0</ele><time>2026-05-02T10:48:54Z</time></trkpt><trkpt lat="43.0148572" lon="12.1156921"><ele>283.0</ele><time>2026-05-02T10:48:55Z</time></trkpt><trkpt lat="43.0147421" lon="12.115677"><ele>280.3333333333333</ele><time>2026-05-02T10:48:55.999Z</time></trkpt><trkpt lat="43.0146465" lon="12.1156665"><ele>277.66666666666663</ele><time>2026-05-02T10:48:57Z</time></trkpt><trkpt lat="43.0145646" lon="12.1157126"><ele>275.0</ele><time>2026-05-02T10:48:58Z</time></trkpt><trkpt lat="43.0145169" lon="12.1157953"><ele>272.3333333333333</ele><time>2026-05-02T10:48:59Z</time></trkpt><trkpt lat="43.0145131" lon="12.1159049"><ele>269.6666666666667</ele><time>2026-05-02T10:49:00Z</time></trkpt><trkpt lat="43.0145481" lon="12.1160206"><ele>267.0</ele><time>2026-05-02T10:49:00.996Z</time></trkpt><trkpt lat="43.0146276" lon="12.1161314"><ele>265.75</ele><time>2026-05-02T10:49:02Z</time></trkpt><trkpt lat="43.0147361" lon="12.1162208"><ele>264.5</ele><time>2026-05-02T10:49:03Z</time></trkpt><trkpt lat="43.0148699" lon="12.1163145"><ele>263.25</ele><time>2026-05-02T10:49:04Z</time></trkpt><trkpt lat="43.0150102" lon="12.1164247"><ele>262.0</ele><time>2026-05-02T10:49:05Z</time></trkpt><trkpt lat="43.015154" lon="12.1165432"><ele>263.66666666666663</ele><time>2026-05-02T10:49:06Z</time></trkpt><trkpt lat="43.0153061" lon="12.1166802"><ele>265.3333333333333</ele><time>2026-05-02T10:49:07Z</time></trkpt><trkpt lat="43.0154547" lon="12.1168321"><ele>267.0</ele><time>2026-05-02T10:49:08Z</time></trkpt><trkpt lat="43.0155963" lon="12.1169984"><ele>267.0</ele><time>2026-05-02T10:49:09Z</time></trkpt><trkpt lat="43.0157235" lon="12.1171625"><ele>267.0</ele><time>2026-05-02T10:49:10Z</time></trkpt><trkpt lat="43.0158474" lon="12.1173202"><ele>267.0</ele><time>2026-05-02T10:49:11Z</time></trkpt><trkpt lat="43.0159759" lon="12.1174767"><ele>265.3333333333333</ele><time>2026-05-02T10:49:11.998Z</time></trkpt><trkpt lat="43.0160961" lon="12.1176238"><ele>263.66666666666663</ele><time>2026-05-02T10:49:12.999Z</time></trkpt><trkpt lat="43.0162083" lon="12.1177632"><ele>262.0</ele><time>2026-05-02T10:49:13.999Z</time></trkpt><trkpt lat="43.0162868" lon="12.1179286"><ele>262.0</ele><time>2026-05-02T10:49:15Z</time></trkpt><trkpt lat="43.0163391" lon="12.1181069"><ele>262.0</ele><time>2026-05-02T10:49:16Z</time></trkpt><trkpt lat="43.0163685" lon="12.1182869"><ele>262.0</ele><time>2026-05-02T10:49:16.999Z</time></trkpt><trkpt lat="43.0163801" lon="12.118465"><ele>262.0</ele><time>2026-05-02T10:49:18Z</time></trkpt><trkpt lat="43.0163595" lon="12.1186344"><ele>262.8</ele><time>2026-05-02T10:49:18.999Z</time></trkpt><trkpt lat="43.016317" lon="12.1187852"><ele>263.6</ele><time>2026-05-02T10:49:20Z</time></trkpt><trkpt lat="43.0162675" lon="12.1189045"><ele>264.40000000000003</ele><time>2026-05-02T10:49:21Z</time></trkpt><trkpt lat="43.016195" lon="12.1189835"><ele>265.2</ele><time>2026-05-02T10:49:22Z</time></trkpt><trkpt lat="43.0161221" lon="12.1190002"><ele>266.0</ele><time>2026-05-02T10:49:23Z</time></trkpt><trkpt lat="43.0160392" lon="12.1190874"><ele>266.0</ele><time>2026-05-02T10:49:25Z</time></trkpt><trkpt lat="43.0160553" lon="12.1191849"><ele>266.0</ele><time>2026-05-02T10:49:27Z</time></trkpt><trkpt lat="43.0161227" lon="12.1193064"><ele>266.0</ele><time>2026-05-02T10:49:28.999Z</time></trkpt><trkpt lat="43.0161732" lon="12.1193687"><ele>266.0</ele><time>2026-05-02T10:49:30Z</time></trkpt><trkpt lat="43.0162328" lon="12.1194024"><ele>266.0</ele><time>2026-05-02T10:49:31Z</time></trkpt><trkpt lat="43.0162989" lon="12.1194301"><ele>266.0</ele><time>2026-05-02T10:49:31.999Z</time></trkpt><trkpt lat="43.0163732" lon="12.1194488"><ele>266.0</ele><time>2026-05-02T10:49:33Z</time></trkpt><trkpt lat="43.0164469" lon="12.1194664"><ele>266.0</ele><time>2026-05-02T10:49:33.999Z</time></trkpt><trkpt lat="43.0165278" lon="12.1194809"><ele>266.0</ele><time>2026-05-02T10:49:35Z</time></trkpt><trkpt lat="43.0166027" lon="12.1194981"><ele>266.0</ele><time>2026-05-02T10:49:36Z</time></trkpt><trkpt lat="43.0166715" lon="12.119513"><ele>266.0</ele><time>2026-05-02T10:49:37Z</time></trkpt><trkpt lat="43.0167371" lon="12.1195493"><ele>266.0</ele><time>2026-05-02T10:49:38Z</time></trkpt><trkpt lat="43.0168096" lon="12.1196145"><ele>264.8</ele><time>2026-05-02T10:49:38.999Z</time></trkpt><trkpt lat="43.0168752" lon="12.1197289"><ele>263.6</ele><time>2026-05-02T10:49:40Z</time></trkpt><trkpt lat="43.0169513" lon="12.1198325"><ele>262.4</ele><time>2026-05-02T10:49:41Z</time></trkpt><trkpt lat="43.0170248" lon="12.1199312"><ele>261.2</ele><time>2026-05-02T10:49:42Z</time></trkpt><trkpt lat="43.0170819" lon="12.1200126"><ele>260.0</ele><time>2026-05-02T10:49:43Z</time></trkpt><trkpt lat="43.0171373" lon="12.1200759"><ele>262.83333333333337</ele><time>2026-05-02T10:49:44Z</time></trkpt><trkpt lat="43.017203" lon="12.1201237"><ele>265.6666666666667</ele><time>2026-05-02T10:49:45Z</time></trkpt><trkpt lat="43.017254" lon="12.1201871"><ele>268.5</ele><time>2026-05-02T10:49:47Z</time></trkpt><trkpt lat="43.0173147" lon="12.1202758"><ele>271.3333333333333</ele><time>2026-05-02T10:50:03Z</time></trkpt><trkpt lat="43.0173238" lon="12.1203675"><ele>274.16666666666663</ele><time>2026-05-02T10:50:03.999Z</time></trkpt><trkpt lat="43.0173762" lon="12.1204893"><ele>277.0</ele><time>2026-05-02T10:50:06Z</time></trkpt><trkpt lat="43.0174375" lon="12.1204492"><ele>277.0</ele><time>2026-05-02T10:50:08Z</time></trkpt><trkpt lat="43.0174584" lon="12.1203591"><ele>277.0</ele><time>2026-05-02T10:50:09Z</time></trkpt><trkpt lat="43.0174898" lon="12.1202667"><ele>277.0</ele><time>2026-05-02T10:50:09.999Z</time></trkpt><trkpt lat="43.0175375" lon="12.1201998"><ele>277.0</ele><time>2026-05-02T10:50:11Z</time></trkpt><trkpt lat="43.017593" lon="12.1201318"><ele>277.0</ele><time>2026-05-02T10:50:12Z</time></trkpt><trkpt lat="43.0176641" lon="12.1200664"><ele>277.0</ele><time>2026-05-02T10:50:13Z</time></trkpt><trkpt lat="43.0177522" lon="12.1200355"><ele>275.5</ele><time>2026-05-02T10:50:14Z</time></trkpt><trkpt lat="43.0178292" lon="12.1199995"><ele>274.0</ele><time>2026-05-02T10:50:15Z</time></trkpt><trkpt lat="43.0179153" lon="12.1199771"><ele>272.5</ele><time>2026-05-02T10:50:15.999Z</time></trkpt><trkpt lat="43.0179907" lon="12.1199758"><ele>271.0</ele><time>2026-05-02T10:50:17Z</time></trkpt><trkpt lat="43.0180561" lon="12.1200089"><ele>269.5</ele><time>2026-05-02T10:50:18Z</time></trkpt><trkpt lat="43.0181314" lon="12.1201421"><ele>268.0</ele><time>2026-05-02T10:50:20Z</time></trkpt><trkpt lat="43.0181668" lon="12.1203217"><ele>268.0</ele><time>2026-05-02T10:50:22Z</time></trkpt><trkpt lat="43.018176" lon="12.1204235"><ele>268.0</ele><time>2026-05-02T10:50:23Z</time></trkpt><trkpt lat="43.0181958" lon="12.1205368"><ele>268.0</ele><time>2026-05-02T10:50:24Z</time></trkpt><trkpt lat="43.018211" lon="12.1206461"><ele>268.0</ele><time>2026-05-02T10:50:24.999Z</time></trkpt><trkpt lat="43.0182525" lon="12.1207412"><ele>268.0</ele><time>2026-05-02T10:50:26Z</time></trkpt><trkpt lat="43.0182848" lon="12.1208255"><ele>268.0</ele><time>2026-05-02T10:50:27Z</time></trkpt><trkpt lat="43.0183761" lon="12.1209486"><ele>271.8333333333333</ele><time>2026-05-02T10:50:29Z</time></trkpt><trkpt lat="43.0184388" lon="12.1209856"><ele>275.66666666666663</ele><time>2026-05-02T10:50:30Z</time></trkpt><trkpt lat="43.018505" lon="12.1210034"><ele>279.5</ele><time>2026-05-02T10:50:31Z</time></trkpt><trkpt lat="43.018595" lon="12.1210179"><ele>283.3333333333333</ele><time>2026-05-02T10:50:32Z</time></trkpt><trkpt lat="43.0186811" lon="12.121039"><ele>287.1666666666667</ele><time>2026-05-02T10:50:33Z</time></trkpt><trkpt lat="43.0187541" lon="12.1210437"><ele>291.0</ele><time>2026-05-02T10:50:34Z</time></trkpt><trkpt lat="43.0188422" lon="12.1210781"><ele>291.0</ele><time>2026-05-02T10:50:35.999Z</time></trkpt><trkpt lat="43.0188877" lon="12.121166"><ele>291.0</ele><time>2026-05-02T10:50:37.999Z</time></trkpt><trkpt lat="43.0188921" lon="12.1213129"><ele>291.0</ele><time>2026-05-02T10:50:40Z</time></trkpt><trkpt lat="43.0188292" lon="12.1214652"><ele>291.0</ele><time>2026-05-02T10:50:42Z</time></trkpt><trkpt lat="43.0187642" lon="12.1215327"><ele>291.0</ele><time>2026-05-02T10:50:43Z</time></trkpt><trkpt lat="43.0186922" lon="12.1215713"><ele>292.0</ele><time>2026-05-02T10:50:43.999Z</time></trkpt><trkpt lat="43.0186046" lon="12.1216203"><ele>293.0</ele><time>2026-05-02T10:50:45Z</time></trkpt><trkpt lat="43.0185059" lon="12.121632"><ele>294.0</ele><time>2026-05-02T10:50:46Z</time></trkpt><trkpt lat="43.0184199" lon="12.1216606"><ele>295.0</ele><time>2026-05-02T10:50:47Z</time></trkpt><trkpt lat="43.0183411" lon="12.1216956"><ele>296.0</ele><time>2026-05-02T10:50:48Z</time></trkpt><trkpt lat="43.0182847" lon="12.1217549"><ele>297.0</ele><time>2026-05-02T10:50:48.999Z</time></trkpt><trkpt lat="43.0182461" lon="12.1218331"><ele>297.0</ele><time>2026-05-02T10:50:49.999Z</time></trkpt><trkpt lat="43.0182272" lon="12.121922"><ele>297.0</ele><time>2026-05-02T10:50:51Z</time></trkpt><trkpt lat="43.0181553" lon="12.1220182"><ele>297.0</ele><time>2026-05-02T10:50:53Z</time></trkpt><trkpt lat="43.0180354" lon="12.122101"><ele>297.0</ele><time>2026-05-02T10:50:55Z</time></trkpt><trkpt lat="43.0179493" lon="12.1221475"><ele>297.0</ele><time>2026-05-02T10:50:56Z</time></trkpt><trkpt lat="43.0178748" lon="12.1221857"><ele>297.0</ele><time>2026-05-02T10:50:57Z</time></trkpt><trkpt lat="43.0177853" lon="12.1222436"><ele>297.0</ele><time>2026-05-02T10:50:58Z</time></trkpt><trkpt lat="43.0177047" lon="12.1223064"><ele>297.0</ele><time>2026-05-02T10:50:59Z</time></trkpt><trkpt lat="43.0176147" lon="12.122358"><ele>297.0</ele><time>2026-05-02T10:50:59.999Z</time></trkpt><trkpt lat="43.0175194" lon="12.1223943"><ele>297.0</ele><time>2026-05-02T10:51:01Z</time></trkpt><trkpt lat="43.0174471" lon="12.1224087"><ele>299.8333333333333</ele><time>2026-05-02T10:51:02Z</time></trkpt><trkpt lat="43.0173819" lon="12.1224145"><ele>302.6666666666667</ele><time>2026-05-02T10:51:03Z</time></trkpt><trkpt lat="43.0173151" lon="12.1224213"><ele>305.5</ele><time>2026-05-02T10:51:04Z</time></trkpt><trkpt lat="43.0173946" lon="12.1224556"><ele>308.33333333333337</ele><time>2026-05-02T10:51:10.999Z</time></trkpt><trkpt lat="43.0175317" lon="12.1224542"><ele>311.1666666666667</ele><time>2026-05-02T10:51:13Z</time></trkpt><trkpt lat="43.0176217" lon="12.1224417"><ele>314.0</ele><time>2026-05-02T10:51:14Z</time></trkpt><trkpt lat="43.017695" lon="12.1224336"><ele>314.0</ele><time>2026-05-02T10:51:15Z</time></trkpt><trkpt lat="43.0177632" lon="12.122402"><ele>314.0</ele><time>2026-05-02T10:51:16Z</time></trkpt><trkpt lat="43.0178788" lon="12.1223467"><ele>314.0</ele><time>2026-05-02T10:51:18Z</time></trkpt><trkpt lat="43.0180018" lon="12.1223333"><ele>314.0</ele><time>2026-05-02T10:51:19.999Z</time></trkpt><trkpt lat="43.0180851" lon="12.122342"><ele>314.0</ele><time>2026-05-02T10:51:21Z</time></trkpt><trkpt lat="43.0181651" lon="12.1223567"><ele>314.33333333333337</ele><time>2026-05-02T10:51:21.999Z</time></trkpt><trkpt lat="43.0182534" lon="12.1223736"><ele>314.6666666666667</ele><time>2026-05-02T10:51:23Z</time></trkpt><trkpt lat="43.0183369" lon="12.1223969"><ele>315.0</ele><time>2026-05-02T10:51:24Z</time></trkpt><trkpt lat="43.0184349" lon="12.1224482"><ele>315.3333333333333</ele><time>2026-05-02T10:51:24.999Z</time></trkpt><trkpt lat="43.0185162" lon="12.1224969"><ele>315.66666666666663</ele><time>2026-05-02T10:51:26Z</time></trkpt><trkpt lat="43.0185894" lon="12.122536"><ele>316.0</ele><time>2026-05-02T10:51:27Z</time></trkpt><trkpt lat="43.0186578" lon="12.1225759"><ele>316.0</ele><time>2026-05-02T10:51:27.999Z</time></trkpt><trkpt lat="43.0187235" lon="12.1225895"><ele>316.0</ele><time>2026-05-02T10:51:29Z</time></trkpt><trkpt lat="43.0188497" lon="12.1225406"><ele>316.0</ele><time>2026-05-02T10:51:30.999Z</time></trkpt><trkpt lat="43.0188935" lon="12.1224557"><ele>316.0</ele><time>2026-05-02T10:51:32Z</time></trkpt><trkpt lat="43.0189246" lon="12.1223688"><ele>316.0</ele><time>2026-05-02T10:51:32.999Z</time></trkpt><trkpt lat="43.0189541" lon="12.1222875"><ele>316.0</ele><time>2026-05-02T10:51:33.999Z</time></trkpt><trkpt lat="43.0190527" lon="12.1221818"><ele>316.16666666666663</ele><time>2026-05-02T10:51:36Z</time></trkpt><trkpt lat="43.0191605" lon="12.1222327"><ele>316.3333333333333</ele><time>2026-05-02T10:51:38Z</time></trkpt><trkpt lat="43.0192177" lon="12.1222892"><ele>316.5</ele><time>2026-05-02T10:51:38.999Z</time></trkpt><trkpt lat="43.0192741" lon="12.1223588"><ele>316.6666666666667</ele><time>2026-05-02T10:51:40Z</time></trkpt><trkpt lat="43.0193206" lon="12.1224307"><ele>316.83333333333337</ele><time>2026-05-02T10:51:41Z</time></trkpt><trkpt lat="43.0193564" lon="12.1225209"><ele>317.0</ele><time>2026-05-02T10:51:42Z</time></trkpt><trkpt lat="43.0193795" lon="12.1226211"><ele>317.0</ele><time>2026-05-02T10:51:43Z</time></trkpt><trkpt lat="43.0193981" lon="12.1227512"><ele>317.0</ele><time>2026-05-02T10:51:44Z</time></trkpt><trkpt lat="43.0194104" lon="12.1228592"><ele>317.0</ele><time>2026-05-02T10:51:45Z</time></trkpt><trkpt lat="43.0194408" lon="12.1230068"><ele>317.0</ele><time>2026-05-02T10:51:47Z</time></trkpt><trkpt lat="43.0195319" lon="12.1231226"><ele>317.0</ele><time>2026-05-02T10:51:49Z</time></trkpt><trkpt lat="43.019601" lon="12.1231795"><ele>316.0</ele><time>2026-05-02T10:51:49.999Z</time></trkpt><trkpt lat="43.0197193" lon="12.1232389"><ele>315.0</ele><time>2026-05-02T10:51:51Z</time></trkpt><trkpt lat="43.019813" lon="12.12329"><ele>314.0</ele><time>2026-05-02T10:51:52Z</time></trkpt><trkpt lat="43.0198938" lon="12.1233896"><ele>313.0</ele><time>2026-05-02T10:51:53Z</time></trkpt><trkpt lat="43.0199734" lon="12.1234455"><ele>312.0</ele><time>2026-05-02T10:51:54Z</time></trkpt><trkpt lat="43.0200505" lon="12.123537"><ele>311.0</ele><time>2026-05-02T10:51:55Z</time></trkpt><trkpt lat="43.0201299" lon="12.1236607"><ele>310.0</ele><time>2026-05-02T10:51:56Z</time></trkpt><trkpt lat="43.020196" lon="12.1237726"><ele>309.0</ele><time>2026-05-02T10:51:57Z</time></trkpt><trkpt lat="43.0202674" lon="12.1238461"><ele>308.0</ele><time>2026-05-02T10:51:58Z</time></trkpt><trkpt lat="43.0203513" lon="12.1238873"><ele>307.0</ele><time>2026-05-02T10:51:59Z</time></trkpt><trkpt lat="43.0204563" lon="12.1239242"><ele>307.0</ele><time>2026-05-02T10:52:00Z</time></trkpt><trkpt lat="43.0205547" lon="12.1239446"><ele>307.0</ele><time>2026-05-02T10:52:01Z</time></trkpt><trkpt lat="43.020645" lon="12.1239815"><ele>307.0</ele><time>2026-05-02T10:52:02Z</time></trkpt><trkpt lat="43.0207422" lon="12.1240407"><ele>307.0</ele><time>2026-05-02T10:52:03Z</time></trkpt><trkpt lat="43.0208244" lon="12.1241039"><ele>307.0</ele><time>2026-05-02T10:52:04Z</time></trkpt><trkpt lat="43.0209044" lon="12.124197"><ele>307.5</ele><time>2026-05-02T10:52:05Z</time></trkpt><trkpt lat="43.020986" lon="12.1242983"><ele>308.0</ele><time>2026-05-02T10:52:06Z</time></trkpt><trkpt lat="43.0210902" lon="12.1244291"><ele>308.5</ele><time>2026-05-02T10:52:07Z</time></trkpt><trkpt lat="43.0212149" lon="12.1246031"><ele>309.0</ele><time>2026-05-02T10:52:07.999Z</time></trkpt><trkpt lat="43.0213316" lon="12.124755"><ele>309.0</ele><time>2026-05-02T10:52:09Z</time></trkpt><trkpt lat="43.0214507" lon="12.1248915"><ele>309.0</ele><time>2026-05-02T10:52:10Z</time></trkpt><trkpt lat="43.0215417" lon="12.1250118"><ele>309.0</ele><time>2026-05-02T10:52:11Z</time></trkpt><trkpt lat="43.0216329" lon="12.1251361"><ele>309.0</ele><time>2026-05-02T10:52:12Z</time></trkpt><trkpt lat="43.0217236" lon="12.1252455"><ele>309.0</ele><time>2026-05-02T10:52:13Z</time></trkpt><trkpt lat="43.0218124" lon="12.1253628"><ele>309.0</ele><time>2026-05-02T10:52:14Z</time></trkpt><trkpt lat="43.0219091" lon="12.1254851"><ele>309.0</ele><time>2026-05-02T10:52:15Z</time></trkpt><trkpt lat="43.0220117" lon="12.1256298"><ele>309.0</ele><time>2026-05-02T10:52:16Z</time></trkpt><trkpt lat="43.0221215" lon="12.1257637"><ele>308.6666666666667</ele><time>2026-05-02T10:52:17Z</time></trkpt><trkpt lat="43.0222546" lon="12.1259136"><ele>308.33333333333337</ele><time>2026-05-02T10:52:18Z</time></trkpt><trkpt lat="43.0223747" lon="12.1260435"><ele>308.0</ele><time>2026-05-02T10:52:19Z</time></trkpt><trkpt lat="43.0224849" lon="12.1261699"><ele>309.5</ele><time>2026-05-02T10:52:20Z</time></trkpt><trkpt lat="43.0225868" lon="12.126285"><ele>311.0</ele><time>2026-05-02T10:52:21Z</time></trkpt><trkpt lat="43.0226836" lon="12.1263952"><ele>312.5</ele><time>2026-05-02T10:52:21.999Z</time></trkpt><trkpt lat="43.0227785" lon="12.1265085"><ele>314.0</ele><time>2026-05-02T10:52:23Z</time></trkpt><trkpt lat="43.0228779" lon="12.1266195"><ele>314.5</ele><time>2026-05-02T10:52:24Z</time></trkpt><trkpt lat="43.0229798" lon="12.1267257"><ele>315.0</ele><time>2026-05-02T10:52:25Z</time></trkpt><trkpt lat="43.0230729" lon="12.1268477"><ele>315.5</ele><time>2026-05-02T10:52:26Z</time></trkpt><trkpt lat="43.0231586" lon="12.1269587"><ele>316.0</ele><time>2026-05-02T10:52:27Z</time></trkpt><trkpt lat="43.0232331" lon="12.1270602"><ele>316.0</ele><time>2026-05-02T10:52:28Z</time></trkpt><trkpt lat="43.0232989" lon="12.1271404"><ele>316.0</ele><time>2026-05-02T10:52:29Z</time></trkpt><trkpt lat="43.0233766" lon="12.127208"><ele>316.0</ele><time>2026-05-02T10:52:30Z</time></trkpt><trkpt lat="43.0234487" lon="12.1272663"><ele>316.0</ele><time>2026-05-02T10:52:31Z</time></trkpt><trkpt lat="43.0235527" lon="12.1272977"><ele>316.0</ele><time>2026-05-02T10:52:32Z</time></trkpt><trkpt lat="43.0236428" lon="12.1273165"><ele>317.20000000000005</ele><time>2026-05-02T10:52:33Z</time></trkpt><trkpt lat="43.0237357" lon="12.1273436"><ele>318.40000000000003</ele><time>2026-05-02T10:52:34Z</time></trkpt><trkpt lat="43.0238264" lon="12.1273751"><ele>319.6</ele><time>2026-05-02T10:52:35Z</time></trkpt><trkpt lat="43.0239474" lon="12.1274305"><ele>320.8</ele><time>2026-05-02T10:52:35.999Z</time></trkpt><trkpt lat="43.0240645" lon="12.1274829"><ele>322.0</ele><time>2026-05-02T10:52:37Z</time></trkpt><trkpt lat="43.0241691" lon="12.1275421"><ele>324.0</ele><time>2026-05-02T10:52:38Z</time></trkpt><trkpt lat="43.0242804" lon="12.1276033"><ele>326.0</ele><time>2026-05-02T10:52:38.999Z</time></trkpt><trkpt lat="43.0243648" lon="12.1276478"><ele>328.0</ele><time>2026-05-02T10:52:39.999Z</time></trkpt><trkpt lat="43.0244375" lon="12.1276826"><ele>330.0</ele><time>2026-05-02T10:52:41Z</time></trkpt><trkpt lat="43.0245031" lon="12.1276913"><ele>332.0</ele><time>2026-05-02T10:52:41.999Z</time></trkpt><trkpt lat="43.0245927" lon="12.1277473"><ele>332.0</ele><time>2026-05-02T10:52:43.999Z</time></trkpt><trkpt lat="43.0246469" lon="12.1278264"><ele>332.0</ele><time>2026-05-02T10:52:45Z</time></trkpt><trkpt lat="43.0247105" lon="12.1279169"><ele>332.0</ele><time>2026-05-02T10:52:46Z</time></trkpt><trkpt lat="43.024795" lon="12.1280071"><ele>332.0</ele><time>2026-05-02T10:52:47Z</time></trkpt><trkpt lat="43.024885" lon="12.1280921"><ele>332.0</ele><time>2026-05-02T10:52:48Z</time></trkpt><trkpt lat="43.0249798" lon="12.1281756"><ele>333.75</ele><time>2026-05-02T10:52:49Z</time></trkpt><trkpt lat="43.0250678" lon="12.128251"><ele>335.5</ele><time>2026-05-02T10:52:50Z</time></trkpt><trkpt lat="43.0251725" lon="12.1283095"><ele>337.25</ele><time>2026-05-02T10:52:50.999Z</time></trkpt><trkpt lat="43.0252878" lon="12.1283636"><ele>339.0</ele><time>2026-05-02T10:52:52Z</time></trkpt><trkpt lat="43.0253984" lon="12.1284173"><ele>339.0</ele><time>2026-05-02T10:52:53Z</time></trkpt><trkpt lat="43.0254984" lon="12.1284456"><ele>339.0</ele><time>2026-05-02T10:52:54Z</time></trkpt><trkpt lat="43.0255797" lon="12.1284782"><ele>339.0</ele><time>2026-05-02T10:52:55Z</time></trkpt><trkpt lat="43.0256847" lon="12.1285207"><ele>339.0</ele><time>2026-05-02T10:52:57Z</time></trkpt><trkpt lat="43.0257602" lon="12.1285566"><ele>339.0</ele><time>2026-05-02T10:52:59Z</time></trkpt><trkpt lat="43.0258289" lon="12.1286047"><ele>340.2</ele><time>2026-05-02T10:53:01Z</time></trkpt><trkpt lat="43.0258929" lon="12.1286621"><ele>341.4</ele><time>2026-05-02T10:53:03Z</time></trkpt><trkpt lat="43.025991" lon="12.1287717"><ele>342.6</ele><time>2026-05-02T10:53:05Z</time></trkpt><trkpt lat="43.0260377" lon="12.128833"><ele>343.8</ele><time>2026-05-02T10:53:05.999Z</time></trkpt><trkpt lat="43.0261267" lon="12.1289242"><ele>345.0</ele><time>2026-05-02T10:53:08Z</time></trkpt><trkpt lat="43.0262484" lon="12.1288864"><ele>345.0</ele><time>2026-05-02T10:53:10Z</time></trkpt><trkpt lat="43.0263086" lon="12.1288186"><ele>345.0</ele><time>2026-05-02T10:53:11Z</time></trkpt><trkpt lat="43.0263859" lon="12.1287273"><ele>345.0</ele><time>2026-05-02T10:53:12Z</time></trkpt><trkpt lat="43.0264814" lon="12.1286433"><ele>345.0</ele><time>2026-05-02T10:53:12.999Z</time></trkpt><trkpt lat="43.0265969" lon="12.1285659"><ele>345.0</ele><time>2026-05-02T10:53:14Z</time></trkpt><trkpt lat="43.0267226" lon="12.1284865"><ele>346.6</ele><time>2026-05-02T10:53:15Z</time></trkpt><trkpt lat="43.0268527" lon="12.1283926"><ele>348.2</ele><time>2026-05-02T10:53:15.999Z</time></trkpt><trkpt lat="43.026955" lon="12.1283105"><ele>349.79999999999995</ele><time>2026-05-02T10:53:17Z</time></trkpt><trkpt lat="43.0270444" lon="12.1282295"><ele>351.4</ele><time>2026-05-02T10:53:18Z</time></trkpt><trkpt lat="43.0270841" lon="12.128142"><ele>353.0</ele><time>2026-05-02T10:53:20Z</time></trkpt><trkpt lat="43.0270686" lon="12.1280126"><ele>354.0</ele><time>2026-05-02T10:53:22Z</time></trkpt><trkpt lat="43.0270229" lon="12.1279326"><ele>355.0</ele><time>2026-05-02T10:53:23Z</time></trkpt><trkpt lat="43.0269783" lon="12.1278462"><ele>356.0</ele><time>2026-05-02T10:53:24Z</time></trkpt><trkpt lat="43.0269341" lon="12.1277601"><ele>357.0</ele><time>2026-05-02T10:53:24.999Z</time></trkpt><trkpt lat="43.0268642" lon="12.1275988"><ele>358.0</ele><time>2026-05-02T10:53:26Z</time></trkpt><trkpt lat="43.0268055" lon="12.1274822"><ele>358.16666666666663</ele><time>2026-05-02T10:53:26.999Z</time></trkpt><trkpt lat="43.0267613" lon="12.1273746"><ele>358.3333333333333</ele><time>2026-05-02T10:53:28Z</time></trkpt><trkpt lat="43.0267367" lon="12.1272888"><ele>358.5</ele><time>2026-05-02T10:53:29Z</time></trkpt><trkpt lat="43.0267198" lon="12.1271806"><ele>358.6666666666667</ele><time>2026-05-02T10:53:31Z</time></trkpt><trkpt lat="43.0267129" lon="12.1270617"><ele>358.83333333333337</ele><time>2026-05-02T10:53:33Z</time></trkpt><trkpt lat="43.0267881" lon="12.1269442"><ele>359.0</ele><time>2026-05-02T10:53:35Z</time></trkpt><trkpt lat="43.0268549" lon="12.1268738"><ele>359.0</ele><time>2026-05-02T10:53:36Z</time></trkpt><trkpt lat="43.0269374" lon="12.126781"><ele>359.0</ele><time>2026-05-02T10:53:36.999Z</time></trkpt><trkpt lat="43.02702" lon="12.1266806"><ele>359.0</ele><time>2026-05-02T10:53:38Z</time></trkpt><trkpt lat="43.027103" lon="12.126573"><ele>359.0</ele><time>2026-05-02T10:53:39Z</time></trkpt><trkpt lat="43.0271864" lon="12.1264575"><ele>357.6666666666667</ele><time>2026-05-02T10:53:40Z</time></trkpt><trkpt lat="43.0272509" lon="12.1263354"><ele>356.33333333333337</ele><time>2026-05-02T10:53:40.999Z</time></trkpt><trkpt lat="43.0273151" lon="12.1262232"><ele>355.0</ele><time>2026-05-02T10:53:42Z</time></trkpt><trkpt lat="43.0273571" lon="12.126124"><ele>353.6666666666667</ele><time>2026-05-02T10:53:43Z</time></trkpt><trkpt lat="43.0274" lon="12.1260272"><ele>352.3333333333333</ele><time>2026-05-02T10:53:45Z</time></trkpt><trkpt lat="43.0273417" lon="12.1259839"><ele>351.0</ele><time>2026-05-02T10:53:59Z</time></trkpt><trkpt lat="43.0273217" lon="12.1261696"><ele>351.0</ele><time>2026-05-02T10:54:00Z</time></trkpt><trkpt lat="43.0272583" lon="12.1262981"><ele>351.0</ele><time>2026-05-02T10:54:02Z</time></trkpt><trkpt lat="43.0272224" lon="12.1263714"><ele>351.0</ele><time>2026-05-02T10:54:02.999Z</time></trkpt><trkpt lat="43.0271786" lon="12.1264463"><ele>351.0</ele><time>2026-05-02T10:54:03.999Z</time></trkpt><trkpt lat="43.0271299" lon="12.1265229"><ele>351.0</ele><time>2026-05-02T10:54:05Z</time></trkpt><trkpt lat="43.0270817" lon="12.1265964"><ele>351.0</ele><time>2026-05-02T10:54:06Z</time></trkpt><trkpt lat="43.0270326" lon="12.1266576"><ele>352.3333333333333</ele><time>2026-05-02T10:54:07Z</time></trkpt><trkpt lat="43.0269678" lon="12.1267148"><ele>353.6666666666667</ele><time>2026-05-02T10:54:08Z</time></trkpt><trkpt lat="43.0269162" lon="12.1267718"><ele>355.0</ele><time>2026-05-02T10:54:09Z</time></trkpt><trkpt lat="43.0268242" lon="12.1268701"><ele>356.33333333333337</ele><time>2026-05-02T10:54:11Z</time></trkpt><trkpt lat="43.0267415" lon="12.126952"><ele>357.6666666666667</ele><time>2026-05-02T10:54:12.999Z</time></trkpt><trkpt lat="43.0267016" lon="12.1270207"><ele>359.0</ele><time>2026-05-02T10:54:15Z</time></trkpt><trkpt lat="43.0266745" lon="12.12711"><ele>359.0</ele><time>2026-05-02T10:54:29Z</time></trkpt><trkpt lat="43.026719" lon="12.1271785"><ele>359.0</ele><time>2026-05-02T10:54:34.999Z</time></trkpt><trkpt lat="43.0267888" lon="12.1272087"><ele>359.0</ele><time>2026-05-02T10:54:38Z</time></trkpt><trkpt lat="43.0269135" lon="12.127171"><ele>359.0</ele><time>2026-05-02T10:54:40Z</time></trkpt><trkpt lat="43.0269818" lon="12.1271684"><ele>359.0</ele><time>2026-05-02T10:54:41Z</time></trkpt><trkpt lat="43.0270875" lon="12.1271387"><ele>359.0</ele><time>2026-05-02T10:54:43Z</time></trkpt><trkpt lat="43.0272018" lon="12.1271227"><ele>359.0</ele><time>2026-05-02T10:54:45Z</time></trkpt><trkpt lat="43.0273297" lon="12.1271146"><ele>359.0</ele><time>2026-05-02T10:54:47Z</time></trkpt><trkpt lat="43.0273947" lon="12.1271108"><ele>359.0</ele><time>2026-05-02T10:54:47.999Z</time></trkpt><trkpt lat="43.0275237" lon="12.1271026"><ele>359.0</ele><time>2026-05-02T10:54:50Z</time></trkpt><trkpt lat="43.0275939" lon="12.1270921"><ele>359.0</ele><time>2026-05-02T10:54:51Z</time></trkpt><trkpt lat="43.0276712" lon="12.1270774"><ele>360.2857142857143</ele><time>2026-05-02T10:54:51.999Z</time></trkpt><trkpt lat="43.0277377" lon="12.1270625"><ele>361.57142857142856</ele><time>2026-05-02T10:54:53Z</time></trkpt><trkpt lat="43.0278162" lon="12.1270663"><ele>362.8571428571429</ele><time>2026-05-02T10:54:54Z</time></trkpt><trkpt lat="43.0278957" lon="12.1270616"><ele>364.1428571428571</ele><time>2026-05-02T10:54:55Z</time></trkpt><trkpt lat="43.027974" lon="12.1270612"><ele>365.4285714285714</ele><time>2026-05-02T10:54:55.999Z</time></trkpt><trkpt lat="43.0280479" lon="12.1270516"><ele>366.7142857142857</ele><time>2026-05-02T10:54:57Z</time></trkpt><trkpt lat="43.0281183" lon="12.1270416"><ele>368.0</ele><time>2026-05-02T10:54:58Z</time></trkpt><trkpt lat="43.0281893" lon="12.127038"><ele>368.0</ele><time>2026-05-02T10:54:59Z</time></trkpt><trkpt lat="43.0282669" lon="12.1270203"><ele>368.0</ele><time>2026-05-02T10:55:00Z</time></trkpt><trkpt lat="43.028353" lon="12.1270024"><ele>368.0</ele><time>2026-05-02T10:55:00.999Z</time></trkpt><trkpt lat="43.0284376" lon="12.1269999"><ele>368.0</ele><time>2026-05-02T10:55:02Z</time></trkpt><trkpt lat="43.0285243" lon="12.1269966"><ele>368.0</ele><time>2026-05-02T10:55:03Z</time></trkpt><trkpt lat="43.0286136" lon="12.1269969"><ele>368.0</ele><time>2026-05-02T10:55:04Z</time></trkpt><trkpt lat="43.0287072" lon="12.1269934"><ele>370.1666666666667</ele><time>2026-05-02T10:55:05Z</time></trkpt><trkpt lat="43.0287988" lon="12.1269839"><ele>372.33333333333337</ele><time>2026-05-02T10:55:06Z</time></trkpt><trkpt lat="43.0288842" lon="12.1269699"><ele>374.5</ele><time>2026-05-02T10:55:07Z</time></trkpt><trkpt lat="43.0289659" lon="12.1269641"><ele>376.6666666666667</ele><time>2026-05-02T10:55:08Z</time></trkpt><trkpt lat="43.0290383" lon="12.126968"><ele>378.8333333333333</ele><time>2026-05-02T10:55:09Z</time></trkpt><trkpt lat="43.0291261" lon="12.1269401"><ele>381.0</ele><time>2026-05-02T10:55:09.999Z</time></trkpt><trkpt lat="43.0292082" lon="12.1269243"><ele>383.1666666666667</ele><time>2026-05-02T10:55:11Z</time></trkpt><trkpt lat="43.0292984" lon="12.1269179"><ele>385.33333333333337</ele><time>2026-05-02T10:55:12Z</time></trkpt><trkpt lat="43.0293934" lon="12.1269064"><ele>387.5</ele><time>2026-05-02T10:55:13Z</time></trkpt><trkpt lat="43.0294807" lon="12.1268972"><ele>389.6666666666667</ele><time>2026-05-02T10:55:14Z</time></trkpt><trkpt lat="43.0295691" lon="12.1268835"><ele>391.83333333333337</ele><time>2026-05-02T10:55:15Z</time></trkpt><trkpt lat="43.0296502" lon="12.1268674"><ele>394.0</ele><time>2026-05-02T10:55:15.999Z</time></trkpt><trkpt lat="43.0297278" lon="12.1268549"><ele>394.00000000000006</ele><time>2026-05-02T10:55:16.999Z</time></trkpt><trkpt lat="43.0298037" lon="12.1268609"><ele>394.0</ele><time>2026-05-02T10:55:18Z</time></trkpt><trkpt lat="43.029884" lon="12.1268798"><ele>394.0</ele><time>2026-05-02T10:55:18.999Z</time></trkpt><trkpt lat="43.0299616" lon="12.1269066"><ele>394.0</ele><time>2026-05-02T10:55:20Z</time></trkpt><trkpt lat="43.0300528" lon="12.1269354"><ele>394.00000000000006</ele><time>2026-05-02T10:55:21Z</time></trkpt><trkpt lat="43.0301388" lon="12.1269638"><ele>394.0</ele><time>2026-05-02T10:55:22Z</time></trkpt><trkpt lat="43.0302238" lon="12.1269902"><ele>396.33333333333337</ele><time>2026-05-02T10:55:22.999Z</time></trkpt><trkpt lat="43.0303113" lon="12.1270233"><ele>398.6666666666667</ele><time>2026-05-02T10:55:24Z</time></trkpt><trkpt lat="43.0303877" lon="12.1270586"><ele>401.0</ele><time>2026-05-02T10:55:25Z</time></trkpt><trkpt lat="43.0304664" lon="12.1270816"><ele>403.33333333333337</ele><time>2026-05-02T10:55:26Z</time></trkpt><trkpt lat="43.0305478" lon="12.1271191"><ele>405.6666666666667</ele><time>2026-05-02T10:55:27Z</time></trkpt><trkpt lat="43.0306279" lon="12.1271515"><ele>408.0</ele><time>2026-05-02T10:55:28Z</time></trkpt><trkpt lat="43.0307103" lon="12.1271953"><ele>408.0</ele><time>2026-05-02T10:55:29Z</time></trkpt><trkpt lat="43.0307904" lon="12.1272321"><ele>408.0</ele><time>2026-05-02T10:55:30Z</time></trkpt><trkpt lat="43.0308718" lon="12.1272709"><ele>408.0</ele><time>2026-05-02T10:55:31Z</time></trkpt><trkpt lat="43.0309495" lon="12.1273098"><ele>408.0</ele><time>2026-05-02T10:55:32Z</time></trkpt><trkpt lat="43.0310328" lon="12.1273458"><ele>408.0</ele><time>2026-05-02T10:55:32.999Z</time></trkpt><trkpt lat="43.0311171" lon="12.1273779"><ele>408.0</ele><time>2026-05-02T10:55:34Z</time></trkpt><trkpt lat="43.0311939" lon="12.1273834"><ele>409.5</ele><time>2026-05-02T10:55:34.999Z</time></trkpt><trkpt lat="43.0312751" lon="12.127382"><ele>411.0</ele><time>2026-05-02T10:55:36Z</time></trkpt><trkpt lat="43.0313499" lon="12.1273791"><ele>412.5</ele><time>2026-05-02T10:55:36.999Z</time></trkpt><trkpt lat="43.0314661" lon="12.127364"><ele>414.0</ele><time>2026-05-02T10:55:38.998Z</time></trkpt><trkpt lat="43.0315561" lon="12.1273357"><ele>415.5</ele><time>2026-05-02T10:55:41Z</time></trkpt><trkpt lat="43.0316295" lon="12.1273275"><ele>417.0</ele><time>2026-05-02T10:55:42.999Z</time></trkpt><trkpt lat="43.0317082" lon="12.1273072"><ele>417.8333333333333</ele><time>2026-05-02T10:55:45Z</time></trkpt><trkpt lat="43.0318009" lon="12.1273055"><ele>418.66666666666663</ele><time>2026-05-02T10:55:46.999Z</time></trkpt><trkpt lat="43.03189" lon="12.127327"><ele>419.5</ele><time>2026-05-02T10:55:48.999Z</time></trkpt><trkpt lat="43.0320032" lon="12.1273242"><ele>420.3333333333333</ele><time>2026-05-02T10:55:50.999Z</time></trkpt><trkpt lat="43.0320697" lon="12.127317"><ele>421.16666666666663</ele><time>2026-05-02T10:55:52Z</time></trkpt><trkpt lat="43.0321418" lon="12.1272991"><ele>422.0</ele><time>2026-05-02T10:55:53Z</time></trkpt><trkpt lat="43.0322433" lon="12.1273002"><ele>422.0</ele><time>2026-05-02T10:55:55Z</time></trkpt><trkpt lat="43.0323087" lon="12.1273066"><ele>422.0</ele><time>2026-05-02T10:55:57Z</time></trkpt><trkpt lat="43.0323829" lon="12.1272873"><ele>422.0</ele><time>2026-05-02T10:55:59Z</time></trkpt><trkpt lat="43.0324512" lon="12.1272458"><ele>422.0</ele><time>2026-05-02T10:56:02Z</time></trkpt><trkpt lat="43.0324767" lon="12.127162"><ele>422.0</ele><time>2026-05-02T10:56:04Z</time></trkpt><trkpt lat="43.0324338" lon="12.1272339"><ele>422.0</ele><time>2026-05-02T10:56:39Z</time></trkpt><trkpt lat="43.0323793" lon="12.1272937"><ele>422.0</ele><time>2026-05-02T10:57:08.999Z</time></trkpt><trkpt lat="43.0323343" lon="12.1273605"><ele>425.0</ele><time>2026-05-02T10:57:14Z</time></trkpt><trkpt lat="43.0323097" lon="12.1274705"><ele>428.0</ele><time>2026-05-02T11:00:18Z</time></trkpt><trkpt lat="43.0323101" lon="12.1276275"><ele>431.00000000000006</ele><time>2026-05-02T11:00:20Z</time></trkpt><trkpt lat="43.0323094" lon="12.1278172"><ele>434.0</ele><time>2026-05-02T11:00:22Z</time></trkpt><trkpt lat="43.0323065" lon="12.1279257"><ele>437.0</ele><time>2026-05-02T11:00:22.999Z</time></trkpt><trkpt lat="43.0323127" lon="12.1280491"><ele>437.0</ele><time>2026-05-02T11:00:24Z</time></trkpt><trkpt lat="43.0323123" lon="12.1281774"><ele>437.00000000000006</ele><time>2026-05-02T11:00:25Z</time></trkpt><trkpt lat="43.0323177" lon="12.1283122"><ele>437.00000000000006</ele><time>2026-05-02T11:00:26Z</time></trkpt><trkpt lat="43.0323161" lon="12.1284446"><ele>437.0</ele><time>2026-05-02T11:00:27Z</time></trkpt><trkpt lat="43.0323146" lon="12.1285704"><ele>437.0</ele><time>2026-05-02T11:00:28Z</time></trkpt><trkpt lat="43.0323055" lon="12.1286909"><ele>437.3333333333333</ele><time>2026-05-02T11:00:29Z</time></trkpt><trkpt lat="43.0323028" lon="12.1288015"><ele>437.66666666666663</ele><time>2026-05-02T11:00:30Z</time></trkpt><trkpt lat="43.0322917" lon="12.1289147"><ele>438.0</ele><time>2026-05-02T11:00:31Z</time></trkpt><trkpt lat="43.0322725" lon="12.1290349"><ele>438.33333333333337</ele><time>2026-05-02T11:00:32Z</time></trkpt><trkpt lat="43.0322574" lon="12.1291485"><ele>438.6666666666667</ele><time>2026-05-02T11:00:33Z</time></trkpt><trkpt lat="43.0322537" lon="12.1292539"><ele>439.0</ele><time>2026-05-02T11:00:34Z</time></trkpt><trkpt lat="43.0322665" lon="12.129353"><ele>439.0</ele><time>2026-05-02T11:00:35Z</time></trkpt><trkpt lat="43.0323116" lon="12.1294545"><ele>439.0</ele><time>2026-05-02T11:00:36Z</time></trkpt><trkpt lat="43.0323653" lon="12.1295558"><ele>439.0</ele><time>2026-05-02T11:00:37Z</time></trkpt><trkpt lat="43.0324294" lon="12.1296546"><ele>439.0</ele><time>2026-05-02T11:00:38Z</time></trkpt><trkpt lat="43.0324994" lon="12.1297461"><ele>439.0</ele><time>2026-05-02T11:00:39Z</time></trkpt><trkpt lat="43.0325751" lon="12.129837"><ele>440.4</ele><time>2026-05-02T11:00:40Z</time></trkpt><trkpt lat="43.0326564" lon="12.1299295"><ele>441.79999999999995</ele><time>2026-05-02T11:00:41Z</time></trkpt><trkpt lat="43.0327331" lon="12.1300279"><ele>443.20000000000005</ele><time>2026-05-02T11:00:42Z</time></trkpt><trkpt lat="43.0327882" lon="12.1301124"><ele>444.6</ele><time>2026-05-02T11:00:43Z</time></trkpt><trkpt lat="43.0328428" lon="12.1301942"><ele>446.0</ele><time>2026-05-02T11:00:44Z</time></trkpt><trkpt lat="43.0328983" lon="12.1302798"><ele>445.99999999999994</ele><time>2026-05-02T11:00:45Z</time></trkpt><trkpt lat="43.0329491" lon="12.130366"><ele>446.0</ele><time>2026-05-02T11:00:46Z</time></trkpt><trkpt lat="43.0330023" lon="12.1304475"><ele>446.0</ele><time>2026-05-02T11:00:47Z</time></trkpt><trkpt lat="43.033067" lon="12.1305183"><ele>446.0</ele><time>2026-05-02T11:00:48Z</time></trkpt><trkpt lat="43.0331294" lon="12.1305671"><ele>445.99999999999994</ele><time>2026-05-02T11:00:49Z</time></trkpt><trkpt lat="43.0331822" lon="12.1306228"><ele>446.0</ele><time>2026-05-02T11:00:50Z</time></trkpt><trkpt lat="43.0332306" lon="12.1307018"><ele>445.3333333333333</ele><time>2026-05-02T11:00:51Z</time></trkpt><trkpt lat="43.0332908" lon="12.1307811"><ele>444.66666666666663</ele><time>2026-05-02T11:00:52Z</time></trkpt><trkpt lat="43.0333541" lon="12.1308612"><ele>444.0</ele><time>2026-05-02T11:00:52.998Z</time></trkpt><trkpt lat="43.033411" lon="12.1309344"><ele>443.33333333333337</ele><time>2026-05-02T11:00:54Z</time></trkpt><trkpt lat="43.0334683" lon="12.1310192"><ele>442.6666666666667</ele><time>2026-05-02T11:00:54.999Z</time></trkpt><trkpt lat="43.0335253" lon="12.1311083"><ele>442.0</ele><time>2026-05-02T11:00:56Z</time></trkpt><trkpt lat="43.033568" lon="12.1311884"><ele>442.00000000000006</ele><time>2026-05-02T11:00:57Z</time></trkpt><trkpt lat="43.0336266" lon="12.1313328"><ele>442.0</ele><time>2026-05-02T11:00:59Z</time></trkpt><trkpt lat="43.0336571" lon="12.1314084"><ele>442.0</ele><time>2026-05-02T11:01:00Z</time></trkpt><trkpt lat="43.0336996" lon="12.1314767"><ele>442.0</ele><time>2026-05-02T11:01:01Z</time></trkpt><trkpt lat="43.0337434" lon="12.1315618"><ele>442.00000000000006</ele><time>2026-05-02T11:01:02Z</time></trkpt><trkpt lat="43.033776" lon="12.1316453"><ele>442.0</ele><time>2026-05-02T11:01:02.999Z</time></trkpt><trkpt lat="43.0338081" lon="12.1317487"><ele>440.6</ele><time>2026-05-02T11:01:04Z</time></trkpt><trkpt lat="43.0338535" lon="12.1318551"><ele>439.20000000000005</ele><time>2026-05-02T11:01:05Z</time></trkpt><trkpt lat="43.0339023" lon="12.1319787"><ele>437.8</ele><time>2026-05-02T11:01:06Z</time></trkpt><trkpt lat="43.0339593" lon="12.132101"><ele>436.4</ele><time>2026-05-02T11:01:07Z</time></trkpt><trkpt lat="43.034013" lon="12.1322067"><ele>435.0</ele><time>2026-05-02T11:01:08Z</time></trkpt><trkpt lat="43.0340632" lon="12.1323025"><ele>435.1666666666667</ele><time>2026-05-02T11:01:09Z</time></trkpt><trkpt lat="43.0340968" lon="12.1324"><ele>435.33333333333337</ele><time>2026-05-02T11:01:10Z</time></trkpt><trkpt lat="43.0341224" lon="12.1325025"><ele>435.5</ele><time>2026-05-02T11:01:11Z</time></trkpt><trkpt lat="43.034139" lon="12.1326069"><ele>435.6666666666667</ele><time>2026-05-02T11:01:12Z</time></trkpt><trkpt lat="43.0341495" lon="12.1327247"><ele>435.83333333333337</ele><time>2026-05-02T11:01:13Z</time></trkpt><trkpt lat="43.0341652" lon="12.1328545"><ele>436.0</ele><time>2026-05-02T11:01:14Z</time></trkpt><trkpt lat="43.0341859" lon="12.1329884"><ele>436.0</ele><time>2026-05-02T11:01:15Z</time></trkpt><trkpt lat="43.0342165" lon="12.1330976"><ele>436.0</ele><time>2026-05-02T11:01:15.999Z</time></trkpt><trkpt lat="43.0342474" lon="12.1332075"><ele>436.0</ele><time>2026-05-02T11:01:17Z</time></trkpt><trkpt lat="43.0342895" lon="12.1333213"><ele>436.0</ele><time>2026-05-02T11:01:18Z</time></trkpt><trkpt lat="43.0343405" lon="12.1334404"><ele>436.0</ele><time>2026-05-02T11:01:19Z</time></trkpt><trkpt lat="43.0343924" lon="12.1335609"><ele>437.0</ele><time>2026-05-02T11:01:20Z</time></trkpt><trkpt lat="43.0344493" lon="12.1336827"><ele>438.0</ele><time>2026-05-02T11:01:20.999Z</time></trkpt><trkpt lat="43.0344962" lon="12.133798"><ele>439.0</ele><time>2026-05-02T11:01:22Z</time></trkpt><trkpt lat="43.0345472" lon="12.1339139"><ele>440.0</ele><time>2026-05-02T11:01:23Z</time></trkpt><trkpt lat="43.0345992" lon="12.1340205"><ele>441.0</ele><time>2026-05-02T11:01:24Z</time></trkpt><trkpt lat="43.0346539" lon="12.1341"><ele>440.1666666666667</ele><time>2026-05-02T11:01:25Z</time></trkpt><trkpt lat="43.0347013" lon="12.1341847"><ele>439.33333333333337</ele><time>2026-05-02T11:01:25.999Z</time></trkpt><trkpt lat="43.0347458" lon="12.1342666"><ele>438.5</ele><time>2026-05-02T11:01:27Z</time></trkpt><trkpt lat="43.034793" lon="12.1343585"><ele>437.6666666666667</ele><time>2026-05-02T11:01:28Z</time></trkpt><trkpt lat="43.0348491" lon="12.1344489"><ele>436.83333333333337</ele><time>2026-05-02T11:01:29Z</time></trkpt><trkpt lat="43.0349124" lon="12.1345289"><ele>436.0</ele><time>2026-05-02T11:01:30Z</time></trkpt><trkpt lat="43.0349877" lon="12.134616"><ele>436.00000000000006</ele><time>2026-05-02T11:01:30.999Z</time></trkpt><trkpt lat="43.0350593" lon="12.1346972"><ele>436.0</ele><time>2026-05-02T11:01:32Z</time></trkpt><trkpt lat="43.0351271" lon="12.1347833"><ele>436.0</ele><time>2026-05-02T11:01:33Z</time></trkpt><trkpt lat="43.0351868" lon="12.1348599"><ele>436.0</ele><time>2026-05-02T11:01:33.999Z</time></trkpt><trkpt lat="43.0352443" lon="12.1349327"><ele>436.00000000000006</ele><time>2026-05-02T11:01:34.998Z</time></trkpt><trkpt lat="43.0353104" lon="12.1349902"><ele>436.0</ele><time>2026-05-02T11:01:36Z</time></trkpt><trkpt lat="43.0353751" lon="12.13506"><ele>438.83333333333337</ele><time>2026-05-02T11:01:36.999Z</time></trkpt><trkpt lat="43.0354478" lon="12.1351206"><ele>441.6666666666667</ele><time>2026-05-02T11:01:38Z</time></trkpt><trkpt lat="43.0355183" lon="12.1351797"><ele>444.5</ele><time>2026-05-02T11:01:38.999Z</time></trkpt><trkpt lat="43.0355974" lon="12.135225"><ele>447.33333333333337</ele><time>2026-05-02T11:01:40Z</time></trkpt><trkpt lat="43.0356609" lon="12.1352653"><ele>450.1666666666667</ele><time>2026-05-02T11:01:41Z</time></trkpt><trkpt lat="43.0357254" lon="12.1353116"><ele>453.0</ele><time>2026-05-02T11:01:42Z</time></trkpt><trkpt lat="43.0357898" lon="12.1353185"><ele>453.0</ele><time>2026-05-02T11:01:43Z</time></trkpt><trkpt lat="43.035905" lon="12.1353495"><ele>452.99999999999994</ele><time>2026-05-02T11:01:45Z</time></trkpt><trkpt lat="43.0359923" lon="12.1353679"><ele>452.99999999999994</ele><time>2026-05-02T11:01:46.998Z</time></trkpt><trkpt lat="43.0359427" lon="12.1354509"><ele>453.0</ele><time>2026-05-02T11:01:58Z</time></trkpt><trkpt lat="43.0358429" lon="12.135471"><ele>453.0</ele><time>2026-05-02T11:02:00Z</time></trkpt><trkpt lat="43.03576" lon="12.1355268"><ele>453.0</ele><time>2026-05-02T11:02:02Z</time></trkpt><trkpt lat="43.0356667" lon="12.1355843"><ele>452.99999999999994</ele><time>2026-05-02T11:02:04Z</time></trkpt><trkpt lat="43.03557" lon="12.1356068"><ele>452.99999999999994</ele><time>2026-05-02T11:02:06Z</time></trkpt><trkpt lat="43.0354801" lon="12.1356549"><ele>453.0</ele><time>2026-05-02T11:02:08Z</time></trkpt><trkpt lat="43.0353658" lon="12.1356847"><ele>453.0</ele><time>2026-05-02T11:02:10Z</time></trkpt><trkpt lat="43.0353003" lon="12.1356855"><ele>453.0</ele><time>2026-05-02T11:02:11Z</time></trkpt><trkpt lat="43.0352013" lon="12.1356672"><ele>453.0</ele><time>2026-05-02T11:02:13Z</time></trkpt><trkpt lat="43.035125" lon="12.1356698"><ele>453.0</ele><time>2026-05-02T11:02:16Z</time></trkpt><trkpt lat="43.0351936" lon="12.1356783"><ele>453.0</ele><time>2026-05-02T11:02:47Z</time></trkpt><trkpt lat="43.0352711" lon="12.1356861"><ele>453.0</ele><time>2026-05-02T11:02:49Z</time></trkpt><trkpt lat="43.0353448" lon="12.1356825"><ele>453.0</ele><time>2026-05-02T11:02:51Z</time></trkpt><trkpt lat="43.0354216" lon="12.1356612"><ele>453.0</ele><time>2026-05-02T11:02:52.999Z</time></trkpt><trkpt lat="43.0355346" lon="12.1356143"><ele>453.0</ele><time>2026-05-02T11:02:55Z</time></trkpt><trkpt lat="43.0356034" lon="12.1356016"><ele>453.0</ele><time>2026-05-02T11:02:56Z</time></trkpt><trkpt lat="43.0357179" lon="12.1355724"><ele>453.0</ele><time>2026-05-02T11:02:59Z</time></trkpt><trkpt lat="43.0357877" lon="12.1355387"><ele>453.0</ele><time>2026-05-02T11:03:01Z</time></trkpt><trkpt lat="43.0358457" lon="12.1354888"><ele>453.0</ele><time>2026-05-02T11:03:03Z</time></trkpt><trkpt lat="43.0359184" lon="12.135458"><ele>451.5</ele><time>2026-05-02T11:03:05Z</time></trkpt><trkpt lat="43.035993" lon="12.1354485"><ele>450.0</ele><time>2026-05-02T11:03:07Z</time></trkpt><trkpt lat="43.0359985" lon="12.1353526"><ele>448.5</ele><time>2026-05-02T11:03:14Z</time></trkpt><trkpt lat="43.0359179" lon="12.1353398"><ele>447.0</ele><time>2026-05-02T11:03:21Z</time></trkpt><trkpt lat="43.0359983" lon="12.1353789"><ele>445.5</ele><time>2026-05-02T11:03:31Z</time></trkpt><trkpt lat="43.0360649" lon="12.1354162"><ele>444.0</ele><time>2026-05-02T11:03:33Z</time></trkpt><trkpt lat="43.036138" lon="12.1354131"><ele>444.0</ele><time>2026-05-02T11:03:36.998Z</time></trkpt><trkpt lat="43.0362105" lon="12.1353877"><ele>444.0</ele><time>2026-05-02T11:03:41Z</time></trkpt><trkpt lat="43.0362845" lon="12.1354582"><ele>444.0</ele><time>2026-05-02T11:03:43.999Z</time></trkpt><trkpt lat="43.0363372" lon="12.1355414"><ele>444.0</ele><time>2026-05-02T11:03:45.999Z</time></trkpt><trkpt lat="43.0363582" lon="12.1356485"><ele>444.0</ele><time>2026-05-02T11:03:48Z</time></trkpt><trkpt lat="43.0363423" lon="12.1357644"><ele>444.0</ele><time>2026-05-02T11:03:50Z</time></trkpt><trkpt lat="43.0362997" lon="12.1359017"><ele>447.0</ele><time>2026-05-02T11:03:52Z</time></trkpt><trkpt lat="43.0362763" lon="12.1360111"><ele>450.0</ele><time>2026-05-02T11:03:54Z</time></trkpt><trkpt lat="43.0362774" lon="12.1361356"><ele>453.0</ele><time>2026-05-02T11:03:56Z</time></trkpt><trkpt lat="43.036277" lon="12.1362999"><ele>456.0</ele><time>2026-05-02T11:03:57.999Z</time></trkpt><trkpt lat="43.0362987" lon="12.1364077"><ele>459.0</ele><time>2026-05-02T11:03:59Z</time></trkpt><trkpt lat="43.0363211" lon="12.1365018"><ele>462.0</ele><time>2026-05-02T11:04:00Z</time></trkpt><trkpt lat="43.0363349" lon="12.1366118"><ele>462.6</ele><time>2026-05-02T11:04:01Z</time></trkpt><trkpt lat="43.0363543" lon="12.1367614"><ele>463.20000000000005</ele><time>2026-05-02T11:04:03Z</time></trkpt><trkpt lat="43.0363344" lon="12.1369032"><ele>463.8</ele><time>2026-05-02T11:04:05Z</time></trkpt><trkpt lat="43.0362923" lon="12.136998"><ele>464.4</ele><time>2026-05-02T11:04:06.999Z</time></trkpt><trkpt lat="43.0362401" lon="12.1371208"><ele>465.0</ele><time>2026-05-02T11:04:09Z</time></trkpt><trkpt lat="43.0361986" lon="12.1371866"><ele>465.0</ele><time>2026-05-02T11:04:10Z</time></trkpt><trkpt lat="43.036197" lon="12.1372809"><ele>465.0</ele><time>2026-05-02T11:04:11Z</time></trkpt><trkpt lat="43.0361805" lon="12.1373648"><ele>465.0</ele><time>2026-05-02T11:04:12Z</time></trkpt><trkpt lat="43.0361605" lon="12.1374567"><ele>465.0</ele><time>2026-05-02T11:04:13Z</time></trkpt><trkpt lat="43.0361447" lon="12.1376202"><ele>465.0</ele><time>2026-05-02T11:04:15Z</time></trkpt><trkpt lat="43.0361652" lon="12.1377592"><ele>465.0</ele><time>2026-05-02T11:04:16.999Z</time></trkpt><trkpt lat="43.036202" lon="12.1378427"><ele>463.0</ele><time>2026-05-02T11:04:18Z</time></trkpt><trkpt lat="43.0362501" lon="12.1379586"><ele>461.0</ele><time>2026-05-02T11:04:20Z</time></trkpt><trkpt lat="43.0362791" lon="12.1381187"><ele>459.0</ele><time>2026-05-02T11:04:21.998Z</time></trkpt><trkpt lat="43.0362861" lon="12.1382526"><ele>457.0</ele><time>2026-05-02T11:04:23.999Z</time></trkpt><trkpt lat="43.036236" lon="12.138315"><ele>455.0</ele><time>2026-05-02T11:04:25.999Z</time></trkpt><trkpt lat="43.0361575" lon="12.1384043"><ele>452.0</ele><time>2026-05-02T11:04:27.999Z</time></trkpt><trkpt lat="43.0360721" lon="12.1384392"><ele>449.0</ele><time>2026-05-02T11:04:30Z</time></trkpt><trkpt lat="43.0359515" lon="12.1384714"><ele>446.0</ele><time>2026-05-02T11:04:32Z</time></trkpt><trkpt lat="43.0358819" lon="12.1385099"><ele>443.0</ele><time>2026-05-02T11:04:34Z</time></trkpt><trkpt lat="43.0358303" lon="12.1385908"><ele>440.0</ele><time>2026-05-02T11:04:36Z</time></trkpt><trkpt lat="43.035838" lon="12.1387138"><ele>440.0</ele><time>2026-05-02T11:04:38Z</time></trkpt><trkpt lat="43.0358856" lon="12.138844"><ele>440.0</ele><time>2026-05-02T11:04:40Z</time></trkpt><trkpt lat="43.0359138" lon="12.1390076"><ele>440.0</ele><time>2026-05-02T11:04:42Z</time></trkpt><trkpt lat="43.0359272" lon="12.1390923"><ele>440.0</ele><time>2026-05-02T11:04:42.999Z</time></trkpt><trkpt lat="43.0359318" lon="12.139182"><ele>440.0</ele><time>2026-05-02T11:04:44Z</time></trkpt><trkpt lat="43.0359128" lon="12.1393177"><ele>439.75</ele><time>2026-05-02T11:04:46Z</time></trkpt><trkpt lat="43.0358924" lon="12.1394725"><ele>439.5</ele><time>2026-05-02T11:04:48Z</time></trkpt><trkpt lat="43.0359014" lon="12.1396303"><ele>439.25</ele><time>2026-05-02T11:04:50Z</time></trkpt><trkpt lat="43.0359408" lon="12.1398012"><ele>439.0</ele><time>2026-05-02T11:04:51.999Z</time></trkpt><trkpt lat="43.0359784" lon="12.1399221"><ele>439.0</ele><time>2026-05-02T11:04:53.999Z</time></trkpt><trkpt lat="43.036047" lon="12.1400461"><ele>439.0</ele><time>2026-05-02T11:04:56Z</time></trkpt><trkpt lat="43.0360781" lon="12.1401272"><ele>439.0</ele><time>2026-05-02T11:04:56.998Z</time></trkpt><trkpt lat="43.0361125" lon="12.1402531"><ele>439.0</ele><time>2026-05-02T11:04:58.999Z</time></trkpt><trkpt lat="43.0361777" lon="12.1403809"><ele>439.0</ele><time>2026-05-02T11:05:01Z</time></trkpt><trkpt lat="43.0362289" lon="12.1404838"><ele>439.0</ele><time>2026-05-02T11:05:03Z</time></trkpt><trkpt lat="43.036262" lon="12.1405862"><ele>439.0</ele><time>2026-05-02T11:05:04.999Z</time></trkpt><trkpt lat="43.0362782" lon="12.1407068"><ele>439.0</ele><time>2026-05-02T11:05:07Z</time></trkpt><trkpt lat="43.0362873" lon="12.1408425"><ele>439.0</ele><time>2026-05-02T11:05:09Z</time></trkpt><trkpt lat="43.0362931" lon="12.1409866"><ele>439.0</ele><time>2026-05-02T11:05:10.999Z</time></trkpt><trkpt lat="43.0363298" lon="12.1411154"><ele>439.6666666666667</ele><time>2026-05-02T11:05:13Z</time></trkpt><trkpt lat="43.0363666" lon="12.1412275"><ele>440.33333333333337</ele><time>2026-05-02T11:05:15Z</time></trkpt><trkpt lat="43.036408" lon="12.1413505"><ele>441.0</ele><time>2026-05-02T11:05:17Z</time></trkpt><trkpt lat="43.0364435" lon="12.1414719"><ele>441.66666666666663</ele><time>2026-05-02T11:05:19Z</time></trkpt><trkpt lat="43.0364465" lon="12.1415666"><ele>442.3333333333333</ele><time>2026-05-02T11:05:21Z</time></trkpt><trkpt lat="43.036432" lon="12.1416831"><ele>443.0</ele><time>2026-05-02T11:05:23Z</time></trkpt><trkpt lat="43.0363551" lon="12.1417988"><ele>440.4</ele><time>2026-05-02T11:05:25Z</time></trkpt><trkpt lat="43.0363417" lon="12.1419365"><ele>437.79999999999995</ele><time>2026-05-02T11:05:27Z</time></trkpt><trkpt lat="43.0362814" lon="12.1420782"><ele>435.2</ele><time>2026-05-02T11:05:28.999Z</time></trkpt><trkpt lat="43.0362612" lon="12.1421598"><ele>432.6</ele><time>2026-05-02T11:05:30Z</time></trkpt><trkpt lat="43.0362103" lon="12.1422661"><ele>430.0</ele><time>2026-05-02T11:05:32Z</time></trkpt><trkpt lat="43.0362605" lon="12.1423813"><ele>426.2</ele><time>2026-05-02T11:05:34Z</time></trkpt><trkpt lat="43.0363161" lon="12.1424932"><ele>422.4</ele><time>2026-05-02T11:05:36Z</time></trkpt><trkpt lat="43.0363231" lon="12.1425822"><ele>418.6</ele><time>2026-05-02T11:05:38Z</time></trkpt><trkpt lat="43.0362843" lon="12.1426743"><ele>414.8</ele><time>2026-05-02T11:05:41Z</time></trkpt><trkpt lat="43.0362526" lon="12.1428023"><ele>411.0</ele><time>2026-05-02T11:05:44Z</time></trkpt><trkpt lat="43.0361998" lon="12.1429613"><ele>411.0</ele><time>2026-05-02T11:05:46Z</time></trkpt><trkpt lat="43.036152" lon="12.1430831"><ele>411.0</ele><time>2026-05-02T11:05:47Z</time></trkpt><trkpt lat="43.0361109" lon="12.1432161"><ele>411.0</ele><time>2026-05-02T11:05:47.999Z</time></trkpt><trkpt lat="43.0360672" lon="12.1433373"><ele>411.0</ele><time>2026-05-02T11:05:49Z</time></trkpt><trkpt lat="43.0360284" lon="12.1434718"><ele>411.0</ele><time>2026-05-02T11:05:50Z</time></trkpt><trkpt lat="43.035999" lon="12.1436001"><ele>407.4</ele><time>2026-05-02T11:05:51Z</time></trkpt><trkpt lat="43.0359495" lon="12.1437304"><ele>403.8</ele><time>2026-05-02T11:05:52Z</time></trkpt><trkpt lat="43.0358888" lon="12.1438683"><ele>400.2</ele><time>2026-05-02T11:05:53Z</time></trkpt><trkpt lat="43.0358313" lon="12.1439936"><ele>396.59999999999997</ele><time>2026-05-02T11:05:54Z</time></trkpt><trkpt lat="43.0357803" lon="12.1441162"><ele>393.0</ele><time>2026-05-02T11:05:55Z</time></trkpt><trkpt lat="43.0357196" lon="12.1442471"><ele>390.1666666666667</ele><time>2026-05-02T11:05:56Z</time></trkpt><trkpt lat="43.035666" lon="12.1443644"><ele>387.3333333333333</ele><time>2026-05-02T11:05:57Z</time></trkpt><trkpt lat="43.03561" lon="12.144465"><ele>384.5</ele><time>2026-05-02T11:05:58Z</time></trkpt><trkpt lat="43.0355601" lon="12.1445556"><ele>381.66666666666663</ele><time>2026-05-02T11:05:59Z</time></trkpt><trkpt lat="43.0355128" lon="12.1446515"><ele>378.8333333333333</ele><time>2026-05-02T11:06:00Z</time></trkpt><trkpt lat="43.035464" lon="12.1447346"><ele>376.0</ele><time>2026-05-02T11:06:01Z</time></trkpt><trkpt lat="43.0354267" lon="12.1448191"><ele>374.5</ele><time>2026-05-02T11:06:02Z</time></trkpt><trkpt lat="43.0353913" lon="12.144909"><ele>373.0</ele><time>2026-05-02T11:06:03Z</time></trkpt><trkpt lat="43.0353798" lon="12.1450153"><ele>371.5</ele><time>2026-05-02T11:06:04Z</time></trkpt><trkpt lat="43.0353669" lon="12.1451037"><ele>370.0</ele><time>2026-05-02T11:06:05Z</time></trkpt><trkpt lat="43.0353906" lon="12.1452739"><ele>368.5</ele><time>2026-05-02T11:06:07Z</time></trkpt><trkpt lat="43.0354248" lon="12.1453636"><ele>367.0</ele><time>2026-05-02T11:06:08Z</time></trkpt><trkpt lat="43.0354783" lon="12.1454301"><ele>367.0</ele><time>2026-05-02T11:06:09Z</time></trkpt><trkpt lat="43.0355397" lon="12.1454891"><ele>367.0</ele><time>2026-05-02T11:06:10Z</time></trkpt><trkpt lat="43.0356042" lon="12.145539"><ele>367.0</ele><time>2026-05-02T11:06:11Z</time></trkpt><trkpt lat="43.0356791" lon="12.1456509"><ele>367.0</ele><time>2026-05-02T11:06:13Z</time></trkpt><trkpt lat="43.0356559" lon="12.1457875"><ele>367.0</ele><time>2026-05-02T11:06:15Z</time></trkpt><trkpt lat="43.0355828" lon="12.1458623"><ele>367.0</ele><time>2026-05-02T11:06:16Z</time></trkpt><trkpt lat="43.0354987" lon="12.1459436"><ele>367.0</ele><time>2026-05-02T11:06:17Z</time></trkpt><trkpt lat="43.0354113" lon="12.1460134"><ele>367.0</ele><time>2026-05-02T11:06:18Z</time></trkpt><trkpt lat="43.0353255" lon="12.1460711"><ele>367.0</ele><time>2026-05-02T11:06:19Z</time></trkpt><trkpt lat="43.0352439" lon="12.1461393"><ele>367.0</ele><time>2026-05-02T11:06:20Z</time></trkpt><trkpt lat="43.035172" lon="12.1462247"><ele>367.0</ele><time>2026-05-02T11:06:21Z</time></trkpt><trkpt lat="43.035099" lon="12.1463061"><ele>367.0</ele><time>2026-05-02T11:06:22Z</time></trkpt><trkpt lat="43.0350286" lon="12.1463747"><ele>367.0</ele><time>2026-05-02T11:06:23Z</time></trkpt><trkpt lat="43.0349572" lon="12.146432"><ele>367.0</ele><time>2026-05-02T11:06:23.999Z</time></trkpt><trkpt lat="43.0348882" lon="12.1464819"><ele>367.0</ele><time>2026-05-02T11:06:24.999Z</time></trkpt><trkpt lat="43.0348142" lon="12.1465346"><ele>367.0</ele><time>2026-05-02T11:06:25.997Z</time></trkpt><trkpt lat="43.034745" lon="12.1465695"><ele>365.16666666666663</ele><time>2026-05-02T11:06:26.995Z</time></trkpt><trkpt lat="43.0346855" lon="12.1466017"><ele>363.3333333333333</ele><time>2026-05-02T11:06:27.995Z</time></trkpt><trkpt lat="43.0346188" lon="12.1466393"><ele>361.5</ele><time>2026-05-02T11:06:28.998Z</time></trkpt><trkpt lat="43.034548" lon="12.1466839"><ele>359.6666666666667</ele><time>2026-05-02T11:06:29.998Z</time></trkpt><trkpt lat="43.0344891" lon="12.1467273"><ele>357.83333333333337</ele><time>2026-05-02T11:06:31Z</time></trkpt><trkpt lat="43.0343706" lon="12.146825"><ele>356.0</ele><time>2026-05-02T11:06:33Z</time></trkpt><trkpt lat="43.0343092" lon="12.1469012"><ele>356.0</ele><time>2026-05-02T11:06:33.999Z</time></trkpt><trkpt lat="43.0342472" lon="12.1469771"><ele>356.0</ele><time>2026-05-02T11:06:34.999Z</time></trkpt><trkpt lat="43.034192" lon="12.1470536"><ele>356.0</ele><time>2026-05-02T11:06:35.996Z</time></trkpt><trkpt lat="43.0341421" lon="12.1471374"><ele>356.0</ele><time>2026-05-02T11:06:36.999Z</time></trkpt><trkpt lat="43.0341093" lon="12.1472127"><ele>356.0</ele><time>2026-05-02T11:06:37.999Z</time></trkpt><trkpt lat="43.0341" lon="12.1473557"><ele>356.0</ele><time>2026-05-02T11:06:39.999Z</time></trkpt><trkpt lat="43.0341279" lon="12.1474839"><ele>356.0</ele><time>2026-05-02T11:06:41.999Z</time></trkpt><trkpt lat="43.0341445" lon="12.1476384"><ele>356.0</ele><time>2026-05-02T11:06:43.999Z</time></trkpt><trkpt lat="43.0341442" lon="12.1477963"><ele>356.0</ele><time>2026-05-02T11:06:46Z</time></trkpt><trkpt lat="43.0341129" lon="12.1478911"><ele>356.0</ele><time>2026-05-02T11:06:46.997Z</time></trkpt><trkpt lat="43.0340618" lon="12.1479609"><ele>356.0</ele><time>2026-05-02T11:06:48Z</time></trkpt><trkpt lat="43.0340253" lon="12.1480455"><ele>354.5</ele><time>2026-05-02T11:06:49Z</time></trkpt><trkpt lat="43.0339927" lon="12.1481348"><ele>353.0</ele><time>2026-05-02T11:06:49.999Z</time></trkpt><trkpt lat="43.0339662" lon="12.1482346"><ele>351.5</ele><time>2026-05-02T11:06:51Z</time></trkpt><trkpt lat="43.0339446" lon="12.1483492"><ele>350.0</ele><time>2026-05-02T11:06:52Z</time></trkpt><trkpt lat="43.0339255" lon="12.1484523"><ele>348.5</ele><time>2026-05-02T11:06:53Z</time></trkpt><trkpt lat="43.0339217" lon="12.1485419"><ele>347.0</ele><time>2026-05-02T11:06:54Z</time></trkpt><trkpt lat="43.0339607" lon="12.1486928"><ele>347.0</ele><time>2026-05-02T11:06:55.999Z</time></trkpt><trkpt lat="43.0340297" lon="12.1488265"><ele>347.0</ele><time>2026-05-02T11:06:58Z</time></trkpt><trkpt lat="43.0340683" lon="12.1488979"><ele>347.0</ele><time>2026-05-02T11:06:59Z</time></trkpt><trkpt lat="43.0341321" lon="12.1489621"><ele>347.0</ele><time>2026-05-02T11:07:00Z</time></trkpt><trkpt lat="43.034216" lon="12.1490148"><ele>347.0</ele><time>2026-05-02T11:07:01Z</time></trkpt><trkpt lat="43.0342844" lon="12.1490687"><ele>347.0</ele><time>2026-05-02T11:07:02Z</time></trkpt><trkpt lat="43.0343351" lon="12.1491774"><ele>346.33333333333337</ele><time>2026-05-02T11:07:04Z</time></trkpt><trkpt lat="43.034291" lon="12.1492484"><ele>345.6666666666667</ele><time>2026-05-02T11:07:05.999Z</time></trkpt><trkpt lat="43.0342275" lon="12.1492814"><ele>345.0</ele><time>2026-05-02T11:07:06.999Z</time></trkpt><trkpt lat="43.0341608" lon="12.1493267"><ele>344.3333333333333</ele><time>2026-05-02T11:07:08Z</time></trkpt><trkpt lat="43.03408" lon="12.1493632"><ele>343.66666666666663</ele><time>2026-05-02T11:07:08.999Z</time></trkpt><trkpt lat="43.033984" lon="12.1493576"><ele>343.0</ele><time>2026-05-02T11:07:09.999Z</time></trkpt><trkpt lat="43.0338936" lon="12.1493475"><ele>343.0</ele><time>2026-05-02T11:07:11Z</time></trkpt><trkpt lat="43.0338155" lon="12.1493259"><ele>343.0</ele><time>2026-05-02T11:07:12Z</time></trkpt><trkpt lat="43.03374" lon="12.14933"><ele>343.0</ele><time>2026-05-02T11:07:13Z</time></trkpt><trkpt lat="43.0336621" lon="12.1493363"><ele>343.0</ele><time>2026-05-02T11:07:14Z</time></trkpt><trkpt lat="43.0335913" lon="12.1493815"><ele>343.0</ele><time>2026-05-02T11:07:15Z</time></trkpt><trkpt lat="43.0335272" lon="12.1494322"><ele>343.0</ele><time>2026-05-02T11:07:16Z</time></trkpt><trkpt lat="43.0334503" lon="12.1495221"><ele>343.0</ele><time>2026-05-02T11:07:17Z</time></trkpt><trkpt lat="43.0333765" lon="12.1496194"><ele>343.0</ele><time>2026-05-02T11:07:18Z</time></trkpt><trkpt lat="43.033315" lon="12.149725"><ele>343.0</ele><time>2026-05-02T11:07:19Z</time></trkpt><trkpt lat="43.0332567" lon="12.1498167"><ele>343.0</ele><time>2026-05-02T11:07:20Z</time></trkpt><trkpt lat="43.0332144" lon="12.1499152"><ele>343.0</ele><time>2026-05-02T11:07:21Z</time></trkpt><trkpt lat="43.033187" lon="12.1500028"><ele>343.0</ele><time>2026-05-02T11:07:22Z</time></trkpt><trkpt lat="43.0331776" lon="12.1500976"><ele>343.66666666666663</ele><time>2026-05-02T11:07:22.999Z</time></trkpt><trkpt lat="43.0331745" lon="12.1501904"><ele>344.3333333333333</ele><time>2026-05-02T11:07:23.999Z</time></trkpt><trkpt lat="43.0331877" lon="12.1502959"><ele>345.0</ele><time>2026-05-02T11:07:25Z</time></trkpt><trkpt lat="43.0332238" lon="12.1504013"><ele>345.6666666666667</ele><time>2026-05-02T11:07:26Z</time></trkpt><trkpt lat="43.0332744" lon="12.1505026"><ele>346.33333333333337</ele><time>2026-05-02T11:07:27Z</time></trkpt><trkpt lat="43.0333215" lon="12.1506127"><ele>347.0</ele><time>2026-05-02T11:07:28Z</time></trkpt><trkpt lat="43.0333825" lon="12.1507215"><ele>347.0</ele><time>2026-05-02T11:07:29Z</time></trkpt><trkpt lat="43.0334372" lon="12.1508173"><ele>347.0</ele><time>2026-05-02T11:07:30Z</time></trkpt><trkpt lat="43.0334981" lon="12.1508988"><ele>347.0</ele><time>2026-05-02T11:07:31Z</time></trkpt><trkpt lat="43.0335414" lon="12.1509656"><ele>347.0</ele><time>2026-05-02T11:07:31.999Z</time></trkpt><trkpt lat="43.0335997" lon="12.1510281"><ele>347.0</ele><time>2026-05-02T11:07:33Z</time></trkpt><trkpt lat="43.0336551" lon="12.1510927"><ele>347.0</ele><time>2026-05-02T11:07:33.998Z</time></trkpt><trkpt lat="43.0337112" lon="12.1511562"><ele>347.0</ele><time>2026-05-02T11:07:34.998Z</time></trkpt><trkpt lat="43.0337989" lon="12.1512415"><ele>347.0</ele><time>2026-05-02T11:07:36.996Z</time></trkpt><trkpt lat="43.033884" lon="12.151318"><ele>347.0</ele><time>2026-05-02T11:07:38.997Z</time></trkpt><trkpt lat="43.0339429" lon="12.1514216"><ele>347.0</ele><time>2026-05-02T11:07:41.998Z</time></trkpt><trkpt lat="43.0339362" lon="12.1515091"><ele>347.0</ele><time>2026-05-02T11:07:44Z</time></trkpt><trkpt lat="43.0338594" lon="12.1515503"><ele>347.0</ele><time>2026-05-02T11:07:45.998Z</time></trkpt><trkpt lat="43.0337865" lon="12.151583"><ele>347.0</ele><time>2026-05-02T11:07:47Z</time></trkpt><trkpt lat="43.0336956" lon="12.1516356"><ele>347.0</ele><time>2026-05-02T11:07:48.001Z</time></trkpt><trkpt lat="43.033576" lon="12.1516899"><ele>347.0</ele><time>2026-05-02T11:07:49Z</time></trkpt><trkpt lat="43.0334469" lon="12.1517456"><ele>347.0</ele><time>2026-05-02T11:07:49.998Z</time></trkpt><trkpt lat="43.0333214" lon="12.1518061"><ele>345.33333333333337</ele><time>2026-05-02T11:07:51Z</time></trkpt><trkpt lat="43.0332156" lon="12.1518598"><ele>343.6666666666667</ele><time>2026-05-02T11:07:52Z</time></trkpt><trkpt lat="43.0331243" lon="12.1518924"><ele>342.0</ele><time>2026-05-02T11:07:53Z</time></trkpt><trkpt lat="43.0330551" lon="12.151938"><ele>340.3333333333333</ele><time>2026-05-02T11:07:54Z</time></trkpt><trkpt lat="43.0330022" lon="12.1519975"><ele>338.66666666666663</ele><time>2026-05-02T11:07:55Z</time></trkpt><trkpt lat="43.0329534" lon="12.1520796"><ele>337.0</ele><time>2026-05-02T11:07:55.999Z</time></trkpt><trkpt lat="43.0329149" lon="12.1521667"><ele>337.0</ele><time>2026-05-02T11:07:57Z</time></trkpt><trkpt lat="43.0328917" lon="12.1523209"><ele>337.0</ele><time>2026-05-02T11:07:59Z</time></trkpt><trkpt lat="43.0328834" lon="12.1524169"><ele>337.0</ele><time>2026-05-02T11:08:00Z</time></trkpt><trkpt lat="43.0328946" lon="12.1525198"><ele>337.0</ele><time>2026-05-02T11:08:01Z</time></trkpt><trkpt lat="43.0329134" lon="12.1526078"><ele>337.0</ele><time>2026-05-02T11:08:02Z</time></trkpt><trkpt lat="43.032945" lon="12.1526859"><ele>337.0</ele><time>2026-05-02T11:08:03Z</time></trkpt><trkpt lat="43.0330431" lon="12.1528037"><ele>337.0</ele><time>2026-05-02T11:08:05Z</time></trkpt><trkpt lat="43.0330997" lon="12.1528866"><ele>337.0</ele><time>2026-05-02T11:08:06Z</time></trkpt><trkpt lat="43.0331554" lon="12.152961"><ele>337.0</ele><time>2026-05-02T11:08:07Z</time></trkpt><trkpt lat="43.0332058" lon="12.153032"><ele>337.0</ele><time>2026-05-02T11:08:08Z</time></trkpt><trkpt lat="43.0332373" lon="12.1531663"><ele>337.0</ele><time>2026-05-02T11:08:10Z</time></trkpt><trkpt lat="43.0332224" lon="12.1532618"><ele>337.0</ele><time>2026-05-02T11:08:11Z</time></trkpt><trkpt lat="43.0331892" lon="12.153387"><ele>337.0</ele><time>2026-05-02T11:08:12Z</time></trkpt><trkpt lat="43.0331634" lon="12.1535112"><ele>337.0</ele><time>2026-05-02T11:08:13Z</time></trkpt><trkpt lat="43.0331352" lon="12.153638"><ele>337.0</ele><time>2026-05-02T11:08:14Z</time></trkpt><trkpt lat="43.0331098" lon="12.153763"><ele>337.0</ele><time>2026-05-02T11:08:15Z</time></trkpt><trkpt lat="43.0330847" lon="12.1538926"><ele>337.0</ele><time>2026-05-02T11:08:15.999Z</time></trkpt><trkpt lat="43.0330549" lon="12.1539958"><ele>337.0</ele><time>2026-05-02T11:08:17Z</time></trkpt><trkpt lat="43.0330505" lon="12.1540855"><ele>337.0</ele><time>2026-05-02T11:08:18Z</time></trkpt><trkpt lat="43.0330829" lon="12.1542194"><ele>337.0</ele><time>2026-05-02T11:08:20.001Z</time></trkpt><trkpt lat="43.0331128" lon="12.1543177"><ele>337.0</ele><time>2026-05-02T11:08:21.999Z</time></trkpt><trkpt lat="43.0331209" lon="12.1544232"><ele>337.0</ele><time>2026-05-02T11:08:25Z</time></trkpt><trkpt lat="43.033104" lon="12.1545075"><ele>337.0</ele><time>2026-05-02T11:08:28Z</time></trkpt><trkpt lat="43.0330624" lon="12.1545818"><ele>337.0</ele><time>2026-05-02T11:08:29.999Z</time></trkpt><trkpt lat="43.03301" lon="12.1546901"><ele>337.0</ele><time>2026-05-02T11:08:31.999Z</time></trkpt><trkpt lat="43.0329548" lon="12.1547967"><ele>337.0</ele><time>2026-05-02T11:08:34Z</time></trkpt><trkpt lat="43.0329557" lon="12.154946"><ele>337.0</ele><time>2026-05-02T11:08:35.998Z</time></trkpt><trkpt lat="43.0329671" lon="12.1550317"><ele>337.0</ele><time>2026-05-02T11:08:36.997Z</time></trkpt><trkpt lat="43.0330083" lon="12.1551813"><ele>336.6</ele><time>2026-05-02T11:08:38.997Z</time></trkpt><trkpt lat="43.0330632" lon="12.1552926"><ele>336.20000000000005</ele><time>2026-05-02T11:08:40.998Z</time></trkpt><trkpt lat="43.0331381" lon="12.1554399"><ele>335.8</ele><time>2026-05-02T11:08:43Z</time></trkpt><trkpt lat="43.0331805" lon="12.1555296"><ele>335.4</ele><time>2026-05-02T11:08:43.999Z</time></trkpt><trkpt lat="43.033225" lon="12.1556196"><ele>335.0</ele><time>2026-05-02T11:08:45Z</time></trkpt><trkpt lat="43.0332747" lon="12.1556943"><ele>335.33333333333337</ele><time>2026-05-02T11:08:46Z</time></trkpt><trkpt lat="43.0333348" lon="12.1557608"><ele>335.6666666666667</ele><time>2026-05-02T11:08:47Z</time></trkpt><trkpt lat="43.0334041" lon="12.1558267"><ele>336.0</ele><time>2026-05-02T11:08:47.996Z</time></trkpt><trkpt lat="43.0334684" lon="12.1558816"><ele>336.3333333333333</ele><time>2026-05-02T11:08:48.996Z</time></trkpt><trkpt lat="43.0335219" lon="12.1559312"><ele>336.66666666666663</ele><time>2026-05-02T11:08:50Z</time></trkpt><trkpt lat="43.0335931" lon="12.1560711"><ele>337.0</ele><time>2026-05-02T11:08:52Z</time></trkpt><trkpt lat="43.0336053" lon="12.1561658"><ele>337.0</ele><time>2026-05-02T11:08:53Z</time></trkpt><trkpt lat="43.0335674" lon="12.1562657"><ele>337.0</ele><time>2026-05-02T11:08:54Z</time></trkpt><trkpt lat="43.03353" lon="12.1563606"><ele>337.0</ele><time>2026-05-02T11:08:55Z</time></trkpt><trkpt lat="43.033511" lon="12.1564658"><ele>337.0</ele><time>2026-05-02T11:08:56Z</time></trkpt><trkpt lat="43.0334682" lon="12.1565566"><ele>337.0</ele><time>2026-05-02T11:08:57Z</time></trkpt><trkpt lat="43.0334437" lon="12.1566493"><ele>337.0</ele><time>2026-05-02T11:08:58Z</time></trkpt><trkpt lat="43.0334173" lon="12.1567302"><ele>336.6</ele><time>2026-05-02T11:08:59Z</time></trkpt><trkpt lat="43.0333798" lon="12.1568024"><ele>336.20000000000005</ele><time>2026-05-02T11:08:59.999Z</time></trkpt><trkpt lat="43.0333148" lon="12.1569208"><ele>335.8</ele><time>2026-05-02T11:09:01.997Z</time></trkpt><trkpt lat="43.0332834" lon="12.1570331"><ele>335.4</ele><time>2026-05-02T11:09:04Z</time></trkpt><trkpt lat="43.0332487" lon="12.1571724"><ele>335.0</ele><time>2026-05-02T11:09:05.998Z</time></trkpt><trkpt lat="43.0332249" lon="12.1573342"><ele>335.0</ele><time>2026-05-02T11:09:08Z</time></trkpt><trkpt lat="43.0331864" lon="12.1574046"><ele>335.0</ele><time>2026-05-02T11:09:08.999Z</time></trkpt><trkpt lat="43.0330849" lon="12.1574848"><ele>335.0</ele><time>2026-05-02T11:09:10.998Z</time></trkpt><trkpt lat="43.0330126" lon="12.157475"><ele>335.0</ele><time>2026-05-02T11:09:12Z</time></trkpt><trkpt lat="43.032926" lon="12.1574737"><ele>335.0</ele><time>2026-05-02T11:09:13Z</time></trkpt><trkpt lat="43.0328442" lon="12.1574753"><ele>335.0</ele><time>2026-05-02T11:09:14Z</time></trkpt><trkpt lat="43.0327701" lon="12.1574788"><ele>335.0</ele><time>2026-05-02T11:09:15Z</time></trkpt><trkpt lat="43.0326977" lon="12.1574793"><ele>335.0</ele><time>2026-05-02T11:09:16Z</time></trkpt><trkpt lat="43.0326166" lon="12.1574653"><ele>335.0</ele><time>2026-05-02T11:09:17Z</time></trkpt><trkpt lat="43.0325263" lon="12.1574293"><ele>335.0</ele><time>2026-05-02T11:09:18Z</time></trkpt><trkpt lat="43.0324555" lon="12.1573553"><ele>335.0</ele><time>2026-05-02T11:09:19Z</time></trkpt><trkpt lat="43.0323812" lon="12.157317"><ele>335.0</ele><time>2026-05-02T11:09:20Z</time></trkpt><trkpt lat="43.0322875" lon="12.1572908"><ele>333.0</ele><time>2026-05-02T11:09:21Z</time></trkpt><trkpt lat="43.0321933" lon="12.1572868"><ele>331.0</ele><time>2026-05-02T11:09:22Z</time></trkpt><trkpt lat="43.0321004" lon="12.1572703"><ele>329.0</ele><time>2026-05-02T11:09:23Z</time></trkpt><trkpt lat="43.0320045" lon="12.1572594"><ele>327.0</ele><time>2026-05-02T11:09:24Z</time></trkpt><trkpt lat="43.0319001" lon="12.1572596"><ele>325.0</ele><time>2026-05-02T11:09:24.999Z</time></trkpt><trkpt lat="43.0317952" lon="12.157268"><ele>325.0</ele><time>2026-05-02T11:09:25.999Z</time></trkpt><trkpt lat="43.0316861" lon="12.1572782"><ele>325.0</ele><time>2026-05-02T11:09:27Z</time></trkpt><trkpt lat="43.0315789" lon="12.1572971"><ele>325.0</ele><time>2026-05-02T11:09:27.999Z</time></trkpt><trkpt lat="43.0314782" lon="12.1573136"><ele>325.0</ele><time>2026-05-02T11:09:29Z</time></trkpt><trkpt lat="43.0313786" lon="12.1573473"><ele>325.0</ele><time>2026-05-02T11:09:29.998Z</time></trkpt><trkpt lat="43.0312911" lon="12.1573794"><ele>326.2</ele><time>2026-05-02T11:09:30.996Z</time></trkpt><trkpt lat="43.0312185" lon="12.157419"><ele>327.4</ele><time>2026-05-02T11:09:32Z</time></trkpt><trkpt lat="43.0311572" lon="12.1574787"><ele>328.6</ele><time>2026-05-02T11:09:32.996Z</time></trkpt><trkpt lat="43.031097" lon="12.1575433"><ele>329.8</ele><time>2026-05-02T11:09:34Z</time></trkpt><trkpt lat="43.0310397" lon="12.1577225"><ele>331.0</ele><time>2026-05-02T11:09:35.997Z</time></trkpt><trkpt lat="43.0310068" lon="12.1578323"><ele>331.0</ele><time>2026-05-02T11:09:37Z</time></trkpt><trkpt lat="43.030978" lon="12.1579193"><ele>331.0</ele><time>2026-05-02T11:09:37.998Z</time></trkpt><trkpt lat="43.0309317" lon="12.1579998"><ele>331.0</ele><time>2026-05-02T11:09:38.999Z</time></trkpt><trkpt lat="43.0308768" lon="12.1580657"><ele>331.0</ele><time>2026-05-02T11:09:40Z</time></trkpt><trkpt lat="43.0307812" lon="12.1581336"><ele>331.0</ele><time>2026-05-02T11:09:40.998Z</time></trkpt><trkpt lat="43.0306922" lon="12.1581608"><ele>331.0</ele><time>2026-05-02T11:09:42Z</time></trkpt><trkpt lat="43.0305956" lon="12.1581705"><ele>330.8</ele><time>2026-05-02T11:09:43Z</time></trkpt><trkpt lat="43.0304917" lon="12.1581728"><ele>330.6</ele><time>2026-05-02T11:09:44Z</time></trkpt><trkpt lat="43.0303799" lon="12.1581773"><ele>330.4</ele><time>2026-05-02T11:09:44.999Z</time></trkpt><trkpt lat="43.0302824" lon="12.1581728"><ele>330.2</ele><time>2026-05-02T11:09:46Z</time></trkpt><trkpt lat="43.0301874" lon="12.158165"><ele>330.0</ele><time>2026-05-02T11:09:47Z</time></trkpt><trkpt lat="43.0301021" lon="12.1581709"><ele>330.0</ele><time>2026-05-02T11:09:48Z</time></trkpt><trkpt lat="43.0300216" lon="12.1581944"><ele>330.0</ele><time>2026-05-02T11:09:49Z</time></trkpt><trkpt lat="43.02995" lon="12.1582395"><ele>330.0</ele><time>2026-05-02T11:09:50Z</time></trkpt><trkpt lat="43.0298759" lon="12.1582944"><ele>330.0</ele><time>2026-05-02T11:09:51Z</time></trkpt><trkpt lat="43.0298158" lon="12.1583697"><ele>330.0</ele><time>2026-05-02T11:09:51.999Z</time></trkpt><trkpt lat="43.0297632" lon="12.1584605"><ele>330.0</ele><time>2026-05-02T11:09:53Z</time></trkpt><trkpt lat="43.0297233" lon="12.1585599"><ele>330.1666666666667</ele><time>2026-05-02T11:09:53.999Z</time></trkpt><trkpt lat="43.0296798" lon="12.1586621"><ele>330.3333333333333</ele><time>2026-05-02T11:09:55Z</time></trkpt><trkpt lat="43.0296241" lon="12.1587439"><ele>330.5</ele><time>2026-05-02T11:09:55.999Z</time></trkpt><trkpt lat="43.029587" lon="12.1588195"><ele>330.66666666666663</ele><time>2026-05-02T11:09:57Z</time></trkpt><trkpt lat="43.0295167" lon="12.1589307"><ele>330.8333333333333</ele><time>2026-05-02T11:09:59Z</time></trkpt><trkpt lat="43.0295889" lon="12.1589583"><ele>331.0</ele><time>2026-05-02T11:10:31Z</time></trkpt><trkpt lat="43.029664" lon="12.1589385"><ele>331.0</ele><time>2026-05-02T11:10:32.999Z</time></trkpt><trkpt lat="43.0297316" lon="12.1588805"><ele>331.0</ele><time>2026-05-02T11:10:34Z</time></trkpt><trkpt lat="43.0298486" lon="12.1588295"><ele>331.0</ele><time>2026-05-02T11:10:35.998Z</time></trkpt><trkpt lat="43.0299651" lon="12.1588127"><ele>331.0</ele><time>2026-05-02T11:10:37.999Z</time></trkpt><trkpt lat="43.0300481" lon="12.1588137"><ele>331.0</ele><time>2026-05-02T11:10:39Z</time></trkpt><trkpt lat="43.030173" lon="12.1588472"><ele>332.3333333333333</ele><time>2026-05-02T11:10:41Z</time></trkpt><trkpt lat="43.0302839" lon="12.1589029"><ele>333.66666666666663</ele><time>2026-05-02T11:10:43Z</time></trkpt><trkpt lat="43.0303497" lon="12.1589421"><ele>335.0</ele><time>2026-05-02T11:10:43.999Z</time></trkpt><trkpt lat="43.0304219" lon="12.1590222"><ele>336.3333333333333</ele><time>2026-05-02T11:10:45.999Z</time></trkpt><trkpt lat="43.0304497" lon="12.1591155"><ele>337.6666666666667</ele><time>2026-05-02T11:10:49Z</time></trkpt><trkpt lat="43.0304013" lon="12.1591764"><ele>339.0</ele><time>2026-05-02T11:10:51Z</time></trkpt><trkpt lat="43.030307" lon="12.1592375"><ele>340.3333333333333</ele><time>2026-05-02T11:10:53Z</time></trkpt><trkpt lat="43.030212" lon="12.1592876"><ele>341.6666666666667</ele><time>2026-05-02T11:10:54.999Z</time></trkpt><trkpt lat="43.0301278" lon="12.1593512"><ele>343.0</ele><time>2026-05-02T11:10:57Z</time></trkpt><trkpt lat="43.0300752" lon="12.1594494"><ele>344.33333333333337</ele><time>2026-05-02T11:10:59Z</time></trkpt><trkpt lat="43.0300454" lon="12.1595334"><ele>345.6666666666667</ele><time>2026-05-02T11:11:00Z</time></trkpt><trkpt lat="43.0300288" lon="12.1596165"><ele>347.0</ele><time>2026-05-02T11:11:01Z</time></trkpt><trkpt lat="43.0300354" lon="12.1597635"><ele>347.8</ele><time>2026-05-02T11:11:02.999Z</time></trkpt><trkpt lat="43.0300133" lon="12.1599475"><ele>348.6</ele><time>2026-05-02T11:11:05Z</time></trkpt><trkpt lat="43.0300103" lon="12.1600546"><ele>349.40000000000003</ele><time>2026-05-02T11:11:05.999Z</time></trkpt><trkpt lat="43.0299997" lon="12.1601853"><ele>350.20000000000005</ele><time>2026-05-02T11:11:07Z</time></trkpt><trkpt lat="43.029992" lon="12.1603218"><ele>351.0</ele><time>2026-05-02T11:11:07.999Z</time></trkpt><trkpt lat="43.0299663" lon="12.1604554"><ele>349.6666666666667</ele><time>2026-05-02T11:11:08.999Z</time></trkpt><trkpt lat="43.0299448" lon="12.1605744"><ele>348.3333333333333</ele><time>2026-05-02T11:11:10Z</time></trkpt><trkpt lat="43.0299197" lon="12.160682"><ele>347.0</ele><time>2026-05-02T11:11:10.998Z</time></trkpt><trkpt lat="43.0298856" lon="12.160758"><ele>345.66666666666663</ele><time>2026-05-02T11:11:11.998Z</time></trkpt><trkpt lat="43.0298427" lon="12.1608216"><ele>344.3333333333333</ele><time>2026-05-02T11:11:12.997Z</time></trkpt><trkpt lat="43.02978" lon="12.1608589"><ele>343.0</ele><time>2026-05-02T11:11:13.999Z</time></trkpt><trkpt lat="43.029701" lon="12.1609038"><ele>343.0</ele><time>2026-05-02T11:11:15Z</time></trkpt><trkpt lat="43.0296268" lon="12.1609568"><ele>343.0</ele><time>2026-05-02T11:11:15.999Z</time></trkpt><trkpt lat="43.0295496" lon="12.1610292"><ele>343.0</ele><time>2026-05-02T11:11:16.999Z</time></trkpt><trkpt lat="43.0294797" lon="12.1611106"><ele>343.0</ele><time>2026-05-02T11:11:17.999Z</time></trkpt><trkpt lat="43.02942" lon="12.1611943"><ele>343.0</ele><time>2026-05-02T11:11:19Z</time></trkpt><trkpt lat="43.0293726" lon="12.1613021"><ele>343.0</ele><time>2026-05-02T11:11:20Z</time></trkpt><trkpt lat="43.0293321" lon="12.1614046"><ele>343.0</ele><time>2026-05-02T11:11:21Z</time></trkpt><trkpt lat="43.0293116" lon="12.1615124"><ele>343.0</ele><time>2026-05-02T11:11:22Z</time></trkpt><trkpt lat="43.0293013" lon="12.1616143"><ele>343.0</ele><time>2026-05-02T11:11:23Z</time></trkpt><trkpt lat="43.0292836" lon="12.1617159"><ele>343.0</ele><time>2026-05-02T11:11:24Z</time></trkpt><trkpt lat="43.0292785" lon="12.1618089"><ele>343.0</ele><time>2026-05-02T11:11:24.998Z</time></trkpt><trkpt lat="43.0292795" lon="12.1619528"><ele>343.0</ele><time>2026-05-02T11:11:27Z</time></trkpt><trkpt lat="43.0293058" lon="12.1620609"><ele>344.5</ele><time>2026-05-02T11:11:29.999Z</time></trkpt><trkpt lat="43.0293689" lon="12.1620567"><ele>346.0</ele><time>2026-05-02T11:11:30.996Z</time></trkpt><trkpt lat="43.0294778" lon="12.1620075"><ele>347.5</ele><time>2026-05-02T11:11:33Z</time></trkpt><trkpt lat="43.0295427" lon="12.1619853"><ele>349.0</ele><time>2026-05-02T11:11:34Z</time></trkpt><trkpt lat="43.0296277" lon="12.161965"><ele>350.5</ele><time>2026-05-02T11:11:35Z</time></trkpt><trkpt lat="43.0297077" lon="12.1619539"><ele>352.0</ele><time>2026-05-02T11:11:36Z</time></trkpt><trkpt lat="43.0297861" lon="12.1619478"><ele>352.0</ele><time>2026-05-02T11:11:37Z</time></trkpt><trkpt lat="43.0298645" lon="12.1619707"><ele>352.0</ele><time>2026-05-02T11:11:38Z</time></trkpt><trkpt lat="43.0299601" lon="12.1620126"><ele>352.0</ele><time>2026-05-02T11:11:39Z</time></trkpt><trkpt lat="43.0300505" lon="12.1620623"><ele>352.0</ele><time>2026-05-02T11:11:40Z</time></trkpt><trkpt lat="43.030144" lon="12.1621274"><ele>352.0</ele><time>2026-05-02T11:11:41Z</time></trkpt><trkpt lat="43.0302335" lon="12.1621924"><ele>353.6</ele><time>2026-05-02T11:11:42Z</time></trkpt><trkpt lat="43.0303191" lon="12.1622624"><ele>355.20000000000005</ele><time>2026-05-02T11:11:42.997Z</time></trkpt><trkpt lat="43.0304049" lon="12.1623275"><ele>356.8</ele><time>2026-05-02T11:11:43.999Z</time></trkpt><trkpt lat="43.0304897" lon="12.1623983"><ele>358.4</ele><time>2026-05-02T11:11:45Z</time></trkpt><trkpt lat="43.0305717" lon="12.1624663"><ele>360.0</ele><time>2026-05-02T11:11:46Z</time></trkpt><trkpt lat="43.0306558" lon="12.1625217"><ele>360.6</ele><time>2026-05-02T11:11:47Z</time></trkpt><trkpt lat="43.0307475" lon="12.1625577"><ele>361.2</ele><time>2026-05-02T11:11:47.999Z</time></trkpt><trkpt lat="43.0308476" lon="12.1625651"><ele>361.79999999999995</ele><time>2026-05-02T11:11:49Z</time></trkpt><trkpt lat="43.0309489" lon="12.1625616"><ele>362.4</ele><time>2026-05-02T11:11:50Z</time></trkpt><trkpt lat="43.0310602" lon="12.1625469"><ele>363.0</ele><time>2026-05-02T11:11:51Z</time></trkpt><trkpt lat="43.0311821" lon="12.1625294"><ele>366.0</ele><time>2026-05-02T11:11:52Z</time></trkpt><trkpt lat="43.0313045" lon="12.162517"><ele>369.0</ele><time>2026-05-02T11:11:53Z</time></trkpt><trkpt lat="43.0314302" lon="12.162505"><ele>372.0</ele><time>2026-05-02T11:11:53.998Z</time></trkpt><trkpt lat="43.031563" lon="12.1624945"><ele>375.0</ele><time>2026-05-02T11:11:55Z</time></trkpt><trkpt lat="43.0316794" lon="12.1624941"><ele>376.5</ele><time>2026-05-02T11:11:56Z</time></trkpt><trkpt lat="43.0317823" lon="12.1624867"><ele>378.0</ele><time>2026-05-02T11:11:57Z</time></trkpt><trkpt lat="43.0318699" lon="12.1624881"><ele>379.5</ele><time>2026-05-02T11:11:58Z</time></trkpt><trkpt lat="43.0319528" lon="12.16248"><ele>381.0</ele><time>2026-05-02T11:11:58.999Z</time></trkpt><trkpt lat="43.0320277" lon="12.1624818"><ele>382.5</ele><time>2026-05-02T11:12:00Z</time></trkpt><trkpt lat="43.0320962" lon="12.1624855"><ele>384.0</ele><time>2026-05-02T11:12:00.999Z</time></trkpt><trkpt lat="43.0322193" lon="12.1624457"><ele>384.0</ele><time>2026-05-02T11:12:02.999Z</time></trkpt><trkpt lat="43.0322774" lon="12.1623893"><ele>384.0</ele><time>2026-05-02T11:12:03.997Z</time></trkpt><trkpt lat="43.0323327" lon="12.1623325"><ele>384.0</ele><time>2026-05-02T11:12:04.997Z</time></trkpt><trkpt lat="43.0324021" lon="12.1622575"><ele>384.0</ele><time>2026-05-02T11:12:06Z</time></trkpt><trkpt lat="43.0324787" lon="12.1621764"><ele>384.0</ele><time>2026-05-02T11:12:06.999Z</time></trkpt><trkpt lat="43.0325614" lon="12.1620906"><ele>384.0</ele><time>2026-05-02T11:12:07.999Z</time></trkpt><trkpt lat="43.0326496" lon="12.1619863"><ele>383.79999999999995</ele><time>2026-05-02T11:12:09Z</time></trkpt><trkpt lat="43.0327455" lon="12.1618794"><ele>383.59999999999997</ele><time>2026-05-02T11:12:10Z</time></trkpt><trkpt lat="43.0328354" lon="12.1617765"><ele>383.4</ele><time>2026-05-02T11:12:11Z</time></trkpt><trkpt lat="43.0329138" lon="12.1616879"><ele>383.2</ele><time>2026-05-02T11:12:11.995Z</time></trkpt><trkpt lat="43.0329832" lon="12.1616106"><ele>383.0</ele><time>2026-05-02T11:12:12.999Z</time></trkpt><trkpt lat="43.0330433" lon="12.1615526"><ele>381.83333333333337</ele><time>2026-05-02T11:12:13.999Z</time></trkpt><trkpt lat="43.0331203" lon="12.1614759"><ele>380.6666666666667</ele><time>2026-05-02T11:12:15.999Z</time></trkpt><trkpt lat="43.0331764" lon="12.1614178"><ele>379.5</ele><time>2026-05-02T11:12:17.999Z</time></trkpt><trkpt lat="43.033238" lon="12.1613836"><ele>378.3333333333333</ele><time>2026-05-02T11:12:19.996Z</time></trkpt><trkpt lat="43.0333575" lon="12.1613"><ele>377.16666666666663</ele><time>2026-05-02T11:12:22Z</time></trkpt><trkpt lat="43.0334315" lon="12.1612784"><ele>376.0</ele><time>2026-05-02T11:12:23Z</time></trkpt><trkpt lat="43.0335164" lon="12.161266"><ele>375.8333333333333</ele><time>2026-05-02T11:12:24Z</time></trkpt><trkpt lat="43.0336027" lon="12.1612736"><ele>375.66666666666663</ele><time>2026-05-02T11:12:24.996Z</time></trkpt><trkpt lat="43.0336805" lon="12.161306"><ele>375.5</ele><time>2026-05-02T11:12:25.999Z</time></trkpt><trkpt lat="43.0337673" lon="12.1613363"><ele>375.3333333333333</ele><time>2026-05-02T11:12:26.999Z</time></trkpt><trkpt lat="43.0338483" lon="12.16138"><ele>375.1666666666667</ele><time>2026-05-02T11:12:27.998Z</time></trkpt><trkpt lat="43.0339248" lon="12.1614252"><ele>375.0</ele><time>2026-05-02T11:12:28.999Z</time></trkpt><trkpt lat="43.0340104" lon="12.1615031"><ele>375.2</ele><time>2026-05-02T11:12:29.999Z</time></trkpt><trkpt lat="43.0340898" lon="12.1615576"><ele>375.4</ele><time>2026-05-02T11:12:31Z</time></trkpt><trkpt lat="43.0341752" lon="12.1616088"><ele>375.6</ele><time>2026-05-02T11:12:32Z</time></trkpt><trkpt lat="43.034271" lon="12.1616651"><ele>375.8</ele><time>2026-05-02T11:12:33Z</time></trkpt><trkpt lat="43.0343639" lon="12.1617093"><ele>376.0</ele><time>2026-05-02T11:12:33.999Z</time></trkpt><trkpt lat="43.0344628" lon="12.1617267"><ele>379.0</ele><time>2026-05-02T11:12:34.999Z</time></trkpt><trkpt lat="43.0345697" lon="12.1617262"><ele>382.0</ele><time>2026-05-02T11:12:36Z</time></trkpt><trkpt lat="43.0346833" lon="12.1617309"><ele>385.0</ele><time>2026-05-02T11:12:36.999Z</time></trkpt><trkpt lat="43.0348077" lon="12.1617278"><ele>388.0</ele><time>2026-05-02T11:12:38Z</time></trkpt><trkpt lat="43.0349406" lon="12.1617268"><ele>389.75</ele><time>2026-05-02T11:12:38.998Z</time></trkpt><trkpt lat="43.0350712" lon="12.1617207"><ele>391.5</ele><time>2026-05-02T11:12:39.999Z</time></trkpt><trkpt lat="43.0352113" lon="12.1617136"><ele>393.25</ele><time>2026-05-02T11:12:40.998Z</time></trkpt><trkpt lat="43.0353406" lon="12.161721"><ele>395.0</ele><time>2026-05-02T11:12:42Z</time></trkpt><trkpt lat="43.0354635" lon="12.1617144"><ele>395.0</ele><time>2026-05-02T11:12:43Z</time></trkpt><trkpt lat="43.0355814" lon="12.1617097"><ele>395.0</ele><time>2026-05-02T11:12:44Z</time></trkpt><trkpt lat="43.0356949" lon="12.1617084"><ele>395.0</ele><time>2026-05-02T11:12:44.997Z</time></trkpt><trkpt lat="43.035796" lon="12.1617149"><ele>395.0</ele><time>2026-05-02T11:12:45.994Z</time></trkpt><trkpt lat="43.035875" lon="12.1617183"><ele>395.0</ele><time>2026-05-02T11:12:46.997Z</time></trkpt><trkpt lat="43.0359713" lon="12.1617132"><ele>395.0</ele><time>2026-05-02T11:12:48.999Z</time></trkpt><trkpt lat="43.0360076" lon="12.1616072"><ele>395.0</ele><time>2026-05-02T11:12:51Z</time></trkpt><trkpt lat="43.0360349" lon="12.16147"><ele>395.0</ele><time>2026-05-02T11:12:52.999Z</time></trkpt><trkpt lat="43.0360712" lon="12.1613312"><ele>395.0</ele><time>2026-05-02T11:12:54.997Z</time></trkpt><trkpt lat="43.0360994" lon="12.1611735"><ele>395.0</ele><time>2026-05-02T11:12:56.997Z</time></trkpt><trkpt lat="43.036121" lon="12.1610906"><ele>394.99999999999994</ele><time>2026-05-02T11:12:58Z</time></trkpt><trkpt lat="43.0361585" lon="12.1610025"><ele>395.0</ele><time>2026-05-02T11:12:58.994Z</time></trkpt><trkpt lat="43.0362135" lon="12.1609178"><ele>395.0</ele><time>2026-05-02T11:12:59.996Z</time></trkpt><trkpt lat="43.0362747" lon="12.1608581"><ele>395.0</ele><time>2026-05-02T11:13:00.996Z</time></trkpt><trkpt lat="43.0363285" lon="12.160799"><ele>394.99999999999994</ele><time>2026-05-02T11:13:01.999Z</time></trkpt><trkpt lat="43.0364086" lon="12.1606947"><ele>395.0</ele><time>2026-05-02T11:13:03.999Z</time></trkpt><trkpt lat="43.0364586" lon="12.1606178"><ele>392.8</ele><time>2026-05-02T11:13:05.996Z</time></trkpt><trkpt lat="43.0365047" lon="12.1605437"><ele>390.6</ele><time>2026-05-02T11:13:08Z</time></trkpt><trkpt lat="43.0365502" lon="12.1604265"><ele>388.4</ele><time>2026-05-02T11:13:09.997Z</time></trkpt><trkpt lat="43.0366039" lon="12.1603022"><ele>386.2</ele><time>2026-05-02T11:13:12Z</time></trkpt><trkpt lat="43.0366608" lon="12.1601717"><ele>384.0</ele><time>2026-05-02T11:13:13.996Z</time></trkpt><trkpt lat="43.0367137" lon="12.1600383"><ele>384.0</ele><time>2026-05-02T11:13:16Z</time></trkpt><trkpt lat="43.0367672" lon="12.1599124"><ele>384.0</ele><time>2026-05-02T11:13:18Z</time></trkpt><trkpt lat="43.0368377" lon="12.1598109"><ele>384.0</ele><time>2026-05-02T11:13:19.998Z</time></trkpt><trkpt lat="43.0369048" lon="12.1597371"><ele>384.0</ele><time>2026-05-02T11:13:21.996Z</time></trkpt><trkpt lat="43.0369788" lon="12.1596792"><ele>384.0</ele><time>2026-05-02T11:13:24Z</time></trkpt><trkpt lat="43.0370683" lon="12.1596536"><ele>383.6</ele><time>2026-05-02T11:13:25.999Z</time></trkpt><trkpt lat="43.0371466" lon="12.1596178"><ele>383.2</ele><time>2026-05-02T11:13:27.999Z</time></trkpt><trkpt lat="43.037238" lon="12.1595517"><ele>382.8</ele><time>2026-05-02T11:13:30Z</time></trkpt><trkpt lat="43.0373383" lon="12.1594697"><ele>382.40000000000003</ele><time>2026-05-02T11:13:32Z</time></trkpt><trkpt lat="43.0374272" lon="12.1593916"><ele>382.0</ele><time>2026-05-02T11:13:33.998Z</time></trkpt><trkpt lat="43.0374839" lon="12.1592973"><ele>382.0</ele><time>2026-05-02T11:13:36Z</time></trkpt><trkpt lat="43.0375046" lon="12.1591929"><ele>382.0</ele><time>2026-05-02T11:13:38Z</time></trkpt><trkpt lat="43.037541" lon="12.1590765"><ele>382.0</ele><time>2026-05-02T11:13:47Z</time></trkpt><trkpt lat="43.0375494" lon="12.1589873"><ele>382.0</ele><time>2026-05-02T11:13:47.997Z</time></trkpt><trkpt lat="43.0375716" lon="12.1588858"><ele>382.0</ele><time>2026-05-02T11:13:48.999Z</time></trkpt><trkpt lat="43.037573" lon="12.1587543"><ele>382.0</ele><time>2026-05-02T11:13:51Z</time></trkpt><trkpt lat="43.0375536" lon="12.1586689"><ele>381.5714285714286</ele><time>2026-05-02T11:14:10Z</time></trkpt><trkpt lat="43.0375046" lon="12.1586096"><ele>381.1428571428571</ele><time>2026-05-02T11:14:13.997Z</time></trkpt><trkpt lat="43.0374464" lon="12.1585519"><ele>380.7142857142857</ele><time>2026-05-02T11:14:16Z</time></trkpt><trkpt lat="43.0373994" lon="12.1584724"><ele>380.28571428571433</ele><time>2026-05-02T11:14:19.999Z</time></trkpt><trkpt lat="43.0373624" lon="12.1583927"><ele>379.8571428571429</ele><time>2026-05-02T11:14:23Z</time></trkpt><trkpt lat="43.0373281" lon="12.1583057"><ele>379.42857142857144</ele><time>2026-05-02T11:14:27Z</time></trkpt><trkpt lat="43.0372844" lon="12.1582033"><ele>379.0</ele><time>2026-05-02T11:14:30.996Z</time></trkpt><trkpt lat="43.0372414" lon="12.1581281"><ele>379.00000000000006</ele><time>2026-05-02T11:14:33Z</time></trkpt><trkpt lat="43.0371931" lon="12.1580666"><ele>379.0</ele><time>2026-05-02T11:14:35Z</time></trkpt><trkpt lat="43.0371536" lon="12.1579897"><ele>379.0</ele><time>2026-05-02T11:14:37Z</time></trkpt><trkpt lat="43.0371153" lon="12.1579119"><ele>379.0</ele><time>2026-05-02T11:14:38.999Z</time></trkpt><trkpt lat="43.037084" lon="12.1578295"><ele>379.0</ele><time>2026-05-02T11:14:41.999Z</time></trkpt><trkpt lat="43.0370365" lon="12.1577242"><ele>379.00000000000006</ele><time>2026-05-02T11:14:46Z</time></trkpt><trkpt lat="43.0370035" lon="12.1576334"><ele>379.0</ele><time>2026-05-02T11:14:48Z</time></trkpt><trkpt lat="43.036971" lon="12.1575474"><ele>379.00000000000006</ele><time>2026-05-02T11:14:51Z</time></trkpt><trkpt lat="43.0369437" lon="12.1574651"><ele>379.0</ele><time>2026-05-02T11:14:54Z</time></trkpt><trkpt lat="43.036927" lon="12.1573608"><ele>379.0</ele><time>2026-05-02T11:14:57.999Z</time></trkpt><trkpt lat="43.0369106" lon="12.1572652"><ele>379.0</ele><time>2026-05-02T11:15:01Z</time></trkpt><trkpt lat="43.0368809" lon="12.1571546"><ele>379.0</ele><time>2026-05-02T11:15:10Z</time></trkpt><trkpt lat="43.0368545" lon="12.1570609"><ele>379.00000000000006</ele><time>2026-05-02T11:15:12Z</time></trkpt><trkpt lat="43.0368315" lon="12.1569677"><ele>379.0</ele><time>2026-05-02T11:15:14Z</time></trkpt><trkpt lat="43.0368193" lon="12.1568561"><ele>380.3333333333333</ele><time>2026-05-02T11:15:16.996Z</time></trkpt><trkpt lat="43.0368741" lon="12.15672"><ele>381.66666666666663</ele><time>2026-05-02T11:15:19Z</time></trkpt><trkpt lat="43.0369295" lon="12.1565954"><ele>383.0</ele><time>2026-05-02T11:15:20.999Z</time></trkpt><trkpt lat="43.0369614" lon="12.1565209"><ele>384.3333333333333</ele><time>2026-05-02T11:15:21.998Z</time></trkpt><trkpt lat="43.0369952" lon="12.1564386"><ele>385.6666666666667</ele><time>2026-05-02T11:15:23Z</time></trkpt><trkpt lat="43.037036" lon="12.1563515"><ele>387.0</ele><time>2026-05-02T11:15:24Z</time></trkpt><trkpt lat="43.0371114" lon="12.1562281"><ele>387.1666666666667</ele><time>2026-05-02T11:15:25.995Z</time></trkpt><trkpt lat="43.0371561" lon="12.1561573"><ele>387.33333333333337</ele><time>2026-05-02T11:15:26.997Z</time></trkpt><trkpt lat="43.0372111" lon="12.156095"><ele>387.5</ele><time>2026-05-02T11:15:28Z</time></trkpt><trkpt lat="43.0372608" lon="12.1560264"><ele>387.6666666666667</ele><time>2026-05-02T11:15:29Z</time></trkpt><trkpt lat="43.037316" lon="12.1559545"><ele>387.83333333333337</ele><time>2026-05-02T11:15:30Z</time></trkpt><trkpt lat="43.0373848" lon="12.1558794"><ele>388.0</ele><time>2026-05-02T11:15:31Z</time></trkpt><trkpt lat="43.0374499" lon="12.1558071"><ele>391.4</ele><time>2026-05-02T11:15:32Z</time></trkpt><trkpt lat="43.0375184" lon="12.1557362"><ele>394.79999999999995</ele><time>2026-05-02T11:15:32.997Z</time></trkpt><trkpt lat="43.0375873" lon="12.1556576"><ele>398.2</ele><time>2026-05-02T11:15:33.996Z</time></trkpt><trkpt lat="43.0376602" lon="12.155574"><ele>401.6</ele><time>2026-05-02T11:15:35Z</time></trkpt><trkpt lat="43.0377304" lon="12.1554914"><ele>405.0</ele><time>2026-05-02T11:15:35.998Z</time></trkpt><trkpt lat="43.0377985" lon="12.1554054"><ele>405.0</ele><time>2026-05-02T11:15:36.999Z</time></trkpt><trkpt lat="43.0378702" lon="12.1553189"><ele>405.0</ele><time>2026-05-02T11:15:37.996Z</time></trkpt><trkpt lat="43.0379446" lon="12.1552365"><ele>405.0</ele><time>2026-05-02T11:15:38.999Z</time></trkpt><trkpt lat="43.0380198" lon="12.1551466"><ele>405.0</ele><time>2026-05-02T11:15:39.998Z</time></trkpt><trkpt lat="43.0380986" lon="12.1550433"><ele>405.0</ele><time>2026-05-02T11:15:40.999Z</time></trkpt><trkpt lat="43.0381847" lon="12.1549621"><ele>404.0</ele><time>2026-05-02T11:15:41.999Z</time></trkpt><trkpt lat="43.0382762" lon="12.154858"><ele>403.0</ele><time>2026-05-02T11:15:43Z</time></trkpt><trkpt lat="43.0383638" lon="12.1547611"><ele>402.0</ele><time>2026-05-02T11:15:44Z</time></trkpt><trkpt lat="43.0384539" lon="12.1546567"><ele>401.0</ele><time>2026-05-02T11:15:45Z</time></trkpt><trkpt lat="43.0385436" lon="12.154551"><ele>406.75</ele><time>2026-05-02T11:15:45.995Z</time></trkpt><trkpt lat="43.0386353" lon="12.1544476"><ele>412.5</ele><time>2026-05-02T11:15:46.997Z</time></trkpt><trkpt lat="43.0387333" lon="12.1543425"><ele>418.25</ele><time>2026-05-02T11:15:48Z</time></trkpt><trkpt lat="43.0388215" lon="12.1542317"><ele>424.0</ele><time>2026-05-02T11:15:48.999Z</time></trkpt><trkpt lat="43.0389089" lon="12.1541383"><ele>424.0</ele><time>2026-05-02T11:15:50Z</time></trkpt><trkpt lat="43.0389963" lon="12.1540539"><ele>424.0</ele><time>2026-05-02T11:15:51Z</time></trkpt><trkpt lat="43.039078" lon="12.1539706"><ele>424.0</ele><time>2026-05-02T11:15:52Z</time></trkpt><trkpt lat="43.039144" lon="12.1538944"><ele>424.0</ele><time>2026-05-02T11:15:53Z</time></trkpt><trkpt lat="43.0391987" lon="12.1538191"><ele>424.0</ele><time>2026-05-02T11:15:53.999Z</time></trkpt><trkpt lat="43.0392761" lon="12.1537146"><ele>427.4</ele><time>2026-05-02T11:15:55.999Z</time></trkpt><trkpt lat="43.0393586" lon="12.1536148"><ele>430.79999999999995</ele><time>2026-05-02T11:15:58Z</time></trkpt><trkpt lat="43.0394222" lon="12.1535119"><ele>434.20000000000005</ele><time>2026-05-02T11:15:59.999Z</time></trkpt><trkpt lat="43.03948" lon="12.1534304"><ele>437.6</ele><time>2026-05-02T11:16:02Z</time></trkpt><trkpt lat="43.0395448" lon="12.1533743"><ele>441.0</ele><time>2026-05-02T11:16:03.998Z</time></trkpt><trkpt lat="43.0396192" lon="12.1533068"><ele>441.0</ele><time>2026-05-02T11:16:06Z</time></trkpt><trkpt lat="43.0396982" lon="12.1532151"><ele>441.0</ele><time>2026-05-02T11:16:07.999Z</time></trkpt><trkpt lat="43.0397492" lon="12.1531645"><ele>441.0</ele><time>2026-05-02T11:16:09Z</time></trkpt><trkpt lat="43.039805" lon="12.1531196"><ele>441.0</ele><time>2026-05-02T11:16:10Z</time></trkpt><trkpt lat="43.0398659" lon="12.1530655"><ele>441.0</ele><time>2026-05-02T11:16:10.998Z</time></trkpt><trkpt lat="43.0399202" lon="12.1530126"><ele>441.0</ele><time>2026-05-02T11:16:11.999Z</time></trkpt><trkpt lat="43.0399679" lon="12.1529477"><ele>441.0</ele><time>2026-05-02T11:16:12.998Z</time></trkpt><trkpt lat="43.0400289" lon="12.1528557"><ele>444.1666666666667</ele><time>2026-05-02T11:16:13.995Z</time></trkpt><trkpt lat="43.0400852" lon="12.1527617"><ele>447.33333333333337</ele><time>2026-05-02T11:16:14.999Z</time></trkpt><trkpt lat="43.0401311" lon="12.1526679"><ele>450.5</ele><time>2026-05-02T11:16:16Z</time></trkpt><trkpt lat="43.0401868" lon="12.1525971"><ele>453.6666666666667</ele><time>2026-05-02T11:16:17Z</time></trkpt><trkpt lat="43.0402545" lon="12.152527"><ele>456.83333333333337</ele><time>2026-05-02T11:16:18.998Z</time></trkpt><trkpt lat="43.0402609" lon="12.1526451"><ele>460.0</ele><time>2026-05-02T11:17:23Z</time></trkpt><trkpt lat="43.0402287" lon="12.1527652"><ele>460.00000000000006</ele><time>2026-05-02T11:17:25Z</time></trkpt><trkpt lat="43.0402067" lon="12.1528693"><ele>460.0</ele><time>2026-05-02T11:17:26.999Z</time></trkpt><trkpt lat="43.0401767" lon="12.1529678"><ele>460.0</ele><time>2026-05-02T11:17:29Z</time></trkpt><trkpt lat="43.0401516" lon="12.1531106"><ele>460.0</ele><time>2026-05-02T11:17:30.996Z</time></trkpt><trkpt lat="43.0401291" lon="12.1531969"><ele>460.00000000000006</ele><time>2026-05-02T11:17:32Z</time></trkpt><trkpt lat="43.0401049" lon="12.1532922"><ele>460.0</ele><time>2026-05-02T11:17:33Z</time></trkpt><trkpt lat="43.0400785" lon="12.1533902"><ele>461.50000000000006</ele><time>2026-05-02T11:17:34Z</time></trkpt><trkpt lat="43.0400503" lon="12.1534685"><ele>463.0</ele><time>2026-05-02T11:17:35Z</time></trkpt><trkpt lat="43.0400072" lon="12.1535854"><ele>464.5</ele><time>2026-05-02T11:17:36.998Z</time></trkpt><trkpt lat="43.0399771" lon="12.1536887"><ele>466.0</ele><time>2026-05-02T11:17:39Z</time></trkpt><trkpt lat="43.0399389" lon="12.1538117"><ele>467.50000000000006</ele><time>2026-05-02T11:17:41Z</time></trkpt><trkpt lat="43.0399046" lon="12.1539539"><ele>469.0</ele><time>2026-05-02T11:17:43Z</time></trkpt><trkpt lat="43.0398405" lon="12.1540897"><ele>465.0</ele><time>2026-05-02T11:17:45Z</time></trkpt><trkpt lat="43.0398199" lon="12.1541711"><ele>461.0</ele><time>2026-05-02T11:17:46Z</time></trkpt><trkpt lat="43.0397834" lon="12.1543099"><ele>457.0</ele><time>2026-05-02T11:17:47.998Z</time></trkpt><trkpt lat="43.0397447" lon="12.1544414"><ele>453.0</ele><time>2026-05-02T11:17:49.999Z</time></trkpt><trkpt lat="43.0396957" lon="12.1545763"><ele>449.0</ele><time>2026-05-02T11:17:51.997Z</time></trkpt><trkpt lat="43.0396607" lon="12.1547239"><ele>451.49999999999994</ele><time>2026-05-02T11:17:53.999Z</time></trkpt><trkpt lat="43.0396295" lon="12.1548812"><ele>454.0</ele><time>2026-05-02T11:17:56Z</time></trkpt><trkpt lat="43.0396054" lon="12.1549722"><ele>456.5</ele><time>2026-05-02T11:17:57Z</time></trkpt><trkpt lat="43.0395792" lon="12.155063"><ele>459.0</ele><time>2026-05-02T11:17:57.996Z</time></trkpt><trkpt lat="43.0395699" lon="12.1551502"><ele>461.49999999999994</ele><time>2026-05-02T11:17:59Z</time></trkpt><trkpt lat="43.0395523" lon="12.1552421"><ele>464.0</ele><time>2026-05-02T11:17:59.999Z</time></trkpt><trkpt lat="43.0395436" lon="12.1553993"><ele>464.0</ele><time>2026-05-02T11:18:02Z</time></trkpt><trkpt lat="43.039558" lon="12.155539"><ele>464.0</ele><time>2026-05-02T11:18:04Z</time></trkpt><trkpt lat="43.039566" lon="12.1556731"><ele>464.0</ele><time>2026-05-02T11:18:05.997Z</time></trkpt><trkpt lat="43.0395919" lon="12.1558039"><ele>464.0</ele><time>2026-05-02T11:18:08Z</time></trkpt><trkpt lat="43.0396363" lon="12.1559338"><ele>464.0</ele><time>2026-05-02T11:18:09.997Z</time></trkpt><trkpt lat="43.0397065" lon="12.1560503"><ele>466.0</ele><time>2026-05-02T11:18:11.995Z</time></trkpt><trkpt lat="43.0397995" lon="12.1561335"><ele>468.0</ele><time>2026-05-02T11:18:14Z</time></trkpt><trkpt lat="43.0399005" lon="12.1562068"><ele>470.0</ele><time>2026-05-02T11:18:16Z</time></trkpt><trkpt lat="43.0400008" lon="12.1562547"><ele>472.0</ele><time>2026-05-02T11:18:18Z</time></trkpt><trkpt lat="43.0401054" lon="12.1562645"><ele>474.0</ele><time>2026-05-02T11:18:20Z</time></trkpt><trkpt lat="43.0402214" lon="12.1563074"><ele>478.5</ele><time>2026-05-02T11:18:22Z</time></trkpt><trkpt lat="43.0402914" lon="12.1563368"><ele>483.0</ele><time>2026-05-02T11:18:22.999Z</time></trkpt><trkpt lat="43.0403695" lon="12.1563565"><ele>487.5</ele><time>2026-05-02T11:18:24Z</time></trkpt><trkpt lat="43.0404474" lon="12.1563799"><ele>492.0</ele><time>2026-05-02T11:18:25Z</time></trkpt><trkpt lat="43.0405258" lon="12.1563962"><ele>496.5</ele><time>2026-05-02T11:18:25.998Z</time></trkpt><trkpt lat="43.0406018" lon="12.1564075"><ele>501.0</ele><time>2026-05-02T11:18:27Z</time></trkpt><trkpt lat="43.0406675" lon="12.1564116"><ele>501.0</ele><time>2026-05-02T11:18:28Z</time></trkpt><trkpt lat="43.0407744" lon="12.1564119"><ele>501.0</ele><time>2026-05-02T11:18:29.999Z</time></trkpt><trkpt lat="43.0408451" lon="12.1564137"><ele>501.0</ele><time>2026-05-02T11:18:31Z</time></trkpt><trkpt lat="43.0409141" lon="12.1564229"><ele>501.0</ele><time>2026-05-02T11:18:32Z</time></trkpt><trkpt lat="43.0409799" lon="12.1564349"><ele>501.0</ele><time>2026-05-02T11:18:33Z</time></trkpt><trkpt lat="43.0410526" lon="12.1564417"><ele>501.0</ele><time>2026-05-02T11:18:33.996Z</time></trkpt><trkpt lat="43.0411313" lon="12.1564506"><ele>505.0</ele><time>2026-05-02T11:18:34.997Z</time></trkpt><trkpt lat="43.0411957" lon="12.1564543"><ele>509.0</ele><time>2026-05-02T11:18:35.998Z</time></trkpt><trkpt lat="43.0412834" lon="12.1564516"><ele>513.0</ele><time>2026-05-02T11:18:38Z</time></trkpt><trkpt lat="43.0413614" lon="12.1564608"><ele>517.0</ele><time>2026-05-02T11:18:40.998Z</time></trkpt><trkpt lat="43.0414303" lon="12.1564549"><ele>521.0</ele><time>2026-05-02T11:18:43Z</time></trkpt><trkpt lat="43.0415104" lon="12.1564339"><ele>525.0</ele><time>2026-05-02T11:18:45Z</time></trkpt><trkpt lat="43.0415931" lon="12.1564141"><ele>527.8</ele><time>2026-05-02T11:18:46.999Z</time></trkpt><trkpt lat="43.0416864" lon="12.1563803"><ele>530.6</ele><time>2026-05-02T11:18:48.999Z</time></trkpt><trkpt lat="43.0417973" lon="12.1563456"><ele>533.4</ele><time>2026-05-02T11:18:50.997Z</time></trkpt><trkpt lat="43.0419039" lon="12.1563366"><ele>536.2</ele><time>2026-05-02T11:18:53Z</time></trkpt><trkpt lat="43.0420104" lon="12.1563462"><ele>539.0</ele><time>2026-05-02T11:18:54.999Z</time></trkpt><trkpt lat="43.0421255" lon="12.1563525"><ele>539.0</ele><time>2026-05-02T11:18:57Z</time></trkpt><trkpt lat="43.0422342" lon="12.1563767"><ele>539.0</ele><time>2026-05-02T11:18:58.999Z</time></trkpt><trkpt lat="43.0423592" lon="12.1564008"><ele>539.0</ele><time>2026-05-02T11:19:01Z</time></trkpt><trkpt lat="43.0424275" lon="12.1564093"><ele>539.0</ele><time>2026-05-02T11:19:01.999Z</time></trkpt><trkpt lat="43.0425434" lon="12.156408"><ele>539.0</ele><time>2026-05-02T11:19:04Z</time></trkpt><trkpt lat="43.042608" lon="12.1564186"><ele>540.1666666666666</ele><time>2026-05-02T11:19:05Z</time></trkpt><trkpt lat="43.0426935" lon="12.1564241"><ele>541.3333333333333</ele><time>2026-05-02T11:19:07Z</time></trkpt><trkpt lat="43.0427572" lon="12.1564453"><ele>542.5</ele><time>2026-05-02T11:19:10Z</time></trkpt><trkpt lat="43.0428513" lon="12.1564421"><ele>543.6666666666666</ele><time>2026-05-02T11:19:14Z</time></trkpt><trkpt lat="43.042923" lon="12.1564361"><ele>544.8333333333334</ele><time>2026-05-02T11:19:15.998Z</time></trkpt><trkpt lat="43.0430235" lon="12.1564305"><ele>546.0</ele><time>2026-05-02T11:19:17.997Z</time></trkpt><trkpt lat="43.0431562" lon="12.1564378"><ele>546.0</ele><time>2026-05-02T11:19:19.999Z</time></trkpt><trkpt lat="43.0432339" lon="12.1564433"><ele>546.0</ele><time>2026-05-02T11:19:20.997Z</time></trkpt><trkpt lat="43.0433006" lon="12.1564345"><ele>546.0</ele><time>2026-05-02T11:19:21.998Z</time></trkpt><trkpt lat="43.0434025" lon="12.1564396"><ele>546.0</ele><time>2026-05-02T11:19:24Z</time></trkpt><trkpt lat="43.0435036" lon="12.1564603"><ele>546.0</ele><time>2026-05-02T11:19:26Z</time></trkpt><trkpt lat="43.0436031" lon="12.1564527"><ele>546.0</ele><time>2026-05-02T11:19:28Z</time></trkpt><trkpt lat="43.0437108" lon="12.1564655"><ele>545.3333333333334</ele><time>2026-05-02T11:19:29.998Z</time></trkpt><trkpt lat="43.0437793" lon="12.1564697"><ele>544.6666666666666</ele><time>2026-05-02T11:19:31Z</time></trkpt><trkpt lat="43.0438596" lon="12.1564704"><ele>544.0</ele><time>2026-05-02T11:19:32Z</time></trkpt><trkpt lat="43.0439165" lon="12.1565173"><ele>543.3333333333333</ele><time>2026-05-02T11:19:32.998Z</time></trkpt><trkpt lat="43.0439756" lon="12.1566117"><ele>542.6666666666666</ele><time>2026-05-02T11:19:35Z</time></trkpt><trkpt lat="43.0440238" lon="12.156724"><ele>542.0</ele><time>2026-05-02T11:19:37Z</time></trkpt><trkpt lat="43.0440343" lon="12.1568961"><ele>538.6666666666666</ele><time>2026-05-02T11:19:39Z</time></trkpt><trkpt lat="43.0440494" lon="12.1570035"><ele>535.3333333333333</ele><time>2026-05-02T11:19:39.996Z</time></trkpt><trkpt lat="43.0440688" lon="12.1571049"><ele>532.0</ele><time>2026-05-02T11:19:40.997Z</time></trkpt><trkpt lat="43.0440834" lon="12.1572449"><ele>528.6666666666666</ele><time>2026-05-02T11:19:42.995Z</time></trkpt><trkpt lat="43.0441602" lon="12.1573031"><ele>525.3333333333334</ele><time>2026-05-02T11:19:44.999Z</time></trkpt><trkpt lat="43.0442348" lon="12.1572479"><ele>522.0</ele><time>2026-05-02T11:19:47Z</time></trkpt><trkpt lat="43.0443368" lon="12.1570867"><ele>522.0</ele><time>2026-05-02T11:19:48.999Z</time></trkpt><trkpt lat="43.0443857" lon="12.1570089"><ele>522.0</ele><time>2026-05-02T11:19:49.998Z</time></trkpt><trkpt lat="43.0444258" lon="12.1569205"><ele>522.0</ele><time>2026-05-02T11:19:51Z</time></trkpt><trkpt lat="43.0444864" lon="12.1568415"><ele>522.0</ele><time>2026-05-02T11:19:51.999Z</time></trkpt><trkpt lat="43.0445483" lon="12.1567686"><ele>522.0</ele><time>2026-05-02T11:19:52.998Z</time></trkpt><trkpt lat="43.0446693" lon="12.1566393"><ele>522.0</ele><time>2026-05-02T11:19:55Z</time></trkpt><trkpt lat="43.0447187" lon="12.1565744"><ele>522.0</ele><time>2026-05-02T11:19:55.999Z</time></trkpt><trkpt lat="43.0447994" lon="12.1564436"><ele>522.0</ele><time>2026-05-02T11:19:58Z</time></trkpt><trkpt lat="43.0448371" lon="12.1563724"><ele>522.0</ele><time>2026-05-02T11:19:59Z</time></trkpt><trkpt lat="43.0448697" lon="12.1562848"><ele>522.0</ele><time>2026-05-02T11:19:59.999Z</time></trkpt><trkpt lat="43.0448792" lon="12.1561809"><ele>522.0</ele><time>2026-05-02T11:20:01Z</time></trkpt><trkpt lat="43.0448994" lon="12.1560705"><ele>522.0</ele><time>2026-05-02T11:20:01.997Z</time></trkpt><trkpt lat="43.0449193" lon="12.1559621"><ele>522.0</ele><time>2026-05-02T11:20:02.997Z</time></trkpt><trkpt lat="43.0449508" lon="12.1558571"><ele>522.0</ele><time>2026-05-02T11:20:03.994Z</time></trkpt><trkpt lat="43.0449894" lon="12.155758"><ele>522.0</ele><time>2026-05-02T11:20:04.996Z</time></trkpt><trkpt lat="43.0450272" lon="12.1556724"><ele>522.0</ele><time>2026-05-02T11:20:05.999Z</time></trkpt><trkpt lat="43.045062" lon="12.1555862"><ele>522.0</ele><time>2026-05-02T11:20:06.998Z</time></trkpt><trkpt lat="43.0450888" lon="12.1554991"><ele>522.1428571428571</ele><time>2026-05-02T11:20:08Z</time></trkpt><trkpt lat="43.0451146" lon="12.1554046"><ele>522.2857142857142</ele><time>2026-05-02T11:20:09Z</time></trkpt><trkpt lat="43.0451474" lon="12.1552997"><ele>522.4285714285713</ele><time>2026-05-02T11:20:09.998Z</time></trkpt><trkpt lat="43.0451849" lon="12.1551949"><ele>522.5714285714286</ele><time>2026-05-02T11:20:10.997Z</time></trkpt><trkpt lat="43.0452098" lon="12.1551074"><ele>522.7142857142857</ele><time>2026-05-02T11:20:11.999Z</time></trkpt><trkpt lat="43.0452487" lon="12.1550388"><ele>522.8571428571428</ele><time>2026-05-02T11:20:12.998Z</time></trkpt><trkpt lat="43.0452857" lon="12.1549506"><ele>523.0</ele><time>2026-05-02T11:20:14Z</time></trkpt><trkpt lat="43.045351" lon="12.1548153"><ele>520.5</ele><time>2026-05-02T11:20:15.997Z</time></trkpt><trkpt lat="43.0454116" lon="12.1546929"><ele>518.0</ele><time>2026-05-02T11:20:18Z</time></trkpt><trkpt lat="43.0454617" lon="12.1545998"><ele>515.5</ele><time>2026-05-02T11:20:19.999Z</time></trkpt><trkpt lat="43.0455299" lon="12.1545349"><ele>513.0</ele><time>2026-05-02T11:20:21.999Z</time></trkpt><trkpt lat="43.0455975" lon="12.1545014"><ele>510.50000000000006</ele><time>2026-05-02T11:20:23.997Z</time></trkpt><trkpt lat="43.0456743" lon="12.1544787"><ele>508.0</ele><time>2026-05-02T11:20:25.996Z</time></trkpt><trkpt lat="43.0457578" lon="12.1544637"><ele>504.83333333333337</ele><time>2026-05-02T11:20:27.997Z</time></trkpt><trkpt lat="43.0458256" lon="12.1544195"><ele>501.6666666666667</ele><time>2026-05-02T11:20:29.995Z</time></trkpt><trkpt lat="43.0458897" lon="12.154399"><ele>498.5</ele><time>2026-05-02T11:20:31.997Z</time></trkpt><trkpt lat="43.0459487" lon="12.1543667"><ele>495.33333333333337</ele><time>2026-05-02T11:20:33.997Z</time></trkpt><trkpt lat="43.0460018" lon="12.1542659"><ele>492.1666666666667</ele><time>2026-05-02T11:20:35.999Z</time></trkpt><trkpt lat="43.0460249" lon="12.1541575"><ele>489.0</ele><time>2026-05-02T11:20:37.997Z</time></trkpt><trkpt lat="43.0460631" lon="12.1540529"><ele>486.0</ele><time>2026-05-02T11:20:39.997Z</time></trkpt><trkpt lat="43.0461208" lon="12.153994"><ele>483.0</ele><time>2026-05-02T11:20:41.996Z</time></trkpt><trkpt lat="43.0461961" lon="12.1539601"><ele>480.0</ele><time>2026-05-02T11:20:44Z</time></trkpt><trkpt lat="43.046267" lon="12.1539364"><ele>477.0</ele><time>2026-05-02T11:20:45.999Z</time></trkpt><trkpt lat="43.0463475" lon="12.1539185"><ele>474.0</ele><time>2026-05-02T11:20:48Z</time></trkpt><trkpt lat="43.0464299" lon="12.1538568"><ele>471.0</ele><time>2026-05-02T11:20:49.998Z</time></trkpt><trkpt lat="43.0465023" lon="12.1537963"><ele>471.0</ele><time>2026-05-02T11:20:51.996Z</time></trkpt><trkpt lat="43.0465792" lon="12.1537365"><ele>471.0</ele><time>2026-05-02T11:20:53.999Z</time></trkpt><trkpt lat="43.0466722" lon="12.1537006"><ele>471.0</ele><time>2026-05-02T11:20:55.998Z</time></trkpt><trkpt lat="43.0467698" lon="12.1537267"><ele>471.0</ele><time>2026-05-02T11:20:58Z</time></trkpt><trkpt lat="43.0468755" lon="12.1537549"><ele>471.0</ele><time>2026-05-02T11:20:59.994Z</time></trkpt><trkpt lat="43.0469813" lon="12.1537704"><ele>469.8</ele><time>2026-05-02T11:21:02Z</time></trkpt><trkpt lat="43.0470862" lon="12.1537803"><ele>468.6</ele><time>2026-05-02T11:21:04Z</time></trkpt><trkpt lat="43.0471661" lon="12.1537858"><ele>467.4</ele><time>2026-05-02T11:21:05.999Z</time></trkpt><trkpt lat="43.0472974" lon="12.1537704"><ele>466.2</ele><time>2026-05-02T11:21:07.999Z</time></trkpt><trkpt lat="43.0474096" lon="12.1537449"><ele>465.0</ele><time>2026-05-02T11:21:10Z</time></trkpt><trkpt lat="43.0474768" lon="12.1537499"><ele>464.1666666666667</ele><time>2026-05-02T11:21:10.997Z</time></trkpt><trkpt lat="43.0475422" lon="12.1537445"><ele>463.33333333333337</ele><time>2026-05-02T11:21:11.998Z</time></trkpt><trkpt lat="43.0476439" lon="12.153717"><ele>462.5</ele><time>2026-05-02T11:21:14Z</time></trkpt><trkpt lat="43.0477074" lon="12.1537498"><ele>461.6666666666667</ele><time>2026-05-02T11:21:15.995Z</time></trkpt><trkpt lat="43.0477061" lon="12.1538625"><ele>460.83333333333337</ele><time>2026-05-02T11:21:19Z</time></trkpt><trkpt lat="43.0476658" lon="12.1539376"><ele>460.0</ele><time>2026-05-02T11:21:20.995Z</time></trkpt><trkpt lat="43.0475925" lon="12.1540201"><ele>460.2</ele><time>2026-05-02T11:21:23Z</time></trkpt><trkpt lat="43.047493" lon="12.1540908"><ele>460.4</ele><time>2026-05-02T11:21:24.996Z</time></trkpt><trkpt lat="43.0473849" lon="12.1541586"><ele>460.6</ele><time>2026-05-02T11:21:26.997Z</time></trkpt><trkpt lat="43.0472873" lon="12.1542095"><ele>460.8</ele><time>2026-05-02T11:21:28.999Z</time></trkpt><trkpt lat="43.047212" lon="12.1542873"><ele>461.0</ele><time>2026-05-02T11:21:30.997Z</time></trkpt><trkpt lat="43.0471643" lon="12.154349"><ele>463.0</ele><time>2026-05-02T11:21:32Z</time></trkpt><trkpt lat="43.0470909" lon="12.1544628"><ele>465.0</ele><time>2026-05-02T11:21:33.999Z</time></trkpt><trkpt lat="43.0470056" lon="12.1545717"><ele>467.0</ele><time>2026-05-02T11:21:36Z</time></trkpt><trkpt lat="43.0469616" lon="12.1546407"><ele>469.0</ele><time>2026-05-02T11:21:37Z</time></trkpt><trkpt lat="43.0468698" lon="12.1547234"><ele>471.0</ele><time>2026-05-02T11:21:38.997Z</time></trkpt><trkpt lat="43.0468172" lon="12.154806"><ele>473.6666666666667</ele><time>2026-05-02T11:21:39.999Z</time></trkpt><trkpt lat="43.0467321" lon="12.1549194"><ele>476.33333333333337</ele><time>2026-05-02T11:21:41.997Z</time></trkpt><trkpt lat="43.0467066" lon="12.155014"><ele>479.0</ele><time>2026-05-02T11:21:42.998Z</time></trkpt><trkpt lat="43.0466882" lon="12.1551192"><ele>481.6666666666667</ele><time>2026-05-02T11:21:43.998Z</time></trkpt><trkpt lat="43.0466656" lon="12.1552221"><ele>484.33333333333337</ele><time>2026-05-02T11:21:44.999Z</time></trkpt><trkpt lat="43.0466527" lon="12.1553134"><ele>487.0</ele><time>2026-05-02T11:21:45.997Z</time></trkpt><trkpt lat="43.0465852" lon="12.1554506"><ele>487.0</ele><time>2026-05-02T11:21:47.996Z</time></trkpt><trkpt lat="43.0464639" lon="12.1555589"><ele>487.0</ele><time>2026-05-02T11:21:49.996Z</time></trkpt><trkpt lat="43.0463729" lon="12.155636"><ele>487.0</ele><time>2026-05-02T11:21:51.999Z</time></trkpt><trkpt lat="43.0463194" lon="12.1557335"><ele>487.0</ele><time>2026-05-02T11:21:54Z</time></trkpt><trkpt lat="43.04633" lon="12.1558903"><ele>485.83333333333337</ele><time>2026-05-02T11:21:55.994Z</time></trkpt><trkpt lat="43.0463474" lon="12.1559892"><ele>484.6666666666667</ele><time>2026-05-02T11:21:57Z</time></trkpt><trkpt lat="43.0463351" lon="12.1561154"><ele>483.5</ele><time>2026-05-02T11:21:59Z</time></trkpt><trkpt lat="43.0462944" lon="12.1561938"><ele>482.33333333333337</ele><time>2026-05-02T11:21:59.999Z</time></trkpt><trkpt lat="43.0462424" lon="12.1562808"><ele>481.1666666666667</ele><time>2026-05-02T11:22:01.999Z</time></trkpt><trkpt lat="43.046214" lon="12.1563749"><ele>480.0</ele><time>2026-05-02T11:22:04.995Z</time></trkpt><trkpt lat="43.046224" lon="12.1564954"><ele>479.14285714285717</ele><time>2026-05-02T11:22:07Z</time></trkpt><trkpt lat="43.0462529" lon="12.1565796"><ele>478.2857142857142</ele><time>2026-05-02T11:22:07.999Z</time></trkpt><trkpt lat="43.0462737" lon="12.156676"><ele>477.4285714285714</ele><time>2026-05-02T11:22:08.998Z</time></trkpt><trkpt lat="43.0463139" lon="12.1567785"><ele>476.57142857142856</ele><time>2026-05-02T11:22:10Z</time></trkpt><trkpt lat="43.0463364" lon="12.1568657"><ele>475.71428571428567</ele><time>2026-05-02T11:22:11Z</time></trkpt><trkpt lat="43.0463585" lon="12.156968"><ele>474.8571428571428</ele><time>2026-05-02T11:22:11.999Z</time></trkpt><trkpt lat="43.0463664" lon="12.1570616"><ele>473.99999999999994</ele><time>2026-05-02T11:22:12.996Z</time></trkpt><trkpt lat="43.0463573" lon="12.1572228"><ele>474.0</ele><time>2026-05-02T11:22:14.996Z</time></trkpt><trkpt lat="43.046352" lon="12.1573107"><ele>474.0</ele><time>2026-05-02T11:22:16Z</time></trkpt><trkpt lat="43.0463405" lon="12.157444"><ele>474.0</ele><time>2026-05-02T11:22:17.998Z</time></trkpt><trkpt lat="43.0462788" lon="12.1575657"><ele>474.0</ele><time>2026-05-02T11:22:20Z</time></trkpt><trkpt lat="43.0462006" lon="12.1576441"><ele>474.0</ele><time>2026-05-02T11:22:21.995Z</time></trkpt><trkpt lat="43.0461048" lon="12.1577094"><ele>470.75</ele><time>2026-05-02T11:22:24Z</time></trkpt><trkpt lat="43.0459809" lon="12.1577675"><ele>467.5</ele><time>2026-05-02T11:22:25.998Z</time></trkpt><trkpt lat="43.0458687" lon="12.1578216"><ele>464.25</ele><time>2026-05-02T11:22:27.996Z</time></trkpt><trkpt lat="43.0457491" lon="12.1578442"><ele>461.0</ele><time>2026-05-02T11:22:29.995Z</time></trkpt><trkpt lat="43.04565" lon="12.1578656"><ele>464.49999999999994</ele><time>2026-05-02T11:22:32Z</time></trkpt><trkpt lat="43.0455705" lon="12.1579281"><ele>468.0</ele><time>2026-05-02T11:22:33.997Z</time></trkpt><trkpt lat="43.0455186" lon="12.1580117"><ele>471.5</ele><time>2026-05-02T11:22:35.996Z</time></trkpt><trkpt lat="43.0455536" lon="12.15818"><ele>475.0</ele><time>2026-05-02T11:22:38Z</time></trkpt><trkpt lat="43.0455992" lon="12.1582639"><ele>478.49999999999994</ele><time>2026-05-02T11:22:39Z</time></trkpt><trkpt lat="43.0456115" lon="12.1583573"><ele>482.0</ele><time>2026-05-02T11:22:39.997Z</time></trkpt><trkpt lat="43.0456372" lon="12.1585437"><ele>482.0</ele><time>2026-05-02T11:22:42Z</time></trkpt><trkpt lat="43.0456523" lon="12.1586457"><ele>482.00000000000006</ele><time>2026-05-02T11:22:42.996Z</time></trkpt><trkpt lat="43.0456634" lon="12.1587373"><ele>482.00000000000006</ele><time>2026-05-02T11:22:43.997Z</time></trkpt><trkpt lat="43.0456553" lon="12.1588572"><ele>482.0</ele><time>2026-05-02T11:22:45.999Z</time></trkpt><trkpt lat="43.045626" lon="12.1589882"><ele>482.0</ele><time>2026-05-02T11:22:47.996Z</time></trkpt><trkpt lat="43.0455681" lon="12.15915"><ele>479.8</ele><time>2026-05-02T11:22:49.993Z</time></trkpt><trkpt lat="43.0455235" lon="12.1592341"><ele>477.6</ele><time>2026-05-02T11:22:50.996Z</time></trkpt><trkpt lat="43.0454845" lon="12.159371"><ele>475.40000000000003</ele><time>2026-05-02T11:22:52.997Z</time></trkpt><trkpt lat="43.0454074" lon="12.1594758"><ele>473.20000000000005</ele><time>2026-05-02T11:22:54.997Z</time></trkpt><trkpt lat="43.0453533" lon="12.1595761"><ele>471.0</ele><time>2026-05-02T11:22:56Z</time></trkpt><trkpt lat="43.0454546" lon="12.1597441"><ele>470.0</ele><time>2026-05-02T11:22:56.999Z</time></trkpt><trkpt lat="43.0454797" lon="12.1598731"><ele>469.0</ele><time>2026-05-02T11:22:58Z</time></trkpt><trkpt lat="43.0455437" lon="12.1599755"><ele>468.0</ele><time>2026-05-02T11:22:59Z</time></trkpt><trkpt lat="43.0455353" lon="12.1600758"><ele>467.0</ele><time>2026-05-02T11:23:02Z</time></trkpt><trkpt lat="43.0454912" lon="12.1601456"><ele>466.0</ele><time>2026-05-02T11:23:03.999Z</time></trkpt><trkpt lat="43.0454538" lon="12.1602992"><ele>466.00000000000006</ele><time>2026-05-02T11:23:05.999Z</time></trkpt><trkpt lat="43.0454043" lon="12.1603874"><ele>466.0</ele><time>2026-05-02T11:23:06.996Z</time></trkpt><trkpt lat="43.0453789" lon="12.1604773"><ele>466.0</ele><time>2026-05-02T11:23:07.998Z</time></trkpt><trkpt lat="43.0453593" lon="12.1605679"><ele>466.0</ele><time>2026-05-02T11:23:09Z</time></trkpt><trkpt lat="43.0453909" lon="12.1606821"><ele>466.00000000000006</ele><time>2026-05-02T11:23:09.998Z</time></trkpt><trkpt lat="43.045422" lon="12.1607633"><ele>466.0</ele><time>2026-05-02T11:23:11Z</time></trkpt><trkpt lat="43.0454384" lon="12.1609036"><ele>465.1666666666667</ele><time>2026-05-02T11:23:12.998Z</time></trkpt><trkpt lat="43.0454228" lon="12.1610499"><ele>464.33333333333337</ele><time>2026-05-02T11:23:14.999Z</time></trkpt><trkpt lat="43.0454035" lon="12.1611534"><ele>463.5</ele><time>2026-05-02T11:23:16Z</time></trkpt><trkpt lat="43.045374" lon="12.1612363"><ele>462.66666666666663</ele><time>2026-05-02T11:23:16.996Z</time></trkpt><trkpt lat="43.0453472" lon="12.1613165"><ele>461.8333333333333</ele><time>2026-05-02T11:23:18Z</time></trkpt><trkpt lat="43.0453221" lon="12.1614012"><ele>461.0</ele><time>2026-05-02T11:23:18.998Z</time></trkpt><trkpt lat="43.0452781" lon="12.1614736"><ele>458.20000000000005</ele><time>2026-05-02T11:23:19.997Z</time></trkpt><trkpt lat="43.0452029" lon="12.161621"><ele>455.40000000000003</ele><time>2026-05-02T11:23:22Z</time></trkpt><trkpt lat="43.0451515" lon="12.1616824"><ele>452.6</ele><time>2026-05-02T11:23:22.999Z</time></trkpt><trkpt lat="43.0451027" lon="12.161753"><ele>449.8</ele><time>2026-05-02T11:23:24Z</time></trkpt><trkpt lat="43.045054" lon="12.1618337"><ele>447.0</ele><time>2026-05-02T11:23:24.997Z</time></trkpt><trkpt lat="43.0449676" lon="12.1620011"><ele>446.8</ele><time>2026-05-02T11:23:26.995Z</time></trkpt><trkpt lat="43.0449499" lon="12.1620839"><ele>446.6</ele><time>2026-05-02T11:23:27.999Z</time></trkpt><trkpt lat="43.0449253" lon="12.1622501"><ele>446.40000000000003</ele><time>2026-05-02T11:23:29.995Z</time></trkpt><trkpt lat="43.0449311" lon="12.1624124"><ele>446.20000000000005</ele><time>2026-05-02T11:23:31.998Z</time></trkpt><trkpt lat="43.0449231" lon="12.1625022"><ele>446.0</ele><time>2026-05-02T11:23:33.996Z</time></trkpt><trkpt lat="43.0448591" lon="12.1626057"><ele>446.0</ele><time>2026-05-02T11:23:35.999Z</time></trkpt><trkpt lat="43.0448436" lon="12.1627667"><ele>446.0</ele><time>2026-05-02T11:23:37.999Z</time></trkpt><trkpt lat="43.0448114" lon="12.1628699"><ele>446.0</ele><time>2026-05-02T11:23:39.998Z</time></trkpt><trkpt lat="43.0447627" lon="12.1629907"><ele>446.0</ele><time>2026-05-02T11:23:42Z</time></trkpt><trkpt lat="43.0446999" lon="12.1631078"><ele>446.0</ele><time>2026-05-02T11:23:43.998Z</time></trkpt><trkpt lat="43.0446518" lon="12.1632073"><ele>441.8</ele><time>2026-05-02T11:23:44.996Z</time></trkpt><trkpt lat="43.0446062" lon="12.1632841"><ele>437.6</ele><time>2026-05-02T11:23:45.998Z</time></trkpt><trkpt lat="43.0445298" lon="12.163414"><ele>433.4</ele><time>2026-05-02T11:23:47.996Z</time></trkpt><trkpt lat="43.0444868" lon="12.1634892"><ele>429.2</ele><time>2026-05-02T11:23:49.995Z</time></trkpt><trkpt lat="43.0444222" lon="12.1635929"><ele>425.0</ele><time>2026-05-02T11:23:53Z</time></trkpt><trkpt lat="43.0443842" lon="12.1637124"><ele>424.99999999999994</ele><time>2026-05-02T11:23:55Z</time></trkpt><trkpt lat="43.0443537" lon="12.1637906"><ele>425.0</ele><time>2026-05-02T11:23:55.999Z</time></trkpt><trkpt lat="43.0442826" lon="12.1639154"><ele>425.0</ele><time>2026-05-02T11:23:57.997Z</time></trkpt><trkpt lat="43.0442512" lon="12.1639906"><ele>425.0</ele><time>2026-05-02T11:23:58.995Z</time></trkpt><trkpt lat="43.0442318" lon="12.1641567"><ele>424.99999999999994</ele><time>2026-05-02T11:24:00.998Z</time></trkpt><trkpt lat="43.0442405" lon="12.1642536"><ele>425.0</ele><time>2026-05-02T11:24:01.997Z</time></trkpt><trkpt lat="43.0442427" lon="12.1643684"><ele>425.3333333333333</ele><time>2026-05-02T11:24:02.996Z</time></trkpt><trkpt lat="43.0442386" lon="12.1644887"><ele>425.66666666666663</ele><time>2026-05-02T11:24:03.995Z</time></trkpt><trkpt lat="43.0442157" lon="12.1646047"><ele>426.0</ele><time>2026-05-02T11:24:04.994Z</time></trkpt><trkpt lat="43.0441867" lon="12.1647137"><ele>426.33333333333337</ele><time>2026-05-02T11:24:05.998Z</time></trkpt><trkpt lat="43.0441595" lon="12.1648224"><ele>426.6666666666667</ele><time>2026-05-02T11:24:06.997Z</time></trkpt><trkpt lat="43.044138" lon="12.1649213"><ele>427.0</ele><time>2026-05-02T11:24:07.997Z</time></trkpt><trkpt lat="43.044134" lon="12.1650173"><ele>427.00000000000006</ele><time>2026-05-02T11:24:08.995Z</time></trkpt><trkpt lat="43.044145" lon="12.1651279"><ele>427.0</ele><time>2026-05-02T11:24:09.997Z</time></trkpt><trkpt lat="43.0441682" lon="12.1652449"><ele>427.0</ele><time>2026-05-02T11:24:10.999Z</time></trkpt><trkpt lat="43.0441874" lon="12.1653651"><ele>427.0</ele><time>2026-05-02T11:24:11.994Z</time></trkpt><trkpt lat="43.0441955" lon="12.1654752"><ele>427.00000000000006</ele><time>2026-05-02T11:24:12.998Z</time></trkpt><trkpt lat="43.0441668" lon="12.1655871"><ele>427.0</ele><time>2026-05-02T11:24:13.997Z</time></trkpt><trkpt lat="43.0441254" lon="12.1656922"><ele>424.6</ele><time>2026-05-02T11:24:14.998Z</time></trkpt><trkpt lat="43.0440811" lon="12.1658015"><ele>422.20000000000005</ele><time>2026-05-02T11:24:15.996Z</time></trkpt><trkpt lat="43.0440519" lon="12.16592"><ele>419.8</ele><time>2026-05-02T11:24:16.997Z</time></trkpt><trkpt lat="43.0440012" lon="12.166029"><ele>417.4</ele><time>2026-05-02T11:24:17.995Z</time></trkpt><trkpt lat="43.0439285" lon="12.1661092"><ele>415.0</ele><time>2026-05-02T11:24:18.997Z</time></trkpt><trkpt lat="43.0438514" lon="12.1661956"><ele>415.0</ele><time>2026-05-02T11:24:20Z</time></trkpt><trkpt lat="43.0437663" lon="12.1662815"><ele>415.0</ele><time>2026-05-02T11:24:21Z</time></trkpt><trkpt lat="43.043684" lon="12.1663724"><ele>415.0</ele><time>2026-05-02T11:24:21.996Z</time></trkpt><trkpt lat="43.0436091" lon="12.1664526"><ele>415.0</ele><time>2026-05-02T11:24:22.997Z</time></trkpt><trkpt lat="43.0435337" lon="12.1665356"><ele>415.0</ele><time>2026-05-02T11:24:23.997Z</time></trkpt><trkpt lat="43.0434707" lon="12.1666216"><ele>417.83333333333337</ele><time>2026-05-02T11:24:24.998Z</time></trkpt><trkpt lat="43.043408" lon="12.1667123"><ele>420.6666666666667</ele><time>2026-05-02T11:24:25.998Z</time></trkpt><trkpt lat="43.0433575" lon="12.1668058"><ele>423.5</ele><time>2026-05-02T11:24:27Z</time></trkpt><trkpt lat="43.043326" lon="12.1669037"><ele>426.33333333333337</ele><time>2026-05-02T11:24:27.998Z</time></trkpt><trkpt lat="43.0433053" lon="12.1670071"><ele>429.1666666666667</ele><time>2026-05-02T11:24:28.995Z</time></trkpt><trkpt lat="43.0433099" lon="12.1671185"><ele>432.0</ele><time>2026-05-02T11:24:30Z</time></trkpt><trkpt lat="43.0433367" lon="12.1672187"><ele>432.0</ele><time>2026-05-02T11:24:31Z</time></trkpt><trkpt lat="43.0433731" lon="12.1673102"><ele>432.0</ele><time>2026-05-02T11:24:31.998Z</time></trkpt><trkpt lat="43.0434128" lon="12.1673995"><ele>432.0</ele><time>2026-05-02T11:24:32.998Z</time></trkpt><trkpt lat="43.0434629" lon="12.1674869"><ele>432.0</ele><time>2026-05-02T11:24:34Z</time></trkpt><trkpt lat="43.043516" lon="12.1675638"><ele>432.0</ele><time>2026-05-02T11:24:34.999Z</time></trkpt><trkpt lat="43.0435683" lon="12.1676368"><ele>432.0</ele><time>2026-05-02T11:24:35.998Z</time></trkpt><trkpt lat="43.0436233" lon="12.1677075"><ele>432.5</ele><time>2026-05-02T11:24:36.997Z</time></trkpt><trkpt lat="43.0436789" lon="12.1677692"><ele>433.0</ele><time>2026-05-02T11:24:37.999Z</time></trkpt><trkpt lat="43.0437433" lon="12.1678179"><ele>433.5</ele><time>2026-05-02T11:24:38.996Z</time></trkpt><trkpt lat="43.0438121" lon="12.1678569"><ele>434.0</ele><time>2026-05-02T11:24:39.998Z</time></trkpt><trkpt lat="43.0438773" lon="12.1679077"><ele>434.5</ele><time>2026-05-02T11:24:40.998Z</time></trkpt><trkpt lat="43.0439449" lon="12.1679681"><ele>435.0</ele><time>2026-05-02T11:24:41.999Z</time></trkpt><trkpt lat="43.0440182" lon="12.1680269"><ele>435.0</ele><time>2026-05-02T11:24:42.998Z</time></trkpt><trkpt lat="43.0440958" lon="12.1680951"><ele>435.0</ele><time>2026-05-02T11:24:44Z</time></trkpt><trkpt lat="43.0441568" lon="12.1681722"><ele>435.0</ele><time>2026-05-02T11:24:44.999Z</time></trkpt><trkpt lat="43.044218" lon="12.1682672"><ele>435.0</ele><time>2026-05-02T11:24:46Z</time></trkpt><trkpt lat="43.0442701" lon="12.168356"><ele>435.0</ele><time>2026-05-02T11:24:47Z</time></trkpt><trkpt lat="43.0443373" lon="12.1684485"><ele>435.0</ele><time>2026-05-02T11:24:48Z</time></trkpt><trkpt lat="43.0443953" lon="12.1685149"><ele>436.3333333333333</ele><time>2026-05-02T11:24:49Z</time></trkpt><trkpt lat="43.0444693" lon="12.1685774"><ele>437.66666666666663</ele><time>2026-05-02T11:24:50Z</time></trkpt><trkpt lat="43.0445466" lon="12.1686363"><ele>439.0</ele><time>2026-05-02T11:24:50.998Z</time></trkpt><trkpt lat="43.0446161" lon="12.1686932"><ele>440.3333333333333</ele><time>2026-05-02T11:24:51.998Z</time></trkpt><trkpt lat="43.0446765" lon="12.1687332"><ele>441.66666666666663</ele><time>2026-05-02T11:24:52.999Z</time></trkpt><trkpt lat="43.0447867" lon="12.1687316"><ele>443.0</ele><time>2026-05-02T11:24:54.998Z</time></trkpt><trkpt lat="43.0448508" lon="12.1686412"><ele>442.99999999999994</ele><time>2026-05-02T11:24:57Z</time></trkpt><trkpt lat="43.0448162" lon="12.1685062"><ele>443.0</ele><time>2026-05-02T11:24:58.997Z</time></trkpt><trkpt lat="43.0447524" lon="12.1684424"><ele>443.0</ele><time>2026-05-02T11:24:59.996Z</time></trkpt><trkpt lat="43.0446861" lon="12.1683957"><ele>443.0</ele><time>2026-05-02T11:25:00.994Z</time></trkpt><trkpt lat="43.0446182" lon="12.1683291"><ele>442.99999999999994</ele><time>2026-05-02T11:25:02Z</time></trkpt><trkpt lat="43.0445544" lon="12.1682357"><ele>443.0</ele><time>2026-05-02T11:25:03Z</time></trkpt><trkpt lat="43.0444915" lon="12.1681281"><ele>445.4</ele><time>2026-05-02T11:25:03.999Z</time></trkpt><trkpt lat="43.0444319" lon="12.1680108"><ele>447.79999999999995</ele><time>2026-05-02T11:25:04.994Z</time></trkpt><trkpt lat="43.0443809" lon="12.1678942"><ele>450.2</ele><time>2026-05-02T11:25:05.999Z</time></trkpt><trkpt lat="43.0443349" lon="12.167779"><ele>452.6</ele><time>2026-05-02T11:25:07Z</time></trkpt><trkpt lat="43.0442981" lon="12.1676686"><ele>455.0</ele><time>2026-05-02T11:25:07.999Z</time></trkpt><trkpt lat="43.044283" lon="12.1675518"><ele>454.99999999999994</ele><time>2026-05-02T11:25:08.996Z</time></trkpt><trkpt lat="43.0442867" lon="12.1674203"><ele>455.0</ele><time>2026-05-02T11:25:09.996Z</time></trkpt><trkpt lat="43.0443044" lon="12.1672859"><ele>455.0</ele><time>2026-05-02T11:25:10.998Z</time></trkpt><trkpt lat="43.0443234" lon="12.1671637"><ele>455.0</ele><time>2026-05-02T11:25:11.995Z</time></trkpt><trkpt lat="43.044345" lon="12.167067"><ele>454.99999999999994</ele><time>2026-05-02T11:25:12.999Z</time></trkpt><trkpt lat="43.0443855" lon="12.1669948"><ele>455.0</ele><time>2026-05-02T11:25:13.997Z</time></trkpt><trkpt lat="43.0444424" lon="12.1669199"><ele>454.6</ele><time>2026-05-02T11:25:15Z</time></trkpt><trkpt lat="43.0445073" lon="12.166848"><ele>454.2</ele><time>2026-05-02T11:25:15.995Z</time></trkpt><trkpt lat="43.0445842" lon="12.1667859"><ele>453.79999999999995</ele><time>2026-05-02T11:25:16.998Z</time></trkpt><trkpt lat="43.0446654" lon="12.1667202"><ele>453.4</ele><time>2026-05-02T11:25:17.998Z</time></trkpt><trkpt lat="43.0447475" lon="12.166662"><ele>453.0</ele><time>2026-05-02T11:25:18.998Z</time></trkpt><trkpt lat="43.0448351" lon="12.1665994"><ele>453.0</ele><time>2026-05-02T11:25:20Z</time></trkpt><trkpt lat="43.0449234" lon="12.1665324"><ele>452.99999999999994</ele><time>2026-05-02T11:25:20.996Z</time></trkpt><trkpt lat="43.0450236" lon="12.1664745"><ele>452.99999999999994</ele><time>2026-05-02T11:25:22Z</time></trkpt><trkpt lat="43.0451266" lon="12.1664151"><ele>453.0</ele><time>2026-05-02T11:25:22.995Z</time></trkpt><trkpt lat="43.0452269" lon="12.1663578"><ele>453.0</ele><time>2026-05-02T11:25:23.998Z</time></trkpt><trkpt lat="43.0453397" lon="12.1663126"><ele>454.0</ele><time>2026-05-02T11:25:24.997Z</time></trkpt><trkpt lat="43.0454547" lon="12.1662635"><ele>455.0</ele><time>2026-05-02T11:25:26Z</time></trkpt><trkpt lat="43.0455744" lon="12.1662206"><ele>456.0</ele><time>2026-05-02T11:25:26.999Z</time></trkpt><trkpt lat="43.0456966" lon="12.1661834"><ele>457.0</ele><time>2026-05-02T11:25:27.998Z</time></trkpt><trkpt lat="43.0458155" lon="12.1661455"><ele>459.40000000000003</ele><time>2026-05-02T11:25:28.998Z</time></trkpt><trkpt lat="43.0459306" lon="12.1661029"><ele>461.80000000000007</ele><time>2026-05-02T11:25:29.997Z</time></trkpt><trkpt lat="43.0460411" lon="12.1660631"><ele>464.2</ele><time>2026-05-02T11:25:31Z</time></trkpt><trkpt lat="43.0461366" lon="12.1660329"><ele>466.6</ele><time>2026-05-02T11:25:31.997Z</time></trkpt><trkpt lat="43.0462143" lon="12.1660215"><ele>469.0</ele><time>2026-05-02T11:25:32.997Z</time></trkpt><trkpt lat="43.0462774" lon="12.1660319"><ele>469.0</ele><time>2026-05-02T11:25:33.997Z</time></trkpt><trkpt lat="43.0463386" lon="12.1660693"><ele>469.0</ele><time>2026-05-02T11:25:34.995Z</time></trkpt><trkpt lat="43.0463874" lon="12.1661368"><ele>469.0</ele><time>2026-05-02T11:25:35.996Z</time></trkpt><trkpt lat="43.0464283" lon="12.1662103"><ele>469.0</ele><time>2026-05-02T11:25:36.996Z</time></trkpt><trkpt lat="43.046449" lon="12.1663034"><ele>469.0</ele><time>2026-05-02T11:25:37.996Z</time></trkpt><trkpt lat="43.0464607" lon="12.1664155"><ele>469.0</ele><time>2026-05-02T11:25:38.999Z</time></trkpt><trkpt lat="43.0464664" lon="12.1665405"><ele>469.0</ele><time>2026-05-02T11:25:40Z</time></trkpt><trkpt lat="43.0464759" lon="12.1666621"><ele>471.33333333333337</ele><time>2026-05-02T11:25:41Z</time></trkpt><trkpt lat="43.0464893" lon="12.1667813"><ele>473.6666666666667</ele><time>2026-05-02T11:25:42Z</time></trkpt><trkpt lat="43.0465012" lon="12.1668906"><ele>476.0</ele><time>2026-05-02T11:25:42.996Z</time></trkpt><trkpt lat="43.0465226" lon="12.1669934"><ele>478.33333333333337</ele><time>2026-05-02T11:25:43.996Z</time></trkpt><trkpt lat="43.0465494" lon="12.167096"><ele>480.6666666666667</ele><time>2026-05-02T11:25:44.997Z</time></trkpt><trkpt lat="43.0465744" lon="12.1671937"><ele>483.0</ele><time>2026-05-02T11:25:45.995Z</time></trkpt><trkpt lat="43.0466068" lon="12.1672817"><ele>483.0</ele><time>2026-05-02T11:25:46.998Z</time></trkpt><trkpt lat="43.0466477" lon="12.1673643"><ele>483.0</ele><time>2026-05-02T11:25:47.999Z</time></trkpt><trkpt lat="43.0466861" lon="12.1674443"><ele>483.0</ele><time>2026-05-02T11:25:49Z</time></trkpt><trkpt lat="43.0467323" lon="12.1675142"><ele>483.0</ele><time>2026-05-02T11:25:49.996Z</time></trkpt><trkpt lat="43.0467745" lon="12.167584"><ele>483.0</ele><time>2026-05-02T11:25:50.996Z</time></trkpt><trkpt lat="43.0468237" lon="12.1676519"><ele>483.0</ele><time>2026-05-02T11:25:51.998Z</time></trkpt><trkpt lat="43.0468707" lon="12.1677212"><ele>483.0</ele><time>2026-05-02T11:25:53Z</time></trkpt><trkpt lat="43.0469108" lon="12.167795"><ele>483.0</ele><time>2026-05-02T11:25:53.997Z</time></trkpt><trkpt lat="43.046954" lon="12.1678677"><ele>483.0</ele><time>2026-05-02T11:25:55Z</time></trkpt><trkpt lat="43.0469973" lon="12.1679353"><ele>483.0</ele><time>2026-05-02T11:25:55.997Z</time></trkpt><trkpt lat="43.0470434" lon="12.1680082"><ele>483.0</ele><time>2026-05-02T11:25:56.999Z</time></trkpt><trkpt lat="43.0470936" lon="12.1680879"><ele>483.0</ele><time>2026-05-02T11:25:57.998Z</time></trkpt><trkpt lat="43.0471446" lon="12.1681701"><ele>483.0</ele><time>2026-05-02T11:25:58.999Z</time></trkpt><trkpt lat="43.0471987" lon="12.1682556"><ele>483.0</ele><time>2026-05-02T11:26:00Z</time></trkpt><trkpt lat="43.0472528" lon="12.1683296"><ele>482.6666666666667</ele><time>2026-05-02T11:26:00.998Z</time></trkpt><trkpt lat="43.0473099" lon="12.168402"><ele>482.33333333333337</ele><time>2026-05-02T11:26:01.997Z</time></trkpt><trkpt lat="43.0473689" lon="12.1684768"><ele>482.0</ele><time>2026-05-02T11:26:02.996Z</time></trkpt><trkpt lat="43.0474396" lon="12.1685456"><ele>481.6666666666667</ele><time>2026-05-02T11:26:03.997Z</time></trkpt><trkpt lat="43.04752" lon="12.1686102"><ele>481.33333333333337</ele><time>2026-05-02T11:26:04.997Z</time></trkpt><trkpt lat="43.0476139" lon="12.168665"><ele>481.0</ele><time>2026-05-02T11:26:06Z</time></trkpt><trkpt lat="43.0477075" lon="12.1687397"><ele>482.75</ele><time>2026-05-02T11:26:06.999Z</time></trkpt><trkpt lat="43.0478067" lon="12.1688159"><ele>484.5</ele><time>2026-05-02T11:26:07.996Z</time></trkpt><trkpt lat="43.0479055" lon="12.1688908"><ele>486.25</ele><time>2026-05-02T11:26:08.995Z</time></trkpt><trkpt lat="43.0480133" lon="12.1689547"><ele>488.0</ele><time>2026-05-02T11:26:09.999Z</time></trkpt><trkpt lat="43.0481223" lon="12.1690309"><ele>488.0</ele><time>2026-05-02T11:26:11Z</time></trkpt><trkpt lat="43.0482225" lon="12.1691138"><ele>488.0</ele><time>2026-05-02T11:26:12Z</time></trkpt><trkpt lat="43.0483267" lon="12.1692016"><ele>488.0</ele><time>2026-05-02T11:26:12.997Z</time></trkpt><trkpt lat="43.0484356" lon="12.169289"><ele>488.0</ele><time>2026-05-02T11:26:13.995Z</time></trkpt><trkpt lat="43.0485481" lon="12.1693812"><ele>488.5</ele><time>2026-05-02T11:26:14.995Z</time></trkpt><trkpt lat="43.0486616" lon="12.1694772"><ele>489.0</ele><time>2026-05-02T11:26:16Z</time></trkpt><trkpt lat="43.0487736" lon="12.1695693"><ele>489.5</ele><time>2026-05-02T11:26:16.997Z</time></trkpt><trkpt lat="43.0488893" lon="12.169668"><ele>490.0</ele><time>2026-05-02T11:26:17.999Z</time></trkpt><trkpt lat="43.0490025" lon="12.1697725"><ele>491.0</ele><time>2026-05-02T11:26:18.997Z</time></trkpt><trkpt lat="43.0491174" lon="12.169867"><ele>492.0</ele><time>2026-05-02T11:26:20Z</time></trkpt><trkpt lat="43.0492279" lon="12.169963"><ele>493.0</ele><time>2026-05-02T11:26:20.998Z</time></trkpt><trkpt lat="43.049336" lon="12.1700615"><ele>494.0</ele><time>2026-05-02T11:26:22Z</time></trkpt><trkpt lat="43.0494432" lon="12.1701567"><ele>494.0</ele><time>2026-05-02T11:26:22.997Z</time></trkpt><trkpt lat="43.049553" lon="12.1702518"><ele>494.0</ele><time>2026-05-02T11:26:23.999Z</time></trkpt><trkpt lat="43.0496631" lon="12.1703464"><ele>494.0</ele><time>2026-05-02T11:26:24.994Z</time></trkpt><trkpt lat="43.0497771" lon="12.1704353"><ele>494.0</ele><time>2026-05-02T11:26:25.998Z</time></trkpt><trkpt lat="43.0498949" lon="12.1705266"><ele>493.0</ele><time>2026-05-02T11:26:26.995Z</time></trkpt><trkpt lat="43.0500029" lon="12.1706126"><ele>492.0</ele><time>2026-05-02T11:26:28Z</time></trkpt><trkpt lat="43.0501071" lon="12.1706915"><ele>491.0</ele><time>2026-05-02T11:26:28.998Z</time></trkpt><trkpt lat="43.0502115" lon="12.1707664"><ele>490.0</ele><time>2026-05-02T11:26:29.997Z</time></trkpt><trkpt lat="43.0503056" lon="12.1708254"><ele>493.25</ele><time>2026-05-02T11:26:30.997Z</time></trkpt><trkpt lat="43.0504093" lon="12.1708705"><ele>496.5</ele><time>2026-05-02T11:26:31.999Z</time></trkpt><trkpt lat="43.0505204" lon="12.1709099"><ele>499.75</ele><time>2026-05-02T11:26:32.999Z</time></trkpt><trkpt lat="43.0506331" lon="12.1709425"><ele>503.0</ele><time>2026-05-02T11:26:33.995Z</time></trkpt><trkpt lat="43.0507449" lon="12.1709791"><ele>503.79999999999995</ele><time>2026-05-02T11:26:34.997Z</time></trkpt><trkpt lat="43.0508601" lon="12.1710136"><ele>504.59999999999997</ele><time>2026-05-02T11:26:35.999Z</time></trkpt><trkpt lat="43.0509703" lon="12.1710527"><ele>505.40000000000003</ele><time>2026-05-02T11:26:36.998Z</time></trkpt><trkpt lat="43.0510695" lon="12.1710904"><ele>506.20000000000005</ele><time>2026-05-02T11:26:38Z</time></trkpt><trkpt lat="43.0511503" lon="12.1711124"><ele>507.0</ele><time>2026-05-02T11:26:38.998Z</time></trkpt><trkpt lat="43.0512269" lon="12.1711354"><ele>507.0</ele><time>2026-05-02T11:26:39.999Z</time></trkpt><trkpt lat="43.0512961" lon="12.1711661"><ele>507.0</ele><time>2026-05-02T11:26:40.996Z</time></trkpt><trkpt lat="43.0513601" lon="12.1712088"><ele>507.0</ele><time>2026-05-02T11:26:41.996Z</time></trkpt><trkpt lat="43.0514177" lon="12.1712757"><ele>507.0</ele><time>2026-05-02T11:26:42.996Z</time></trkpt><trkpt lat="43.0514593" lon="12.1713651"><ele>507.0</ele><time>2026-05-02T11:26:43.997Z</time></trkpt><trkpt lat="43.0515016" lon="12.1714658"><ele>507.0</ele><time>2026-05-02T11:26:44.998Z</time></trkpt><trkpt lat="43.0515479" lon="12.17158"><ele>509.1666666666667</ele><time>2026-05-02T11:26:45.995Z</time></trkpt><trkpt lat="43.0516015" lon="12.1716901"><ele>511.33333333333337</ele><time>2026-05-02T11:26:46.996Z</time></trkpt><trkpt lat="43.0516629" lon="12.1717985"><ele>513.5</ele><time>2026-05-02T11:26:48Z</time></trkpt><trkpt lat="43.0517169" lon="12.1718965"><ele>515.6666666666667</ele><time>2026-05-02T11:26:49Z</time></trkpt><trkpt lat="43.0517748" lon="12.1719723"><ele>517.8333333333334</ele><time>2026-05-02T11:26:49.997Z</time></trkpt><trkpt lat="43.0518451" lon="12.1720181"><ele>520.0</ele><time>2026-05-02T11:26:50.997Z</time></trkpt><trkpt lat="43.051919" lon="12.1720317"><ele>520.0</ele><time>2026-05-02T11:26:51.997Z</time></trkpt><trkpt lat="43.0520092" lon="12.1720187"><ele>520.0</ele><time>2026-05-02T11:26:52.999Z</time></trkpt><trkpt lat="43.0521092" lon="12.1720097"><ele>520.0</ele><time>2026-05-02T11:26:53.996Z</time></trkpt><trkpt lat="43.052191" lon="12.1720016"><ele>520.0</ele><time>2026-05-02T11:26:54.996Z</time></trkpt><trkpt lat="43.0522908" lon="12.1720222"><ele>520.0</ele><time>2026-05-02T11:26:55.997Z</time></trkpt><trkpt lat="43.0523927" lon="12.1720727"><ele>518.75</ele><time>2026-05-02T11:26:56.997Z</time></trkpt><trkpt lat="43.052493" lon="12.172103"><ele>517.5</ele><time>2026-05-02T11:26:58Z</time></trkpt><trkpt lat="43.0526118" lon="12.1721185"><ele>516.25</ele><time>2026-05-02T11:26:59Z</time></trkpt><trkpt lat="43.05273" lon="12.1721211"><ele>515.0</ele><time>2026-05-02T11:26:59.999Z</time></trkpt><trkpt lat="43.0528524" lon="12.1721213"><ele>515.0</ele><time>2026-05-02T11:27:01Z</time></trkpt><trkpt lat="43.0529812" lon="12.1721201"><ele>515.0</ele><time>2026-05-02T11:27:01.997Z</time></trkpt><trkpt lat="43.0530874" lon="12.1721114"><ele>515.0</ele><time>2026-05-02T11:27:02.998Z</time></trkpt><trkpt lat="43.0531934" lon="12.1720972"><ele>515.0</ele><time>2026-05-02T11:27:03.998Z</time></trkpt><trkpt lat="43.0532949" lon="12.1720863"><ele>515.0</ele><time>2026-05-02T11:27:05Z</time></trkpt><trkpt lat="43.0534151" lon="12.1720834"><ele>516.2</ele><time>2026-05-02T11:27:05.999Z</time></trkpt><trkpt lat="43.0535221" lon="12.172072"><ele>517.4</ele><time>2026-05-02T11:27:06.999Z</time></trkpt><trkpt lat="43.0536343" lon="12.1720566"><ele>518.6</ele><time>2026-05-02T11:27:08Z</time></trkpt><trkpt lat="43.053747" lon="12.1720345"><ele>519.8</ele><time>2026-05-02T11:27:08.995Z</time></trkpt><trkpt lat="43.0538281" lon="12.1720307"><ele>521.0</ele><time>2026-05-02T11:27:09.995Z</time></trkpt><trkpt lat="43.0539156" lon="12.1720285"><ele>521.0</ele><time>2026-05-02T11:27:10.993Z</time></trkpt><trkpt lat="43.0539873" lon="12.1720287"><ele>521.0</ele><time>2026-05-02T11:27:12.997Z</time></trkpt><trkpt lat="43.0540689" lon="12.1720584"><ele>521.0</ele><time>2026-05-02T11:27:14.996Z</time></trkpt><trkpt lat="43.0541122" lon="12.1721354"><ele>521.0</ele><time>2026-05-02T11:27:16.998Z</time></trkpt><trkpt lat="43.0541688" lon="12.1722064"><ele>521.0</ele><time>2026-05-02T11:27:22Z</time></trkpt><trkpt lat="43.0542392" lon="12.1721859"><ele>521.0</ele><time>2026-05-02T11:27:23.997Z</time></trkpt><trkpt lat="43.0543139" lon="12.1721325"><ele>522.6666666666666</ele><time>2026-05-02T11:27:25.997Z</time></trkpt><trkpt lat="43.0543831" lon="12.1720762"><ele>524.3333333333333</ele><time>2026-05-02T11:27:27.995Z</time></trkpt><trkpt lat="43.054453" lon="12.1720276"><ele>526.0</ele><time>2026-05-02T11:27:29.997Z</time></trkpt><trkpt lat="43.0545326" lon="12.1719823"><ele>527.6666666666666</ele><time>2026-05-02T11:27:31.999Z</time></trkpt><trkpt lat="43.0546146" lon="12.1719285"><ele>529.3333333333334</ele><time>2026-05-02T11:27:34Z</time></trkpt><trkpt lat="43.0547002" lon="12.1718776"><ele>531.0</ele><time>2026-05-02T11:27:35.997Z</time></trkpt><trkpt lat="43.0547869" lon="12.1718217"><ele>531.0</ele><time>2026-05-02T11:27:38Z</time></trkpt><trkpt lat="43.0548841" lon="12.1717639"><ele>531.0</ele><time>2026-05-02T11:27:39.997Z</time></trkpt><trkpt lat="43.0549459" lon="12.1717222"><ele>531.0</ele><time>2026-05-02T11:27:40.995Z</time></trkpt><trkpt lat="43.0550117" lon="12.1716797"><ele>531.0</ele><time>2026-05-02T11:27:41.996Z</time></trkpt><trkpt lat="43.0550883" lon="12.1716401"><ele>531.0</ele><time>2026-05-02T11:27:42.999Z</time></trkpt><trkpt lat="43.0551726" lon="12.1716022"><ele>531.0</ele><time>2026-05-02T11:27:43.996Z</time></trkpt><trkpt lat="43.0552679" lon="12.1715657"><ele>530.6</ele><time>2026-05-02T11:27:45Z</time></trkpt><trkpt lat="43.0553646" lon="12.1715251"><ele>530.2</ele><time>2026-05-02T11:27:46Z</time></trkpt><trkpt lat="43.0554544" lon="12.1714794"><ele>529.8</ele><time>2026-05-02T11:27:46.998Z</time></trkpt><trkpt lat="43.0555483" lon="12.1714307"><ele>529.4</ele><time>2026-05-02T11:27:47.998Z</time></trkpt><trkpt lat="43.0556455" lon="12.1713786"><ele>529.0</ele><time>2026-05-02T11:27:48.999Z</time></trkpt><trkpt lat="43.0557538" lon="12.1713264"><ele>528.0</ele><time>2026-05-02T11:27:49.998Z</time></trkpt><trkpt lat="43.0558574" lon="12.1712857"><ele>527.0</ele><time>2026-05-02T11:27:50.998Z</time></trkpt><trkpt lat="43.0559668" lon="12.1712512"><ele>526.0</ele><time>2026-05-02T11:27:52Z</time></trkpt><trkpt lat="43.0560889" lon="12.1712208"><ele>525.0</ele><time>2026-05-02T11:27:52.997Z</time></trkpt><trkpt lat="43.0562068" lon="12.1711893"><ele>525.0</ele><time>2026-05-02T11:27:53.999Z</time></trkpt><trkpt lat="43.0563256" lon="12.1711738"><ele>525.0</ele><time>2026-05-02T11:27:55Z</time></trkpt><trkpt lat="43.0564513" lon="12.1711738"><ele>525.0</ele><time>2026-05-02T11:27:55.998Z</time></trkpt><trkpt lat="43.0565679" lon="12.1711664"><ele>525.0</ele><time>2026-05-02T11:27:57Z</time></trkpt><trkpt lat="43.0566897" lon="12.1711571"><ele>524.0</ele><time>2026-05-02T11:27:57.998Z</time></trkpt><trkpt lat="43.0568055" lon="12.17114"><ele>523.0</ele><time>2026-05-02T11:27:58.992Z</time></trkpt><trkpt lat="43.0569203" lon="12.1711202"><ele>522.0</ele><time>2026-05-02T11:28:00Z</time></trkpt><trkpt lat="43.0570387" lon="12.1711061"><ele>521.0</ele><time>2026-05-02T11:28:00.997Z</time></trkpt><trkpt lat="43.0571524" lon="12.1711036"><ele>521.0</ele><time>2026-05-02T11:28:01.995Z</time></trkpt><trkpt lat="43.0572715" lon="12.1711036"><ele>521.0</ele><time>2026-05-02T11:28:02.999Z</time></trkpt><trkpt lat="43.0573902" lon="12.1710889"><ele>521.0</ele><time>2026-05-02T11:28:04Z</time></trkpt><trkpt lat="43.0575086" lon="12.1710678"><ele>521.0</ele><time>2026-05-02T11:28:05Z</time></trkpt><trkpt lat="43.0576256" lon="12.1710504"><ele>520.25</ele><time>2026-05-02T11:28:06Z</time></trkpt><trkpt lat="43.0577568" lon="12.1710496"><ele>519.5</ele><time>2026-05-02T11:28:07Z</time></trkpt><trkpt lat="43.0578862" lon="12.1710564"><ele>518.75</ele><time>2026-05-02T11:28:08Z</time></trkpt><trkpt lat="43.0579956" lon="12.1710667"><ele>518.0</ele><time>2026-05-02T11:28:08.999Z</time></trkpt><trkpt lat="43.0580927" lon="12.171074"><ele>518.0</ele><time>2026-05-02T11:28:09.997Z</time></trkpt><trkpt lat="43.0581708" lon="12.1710764"><ele>518.0</ele><time>2026-05-02T11:28:10.996Z</time></trkpt><trkpt lat="43.0582466" lon="12.1710701"><ele>518.0</ele><time>2026-05-02T11:28:11.999Z</time></trkpt><trkpt lat="43.0583224" lon="12.1710428"><ele>518.0</ele><time>2026-05-02T11:28:12.998Z</time></trkpt><trkpt lat="43.0583995" lon="12.1710097"><ele>518.0</ele><time>2026-05-02T11:28:14Z</time></trkpt><trkpt lat="43.0584754" lon="12.1709673"><ele>518.0</ele><time>2026-05-02T11:28:15Z</time></trkpt><trkpt lat="43.0585321" lon="12.170928"><ele>517.5</ele><time>2026-05-02T11:28:16Z</time></trkpt><trkpt lat="43.0586009" lon="12.1708809"><ele>517.0</ele><time>2026-05-02T11:28:17.995Z</time></trkpt><trkpt lat="43.058682" lon="12.1708464"><ele>516.5</ele><time>2026-05-02T11:32:36Z</time></trkpt><trkpt lat="43.0587525" lon="12.1708057"><ele>516.0</ele><time>2026-05-02T11:32:37.999Z</time></trkpt><trkpt lat="43.0588413" lon="12.1707672"><ele>515.5</ele><time>2026-05-02T11:32:39.993Z</time></trkpt><trkpt lat="43.0589227" lon="12.1707301"><ele>515.0</ele><time>2026-05-02T11:32:41.995Z</time></trkpt><trkpt lat="43.0589863" lon="12.1706989"><ele>515.0</ele><time>2026-05-02T11:32:42.995Z</time></trkpt><trkpt lat="43.0590603" lon="12.1707065"><ele>515.0</ele><time>2026-05-02T11:32:44.999Z</time></trkpt><trkpt lat="43.0591727" lon="12.1707423"><ele>515.0</ele><time>2026-05-02T11:32:46.996Z</time></trkpt><trkpt lat="43.0592446" lon="12.1707636"><ele>515.0</ele><time>2026-05-02T11:32:47.998Z</time></trkpt><trkpt lat="43.059322" lon="12.1707878"><ele>515.0</ele><time>2026-05-02T11:32:48.995Z</time></trkpt><trkpt lat="43.0594097" lon="12.1708132"><ele>515.0</ele><time>2026-05-02T11:32:49.999Z</time></trkpt><trkpt lat="43.0594978" lon="12.1708347"><ele>513.8</ele><time>2026-05-02T11:32:50.999Z</time></trkpt><trkpt lat="43.0595933" lon="12.1708552"><ele>512.6</ele><time>2026-05-02T11:32:51.997Z</time></trkpt><trkpt lat="43.0596818" lon="12.1708767"><ele>511.4</ele><time>2026-05-02T11:32:52.994Z</time></trkpt><trkpt lat="43.0597728" lon="12.170883"><ele>510.2</ele><time>2026-05-02T11:32:53.994Z</time></trkpt><trkpt lat="43.0598657" lon="12.1708755"><ele>509.0</ele><time>2026-05-02T11:32:54.997Z</time></trkpt><trkpt lat="43.0599521" lon="12.1708423"><ele>507.79999999999995</ele><time>2026-05-02T11:32:55.999Z</time></trkpt><trkpt lat="43.0600399" lon="12.1708278"><ele>506.59999999999997</ele><time>2026-05-02T11:32:56.997Z</time></trkpt><trkpt lat="43.0601544" lon="12.1707995"><ele>505.4</ele><time>2026-05-02T11:32:57.998Z</time></trkpt><trkpt lat="43.0602567" lon="12.1707834"><ele>504.2</ele><time>2026-05-02T11:32:59Z</time></trkpt><trkpt lat="43.0603574" lon="12.1707576"><ele>503.0</ele><time>2026-05-02T11:33:00Z</time></trkpt><trkpt lat="43.0604612" lon="12.1707619"><ele>503.0</ele><time>2026-05-02T11:33:00.996Z</time></trkpt><trkpt lat="43.060569" lon="12.1707831"><ele>502.99999999999994</ele><time>2026-05-02T11:33:02Z</time></trkpt><trkpt lat="43.0606716" lon="12.1708049"><ele>502.99999999999994</ele><time>2026-05-02T11:33:02.997Z</time></trkpt><trkpt lat="43.0607744" lon="12.1708171"><ele>503.0</ele><time>2026-05-02T11:33:04Z</time></trkpt><trkpt lat="43.0608751" lon="12.1708266"><ele>503.0</ele><time>2026-05-02T11:33:05Z</time></trkpt><trkpt lat="43.0609772" lon="12.1708288"><ele>503.79999999999995</ele><time>2026-05-02T11:33:06Z</time></trkpt><trkpt lat="43.0610629" lon="12.1708467"><ele>504.59999999999997</ele><time>2026-05-02T11:33:06.999Z</time></trkpt><trkpt lat="43.061158" lon="12.1708752"><ele>505.40000000000003</ele><time>2026-05-02T11:33:07.999Z</time></trkpt><trkpt lat="43.0612495" lon="12.1709094"><ele>506.20000000000005</ele><time>2026-05-02T11:33:08.995Z</time></trkpt><trkpt lat="43.0613463" lon="12.1709375"><ele>507.0</ele><time>2026-05-02T11:33:09.999Z</time></trkpt><trkpt lat="43.0614446" lon="12.1709541"><ele>507.0</ele><time>2026-05-02T11:33:10.997Z</time></trkpt><trkpt lat="43.0615361" lon="12.1709562"><ele>507.00000000000006</ele><time>2026-05-02T11:33:11.996Z</time></trkpt><trkpt lat="43.0616259" lon="12.1709459"><ele>507.00000000000006</ele><time>2026-05-02T11:33:12.995Z</time></trkpt><trkpt lat="43.0617142" lon="12.1709093"><ele>507.0</ele><time>2026-05-02T11:33:13.996Z</time></trkpt><trkpt lat="43.0618077" lon="12.1708754"><ele>507.0</ele><time>2026-05-02T11:33:14.994Z</time></trkpt><trkpt lat="43.0618999" lon="12.1708383"><ele>507.8</ele><time>2026-05-02T11:33:16Z</time></trkpt><trkpt lat="43.0619978" lon="12.1708056"><ele>508.6</ele><time>2026-05-02T11:33:16.992Z</time></trkpt><trkpt lat="43.0620871" lon="12.170781"><ele>509.40000000000003</ele><time>2026-05-02T11:33:17.996Z</time></trkpt><trkpt lat="43.0621804" lon="12.1707764"><ele>510.20000000000005</ele><time>2026-05-02T11:33:18.995Z</time></trkpt><trkpt lat="43.0622606" lon="12.1707832"><ele>511.0</ele><time>2026-05-02T11:33:19.994Z</time></trkpt><trkpt lat="43.0623487" lon="12.1708587"><ele>511.00000000000006</ele><time>2026-05-02T11:33:21.994Z</time></trkpt><trkpt lat="43.0624038" lon="12.1709812"><ele>511.0</ele><time>2026-05-02T11:33:23.996Z</time></trkpt><trkpt lat="43.0624679" lon="12.1710448"><ele>511.0</ele><time>2026-05-02T11:33:25.999Z</time></trkpt><trkpt lat="43.0625412" lon="12.1710283"><ele>511.0</ele><time>2026-05-02T11:33:27.994Z</time></trkpt><trkpt lat="43.0626088" lon="12.1709678"><ele>511.00000000000006</ele><time>2026-05-02T11:33:29.995Z</time></trkpt><trkpt lat="43.0626928" lon="12.1709191"><ele>511.0</ele><time>2026-05-02T11:33:31.997Z</time></trkpt><trkpt lat="43.0627928" lon="12.1708635"><ele>511.1666666666667</ele><time>2026-05-02T11:33:33.997Z</time></trkpt><trkpt lat="43.062871" lon="12.1708018"><ele>511.33333333333337</ele><time>2026-05-02T11:33:35.999Z</time></trkpt><trkpt lat="43.0629373" lon="12.1707588"><ele>511.5</ele><time>2026-05-02T11:33:37.996Z</time></trkpt><trkpt lat="43.0630433" lon="12.1707056"><ele>511.66666666666663</ele><time>2026-05-02T11:33:39.994Z</time></trkpt><trkpt lat="43.063102" lon="12.170644"><ele>511.8333333333333</ele><time>2026-05-02T11:33:40.997Z</time></trkpt><trkpt lat="43.063164" lon="12.1706036"><ele>512.0</ele><time>2026-05-02T11:33:41.997Z</time></trkpt><trkpt lat="43.0632849" lon="12.1705308"><ele>510.49999999999994</ele><time>2026-05-02T11:33:43.998Z</time></trkpt><trkpt lat="43.0633625" lon="12.1705139"><ele>509.0</ele><time>2026-05-02T11:33:44.999Z</time></trkpt><trkpt lat="43.06345" lon="12.1705066"><ele>507.5</ele><time>2026-05-02T11:33:45.999Z</time></trkpt><trkpt lat="43.0635278" lon="12.1705043"><ele>506.0</ele><time>2026-05-02T11:33:46.996Z</time></trkpt><trkpt lat="43.0635996" lon="12.1705328"><ele>504.49999999999994</ele><time>2026-05-02T11:33:47.997Z</time></trkpt><trkpt lat="43.0636753" lon="12.1705808"><ele>503.0</ele><time>2026-05-02T11:33:48.999Z</time></trkpt><trkpt lat="43.0637524" lon="12.1706498"><ele>502.49999999999994</ele><time>2026-05-02T11:33:49.996Z</time></trkpt><trkpt lat="43.0638323" lon="12.1707321"><ele>502.0</ele><time>2026-05-02T11:33:50.997Z</time></trkpt><trkpt lat="43.0639028" lon="12.1708018"><ele>501.5</ele><time>2026-05-02T11:33:51.993Z</time></trkpt><trkpt lat="43.0639745" lon="12.1708793"><ele>501.0</ele><time>2026-05-02T11:33:52.999Z</time></trkpt><trkpt lat="43.0640425" lon="12.1709433"><ele>500.49999999999994</ele><time>2026-05-02T11:33:53.996Z</time></trkpt><trkpt lat="43.0641118" lon="12.1709761"><ele>500.0</ele><time>2026-05-02T11:33:54.998Z</time></trkpt><trkpt lat="43.0642123" lon="12.170966"><ele>499.8333333333333</ele><time>2026-05-02T11:33:56.999Z</time></trkpt><trkpt lat="43.0642933" lon="12.1708843"><ele>499.66666666666663</ele><time>2026-05-02T11:33:59Z</time></trkpt><trkpt lat="43.0643469" lon="12.1708111"><ele>499.5</ele><time>2026-05-02T11:33:59.997Z</time></trkpt><trkpt lat="43.0644003" lon="12.1707225"><ele>499.33333333333337</ele><time>2026-05-02T11:34:00.995Z</time></trkpt><trkpt lat="43.0644573" lon="12.1706416"><ele>499.1666666666667</ele><time>2026-05-02T11:34:01.994Z</time></trkpt><trkpt lat="43.0645117" lon="12.1705592"><ele>499.0</ele><time>2026-05-02T11:34:02.999Z</time></trkpt><trkpt lat="43.0645746" lon="12.1704833"><ele>499.00000000000006</ele><time>2026-05-02T11:34:03.996Z</time></trkpt><trkpt lat="43.0646451" lon="12.1704279"><ele>499.0</ele><time>2026-05-02T11:34:04.993Z</time></trkpt><trkpt lat="43.0647256" lon="12.1703972"><ele>499.0</ele><time>2026-05-02T11:34:06Z</time></trkpt><trkpt lat="43.0648151" lon="12.1703603"><ele>499.0</ele><time>2026-05-02T11:34:06.998Z</time></trkpt><trkpt lat="43.0648845" lon="12.1703089"><ele>499.00000000000006</ele><time>2026-05-02T11:34:08Z</time></trkpt><trkpt lat="43.0649394" lon="12.1702635"><ele>499.0</ele><time>2026-05-02T11:34:09Z</time></trkpt><trkpt lat="43.0650081" lon="12.1702065"><ele>498.0</ele><time>2026-05-02T11:34:10.994Z</time></trkpt><trkpt lat="43.0650768" lon="12.1701611"><ele>497.0</ele><time>2026-05-02T11:34:12.997Z</time></trkpt><trkpt lat="43.0651593" lon="12.17008"><ele>496.0</ele><time>2026-05-02T11:34:14.998Z</time></trkpt><trkpt lat="43.0652384" lon="12.1699913"><ele>495.0</ele><time>2026-05-02T11:34:17Z</time></trkpt><trkpt lat="43.0652655" lon="12.1698759"><ele>494.0</ele><time>2026-05-02T11:34:19Z</time></trkpt><trkpt lat="43.0653224" lon="12.1697722"><ele>494.0</ele><time>2026-05-02T11:34:20.998Z</time></trkpt><trkpt lat="43.0654714" lon="12.1697393"><ele>494.0</ele><time>2026-05-02T11:34:23.996Z</time></trkpt><trkpt lat="43.0655824" lon="12.1697454"><ele>494.0</ele><time>2026-05-02T11:34:25.997Z</time></trkpt><trkpt lat="43.0656948" lon="12.1697639"><ele>494.0</ele><time>2026-05-02T11:34:27.998Z</time></trkpt><trkpt lat="43.0658289" lon="12.1697822"><ele>495.4</ele><time>2026-05-02T11:34:29.997Z</time></trkpt><trkpt lat="43.065912" lon="12.1697462"><ele>496.79999999999995</ele><time>2026-05-02T11:34:31.996Z</time></trkpt><trkpt lat="43.0659982" lon="12.169666"><ele>498.20000000000005</ele><time>2026-05-02T11:34:34Z</time></trkpt><trkpt lat="43.0661044" lon="12.1696169"><ele>499.6</ele><time>2026-05-02T11:34:35.994Z</time></trkpt><trkpt lat="43.066211" lon="12.169573"><ele>501.0</ele><time>2026-05-02T11:34:37.995Z</time></trkpt><trkpt lat="43.0663336" lon="12.16952"><ele>501.0</ele><time>2026-05-02T11:34:40Z</time></trkpt><trkpt lat="43.0663867" lon="12.1694723"><ele>501.0</ele><time>2026-05-02T11:34:40.996Z</time></trkpt><trkpt lat="43.0664951" lon="12.169409"><ele>501.0</ele><time>2026-05-02T11:34:42.996Z</time></trkpt><trkpt lat="43.0665517" lon="12.1693556"><ele>501.0</ele><time>2026-05-02T11:34:43.999Z</time></trkpt><trkpt lat="43.0666475" lon="12.1692709"><ele>501.0</ele><time>2026-05-02T11:34:46Z</time></trkpt><trkpt lat="43.0667679" lon="12.1692757"><ele>502.8</ele><time>2026-05-02T11:34:47.999Z</time></trkpt><trkpt lat="43.0668926" lon="12.1693162"><ele>504.6</ele><time>2026-05-02T11:34:49.999Z</time></trkpt><trkpt lat="43.0669551" lon="12.169358"><ele>506.4</ele><time>2026-05-02T11:34:50.996Z</time></trkpt><trkpt lat="43.0670647" lon="12.1694358"><ele>508.2</ele><time>2026-05-02T11:34:52.995Z</time></trkpt><trkpt lat="43.0671253" lon="12.1694809"><ele>510.0</ele><time>2026-05-02T11:34:53.995Z</time></trkpt><trkpt lat="43.067188" lon="12.1695285"><ele>510.0</ele><time>2026-05-02T11:34:54.996Z</time></trkpt><trkpt lat="43.0673078" lon="12.1695728"><ele>510.0</ele><time>2026-05-02T11:34:56.999Z</time></trkpt><trkpt lat="43.0673805" lon="12.1695807"><ele>510.0</ele><time>2026-05-02T11:34:58Z</time></trkpt><trkpt lat="43.0674663" lon="12.1695852"><ele>510.0</ele><time>2026-05-02T11:34:58.997Z</time></trkpt><trkpt lat="43.0675564" lon="12.1695901"><ele>510.0</ele><time>2026-05-02T11:34:59.998Z</time></trkpt><trkpt lat="43.0676416" lon="12.1695964"><ele>510.7142857142857</ele><time>2026-05-02T11:35:00.999Z</time></trkpt><trkpt lat="43.0677184" lon="12.169599"><ele>511.42857142857144</ele><time>2026-05-02T11:35:01.993Z</time></trkpt><trkpt lat="43.067792" lon="12.1696163"><ele>512.1428571428571</ele><time>2026-05-02T11:35:02.994Z</time></trkpt><trkpt lat="43.0678559" lon="12.1696422"><ele>512.8571428571429</ele><time>2026-05-02T11:35:03.995Z</time></trkpt><trkpt lat="43.0679211" lon="12.169655"><ele>513.5714285714286</ele><time>2026-05-02T11:35:04.996Z</time></trkpt><trkpt lat="43.0679834" lon="12.1696403"><ele>514.2857142857143</ele><time>2026-05-02T11:35:05.995Z</time></trkpt><trkpt lat="43.0680739" lon="12.1696051"><ele>515.0</ele><time>2026-05-02T11:35:08Z</time></trkpt><trkpt lat="43.0681833" lon="12.1695946"><ele>514.0</ele><time>2026-05-02T11:35:09.998Z</time></trkpt><trkpt lat="43.0682772" lon="12.1695605"><ele>513.0</ele><time>2026-05-02T11:35:11.994Z</time></trkpt><trkpt lat="43.0683941" lon="12.1694836"><ele>512.0</ele><time>2026-05-02T11:35:13.999Z</time></trkpt><trkpt lat="43.0684605" lon="12.1694127"><ele>511.0</ele><time>2026-05-02T11:35:14.993Z</time></trkpt><trkpt lat="43.0685197" lon="12.1693578"><ele>510.0</ele><time>2026-05-02T11:35:15.999Z</time></trkpt><trkpt lat="43.0685827" lon="12.1693049"><ele>510.0</ele><time>2026-05-02T11:35:16.994Z</time></trkpt><trkpt lat="43.0686458" lon="12.1692613"><ele>510.0</ele><time>2026-05-02T11:35:18Z</time></trkpt><trkpt lat="43.0687434" lon="12.1692028"><ele>510.0</ele><time>2026-05-02T11:35:20Z</time></trkpt><trkpt lat="43.0688092" lon="12.169199"><ele>510.0</ele><time>2026-05-02T11:35:20.997Z</time></trkpt><trkpt lat="43.0688844" lon="12.1691934"><ele>510.0</ele><time>2026-05-02T11:35:21.998Z</time></trkpt><trkpt lat="43.0689533" lon="12.1691711"><ele>510.0</ele><time>2026-05-02T11:35:22.999Z</time></trkpt><trkpt lat="43.069025" lon="12.1691663"><ele>509.2</ele><time>2026-05-02T11:35:23.997Z</time></trkpt><trkpt lat="43.0691502" lon="12.1691399"><ele>508.4</ele><time>2026-05-02T11:35:26Z</time></trkpt><trkpt lat="43.0692445" lon="12.1691148"><ele>507.6</ele><time>2026-05-02T11:35:28Z</time></trkpt><trkpt lat="43.0693393" lon="12.1691511"><ele>506.8</ele><time>2026-05-02T11:35:30Z</time></trkpt><trkpt lat="43.0694362" lon="12.169239"><ele>506.0</ele><time>2026-05-02T11:35:32Z</time></trkpt><trkpt lat="43.0694704" lon="12.1694073"><ele>505.99999999999994</ele><time>2026-05-02T11:35:33.996Z</time></trkpt><trkpt lat="43.0694587" lon="12.1695534"><ele>506.0</ele><time>2026-05-02T11:35:35.999Z</time></trkpt><trkpt lat="43.069428" lon="12.1697098"><ele>506.0</ele><time>2026-05-02T11:35:37.994Z</time></trkpt><trkpt lat="43.0694149" lon="12.1698022"><ele>506.0</ele><time>2026-05-02T11:35:39Z</time></trkpt><trkpt lat="43.0694212" lon="12.1698959"><ele>505.99999999999994</ele><time>2026-05-02T11:35:39.994Z</time></trkpt><trkpt lat="43.06941" lon="12.1699948"><ele>506.0</ele><time>2026-05-02T11:35:40.997Z</time></trkpt><trkpt lat="43.0694046" lon="12.1701052"><ele>503.16666666666663</ele><time>2026-05-02T11:35:41.994Z</time></trkpt><trkpt lat="43.0693918" lon="12.1702151"><ele>500.3333333333333</ele><time>2026-05-02T11:35:43Z</time></trkpt><trkpt lat="43.0693734" lon="12.1703121"><ele>497.5</ele><time>2026-05-02T11:35:43.996Z</time></trkpt><trkpt lat="43.0693679" lon="12.170417"><ele>494.66666666666663</ele><time>2026-05-02T11:35:44.994Z</time></trkpt><trkpt lat="43.0693485" lon="12.1705161"><ele>491.8333333333333</ele><time>2026-05-02T11:35:45.996Z</time></trkpt><trkpt lat="43.0693385" lon="12.1706311"><ele>489.0</ele><time>2026-05-02T11:35:46.994Z</time></trkpt><trkpt lat="43.0693419" lon="12.1707411"><ele>488.4</ele><time>2026-05-02T11:35:48Z</time></trkpt><trkpt lat="43.0693495" lon="12.1708412"><ele>487.79999999999995</ele><time>2026-05-02T11:35:48.998Z</time></trkpt><trkpt lat="43.0693487" lon="12.1710075"><ele>487.20000000000005</ele><time>2026-05-02T11:35:50.996Z</time></trkpt><trkpt lat="43.0693345" lon="12.1711108"><ele>486.6</ele><time>2026-05-02T11:35:51.993Z</time></trkpt><trkpt lat="43.069308" lon="12.1712905"><ele>486.0</ele><time>2026-05-02T11:35:53.995Z</time></trkpt><trkpt lat="43.0692993" lon="12.1713905"><ele>486.0</ele><time>2026-05-02T11:35:54.995Z</time></trkpt><trkpt lat="43.0692906" lon="12.1714795"><ele>486.0</ele><time>2026-05-02T11:35:55.995Z</time></trkpt><trkpt lat="43.0693135" lon="12.1716239"><ele>486.0</ele><time>2026-05-02T11:35:57.998Z</time></trkpt><trkpt lat="43.0693629" lon="12.1716881"><ele>486.0</ele><time>2026-05-02T11:35:58.997Z</time></trkpt><trkpt lat="43.0694347" lon="12.1717891"><ele>486.0</ele><time>2026-05-02T11:36:00.998Z</time></trkpt><trkpt lat="43.0694833" lon="12.1718918"><ele>486.0</ele><time>2026-05-02T11:36:03Z</time></trkpt><trkpt lat="43.0695541" lon="12.1719827"><ele>485.8</ele><time>2026-05-02T11:36:04.997Z</time></trkpt><trkpt lat="43.0696453" lon="12.1720197"><ele>485.6</ele><time>2026-05-02T11:36:06.999Z</time></trkpt><trkpt lat="43.0697604" lon="12.1720009"><ele>485.4</ele><time>2026-05-02T11:36:08.996Z</time></trkpt><trkpt lat="43.0698678" lon="12.1719949"><ele>485.2</ele><time>2026-05-02T11:36:10.999Z</time></trkpt><trkpt lat="43.0699325" lon="12.1719861"><ele>485.0</ele><time>2026-05-02T11:36:11.993Z</time></trkpt><trkpt lat="43.0699983" lon="12.1719652"><ele>486.8333333333333</ele><time>2026-05-02T11:36:13Z</time></trkpt><trkpt lat="43.07007" lon="12.1719415"><ele>488.66666666666663</ele><time>2026-05-02T11:36:14Z</time></trkpt><trkpt lat="43.0701549" lon="12.1719087"><ele>490.5</ele><time>2026-05-02T11:36:15Z</time></trkpt><trkpt lat="43.070239" lon="12.1718812"><ele>492.33333333333337</ele><time>2026-05-02T11:36:15.995Z</time></trkpt><trkpt lat="43.070317" lon="12.1718504"><ele>494.1666666666667</ele><time>2026-05-02T11:36:17Z</time></trkpt><trkpt lat="43.0704113" lon="12.1718301"><ele>496.0</ele><time>2026-05-02T11:36:17.994Z</time></trkpt><trkpt lat="43.0705341" lon="12.1718006"><ele>496.0</ele><time>2026-05-02T11:36:19.993Z</time></trkpt><trkpt lat="43.0706639" lon="12.1717713"><ele>496.0</ele><time>2026-05-02T11:36:22.998Z</time></trkpt><trkpt lat="43.0707627" lon="12.171768"><ele>496.0</ele><time>2026-05-02T11:36:24.995Z</time></trkpt><trkpt lat="43.0708161" lon="12.1718985"><ele>496.0</ele><time>2026-05-02T11:36:26.998Z</time></trkpt><trkpt lat="43.0708309" lon="12.1719898"><ele>496.0</ele><time>2026-05-02T11:36:27.998Z</time></trkpt><trkpt lat="43.0708473" lon="12.1721033"><ele>496.50000000000006</ele><time>2026-05-02T11:36:28.999Z</time></trkpt><trkpt lat="43.0708589" lon="12.1722144"><ele>497.0</ele><time>2026-05-02T11:36:29.994Z</time></trkpt><trkpt lat="43.07086" lon="12.1723082"><ele>497.5</ele><time>2026-05-02T11:36:30.994Z</time></trkpt><trkpt lat="43.0708725" lon="12.1724026"><ele>498.0</ele><time>2026-05-02T11:36:31.996Z</time></trkpt><trkpt lat="43.0708893" lon="12.172502"><ele>498.50000000000006</ele><time>2026-05-02T11:36:32.996Z</time></trkpt><trkpt lat="43.0708947" lon="12.1726084"><ele>499.0</ele><time>2026-05-02T11:36:33.996Z</time></trkpt><trkpt lat="43.0708963" lon="12.1727162"><ele>497.00000000000006</ele><time>2026-05-02T11:36:34.997Z</time></trkpt><trkpt lat="43.0708924" lon="12.172804"><ele>495.0</ele><time>2026-05-02T11:36:35.996Z</time></trkpt><trkpt lat="43.0709159" lon="12.1729179"><ele>493.0</ele><time>2026-05-02T11:36:36.996Z</time></trkpt><trkpt lat="43.0709392" lon="12.1730174"><ele>491.0</ele><time>2026-05-02T11:36:37.992Z</time></trkpt><trkpt lat="43.070984" lon="12.1731429"><ele>489.00000000000006</ele><time>2026-05-02T11:36:39.996Z</time></trkpt><trkpt lat="43.0710314" lon="12.1732751"><ele>487.0</ele><time>2026-05-02T11:36:41.994Z</time></trkpt><trkpt lat="43.0710449" lon="12.1734295"><ele>486.7142857142857</ele><time>2026-05-02T11:36:43.993Z</time></trkpt><trkpt lat="43.0710713" lon="12.1735132"><ele>486.42857142857144</ele><time>2026-05-02T11:36:44.993Z</time></trkpt><trkpt lat="43.0710806" lon="12.173606"><ele>486.14285714285717</ele><time>2026-05-02T11:36:45.996Z</time></trkpt><trkpt lat="43.0710905" lon="12.1737029"><ele>485.8571428571429</ele><time>2026-05-02T11:36:46.994Z</time></trkpt><trkpt lat="43.0711147" lon="12.1737926"><ele>485.57142857142856</ele><time>2026-05-02T11:36:47.994Z</time></trkpt><trkpt lat="43.0711486" lon="12.1738751"><ele>485.28571428571433</ele><time>2026-05-02T11:36:48.997Z</time></trkpt><trkpt lat="43.0711922" lon="12.1739544"><ele>485.00000000000006</ele><time>2026-05-02T11:36:49.995Z</time></trkpt><trkpt lat="43.0712463" lon="12.174017"><ele>484.6</ele><time>2026-05-02T11:36:50.998Z</time></trkpt><trkpt lat="43.0713243" lon="12.1741179"><ele>484.2</ele><time>2026-05-02T11:36:52.996Z</time></trkpt><trkpt lat="43.0714243" lon="12.1741241"><ele>483.79999999999995</ele><time>2026-05-02T11:36:55Z</time></trkpt><trkpt lat="43.0715082" lon="12.1740966"><ele>483.4</ele><time>2026-05-02T11:36:57Z</time></trkpt><trkpt lat="43.0715869" lon="12.1740341"><ele>483.0</ele><time>2026-05-02T11:36:59Z</time></trkpt><trkpt lat="43.0716537" lon="12.1739676"><ele>485.8571428571429</ele><time>2026-05-02T11:37:00.997Z</time></trkpt><trkpt lat="43.0717166" lon="12.1738953"><ele>488.7142857142857</ele><time>2026-05-02T11:37:01.999Z</time></trkpt><trkpt lat="43.0717705" lon="12.1738465"><ele>491.57142857142856</ele><time>2026-05-02T11:37:03Z</time></trkpt><trkpt lat="43.0718284" lon="12.1737996"><ele>494.42857142857144</ele><time>2026-05-02T11:37:04Z</time></trkpt><trkpt lat="43.0718866" lon="12.1737644"><ele>497.28571428571433</ele><time>2026-05-02T11:37:05Z</time></trkpt><trkpt lat="43.0719474" lon="12.173729"><ele>500.14285714285717</ele><time>2026-05-02T11:37:05.999Z</time></trkpt><trkpt lat="43.0720258" lon="12.1736876"><ele>503.0</ele><time>2026-05-02T11:37:07Z</time></trkpt><trkpt lat="43.0721087" lon="12.1736614"><ele>503.0</ele><time>2026-05-02T11:37:07.997Z</time></trkpt><trkpt lat="43.0722174" lon="12.1735672"><ele>502.99999999999994</ele><time>2026-05-02T11:37:09.996Z</time></trkpt><trkpt lat="43.0723142" lon="12.1734317"><ele>502.99999999999994</ele><time>2026-05-02T11:37:11.996Z</time></trkpt><trkpt lat="43.0723724" lon="12.1733592"><ele>503.0</ele><time>2026-05-02T11:37:12.997Z</time></trkpt><trkpt lat="43.0724207" lon="12.1732984"><ele>503.0</ele><time>2026-05-02T11:37:13.997Z</time></trkpt><trkpt lat="43.0725347" lon="12.1732451"><ele>500.59999999999997</ele><time>2026-05-02T11:37:15.996Z</time></trkpt><trkpt lat="43.0725982" lon="12.1733104"><ele>498.19999999999993</ele><time>2026-05-02T11:37:17Z</time></trkpt><trkpt lat="43.0726902" lon="12.1733384"><ele>495.8</ele><time>2026-05-02T11:37:18Z</time></trkpt><trkpt lat="43.0727725" lon="12.1733792"><ele>493.4</ele><time>2026-05-02T11:37:18.997Z</time></trkpt><trkpt lat="43.0728398" lon="12.1734132"><ele>491.0</ele><time>2026-05-02T11:37:20Z</time></trkpt><trkpt lat="43.0729339" lon="12.1735187"><ele>490.99999999999994</ele><time>2026-05-02T11:37:21.995Z</time></trkpt><trkpt lat="43.0729648" lon="12.1736421"><ele>491.0</ele><time>2026-05-02T11:37:23.995Z</time></trkpt><trkpt lat="43.0729828" lon="12.1737665"><ele>491.0</ele><time>2026-05-02T11:37:25.998Z</time></trkpt><trkpt lat="43.0729963" lon="12.1738958"><ele>491.0</ele><time>2026-05-02T11:37:28Z</time></trkpt><trkpt lat="43.0730029" lon="12.1739832"><ele>490.99999999999994</ele><time>2026-05-02T11:37:29.997Z</time></trkpt><trkpt lat="43.0730509" lon="12.1740791"><ele>491.0</ele><time>2026-05-02T11:38:15Z</time></trkpt><trkpt lat="43.0730929" lon="12.1741547"><ele>488.6</ele><time>2026-05-02T11:38:16.994Z</time></trkpt><trkpt lat="43.0731605" lon="12.1743016"><ele>486.20000000000005</ele><time>2026-05-02T11:38:19Z</time></trkpt><trkpt lat="43.0731992" lon="12.1743728"><ele>483.79999999999995</ele><time>2026-05-02T11:38:20Z</time></trkpt><trkpt lat="43.0732678" lon="12.1744998"><ele>481.4</ele><time>2026-05-02T11:38:21.999Z</time></trkpt><trkpt lat="43.0733093" lon="12.174567"><ele>479.0</ele><time>2026-05-02T11:38:22.994Z</time></trkpt><trkpt lat="43.073409" lon="12.1746406"><ele>479.0</ele><time>2026-05-02T11:38:24.996Z</time></trkpt><trkpt lat="43.0735328" lon="12.1746565"><ele>479.0</ele><time>2026-05-02T11:38:26.995Z</time></trkpt><trkpt lat="43.07364" lon="12.1746017"><ele>479.0</ele><time>2026-05-02T11:38:28.997Z</time></trkpt><trkpt lat="43.0737053" lon="12.1745609"><ele>479.0</ele><time>2026-05-02T11:38:29.997Z</time></trkpt><trkpt lat="43.0738188" lon="12.1744944"><ele>479.0</ele><time>2026-05-02T11:38:32Z</time></trkpt><trkpt lat="43.0738891" lon="12.174447"><ele>478.99999999999994</ele><time>2026-05-02T11:38:33Z</time></trkpt><trkpt lat="43.0739488" lon="12.174397"><ele>479.0</ele><time>2026-05-02T11:38:33.994Z</time></trkpt><trkpt lat="43.0740017" lon="12.1743485"><ele>479.0</ele><time>2026-05-02T11:38:34.997Z</time></trkpt><trkpt lat="43.0740723" lon="12.1743386"><ele>479.0</ele><time>2026-05-02T11:38:35.993Z</time></trkpt><trkpt lat="43.0741773" lon="12.1743446"><ele>478.99999999999994</ele><time>2026-05-02T11:38:37.996Z</time></trkpt><trkpt lat="43.0742727" lon="12.1744454"><ele>479.0</ele><time>2026-05-02T11:38:39.993Z</time></trkpt><trkpt lat="43.0743265" lon="12.17453"><ele>479.16666666666663</ele><time>2026-05-02T11:38:40.999Z</time></trkpt><trkpt lat="43.0743708" lon="12.1746042"><ele>479.3333333333333</ele><time>2026-05-02T11:38:41.997Z</time></trkpt><trkpt lat="43.074486" lon="12.1746954"><ele>479.5</ele><time>2026-05-02T11:38:43.995Z</time></trkpt><trkpt lat="43.0745505" lon="12.1747205"><ele>479.66666666666663</ele><time>2026-05-02T11:38:44.995Z</time></trkpt><trkpt lat="43.0746159" lon="12.1747478"><ele>479.8333333333333</ele><time>2026-05-02T11:38:45.996Z</time></trkpt><trkpt lat="43.0746971" lon="12.1747997"><ele>480.0</ele><time>2026-05-02T11:38:47Z</time></trkpt><trkpt lat="43.074774" lon="12.1748415"><ele>476.4</ele><time>2026-05-02T11:38:48Z</time></trkpt><trkpt lat="43.074853" lon="12.1748858"><ele>472.8</ele><time>2026-05-02T11:38:48.999Z</time></trkpt><trkpt lat="43.0749282" lon="12.1749352"><ele>469.20000000000005</ele><time>2026-05-02T11:38:49.993Z</time></trkpt><trkpt lat="43.0749893" lon="12.1749822"><ele>465.6</ele><time>2026-05-02T11:38:50.998Z</time></trkpt><trkpt lat="43.0750674" lon="12.1750812"><ele>462.0</ele><time>2026-05-02T11:38:52.998Z</time></trkpt><trkpt lat="43.0751528" lon="12.1751707"><ele>462.0</ele><time>2026-05-02T11:38:54.997Z</time></trkpt><trkpt lat="43.0751925" lon="12.1752791"><ele>462.0</ele><time>2026-05-02T11:38:56.998Z</time></trkpt><trkpt lat="43.075241" lon="12.1753731"><ele>462.0</ele><time>2026-05-02T11:38:58.997Z</time></trkpt><trkpt lat="43.0752959" lon="12.1754667"><ele>462.0</ele><time>2026-05-02T11:39:00.997Z</time></trkpt><trkpt lat="43.0753811" lon="12.175556"><ele>462.0</ele><time>2026-05-02T11:39:02.997Z</time></trkpt><trkpt lat="43.0754394" lon="12.1755909"><ele>462.0</ele><time>2026-05-02T11:39:03.995Z</time></trkpt><trkpt lat="43.07554" lon="12.1756594"><ele>461.0</ele><time>2026-05-02T11:39:06Z</time></trkpt><trkpt lat="43.0755989" lon="12.1757066"><ele>460.0</ele><time>2026-05-02T11:39:06.997Z</time></trkpt><trkpt lat="43.0756605" lon="12.1757623"><ele>459.0</ele><time>2026-05-02T11:39:07.994Z</time></trkpt><trkpt lat="43.0757551" lon="12.1758384"><ele>458.0</ele><time>2026-05-02T11:39:09.997Z</time></trkpt><trkpt lat="43.0758236" lon="12.1758894"><ele>457.0</ele><time>2026-05-02T11:39:11.998Z</time></trkpt><trkpt lat="43.0758105" lon="12.1760191"><ele>456.0</ele><time>2026-05-02T11:39:15Z</time></trkpt><trkpt lat="43.07579" lon="12.1761013"><ele>456.0</ele><time>2026-05-02T11:39:16.992Z</time></trkpt><trkpt lat="43.0757766" lon="12.1761964"><ele>456.0</ele><time>2026-05-02T11:39:18.999Z</time></trkpt><trkpt lat="43.0757509" lon="12.176333"><ele>456.0</ele><time>2026-05-02T11:40:25.995Z</time></trkpt><trkpt lat="43.0757369" lon="12.1764325"><ele>456.0</ele><time>2026-05-02T11:40:26.995Z</time></trkpt><trkpt lat="43.0757224" lon="12.1765457"><ele>456.0</ele><time>2026-05-02T11:40:27.998Z</time></trkpt><trkpt lat="43.0756951" lon="12.1766792"><ele>456.0</ele><time>2026-05-02T11:40:28.995Z</time></trkpt><trkpt lat="43.0756678" lon="12.1768257"><ele>452.5</ele><time>2026-05-02T11:40:29.996Z</time></trkpt><trkpt lat="43.0756371" lon="12.1769721"><ele>449.0</ele><time>2026-05-02T11:40:30.994Z</time></trkpt><trkpt lat="43.0756245" lon="12.1771354"><ele>445.5</ele><time>2026-05-02T11:40:31.996Z</time></trkpt><trkpt lat="43.0756214" lon="12.177302"><ele>442.0</ele><time>2026-05-02T11:40:32.994Z</time></trkpt><trkpt lat="43.0756072" lon="12.1774553"><ele>442.00000000000006</ele><time>2026-05-02T11:40:34Z</time></trkpt><trkpt lat="43.0755862" lon="12.1775976"><ele>442.0</ele><time>2026-05-02T11:40:34.993Z</time></trkpt><trkpt lat="43.0755597" lon="12.1777194"><ele>442.0</ele><time>2026-05-02T11:40:36Z</time></trkpt><trkpt lat="43.0755555" lon="12.1778307"><ele>442.0</ele><time>2026-05-02T11:40:36.993Z</time></trkpt><trkpt lat="43.075567" lon="12.1779314"><ele>442.00000000000006</ele><time>2026-05-02T11:40:38Z</time></trkpt><trkpt lat="43.075605" lon="12.1780318"><ele>442.0</ele><time>2026-05-02T11:40:38.994Z</time></trkpt><trkpt lat="43.0756609" lon="12.1781339"><ele>441.8</ele><time>2026-05-02T11:40:39.995Z</time></trkpt><trkpt lat="43.0757261" lon="12.1782483"><ele>441.6</ele><time>2026-05-02T11:40:40.995Z</time></trkpt><trkpt lat="43.0758048" lon="12.1783629"><ele>441.40000000000003</ele><time>2026-05-02T11:40:41.996Z</time></trkpt><trkpt lat="43.0758699" lon="12.1784672"><ele>441.20000000000005</ele><time>2026-05-02T11:40:42.996Z</time></trkpt><trkpt lat="43.0759269" lon="12.1785772"><ele>441.0</ele><time>2026-05-02T11:40:44Z</time></trkpt><trkpt lat="43.0759649" lon="12.1786988"><ele>444.6</ele><time>2026-05-02T11:40:45Z</time></trkpt><trkpt lat="43.0759976" lon="12.1788213"><ele>448.20000000000005</ele><time>2026-05-02T11:40:45.996Z</time></trkpt><trkpt lat="43.0760468" lon="12.1789323"><ele>451.79999999999995</ele><time>2026-05-02T11:40:46.998Z</time></trkpt><trkpt lat="43.0761075" lon="12.1790237"><ele>455.4</ele><time>2026-05-02T11:40:47.999Z</time></trkpt><trkpt lat="43.0761597" lon="12.1791157"><ele>459.0</ele><time>2026-05-02T11:40:49Z</time></trkpt><trkpt lat="43.0762247" lon="12.1791916"><ele>459.0</ele><time>2026-05-02T11:40:49.993Z</time></trkpt><trkpt lat="43.0762962" lon="12.1792593"><ele>459.0</ele><time>2026-05-02T11:40:50.993Z</time></trkpt><trkpt lat="43.0763712" lon="12.1793246"><ele>459.0</ele><time>2026-05-02T11:40:51.997Z</time></trkpt><trkpt lat="43.0764462" lon="12.1793973"><ele>459.0</ele><time>2026-05-02T11:40:52.996Z</time></trkpt><trkpt lat="43.07652" lon="12.1794719"><ele>459.0</ele><time>2026-05-02T11:40:53.994Z</time></trkpt><trkpt lat="43.0765743" lon="12.1795477"><ele>459.0</ele><time>2026-05-02T11:40:54.993Z</time></trkpt><trkpt lat="43.0766038" lon="12.1796365"><ele>459.0</ele><time>2026-05-02T11:40:55.997Z</time></trkpt><trkpt lat="43.0766111" lon="12.1797301"><ele>459.0</ele><time>2026-05-02T11:40:56.999Z</time></trkpt><trkpt lat="43.0766011" lon="12.179837"><ele>459.0</ele><time>2026-05-02T11:40:57.997Z</time></trkpt><trkpt lat="43.0765927" lon="12.1799739"><ele>459.0</ele><time>2026-05-02T11:40:58.996Z</time></trkpt><trkpt lat="43.0765968" lon="12.1801211"><ele>459.0</ele><time>2026-05-02T11:40:59.997Z</time></trkpt><trkpt lat="43.0765978" lon="12.1802662"><ele>457.2</ele><time>2026-05-02T11:41:00.995Z</time></trkpt><trkpt lat="43.0765944" lon="12.180397"><ele>455.4</ele><time>2026-05-02T11:41:01.999Z</time></trkpt><trkpt lat="43.0765897" lon="12.1805222"><ele>453.6</ele><time>2026-05-02T11:41:02.995Z</time></trkpt><trkpt lat="43.0765654" lon="12.1806448"><ele>451.8</ele><time>2026-05-02T11:41:03.997Z</time></trkpt><trkpt lat="43.0765108" lon="12.1807763"><ele>450.0</ele><time>2026-05-02T11:41:04.998Z</time></trkpt><trkpt lat="43.0764736" lon="12.1809189"><ele>450.0</ele><time>2026-05-02T11:41:05.998Z</time></trkpt><trkpt lat="43.0764483" lon="12.181048"><ele>450.0</ele><time>2026-05-02T11:41:06.995Z</time></trkpt><trkpt lat="43.0764258" lon="12.1811644"><ele>450.0</ele><time>2026-05-02T11:41:07.995Z</time></trkpt><trkpt lat="43.0764078" lon="12.1812632"><ele>450.0</ele><time>2026-05-02T11:41:08.997Z</time></trkpt><trkpt lat="43.0763811" lon="12.18135"><ele>450.0</ele><time>2026-05-02T11:41:09.994Z</time></trkpt><trkpt lat="43.0763304" lon="12.1814384"><ele>450.0</ele><time>2026-05-02T11:41:10.997Z</time></trkpt><trkpt lat="43.0762915" lon="12.1815214"><ele>451.28571428571433</ele><time>2026-05-02T11:41:12Z</time></trkpt><trkpt lat="43.0762428" lon="12.181608"><ele>452.57142857142856</ele><time>2026-05-02T11:41:12.996Z</time></trkpt><trkpt lat="43.0762072" lon="12.1817091"><ele>453.8571428571429</ele><time>2026-05-02T11:41:13.998Z</time></trkpt><trkpt lat="43.0761898" lon="12.1817991"><ele>455.14285714285717</ele><time>2026-05-02T11:41:14.999Z</time></trkpt><trkpt lat="43.0761808" lon="12.1818991"><ele>456.42857142857144</ele><time>2026-05-02T11:41:15.996Z</time></trkpt><trkpt lat="43.0761913" lon="12.1820006"><ele>457.7142857142857</ele><time>2026-05-02T11:41:16.998Z</time></trkpt><trkpt lat="43.0762205" lon="12.1820856"><ele>459.0</ele><time>2026-05-02T11:41:17.996Z</time></trkpt><trkpt lat="43.0762847" lon="12.1821951"><ele>459.0</ele><time>2026-05-02T11:41:19.995Z</time></trkpt><trkpt lat="43.0763504" lon="12.1822354"><ele>459.0</ele><time>2026-05-02T11:41:21.992Z</time></trkpt><trkpt lat="43.0764208" lon="12.1822809"><ele>459.0</ele><time>2026-05-02T11:41:24.993Z</time></trkpt><trkpt lat="43.0764825" lon="12.1823191"><ele>459.0</ele><time>2026-05-02T11:41:35.991Z</time></trkpt><trkpt lat="43.0765859" lon="12.1823921"><ele>459.0</ele><time>2026-05-02T11:41:37.999Z</time></trkpt><trkpt lat="43.0766471" lon="12.1824341"><ele>459.0</ele><time>2026-05-02T11:41:39Z</time></trkpt><trkpt lat="43.0767178" lon="12.1824681"><ele>461.1666666666667</ele><time>2026-05-02T11:41:39.996Z</time></trkpt><trkpt lat="43.076799" lon="12.182509"><ele>463.33333333333337</ele><time>2026-05-02T11:41:40.998Z</time></trkpt><trkpt lat="43.0768941" lon="12.1825432"><ele>465.5</ele><time>2026-05-02T11:41:41.999Z</time></trkpt><trkpt lat="43.0769727" lon="12.182566"><ele>467.6666666666667</ele><time>2026-05-02T11:41:42.999Z</time></trkpt><trkpt lat="43.0770523" lon="12.1825726"><ele>469.83333333333337</ele><time>2026-05-02T11:41:43.994Z</time></trkpt><trkpt lat="43.0771305" lon="12.1825609"><ele>472.0</ele><time>2026-05-02T11:41:44.998Z</time></trkpt><trkpt lat="43.0772026" lon="12.1825541"><ele>472.0</ele><time>2026-05-02T11:41:45.996Z</time></trkpt><trkpt lat="43.0772719" lon="12.1825462"><ele>472.00000000000006</ele><time>2026-05-02T11:41:46.993Z</time></trkpt><trkpt lat="43.0773328" lon="12.1826132"><ele>472.00000000000006</ele><time>2026-05-02T11:41:56.998Z</time></trkpt><trkpt lat="43.0773664" lon="12.182709"><ele>472.0</ele><time>2026-05-02T11:41:58.998Z</time></trkpt><trkpt lat="43.0774238" lon="12.1828559"><ele>472.0</ele><time>2026-05-02T11:42:00.999Z</time></trkpt><trkpt lat="43.0774875" lon="12.1829676"><ele>472.75</ele><time>2026-05-02T11:42:02.994Z</time></trkpt><trkpt lat="43.0775725" lon="12.183069"><ele>473.5</ele><time>2026-05-02T11:42:04.993Z</time></trkpt><trkpt lat="43.0776524" lon="12.1831784"><ele>474.25</ele><time>2026-05-02T11:42:07Z</time></trkpt><trkpt lat="43.0777568" lon="12.1832538"><ele>475.0</ele><time>2026-05-02T11:42:08.995Z</time></trkpt><trkpt lat="43.0779036" lon="12.1833127"><ele>475.00000000000006</ele><time>2026-05-02T11:42:10.997Z</time></trkpt><trkpt lat="43.0780122" lon="12.1833097"><ele>475.0</ele><time>2026-05-02T11:42:13Z</time></trkpt><trkpt lat="43.0781224" lon="12.1832725"><ele>475.0</ele><time>2026-05-02T11:42:14.997Z</time></trkpt><trkpt lat="43.0781822" lon="12.1832227"><ele>475.0</ele><time>2026-05-02T11:42:16.993Z</time></trkpt><trkpt lat="43.0782443" lon="12.1831882"><ele>475.00000000000006</ele><time>2026-05-02T11:42:19Z</time></trkpt><trkpt lat="43.0782937" lon="12.1832624"><ele>475.0</ele><time>2026-05-02T11:42:21.996Z</time></trkpt><trkpt lat="43.0783456" lon="12.1834258"><ele>475.00000000000006</ele><time>2026-05-02T11:42:23.998Z</time></trkpt><trkpt lat="43.0783677" lon="12.1835099"><ele>475.0</ele><time>2026-05-02T11:42:24.996Z</time></trkpt><trkpt lat="43.0784137" lon="12.1836442"><ele>475.0</ele><time>2026-05-02T11:42:26.996Z</time></trkpt><trkpt lat="43.0784446" lon="12.1837615"><ele>475.0</ele><time>2026-05-02T11:42:28.994Z</time></trkpt><trkpt lat="43.0784831" lon="12.1838333"><ele>475.00000000000006</ele><time>2026-05-02T11:42:29.992Z</time></trkpt><trkpt lat="43.0785408" lon="12.183972"><ele>475.0</ele><time>2026-05-02T11:42:31.999Z</time></trkpt><trkpt lat="43.0785417" lon="12.1840719"><ele>475.8</ele><time>2026-05-02T11:42:33.995Z</time></trkpt><trkpt lat="43.0785125" lon="12.1842142"><ele>476.6</ele><time>2026-05-02T11:42:36Z</time></trkpt><trkpt lat="43.0784787" lon="12.1842895"><ele>477.4</ele><time>2026-05-02T11:42:36.996Z</time></trkpt><trkpt lat="43.0784229" lon="12.1844373"><ele>478.2</ele><time>2026-05-02T11:42:38.999Z</time></trkpt><trkpt lat="43.078353" lon="12.1845534"><ele>479.0</ele><time>2026-05-02T11:42:40.997Z</time></trkpt><trkpt lat="43.0782884" lon="12.1846125"><ele>478.4</ele><time>2026-05-02T11:42:41.994Z</time></trkpt><trkpt lat="43.0782277" lon="12.1846468"><ele>477.79999999999995</ele><time>2026-05-02T11:42:43Z</time></trkpt><trkpt lat="43.0781474" lon="12.1847583"><ele>477.20000000000005</ele><time>2026-05-02T11:42:44.999Z</time></trkpt><trkpt lat="43.0780817" lon="12.184872"><ele>476.6</ele><time>2026-05-02T11:42:46.995Z</time></trkpt><trkpt lat="43.0780582" lon="12.185006"><ele>476.0</ele><time>2026-05-02T11:42:48.993Z</time></trkpt><trkpt lat="43.0780094" lon="12.1851193"><ele>476.0</ele><time>2026-05-02T11:42:50.994Z</time></trkpt><trkpt lat="43.0779233" lon="12.1851654"><ele>476.0</ele><time>2026-05-02T11:42:52.993Z</time></trkpt><trkpt lat="43.0778137" lon="12.1852605"><ele>476.0</ele><time>2026-05-02T11:42:54.993Z</time></trkpt><trkpt lat="43.0777654" lon="12.1853231"><ele>476.0</ele><time>2026-05-02T11:42:55.993Z</time></trkpt><trkpt lat="43.0776995" lon="12.185447"><ele>476.0</ele><time>2026-05-02T11:42:57.995Z</time></trkpt><trkpt lat="43.0776324" lon="12.1855849"><ele>477.20000000000005</ele><time>2026-05-02T11:42:59.991Z</time></trkpt><trkpt lat="43.0775792" lon="12.1857364"><ele>478.40000000000003</ele><time>2026-05-02T11:43:01.99Z</time></trkpt><trkpt lat="43.0775102" lon="12.1858546"><ele>479.6</ele><time>2026-05-02T11:43:03.993Z</time></trkpt><trkpt lat="43.0774319" lon="12.1859526"><ele>480.8</ele><time>2026-05-02T11:43:05.998Z</time></trkpt><trkpt lat="43.0773875" lon="12.1860171"><ele>482.0</ele><time>2026-05-02T11:43:06.996Z</time></trkpt><trkpt lat="43.0773372" lon="12.1861367"><ele>479.16666666666663</ele><time>2026-05-02T11:43:08.993Z</time></trkpt><trkpt lat="43.0773728" lon="12.1862843"><ele>476.3333333333333</ele><time>2026-05-02T11:43:10.995Z</time></trkpt><trkpt lat="43.0773853" lon="12.1864011"><ele>473.5</ele><time>2026-05-02T11:43:13Z</time></trkpt><trkpt lat="43.0773757" lon="12.1865183"><ele>470.66666666666663</ele><time>2026-05-02T11:43:14.998Z</time></trkpt><trkpt lat="43.0773336" lon="12.1866261"><ele>467.8333333333333</ele><time>2026-05-02T11:43:16.996Z</time></trkpt><trkpt lat="43.0772732" lon="12.1866586"><ele>465.0</ele><time>2026-05-02T11:43:31.996Z</time></trkpt><trkpt lat="43.0773069" lon="12.1867532"><ele>465.0</ele><time>2026-05-02T11:43:38.994Z</time></trkpt><trkpt lat="43.0773768" lon="12.1868228"><ele>465.0</ele><time>2026-05-02T11:43:41.996Z</time></trkpt><trkpt lat="43.0774413" lon="12.1868844"><ele>465.0</ele><time>2026-05-02T11:43:43.995Z</time></trkpt><trkpt lat="43.0775425" lon="12.1869378"><ele>465.0</ele><time>2026-05-02T11:43:46Z</time></trkpt><trkpt lat="43.0776325" lon="12.1870036"><ele>465.0</ele><time>2026-05-02T11:43:47.991Z</time></trkpt><trkpt lat="43.0777026" lon="12.1870646"><ele>466.8333333333333</ele><time>2026-05-02T11:43:49.995Z</time></trkpt><trkpt lat="43.0777906" lon="12.1871278"><ele>468.66666666666663</ele><time>2026-05-02T11:43:51.995Z</time></trkpt><trkpt lat="43.0778626" lon="12.1871872"><ele>470.5</ele><time>2026-05-02T11:43:53.996Z</time></trkpt><trkpt lat="43.0779529" lon="12.1872301"><ele>472.3333333333333</ele><time>2026-05-02T11:43:55.997Z</time></trkpt><trkpt lat="43.078018" lon="12.1872476"><ele>474.16666666666663</ele><time>2026-05-02T11:43:57Z</time></trkpt><trkpt lat="43.0781019" lon="12.1872794"><ele>476.0</ele><time>2026-05-02T11:43:58.995Z</time></trkpt><trkpt lat="43.0781854" lon="12.1873131"><ele>473.1428571428571</ele><time>2026-05-02T11:44:00.996Z</time></trkpt><trkpt lat="43.0782573" lon="12.1873545"><ele>470.2857142857143</ele><time>2026-05-02T11:44:03Z</time></trkpt><trkpt lat="43.0783191" lon="12.1873948"><ele>467.42857142857144</ele><time>2026-05-02T11:44:04.992Z</time></trkpt><trkpt lat="43.0783892" lon="12.1874313"><ele>464.57142857142856</ele><time>2026-05-02T11:44:07Z</time></trkpt><trkpt lat="43.0784712" lon="12.1874771"><ele>461.71428571428567</ele><time>2026-05-02T11:44:10Z</time></trkpt><trkpt lat="43.0785376" lon="12.1875058"><ele>458.85714285714283</ele><time>2026-05-02T11:44:11.992Z</time></trkpt><trkpt lat="43.078601" lon="12.1875398"><ele>456.0</ele><time>2026-05-02T11:44:13.995Z</time></trkpt><trkpt lat="43.0786652" lon="12.1875701"><ele>455.3333333333333</ele><time>2026-05-02T11:44:16Z</time></trkpt><trkpt lat="43.078738" lon="12.1875796"><ele>454.66666666666663</ele><time>2026-05-02T11:44:18Z</time></trkpt><trkpt lat="43.0788396" lon="12.1876122"><ele>454.0</ele><time>2026-05-02T11:44:19.995Z</time></trkpt><trkpt lat="43.0789042" lon="12.1876308"><ele>453.3333333333333</ele><time>2026-05-02T11:44:21.996Z</time></trkpt><trkpt lat="43.0789869" lon="12.1876416"><ele>452.66666666666663</ele><time>2026-05-02T11:44:24.992Z</time></trkpt><trkpt lat="43.0790635" lon="12.1876706"><ele>452.0</ele><time>2026-05-02T11:44:27.994Z</time></trkpt><trkpt lat="43.0791591" lon="12.1877065"><ele>450.99999999999994</ele><time>2026-05-02T11:44:31Z</time></trkpt><trkpt lat="43.0792272" lon="12.1877449"><ele>450.0</ele><time>2026-05-02T11:44:33.995Z</time></trkpt><trkpt lat="43.0793013" lon="12.1877625"><ele>449.0</ele><time>2026-05-02T11:44:35.992Z</time></trkpt><trkpt lat="43.0793892" lon="12.1878113"><ele>448.0</ele><time>2026-05-02T11:44:38.993Z</time></trkpt><trkpt lat="43.0794533" lon="12.1878597"><ele>446.99999999999994</ele><time>2026-05-02T11:44:40.996Z</time></trkpt><trkpt lat="43.0795079" lon="12.1879281"><ele>446.0</ele><time>2026-05-02T11:44:43Z</time></trkpt><trkpt lat="43.0795803" lon="12.1880097"><ele>446.0</ele><time>2026-05-02T11:44:44.995Z</time></trkpt><trkpt lat="43.0796735" lon="12.1880606"><ele>446.0</ele><time>2026-05-02T11:44:47Z</time></trkpt><trkpt lat="43.0797694" lon="12.1881263"><ele>446.0</ele><time>2026-05-02T11:44:48.996Z</time></trkpt><trkpt lat="43.0798577" lon="12.1882121"><ele>446.0</ele><time>2026-05-02T11:44:50.997Z</time></trkpt><trkpt lat="43.0799365" lon="12.1883228"><ele>446.0</ele><time>2026-05-02T11:44:52.999Z</time></trkpt><trkpt lat="43.0799834" lon="12.188428"><ele>442.49999999999994</ele><time>2026-05-02T11:44:55.999Z</time></trkpt><trkpt lat="43.0800463" lon="12.1884899"><ele>439.0</ele><time>2026-05-02T11:44:58.994Z</time></trkpt><trkpt lat="43.080118" lon="12.188498"><ele>435.5</ele><time>2026-05-02T11:45:01.991Z</time></trkpt><trkpt lat="43.0801956" lon="12.188513"><ele>432.0</ele><time>2026-05-02T11:45:03.999Z</time></trkpt><trkpt lat="43.0802754" lon="12.1885588"><ele>428.49999999999994</ele><time>2026-05-02T11:45:05.999Z</time></trkpt><trkpt lat="43.0803417" lon="12.1886121"><ele>425.0</ele><time>2026-05-02T11:45:07.995Z</time></trkpt><trkpt lat="43.080392" lon="12.1886655"><ele>424.99999999999994</ele><time>2026-05-02T11:45:11Z</time></trkpt><trkpt lat="43.0804767" lon="12.1887412"><ele>425.0</ele><time>2026-05-02T11:45:13.996Z</time></trkpt><trkpt lat="43.0805647" lon="12.1887695"><ele>425.0</ele><time>2026-05-02T11:45:15.997Z</time></trkpt><trkpt lat="43.0806754" lon="12.1887901"><ele>425.0</ele><time>2026-05-02T11:45:18Z</time></trkpt><trkpt lat="43.0807401" lon="12.1888041"><ele>424.99999999999994</ele><time>2026-05-02T11:45:18.993Z</time></trkpt><trkpt lat="43.0808055" lon="12.1888287"><ele>425.0</ele><time>2026-05-02T11:45:20Z</time></trkpt><trkpt lat="43.0808997" lon="12.188888"><ele>423.3333333333333</ele><time>2026-05-02T11:45:22Z</time></trkpt><trkpt lat="43.0809668" lon="12.188944"><ele>421.66666666666663</ele><time>2026-05-02T11:45:23.997Z</time></trkpt><trkpt lat="43.0810263" lon="12.1889756"><ele>420.0</ele><time>2026-05-02T11:45:25.997Z</time></trkpt><trkpt lat="43.0811286" lon="12.18903"><ele>418.33333333333337</ele><time>2026-05-02T11:45:27.992Z</time></trkpt><trkpt lat="43.0812345" lon="12.1890915"><ele>416.6666666666667</ele><time>2026-05-02T11:45:29.997Z</time></trkpt><trkpt lat="43.0812993" lon="12.1891447"><ele>415.0</ele><time>2026-05-02T11:45:31Z</time></trkpt><trkpt lat="43.0813518" lon="12.1891948"><ele>414.6666666666667</ele><time>2026-05-02T11:45:31.998Z</time></trkpt><trkpt lat="43.0814142" lon="12.189248"><ele>414.33333333333337</ele><time>2026-05-02T11:45:32.996Z</time></trkpt><trkpt lat="43.0814873" lon="12.1893187"><ele>414.0</ele><time>2026-05-02T11:45:34.994Z</time></trkpt><trkpt lat="43.0815126" lon="12.189399"><ele>413.66666666666663</ele><time>2026-05-02T11:45:36.995Z</time></trkpt><trkpt lat="43.0815595" lon="12.1895147"><ele>413.3333333333333</ele><time>2026-05-02T11:45:38.996Z</time></trkpt><trkpt lat="43.0816121" lon="12.1896221"><ele>413.0</ele><time>2026-05-02T11:45:40.992Z</time></trkpt><trkpt lat="43.0816527" lon="12.189777"><ele>410.2</ele><time>2026-05-02T11:45:42.999Z</time></trkpt><trkpt lat="43.0816979" lon="12.1899346"><ele>407.4</ele><time>2026-05-02T11:45:44.997Z</time></trkpt><trkpt lat="43.0817624" lon="12.190073"><ele>404.59999999999997</ele><time>2026-05-02T11:45:46.998Z</time></trkpt><trkpt lat="43.0818119" lon="12.1902323"><ele>401.79999999999995</ele><time>2026-05-02T11:45:48.991Z</time></trkpt><trkpt lat="43.0818375" lon="12.1903287"><ele>399.0</ele><time>2026-05-02T11:45:49.997Z</time></trkpt><trkpt lat="43.0818831" lon="12.1904275"><ele>399.0</ele><time>2026-05-02T11:45:50.994Z</time></trkpt><trkpt lat="43.081926" lon="12.1905174"><ele>399.0</ele><time>2026-05-02T11:45:52Z</time></trkpt><trkpt lat="43.081973" lon="12.1906186"><ele>399.0</ele><time>2026-05-02T11:45:52.995Z</time></trkpt><trkpt lat="43.0820108" lon="12.1907166"><ele>399.0</ele><time>2026-05-02T11:45:53.994Z</time></trkpt><trkpt lat="43.0820553" lon="12.1908221"><ele>399.0</ele><time>2026-05-02T11:45:54.997Z</time></trkpt><trkpt lat="43.0820875" lon="12.1909191"><ele>399.0</ele><time>2026-05-02T11:45:55.996Z</time></trkpt><trkpt lat="43.0821173" lon="12.1910072"><ele>398.1666666666667</ele><time>2026-05-02T11:45:56.996Z</time></trkpt><trkpt lat="43.0821581" lon="12.1911215"><ele>397.33333333333337</ele><time>2026-05-02T11:45:58.995Z</time></trkpt><trkpt lat="43.0821951" lon="12.191214"><ele>396.5</ele><time>2026-05-02T11:46:00.995Z</time></trkpt><trkpt lat="43.0822302" lon="12.1913098"><ele>395.6666666666667</ele><time>2026-05-02T11:46:02.994Z</time></trkpt><trkpt lat="43.082283" lon="12.1913957"><ele>394.83333333333337</ele><time>2026-05-02T11:46:04.99Z</time></trkpt><trkpt lat="43.0823556" lon="12.1914839"><ele>394.0</ele><time>2026-05-02T11:46:06.993Z</time></trkpt><trkpt lat="43.0824595" lon="12.1915266"><ele>393.4</ele><time>2026-05-02T11:46:08.996Z</time></trkpt><trkpt lat="43.082558" lon="12.1915982"><ele>392.79999999999995</ele><time>2026-05-02T11:46:10.999Z</time></trkpt><trkpt lat="43.0826543" lon="12.1916695"><ele>392.20000000000005</ele><time>2026-05-02T11:46:13Z</time></trkpt><trkpt lat="43.0827389" lon="12.1917219"><ele>391.6</ele><time>2026-05-02T11:46:14.997Z</time></trkpt><trkpt lat="43.0828212" lon="12.1917573"><ele>391.0</ele><time>2026-05-02T11:46:16.992Z</time></trkpt><trkpt lat="43.0829219" lon="12.191809"><ele>391.0</ele><time>2026-05-02T11:46:18.994Z</time></trkpt><trkpt lat="43.0830186" lon="12.191874"><ele>391.0</ele><time>2026-05-02T11:46:20.997Z</time></trkpt><trkpt lat="43.0831333" lon="12.1919399"><ele>391.0</ele><time>2026-05-02T11:46:22.995Z</time></trkpt><trkpt lat="43.0832541" lon="12.1920259"><ele>391.0</ele><time>2026-05-02T11:46:24.997Z</time></trkpt><trkpt lat="43.0833451" lon="12.1921318"><ele>389.83333333333337</ele><time>2026-05-02T11:46:26.993Z</time></trkpt><trkpt lat="43.083403" lon="12.1921949"><ele>388.6666666666667</ele><time>2026-05-02T11:46:27.993Z</time></trkpt><trkpt lat="43.0834842" lon="12.1923317"><ele>387.5</ele><time>2026-05-02T11:46:29.995Z</time></trkpt><trkpt lat="43.0835252" lon="12.1924128"><ele>386.33333333333337</ele><time>2026-05-02T11:46:30.995Z</time></trkpt><trkpt lat="43.083569" lon="12.1925006"><ele>385.1666666666667</ele><time>2026-05-02T11:46:31.994Z</time></trkpt><trkpt lat="43.0836094" lon="12.1925743"><ele>384.0</ele><time>2026-05-02T11:46:32.997Z</time></trkpt><trkpt lat="43.0836518" lon="12.1926445"><ele>383.5</ele><time>2026-05-02T11:46:33.992Z</time></trkpt><trkpt lat="43.0836944" lon="12.1927164"><ele>383.0</ele><time>2026-05-02T11:46:34.998Z</time></trkpt><trkpt lat="43.0837548" lon="12.1928592"><ele>382.5</ele><time>2026-05-02T11:46:36.999Z</time></trkpt><trkpt lat="43.083777" lon="12.1929524"><ele>382.0</ele><time>2026-05-02T11:46:37.996Z</time></trkpt><trkpt lat="43.0838014" lon="12.1930501"><ele>381.5</ele><time>2026-05-02T11:46:38.995Z</time></trkpt><trkpt lat="43.0838285" lon="12.1931452"><ele>381.0</ele><time>2026-05-02T11:46:39.993Z</time></trkpt><trkpt lat="43.0838563" lon="12.1932298"><ele>378.8</ele><time>2026-05-02T11:46:40.993Z</time></trkpt><trkpt lat="43.0838814" lon="12.193373"><ele>376.6</ele><time>2026-05-02T11:46:42.996Z</time></trkpt><trkpt lat="43.0838785" lon="12.1935378"><ele>374.4</ele><time>2026-05-02T11:46:44.999Z</time></trkpt><trkpt lat="43.0838732" lon="12.1936343"><ele>372.2</ele><time>2026-05-02T11:46:45.995Z</time></trkpt><trkpt lat="43.0838606" lon="12.1937351"><ele>370.0</ele><time>2026-05-02T11:46:46.999Z</time></trkpt><trkpt lat="43.0838469" lon="12.1938493"><ele>370.0</ele><time>2026-05-02T11:46:47.996Z</time></trkpt><trkpt lat="43.0838313" lon="12.1939597"><ele>370.0</ele><time>2026-05-02T11:46:48.99Z</time></trkpt><trkpt lat="43.0838178" lon="12.1940696"><ele>370.0</ele><time>2026-05-02T11:46:49.995Z</time></trkpt><trkpt lat="43.0838107" lon="12.1941728"><ele>370.0</ele><time>2026-05-02T11:46:50.996Z</time></trkpt><trkpt lat="43.0837842" lon="12.1943391"><ele>370.0</ele><time>2026-05-02T11:46:52.999Z</time></trkpt><trkpt lat="43.0837613" lon="12.1944978"><ele>367.6</ele><time>2026-05-02T11:46:54.995Z</time></trkpt><trkpt lat="43.083741" lon="12.1945883"><ele>365.2</ele><time>2026-05-02T11:46:55.993Z</time></trkpt><trkpt lat="43.0837351" lon="12.1946813"><ele>362.79999999999995</ele><time>2026-05-02T11:46:56.997Z</time></trkpt><trkpt lat="43.0837328" lon="12.1947762"><ele>360.4</ele><time>2026-05-02T11:46:57.993Z</time></trkpt><trkpt lat="43.0837804" lon="12.194921"><ele>358.0</ele><time>2026-05-02T11:46:59.993Z</time></trkpt><trkpt lat="43.0839025" lon="12.1950206"><ele>358.66666666666663</ele><time>2026-05-02T11:47:01.994Z</time></trkpt><trkpt lat="43.0839662" lon="12.1950887"><ele>359.3333333333333</ele><time>2026-05-02T11:47:02.993Z</time></trkpt><trkpt lat="43.0840312" lon="12.1951607"><ele>360.0</ele><time>2026-05-02T11:47:03.992Z</time></trkpt><trkpt lat="43.0840877" lon="12.1952375"><ele>360.6666666666667</ele><time>2026-05-02T11:47:04.995Z</time></trkpt><trkpt lat="43.0841461" lon="12.1953056"><ele>361.33333333333337</ele><time>2026-05-02T11:47:05.996Z</time></trkpt><trkpt lat="43.0842029" lon="12.1953809"><ele>362.0</ele><time>2026-05-02T11:47:06.993Z</time></trkpt><trkpt lat="43.0842682" lon="12.1954874"><ele>362.0</ele><time>2026-05-02T11:47:07.998Z</time></trkpt><trkpt lat="43.0843339" lon="12.1955751"><ele>362.0</ele><time>2026-05-02T11:47:08.995Z</time></trkpt><trkpt lat="43.0843877" lon="12.1956516"><ele>362.0</ele><time>2026-05-02T11:47:09.993Z</time></trkpt><trkpt lat="43.0844523" lon="12.195737"><ele>362.0</ele><time>2026-05-02T11:47:10.995Z</time></trkpt><trkpt lat="43.084504" lon="12.195819"><ele>362.0</ele><time>2026-05-02T11:47:11.995Z</time></trkpt><trkpt lat="43.084545" lon="12.1959084"><ele>362.0</ele><time>2026-05-02T11:47:13Z</time></trkpt><trkpt lat="43.0845926" lon="12.1960197"><ele>359.83333333333337</ele><time>2026-05-02T11:47:13.996Z</time></trkpt><trkpt lat="43.0846316" lon="12.1961182"><ele>357.6666666666667</ele><time>2026-05-02T11:47:14.999Z</time></trkpt><trkpt lat="43.0846632" lon="12.1962014"><ele>355.5</ele><time>2026-05-02T11:47:15.993Z</time></trkpt><trkpt lat="43.0846838" lon="12.1963649"><ele>353.3333333333333</ele><time>2026-05-02T11:47:17.994Z</time></trkpt><trkpt lat="43.0846484" lon="12.1964934"><ele>351.16666666666663</ele><time>2026-05-02T11:47:19.993Z</time></trkpt><trkpt lat="43.0845947" lon="12.1965624"><ele>349.0</ele><time>2026-05-02T11:47:21.992Z</time></trkpt><trkpt lat="43.0845316" lon="12.1966055"><ele>349.0</ele><time>2026-05-02T11:47:23.999Z</time></trkpt><trkpt lat="43.0844569" lon="12.1966289"><ele>349.0</ele><time>2026-05-02T11:47:30.999Z</time></trkpt><trkpt lat="43.0843824" lon="12.1965377"><ele>349.0</ele><time>2026-05-02T11:47:33.993Z</time></trkpt><trkpt lat="43.0843148" lon="12.1964194"><ele>349.0</ele><time>2026-05-02T11:47:35.994Z</time></trkpt><trkpt lat="43.084242" lon="12.1963494"><ele>349.0</ele><time>2026-05-02T11:47:37.995Z</time></trkpt><trkpt lat="43.0841639" lon="12.1963791"><ele>346.2</ele><time>2026-05-02T11:47:39.99Z</time></trkpt><trkpt lat="43.0840669" lon="12.1964754"><ele>343.4</ele><time>2026-05-02T11:47:41.999Z</time></trkpt><trkpt lat="43.0840369" lon="12.1965527"><ele>340.6</ele><time>2026-05-02T11:47:42.997Z</time></trkpt><trkpt lat="43.0839804" lon="12.196647"><ele>337.8</ele><time>2026-05-02T11:47:44.991Z</time></trkpt><trkpt lat="43.0839241" lon="12.1966904"><ele>335.0</ele><time>2026-05-02T11:47:46Z</time></trkpt><trkpt lat="43.0837964" lon="12.1967422"><ele>332.8</ele><time>2026-05-02T11:47:48Z</time></trkpt><trkpt lat="43.0836821" lon="12.196801"><ele>330.6</ele><time>2026-05-02T11:47:49.996Z</time></trkpt><trkpt lat="43.0836689" lon="12.19691"><ele>328.4</ele><time>2026-05-02T11:47:51.992Z</time></trkpt><trkpt lat="43.0836717" lon="12.1970523"><ele>326.2</ele><time>2026-05-02T11:47:53.998Z</time></trkpt><trkpt lat="43.0837379" lon="12.1971837"><ele>324.0</ele><time>2026-05-02T11:47:56Z</time></trkpt><trkpt lat="43.0837994" lon="12.1972302"><ele>324.0</ele><time>2026-05-02T11:47:56.993Z</time></trkpt><trkpt lat="43.0838709" lon="12.1972689"><ele>324.0</ele><time>2026-05-02T11:47:57.994Z</time></trkpt><trkpt lat="43.0839716" lon="12.1973185"><ele>324.0</ele><time>2026-05-02T11:47:59.995Z</time></trkpt><trkpt lat="43.0840599" lon="12.1973489"><ele>324.0</ele><time>2026-05-02T11:48:01.992Z</time></trkpt><trkpt lat="43.0841497" lon="12.1973954"><ele>324.0</ele><time>2026-05-02T11:48:04Z</time></trkpt><trkpt lat="43.0842312" lon="12.1974705"><ele>323.5</ele><time>2026-05-02T11:48:05.994Z</time></trkpt><trkpt lat="43.0843218" lon="12.1975513"><ele>323.0</ele><time>2026-05-02T11:48:07.996Z</time></trkpt><trkpt lat="43.0843912" lon="12.1975901"><ele>322.5</ele><time>2026-05-02T11:48:08.995Z</time></trkpt><trkpt lat="43.08446" lon="12.1976471"><ele>322.0</ele><time>2026-05-02T11:48:09.992Z</time></trkpt><trkpt lat="43.084528" lon="12.1977029"><ele>321.5</ele><time>2026-05-02T11:48:10.992Z</time></trkpt><trkpt lat="43.0845858" lon="12.1977491"><ele>321.0</ele><time>2026-05-02T11:48:12Z</time></trkpt><trkpt lat="43.084689" lon="12.1978227"><ele>321.0</ele><time>2026-05-02T11:48:13.992Z</time></trkpt><trkpt lat="43.0847607" lon="12.1978272"><ele>321.0</ele><time>2026-05-02T11:48:15.993Z</time></trkpt><trkpt lat="43.084831" lon="12.1978473"><ele>321.0</ele><time>2026-05-02T11:48:17.994Z</time></trkpt><trkpt lat="43.0849015" lon="12.1978277"><ele>321.0</ele><time>2026-05-02T11:48:19.996Z</time></trkpt><trkpt lat="43.0849759" lon="12.1978317"><ele>321.0</ele><time>2026-05-02T11:48:38.992Z</time></trkpt><trkpt lat="43.085064" lon="12.1978141"><ele>321.0</ele><time>2026-05-02T11:48:39.997Z</time></trkpt><trkpt lat="43.0851398" lon="12.1977493"><ele>321.25</ele><time>2026-05-02T11:48:40.997Z</time></trkpt><trkpt lat="43.0852229" lon="12.1976784"><ele>321.5</ele><time>2026-05-02T11:48:41.999Z</time></trkpt><trkpt lat="43.0853197" lon="12.1976017"><ele>321.75</ele><time>2026-05-02T11:48:43Z</time></trkpt><trkpt lat="43.0854064" lon="12.1974918"><ele>322.0</ele><time>2026-05-02T11:48:43.995Z</time></trkpt><trkpt lat="43.0854957" lon="12.1973436"><ele>322.0</ele><time>2026-05-02T11:48:44.996Z</time></trkpt><trkpt lat="43.08558" lon="12.1971761"><ele>322.0</ele><time>2026-05-02T11:48:45.994Z</time></trkpt><trkpt lat="43.0856803" lon="12.197004"><ele>322.0</ele><time>2026-05-02T11:48:46.994Z</time></trkpt><trkpt lat="43.0857754" lon="12.1968464"><ele>322.0</ele><time>2026-05-02T11:48:47.994Z</time></trkpt><trkpt lat="43.08588" lon="12.1966684"><ele>322.0</ele><time>2026-05-02T11:48:49Z</time></trkpt><trkpt lat="43.0859759" lon="12.1964941"><ele>322.0</ele><time>2026-05-02T11:48:49.991Z</time></trkpt><trkpt lat="43.086067" lon="12.1963235"><ele>320.75</ele><time>2026-05-02T11:48:50.995Z</time></trkpt><trkpt lat="43.0861618" lon="12.1961613"><ele>319.5</ele><time>2026-05-02T11:48:52Z</time></trkpt><trkpt lat="43.0862554" lon="12.1960098"><ele>318.25</ele><time>2026-05-02T11:48:52.997Z</time></trkpt><trkpt lat="43.0863447" lon="12.1958558"><ele>317.0</ele><time>2026-05-02T11:48:53.995Z</time></trkpt><trkpt lat="43.0864258" lon="12.1957074"><ele>317.5</ele><time>2026-05-02T11:48:54.995Z</time></trkpt><trkpt lat="43.0865088" lon="12.1955573"><ele>318.0</ele><time>2026-05-02T11:48:55.998Z</time></trkpt><trkpt lat="43.0865783" lon="12.1954114"><ele>318.5</ele><time>2026-05-02T11:48:56.997Z</time></trkpt><trkpt lat="43.0866558" lon="12.1952778"><ele>319.0</ele><time>2026-05-02T11:48:57.994Z</time></trkpt><trkpt lat="43.086731" lon="12.1951437"><ele>315.25</ele><time>2026-05-02T11:48:58.991Z</time></trkpt><trkpt lat="43.0868046" lon="12.1950128"><ele>311.5</ele><time>2026-05-02T11:48:59.996Z</time></trkpt><trkpt lat="43.0868798" lon="12.1948853"><ele>307.75</ele><time>2026-05-02T11:49:00.995Z</time></trkpt><trkpt lat="43.0869439" lon="12.1947626"><ele>304.0</ele><time>2026-05-02T11:49:01.996Z</time></trkpt><trkpt lat="43.0870048" lon="12.1946437"><ele>304.0</ele><time>2026-05-02T11:49:02.993Z</time></trkpt><trkpt lat="43.0870603" lon="12.1945377"><ele>304.0</ele><time>2026-05-02T11:49:03.998Z</time></trkpt><trkpt lat="43.0871149" lon="12.1944434"><ele>304.0</ele><time>2026-05-02T11:49:04.998Z</time></trkpt><trkpt lat="43.0871815" lon="12.1943636"><ele>304.0</ele><time>2026-05-02T11:49:05.993Z</time></trkpt><trkpt lat="43.0872515" lon="12.1943081"><ele>304.0</ele><time>2026-05-02T11:49:06.995Z</time></trkpt><trkpt lat="43.0873262" lon="12.1942921"><ele>304.0</ele><time>2026-05-02T11:49:08Z</time></trkpt><trkpt lat="43.0873863" lon="12.1943238"><ele>300.8</ele><time>2026-05-02T11:49:08.994Z</time></trkpt><trkpt lat="43.0874722" lon="12.1944371"><ele>297.59999999999997</ele><time>2026-05-02T11:49:10.998Z</time></trkpt><trkpt lat="43.0874826" lon="12.1945356"><ele>294.4</ele><time>2026-05-02T11:49:11.995Z</time></trkpt><trkpt lat="43.0874817" lon="12.1946517"><ele>291.2</ele><time>2026-05-02T11:49:12.993Z</time></trkpt><trkpt lat="43.0874796" lon="12.1947705"><ele>288.0</ele><time>2026-05-02T11:49:13.995Z</time></trkpt><trkpt lat="43.0874749" lon="12.1948957"><ele>288.0</ele><time>2026-05-02T11:49:14.994Z</time></trkpt><trkpt lat="43.0874968" lon="12.1950208"><ele>288.0</ele><time>2026-05-02T11:49:15.994Z</time></trkpt><trkpt lat="43.0875358" lon="12.1951263"><ele>288.0</ele><time>2026-05-02T11:49:17Z</time></trkpt><trkpt lat="43.0875593" lon="12.1952275"><ele>288.0</ele><time>2026-05-02T11:49:17.993Z</time></trkpt><trkpt lat="43.0875671" lon="12.1953541"><ele>288.0</ele><time>2026-05-02T11:49:19.992Z</time></trkpt><trkpt lat="43.0874931" lon="12.1954063"><ele>288.0</ele><time>2026-05-02T11:49:21.992Z</time></trkpt><trkpt lat="43.0874192" lon="12.1954323"><ele>289.7142857142857</ele><time>2026-05-02T11:49:23.995Z</time></trkpt><trkpt lat="43.0873529" lon="12.1954189"><ele>291.42857142857144</ele><time>2026-05-02T11:49:26.996Z</time></trkpt><trkpt lat="43.0872792" lon="12.1954976"><ele>293.1428571428571</ele><time>2026-05-02T11:49:32.999Z</time></trkpt><trkpt lat="43.0872808" lon="12.195586"><ele>294.8571428571429</ele><time>2026-05-02T11:49:38.994Z</time></trkpt><trkpt lat="43.0872778" lon="12.1954882"><ele>296.57142857142856</ele><time>2026-05-02T11:50:57Z</time></trkpt><trkpt lat="43.0872962" lon="12.1953987"><ele>298.2857142857143</ele><time>2026-05-02T11:51:02.993Z</time></trkpt><trkpt lat="43.0873027" lon="12.1953066"><ele>300.0</ele><time>2026-05-02T11:51:10.992Z</time></trkpt><trkpt lat="43.0872391" lon="12.195279"><ele>299.99999999999994</ele><time>2026-05-02T11:51:22.994Z</time></trkpt><trkpt lat="43.0871996" lon="12.1952062"><ele>300.0</ele><time>2026-05-02T11:51:34Z</time></trkpt><trkpt lat="43.0872012" lon="12.1951164"><ele>300.0</ele><time>2026-05-02T11:53:43Z</time></trkpt><trkpt lat="43.0872338" lon="12.1950381"><ele>300.0</ele><time>2026-05-02T11:54:07Z</time></trkpt><trkpt lat="43.0872963" lon="12.1950811"><ele>300.0</ele><time>2026-05-02T11:54:14Z</time></trkpt><trkpt lat="43.0873415" lon="12.1951425"><ele>299.99999999999994</ele><time>2026-05-02T12:12:18Z</time></trkpt><trkpt lat="43.0873149" lon="12.1952213"><ele>300.0</ele><time>2026-05-02T12:12:20.998Z</time></trkpt><trkpt lat="43.087313" lon="12.1953209"><ele>300.0</ele><time>2026-05-02T12:12:25.996Z</time></trkpt><trkpt lat="43.087299" lon="12.195419"><ele>300.0</ele><time>2026-05-02T12:12:31Z</time></trkpt><trkpt lat="43.0872827" lon="12.1955218"><ele>300.0</ele><time>2026-05-02T12:12:36.986Z</time></trkpt><trkpt lat="43.0872524" lon="12.1956119"><ele>300.0</ele><time>2026-05-02T12:12:42.999Z</time></trkpt><trkpt lat="43.0873318" lon="12.1955868"><ele>300.0</ele><time>2026-05-02T12:14:30.995Z</time></trkpt><trkpt lat="43.0874238" lon="12.1955354"><ele>300.0</ele><time>2026-05-02T12:14:33Z</time></trkpt><trkpt lat="43.0875241" lon="12.1954808"><ele>298.0</ele><time>2026-05-02T12:14:35Z</time></trkpt><trkpt lat="43.0875875" lon="12.1954626"><ele>296.0</ele><time>2026-05-02T12:14:39Z</time></trkpt><trkpt lat="43.0875966" lon="12.1953388"><ele>294.0</ele><time>2026-05-02T12:14:55.996Z</time></trkpt><trkpt lat="43.0875508" lon="12.1951656"><ele>292.0</ele><time>2026-05-02T12:14:57.997Z</time></trkpt><trkpt lat="43.0875204" lon="12.1950753"><ele>290.0</ele><time>2026-05-02T12:14:58.999Z</time></trkpt><trkpt lat="43.0875099" lon="12.1949668"><ele>288.0</ele><time>2026-05-02T12:14:59.999Z</time></trkpt><trkpt lat="43.0875093" lon="12.1948493"><ele>287.5</ele><time>2026-05-02T12:15:00.996Z</time></trkpt><trkpt lat="43.0875107" lon="12.1947266"><ele>287.0</ele><time>2026-05-02T12:15:01.997Z</time></trkpt><trkpt lat="43.0875141" lon="12.1946094"><ele>286.5</ele><time>2026-05-02T12:15:02.994Z</time></trkpt><trkpt lat="43.0875245" lon="12.1945"><ele>286.0</ele><time>2026-05-02T12:15:03.991Z</time></trkpt><trkpt lat="43.0875248" lon="12.1944041"><ele>285.5</ele><time>2026-05-02T12:15:04.999Z</time></trkpt><trkpt lat="43.0874704" lon="12.1942743"><ele>285.0</ele><time>2026-05-02T12:15:06.997Z</time></trkpt><trkpt lat="43.0873996" lon="12.1942515"><ele>288.8</ele><time>2026-05-02T12:15:07.994Z</time></trkpt><trkpt lat="43.0873188" lon="12.1942727"><ele>292.6</ele><time>2026-05-02T12:15:09Z</time></trkpt><trkpt lat="43.0872406" lon="12.1943235"><ele>296.4</ele><time>2026-05-02T12:15:10Z</time></trkpt><trkpt lat="43.0871629" lon="12.1943926"><ele>300.2</ele><time>2026-05-02T12:15:11Z</time></trkpt><trkpt lat="43.0870862" lon="12.1944828"><ele>304.0</ele><time>2026-05-02T12:15:12Z</time></trkpt><trkpt lat="43.0870213" lon="12.1945902"><ele>304.0</ele><time>2026-05-02T12:15:13Z</time></trkpt><trkpt lat="43.0869612" lon="12.1947086"><ele>304.0</ele><time>2026-05-02T12:15:14.001Z</time></trkpt><trkpt lat="43.0868913" lon="12.19483"><ele>304.0</ele><time>2026-05-02T12:15:15Z</time></trkpt><trkpt lat="43.0868198" lon="12.1949527"><ele>304.0</ele><time>2026-05-02T12:15:15.998Z</time></trkpt><trkpt lat="43.0867475" lon="12.1950781"><ele>303.0</ele><time>2026-05-02T12:15:17Z</time></trkpt><trkpt lat="43.0866796" lon="12.1952093"><ele>302.0</ele><time>2026-05-02T12:15:18Z</time></trkpt><trkpt lat="43.0866063" lon="12.1953407"><ele>301.0</ele><time>2026-05-02T12:15:18.994Z</time></trkpt><trkpt lat="43.0865336" lon="12.1954645"><ele>300.0</ele><time>2026-05-02T12:15:19.996Z</time></trkpt><trkpt lat="43.0864671" lon="12.1955942"><ele>304.25</ele><time>2026-05-02T12:15:20.999Z</time></trkpt><trkpt lat="43.0863938" lon="12.1957284"><ele>308.5</ele><time>2026-05-02T12:15:22Z</time></trkpt><trkpt lat="43.0863179" lon="12.1958658"><ele>312.75</ele><time>2026-05-02T12:15:22.995Z</time></trkpt><trkpt lat="43.0862436" lon="12.1960006"><ele>317.0</ele><time>2026-05-02T12:15:23.997Z</time></trkpt><trkpt lat="43.0861692" lon="12.196135"><ele>317.0</ele><time>2026-05-02T12:15:25Z</time></trkpt><trkpt lat="43.0860908" lon="12.1962699"><ele>317.0</ele><time>2026-05-02T12:15:25.996Z</time></trkpt><trkpt lat="43.0860146" lon="12.1964105"><ele>317.0</ele><time>2026-05-02T12:15:26.999Z</time></trkpt><trkpt lat="43.085931" lon="12.1965557"><ele>317.0</ele><time>2026-05-02T12:15:27.999Z</time></trkpt><trkpt lat="43.0858533" lon="12.1967034"><ele>318.25</ele><time>2026-05-02T12:15:28.992Z</time></trkpt><trkpt lat="43.0857739" lon="12.1968484"><ele>319.5</ele><time>2026-05-02T12:15:30Z</time></trkpt><trkpt lat="43.0856877" lon="12.1969964"><ele>320.75</ele><time>2026-05-02T12:15:30.992Z</time></trkpt><trkpt lat="43.0855976" lon="12.1971549"><ele>322.0</ele><time>2026-05-02T12:15:32Z</time></trkpt><trkpt lat="43.0855071" lon="12.1973126"><ele>322.0</ele><time>2026-05-02T12:15:32.998Z</time></trkpt><trkpt lat="43.0854274" lon="12.197471"><ele>322.0</ele><time>2026-05-02T12:15:34Z</time></trkpt><trkpt lat="43.0853444" lon="12.1976263"><ele>322.0</ele><time>2026-05-02T12:15:34.998Z</time></trkpt><trkpt lat="43.0852174" lon="12.1977454"><ele>322.0</ele><time>2026-05-02T12:15:35.991Z</time></trkpt><trkpt lat="43.0850736" lon="12.1978528"><ele>321.66666666666663</ele><time>2026-05-02T12:15:36.994Z</time></trkpt><trkpt lat="43.0849229" lon="12.1979578"><ele>321.3333333333333</ele><time>2026-05-02T12:15:38Z</time></trkpt><trkpt lat="43.0847722" lon="12.1980586"><ele>321.0</ele><time>2026-05-02T12:15:38.996Z</time></trkpt><trkpt lat="43.0846173" lon="12.1981726"><ele>315.0</ele><time>2026-05-02T12:15:39.997Z</time></trkpt><trkpt lat="43.0844604" lon="12.1982871"><ele>309.0</ele><time>2026-05-02T12:15:40.999Z</time></trkpt><trkpt lat="43.0842971" lon="12.1984014"><ele>303.0</ele><time>2026-05-02T12:15:42Z</time></trkpt><trkpt lat="43.0841334" lon="12.1985216"><ele>302.0</ele><time>2026-05-02T12:15:42.999Z</time></trkpt><trkpt lat="43.0839714" lon="12.198641"><ele>301.0</ele><time>2026-05-02T12:15:43.994Z</time></trkpt><trkpt lat="43.0837985" lon="12.1987479"><ele>300.0</ele><time>2026-05-02T12:15:45Z</time></trkpt><trkpt lat="43.0836301" lon="12.1988667"><ele>300.0</ele><time>2026-05-02T12:15:46Z</time></trkpt><trkpt lat="43.0834581" lon="12.1989908"><ele>300.0</ele><time>2026-05-02T12:15:47Z</time></trkpt><trkpt lat="43.0832866" lon="12.1991149"><ele>300.0</ele><time>2026-05-02T12:15:48Z</time></trkpt><trkpt lat="43.0831188" lon="12.1992362"><ele>295.0</ele><time>2026-05-02T12:15:49Z</time></trkpt><trkpt lat="43.0829541" lon="12.1993497"><ele>290.0</ele><time>2026-05-02T12:15:49.995Z</time></trkpt><trkpt lat="43.0827838" lon="12.1994521"><ele>285.0</ele><time>2026-05-02T12:15:51Z</time></trkpt><trkpt lat="43.082608" lon="12.1995327"><ele>284.0</ele><time>2026-05-02T12:15:52Z</time></trkpt><trkpt lat="43.0824279" lon="12.1996036"><ele>283.0</ele><time>2026-05-02T12:15:53Z</time></trkpt><trkpt lat="43.0822469" lon="12.1996752"><ele>282.0</ele><time>2026-05-02T12:15:54Z</time></trkpt><trkpt lat="43.0820682" lon="12.1997571"><ele>280.6666666666667</ele><time>2026-05-02T12:15:55Z</time></trkpt><trkpt lat="43.0818891" lon="12.1998392"><ele>279.33333333333337</ele><time>2026-05-02T12:15:56Z</time></trkpt><trkpt lat="43.0817071" lon="12.1999192"><ele>278.0</ele><time>2026-05-02T12:15:56.996Z</time></trkpt><trkpt lat="43.0815202" lon="12.1999853"><ele>276.6666666666667</ele><time>2026-05-02T12:15:57.999Z</time></trkpt><trkpt lat="43.081337" lon="12.2000526"><ele>275.3333333333333</ele><time>2026-05-02T12:15:58.998Z</time></trkpt><trkpt lat="43.0811506" lon="12.2001294"><ele>274.0</ele><time>2026-05-02T12:15:59.994Z</time></trkpt><trkpt lat="43.0809682" lon="12.200222"><ele>274.0</ele><time>2026-05-02T12:16:00.999Z</time></trkpt><trkpt lat="43.0807902" lon="12.2003457"><ele>274.0</ele><time>2026-05-02T12:16:01.997Z</time></trkpt><trkpt lat="43.08062" lon="12.2004835"><ele>274.0</ele><time>2026-05-02T12:16:02.999Z</time></trkpt><trkpt lat="43.0804533" lon="12.2006296"><ele>273.0</ele><time>2026-05-02T12:16:03.999Z</time></trkpt><trkpt lat="43.0802837" lon="12.2007758"><ele>272.0</ele><time>2026-05-02T12:16:04.996Z</time></trkpt><trkpt lat="43.0801184" lon="12.2009236"><ele>271.0</ele><time>2026-05-02T12:16:06Z</time></trkpt><trkpt lat="43.0799526" lon="12.2010711"><ele>269.3333333333333</ele><time>2026-05-02T12:16:07Z</time></trkpt><trkpt lat="43.0797843" lon="12.2012184"><ele>267.6666666666667</ele><time>2026-05-02T12:16:07.998Z</time></trkpt><trkpt lat="43.0796241" lon="12.2013629"><ele>266.0</ele><time>2026-05-02T12:16:08.998Z</time></trkpt><trkpt lat="43.0794635" lon="12.2015051"><ele>265.33333333333337</ele><time>2026-05-02T12:16:09.997Z</time></trkpt><trkpt lat="43.0793036" lon="12.2016502"><ele>264.6666666666667</ele><time>2026-05-02T12:16:10.996Z</time></trkpt><trkpt lat="43.0791408" lon="12.2017968"><ele>264.0</ele><time>2026-05-02T12:16:12Z</time></trkpt><trkpt lat="43.0789801" lon="12.2019452"><ele>263.3333333333333</ele><time>2026-05-02T12:16:13Z</time></trkpt><trkpt lat="43.0788207" lon="12.2020949"><ele>262.66666666666663</ele><time>2026-05-02T12:16:13.995Z</time></trkpt><trkpt lat="43.0786568" lon="12.2022378"><ele>262.0</ele><time>2026-05-02T12:16:14.996Z</time></trkpt><trkpt lat="43.0784902" lon="12.2023877"><ele>261.0</ele><time>2026-05-02T12:16:16Z</time></trkpt><trkpt lat="43.0783225" lon="12.2025383"><ele>260.0</ele><time>2026-05-02T12:16:16.999Z</time></trkpt><trkpt lat="43.0781511" lon="12.2026889"><ele>259.0</ele><time>2026-05-02T12:16:17.999Z</time></trkpt><trkpt lat="43.0779794" lon="12.2028458"><ele>258.66666666666663</ele><time>2026-05-02T12:16:19Z</time></trkpt><trkpt lat="43.0778071" lon="12.2029993"><ele>258.3333333333333</ele><time>2026-05-02T12:16:19.997Z</time></trkpt><trkpt lat="43.0776383" lon="12.2031535"><ele>258.0</ele><time>2026-05-02T12:16:20.998Z</time></trkpt><trkpt lat="43.0774696" lon="12.2033005"><ele>258.0</ele><time>2026-05-02T12:16:22Z</time></trkpt><trkpt lat="43.0773008" lon="12.2034401"><ele>258.0</ele><time>2026-05-02T12:16:23Z</time></trkpt><trkpt lat="43.0771325" lon="12.2035794"><ele>258.0</ele><time>2026-05-02T12:16:24Z</time></trkpt><trkpt lat="43.0769641" lon="12.2037269"><ele>258.0</ele><time>2026-05-02T12:16:25Z</time></trkpt><trkpt lat="43.0767987" lon="12.2038738"><ele>258.0</ele><time>2026-05-02T12:16:26Z</time></trkpt><trkpt lat="43.0766367" lon="12.2040147"><ele>258.0</ele><time>2026-05-02T12:16:26.997Z</time></trkpt><trkpt lat="43.0764823" lon="12.2041622"><ele>257.6666666666667</ele><time>2026-05-02T12:16:28Z</time></trkpt><trkpt lat="43.0763341" lon="12.2043051"><ele>257.33333333333337</ele><time>2026-05-02T12:16:28.999Z</time></trkpt><trkpt lat="43.076171" lon="12.204429"><ele>257.0</ele><time>2026-05-02T12:16:29.997Z</time></trkpt><trkpt lat="43.0760228" lon="12.2045613"><ele>257.0</ele><time>2026-05-02T12:16:31Z</time></trkpt><trkpt lat="43.0758702" lon="12.2046839"><ele>257.0</ele><time>2026-05-02T12:16:32Z</time></trkpt><trkpt lat="43.07571" lon="12.2047986"><ele>257.0</ele><time>2026-05-02T12:16:32.999Z</time></trkpt><trkpt lat="43.0755475" lon="12.2049108"><ele>255.66666666666669</ele><time>2026-05-02T12:16:33.996Z</time></trkpt><trkpt lat="43.0753859" lon="12.2050158"><ele>254.33333333333331</ele><time>2026-05-02T12:16:34.999Z</time></trkpt><trkpt lat="43.0752202" lon="12.2051061"><ele>253.0</ele><time>2026-05-02T12:16:35.994Z</time></trkpt><trkpt lat="43.0750561" lon="12.205188"><ele>252.66666666666666</ele><time>2026-05-02T12:16:37Z</time></trkpt><trkpt lat="43.0748925" lon="12.2052678"><ele>252.33333333333331</ele><time>2026-05-02T12:16:38Z</time></trkpt><trkpt lat="43.0747313" lon="12.2053542"><ele>252.0</ele><time>2026-05-02T12:16:39Z</time></trkpt><trkpt lat="43.0745723" lon="12.2054354"><ele>252.0</ele><time>2026-05-02T12:16:40Z</time></trkpt><trkpt lat="43.0744094" lon="12.2055155"><ele>252.0</ele><time>2026-05-02T12:16:40.997Z</time></trkpt><trkpt lat="43.0742462" lon="12.2055982"><ele>252.0</ele><time>2026-05-02T12:16:41.997Z</time></trkpt><trkpt lat="43.0740831" lon="12.2056852"><ele>251.33333333333331</ele><time>2026-05-02T12:16:43Z</time></trkpt><trkpt lat="43.0739157" lon="12.2057763"><ele>250.66666666666666</ele><time>2026-05-02T12:16:44Z</time></trkpt><trkpt lat="43.0737438" lon="12.2058701"><ele>250.0</ele><time>2026-05-02T12:16:44.999Z</time></trkpt><trkpt lat="43.0735653" lon="12.2059585"><ele>250.0</ele><time>2026-05-02T12:16:45.993Z</time></trkpt><trkpt lat="43.0733869" lon="12.2060499"><ele>250.0</ele><time>2026-05-02T12:16:46.994Z</time></trkpt><trkpt lat="43.0732088" lon="12.2061426"><ele>250.0</ele><time>2026-05-02T12:16:47.998Z</time></trkpt><trkpt lat="43.0730367" lon="12.2062404"><ele>249.0</ele><time>2026-05-02T12:16:49Z</time></trkpt><trkpt lat="43.0728808" lon="12.2063269"><ele>248.0</ele><time>2026-05-02T12:16:49.996Z</time></trkpt><trkpt lat="43.0727288" lon="12.2064098"><ele>247.0</ele><time>2026-05-02T12:16:50.999Z</time></trkpt><trkpt lat="43.0725881" lon="12.2064737"><ele>247.25</ele><time>2026-05-02T12:16:51.999Z</time></trkpt><trkpt lat="43.0724473" lon="12.2065286"><ele>247.5</ele><time>2026-05-02T12:16:52.998Z</time></trkpt><trkpt lat="43.0723167" lon="12.2065655"><ele>247.75</ele><time>2026-05-02T12:16:54Z</time></trkpt><trkpt lat="43.0721713" lon="12.2066168"><ele>248.0</ele><time>2026-05-02T12:16:54.997Z</time></trkpt><trkpt lat="43.0720238" lon="12.2066783"><ele>247.33333333333334</ele><time>2026-05-02T12:16:55.997Z</time></trkpt><trkpt lat="43.0718627" lon="12.2067313"><ele>246.66666666666669</ele><time>2026-05-02T12:16:56.994Z</time></trkpt><trkpt lat="43.0716955" lon="12.2067834"><ele>246.0</ele><time>2026-05-02T12:16:57.999Z</time></trkpt><trkpt lat="43.0715232" lon="12.2068419"><ele>246.0</ele><time>2026-05-02T12:16:59Z</time></trkpt><trkpt lat="43.0713434" lon="12.2069128"><ele>246.0</ele><time>2026-05-02T12:16:59.999Z</time></trkpt><trkpt lat="43.071158" lon="12.2069789"><ele>246.0</ele><time>2026-05-02T12:17:01Z</time></trkpt><trkpt lat="43.0709659" lon="12.2070416"><ele>246.0</ele><time>2026-05-02T12:17:01.996Z</time></trkpt><trkpt lat="43.0707725" lon="12.2071101"><ele>246.0</ele><time>2026-05-02T12:17:03Z</time></trkpt><trkpt lat="43.0705764" lon="12.2071801"><ele>246.0</ele><time>2026-05-02T12:17:03.995Z</time></trkpt><trkpt lat="43.0703747" lon="12.2072476"><ele>246.0</ele><time>2026-05-02T12:17:04.999Z</time></trkpt><trkpt lat="43.0701721" lon="12.2073188"><ele>246.0</ele><time>2026-05-02T12:17:05.996Z</time></trkpt><trkpt lat="43.0699667" lon="12.2073906"><ele>246.0</ele><time>2026-05-02T12:17:07Z</time></trkpt><trkpt lat="43.0697607" lon="12.20746"><ele>245.0</ele><time>2026-05-02T12:17:07.996Z</time></trkpt><trkpt lat="43.0695532" lon="12.2075328"><ele>244.0</ele><time>2026-05-02T12:17:09Z</time></trkpt><trkpt lat="43.0693398" lon="12.207609"><ele>243.0</ele><time>2026-05-02T12:17:10Z</time></trkpt><trkpt lat="43.0691259" lon="12.2076844"><ele>242.66666666666669</ele><time>2026-05-02T12:17:10.998Z</time></trkpt><trkpt lat="43.068912" lon="12.2077598"><ele>242.33333333333334</ele><time>2026-05-02T12:17:11.999Z</time></trkpt><trkpt lat="43.0686964" lon="12.2078329"><ele>242.0</ele><time>2026-05-02T12:17:12.997Z</time></trkpt><trkpt lat="43.0684803" lon="12.20791"><ele>241.33333333333334</ele><time>2026-05-02T12:17:14Z</time></trkpt><trkpt lat="43.0682659" lon="12.2079839"><ele>240.66666666666669</ele><time>2026-05-02T12:17:14.996Z</time></trkpt><trkpt lat="43.0680542" lon="12.2080584"><ele>240.0</ele><time>2026-05-02T12:17:15.998Z</time></trkpt><trkpt lat="43.0678386" lon="12.2081385"><ele>240.0</ele><time>2026-05-02T12:17:17Z</time></trkpt><trkpt lat="43.0676241" lon="12.2082135"><ele>240.0</ele><time>2026-05-02T12:17:18Z</time></trkpt><trkpt lat="43.0674105" lon="12.2082881"><ele>240.0</ele><time>2026-05-02T12:17:19Z</time></trkpt><trkpt lat="43.0671961" lon="12.2083611"><ele>240.0</ele><time>2026-05-02T12:17:19.996Z</time></trkpt><trkpt lat="43.0669901" lon="12.2084366"><ele>240.0</ele><time>2026-05-02T12:17:21Z</time></trkpt><trkpt lat="43.0667901" lon="12.2084913"><ele>240.0</ele><time>2026-05-02T12:17:21.988Z</time></trkpt><trkpt lat="43.066603" lon="12.2085615"><ele>239.66666666666669</ele><time>2026-05-02T12:17:23Z</time></trkpt><trkpt lat="43.0664083" lon="12.2086278"><ele>239.33333333333334</ele><time>2026-05-02T12:17:24Z</time></trkpt><trkpt lat="43.0662121" lon="12.2087346"><ele>239.0</ele><time>2026-05-02T12:17:24.999Z</time></trkpt><trkpt lat="43.0660303" lon="12.2088808"><ele>239.0</ele><time>2026-05-02T12:17:26Z</time></trkpt><trkpt lat="43.0658603" lon="12.2090548"><ele>239.0</ele><time>2026-05-02T12:17:26.999Z</time></trkpt><trkpt lat="43.0657046" lon="12.2092594"><ele>239.0</ele><time>2026-05-02T12:17:27.999Z</time></trkpt><trkpt lat="43.0655577" lon="12.2094789"><ele>239.0</ele><time>2026-05-02T12:17:28.992Z</time></trkpt><trkpt lat="43.0654118" lon="12.2096944"><ele>239.0</ele><time>2026-05-02T12:17:30Z</time></trkpt><trkpt lat="43.065258" lon="12.2099053"><ele>239.0</ele><time>2026-05-02T12:17:30.994Z</time></trkpt><trkpt lat="43.0651046" lon="12.2101218"><ele>239.0</ele><time>2026-05-02T12:17:32Z</time></trkpt><trkpt lat="43.0649587" lon="12.2103354"><ele>239.0</ele><time>2026-05-02T12:17:32.998Z</time></trkpt><trkpt lat="43.0648121" lon="12.2105604"><ele>239.0</ele><time>2026-05-02T12:17:33.999Z</time></trkpt><trkpt lat="43.0646668" lon="12.2107783"><ele>238.33333333333334</ele><time>2026-05-02T12:17:34.999Z</time></trkpt><trkpt lat="43.0645153" lon="12.2109694"><ele>237.66666666666669</ele><time>2026-05-02T12:17:36Z</time></trkpt><trkpt lat="43.0643392" lon="12.2111178"><ele>237.0</ele><time>2026-05-02T12:17:36.998Z</time></trkpt><trkpt lat="43.0641589" lon="12.2112241"><ele>237.33333333333331</ele><time>2026-05-02T12:17:37.996Z</time></trkpt><trkpt lat="43.0639547" lon="12.2113101"><ele>237.66666666666666</ele><time>2026-05-02T12:17:38.999Z</time></trkpt><trkpt lat="43.0637487" lon="12.2113993"><ele>238.0</ele><time>2026-05-02T12:17:40.002Z</time></trkpt><trkpt lat="43.0635456" lon="12.2114882"><ele>238.0</ele><time>2026-05-02T12:17:40.998Z</time></trkpt><trkpt lat="43.0633379" lon="12.2115834"><ele>238.0</ele><time>2026-05-02T12:17:41.993Z</time></trkpt><trkpt lat="43.0631313" lon="12.2116785"><ele>238.0</ele><time>2026-05-02T12:17:42.995Z</time></trkpt><trkpt lat="43.062923" lon="12.2117744"><ele>237.33333333333331</ele><time>2026-05-02T12:17:43.999Z</time></trkpt><trkpt lat="43.0627149" lon="12.2118764"><ele>236.66666666666669</ele><time>2026-05-02T12:17:45Z</time></trkpt><trkpt lat="43.0625048" lon="12.2119836"><ele>236.0</ele><time>2026-05-02T12:17:45.999Z</time></trkpt><trkpt lat="43.0622965" lon="12.2120974"><ele>235.66666666666669</ele><time>2026-05-02T12:17:46.999Z</time></trkpt><trkpt lat="43.0620929" lon="12.2122178"><ele>235.33333333333331</ele><time>2026-05-02T12:17:47.997Z</time></trkpt><trkpt lat="43.0618925" lon="12.212342"><ele>235.0</ele><time>2026-05-02T12:17:49.002Z</time></trkpt><trkpt lat="43.0617017" lon="12.2124878"><ele>235.66666666666666</ele><time>2026-05-02T12:17:49.998Z</time></trkpt><trkpt lat="43.0615213" lon="12.2126574"><ele>236.33333333333331</ele><time>2026-05-02T12:17:50.999Z</time></trkpt><trkpt lat="43.0613519" lon="12.2128441"><ele>237.0</ele><time>2026-05-02T12:17:51.997Z</time></trkpt><trkpt lat="43.0611906" lon="12.2130431"><ele>237.0</ele><time>2026-05-02T12:17:53Z</time></trkpt><trkpt lat="43.0610253" lon="12.2132347"><ele>237.0</ele><time>2026-05-02T12:17:54Z</time></trkpt><trkpt lat="43.0608634" lon="12.2134251"><ele>237.0</ele><time>2026-05-02T12:17:55Z</time></trkpt><trkpt lat="43.0607093" lon="12.2136215"><ele>237.0</ele><time>2026-05-02T12:17:55.999Z</time></trkpt><trkpt lat="43.0605634" lon="12.2138211"><ele>237.0</ele><time>2026-05-02T12:17:57Z</time></trkpt><trkpt lat="43.060422" lon="12.2140011"><ele>237.0</ele><time>2026-05-02T12:17:58Z</time></trkpt><trkpt lat="43.0602804" lon="12.2141469"><ele>236.33333333333331</ele><time>2026-05-02T12:17:59Z</time></trkpt><trkpt lat="43.0601381" lon="12.2142527"><ele>235.66666666666666</ele><time>2026-05-02T12:18:00Z</time></trkpt><trkpt lat="43.0599885" lon="12.2143027"><ele>235.0</ele><time>2026-05-02T12:18:01Z</time></trkpt><trkpt lat="43.0598257" lon="12.2143096"><ele>235.0</ele><time>2026-05-02T12:18:02Z</time></trkpt><trkpt lat="43.059669" lon="12.2142904"><ele>235.0</ele><time>2026-05-02T12:18:02.999Z</time></trkpt><trkpt lat="43.0594896" lon="12.2141953"><ele>235.0</ele><time>2026-05-02T12:18:03.999Z</time></trkpt><trkpt lat="43.0593065" lon="12.2141303"><ele>233.66666666666666</ele><time>2026-05-02T12:18:04.992Z</time></trkpt><trkpt lat="43.0591171" lon="12.2140681"><ele>232.33333333333331</ele><time>2026-05-02T12:18:06Z</time></trkpt><trkpt lat="43.0589234" lon="12.214003"><ele>231.0</ele><time>2026-05-02T12:18:06.998Z</time></trkpt><trkpt lat="43.058725" lon="12.2139387"><ele>231.0</ele><time>2026-05-02T12:18:07.996Z</time></trkpt><trkpt lat="43.0585278" lon="12.2138667"><ele>231.0</ele><time>2026-05-02T12:18:08.999Z</time></trkpt><trkpt lat="43.0583294" lon="12.2138076"><ele>231.0</ele><time>2026-05-02T12:18:09.993Z</time></trkpt><trkpt lat="43.0581287" lon="12.2137453"><ele>231.33333333333331</ele><time>2026-05-02T12:18:11Z</time></trkpt><trkpt lat="43.0579311" lon="12.2136746"><ele>231.66666666666666</ele><time>2026-05-02T12:18:11.998Z</time></trkpt><trkpt lat="43.0577341" lon="12.2135995"><ele>232.0</ele><time>2026-05-02T12:18:13Z</time></trkpt><trkpt lat="43.0575472" lon="12.2135309"><ele>232.33333333333331</ele><time>2026-05-02T12:18:13.997Z</time></trkpt><trkpt lat="43.0573728" lon="12.2134756"><ele>232.66666666666669</ele><time>2026-05-02T12:18:15Z</time></trkpt><trkpt lat="43.0571965" lon="12.2134539"><ele>233.0</ele><time>2026-05-02T12:18:16Z</time></trkpt><trkpt lat="43.0570201" lon="12.2134701"><ele>233.0</ele><time>2026-05-02T12:18:17Z</time></trkpt><trkpt lat="43.0568554" lon="12.2135275"><ele>233.0</ele><time>2026-05-02T12:18:17.996Z</time></trkpt><trkpt lat="43.0567052" lon="12.2136282"><ele>233.0</ele><time>2026-05-02T12:18:19Z</time></trkpt><trkpt lat="43.0565667" lon="12.2137617"><ele>232.66666666666669</ele><time>2026-05-02T12:18:19.998Z</time></trkpt><trkpt lat="43.0564416" lon="12.2139352"><ele>232.33333333333331</ele><time>2026-05-02T12:18:20.999Z</time></trkpt><trkpt lat="43.0563233" lon="12.2141322"><ele>232.0</ele><time>2026-05-02T12:18:21.997Z</time></trkpt><trkpt lat="43.0562039" lon="12.2143286"><ele>232.66666666666666</ele><time>2026-05-02T12:18:23Z</time></trkpt><trkpt lat="43.0560797" lon="12.2145308"><ele>233.33333333333331</ele><time>2026-05-02T12:18:23.998Z</time></trkpt><trkpt lat="43.0559526" lon="12.2147378"><ele>234.0</ele><time>2026-05-02T12:18:24.997Z</time></trkpt><trkpt lat="43.0558224" lon="12.2149494"><ele>234.0</ele><time>2026-05-02T12:18:26Z</time></trkpt><trkpt lat="43.055691" lon="12.2151583"><ele>234.0</ele><time>2026-05-02T12:18:27Z</time></trkpt><trkpt lat="43.0555629" lon="12.215378"><ele>234.0</ele><time>2026-05-02T12:18:28Z</time></trkpt><trkpt lat="43.0554412" lon="12.2155969"><ele>233.66666666666669</ele><time>2026-05-02T12:18:28.999Z</time></trkpt><trkpt lat="43.0553139" lon="12.2158162"><ele>233.33333333333334</ele><time>2026-05-02T12:18:30Z</time></trkpt><trkpt lat="43.0551845" lon="12.2160246"><ele>233.0</ele><time>2026-05-02T12:18:31Z</time></trkpt><trkpt lat="43.0550408" lon="12.2162188"><ele>232.33333333333334</ele><time>2026-05-02T12:18:31.994Z</time></trkpt><trkpt lat="43.0548806" lon="12.2164004"><ele>231.66666666666669</ele><time>2026-05-02T12:18:32.999Z</time></trkpt><trkpt lat="43.0547097" lon="12.216557"><ele>231.0</ele><time>2026-05-02T12:18:34Z</time></trkpt><trkpt lat="43.0545278" lon="12.2166948"><ele>231.0</ele><time>2026-05-02T12:18:34.996Z</time></trkpt><trkpt lat="43.0543417" lon="12.2168298"><ele>231.0</ele><time>2026-05-02T12:18:35.998Z</time></trkpt><trkpt lat="43.0541527" lon="12.2169668"><ele>231.0</ele><time>2026-05-02T12:18:36.996Z</time></trkpt><trkpt lat="43.0539635" lon="12.2171026"><ele>231.0</ele><time>2026-05-02T12:18:37.993Z</time></trkpt><trkpt lat="43.0537797" lon="12.2172463"><ele>231.0</ele><time>2026-05-02T12:18:39Z</time></trkpt><trkpt lat="43.0535985" lon="12.2173865"><ele>231.0</ele><time>2026-05-02T12:18:40Z</time></trkpt><trkpt lat="43.0534176" lon="12.2175231"><ele>230.33333333333331</ele><time>2026-05-02T12:18:41Z</time></trkpt><trkpt lat="43.053236" lon="12.2176679"><ele>229.66666666666666</ele><time>2026-05-02T12:18:41.998Z</time></trkpt><trkpt lat="43.0530646" lon="12.217827"><ele>229.0</ele><time>2026-05-02T12:18:43Z</time></trkpt><trkpt lat="43.0529067" lon="12.2180115"><ele>229.33333333333331</ele><time>2026-05-02T12:18:44Z</time></trkpt><trkpt lat="43.0527654" lon="12.2182195"><ele>229.66666666666669</ele><time>2026-05-02T12:18:44.997Z</time></trkpt><trkpt lat="43.0526422" lon="12.2184433"><ele>230.0</ele><time>2026-05-02T12:18:45.997Z</time></trkpt><trkpt lat="43.0525368" lon="12.2186879"><ele>229.66666666666669</ele><time>2026-05-02T12:18:47Z</time></trkpt><trkpt lat="43.0524502" lon="12.2189409"><ele>229.33333333333331</ele><time>2026-05-02T12:18:47.998Z</time></trkpt><trkpt lat="43.0523866" lon="12.2192024"><ele>229.0</ele><time>2026-05-02T12:18:48.998Z</time></trkpt><trkpt lat="43.052345" lon="12.2194704"><ele>229.0</ele><time>2026-05-02T12:18:49.997Z</time></trkpt><trkpt lat="43.0523328" lon="12.2197406"><ele>229.0</ele><time>2026-05-02T12:18:51Z</time></trkpt><trkpt lat="43.0523411" lon="12.2200069"><ele>229.0</ele><time>2026-05-02T12:18:52Z</time></trkpt><trkpt lat="43.0523703" lon="12.2202702"><ele>229.33333333333331</ele><time>2026-05-02T12:18:52.999Z</time></trkpt><trkpt lat="43.0524123" lon="12.2205287"><ele>229.66666666666669</ele><time>2026-05-02T12:18:53.996Z</time></trkpt><trkpt lat="43.05247" lon="12.2207841"><ele>230.0</ele><time>2026-05-02T12:18:55Z</time></trkpt><trkpt lat="43.0525393" lon="12.2210424"><ele>231.0</ele><time>2026-05-02T12:18:56Z</time></trkpt><trkpt lat="43.0526046" lon="12.2213069"><ele>232.0</ele><time>2026-05-02T12:18:57Z</time></trkpt><trkpt lat="43.0526683" lon="12.2215758"><ele>233.0</ele><time>2026-05-02T12:18:58Z</time></trkpt><trkpt lat="43.0527341" lon="12.2218493"><ele>233.33333333333334</ele><time>2026-05-02T12:18:59Z</time></trkpt><trkpt lat="43.0528036" lon="12.2221234"><ele>233.66666666666669</ele><time>2026-05-02T12:19:00Z</time></trkpt><trkpt lat="43.052877" lon="12.2223985"><ele>234.0</ele><time>2026-05-02T12:19:01Z</time></trkpt><trkpt lat="43.0529488" lon="12.2226719"><ele>234.66666666666669</ele><time>2026-05-02T12:19:01.997Z</time></trkpt><trkpt lat="43.053022" lon="12.2229512"><ele>235.33333333333334</ele><time>2026-05-02T12:19:03Z</time></trkpt><trkpt lat="43.0530989" lon="12.2232293"><ele>236.0</ele><time>2026-05-02T12:19:04Z</time></trkpt><trkpt lat="43.0531719" lon="12.2235103"><ele>237.66666666666669</ele><time>2026-05-02T12:19:04.998Z</time></trkpt><trkpt lat="43.0532423" lon="12.2237878"><ele>239.33333333333331</ele><time>2026-05-02T12:19:06Z</time></trkpt><trkpt lat="43.0533111" lon="12.2240644"><ele>241.0</ele><time>2026-05-02T12:19:07Z</time></trkpt><trkpt lat="43.0533838" lon="12.2243354"><ele>241.0</ele><time>2026-05-02T12:19:08Z</time></trkpt><trkpt lat="43.0534611" lon="12.2246027"><ele>241.0</ele><time>2026-05-02T12:19:08.995Z</time></trkpt><trkpt lat="43.0535365" lon="12.224866"><ele>241.0</ele><time>2026-05-02T12:19:09.987Z</time></trkpt><trkpt lat="43.0536061" lon="12.2251237"><ele>243.33333333333331</ele><time>2026-05-02T12:19:11Z</time></trkpt><trkpt lat="43.0536512" lon="12.2253713"><ele>245.66666666666669</ele><time>2026-05-02T12:19:11.999Z</time></trkpt><trkpt lat="43.0536593" lon="12.2256144"><ele>248.0</ele><time>2026-05-02T12:19:13Z</time></trkpt><trkpt lat="43.0536329" lon="12.2258613"><ele>247.66666666666669</ele><time>2026-05-02T12:19:14Z</time></trkpt><trkpt lat="43.0535847" lon="12.2260968"><ele>247.33333333333331</ele><time>2026-05-02T12:19:15Z</time></trkpt><trkpt lat="43.0535014" lon="12.2263118"><ele>247.0</ele><time>2026-05-02T12:19:15.995Z</time></trkpt><trkpt lat="43.0533977" lon="12.2265084"><ele>250.0</ele><time>2026-05-02T12:19:16.999Z</time></trkpt><trkpt lat="43.0532795" lon="12.2267057"><ele>253.0</ele><time>2026-05-02T12:19:18Z</time></trkpt><trkpt lat="43.0531816" lon="12.2269211"><ele>256.0</ele><time>2026-05-02T12:19:18.999Z</time></trkpt><trkpt lat="43.0531082" lon="12.227154"><ele>256.3333333333333</ele><time>2026-05-02T12:19:19.994Z</time></trkpt><trkpt lat="43.05305" lon="12.2273938"><ele>256.6666666666667</ele><time>2026-05-02T12:19:20.999Z</time></trkpt><trkpt lat="43.0529954" lon="12.2276356"><ele>257.0</ele><time>2026-05-02T12:19:21.993Z</time></trkpt><trkpt lat="43.0529371" lon="12.2278783"><ele>257.0</ele><time>2026-05-02T12:19:23Z</time></trkpt><trkpt lat="43.0528812" lon="12.2281216"><ele>257.0</ele><time>2026-05-02T12:19:24Z</time></trkpt><trkpt lat="43.0528237" lon="12.2283662"><ele>257.0</ele><time>2026-05-02T12:19:25Z</time></trkpt><trkpt lat="43.0527673" lon="12.2286075"><ele>259.6666666666667</ele><time>2026-05-02T12:19:25.996Z</time></trkpt><trkpt lat="43.0527185" lon="12.2288504"><ele>262.3333333333333</ele><time>2026-05-02T12:19:27Z</time></trkpt><trkpt lat="43.0526612" lon="12.2291002"><ele>265.0</ele><time>2026-05-02T12:19:27.993Z</time></trkpt><trkpt lat="43.0526037" lon="12.2293423"><ele>265.66666666666663</ele><time>2026-05-02T12:19:29Z</time></trkpt><trkpt lat="43.0525431" lon="12.2295897"><ele>266.3333333333333</ele><time>2026-05-02T12:19:29.995Z</time></trkpt><trkpt lat="43.0524919" lon="12.2298365"><ele>267.0</ele><time>2026-05-02T12:19:30.999Z</time></trkpt><trkpt lat="43.0524341" lon="12.230086"><ele>272.6666666666667</ele><time>2026-05-02T12:19:31.994Z</time></trkpt><trkpt lat="43.0523826" lon="12.2303394"><ele>278.33333333333337</ele><time>2026-05-02T12:19:33Z</time></trkpt><trkpt lat="43.0523143" lon="12.2305859"><ele>284.0</ele><time>2026-05-02T12:19:33.999Z</time></trkpt><trkpt lat="43.0522222" lon="12.23082"><ele>284.0</ele><time>2026-05-02T12:19:35Z</time></trkpt><trkpt lat="43.052106" lon="12.231047"><ele>284.0</ele><time>2026-05-02T12:19:35.997Z</time></trkpt><trkpt lat="43.0519704" lon="12.2312435"><ele>284.0</ele><time>2026-05-02T12:19:36.998Z</time></trkpt><trkpt lat="43.0518399" lon="12.2314474"><ele>283.33333333333337</ele><time>2026-05-02T12:19:37.999Z</time></trkpt><trkpt lat="43.0517042" lon="12.2316456"><ele>282.6666666666667</ele><time>2026-05-02T12:19:38.997Z</time></trkpt><trkpt lat="43.0515789" lon="12.2318555"><ele>282.0</ele><time>2026-05-02T12:19:40Z</time></trkpt><trkpt lat="43.0514501" lon="12.2320648"><ele>282.0</ele><time>2026-05-02T12:19:40.999Z</time></trkpt><trkpt lat="43.051319" lon="12.2322751"><ele>282.0</ele><time>2026-05-02T12:19:41.997Z</time></trkpt><trkpt lat="43.0511952" lon="12.2324847"><ele>282.0</ele><time>2026-05-02T12:19:42.999Z</time></trkpt><trkpt lat="43.0510627" lon="12.2326894"><ele>281.0</ele><time>2026-05-02T12:19:44Z</time></trkpt><trkpt lat="43.0509283" lon="12.2328902"><ele>280.0</ele><time>2026-05-02T12:19:44.996Z</time></trkpt><trkpt lat="43.0508" lon="12.2330926"><ele>279.0</ele><time>2026-05-02T12:19:46Z</time></trkpt><trkpt lat="43.050677" lon="12.2332981"><ele>274.6666666666667</ele><time>2026-05-02T12:19:47Z</time></trkpt><trkpt lat="43.0505764" lon="12.233497"><ele>270.33333333333337</ele><time>2026-05-02T12:19:48Z</time></trkpt><trkpt lat="43.050498" lon="12.2337012"><ele>266.0</ele><time>2026-05-02T12:19:48.999Z</time></trkpt><trkpt lat="43.0504466" lon="12.2339259"><ele>266.33333333333337</ele><time>2026-05-02T12:19:50Z</time></trkpt><trkpt lat="43.0504172" lon="12.2341612"><ele>266.6666666666667</ele><time>2026-05-02T12:19:51Z</time></trkpt><trkpt lat="43.0503903" lon="12.2343912"><ele>267.0</ele><time>2026-05-02T12:19:51.999Z</time></trkpt><trkpt lat="43.0503446" lon="12.2346064"><ele>267.0</ele><time>2026-05-02T12:19:52.997Z</time></trkpt><trkpt lat="43.0502735" lon="12.2347948"><ele>267.0</ele><time>2026-05-02T12:19:54Z</time></trkpt><trkpt lat="43.0501772" lon="12.2349482"><ele>267.0</ele><time>2026-05-02T12:19:55Z</time></trkpt><trkpt lat="43.0500578" lon="12.2350525"><ele>267.0</ele><time>2026-05-02T12:19:55.996Z</time></trkpt><trkpt lat="43.049909" lon="12.2351154"><ele>267.6666666666667</ele><time>2026-05-02T12:19:56.994Z</time></trkpt><trkpt lat="43.0497478" lon="12.2351445"><ele>268.33333333333337</ele><time>2026-05-02T12:19:58Z</time></trkpt><trkpt lat="43.049581" lon="12.235153"><ele>269.0</ele><time>2026-05-02T12:19:58.995Z</time></trkpt><trkpt lat="43.0494264" lon="12.2351748"><ele>269.0</ele><time>2026-05-02T12:20:00Z</time></trkpt><trkpt lat="43.0492744" lon="12.2352297"><ele>269.0</ele><time>2026-05-02T12:20:01Z</time></trkpt><trkpt lat="43.049129" lon="12.235326"><ele>269.0</ele><time>2026-05-02T12:20:02Z</time></trkpt><trkpt lat="43.0489877" lon="12.2354518"><ele>267.6666666666667</ele><time>2026-05-02T12:20:03Z</time></trkpt><trkpt lat="43.0488479" lon="12.2355821"><ele>266.3333333333333</ele><time>2026-05-02T12:20:04Z</time></trkpt><trkpt lat="43.0487045" lon="12.2357254"><ele>265.0</ele><time>2026-05-02T12:20:04.995Z</time></trkpt><trkpt lat="43.048559" lon="12.235869"><ele>267.0</ele><time>2026-05-02T12:20:06Z</time></trkpt><trkpt lat="43.0484074" lon="12.2360111"><ele>269.0</ele><time>2026-05-02T12:20:07Z</time></trkpt><trkpt lat="43.0482529" lon="12.2361417"><ele>271.0</ele><time>2026-05-02T12:20:08Z</time></trkpt><trkpt lat="43.0480889" lon="12.2362596"><ele>271.0</ele><time>2026-05-02T12:20:09Z</time></trkpt><trkpt lat="43.0479307" lon="12.2363625"><ele>271.0</ele><time>2026-05-02T12:20:09.999Z</time></trkpt><trkpt lat="43.0477845" lon="12.2364464"><ele>271.0</ele><time>2026-05-02T12:20:11Z</time></trkpt><trkpt lat="43.0476592" lon="12.2365112"><ele>270.5</ele><time>2026-05-02T12:20:11.992Z</time></trkpt><trkpt lat="43.0475497" lon="12.2365561"><ele>270.0</ele><time>2026-05-02T12:20:12.997Z</time></trkpt><trkpt lat="43.0474541" lon="12.2365799"><ele>269.5</ele><time>2026-05-02T12:20:13.999Z</time></trkpt><trkpt lat="43.0473744" lon="12.2365786"><ele>269.0</ele><time>2026-05-02T12:20:15Z</time></trkpt><trkpt lat="43.0472953" lon="12.2365487"><ele>268.5</ele><time>2026-05-02T12:20:16Z</time></trkpt><trkpt lat="43.0472237" lon="12.2365369"><ele>268.0</ele><time>2026-05-02T12:20:16.999Z</time></trkpt><trkpt lat="43.0471633" lon="12.2365727"><ele>268.0</ele><time>2026-05-02T12:20:17.999Z</time></trkpt><trkpt lat="43.0471162" lon="12.2366484"><ele>268.0</ele><time>2026-05-02T12:20:18.999Z</time></trkpt><trkpt lat="43.0470911" lon="12.2367567"><ele>268.0</ele><time>2026-05-02T12:20:19.995Z</time></trkpt><trkpt lat="43.0470777" lon="12.2368927"><ele>268.0</ele><time>2026-05-02T12:20:21Z</time></trkpt><trkpt lat="43.0470449" lon="12.2370407"><ele>268.0</ele><time>2026-05-02T12:20:21.998Z</time></trkpt><trkpt lat="43.0469951" lon="12.2371994"><ele>268.0</ele><time>2026-05-02T12:20:23Z</time></trkpt><trkpt lat="43.0469387" lon="12.237366"><ele>268.0</ele><time>2026-05-02T12:20:23.995Z</time></trkpt><trkpt lat="43.0468823" lon="12.2375441"><ele>268.0</ele><time>2026-05-02T12:20:25Z</time></trkpt><trkpt lat="43.0468232" lon="12.2377316"><ele>268.0</ele><time>2026-05-02T12:20:25.994Z</time></trkpt><trkpt lat="43.0467619" lon="12.2379155"><ele>268.0</ele><time>2026-05-02T12:20:27Z</time></trkpt><trkpt lat="43.0467001" lon="12.2380922"><ele>268.0</ele><time>2026-05-02T12:20:27.995Z</time></trkpt><trkpt lat="43.0466283" lon="12.2382556"><ele>268.0</ele><time>2026-05-02T12:20:28.999Z</time></trkpt><trkpt lat="43.0465353" lon="12.2383943"><ele>268.0</ele><time>2026-05-02T12:20:30Z</time></trkpt><trkpt lat="43.0464186" lon="12.2385001"><ele>267.25</ele><time>2026-05-02T12:20:30.998Z</time></trkpt><trkpt lat="43.0462849" lon="12.2385631"><ele>266.5</ele><time>2026-05-02T12:20:31.999Z</time></trkpt><trkpt lat="43.0461433" lon="12.2385737"><ele>265.75</ele><time>2026-05-02T12:20:33Z</time></trkpt><trkpt lat="43.0460126" lon="12.2385406"><ele>265.0</ele><time>2026-05-02T12:20:34Z</time></trkpt><trkpt lat="43.0458872" lon="12.238462"><ele>264.5</ele><time>2026-05-02T12:20:35Z</time></trkpt><trkpt lat="43.0457736" lon="12.2383552"><ele>264.0</ele><time>2026-05-02T12:20:36Z</time></trkpt><trkpt lat="43.0456648" lon="12.2382476"><ele>263.5</ele><time>2026-05-02T12:20:37Z</time></trkpt><trkpt lat="43.045581" lon="12.2381428"><ele>263.0</ele><time>2026-05-02T12:20:37.996Z</time></trkpt><trkpt lat="43.0455202" lon="12.2380353"><ele>262.0</ele><time>2026-05-02T12:20:38.999Z</time></trkpt><trkpt lat="43.045491" lon="12.2379009"><ele>261.0</ele><time>2026-05-02T12:20:39.998Z</time></trkpt><trkpt lat="43.0454929" lon="12.2377691"><ele>260.0</ele><time>2026-05-02T12:20:40.999Z</time></trkpt><trkpt lat="43.0455274" lon="12.2376427"><ele>259.0</ele><time>2026-05-02T12:20:42Z</time></trkpt><trkpt lat="43.0455767" lon="12.2375576"><ele>258.0</ele><time>2026-05-02T12:20:43Z</time></trkpt><trkpt lat="43.045651" lon="12.2375073"><ele>258.0</ele><time>2026-05-02T12:20:43.998Z</time></trkpt><trkpt lat="43.0457733" lon="12.2374761"><ele>258.0</ele><time>2026-05-02T12:20:45Z</time></trkpt><trkpt lat="43.045894" lon="12.2374932"><ele>258.0</ele><time>2026-05-02T12:20:46Z</time></trkpt><trkpt lat="43.0460184" lon="12.2375456"><ele>258.0</ele><time>2026-05-02T12:20:46.995Z</time></trkpt><trkpt lat="43.0461414" lon="12.2376185"><ele>258.75</ele><time>2026-05-02T12:20:47.999Z</time></trkpt><trkpt lat="43.0462717" lon="12.2376941"><ele>259.5</ele><time>2026-05-02T12:20:48.992Z</time></trkpt><trkpt lat="43.0464074" lon="12.2377697"><ele>260.25</ele><time>2026-05-02T12:20:50Z</time></trkpt><trkpt lat="43.0465488" lon="12.2378502"><ele>261.0</ele><time>2026-05-02T12:20:50.994Z</time></trkpt><trkpt lat="43.0466963" lon="12.2379435"><ele>263.3333333333333</ele><time>2026-05-02T12:20:52Z</time></trkpt><trkpt lat="43.046849" lon="12.2380283"><ele>265.66666666666663</ele><time>2026-05-02T12:20:52.999Z</time></trkpt><trkpt lat="43.0469978" lon="12.2381243"><ele>268.0</ele><time>2026-05-02T12:20:54Z</time></trkpt><trkpt lat="43.0471494" lon="12.2382187"><ele>268.3333333333333</ele><time>2026-05-02T12:20:55Z</time></trkpt><trkpt lat="43.0473034" lon="12.2383132"><ele>268.6666666666667</ele><time>2026-05-02T12:20:56Z</time></trkpt><trkpt lat="43.0474644" lon="12.2384115"><ele>269.0</ele><time>2026-05-02T12:20:56.998Z</time></trkpt><trkpt lat="43.0476258" lon="12.2385127"><ele>270.33333333333337</ele><time>2026-05-02T12:20:57.999Z</time></trkpt><trkpt lat="43.0477891" lon="12.2386171"><ele>271.6666666666667</ele><time>2026-05-02T12:20:59Z</time></trkpt><trkpt lat="43.047954" lon="12.238726"><ele>273.0</ele><time>2026-05-02T12:21:00Z</time></trkpt><trkpt lat="43.0481239" lon="12.2388351"><ele>273.6666666666667</ele><time>2026-05-02T12:21:00.999Z</time></trkpt><trkpt lat="43.0482968" lon="12.2389463"><ele>274.33333333333337</ele><time>2026-05-02T12:21:02Z</time></trkpt><trkpt lat="43.048473" lon="12.2390638"><ele>275.0</ele><time>2026-05-02T12:21:02.998Z</time></trkpt><trkpt lat="43.0486522" lon="12.2391779"><ele>273.33333333333337</ele><time>2026-05-02T12:21:03.999Z</time></trkpt><trkpt lat="43.0488278" lon="12.2393002"><ele>271.6666666666667</ele><time>2026-05-02T12:21:04.998Z</time></trkpt><trkpt lat="43.0490017" lon="12.2394286"><ele>270.0</ele><time>2026-05-02T12:21:06Z</time></trkpt><trkpt lat="43.0491742" lon="12.2395643"><ele>270.0</ele><time>2026-05-02T12:21:06.995Z</time></trkpt><trkpt lat="43.0493435" lon="12.2397057"><ele>270.0</ele><time>2026-05-02T12:21:08Z</time></trkpt><trkpt lat="43.0495173" lon="12.2398415"><ele>270.0</ele><time>2026-05-02T12:21:08.998Z</time></trkpt><trkpt lat="43.0496866" lon="12.2399874"><ele>267.6666666666667</ele><time>2026-05-02T12:21:10Z</time></trkpt><trkpt lat="43.0498504" lon="12.2401266"><ele>265.33333333333337</ele><time>2026-05-02T12:21:10.999Z</time></trkpt><trkpt lat="43.0500174" lon="12.240275"><ele>263.0</ele><time>2026-05-02T12:21:12Z</time></trkpt><trkpt lat="43.0501821" lon="12.2404027"><ele>262.33333333333337</ele><time>2026-05-02T12:21:13Z</time></trkpt><trkpt lat="43.0503389" lon="12.2405205"><ele>261.6666666666667</ele><time>2026-05-02T12:21:13.999Z</time></trkpt><trkpt lat="43.0505088" lon="12.24063"><ele>261.0</ele><time>2026-05-02T12:21:15Z</time></trkpt><trkpt lat="43.0506884" lon="12.2406989"><ele>257.3333333333333</ele><time>2026-05-02T12:21:15.996Z</time></trkpt><trkpt lat="43.0508669" lon="12.2407437"><ele>253.66666666666666</ele><time>2026-05-02T12:21:17Z</time></trkpt><trkpt lat="43.0510374" lon="12.2407797"><ele>250.0</ele><time>2026-05-02T12:21:17.999Z</time></trkpt><trkpt lat="43.0512" lon="12.2408123"><ele>250.0</ele><time>2026-05-02T12:21:19Z</time></trkpt><trkpt lat="43.0513569" lon="12.2408427"><ele>250.0</ele><time>2026-05-02T12:21:19.995Z</time></trkpt><trkpt lat="43.0515082" lon="12.2408794"><ele>250.0</ele><time>2026-05-02T12:21:20.999Z</time></trkpt><trkpt lat="43.051644" lon="12.2409384"><ele>250.0</ele><time>2026-05-02T12:21:21.994Z</time></trkpt><trkpt lat="43.0517676" lon="12.2410235"><ele>250.0</ele><time>2026-05-02T12:21:22.996Z</time></trkpt><trkpt lat="43.051869" lon="12.2411258"><ele>250.0</ele><time>2026-05-02T12:21:23.994Z</time></trkpt><trkpt lat="43.051945" lon="12.2412544"><ele>250.0</ele><time>2026-05-02T12:21:25Z</time></trkpt><trkpt lat="43.0519811" lon="12.2414171"><ele>248.0</ele><time>2026-05-02T12:21:25.996Z</time></trkpt><trkpt lat="43.0519866" lon="12.2415908"><ele>246.0</ele><time>2026-05-02T12:21:26.995Z</time></trkpt><trkpt lat="43.0519772" lon="12.2417723"><ele>244.0</ele><time>2026-05-02T12:21:27.996Z</time></trkpt><trkpt lat="43.0519189" lon="12.2419582"><ele>242.0</ele><time>2026-05-02T12:21:29Z</time></trkpt><trkpt lat="43.051852" lon="12.2421397"><ele>240.33333333333334</ele><time>2026-05-02T12:21:29.996Z</time></trkpt><trkpt lat="43.0517825" lon="12.242338"><ele>238.66666666666669</ele><time>2026-05-02T12:21:31Z</time></trkpt><trkpt lat="43.0517141" lon="12.2425379"><ele>237.0</ele><time>2026-05-02T12:21:31.996Z</time></trkpt><trkpt lat="43.0516384" lon="12.2427452"><ele>237.33333333333331</ele><time>2026-05-02T12:21:33Z</time></trkpt><trkpt lat="43.051586" lon="12.2429631"><ele>237.66666666666666</ele><time>2026-05-02T12:21:33.996Z</time></trkpt><trkpt lat="43.0515689" lon="12.2432055"><ele>238.0</ele><time>2026-05-02T12:21:35Z</time></trkpt><trkpt lat="43.0515932" lon="12.2434578"><ele>237.33333333333331</ele><time>2026-05-02T12:21:35.995Z</time></trkpt><trkpt lat="43.0516437" lon="12.2437146"><ele>236.66666666666669</ele><time>2026-05-02T12:21:37Z</time></trkpt><trkpt lat="43.0516995" lon="12.2439744"><ele>236.0</ele><time>2026-05-02T12:21:37.995Z</time></trkpt><trkpt lat="43.0517547" lon="12.2442426"><ele>236.0</ele><time>2026-05-02T12:21:39Z</time></trkpt><trkpt lat="43.0518112" lon="12.244511"><ele>236.0</ele><time>2026-05-02T12:21:39.996Z</time></trkpt><trkpt lat="43.0518646" lon="12.244782"><ele>236.0</ele><time>2026-05-02T12:21:41Z</time></trkpt><trkpt lat="43.0519182" lon="12.2450575"><ele>235.0</ele><time>2026-05-02T12:21:42Z</time></trkpt><trkpt lat="43.0519706" lon="12.2453311"><ele>234.0</ele><time>2026-05-02T12:21:42.999Z</time></trkpt><trkpt lat="43.0520247" lon="12.2456041"><ele>233.0</ele><time>2026-05-02T12:21:44Z</time></trkpt><trkpt lat="43.0520724" lon="12.2458797"><ele>232.66666666666669</ele><time>2026-05-02T12:21:45Z</time></trkpt><trkpt lat="43.0521148" lon="12.2461543"><ele>232.33333333333331</ele><time>2026-05-02T12:21:45.992Z</time></trkpt><trkpt lat="43.0521508" lon="12.2464269"><ele>232.0</ele><time>2026-05-02T12:21:47Z</time></trkpt><trkpt lat="43.0521797" lon="12.2467037"><ele>231.66666666666666</ele><time>2026-05-02T12:21:47.996Z</time></trkpt><trkpt lat="43.0522077" lon="12.2469899"><ele>231.33333333333331</ele><time>2026-05-02T12:21:48.998Z</time></trkpt><trkpt lat="43.0522391" lon="12.2472607"><ele>231.0</ele><time>2026-05-02T12:21:50Z</time></trkpt><trkpt lat="43.052269" lon="12.2475332"><ele>232.0</ele><time>2026-05-02T12:21:50.995Z</time></trkpt><trkpt lat="43.0523073" lon="12.2478031"><ele>233.0</ele><time>2026-05-02T12:21:52Z</time></trkpt><trkpt lat="43.0523492" lon="12.2480694"><ele>234.0</ele><time>2026-05-02T12:21:52.994Z</time></trkpt><trkpt lat="43.0524025" lon="12.2483346"><ele>231.0</ele><time>2026-05-02T12:21:53.999Z</time></trkpt><trkpt lat="43.0524607" lon="12.2485974"><ele>228.0</ele><time>2026-05-02T12:21:54.994Z</time></trkpt><trkpt lat="43.0525201" lon="12.2488609"><ele>225.0</ele><time>2026-05-02T12:21:56Z</time></trkpt><trkpt lat="43.0525769" lon="12.2491274"><ele>225.0</ele><time>2026-05-02T12:21:56.997Z</time></trkpt><trkpt lat="43.0526324" lon="12.2493891"><ele>225.0</ele><time>2026-05-02T12:21:58Z</time></trkpt><trkpt lat="43.0526886" lon="12.2496617"><ele>225.0</ele><time>2026-05-02T12:21:58.997Z</time></trkpt><trkpt lat="43.0527449" lon="12.2499347"><ele>224.66666666666669</ele><time>2026-05-02T12:21:59.999Z</time></trkpt><trkpt lat="43.0528023" lon="12.2502115"><ele>224.33333333333334</ele><time>2026-05-02T12:22:00.995Z</time></trkpt><trkpt lat="43.0528628" lon="12.2504861"><ele>224.0</ele><time>2026-05-02T12:22:01.999Z</time></trkpt><trkpt lat="43.0529211" lon="12.2507668"><ele>223.33333333333334</ele><time>2026-05-02T12:22:02.996Z</time></trkpt><trkpt lat="43.0529765" lon="12.2510365"><ele>222.66666666666669</ele><time>2026-05-02T12:22:04Z</time></trkpt><trkpt lat="43.0530317" lon="12.2513069"><ele>222.0</ele><time>2026-05-02T12:22:05Z</time></trkpt><trkpt lat="43.0530851" lon="12.251581"><ele>221.66666666666669</ele><time>2026-05-02T12:22:05.997Z</time></trkpt><trkpt lat="43.0531382" lon="12.2518526"><ele>221.33333333333334</ele><time>2026-05-02T12:22:06.995Z</time></trkpt><trkpt lat="43.0531958" lon="12.2521235"><ele>221.0</ele><time>2026-05-02T12:22:07.999Z</time></trkpt><trkpt lat="43.0532551" lon="12.2523826"><ele>220.33333333333334</ele><time>2026-05-02T12:22:09Z</time></trkpt><trkpt lat="43.0533138" lon="12.2526466"><ele>219.66666666666669</ele><time>2026-05-02T12:22:10Z</time></trkpt><trkpt lat="43.0533651" lon="12.2529143"><ele>219.0</ele><time>2026-05-02T12:22:11Z</time></trkpt><trkpt lat="43.0534168" lon="12.2531805"><ele>218.66666666666669</ele><time>2026-05-02T12:22:11.997Z</time></trkpt><trkpt lat="43.0534673" lon="12.2534503"><ele>218.33333333333334</ele><time>2026-05-02T12:22:12.999Z</time></trkpt><trkpt lat="43.0535197" lon="12.2537177"><ele>218.0</ele><time>2026-05-02T12:22:14Z</time></trkpt><trkpt lat="43.0535753" lon="12.2539858"><ele>217.33333333333334</ele><time>2026-05-02T12:22:15Z</time></trkpt><trkpt lat="43.0536279" lon="12.2542468"><ele>216.66666666666669</ele><time>2026-05-02T12:22:16Z</time></trkpt><trkpt lat="43.0536827" lon="12.2544998"><ele>216.0</ele><time>2026-05-02T12:22:16.995Z</time></trkpt><trkpt lat="43.0537362" lon="12.254754"><ele>216.0</ele><time>2026-05-02T12:22:17.999Z</time></trkpt><trkpt lat="43.0537879" lon="12.2550148"><ele>216.0</ele><time>2026-05-02T12:22:18.999Z</time></trkpt><trkpt lat="43.0538386" lon="12.2552675"><ele>216.0</ele><time>2026-05-02T12:22:20Z</time></trkpt><trkpt lat="43.0538921" lon="12.2555223"><ele>216.33333333333331</ele><time>2026-05-02T12:22:20.996Z</time></trkpt><trkpt lat="43.0539471" lon="12.2557798"><ele>216.66666666666666</ele><time>2026-05-02T12:22:22Z</time></trkpt><trkpt lat="43.054002" lon="12.2560371"><ele>217.0</ele><time>2026-05-02T12:22:23Z</time></trkpt><trkpt lat="43.0540566" lon="12.2562964"><ele>217.0</ele><time>2026-05-02T12:22:23.996Z</time></trkpt><trkpt lat="43.0541124" lon="12.256551"><ele>217.0</ele><time>2026-05-02T12:22:24.997Z</time></trkpt><trkpt lat="43.0541701" lon="12.2568039"><ele>217.0</ele><time>2026-05-02T12:22:25.999Z</time></trkpt><trkpt lat="43.0542349" lon="12.2570566"><ele>216.66666666666666</ele><time>2026-05-02T12:22:26.998Z</time></trkpt><trkpt lat="43.0542934" lon="12.25731"><ele>216.33333333333331</ele><time>2026-05-02T12:22:28Z</time></trkpt><trkpt lat="43.0543419" lon="12.2575686"><ele>216.0</ele><time>2026-05-02T12:22:28.992Z</time></trkpt><trkpt lat="43.0543893" lon="12.2578154"><ele>216.0</ele><time>2026-05-02T12:22:30Z</time></trkpt><trkpt lat="43.0544319" lon="12.2580449"><ele>216.0</ele><time>2026-05-02T12:22:30.999Z</time></trkpt><trkpt lat="43.0544713" lon="12.2582591"><ele>216.0</ele><time>2026-05-02T12:22:32Z</time></trkpt><trkpt lat="43.0545052" lon="12.2584525"><ele>215.8</ele><time>2026-05-02T12:22:33Z</time></trkpt><trkpt lat="43.0545296" lon="12.258639"><ele>215.60000000000002</ele><time>2026-05-02T12:22:34Z</time></trkpt><trkpt lat="43.0545446" lon="12.2587953"><ele>215.4</ele><time>2026-05-02T12:22:35Z</time></trkpt><trkpt lat="43.0545437" lon="12.2589287"><ele>215.2</ele><time>2026-05-02T12:22:35.993Z</time></trkpt><trkpt lat="43.0545345" lon="12.2590522"><ele>215.0</ele><time>2026-05-02T12:22:37Z</time></trkpt><trkpt lat="43.05451" lon="12.2591771"><ele>215.00000000000003</ele><time>2026-05-02T12:22:38Z</time></trkpt><trkpt lat="43.0544775" lon="12.2592927"><ele>215.0</ele><time>2026-05-02T12:22:38.999Z</time></trkpt><trkpt lat="43.0544673" lon="12.2594086"><ele>215.0</ele><time>2026-05-02T12:22:39.999Z</time></trkpt><trkpt lat="43.0544871" lon="12.2595137"><ele>215.0</ele><time>2026-05-02T12:22:41Z</time></trkpt><trkpt lat="43.0545413" lon="12.2596028"><ele>215.00000000000003</ele><time>2026-05-02T12:22:42Z</time></trkpt><trkpt lat="43.0546233" lon="12.2596885"><ele>215.0</ele><time>2026-05-02T12:22:42.99Z</time></trkpt><trkpt lat="43.0547027" lon="12.259804"><ele>215.0</ele><time>2026-05-02T12:22:44Z</time></trkpt><trkpt lat="43.0547666" lon="12.2599526"><ele>215.0</ele><time>2026-05-02T12:22:45Z</time></trkpt><trkpt lat="43.0548272" lon="12.2601218"><ele>215.0</ele><time>2026-05-02T12:22:45.995Z</time></trkpt><trkpt lat="43.0548844" lon="12.2603051"><ele>215.0</ele><time>2026-05-02T12:22:47Z</time></trkpt><trkpt lat="43.0549353" lon="12.2604971"><ele>215.0</ele><time>2026-05-02T12:22:48Z</time></trkpt><trkpt lat="43.054989" lon="12.2606978"><ele>215.0</ele><time>2026-05-02T12:22:48.994Z</time></trkpt><trkpt lat="43.0550413" lon="12.260907"><ele>215.0</ele><time>2026-05-02T12:22:50Z</time></trkpt><trkpt lat="43.0550893" lon="12.2611232"><ele>215.0</ele><time>2026-05-02T12:22:51Z</time></trkpt><trkpt lat="43.0551399" lon="12.261347"><ele>215.0</ele><time>2026-05-02T12:22:52Z</time></trkpt><trkpt lat="43.0551845" lon="12.2615734"><ele>215.0</ele><time>2026-05-02T12:22:52.999Z</time></trkpt><trkpt lat="43.0552326" lon="12.2618028"><ele>215.0</ele><time>2026-05-02T12:22:53.999Z</time></trkpt><trkpt lat="43.0552836" lon="12.2620425"><ele>215.0</ele><time>2026-05-02T12:22:54.993Z</time></trkpt><trkpt lat="43.0553335" lon="12.262273"><ele>215.0</ele><time>2026-05-02T12:22:55.999Z</time></trkpt><trkpt lat="43.0553837" lon="12.2625114"><ele>215.0</ele><time>2026-05-02T12:22:56.995Z</time></trkpt><trkpt lat="43.0554371" lon="12.2627558"><ele>215.0</ele><time>2026-05-02T12:22:57.999Z</time></trkpt><trkpt lat="43.0554889" lon="12.2630076"><ele>215.0</ele><time>2026-05-02T12:22:58.998Z</time></trkpt><trkpt lat="43.0555452" lon="12.2632618"><ele>215.0</ele><time>2026-05-02T12:22:59.998Z</time></trkpt><trkpt lat="43.0555956" lon="12.2635173"><ele>215.0</ele><time>2026-05-02T12:23:00.995Z</time></trkpt><trkpt lat="43.0556438" lon="12.2637734"><ele>215.0</ele><time>2026-05-02T12:23:01.999Z</time></trkpt><trkpt lat="43.055696" lon="12.2640277"><ele>215.33333333333334</ele><time>2026-05-02T12:23:02.997Z</time></trkpt><trkpt lat="43.0557484" lon="12.2642832"><ele>215.66666666666669</ele><time>2026-05-02T12:23:03.998Z</time></trkpt><trkpt lat="43.0558042" lon="12.2645398"><ele>216.0</ele><time>2026-05-02T12:23:04.993Z</time></trkpt><trkpt lat="43.055861" lon="12.2647969"><ele>216.33333333333331</ele><time>2026-05-02T12:23:06Z</time></trkpt><trkpt lat="43.0559167" lon="12.2650538"><ele>216.66666666666666</ele><time>2026-05-02T12:23:06.997Z</time></trkpt><trkpt lat="43.0559724" lon="12.2653128"><ele>217.0</ele><time>2026-05-02T12:23:07.999Z</time></trkpt><trkpt lat="43.0560277" lon="12.2655713"><ele>216.66666666666666</ele><time>2026-05-02T12:23:09Z</time></trkpt><trkpt lat="43.0560896" lon="12.2658348"><ele>216.33333333333331</ele><time>2026-05-02T12:23:10Z</time></trkpt><trkpt lat="43.0561492" lon="12.2660953"><ele>216.0</ele><time>2026-05-02T12:23:10.997Z</time></trkpt><trkpt lat="43.0562042" lon="12.2663644"><ele>215.66666666666669</ele><time>2026-05-02T12:23:11.996Z</time></trkpt><trkpt lat="43.056258" lon="12.2666349"><ele>215.33333333333334</ele><time>2026-05-02T12:23:12.998Z</time></trkpt><trkpt lat="43.0563112" lon="12.2669073"><ele>215.0</ele><time>2026-05-02T12:23:13.998Z</time></trkpt><trkpt lat="43.0563664" lon="12.2671718"><ele>215.0</ele><time>2026-05-02T12:23:14.998Z</time></trkpt><trkpt lat="43.05642" lon="12.2674283"><ele>215.0</ele><time>2026-05-02T12:23:16Z</time></trkpt><trkpt lat="43.0564744" lon="12.2676785"><ele>215.0</ele><time>2026-05-02T12:23:17Z</time></trkpt><trkpt lat="43.0565268" lon="12.2679249"><ele>215.0</ele><time>2026-05-02T12:23:17.999Z</time></trkpt><trkpt lat="43.0565861" lon="12.2681684"><ele>215.0</ele><time>2026-05-02T12:23:18.995Z</time></trkpt><trkpt lat="43.0566462" lon="12.2684149"><ele>215.0</ele><time>2026-05-02T12:23:20Z</time></trkpt><trkpt lat="43.0567173" lon="12.2686545"><ele>215.0</ele><time>2026-05-02T12:23:21Z</time></trkpt><trkpt lat="43.0567927" lon="12.2688918"><ele>215.0</ele><time>2026-05-02T12:23:22Z</time></trkpt><trkpt lat="43.0568733" lon="12.2691288"><ele>215.0</ele><time>2026-05-02T12:23:22.992Z</time></trkpt><trkpt lat="43.0569618" lon="12.2693507"><ele>214.33333333333334</ele><time>2026-05-02T12:23:23.999Z</time></trkpt><trkpt lat="43.0570574" lon="12.2695681"><ele>213.66666666666669</ele><time>2026-05-02T12:23:24.997Z</time></trkpt><trkpt lat="43.0571616" lon="12.2697778"><ele>213.0</ele><time>2026-05-02T12:23:26Z</time></trkpt><trkpt lat="43.0572721" lon="12.2699813"><ele>213.0</ele><time>2026-05-02T12:23:26.998Z</time></trkpt><trkpt lat="43.0573914" lon="12.2701805"><ele>213.0</ele><time>2026-05-02T12:23:28Z</time></trkpt><trkpt lat="43.0575284" lon="12.2703786"><ele>213.0</ele><time>2026-05-02T12:23:28.997Z</time></trkpt><trkpt lat="43.0576771" lon="12.2705763"><ele>212.66666666666669</ele><time>2026-05-02T12:23:30Z</time></trkpt><trkpt lat="43.0578307" lon="12.270774"><ele>212.33333333333334</ele><time>2026-05-02T12:23:30.992Z</time></trkpt><trkpt lat="43.0579868" lon="12.2709873"><ele>212.0</ele><time>2026-05-02T12:23:32Z</time></trkpt><trkpt lat="43.058139" lon="12.2712126"><ele>213.0</ele><time>2026-05-02T12:23:32.998Z</time></trkpt><trkpt lat="43.0582932" lon="12.271445"><ele>214.0</ele><time>2026-05-02T12:23:34Z</time></trkpt><trkpt lat="43.0584513" lon="12.2716705"><ele>214.0</ele><time>2026-05-02T12:23:34.998Z</time></trkpt><trkpt lat="43.0586129" lon="12.271891"><ele>214.0</ele><time>2026-05-02T12:23:36Z</time></trkpt><trkpt lat="43.0587756" lon="12.2721108"><ele>213.5</ele><time>2026-05-02T12:23:36.997Z</time></trkpt><trkpt lat="43.058938" lon="12.2723306"><ele>213.0</ele><time>2026-05-02T12:23:38Z</time></trkpt><trkpt lat="43.0591026" lon="12.2725466"><ele>215.5</ele><time>2026-05-02T12:23:39Z</time></trkpt><trkpt lat="43.0592625" lon="12.2727719"><ele>218.0</ele><time>2026-05-02T12:23:39.994Z</time></trkpt><trkpt lat="43.0594139" lon="12.2729992"><ele>216.33333333333334</ele><time>2026-05-02T12:23:41Z</time></trkpt><trkpt lat="43.0595546" lon="12.2732369"><ele>214.66666666666669</ele><time>2026-05-02T12:23:41.995Z</time></trkpt><trkpt lat="43.0596832" lon="12.273477"><ele>213.0</ele><time>2026-05-02T12:23:43Z</time></trkpt><trkpt lat="43.0598016" lon="12.2737234"><ele>212.66666666666669</ele><time>2026-05-02T12:23:44Z</time></trkpt><trkpt lat="43.0599054" lon="12.273974"><ele>212.33333333333334</ele><time>2026-05-02T12:23:45Z</time></trkpt><trkpt lat="43.0599895" lon="12.2742127"><ele>212.0</ele><time>2026-05-02T12:23:46Z</time></trkpt><trkpt lat="43.0600655" lon="12.2744487"><ele>212.0</ele><time>2026-05-02T12:23:46.994Z</time></trkpt><trkpt lat="43.0601306" lon="12.2746725"><ele>212.0</ele><time>2026-05-02T12:23:47.999Z</time></trkpt><trkpt lat="43.0601805" lon="12.2748852"><ele>212.0</ele><time>2026-05-02T12:23:49Z</time></trkpt><trkpt lat="43.0602275" lon="12.2750817"><ele>212.0</ele><time>2026-05-02T12:23:49.999Z</time></trkpt><trkpt lat="43.0602698" lon="12.2752578"><ele>212.0</ele><time>2026-05-02T12:23:50.999Z</time></trkpt><trkpt lat="43.0603019" lon="12.2754185"><ele>212.0</ele><time>2026-05-02T12:23:51.995Z</time></trkpt><trkpt lat="43.0603266" lon="12.2755766"><ele>212.0</ele><time>2026-05-02T12:23:53Z</time></trkpt><trkpt lat="43.0603367" lon="12.275743"><ele>212.0</ele><time>2026-05-02T12:23:53.996Z</time></trkpt><trkpt lat="43.0603391" lon="12.2759245"><ele>212.0</ele><time>2026-05-02T12:23:54.999Z</time></trkpt><trkpt lat="43.0603498" lon="12.2761184"><ele>212.0</ele><time>2026-05-02T12:23:55.998Z</time></trkpt><trkpt lat="43.0603449" lon="12.2763227"><ele>212.0</ele><time>2026-05-02T12:23:57Z</time></trkpt><trkpt lat="43.0603154" lon="12.2765368"><ele>212.0</ele><time>2026-05-02T12:23:58Z</time></trkpt><trkpt lat="43.0602754" lon="12.2767587"><ele>212.0</ele><time>2026-05-02T12:23:58.997Z</time></trkpt><trkpt lat="43.0602379" lon="12.2769913"><ele>212.0</ele><time>2026-05-02T12:23:59.999Z</time></trkpt><trkpt lat="43.0601959" lon="12.2772357"><ele>211.66666666666669</ele><time>2026-05-02T12:24:01Z</time></trkpt><trkpt lat="43.0601509" lon="12.2774876"><ele>211.33333333333331</ele><time>2026-05-02T12:24:02Z</time></trkpt><trkpt lat="43.0601038" lon="12.277749"><ele>211.0</ele><time>2026-05-02T12:24:02.997Z</time></trkpt><trkpt lat="43.0600513" lon="12.2780218"><ele>211.0</ele><time>2026-05-02T12:24:04Z</time></trkpt><trkpt lat="43.0599983" lon="12.2782984"><ele>211.0</ele><time>2026-05-02T12:24:05Z</time></trkpt><trkpt lat="43.0599413" lon="12.2785825"><ele>211.0</ele><time>2026-05-02T12:24:05.999Z</time></trkpt><trkpt lat="43.0598844" lon="12.2788681"><ele>211.0</ele><time>2026-05-02T12:24:06.995Z</time></trkpt><trkpt lat="43.0598265" lon="12.2791564"><ele>211.0</ele><time>2026-05-02T12:24:07.998Z</time></trkpt><trkpt lat="43.0597665" lon="12.2794433"><ele>211.0</ele><time>2026-05-02T12:24:09Z</time></trkpt><trkpt lat="43.0597045" lon="12.2797283"><ele>211.33333333333331</ele><time>2026-05-02T12:24:09.992Z</time></trkpt><trkpt lat="43.0596415" lon="12.2800116"><ele>211.66666666666669</ele><time>2026-05-02T12:24:11Z</time></trkpt><trkpt lat="43.0595779" lon="12.2802956"><ele>212.0</ele><time>2026-05-02T12:24:11.999Z</time></trkpt><trkpt lat="43.0595137" lon="12.2805853"><ele>212.0</ele><time>2026-05-02T12:24:13Z</time></trkpt><trkpt lat="43.0594506" lon="12.2808739"><ele>212.0</ele><time>2026-05-02T12:24:13.995Z</time></trkpt><trkpt lat="43.0593843" lon="12.2811598"><ele>212.0</ele><time>2026-05-02T12:24:14.996Z</time></trkpt><trkpt lat="43.0593181" lon="12.2814411"><ele>212.0</ele><time>2026-05-02T12:24:16Z</time></trkpt><trkpt lat="43.0592505" lon="12.2817259"><ele>212.0</ele><time>2026-05-02T12:24:17Z</time></trkpt><trkpt lat="43.0591878" lon="12.2820054"><ele>212.0</ele><time>2026-05-02T12:24:17.994Z</time></trkpt><trkpt lat="43.0591183" lon="12.2822914"><ele>212.33333333333334</ele><time>2026-05-02T12:24:19Z</time></trkpt><trkpt lat="43.0590508" lon="12.2825818"><ele>212.66666666666669</ele><time>2026-05-02T12:24:20Z</time></trkpt><trkpt lat="43.0589802" lon="12.2828727"><ele>213.0</ele><time>2026-05-02T12:24:21Z</time></trkpt><trkpt lat="43.05891" lon="12.2831625"><ele>213.0</ele><time>2026-05-02T12:24:21.997Z</time></trkpt><trkpt lat="43.0588403" lon="12.2834526"><ele>213.0</ele><time>2026-05-02T12:24:22.997Z</time></trkpt><trkpt lat="43.0587725" lon="12.2837455"><ele>213.0</ele><time>2026-05-02T12:24:24Z</time></trkpt><trkpt lat="43.0587123" lon="12.284038"><ele>213.0</ele><time>2026-05-02T12:24:25Z</time></trkpt><trkpt lat="43.0586595" lon="12.2843441"><ele>213.0</ele><time>2026-05-02T12:24:25.998Z</time></trkpt><trkpt lat="43.0586214" lon="12.2846632"><ele>213.5</ele><time>2026-05-02T12:24:27Z</time></trkpt><trkpt lat="43.0586022" lon="12.2849887"><ele>214.0</ele><time>2026-05-02T12:24:27.993Z</time></trkpt><trkpt lat="43.0586027" lon="12.2853239"><ele>214.0</ele><time>2026-05-02T12:24:29Z</time></trkpt><trkpt lat="43.0586164" lon="12.2856647"><ele>214.0</ele><time>2026-05-02T12:24:30Z</time></trkpt><trkpt lat="43.0586561" lon="12.286014"><ele>214.0</ele><time>2026-05-02T12:24:31Z</time></trkpt><trkpt lat="43.0587163" lon="12.2863625"><ele>214.0</ele><time>2026-05-02T12:24:31.997Z</time></trkpt><trkpt lat="43.0587866" lon="12.2867096"><ele>214.5</ele><time>2026-05-02T12:24:32.997Z</time></trkpt><trkpt lat="43.0588626" lon="12.2870636"><ele>215.0</ele><time>2026-05-02T12:24:34Z</time></trkpt><trkpt lat="43.0589478" lon="12.2874132"><ele>216.5</ele><time>2026-05-02T12:24:34.997Z</time></trkpt><trkpt lat="43.059035" lon="12.2877631"><ele>218.0</ele><time>2026-05-02T12:24:35.996Z</time></trkpt><trkpt lat="43.05912" lon="12.2881167"><ele>218.0</ele><time>2026-05-02T12:24:37Z</time></trkpt><trkpt lat="43.0592056" lon="12.2884699"><ele>218.0</ele><time>2026-05-02T12:24:37.995Z</time></trkpt><trkpt lat="43.0592913" lon="12.2888242"><ele>218.5</ele><time>2026-05-02T12:24:38.999Z</time></trkpt><trkpt lat="43.0593765" lon="12.2891828"><ele>219.0</ele><time>2026-05-02T12:24:39.995Z</time></trkpt><trkpt lat="43.0594612" lon="12.2895362"><ele>220.5</ele><time>2026-05-02T12:24:40.999Z</time></trkpt><trkpt lat="43.0595501" lon="12.2898888"><ele>222.0</ele><time>2026-05-02T12:24:41.995Z</time></trkpt><trkpt lat="43.0596348" lon="12.2902432"><ele>222.0</ele><time>2026-05-02T12:24:43Z</time></trkpt><trkpt lat="43.0597186" lon="12.2905865"><ele>222.0</ele><time>2026-05-02T12:24:43.996Z</time></trkpt><trkpt lat="43.0598029" lon="12.290915"><ele>222.5</ele><time>2026-05-02T12:24:45Z</time></trkpt><trkpt lat="43.0598813" lon="12.2912355"><ele>223.0</ele><time>2026-05-02T12:24:46Z</time></trkpt><trkpt lat="43.0599592" lon="12.2915476"><ele>224.0</ele><time>2026-05-02T12:24:46.998Z</time></trkpt><trkpt lat="43.0600369" lon="12.2918583"><ele>225.0</ele><time>2026-05-02T12:24:48Z</time></trkpt><trkpt lat="43.0601178" lon="12.2921709"><ele>225.0</ele><time>2026-05-02T12:24:48.998Z</time></trkpt><trkpt lat="43.0602123" lon="12.2924699"><ele>225.0</ele><time>2026-05-02T12:24:50Z</time></trkpt><trkpt lat="43.060323" lon="12.2927643"><ele>225.0</ele><time>2026-05-02T12:24:51Z</time></trkpt><trkpt lat="43.0604451" lon="12.2930569"><ele>225.0</ele><time>2026-05-02T12:24:52Z</time></trkpt><trkpt lat="43.0605759" lon="12.2933449"><ele>225.5</ele><time>2026-05-02T12:24:52.999Z</time></trkpt><trkpt lat="43.0607049" lon="12.2936525"><ele>226.0</ele><time>2026-05-02T12:24:54Z</time></trkpt><trkpt lat="43.0608406" lon="12.2939608"><ele>227.0</ele><time>2026-05-02T12:24:55Z</time></trkpt><trkpt lat="43.0609777" lon="12.294272"><ele>228.0</ele><time>2026-05-02T12:24:56Z</time></trkpt><trkpt lat="43.0611212" lon="12.2945772"><ele>229.5</ele><time>2026-05-02T12:24:57Z</time></trkpt><trkpt lat="43.0612616" lon="12.2948888"><ele>231.0</ele><time>2026-05-02T12:24:57.996Z</time></trkpt><trkpt lat="43.0613895" lon="12.2951791"><ele>231.0</ele><time>2026-05-02T12:24:59Z</time></trkpt><trkpt lat="43.0615044" lon="12.2954353"><ele>231.0</ele><time>2026-05-02T12:24:59.999Z</time></trkpt><trkpt lat="43.0616145" lon="12.2956915"><ele>231.0</ele><time>2026-05-02T12:25:00.997Z</time></trkpt><trkpt lat="43.0617212" lon="12.2959376"><ele>232.66666666666669</ele><time>2026-05-02T12:25:02Z</time></trkpt><trkpt lat="43.0618211" lon="12.2961698"><ele>234.33333333333334</ele><time>2026-05-02T12:25:02.995Z</time></trkpt><trkpt lat="43.0619157" lon="12.296388"><ele>236.0</ele><time>2026-05-02T12:25:03.998Z</time></trkpt><trkpt lat="43.0620139" lon="12.2966052"><ele>236.33333333333334</ele><time>2026-05-02T12:25:04.998Z</time></trkpt><trkpt lat="43.0621102" lon="12.2968276"><ele>236.66666666666669</ele><time>2026-05-02T12:25:05.997Z</time></trkpt><trkpt lat="43.0622041" lon="12.2970424"><ele>237.0</ele><time>2026-05-02T12:25:07Z</time></trkpt><trkpt lat="43.0622949" lon="12.2972374"><ele>237.25</ele><time>2026-05-02T12:25:08Z</time></trkpt><trkpt lat="43.0623738" lon="12.297415"><ele>237.5</ele><time>2026-05-02T12:25:09Z</time></trkpt><trkpt lat="43.0624428" lon="12.297571"><ele>237.75</ele><time>2026-05-02T12:25:09.999Z</time></trkpt><trkpt lat="43.0624979" lon="12.2976963"><ele>238.0</ele><time>2026-05-02T12:25:10.999Z</time></trkpt><trkpt lat="43.0625429" lon="12.2977971"><ele>237.99999999999997</ele><time>2026-05-02T12:25:11.996Z</time></trkpt><trkpt lat="43.0625763" lon="12.2978727"><ele>238.0</ele><time>2026-05-02T12:25:12.999Z</time></trkpt><trkpt lat="43.0626216" lon="12.2979787"><ele>238.0</ele><time>2026-05-02T12:25:15Z</time></trkpt><trkpt lat="43.0626529" lon="12.2980544"><ele>238.0</ele><time>2026-05-02T12:25:19Z</time></trkpt><trkpt lat="43.0626903" lon="12.2981813"><ele>237.99999999999997</ele><time>2026-05-02T12:25:35Z</time></trkpt><trkpt lat="43.0627236" lon="12.2982598"><ele>238.0</ele><time>2026-05-02T12:25:36Z</time></trkpt><trkpt lat="43.0627652" lon="12.2983473"><ele>238.0</ele><time>2026-05-02T12:25:37Z</time></trkpt><trkpt lat="43.0628163" lon="12.2984625"><ele>238.0</ele><time>2026-05-02T12:25:37.999Z</time></trkpt><trkpt lat="43.0628717" lon="12.2985821"><ele>238.0</ele><time>2026-05-02T12:25:39Z</time></trkpt><trkpt lat="43.0629335" lon="12.2987199"><ele>238.0</ele><time>2026-05-02T12:25:39.996Z</time></trkpt><trkpt lat="43.063" lon="12.2988721"><ele>237.75</ele><time>2026-05-02T12:25:40.997Z</time></trkpt><trkpt lat="43.0630689" lon="12.2990358"><ele>237.5</ele><time>2026-05-02T12:25:42Z</time></trkpt><trkpt lat="43.0631477" lon="12.2992114"><ele>237.25</ele><time>2026-05-02T12:25:42.998Z</time></trkpt><trkpt lat="43.06323" lon="12.2993987"><ele>237.0</ele><time>2026-05-02T12:25:44Z</time></trkpt><trkpt lat="43.0633166" lon="12.2995953"><ele>236.66666666666669</ele><time>2026-05-02T12:25:45Z</time></trkpt><trkpt lat="43.063404" lon="12.2997945"><ele>236.33333333333334</ele><time>2026-05-02T12:25:45.999Z</time></trkpt><trkpt lat="43.0634963" lon="12.2999943"><ele>236.0</ele><time>2026-05-02T12:25:46.995Z</time></trkpt><trkpt lat="43.0635902" lon="12.3002031"><ele>236.0</ele><time>2026-05-02T12:25:47.998Z</time></trkpt><trkpt lat="43.0636844" lon="12.3004154"><ele>236.0</ele><time>2026-05-02T12:25:49Z</time></trkpt><trkpt lat="43.0637738" lon="12.3006242"><ele>236.0</ele><time>2026-05-02T12:25:49.997Z</time></trkpt><trkpt lat="43.0638619" lon="12.3008311"><ele>236.33333333333334</ele><time>2026-05-02T12:25:51Z</time></trkpt><trkpt lat="43.0639487" lon="12.3010285"><ele>236.66666666666669</ele><time>2026-05-02T12:25:52Z</time></trkpt><trkpt lat="43.0640355" lon="12.3012248"><ele>237.0</ele><time>2026-05-02T12:25:52.993Z</time></trkpt><trkpt lat="43.0641199" lon="12.3014062"><ele>238.0</ele><time>2026-05-02T12:25:53.997Z</time></trkpt><trkpt lat="43.0642125" lon="12.3016172"><ele>239.0</ele><time>2026-05-02T12:25:54.999Z</time></trkpt><trkpt lat="43.0642997" lon="12.301814"><ele>240.0</ele><time>2026-05-02T12:25:55.999Z</time></trkpt><trkpt lat="43.0643822" lon="12.3019932"><ele>240.0</ele><time>2026-05-02T12:25:56.998Z</time></trkpt><trkpt lat="43.0644727" lon="12.3021948"><ele>240.0</ele><time>2026-05-02T12:25:57.999Z</time></trkpt><trkpt lat="43.0645508" lon="12.3023814"><ele>240.0</ele><time>2026-05-02T12:25:58.999Z</time></trkpt><trkpt lat="43.0646316" lon="12.3025746"><ele>239.75</ele><time>2026-05-02T12:25:59.998Z</time></trkpt><trkpt lat="43.0647095" lon="12.3027517"><ele>239.5</ele><time>2026-05-02T12:26:00.998Z</time></trkpt><trkpt lat="43.0647933" lon="12.3029342"><ele>239.25</ele><time>2026-05-02T12:26:01.996Z</time></trkpt><trkpt lat="43.0648612" lon="12.3030938"><ele>239.0</ele><time>2026-05-02T12:26:03Z</time></trkpt><trkpt lat="43.0649297" lon="12.3032504"><ele>239.0</ele><time>2026-05-02T12:26:03.991Z</time></trkpt><trkpt lat="43.0649901" lon="12.3033874"><ele>238.99999999999997</ele><time>2026-05-02T12:26:05Z</time></trkpt><trkpt lat="43.0650302" lon="12.3035195"><ele>238.99999999999997</ele><time>2026-05-02T12:26:06Z</time></trkpt><trkpt lat="43.0650579" lon="12.3036448"><ele>239.0</ele><time>2026-05-02T12:26:07Z</time></trkpt><trkpt lat="43.0650677" lon="12.3037795"><ele>239.0</ele><time>2026-05-02T12:26:07.999Z</time></trkpt><trkpt lat="43.0650512" lon="12.3039066"><ele>238.33333333333334</ele><time>2026-05-02T12:26:09Z</time></trkpt><trkpt lat="43.0650047" lon="12.3040235"><ele>237.66666666666669</ele><time>2026-05-02T12:26:09.996Z</time></trkpt><trkpt lat="43.0648081" lon="12.3041622"><ele>237.0</ele><time>2026-05-02T12:26:11.999Z</time></trkpt><trkpt lat="43.0646769" lon="12.3042209"><ele>236.83333333333334</ele><time>2026-05-02T12:26:13Z</time></trkpt><trkpt lat="43.0645761" lon="12.3043024"><ele>236.66666666666669</ele><time>2026-05-02T12:26:14Z</time></trkpt><trkpt lat="43.0645012" lon="12.3043763"><ele>236.5</ele><time>2026-05-02T12:26:15Z</time></trkpt><trkpt lat="43.06444" lon="12.3044396"><ele>236.33333333333334</ele><time>2026-05-02T12:26:16Z</time></trkpt><trkpt lat="43.0643805" lon="12.3044994"><ele>236.16666666666669</ele><time>2026-05-02T12:26:16.993Z</time></trkpt><trkpt lat="43.0643261" lon="12.3045574"><ele>236.0</ele><time>2026-05-02T12:26:18Z</time></trkpt><trkpt lat="43.0642214" lon="12.3046637"><ele>236.0</ele><time>2026-05-02T12:26:19.997Z</time></trkpt><trkpt lat="43.0641587" lon="12.3047241"><ele>236.00000000000003</ele><time>2026-05-02T12:26:20.997Z</time></trkpt><trkpt lat="43.0641034" lon="12.3047926"><ele>236.00000000000003</ele><time>2026-05-02T12:26:22Z</time></trkpt><trkpt lat="43.0640019" lon="12.3048495"><ele>236.0</ele><time>2026-05-02T12:26:22.992Z</time></trkpt><trkpt lat="43.0639205" lon="12.3049374"><ele>236.0</ele><time>2026-05-02T12:26:23.998Z</time></trkpt><trkpt lat="43.0637792" lon="12.3049734"><ele>236.25</ele><time>2026-05-02T12:26:25Z</time></trkpt><trkpt lat="43.0636468" lon="12.3050254"><ele>236.5</ele><time>2026-05-02T12:26:25.996Z</time></trkpt><trkpt lat="43.063513" lon="12.3050711"><ele>236.75</ele><time>2026-05-02T12:26:27Z</time></trkpt><trkpt lat="43.0633483" lon="12.3051251"><ele>237.0</ele><time>2026-05-02T12:26:28Z</time></trkpt><trkpt lat="43.0632026" lon="12.3051727"><ele>237.0</ele><time>2026-05-02T12:26:28.998Z</time></trkpt><trkpt lat="43.0630744" lon="12.3052269"><ele>237.0</ele><time>2026-05-02T12:26:29.999Z</time></trkpt><trkpt lat="43.0629421" lon="12.3052696"><ele>237.0</ele><time>2026-05-02T12:26:31Z</time></trkpt><trkpt lat="43.0628262" lon="12.3053177"><ele>237.0</ele><time>2026-05-02T12:26:32Z</time></trkpt><trkpt lat="43.0627369" lon="12.3054057"><ele>237.0</ele><time>2026-05-02T12:26:32.991Z</time></trkpt><trkpt lat="43.0626647" lon="12.3055206"><ele>237.0</ele><time>2026-05-02T12:26:34Z</time></trkpt><trkpt lat="43.062618" lon="12.3056734"><ele>237.0</ele><time>2026-05-02T12:26:35Z</time></trkpt><trkpt lat="43.0625872" lon="12.305824"><ele>237.0</ele><time>2026-05-02T12:26:35.995Z</time></trkpt><trkpt lat="43.0625445" lon="12.305967"><ele>237.25</ele><time>2026-05-02T12:26:36.996Z</time></trkpt><trkpt lat="43.0624785" lon="12.3060854"><ele>237.5</ele><time>2026-05-02T12:26:38Z</time></trkpt><trkpt lat="43.0623793" lon="12.3061768"><ele>237.75</ele><time>2026-05-02T12:26:38.996Z</time></trkpt><trkpt lat="43.0622571" lon="12.3062351"><ele>238.0</ele><time>2026-05-02T12:26:40Z</time></trkpt><trkpt lat="43.0621238" lon="12.3062987"><ele>238.5</ele><time>2026-05-02T12:26:41Z</time></trkpt><trkpt lat="43.0619971" lon="12.3063719"><ele>239.0</ele><time>2026-05-02T12:26:41.998Z</time></trkpt><trkpt lat="43.0618657" lon="12.3064567"><ele>239.5</ele><time>2026-05-02T12:26:42.999Z</time></trkpt><trkpt lat="43.0617226" lon="12.3065322"><ele>240.0</ele><time>2026-05-02T12:26:43.999Z</time></trkpt><trkpt lat="43.0615722" lon="12.3065976"><ele>240.0</ele><time>2026-05-02T12:26:44.998Z</time></trkpt><trkpt lat="43.0614276" lon="12.3066933"><ele>240.0</ele><time>2026-05-02T12:26:46Z</time></trkpt><trkpt lat="43.0612827" lon="12.306773"><ele>240.0</ele><time>2026-05-02T12:26:46.994Z</time></trkpt><trkpt lat="43.0611485" lon="12.3068473"><ele>240.0</ele><time>2026-05-02T12:26:47.997Z</time></trkpt><trkpt lat="43.0610228" lon="12.3069097"><ele>240.0</ele><time>2026-05-02T12:26:48.994Z</time></trkpt><trkpt lat="43.0608992" lon="12.3069725"><ele>240.0</ele><time>2026-05-02T12:26:49.996Z</time></trkpt><trkpt lat="43.0607924" lon="12.3070266"><ele>240.0</ele><time>2026-05-02T12:26:50.994Z</time></trkpt><trkpt lat="43.0606897" lon="12.307088"><ele>240.0</ele><time>2026-05-02T12:26:52Z</time></trkpt><trkpt lat="43.0605982" lon="12.3071424"><ele>240.0</ele><time>2026-05-02T12:26:52.995Z</time></trkpt><trkpt lat="43.0605196" lon="12.3071918"><ele>240.0</ele><time>2026-05-02T12:26:54Z</time></trkpt><trkpt lat="43.0604291" lon="12.3072744"><ele>240.0</ele><time>2026-05-02T12:26:56Z</time></trkpt><trkpt lat="43.0603686" lon="12.3073085"><ele>240.0</ele><time>2026-05-02T12:26:58Z</time></trkpt><trkpt lat="43.0602689" lon="12.3072805"><ele>240.0</ele><time>2026-05-02T12:27:00Z</time></trkpt><trkpt lat="43.0602023" lon="12.3072452"><ele>240.0</ele><time>2026-05-02T12:27:00.99Z</time></trkpt><trkpt lat="43.0601065" lon="12.3071973"><ele>240.0</ele><time>2026-05-02T12:27:01.999Z</time></trkpt><trkpt lat="43.0600045" lon="12.3071484"><ele>240.0</ele><time>2026-05-02T12:27:02.996Z</time></trkpt><trkpt lat="43.0598943" lon="12.3070647"><ele>240.0</ele><time>2026-05-02T12:27:04Z</time></trkpt><trkpt lat="43.059779" lon="12.3069812"><ele>240.2</ele><time>2026-05-02T12:27:04.998Z</time></trkpt><trkpt lat="43.0596836" lon="12.3069013"><ele>240.4</ele><time>2026-05-02T12:27:06Z</time></trkpt><trkpt lat="43.0596086" lon="12.3068156"><ele>240.60000000000002</ele><time>2026-05-02T12:27:06.997Z</time></trkpt><trkpt lat="43.0595328" lon="12.3067285"><ele>240.8</ele><time>2026-05-02T12:27:08Z</time></trkpt><trkpt lat="43.059461" lon="12.3066682"><ele>241.0</ele><time>2026-05-02T12:27:08.993Z</time></trkpt><trkpt lat="43.0593688" lon="12.3066318"><ele>241.0</ele><time>2026-05-02T12:27:11Z</time></trkpt><trkpt lat="43.0592799" lon="12.3067567"><ele>241.0</ele><time>2026-05-02T12:27:12.998Z</time></trkpt><trkpt lat="43.0592185" lon="12.3068574"><ele>241.0</ele><time>2026-05-02T12:27:14Z</time></trkpt><trkpt lat="43.0591563" lon="12.3069816"><ele>241.0</ele><time>2026-05-02T12:27:15Z</time></trkpt><trkpt lat="43.0591071" lon="12.307145"><ele>239.75</ele><time>2026-05-02T12:27:16Z</time></trkpt><trkpt lat="43.0590596" lon="12.307321"><ele>238.5</ele><time>2026-05-02T12:27:16.999Z</time></trkpt><trkpt lat="43.0590041" lon="12.3075049"><ele>237.25</ele><time>2026-05-02T12:27:18Z</time></trkpt><trkpt lat="43.0589491" lon="12.3077038"><ele>236.0</ele><time>2026-05-02T12:27:18.997Z</time></trkpt><trkpt lat="43.0588955" lon="12.3079039"><ele>235.33333333333334</ele><time>2026-05-02T12:27:20Z</time></trkpt><trkpt lat="43.0588321" lon="12.3081255"><ele>234.66666666666669</ele><time>2026-05-02T12:27:20.999Z</time></trkpt><trkpt lat="43.0587658" lon="12.3083516"><ele>234.0</ele><time>2026-05-02T12:27:22Z</time></trkpt><trkpt lat="43.058691" lon="12.3085899"><ele>234.0</ele><time>2026-05-02T12:27:22.997Z</time></trkpt><trkpt lat="43.0586315" lon="12.3088219"><ele>234.0</ele><time>2026-05-02T12:27:24Z</time></trkpt><trkpt lat="43.0585571" lon="12.3090582"><ele>234.0</ele><time>2026-05-02T12:27:24.997Z</time></trkpt><trkpt lat="43.0585067" lon="12.3093085"><ele>233.33333333333331</ele><time>2026-05-02T12:27:26Z</time></trkpt><trkpt lat="43.0584831" lon="12.3095793"><ele>232.66666666666666</ele><time>2026-05-02T12:27:26.999Z</time></trkpt><trkpt lat="43.0584815" lon="12.3098559"><ele>232.0</ele><time>2026-05-02T12:27:27.999Z</time></trkpt><trkpt lat="43.0584954" lon="12.3101368"><ele>232.0</ele><time>2026-05-02T12:27:28.999Z</time></trkpt><trkpt lat="43.0585134" lon="12.3104308"><ele>232.0</ele><time>2026-05-02T12:27:29.993Z</time></trkpt><trkpt lat="43.0585435" lon="12.3107054"><ele>232.0</ele><time>2026-05-02T12:27:30.994Z</time></trkpt><trkpt lat="43.0585671" lon="12.310987"><ele>232.33333333333331</ele><time>2026-05-02T12:27:31.997Z</time></trkpt><trkpt lat="43.0585938" lon="12.3112614"><ele>232.66666666666669</ele><time>2026-05-02T12:27:32.999Z</time></trkpt><trkpt lat="43.0586208" lon="12.3115429"><ele>233.0</ele><time>2026-05-02T12:27:34Z</time></trkpt><trkpt lat="43.0586389" lon="12.3118109"><ele>233.0</ele><time>2026-05-02T12:27:34.999Z</time></trkpt><trkpt lat="43.0586626" lon="12.312087"><ele>233.0</ele><time>2026-05-02T12:27:36Z</time></trkpt><trkpt lat="43.0586843" lon="12.3123629"><ele>233.0</ele><time>2026-05-02T12:27:37Z</time></trkpt><trkpt lat="43.0587035" lon="12.3126404"><ele>233.0</ele><time>2026-05-02T12:27:38Z</time></trkpt><trkpt lat="43.0587229" lon="12.3129155"><ele>233.0</ele><time>2026-05-02T12:27:38.999Z</time></trkpt><trkpt lat="43.0587404" lon="12.313186"><ele>233.0</ele><time>2026-05-02T12:27:39.994Z</time></trkpt><trkpt lat="43.0587609" lon="12.3134522"><ele>233.0</ele><time>2026-05-02T12:27:41Z</time></trkpt><trkpt lat="43.0587897" lon="12.3137123"><ele>233.0</ele><time>2026-05-02T12:27:41.998Z</time></trkpt><trkpt lat="43.0588162" lon="12.3139655"><ele>233.0</ele><time>2026-05-02T12:27:42.997Z</time></trkpt><trkpt lat="43.0588636" lon="12.3141837"><ele>232.75</ele><time>2026-05-02T12:27:43.997Z</time></trkpt><trkpt lat="43.0589041" lon="12.3143919"><ele>232.5</ele><time>2026-05-02T12:27:44.991Z</time></trkpt><trkpt lat="43.0589432" lon="12.3145957"><ele>232.25</ele><time>2026-05-02T12:27:46Z</time></trkpt><trkpt lat="43.0589777" lon="12.3147641"><ele>232.0</ele><time>2026-05-02T12:27:47Z</time></trkpt><trkpt lat="43.0589919" lon="12.314929"><ele>231.75</ele><time>2026-05-02T12:27:48Z</time></trkpt><trkpt lat="43.0589766" lon="12.3150954"><ele>231.5</ele><time>2026-05-02T12:27:48.994Z</time></trkpt><trkpt lat="43.0589422" lon="12.3152491"><ele>231.25</ele><time>2026-05-02T12:27:49.999Z</time></trkpt><trkpt lat="43.0588129" lon="12.3153515"><ele>231.0</ele><time>2026-05-02T12:27:50.999Z</time></trkpt><trkpt lat="43.0586766" lon="12.3154289"><ele>231.0</ele><time>2026-05-02T12:27:52Z</time></trkpt><trkpt lat="43.0585285" lon="12.3155077"><ele>231.0</ele><time>2026-05-02T12:27:52.999Z</time></trkpt><trkpt lat="43.0583883" lon="12.3156245"><ele>231.0</ele><time>2026-05-02T12:27:54Z</time></trkpt><trkpt lat="43.058254" lon="12.315772"><ele>231.0</ele><time>2026-05-02T12:27:54.997Z</time></trkpt><trkpt lat="43.0581189" lon="12.3159344"><ele>231.0</ele><time>2026-05-02T12:27:56Z</time></trkpt><trkpt lat="43.0579821" lon="12.3160999"><ele>231.0</ele><time>2026-05-02T12:27:57Z</time></trkpt><trkpt lat="43.0578365" lon="12.3162576"><ele>231.0</ele><time>2026-05-02T12:27:57.996Z</time></trkpt><trkpt lat="43.0576832" lon="12.3164168"><ele>231.0</ele><time>2026-05-02T12:27:58.999Z</time></trkpt><trkpt lat="43.0575223" lon="12.3165623"><ele>231.0</ele><time>2026-05-02T12:27:59.998Z</time></trkpt><trkpt lat="43.0573522" lon="12.3166889"><ele>232.0</ele><time>2026-05-02T12:28:00.996Z</time></trkpt><trkpt lat="43.0571807" lon="12.3168173"><ele>233.0</ele><time>2026-05-02T12:28:01.999Z</time></trkpt><trkpt lat="43.0570103" lon="12.31695"><ele>234.0</ele><time>2026-05-02T12:28:03Z</time></trkpt><trkpt lat="43.0568444" lon="12.3170816"><ele>234.0</ele><time>2026-05-02T12:28:04Z</time></trkpt><trkpt lat="43.0566749" lon="12.3172112"><ele>234.0</ele><time>2026-05-02T12:28:04.997Z</time></trkpt><trkpt lat="43.0565043" lon="12.3173398"><ele>234.0</ele><time>2026-05-02T12:28:05.998Z</time></trkpt><trkpt lat="43.0563497" lon="12.317493"><ele>236.0</ele><time>2026-05-02T12:28:06.999Z</time></trkpt><trkpt lat="43.0562212" lon="12.3176916"><ele>238.0</ele><time>2026-05-02T12:28:07.999Z</time></trkpt><trkpt lat="43.0561172" lon="12.3179157"><ele>240.0</ele><time>2026-05-02T12:28:08.997Z</time></trkpt><trkpt lat="43.0560269" lon="12.3181506"><ele>241.33333333333331</ele><time>2026-05-02T12:28:10Z</time></trkpt><trkpt lat="43.0559316" lon="12.3183838"><ele>242.66666666666666</ele><time>2026-05-02T12:28:11Z</time></trkpt><trkpt lat="43.0558284" lon="12.3186119"><ele>244.0</ele><time>2026-05-02T12:28:12Z</time></trkpt><trkpt lat="43.0557255" lon="12.3188452"><ele>245.33333333333331</ele><time>2026-05-02T12:28:13Z</time></trkpt><trkpt lat="43.0556235" lon="12.3190753"><ele>246.66666666666669</ele><time>2026-05-02T12:28:13.997Z</time></trkpt><trkpt lat="43.0555285" lon="12.3193079"><ele>248.0</ele><time>2026-05-02T12:28:14.999Z</time></trkpt><trkpt lat="43.0554274" lon="12.3195348"><ele>249.0</ele><time>2026-05-02T12:28:15.999Z</time></trkpt><trkpt lat="43.0553314" lon="12.319767"><ele>250.0</ele><time>2026-05-02T12:28:17Z</time></trkpt><trkpt lat="43.0552386" lon="12.3199967"><ele>251.0</ele><time>2026-05-02T12:28:18Z</time></trkpt><trkpt lat="43.0551434" lon="12.320221"><ele>251.0</ele><time>2026-05-02T12:28:19Z</time></trkpt><trkpt lat="43.0550524" lon="12.3204527"><ele>251.0</ele><time>2026-05-02T12:28:20Z</time></trkpt><trkpt lat="43.0549636" lon="12.320684"><ele>251.0</ele><time>2026-05-02T12:28:20.996Z</time></trkpt><trkpt lat="43.054868" lon="12.3208965"><ele>253.33333333333334</ele><time>2026-05-02T12:28:21.998Z</time></trkpt><trkpt lat="43.0547646" lon="12.321075"><ele>255.66666666666669</ele><time>2026-05-02T12:28:22.999Z</time></trkpt><trkpt lat="43.0546316" lon="12.321211"><ele>258.0</ele><time>2026-05-02T12:28:23.997Z</time></trkpt><trkpt lat="43.0544781" lon="12.3212913"><ele>258.0</ele><time>2026-05-02T12:28:25Z</time></trkpt><trkpt lat="43.0543337" lon="12.3213558"><ele>258.0</ele><time>2026-05-02T12:28:25.996Z</time></trkpt><trkpt lat="43.0541529" lon="12.3213663"><ele>258.0</ele><time>2026-05-02T12:28:27Z</time></trkpt><trkpt lat="43.0539985" lon="12.321456"><ele>259.3333333333333</ele><time>2026-05-02T12:28:27.999Z</time></trkpt><trkpt lat="43.0538571" lon="12.3215858"><ele>260.66666666666663</ele><time>2026-05-02T12:28:28.999Z</time></trkpt><trkpt lat="43.0537332" lon="12.3217627"><ele>262.0</ele><time>2026-05-02T12:28:29.988Z</time></trkpt><trkpt lat="43.0536228" lon="12.3219498"><ele>262.0</ele><time>2026-05-02T12:28:31Z</time></trkpt><trkpt lat="43.0535055" lon="12.3221405"><ele>262.0</ele><time>2026-05-02T12:28:31.999Z</time></trkpt><trkpt lat="43.0533764" lon="12.3223177"><ele>262.0</ele><time>2026-05-02T12:28:33Z</time></trkpt><trkpt lat="43.0532579" lon="12.3224742"><ele>263.5</ele><time>2026-05-02T12:28:34Z</time></trkpt><trkpt lat="43.0531421" lon="12.3226045"><ele>265.0</ele><time>2026-05-02T12:28:35Z</time></trkpt><trkpt lat="43.0530261" lon="12.3227033"><ele>266.5</ele><time>2026-05-02T12:28:35.994Z</time></trkpt><trkpt lat="43.0529242" lon="12.3228033"><ele>268.0</ele><time>2026-05-02T12:28:37Z</time></trkpt><trkpt lat="43.0528565" lon="12.3229338"><ele>269.5</ele><time>2026-05-02T12:28:37.992Z</time></trkpt><trkpt lat="43.052832" lon="12.3230786"><ele>271.0</ele><time>2026-05-02T12:28:39Z</time></trkpt><trkpt lat="43.0528533" lon="12.3232293"><ele>272.5</ele><time>2026-05-02T12:28:39.999Z</time></trkpt><trkpt lat="43.0529239" lon="12.3233641"><ele>274.0</ele><time>2026-05-02T12:28:41Z</time></trkpt><trkpt lat="43.0530272" lon="12.3234696"><ele>274.0</ele><time>2026-05-02T12:28:41.997Z</time></trkpt><trkpt lat="43.0531453" lon="12.3235679"><ele>274.0</ele><time>2026-05-02T12:28:42.998Z</time></trkpt><trkpt lat="43.0532596" lon="12.3236792"><ele>274.0</ele><time>2026-05-02T12:28:43.999Z</time></trkpt><trkpt lat="43.0533557" lon="12.3238264"><ele>274.0</ele><time>2026-05-02T12:28:44.994Z</time></trkpt><trkpt lat="43.0534335" lon="12.3239954"><ele>275.0</ele><time>2026-05-02T12:28:46Z</time></trkpt><trkpt lat="43.0534917" lon="12.3241808"><ele>276.0</ele><time>2026-05-02T12:28:46.996Z</time></trkpt><trkpt lat="43.0535339" lon="12.3243637"><ele>277.0</ele><time>2026-05-02T12:28:48Z</time></trkpt><trkpt lat="43.0535499" lon="12.3245403"><ele>278.0</ele><time>2026-05-02T12:28:48.996Z</time></trkpt><trkpt lat="43.053539" lon="12.3246937"><ele>279.4</ele><time>2026-05-02T12:28:50Z</time></trkpt><trkpt lat="43.0535162" lon="12.3248253"><ele>280.8</ele><time>2026-05-02T12:28:50.996Z</time></trkpt><trkpt lat="43.0534965" lon="12.3249435"><ele>282.2</ele><time>2026-05-02T12:28:51.999Z</time></trkpt><trkpt lat="43.0534984" lon="12.3250395"><ele>283.6</ele><time>2026-05-02T12:28:53Z</time></trkpt><trkpt lat="43.0535696" lon="12.325185"><ele>285.0</ele><time>2026-05-02T12:28:54.999Z</time></trkpt><trkpt lat="43.0536238" lon="12.3252609"><ele>285.0</ele><time>2026-05-02T12:28:56Z</time></trkpt><trkpt lat="43.0536966" lon="12.3253376"><ele>285.0</ele><time>2026-05-02T12:28:56.998Z</time></trkpt><trkpt lat="43.0537559" lon="12.3254104"><ele>285.0</ele><time>2026-05-02T12:28:57.998Z</time></trkpt><trkpt lat="43.0538166" lon="12.3254782"><ele>285.0</ele><time>2026-05-02T12:28:59Z</time></trkpt><trkpt lat="43.0538691" lon="12.3255363"><ele>285.0</ele><time>2026-05-02T12:28:59.996Z</time></trkpt><trkpt lat="43.0539486" lon="12.3256203"><ele>285.0</ele><time>2026-05-02T12:29:01.998Z</time></trkpt><trkpt lat="43.0540144" lon="12.3256905"><ele>286.0</ele><time>2026-05-02T12:29:03.993Z</time></trkpt><trkpt lat="43.0540783" lon="12.32576"><ele>286.0</ele><time>2026-05-02T12:29:05.999Z</time></trkpt><trkpt lat="43.0541328" lon="12.3258115"><ele>278.0</ele><time>2026-05-02T12:29:08Z</time></trkpt><trkpt lat="43.0542187" lon="12.3256875"><ele>278.0</ele><time>2026-05-02T12:29:18.073Z</time></trkpt></trkseg></trk></gpx>